<?xml version="1.0" encoding="UTF-8" standalone="no" ?>
<gpx xmlns="http://www.topografix.com/GPX/1/1" xmlns:xsi="http://www.w3.org/2001/XMLSchema-instance" xsi:schemaLocation="http://www.topografix.com/GPX/1/1 http://www.topografix.com/GPX/1/1/gpx.xsd" version="1.1" creator="VisuGPX - https://www.visugpx.com">
  <metadata>
    <name>GTJ Vtt - Etape 8 et dernière </name>
    <desc><![CDATA[Pour la huitième et dernière étape de notre Grande Traversée du Jura à Vtt, nous avons pris la trace Ouest et le plateau de Hauteville. Pour cet itinéraire c’est 69 km et 1135 m de dénivelé.  La météo est très acceptable avec un fond de l’air bien frais en début de matinée puis au fur et à mesure que l’on s’approche de midi et que l'on perd de l'altitude une température bien plus importante. On traverse toujours de très beaux paysages que l’on parcourt par des sentiers et pistes forestières ainsi que de petites routes. On voit en permanence vers l'Est la grande crête du Grand Colombier Pendant la première partie de l’étape on reste entre 1250 m et 1000 m… la deuxième partie de la balade s’effectue en descente avec quelques courtes mais raides remontées. Les dix derniers km sont sur du plat en fond de vallée avant d’arriver à Culoz fin officielle de la GTJ.]]></desc>
  </metadata>
  <trk>
    <name><![CDATA[GTJ Vtt - Etape 8 et dernière ]]></name>
    <trkseg>
      <trkpt lat="46.03518" lon="5.7014">
        <ele>1055</ele>
        <time>2023-05-19T06:36:14.000Z</time>
      </trkpt>
      <trkpt lat="46.03518" lon="5.7014">
        <ele>1046.1999511719</ele>
        <time>2023-05-19T06:36:15.000Z</time>
      </trkpt>
      <trkpt lat="46.03526" lon="5.70135">
        <ele>1046.5999755859</ele>
        <time>2023-05-19T06:37:37.000Z</time>
      </trkpt>
      <trkpt lat="46.03528" lon="5.70134">
        <ele>1046.8000488281</ele>
        <time>2023-05-19T06:37:39.000Z</time>
      </trkpt>
      <trkpt lat="46.03537" lon="5.70135">
        <ele>1046.8000488281</ele>
        <time>2023-05-19T06:37:43.000Z</time>
      </trkpt>
      <trkpt lat="46.03541" lon="5.70137">
        <ele>1046.8000488281</ele>
        <time>2023-05-19T06:37:45.000Z</time>
      </trkpt>
      <trkpt lat="46.0356" lon="5.70141">
        <ele>1046.8000488281</ele>
        <time>2023-05-19T06:37:51.000Z</time>
      </trkpt>
      <trkpt lat="46.03587" lon="5.70148">
        <ele>1046.5999755859</ele>
        <time>2023-05-19T06:37:56.000Z</time>
      </trkpt>
      <trkpt lat="46.03623" lon="5.70149">
        <ele>1045</ele>
        <time>2023-05-19T06:38:01.000Z</time>
      </trkpt>
      <trkpt lat="46.03629" lon="5.70148">
        <ele>1044.8000488281</ele>
        <time>2023-05-19T06:38:02.000Z</time>
      </trkpt>
      <trkpt lat="46.03646" lon="5.70147">
        <ele>1043.5999755859</ele>
        <time>2023-05-19T06:38:04.000Z</time>
      </trkpt>
      <trkpt lat="46.03681" lon="5.70145">
        <ele>1042.1999511719</ele>
        <time>2023-05-19T06:38:08.000Z</time>
      </trkpt>
      <trkpt lat="46.03699" lon="5.70145">
        <ele>1041</ele>
        <time>2023-05-19T06:38:10.000Z</time>
      </trkpt>
      <trkpt lat="46.03714" lon="5.70146">
        <ele>1039.8000488281</ele>
        <time>2023-05-19T06:38:12.000Z</time>
      </trkpt>
      <trkpt lat="46.0372" lon="5.70146">
        <ele>1039.5999755859</ele>
        <time>2023-05-19T06:38:13.000Z</time>
      </trkpt>
      <trkpt lat="46.03745" lon="5.70148">
        <ele>1039</ele>
        <time>2023-05-19T06:38:18.000Z</time>
      </trkpt>
      <trkpt lat="46.03755" lon="5.7015">
        <ele>1038.8000488281</ele>
        <time>2023-05-19T06:38:20.000Z</time>
      </trkpt>
      <trkpt lat="46.03778" lon="5.70152">
        <ele>1038.8000488281</ele>
        <time>2023-05-19T06:38:25.000Z</time>
      </trkpt>
      <trkpt lat="46.03809" lon="5.70156">
        <ele>1037.8000488281</ele>
        <time>2023-05-19T06:38:32.000Z</time>
      </trkpt>
      <trkpt lat="46.03818" lon="5.70157">
        <ele>1037.8000488281</ele>
        <time>2023-05-19T06:38:34.000Z</time>
      </trkpt>
      <trkpt lat="46.03831" lon="5.70159">
        <ele>1037.4000244141</ele>
        <time>2023-05-19T06:38:37.000Z</time>
      </trkpt>
      <trkpt lat="46.03842" lon="5.7016">
        <ele>1037.1999511719</ele>
        <time>2023-05-19T06:38:39.000Z</time>
      </trkpt>
      <trkpt lat="46.03848" lon="5.7016">
        <ele>1037</ele>
        <time>2023-05-19T06:38:40.000Z</time>
      </trkpt>
      <trkpt lat="46.0386" lon="5.70155">
        <ele>1036.5999755859</ele>
        <time>2023-05-19T06:38:42.000Z</time>
      </trkpt>
      <trkpt lat="46.03871" lon="5.70147">
        <ele>1036.1999511719</ele>
        <time>2023-05-19T06:38:44.000Z</time>
      </trkpt>
      <trkpt lat="46.03875" lon="5.70143">
        <ele>1035.5999755859</ele>
        <time>2023-05-19T06:38:45.000Z</time>
      </trkpt>
      <trkpt lat="46.03879" lon="5.70137">
        <ele>1035.4000244141</ele>
        <time>2023-05-19T06:38:46.000Z</time>
      </trkpt>
      <trkpt lat="46.03886" lon="5.7012">
        <ele>1034.1999511719</ele>
        <time>2023-05-19T06:38:48.000Z</time>
      </trkpt>
      <trkpt lat="46.03887" lon="5.70104">
        <ele>1033.1999511719</ele>
        <time>2023-05-19T06:38:50.000Z</time>
      </trkpt>
      <trkpt lat="46.03885" lon="5.70095">
        <ele>1032.5999755859</ele>
        <time>2023-05-19T06:38:51.000Z</time>
      </trkpt>
      <trkpt lat="46.03883" lon="5.70085">
        <ele>1032.1999511719</ele>
        <time>2023-05-19T06:38:52.000Z</time>
      </trkpt>
      <trkpt lat="46.0388" lon="5.70077">
        <ele>1031.8000488281</ele>
        <time>2023-05-19T06:38:53.000Z</time>
      </trkpt>
      <trkpt lat="46.03875" lon="5.70062">
        <ele>1031.4000244141</ele>
        <time>2023-05-19T06:38:55.000Z</time>
      </trkpt>
      <trkpt lat="46.03873" lon="5.70054">
        <ele>1030.8000488281</ele>
        <time>2023-05-19T06:38:56.000Z</time>
      </trkpt>
      <trkpt lat="46.03871" lon="5.70041">
        <ele>1030.1999511719</ele>
        <time>2023-05-19T06:38:58.000Z</time>
      </trkpt>
      <trkpt lat="46.03867" lon="5.70033">
        <ele>1029.8000488281</ele>
        <time>2023-05-19T06:39:01.000Z</time>
      </trkpt>
      <trkpt lat="46.03863" lon="5.7004">
        <ele>1029</ele>
        <time>2023-05-19T06:39:04.000Z</time>
      </trkpt>
      <trkpt lat="46.03863" lon="5.70043">
        <ele>1028.8000488281</ele>
        <time>2023-05-19T06:39:05.000Z</time>
      </trkpt>
      <trkpt lat="46.03869" lon="5.7005">
        <ele>1028.8000488281</ele>
        <time>2023-05-19T06:39:08.000Z</time>
      </trkpt>
      <trkpt lat="46.03882" lon="5.70047">
        <ele>1029</ele>
        <time>2023-05-19T06:39:13.000Z</time>
      </trkpt>
      <trkpt lat="46.03883" lon="5.70043">
        <ele>1029</ele>
        <time>2023-05-19T06:39:14.000Z</time>
      </trkpt>
      <trkpt lat="46.03885" lon="5.7004">
        <ele>1029</ele>
        <time>2023-05-19T06:39:15.000Z</time>
      </trkpt>
      <trkpt lat="46.03886" lon="5.70032">
        <ele>1029.1999511719</ele>
        <time>2023-05-19T06:39:17.000Z</time>
      </trkpt>
      <trkpt lat="46.03887" lon="5.70028">
        <ele>1029.1999511719</ele>
        <time>2023-05-19T06:39:18.000Z</time>
      </trkpt>
      <trkpt lat="46.03887" lon="5.70024">
        <ele>1029.4000244141</ele>
        <time>2023-05-19T06:39:19.000Z</time>
      </trkpt>
      <trkpt lat="46.03888" lon="5.70013">
        <ele>1029.8000488281</ele>
        <time>2023-05-19T06:39:22.000Z</time>
      </trkpt>
      <trkpt lat="46.03889" lon="5.70003">
        <ele>1030.8000488281</ele>
        <time>2023-05-19T06:39:25.000Z</time>
      </trkpt>
      <trkpt lat="46.03891" lon="5.69996">
        <ele>1031.4000244141</ele>
        <time>2023-05-19T06:39:27.000Z</time>
      </trkpt>
      <trkpt lat="46.03892" lon="5.6999">
        <ele>1032</ele>
        <time>2023-05-19T06:39:29.000Z</time>
      </trkpt>
      <trkpt lat="46.03896" lon="5.69979">
        <ele>1033</ele>
        <time>2023-05-19T06:39:33.000Z</time>
      </trkpt>
      <trkpt lat="46.03897" lon="5.69976">
        <ele>1033.1999511719</ele>
        <time>2023-05-19T06:39:34.000Z</time>
      </trkpt>
      <trkpt lat="46.03899" lon="5.69973">
        <ele>1033.1999511719</ele>
        <time>2023-05-19T06:39:35.000Z</time>
      </trkpt>
      <trkpt lat="46.03903" lon="5.69963">
        <ele>1034.5999755859</ele>
        <time>2023-05-19T06:39:39.000Z</time>
      </trkpt>
      <trkpt lat="46.0391" lon="5.69951">
        <ele>1035.5999755859</ele>
        <time>2023-05-19T06:39:44.000Z</time>
      </trkpt>
      <trkpt lat="46.03913" lon="5.69944">
        <ele>1036.1999511719</ele>
        <time>2023-05-19T06:39:47.000Z</time>
      </trkpt>
      <trkpt lat="46.03916" lon="5.69937">
        <ele>1036.8000488281</ele>
        <time>2023-05-19T06:39:50.000Z</time>
      </trkpt>
      <trkpt lat="46.03921" lon="5.69923">
        <ele>1038</ele>
        <time>2023-05-19T06:39:55.000Z</time>
      </trkpt>
      <trkpt lat="46.03924" lon="5.69918">
        <ele>1038.4000244141</ele>
        <time>2023-05-19T06:39:57.000Z</time>
      </trkpt>
      <trkpt lat="46.03927" lon="5.6991">
        <ele>1039</ele>
        <time>2023-05-19T06:40:00.000Z</time>
      </trkpt>
      <trkpt lat="46.03931" lon="5.69902">
        <ele>1039.8000488281</ele>
        <time>2023-05-19T06:40:03.000Z</time>
      </trkpt>
      <trkpt lat="46.03933" lon="5.69897">
        <ele>1040.1999511719</ele>
        <time>2023-05-19T06:40:05.000Z</time>
      </trkpt>
      <trkpt lat="46.03939" lon="5.69888">
        <ele>1041.1999511719</ele>
        <time>2023-05-19T06:40:09.000Z</time>
      </trkpt>
      <trkpt lat="46.03945" lon="5.69882">
        <ele>1042.4000244141</ele>
        <time>2023-05-19T06:40:12.000Z</time>
      </trkpt>
      <trkpt lat="46.03952" lon="5.69877">
        <ele>1043.4000244141</ele>
        <time>2023-05-19T06:40:16.000Z</time>
      </trkpt>
      <trkpt lat="46.03955" lon="5.69875">
        <ele>1043.5999755859</ele>
        <time>2023-05-19T06:40:17.000Z</time>
      </trkpt>
      <trkpt lat="46.03977" lon="5.69858">
        <ele>1044.1999511719</ele>
        <time>2023-05-19T06:40:28.000Z</time>
      </trkpt>
      <trkpt lat="46.03989" lon="5.69848">
        <ele>1043.8000488281</ele>
        <time>2023-05-19T06:40:34.000Z</time>
      </trkpt>
      <trkpt lat="46.04005" lon="5.69823">
        <ele>1043.8000488281</ele>
        <time>2023-05-19T06:40:42.000Z</time>
      </trkpt>
      <trkpt lat="46.04014" lon="5.69798">
        <ele>1044.1999511719</ele>
        <time>2023-05-19T06:40:50.000Z</time>
      </trkpt>
      <trkpt lat="46.04015" lon="5.69791">
        <ele>1044.4000244141</ele>
        <time>2023-05-19T06:40:52.000Z</time>
      </trkpt>
      <trkpt lat="46.04017" lon="5.69778">
        <ele>1045.5999755859</ele>
        <time>2023-05-19T06:40:56.000Z</time>
      </trkpt>
      <trkpt lat="46.04019" lon="5.69771">
        <ele>1046</ele>
        <time>2023-05-19T06:40:58.000Z</time>
      </trkpt>
      <trkpt lat="46.04021" lon="5.69766">
        <ele>1046.5999755859</ele>
        <time>2023-05-19T06:41:00.000Z</time>
      </trkpt>
      <trkpt lat="46.04025" lon="5.69757">
        <ele>1047.8000488281</ele>
        <time>2023-05-19T06:41:03.000Z</time>
      </trkpt>
      <trkpt lat="46.0403" lon="5.69749">
        <ele>1048.8000488281</ele>
        <time>2023-05-19T06:41:06.000Z</time>
      </trkpt>
      <trkpt lat="46.04031" lon="5.69747">
        <ele>1049.1999511719</ele>
        <time>2023-05-19T06:41:07.000Z</time>
      </trkpt>
      <trkpt lat="46.04039" lon="5.69738">
        <ele>1050.5999755859</ele>
        <time>2023-05-19T06:41:11.000Z</time>
      </trkpt>
      <trkpt lat="46.04046" lon="5.69732">
        <ele>1051.5999755859</ele>
        <time>2023-05-19T06:41:15.000Z</time>
      </trkpt>
      <trkpt lat="46.0405" lon="5.69729">
        <ele>1052</ele>
        <time>2023-05-19T06:41:17.000Z</time>
      </trkpt>
      <trkpt lat="46.04052" lon="5.69727">
        <ele>1052.5999755859</ele>
        <time>2023-05-19T06:41:18.000Z</time>
      </trkpt>
      <trkpt lat="46.0406" lon="5.6972">
        <ele>1053.8000488281</ele>
        <time>2023-05-19T06:41:22.000Z</time>
      </trkpt>
      <trkpt lat="46.04067" lon="5.69714">
        <ele>1054.8000488281</ele>
        <time>2023-05-19T06:41:26.000Z</time>
      </trkpt>
      <trkpt lat="46.04069" lon="5.69713">
        <ele>1055.1999511719</ele>
        <time>2023-05-19T06:41:27.000Z</time>
      </trkpt>
      <trkpt lat="46.04077" lon="5.69706">
        <ele>1056.5999755859</ele>
        <time>2023-05-19T06:41:31.000Z</time>
      </trkpt>
      <trkpt lat="46.04085" lon="5.697">
        <ele>1057.5999755859</ele>
        <time>2023-05-19T06:41:35.000Z</time>
      </trkpt>
      <trkpt lat="46.04097" lon="5.69692">
        <ele>1058.5999755859</ele>
        <time>2023-05-19T06:41:40.000Z</time>
      </trkpt>
      <trkpt lat="46.04109" lon="5.69683">
        <ele>1059.8000488281</ele>
        <time>2023-05-19T06:41:46.000Z</time>
      </trkpt>
      <trkpt lat="46.04121" lon="5.69676">
        <ele>1060.8000488281</ele>
        <time>2023-05-19T06:41:52.000Z</time>
      </trkpt>
      <trkpt lat="46.04123" lon="5.69675">
        <ele>1060.8000488281</ele>
        <time>2023-05-19T06:41:53.000Z</time>
      </trkpt>
      <trkpt lat="46.0413" lon="5.69672">
        <ele>1061.4000244141</ele>
        <time>2023-05-19T06:41:56.000Z</time>
      </trkpt>
      <trkpt lat="46.04135" lon="5.69671">
        <ele>1062</ele>
        <time>2023-05-19T06:41:58.000Z</time>
      </trkpt>
      <trkpt lat="46.04146" lon="5.69672">
        <ele>1063</ele>
        <time>2023-05-19T06:42:03.000Z</time>
      </trkpt>
      <trkpt lat="46.0416" lon="5.69675">
        <ele>1064</ele>
        <time>2023-05-19T06:42:09.000Z</time>
      </trkpt>
      <trkpt lat="46.04168" lon="5.69677">
        <ele>1064.4000244141</ele>
        <time>2023-05-19T06:42:12.000Z</time>
      </trkpt>
      <trkpt lat="46.04185" lon="5.69684">
        <ele>1064.8000488281</ele>
        <time>2023-05-19T06:42:19.000Z</time>
      </trkpt>
      <trkpt lat="46.04195" lon="5.69685">
        <ele>1065.1999511719</ele>
        <time>2023-05-19T06:42:23.000Z</time>
      </trkpt>
      <trkpt lat="46.04201" lon="5.69686">
        <ele>1065.8000488281</ele>
        <time>2023-05-19T06:42:26.000Z</time>
      </trkpt>
      <trkpt lat="46.04205" lon="5.69687">
        <ele>1066.5999755859</ele>
        <time>2023-05-19T06:42:28.000Z</time>
      </trkpt>
      <trkpt lat="46.04214" lon="5.69686">
        <ele>1067.4000244141</ele>
        <time>2023-05-19T06:42:32.000Z</time>
      </trkpt>
      <trkpt lat="46.04216" lon="5.69686">
        <ele>1067.4000244141</ele>
        <time>2023-05-19T06:42:33.000Z</time>
      </trkpt>
      <trkpt lat="46.04229" lon="5.69686">
        <ele>1068.4000244141</ele>
        <time>2023-05-19T06:42:39.000Z</time>
      </trkpt>
      <trkpt lat="46.0424" lon="5.69687">
        <ele>1068.5999755859</ele>
        <time>2023-05-19T06:42:42.000Z</time>
      </trkpt>
      <trkpt lat="46.04244" lon="5.69689">
        <ele>1068.5999755859</ele>
        <time>2023-05-19T06:42:43.000Z</time>
      </trkpt>
      <trkpt lat="46.04253" lon="5.69698">
        <ele>1068.4000244141</ele>
        <time>2023-05-19T06:42:47.000Z</time>
      </trkpt>
      <trkpt lat="46.04266" lon="5.69706">
        <ele>1068</ele>
        <time>2023-05-19T06:42:52.000Z</time>
      </trkpt>
      <trkpt lat="46.04283" lon="5.69709">
        <ele>1067.8000488281</ele>
        <time>2023-05-19T06:42:58.000Z</time>
      </trkpt>
      <trkpt lat="46.04296" lon="5.69707">
        <ele>1067.8000488281</ele>
        <time>2023-05-19T06:43:03.000Z</time>
      </trkpt>
      <trkpt lat="46.04306" lon="5.69704">
        <ele>1067.8000488281</ele>
        <time>2023-05-19T06:43:07.000Z</time>
      </trkpt>
      <trkpt lat="46.04308" lon="5.69701">
        <ele>1067.8000488281</ele>
        <time>2023-05-19T06:43:08.000Z</time>
      </trkpt>
      <trkpt lat="46.04317" lon="5.69682">
        <ele>1068.8000488281</ele>
        <time>2023-05-19T06:43:15.000Z</time>
      </trkpt>
      <trkpt lat="46.0432" lon="5.69675">
        <ele>1069.8000488281</ele>
        <time>2023-05-19T06:43:17.000Z</time>
      </trkpt>
      <trkpt lat="46.04323" lon="5.6967">
        <ele>1070.8000488281</ele>
        <time>2023-05-19T06:43:19.000Z</time>
      </trkpt>
      <trkpt lat="46.04327" lon="5.69664">
        <ele>1072</ele>
        <time>2023-05-19T06:43:21.000Z</time>
      </trkpt>
      <trkpt lat="46.0433" lon="5.6966">
        <ele>1073.1999511719</ele>
        <time>2023-05-19T06:43:23.000Z</time>
      </trkpt>
      <trkpt lat="46.04336" lon="5.69655">
        <ele>1074</ele>
        <time>2023-05-19T06:43:25.000Z</time>
      </trkpt>
      <trkpt lat="46.04338" lon="5.69652">
        <ele>1074.4000244141</ele>
        <time>2023-05-19T06:43:26.000Z</time>
      </trkpt>
      <trkpt lat="46.04342" lon="5.69646">
        <ele>1075.4000244141</ele>
        <time>2023-05-19T06:43:29.000Z</time>
      </trkpt>
      <trkpt lat="46.04351" lon="5.69638">
        <ele>1076.5999755859</ele>
        <time>2023-05-19T06:43:33.000Z</time>
      </trkpt>
      <trkpt lat="46.04357" lon="5.69633">
        <ele>1077.8000488281</ele>
        <time>2023-05-19T06:43:37.000Z</time>
      </trkpt>
      <trkpt lat="46.04362" lon="5.69629">
        <ele>1079</ele>
        <time>2023-05-19T06:43:40.000Z</time>
      </trkpt>
      <trkpt lat="46.04364" lon="5.69628">
        <ele>1079.5999755859</ele>
        <time>2023-05-19T06:43:41.000Z</time>
      </trkpt>
      <trkpt lat="46.04369" lon="5.69625">
        <ele>1080</ele>
        <time>2023-05-19T06:43:44.000Z</time>
      </trkpt>
      <trkpt lat="46.04375" lon="5.69617">
        <ele>1080.1999511719</ele>
        <time>2023-05-19T06:43:48.000Z</time>
      </trkpt>
      <trkpt lat="46.04388" lon="5.69605">
        <ele>1080.1999511719</ele>
        <time>2023-05-19T06:43:53.000Z</time>
      </trkpt>
      <trkpt lat="46.04399" lon="5.69603">
        <ele>1080</ele>
        <time>2023-05-19T06:43:58.000Z</time>
      </trkpt>
      <trkpt lat="46.04415" lon="5.69605">
        <ele>1079.8000488281</ele>
        <time>2023-05-19T06:44:04.000Z</time>
      </trkpt>
      <trkpt lat="46.04433" lon="5.69605">
        <ele>1079.4000244141</ele>
        <time>2023-05-19T06:44:12.000Z</time>
      </trkpt>
      <trkpt lat="46.04449" lon="5.69602">
        <ele>1079.5999755859</ele>
        <time>2023-05-19T06:44:20.000Z</time>
      </trkpt>
      <trkpt lat="46.04457" lon="5.69598">
        <ele>1080.4000244141</ele>
        <time>2023-05-19T06:44:24.000Z</time>
      </trkpt>
      <trkpt lat="46.04459" lon="5.69598">
        <ele>1080.5999755859</ele>
        <time>2023-05-19T06:44:25.000Z</time>
      </trkpt>
      <trkpt lat="46.04461" lon="5.69597">
        <ele>1081.4000244141</ele>
        <time>2023-05-19T06:44:26.000Z</time>
      </trkpt>
      <trkpt lat="46.04476" lon="5.69595">
        <ele>1082.5999755859</ele>
        <time>2023-05-19T06:44:31.000Z</time>
      </trkpt>
      <trkpt lat="46.04483" lon="5.69595">
        <ele>1083</ele>
        <time>2023-05-19T06:44:34.000Z</time>
      </trkpt>
      <trkpt lat="46.04502" lon="5.69592">
        <ele>1083.5999755859</ele>
        <time>2023-05-19T06:44:39.000Z</time>
      </trkpt>
      <trkpt lat="46.0451" lon="5.69596">
        <ele>1084</ele>
        <time>2023-05-19T06:44:42.000Z</time>
      </trkpt>
      <trkpt lat="46.04519" lon="5.69606">
        <ele>1084.5999755859</ele>
        <time>2023-05-19T06:44:46.000Z</time>
      </trkpt>
      <trkpt lat="46.04523" lon="5.6961">
        <ele>1085</ele>
        <time>2023-05-19T06:44:48.000Z</time>
      </trkpt>
      <trkpt lat="46.04529" lon="5.69615">
        <ele>1085.5999755859</ele>
        <time>2023-05-19T06:44:51.000Z</time>
      </trkpt>
      <trkpt lat="46.04538" lon="5.6962">
        <ele>1086.1999511719</ele>
        <time>2023-05-19T06:44:56.000Z</time>
      </trkpt>
      <trkpt lat="46.04544" lon="5.6962">
        <ele>1086.5999755859</ele>
        <time>2023-05-19T06:44:59.000Z</time>
      </trkpt>
      <trkpt lat="46.04552" lon="5.6962">
        <ele>1087</ele>
        <time>2023-05-19T06:45:04.000Z</time>
      </trkpt>
      <trkpt lat="46.04558" lon="5.69619">
        <ele>1088</ele>
        <time>2023-05-19T06:45:07.000Z</time>
      </trkpt>
      <trkpt lat="46.04563" lon="5.69616">
        <ele>1089</ele>
        <time>2023-05-19T06:45:10.000Z</time>
      </trkpt>
      <trkpt lat="46.04565" lon="5.69615">
        <ele>1089.4000244141</ele>
        <time>2023-05-19T06:45:11.000Z</time>
      </trkpt>
      <trkpt lat="46.04574" lon="5.69608">
        <ele>1090.4000244141</ele>
        <time>2023-05-19T06:45:14.000Z</time>
      </trkpt>
      <trkpt lat="46.04586" lon="5.69595">
        <ele>1091.4000244141</ele>
        <time>2023-05-19T06:45:19.000Z</time>
      </trkpt>
      <trkpt lat="46.04588" lon="5.69593">
        <ele>1091.4000244141</ele>
        <time>2023-05-19T06:45:20.000Z</time>
      </trkpt>
      <trkpt lat="46.04598" lon="5.69591">
        <ele>1092.4000244141</ele>
        <time>2023-05-19T06:45:24.000Z</time>
      </trkpt>
      <trkpt lat="46.04602" lon="5.69592">
        <ele>1092.5999755859</ele>
        <time>2023-05-19T06:45:26.000Z</time>
      </trkpt>
      <trkpt lat="46.04612" lon="5.69592">
        <ele>1093.5999755859</ele>
        <time>2023-05-19T06:45:30.000Z</time>
      </trkpt>
      <trkpt lat="46.04617" lon="5.69594">
        <ele>1094.1999511719</ele>
        <time>2023-05-19T06:45:32.000Z</time>
      </trkpt>
      <trkpt lat="46.04621" lon="5.69595">
        <ele>1095.1999511719</ele>
        <time>2023-05-19T06:45:34.000Z</time>
      </trkpt>
      <trkpt lat="46.04628" lon="5.69596">
        <ele>1096.8000488281</ele>
        <time>2023-05-19T06:45:37.000Z</time>
      </trkpt>
      <trkpt lat="46.04631" lon="5.69597">
        <ele>1097</ele>
        <time>2023-05-19T06:45:38.000Z</time>
      </trkpt>
      <trkpt lat="46.04637" lon="5.69597">
        <ele>1097.8000488281</ele>
        <time>2023-05-19T06:45:41.000Z</time>
      </trkpt>
      <trkpt lat="46.04641" lon="5.69598">
        <ele>1098</ele>
        <time>2023-05-19T06:45:43.000Z</time>
      </trkpt>
      <trkpt lat="46.04643" lon="5.69599">
        <ele>1098.4000244141</ele>
        <time>2023-05-19T06:45:44.000Z</time>
      </trkpt>
      <trkpt lat="46.04654" lon="5.69602">
        <ele>1098.8000488281</ele>
        <time>2023-05-19T06:45:50.000Z</time>
      </trkpt>
      <trkpt lat="46.04657" lon="5.69604">
        <ele>1099</ele>
        <time>2023-05-19T06:45:52.000Z</time>
      </trkpt>
      <trkpt lat="46.04663" lon="5.69606">
        <ele>1099.4000244141</ele>
        <time>2023-05-19T06:45:55.000Z</time>
      </trkpt>
      <trkpt lat="46.04668" lon="5.69607">
        <ele>1099.8000488281</ele>
        <time>2023-05-19T06:45:57.000Z</time>
      </trkpt>
      <trkpt lat="46.04672" lon="5.69608">
        <ele>1100.1999511719</ele>
        <time>2023-05-19T06:45:59.000Z</time>
      </trkpt>
      <trkpt lat="46.04677" lon="5.69609">
        <ele>1100.8000488281</ele>
        <time>2023-05-19T06:46:02.000Z</time>
      </trkpt>
      <trkpt lat="46.04687" lon="5.69609">
        <ele>1101.5999755859</ele>
        <time>2023-05-19T06:46:06.000Z</time>
      </trkpt>
      <trkpt lat="46.0469" lon="5.6961">
        <ele>1101.8000488281</ele>
        <time>2023-05-19T06:46:07.000Z</time>
      </trkpt>
      <trkpt lat="46.04707" lon="5.69608">
        <ele>1103</ele>
        <time>2023-05-19T06:46:13.000Z</time>
      </trkpt>
      <trkpt lat="46.04709" lon="5.69609">
        <ele>1103.1999511719</ele>
        <time>2023-05-19T06:46:14.000Z</time>
      </trkpt>
      <trkpt lat="46.04722" lon="5.69613">
        <ele>1104.1999511719</ele>
        <time>2023-05-19T06:46:19.000Z</time>
      </trkpt>
      <trkpt lat="46.04727" lon="5.69615">
        <ele>1104.8000488281</ele>
        <time>2023-05-19T06:46:21.000Z</time>
      </trkpt>
      <trkpt lat="46.04734" lon="5.69618">
        <ele>1105.5999755859</ele>
        <time>2023-05-19T06:46:24.000Z</time>
      </trkpt>
      <trkpt lat="46.04739" lon="5.69617">
        <ele>1106.8000488281</ele>
        <time>2023-05-19T06:46:27.000Z</time>
      </trkpt>
      <trkpt lat="46.0474" lon="5.69615">
        <ele>1107</ele>
        <time>2023-05-19T06:46:28.000Z</time>
      </trkpt>
      <trkpt lat="46.04741" lon="5.69614">
        <ele>1107.8000488281</ele>
        <time>2023-05-19T06:46:29.000Z</time>
      </trkpt>
      <trkpt lat="46.04745" lon="5.6961">
        <ele>1108.5999755859</ele>
        <time>2023-05-19T06:46:32.000Z</time>
      </trkpt>
      <trkpt lat="46.04746" lon="5.69608">
        <ele>1109.1999511719</ele>
        <time>2023-05-19T06:46:33.000Z</time>
      </trkpt>
      <trkpt lat="46.04754" lon="5.69607">
        <ele>1110.1999511719</ele>
        <time>2023-05-19T06:46:38.000Z</time>
      </trkpt>
      <trkpt lat="46.04756" lon="5.69607">
        <ele>1110.1999511719</ele>
        <time>2023-05-19T06:46:39.000Z</time>
      </trkpt>
      <trkpt lat="46.04766" lon="5.69615">
        <ele>1110.8000488281</ele>
        <time>2023-05-19T06:46:46.000Z</time>
      </trkpt>
      <trkpt lat="46.04777" lon="5.69623">
        <ele>1110.4000244141</ele>
        <time>2023-05-19T06:46:53.000Z</time>
      </trkpt>
      <trkpt lat="46.04793" lon="5.6963">
        <ele>1110.1999511719</ele>
        <time>2023-05-19T06:47:00.000Z</time>
      </trkpt>
      <trkpt lat="46.04814" lon="5.69638">
        <ele>1110.5999755859</ele>
        <time>2023-05-19T06:47:08.000Z</time>
      </trkpt>
      <trkpt lat="46.04817" lon="5.69637">
        <ele>1110.8000488281</ele>
        <time>2023-05-19T06:47:09.000Z</time>
      </trkpt>
      <trkpt lat="46.04818" lon="5.69637">
        <ele>1111</ele>
        <time>2023-05-19T06:47:10.000Z</time>
      </trkpt>
      <trkpt lat="46.0483" lon="5.69634">
        <ele>1111.8000488281</ele>
        <time>2023-05-19T06:47:14.000Z</time>
      </trkpt>
      <trkpt lat="46.04841" lon="5.69634">
        <ele>1112.4000244141</ele>
        <time>2023-05-19T06:47:18.000Z</time>
      </trkpt>
      <trkpt lat="46.04844" lon="5.69637">
        <ele>1112.4000244141</ele>
        <time>2023-05-19T06:47:20.000Z</time>
      </trkpt>
      <trkpt lat="46.04852" lon="5.69645">
        <ele>1113</ele>
        <time>2023-05-19T06:47:25.000Z</time>
      </trkpt>
      <trkpt lat="46.04863" lon="5.69645">
        <ele>1113.4000244141</ele>
        <time>2023-05-19T06:47:30.000Z</time>
      </trkpt>
      <trkpt lat="46.04866" lon="5.69646">
        <ele>1113.4000244141</ele>
        <time>2023-05-19T06:47:31.000Z</time>
      </trkpt>
      <trkpt lat="46.04879" lon="5.69644">
        <ele>1114.4000244141</ele>
        <time>2023-05-19T06:47:36.000Z</time>
      </trkpt>
      <trkpt lat="46.04884" lon="5.69644">
        <ele>1115.1999511719</ele>
        <time>2023-05-19T06:47:38.000Z</time>
      </trkpt>
      <trkpt lat="46.04886" lon="5.69644">
        <ele>1115.8000488281</ele>
        <time>2023-05-19T06:47:39.000Z</time>
      </trkpt>
      <trkpt lat="46.04895" lon="5.69644">
        <ele>1117</ele>
        <time>2023-05-19T06:47:43.000Z</time>
      </trkpt>
      <trkpt lat="46.04903" lon="5.69643">
        <ele>1117.5999755859</ele>
        <time>2023-05-19T06:47:46.000Z</time>
      </trkpt>
      <trkpt lat="46.04911" lon="5.69646">
        <ele>1118</ele>
        <time>2023-05-19T06:47:50.000Z</time>
      </trkpt>
      <trkpt lat="46.04922" lon="5.69645">
        <ele>1118.4000244141</ele>
        <time>2023-05-19T06:47:55.000Z</time>
      </trkpt>
      <trkpt lat="46.0494" lon="5.69643">
        <ele>1118.8000488281</ele>
        <time>2023-05-19T06:48:05.000Z</time>
      </trkpt>
      <trkpt lat="46.0496" lon="5.69645">
        <ele>1118.5999755859</ele>
        <time>2023-05-19T06:48:11.000Z</time>
      </trkpt>
      <trkpt lat="46.0498" lon="5.69646">
        <ele>1118</ele>
        <time>2023-05-19T06:48:17.000Z</time>
      </trkpt>
      <trkpt lat="46.04998" lon="5.69651">
        <ele>1117.4000244141</ele>
        <time>2023-05-19T06:48:23.000Z</time>
      </trkpt>
      <trkpt lat="46.05018" lon="5.6965">
        <ele>1116.5999755859</ele>
        <time>2023-05-19T06:48:27.000Z</time>
      </trkpt>
      <trkpt lat="46.05025" lon="5.69651">
        <ele>1116.4000244141</ele>
        <time>2023-05-19T06:48:28.000Z</time>
      </trkpt>
      <trkpt lat="46.05039" lon="5.69653">
        <ele>1115.4000244141</ele>
        <time>2023-05-19T06:48:31.000Z</time>
      </trkpt>
      <trkpt lat="46.05043" lon="5.69655">
        <ele>1115.1999511719</ele>
        <time>2023-05-19T06:48:32.000Z</time>
      </trkpt>
      <trkpt lat="46.05053" lon="5.69659">
        <ele>1114.1999511719</ele>
        <time>2023-05-19T06:48:35.000Z</time>
      </trkpt>
      <trkpt lat="46.05055" lon="5.69661">
        <ele>1114</ele>
        <time>2023-05-19T06:48:36.000Z</time>
      </trkpt>
      <trkpt lat="46.05058" lon="5.6966">
        <ele>1114</ele>
        <time>2023-05-19T06:48:37.000Z</time>
      </trkpt>
      <trkpt lat="46.05065" lon="5.69656">
        <ele>1114</ele>
        <time>2023-05-19T06:48:40.000Z</time>
      </trkpt>
      <trkpt lat="46.05074" lon="5.69648">
        <ele>1114.8000488281</ele>
        <time>2023-05-19T06:48:44.000Z</time>
      </trkpt>
      <trkpt lat="46.05076" lon="5.69646">
        <ele>1115.4000244141</ele>
        <time>2023-05-19T06:48:45.000Z</time>
      </trkpt>
      <trkpt lat="46.05081" lon="5.69641">
        <ele>1116.5999755859</ele>
        <time>2023-05-19T06:48:48.000Z</time>
      </trkpt>
      <trkpt lat="46.05086" lon="5.69636">
        <ele>1117.8000488281</ele>
        <time>2023-05-19T06:48:50.000Z</time>
      </trkpt>
      <trkpt lat="46.05092" lon="5.69631">
        <ele>1118.8000488281</ele>
        <time>2023-05-19T06:48:52.000Z</time>
      </trkpt>
      <trkpt lat="46.05093" lon="5.69629">
        <ele>1119</ele>
        <time>2023-05-19T06:48:53.000Z</time>
      </trkpt>
      <trkpt lat="46.05096" lon="5.69625">
        <ele>1119.8000488281</ele>
        <time>2023-05-19T06:48:55.000Z</time>
      </trkpt>
      <trkpt lat="46.05104" lon="5.69617">
        <ele>1121</ele>
        <time>2023-05-19T06:48:58.000Z</time>
      </trkpt>
      <trkpt lat="46.05108" lon="5.69612">
        <ele>1121.4000244141</ele>
        <time>2023-05-19T06:49:00.000Z</time>
      </trkpt>
      <trkpt lat="46.05113" lon="5.69608">
        <ele>1122</ele>
        <time>2023-05-19T06:49:03.000Z</time>
      </trkpt>
      <trkpt lat="46.05115" lon="5.69606">
        <ele>1122.1999511719</ele>
        <time>2023-05-19T06:49:04.000Z</time>
      </trkpt>
      <trkpt lat="46.05118" lon="5.69604">
        <ele>1122.4000244141</ele>
        <time>2023-05-19T06:49:05.000Z</time>
      </trkpt>
      <trkpt lat="46.05133" lon="5.69591">
        <ele>1123</ele>
        <time>2023-05-19T06:49:11.000Z</time>
      </trkpt>
      <trkpt lat="46.05135" lon="5.69589">
        <ele>1123.1999511719</ele>
        <time>2023-05-19T06:49:12.000Z</time>
      </trkpt>
      <trkpt lat="46.05145" lon="5.69574">
        <ele>1124.1999511719</ele>
        <time>2023-05-19T06:49:17.000Z</time>
      </trkpt>
      <trkpt lat="46.05146" lon="5.69572">
        <ele>1124.4000244141</ele>
        <time>2023-05-19T06:49:18.000Z</time>
      </trkpt>
      <trkpt lat="46.05147" lon="5.69567">
        <ele>1124.8000488281</ele>
        <time>2023-05-19T06:49:20.000Z</time>
      </trkpt>
      <trkpt lat="46.05151" lon="5.6956">
        <ele>1125.1999511719</ele>
        <time>2023-05-19T06:49:22.000Z</time>
      </trkpt>
      <trkpt lat="46.05153" lon="5.69556">
        <ele>1125.4000244141</ele>
        <time>2023-05-19T06:49:23.000Z</time>
      </trkpt>
      <trkpt lat="46.0516" lon="5.69541">
        <ele>1125.8000488281</ele>
        <time>2023-05-19T06:49:29.000Z</time>
      </trkpt>
      <trkpt lat="46.05165" lon="5.69528">
        <ele>1126.1999511719</ele>
        <time>2023-05-19T06:49:34.000Z</time>
      </trkpt>
      <trkpt lat="46.05166" lon="5.69526">
        <ele>1126.1999511719</ele>
        <time>2023-05-19T06:49:35.000Z</time>
      </trkpt>
      <trkpt lat="46.05167" lon="5.69524">
        <ele>1126.5999755859</ele>
        <time>2023-05-19T06:49:36.000Z</time>
      </trkpt>
      <trkpt lat="46.0517" lon="5.69519">
        <ele>1127.4000244141</ele>
        <time>2023-05-19T06:49:38.000Z</time>
      </trkpt>
      <trkpt lat="46.05173" lon="5.69516">
        <ele>1127.8000488281</ele>
        <time>2023-05-19T06:49:40.000Z</time>
      </trkpt>
      <trkpt lat="46.05182" lon="5.69509">
        <ele>1128.1999511719</ele>
        <time>2023-05-19T06:49:44.000Z</time>
      </trkpt>
      <trkpt lat="46.05198" lon="5.69501">
        <ele>1128.5999755859</ele>
        <time>2023-05-19T06:49:50.000Z</time>
      </trkpt>
      <trkpt lat="46.05222" lon="5.69498">
        <ele>1129</ele>
        <time>2023-05-19T06:49:59.000Z</time>
      </trkpt>
      <trkpt lat="46.05231" lon="5.69495">
        <ele>1129.5999755859</ele>
        <time>2023-05-19T06:50:02.000Z</time>
      </trkpt>
      <trkpt lat="46.05236" lon="5.69494">
        <ele>1130.5999755859</ele>
        <time>2023-05-19T06:50:04.000Z</time>
      </trkpt>
      <trkpt lat="46.05242" lon="5.69493">
        <ele>1131.8000488281</ele>
        <time>2023-05-19T06:50:06.000Z</time>
      </trkpt>
      <trkpt lat="46.05245" lon="5.69492">
        <ele>1132.1999511719</ele>
        <time>2023-05-19T06:50:07.000Z</time>
      </trkpt>
      <trkpt lat="46.05256" lon="5.69492">
        <ele>1133</ele>
        <time>2023-05-19T06:50:10.000Z</time>
      </trkpt>
      <trkpt lat="46.05265" lon="5.69498">
        <ele>1134</ele>
        <time>2023-05-19T06:50:14.000Z</time>
      </trkpt>
      <trkpt lat="46.05268" lon="5.69499">
        <ele>1134.4000244141</ele>
        <time>2023-05-19T06:50:15.000Z</time>
      </trkpt>
      <trkpt lat="46.05275" lon="5.695">
        <ele>1135</ele>
        <time>2023-05-19T06:50:19.000Z</time>
      </trkpt>
      <trkpt lat="46.05279" lon="5.69499">
        <ele>1135.4000244141</ele>
        <time>2023-05-19T06:50:21.000Z</time>
      </trkpt>
      <trkpt lat="46.0529" lon="5.69503">
        <ele>1136.1999511719</ele>
        <time>2023-05-19T06:50:27.000Z</time>
      </trkpt>
      <trkpt lat="46.0531" lon="5.69498">
        <ele>1136.5999755859</ele>
        <time>2023-05-19T06:50:35.000Z</time>
      </trkpt>
      <trkpt lat="46.05319" lon="5.69489">
        <ele>1137.1999511719</ele>
        <time>2023-05-19T06:50:40.000Z</time>
      </trkpt>
      <trkpt lat="46.05322" lon="5.69488">
        <ele>1137.5999755859</ele>
        <time>2023-05-19T06:50:42.000Z</time>
      </trkpt>
      <trkpt lat="46.05322" lon="5.69488">
        <ele>1137.5999755859</ele>
        <time>2023-05-19T06:50:44.000Z</time>
      </trkpt>
      <trkpt lat="46.05326" lon="5.69486">
        <ele>1137.1999511719</ele>
        <time>2023-05-19T06:52:02.000Z</time>
      </trkpt>
      <trkpt lat="46.0533" lon="5.69484">
        <ele>1137.1999511719</ele>
        <time>2023-05-19T06:52:03.000Z</time>
      </trkpt>
      <trkpt lat="46.05349" lon="5.69473">
        <ele>1136.5999755859</ele>
        <time>2023-05-19T06:52:07.000Z</time>
      </trkpt>
      <trkpt lat="46.05367" lon="5.69465">
        <ele>1135.5999755859</ele>
        <time>2023-05-19T06:52:10.000Z</time>
      </trkpt>
      <trkpt lat="46.05373" lon="5.69463">
        <ele>1135.4000244141</ele>
        <time>2023-05-19T06:52:11.000Z</time>
      </trkpt>
      <trkpt lat="46.05384" lon="5.69459">
        <ele>1134.1999511719</ele>
        <time>2023-05-19T06:52:13.000Z</time>
      </trkpt>
      <trkpt lat="46.05404" lon="5.69456">
        <ele>1132.8000488281</ele>
        <time>2023-05-19T06:52:17.000Z</time>
      </trkpt>
      <trkpt lat="46.05409" lon="5.69455">
        <ele>1132.5999755859</ele>
        <time>2023-05-19T06:52:18.000Z</time>
      </trkpt>
      <trkpt lat="46.05415" lon="5.69453">
        <ele>1132.4000244141</ele>
        <time>2023-05-19T06:52:19.000Z</time>
      </trkpt>
      <trkpt lat="46.05433" lon="5.69444">
        <ele>1132</ele>
        <time>2023-05-19T06:52:22.000Z</time>
      </trkpt>
      <trkpt lat="46.05436" lon="5.69441">
        <ele>1131.5999755859</ele>
        <time>2023-05-19T06:52:23.000Z</time>
      </trkpt>
      <trkpt lat="46.05438" lon="5.69437">
        <ele>1130.5999755859</ele>
        <time>2023-05-19T06:52:25.000Z</time>
      </trkpt>
      <trkpt lat="46.05441" lon="5.69435">
        <ele>1129.4000244141</ele>
        <time>2023-05-19T06:52:27.000Z</time>
      </trkpt>
      <trkpt lat="46.05441" lon="5.69435">
        <ele>1128.5999755859</ele>
        <time>2023-05-19T06:52:29.000Z</time>
      </trkpt>
      <trkpt lat="46.05446" lon="5.69434">
        <ele>1126.1999511719</ele>
        <time>2023-05-19T06:52:52.000Z</time>
      </trkpt>
      <trkpt lat="46.05449" lon="5.69434">
        <ele>1126.1999511719</ele>
        <time>2023-05-19T06:52:53.000Z</time>
      </trkpt>
      <trkpt lat="46.05467" lon="5.69437">
        <ele>1125.8000488281</ele>
        <time>2023-05-19T06:52:57.000Z</time>
      </trkpt>
      <trkpt lat="46.0549" lon="5.69446">
        <ele>1124.5999755859</ele>
        <time>2023-05-19T06:53:02.000Z</time>
      </trkpt>
      <trkpt lat="46.05511" lon="5.6946">
        <ele>1123.5999755859</ele>
        <time>2023-05-19T06:53:07.000Z</time>
      </trkpt>
      <trkpt lat="46.05515" lon="5.69462">
        <ele>1123.1999511719</ele>
        <time>2023-05-19T06:53:08.000Z</time>
      </trkpt>
      <trkpt lat="46.05531" lon="5.69469">
        <ele>1122.8000488281</ele>
        <time>2023-05-19T06:53:12.000Z</time>
      </trkpt>
      <trkpt lat="46.05545" lon="5.69469">
        <ele>1122.4000244141</ele>
        <time>2023-05-19T06:53:15.000Z</time>
      </trkpt>
      <trkpt lat="46.05563" lon="5.69472">
        <ele>1122</ele>
        <time>2023-05-19T06:53:19.000Z</time>
      </trkpt>
      <trkpt lat="46.05568" lon="5.69472">
        <ele>1121.8000488281</ele>
        <time>2023-05-19T06:53:20.000Z</time>
      </trkpt>
      <trkpt lat="46.05579" lon="5.69472">
        <ele>1121.4000244141</ele>
        <time>2023-05-19T06:53:22.000Z</time>
      </trkpt>
      <trkpt lat="46.05584" lon="5.69472">
        <ele>1121.1999511719</ele>
        <time>2023-05-19T06:53:23.000Z</time>
      </trkpt>
      <trkpt lat="46.05596" lon="5.69474">
        <ele>1120.8000488281</ele>
        <time>2023-05-19T06:53:25.000Z</time>
      </trkpt>
      <trkpt lat="46.05609" lon="5.69477">
        <ele>1120</ele>
        <time>2023-05-19T06:53:27.000Z</time>
      </trkpt>
      <trkpt lat="46.0562" lon="5.69479">
        <ele>1118.8000488281</ele>
        <time>2023-05-19T06:53:29.000Z</time>
      </trkpt>
      <trkpt lat="46.05632" lon="5.69481">
        <ele>1118.1999511719</ele>
        <time>2023-05-19T06:53:31.000Z</time>
      </trkpt>
      <trkpt lat="46.05637" lon="5.69481">
        <ele>1118</ele>
        <time>2023-05-19T06:53:32.000Z</time>
      </trkpt>
      <trkpt lat="46.05644" lon="5.69481">
        <ele>1117.4000244141</ele>
        <time>2023-05-19T06:53:34.000Z</time>
      </trkpt>
      <trkpt lat="46.05654" lon="5.69482">
        <ele>1117</ele>
        <time>2023-05-19T06:53:37.000Z</time>
      </trkpt>
      <trkpt lat="46.05672" lon="5.69484">
        <ele>1116.8000488281</ele>
        <time>2023-05-19T06:53:43.000Z</time>
      </trkpt>
      <trkpt lat="46.05675" lon="5.69484">
        <ele>1116.8000488281</ele>
        <time>2023-05-19T06:53:44.000Z</time>
      </trkpt>
      <trkpt lat="46.05681" lon="5.69484">
        <ele>1116.8000488281</ele>
        <time>2023-05-19T06:53:46.000Z</time>
      </trkpt>
      <trkpt lat="46.05705" lon="5.69488">
        <ele>1116.8000488281</ele>
        <time>2023-05-19T06:53:53.000Z</time>
      </trkpt>
      <trkpt lat="46.05724" lon="5.69491">
        <ele>1116.4000244141</ele>
        <time>2023-05-19T06:53:58.000Z</time>
      </trkpt>
      <trkpt lat="46.05732" lon="5.69492">
        <ele>1115.4000244141</ele>
        <time>2023-05-19T06:54:00.000Z</time>
      </trkpt>
      <trkpt lat="46.05737" lon="5.69492">
        <ele>1115</ele>
        <time>2023-05-19T06:54:01.000Z</time>
      </trkpt>
      <trkpt lat="46.05752" lon="5.69493">
        <ele>1113.8000488281</ele>
        <time>2023-05-19T06:54:05.000Z</time>
      </trkpt>
      <trkpt lat="46.05766" lon="5.69493">
        <ele>1112.5999755859</ele>
        <time>2023-05-19T06:54:08.000Z</time>
      </trkpt>
      <trkpt lat="46.05769" lon="5.69493">
        <ele>1112</ele>
        <time>2023-05-19T06:54:09.000Z</time>
      </trkpt>
      <trkpt lat="46.05773" lon="5.69493">
        <ele>1111.4000244141</ele>
        <time>2023-05-19T06:54:10.000Z</time>
      </trkpt>
      <trkpt lat="46.05785" lon="5.69494">
        <ele>1110.1999511719</ele>
        <time>2023-05-19T06:54:13.000Z</time>
      </trkpt>
      <trkpt lat="46.05789" lon="5.69496">
        <ele>1109.4000244141</ele>
        <time>2023-05-19T06:54:14.000Z</time>
      </trkpt>
      <trkpt lat="46.05793" lon="5.69498">
        <ele>1109</ele>
        <time>2023-05-19T06:54:15.000Z</time>
      </trkpt>
      <trkpt lat="46.05797" lon="5.695">
        <ele>1108.8000488281</ele>
        <time>2023-05-19T06:54:16.000Z</time>
      </trkpt>
      <trkpt lat="46.05803" lon="5.69505">
        <ele>1108.4000244141</ele>
        <time>2023-05-19T06:54:17.000Z</time>
      </trkpt>
      <trkpt lat="46.05807" lon="5.69509">
        <ele>1108.1999511719</ele>
        <time>2023-05-19T06:54:18.000Z</time>
      </trkpt>
      <trkpt lat="46.05816" lon="5.69515">
        <ele>1107.5999755859</ele>
        <time>2023-05-19T06:54:20.000Z</time>
      </trkpt>
      <trkpt lat="46.05827" lon="5.69524">
        <ele>1106.1999511719</ele>
        <time>2023-05-19T06:54:23.000Z</time>
      </trkpt>
      <trkpt lat="46.05841" lon="5.69538">
        <ele>1105</ele>
        <time>2023-05-19T06:54:28.000Z</time>
      </trkpt>
      <trkpt lat="46.05852" lon="5.69546">
        <ele>1104</ele>
        <time>2023-05-19T06:54:32.000Z</time>
      </trkpt>
      <trkpt lat="46.05856" lon="5.69547">
        <ele>1103.8000488281</ele>
        <time>2023-05-19T06:54:34.000Z</time>
      </trkpt>
      <trkpt lat="46.05863" lon="5.69547">
        <ele>1103.4000244141</ele>
        <time>2023-05-19T06:54:37.000Z</time>
      </trkpt>
      <trkpt lat="46.05882" lon="5.69567">
        <ele>1103.4000244141</ele>
        <time>2023-05-19T06:54:44.000Z</time>
      </trkpt>
      <trkpt lat="46.05899" lon="5.69579">
        <ele>1104</ele>
        <time>2023-05-19T06:54:50.000Z</time>
      </trkpt>
      <trkpt lat="46.05913" lon="5.69592">
        <ele>1104.1999511719</ele>
        <time>2023-05-19T06:54:56.000Z</time>
      </trkpt>
      <trkpt lat="46.05921" lon="5.69603">
        <ele>1104.5999755859</ele>
        <time>2023-05-19T06:55:00.000Z</time>
      </trkpt>
      <trkpt lat="46.05931" lon="5.69608">
        <ele>1105.4000244141</ele>
        <time>2023-05-19T06:55:03.000Z</time>
      </trkpt>
      <trkpt lat="46.05938" lon="5.69615">
        <ele>1105.8000488281</ele>
        <time>2023-05-19T06:55:06.000Z</time>
      </trkpt>
      <trkpt lat="46.05944" lon="5.6962">
        <ele>1106.1999511719</ele>
        <time>2023-05-19T06:55:10.000Z</time>
      </trkpt>
      <trkpt lat="46.05952" lon="5.69625">
        <ele>1106.4000244141</ele>
        <time>2023-05-19T06:55:14.000Z</time>
      </trkpt>
      <trkpt lat="46.05956" lon="5.6963">
        <ele>1106.5999755859</ele>
        <time>2023-05-19T06:55:16.000Z</time>
      </trkpt>
      <trkpt lat="46.05958" lon="5.69631">
        <ele>1106.8000488281</ele>
        <time>2023-05-19T06:55:17.000Z</time>
      </trkpt>
      <trkpt lat="46.05964" lon="5.69635">
        <ele>1107.4000244141</ele>
        <time>2023-05-19T06:55:20.000Z</time>
      </trkpt>
      <trkpt lat="46.05968" lon="5.69644">
        <ele>1107.5999755859</ele>
        <time>2023-05-19T06:55:22.000Z</time>
      </trkpt>
      <trkpt lat="46.05976" lon="5.69642">
        <ele>1109</ele>
        <time>2023-05-19T06:55:26.000Z</time>
      </trkpt>
      <trkpt lat="46.05977" lon="5.69642">
        <ele>1109.4000244141</ele>
        <time>2023-05-19T06:55:27.000Z</time>
      </trkpt>
      <trkpt lat="46.05984" lon="5.69634">
        <ele>1110</ele>
        <time>2023-05-19T06:55:31.000Z</time>
      </trkpt>
      <trkpt lat="46.05986" lon="5.69633">
        <ele>1110.1999511719</ele>
        <time>2023-05-19T06:55:32.000Z</time>
      </trkpt>
      <trkpt lat="46.05999" lon="5.69619">
        <ele>1110.5999755859</ele>
        <time>2023-05-19T06:55:38.000Z</time>
      </trkpt>
      <trkpt lat="46.06014" lon="5.69609">
        <ele>1110.8000488281</ele>
        <time>2023-05-19T06:55:44.000Z</time>
      </trkpt>
      <trkpt lat="46.06015" lon="5.69608">
        <ele>1110.8000488281</ele>
        <time>2023-05-19T06:55:45.000Z</time>
      </trkpt>
      <trkpt lat="46.0602" lon="5.69605">
        <ele>1111</ele>
        <time>2023-05-19T06:55:46.000Z</time>
      </trkpt>
      <trkpt lat="46.06031" lon="5.69597">
        <ele>1111.1999511719</ele>
        <time>2023-05-19T06:55:49.000Z</time>
      </trkpt>
      <trkpt lat="46.06037" lon="5.69592">
        <ele>1111.1999511719</ele>
        <time>2023-05-19T06:55:51.000Z</time>
      </trkpt>
      <trkpt lat="46.06053" lon="5.6958">
        <ele>1111.5999755859</ele>
        <time>2023-05-19T06:55:59.000Z</time>
      </trkpt>
      <trkpt lat="46.06057" lon="5.69577">
        <ele>1112</ele>
        <time>2023-05-19T06:56:02.000Z</time>
      </trkpt>
      <trkpt lat="46.06068" lon="5.69569">
        <ele>1112.8000488281</ele>
        <time>2023-05-19T06:56:08.000Z</time>
      </trkpt>
      <trkpt lat="46.06072" lon="5.69567">
        <ele>1113</ele>
        <time>2023-05-19T06:56:10.000Z</time>
      </trkpt>
      <trkpt lat="46.06078" lon="5.69564">
        <ele>1113.8000488281</ele>
        <time>2023-05-19T06:56:15.000Z</time>
      </trkpt>
      <trkpt lat="46.06079" lon="5.69563">
        <ele>1114</ele>
        <time>2023-05-19T06:56:16.000Z</time>
      </trkpt>
      <trkpt lat="46.06081" lon="5.69562">
        <ele>1114.1999511719</ele>
        <time>2023-05-19T06:56:17.000Z</time>
      </trkpt>
      <trkpt lat="46.06082" lon="5.69561">
        <ele>1114.4000244141</ele>
        <time>2023-05-19T06:56:18.000Z</time>
      </trkpt>
      <trkpt lat="46.06088" lon="5.69559">
        <ele>1114.5999755859</ele>
        <time>2023-05-19T06:56:20.000Z</time>
      </trkpt>
      <trkpt lat="46.06099" lon="5.69554">
        <ele>1115.1999511719</ele>
        <time>2023-05-19T06:56:24.000Z</time>
      </trkpt>
      <trkpt lat="46.06103" lon="5.69553">
        <ele>1115.4000244141</ele>
        <time>2023-05-19T06:56:27.000Z</time>
      </trkpt>
      <trkpt lat="46.06114" lon="5.69549">
        <ele>1116</ele>
        <time>2023-05-19T06:56:31.000Z</time>
      </trkpt>
      <trkpt lat="46.06116" lon="5.69549">
        <ele>1116.1999511719</ele>
        <time>2023-05-19T06:56:32.000Z</time>
      </trkpt>
      <trkpt lat="46.06127" lon="5.69545">
        <ele>1117</ele>
        <time>2023-05-19T06:56:36.000Z</time>
      </trkpt>
      <trkpt lat="46.06133" lon="5.69543">
        <ele>1117.4000244141</ele>
        <time>2023-05-19T06:56:38.000Z</time>
      </trkpt>
      <trkpt lat="46.06142" lon="5.6954">
        <ele>1118.1999511719</ele>
        <time>2023-05-19T06:56:41.000Z</time>
      </trkpt>
      <trkpt lat="46.06155" lon="5.69534">
        <ele>1119.4000244141</ele>
        <time>2023-05-19T06:56:47.000Z</time>
      </trkpt>
      <trkpt lat="46.06158" lon="5.69532">
        <ele>1119.8000488281</ele>
        <time>2023-05-19T06:56:48.000Z</time>
      </trkpt>
      <trkpt lat="46.06172" lon="5.69521">
        <ele>1120.5999755859</ele>
        <time>2023-05-19T06:56:53.000Z</time>
      </trkpt>
      <trkpt lat="46.06177" lon="5.69514">
        <ele>1121.4000244141</ele>
        <time>2023-05-19T06:56:56.000Z</time>
      </trkpt>
      <trkpt lat="46.06179" lon="5.6951">
        <ele>1121.8000488281</ele>
        <time>2023-05-19T06:56:58.000Z</time>
      </trkpt>
      <trkpt lat="46.06182" lon="5.69506">
        <ele>1122.1999511719</ele>
        <time>2023-05-19T06:57:00.000Z</time>
      </trkpt>
      <trkpt lat="46.06184" lon="5.69498">
        <ele>1122.4000244141</ele>
        <time>2023-05-19T06:57:03.000Z</time>
      </trkpt>
      <trkpt lat="46.06184" lon="5.69496">
        <ele>1122.8000488281</ele>
        <time>2023-05-19T06:57:04.000Z</time>
      </trkpt>
      <trkpt lat="46.06185" lon="5.69493">
        <ele>1123.1999511719</ele>
        <time>2023-05-19T06:57:05.000Z</time>
      </trkpt>
      <trkpt lat="46.06185" lon="5.69487">
        <ele>1123.8000488281</ele>
        <time>2023-05-19T06:57:07.000Z</time>
      </trkpt>
      <trkpt lat="46.06184" lon="5.69473">
        <ele>1125.1999511719</ele>
        <time>2023-05-19T06:57:12.000Z</time>
      </trkpt>
      <trkpt lat="46.06183" lon="5.69471">
        <ele>1125.4000244141</ele>
        <time>2023-05-19T06:57:13.000Z</time>
      </trkpt>
      <trkpt lat="46.0618" lon="5.69463">
        <ele>1126.1999511719</ele>
        <time>2023-05-19T06:57:16.000Z</time>
      </trkpt>
      <trkpt lat="46.06178" lon="5.6946">
        <ele>1127</ele>
        <time>2023-05-19T06:57:17.000Z</time>
      </trkpt>
      <trkpt lat="46.06175" lon="5.69452">
        <ele>1127.4000244141</ele>
        <time>2023-05-19T06:57:19.000Z</time>
      </trkpt>
      <trkpt lat="46.06168" lon="5.6944">
        <ele>1128.1999511719</ele>
        <time>2023-05-19T06:57:23.000Z</time>
      </trkpt>
      <trkpt lat="46.06166" lon="5.69436">
        <ele>1128.8000488281</ele>
        <time>2023-05-19T06:57:24.000Z</time>
      </trkpt>
      <trkpt lat="46.06163" lon="5.69423">
        <ele>1130.5999755859</ele>
        <time>2023-05-19T06:57:28.000Z</time>
      </trkpt>
      <trkpt lat="46.06161" lon="5.69415">
        <ele>1131.1999511719</ele>
        <time>2023-05-19T06:57:30.000Z</time>
      </trkpt>
      <trkpt lat="46.06161" lon="5.69412">
        <ele>1131.5999755859</ele>
        <time>2023-05-19T06:57:31.000Z</time>
      </trkpt>
      <trkpt lat="46.06161" lon="5.69408">
        <ele>1132.5999755859</ele>
        <time>2023-05-19T06:57:33.000Z</time>
      </trkpt>
      <trkpt lat="46.06159" lon="5.69403">
        <ele>1133.8000488281</ele>
        <time>2023-05-19T06:57:35.000Z</time>
      </trkpt>
      <trkpt lat="46.06159" lon="5.69394">
        <ele>1134.5999755859</ele>
        <time>2023-05-19T06:57:38.000Z</time>
      </trkpt>
      <trkpt lat="46.0616" lon="5.6939">
        <ele>1135</ele>
        <time>2023-05-19T06:57:39.000Z</time>
      </trkpt>
      <trkpt lat="46.0616" lon="5.69381">
        <ele>1136.4000244141</ele>
        <time>2023-05-19T06:57:42.000Z</time>
      </trkpt>
      <trkpt lat="46.06159" lon="5.69377">
        <ele>1137</ele>
        <time>2023-05-19T06:57:44.000Z</time>
      </trkpt>
      <trkpt lat="46.0616" lon="5.69374">
        <ele>1137.4000244141</ele>
        <time>2023-05-19T06:57:45.000Z</time>
      </trkpt>
      <trkpt lat="46.06159" lon="5.69368">
        <ele>1138</ele>
        <time>2023-05-19T06:57:47.000Z</time>
      </trkpt>
      <trkpt lat="46.06158" lon="5.69365">
        <ele>1138.5999755859</ele>
        <time>2023-05-19T06:57:48.000Z</time>
      </trkpt>
      <trkpt lat="46.06159" lon="5.69362">
        <ele>1139</ele>
        <time>2023-05-19T06:57:49.000Z</time>
      </trkpt>
      <trkpt lat="46.06158" lon="5.69351">
        <ele>1139.8000488281</ele>
        <time>2023-05-19T06:57:53.000Z</time>
      </trkpt>
      <trkpt lat="46.06157" lon="5.69348">
        <ele>1140</ele>
        <time>2023-05-19T06:57:54.000Z</time>
      </trkpt>
      <trkpt lat="46.06159" lon="5.69344">
        <ele>1140.5999755859</ele>
        <time>2023-05-19T06:57:57.000Z</time>
      </trkpt>
      <trkpt lat="46.0616" lon="5.69342">
        <ele>1140.8000488281</ele>
        <time>2023-05-19T06:57:58.000Z</time>
      </trkpt>
      <trkpt lat="46.06161" lon="5.69339">
        <ele>1141</ele>
        <time>2023-05-19T06:58:00.000Z</time>
      </trkpt>
      <trkpt lat="46.06162" lon="5.69332">
        <ele>1141.1999511719</ele>
        <time>2023-05-19T06:58:03.000Z</time>
      </trkpt>
      <trkpt lat="46.06165" lon="5.69326">
        <ele>1141.4000244141</ele>
        <time>2023-05-19T06:58:07.000Z</time>
      </trkpt>
      <trkpt lat="46.06169" lon="5.69317">
        <ele>1141.5999755859</ele>
        <time>2023-05-19T06:58:13.000Z</time>
      </trkpt>
      <trkpt lat="46.0618" lon="5.69299">
        <ele>1141.4000244141</ele>
        <time>2023-05-19T06:58:17.000Z</time>
      </trkpt>
      <trkpt lat="46.06189" lon="5.69275">
        <ele>1140.5999755859</ele>
        <time>2023-05-19T06:58:21.000Z</time>
      </trkpt>
      <trkpt lat="46.06199" lon="5.69263">
        <ele>1140</ele>
        <time>2023-05-19T06:58:23.000Z</time>
      </trkpt>
      <trkpt lat="46.06212" lon="5.69253">
        <ele>1139.4000244141</ele>
        <time>2023-05-19T06:58:25.000Z</time>
      </trkpt>
      <trkpt lat="46.06232" lon="5.69234">
        <ele>1138.1999511719</ele>
        <time>2023-05-19T06:58:28.000Z</time>
      </trkpt>
      <trkpt lat="46.06251" lon="5.69213">
        <ele>1137</ele>
        <time>2023-05-19T06:58:31.000Z</time>
      </trkpt>
      <trkpt lat="46.06264" lon="5.69199">
        <ele>1136</ele>
        <time>2023-05-19T06:58:33.000Z</time>
      </trkpt>
      <trkpt lat="46.06271" lon="5.69192">
        <ele>1135</ele>
        <time>2023-05-19T06:58:34.000Z</time>
      </trkpt>
      <trkpt lat="46.06283" lon="5.69177">
        <ele>1133.4000244141</ele>
        <time>2023-05-19T06:58:36.000Z</time>
      </trkpt>
      <trkpt lat="46.06288" lon="5.6917">
        <ele>1132.5999755859</ele>
        <time>2023-05-19T06:58:37.000Z</time>
      </trkpt>
      <trkpt lat="46.06291" lon="5.69163">
        <ele>1131.4000244141</ele>
        <time>2023-05-19T06:58:38.000Z</time>
      </trkpt>
      <trkpt lat="46.06299" lon="5.69139">
        <ele>1129.4000244141</ele>
        <time>2023-05-19T06:58:40.000Z</time>
      </trkpt>
      <trkpt lat="46.06303" lon="5.69127">
        <ele>1128</ele>
        <time>2023-05-19T06:58:41.000Z</time>
      </trkpt>
      <trkpt lat="46.06309" lon="5.691">
        <ele>1125.5999755859</ele>
        <time>2023-05-19T06:58:43.000Z</time>
      </trkpt>
      <trkpt lat="46.06314" lon="5.69071">
        <ele>1124</ele>
        <time>2023-05-19T06:58:45.000Z</time>
      </trkpt>
      <trkpt lat="46.06317" lon="5.69042">
        <ele>1122.1999511719</ele>
        <time>2023-05-19T06:58:47.000Z</time>
      </trkpt>
      <trkpt lat="46.06318" lon="5.69018">
        <ele>1120</ele>
        <time>2023-05-19T06:58:49.000Z</time>
      </trkpt>
      <trkpt lat="46.06319" lon="5.69002">
        <ele>1119.1999511719</ele>
        <time>2023-05-19T06:58:50.000Z</time>
      </trkpt>
      <trkpt lat="46.06318" lon="5.68989">
        <ele>1118.4000244141</ele>
        <time>2023-05-19T06:58:51.000Z</time>
      </trkpt>
      <trkpt lat="46.06317" lon="5.68979">
        <ele>1117.1999511719</ele>
        <time>2023-05-19T06:58:52.000Z</time>
      </trkpt>
      <trkpt lat="46.06315" lon="5.68957">
        <ele>1115.5999755859</ele>
        <time>2023-05-19T06:58:54.000Z</time>
      </trkpt>
      <trkpt lat="46.06316" lon="5.68945">
        <ele>1115.4000244141</ele>
        <time>2023-05-19T06:58:55.000Z</time>
      </trkpt>
      <trkpt lat="46.06317" lon="5.68937">
        <ele>1114.5999755859</ele>
        <time>2023-05-19T06:58:56.000Z</time>
      </trkpt>
      <trkpt lat="46.06318" lon="5.6892">
        <ele>1112.8000488281</ele>
        <time>2023-05-19T06:58:58.000Z</time>
      </trkpt>
      <trkpt lat="46.06319" lon="5.68909">
        <ele>1111.5999755859</ele>
        <time>2023-05-19T06:58:59.000Z</time>
      </trkpt>
      <trkpt lat="46.06322" lon="5.68884">
        <ele>1110</ele>
        <time>2023-05-19T06:59:01.000Z</time>
      </trkpt>
      <trkpt lat="46.06324" lon="5.68861">
        <ele>1108.5999755859</ele>
        <time>2023-05-19T06:59:03.000Z</time>
      </trkpt>
      <trkpt lat="46.06328" lon="5.68831">
        <ele>1106.4000244141</ele>
        <time>2023-05-19T06:59:05.000Z</time>
      </trkpt>
      <trkpt lat="46.06331" lon="5.68802">
        <ele>1105.1999511719</ele>
        <time>2023-05-19T06:59:07.000Z</time>
      </trkpt>
      <trkpt lat="46.06333" lon="5.6879">
        <ele>1103.8000488281</ele>
        <time>2023-05-19T06:59:08.000Z</time>
      </trkpt>
      <trkpt lat="46.06338" lon="5.68757">
        <ele>1101.8000488281</ele>
        <time>2023-05-19T06:59:10.000Z</time>
      </trkpt>
      <trkpt lat="46.06341" lon="5.68741">
        <ele>1101.5999755859</ele>
        <time>2023-05-19T06:59:11.000Z</time>
      </trkpt>
      <trkpt lat="46.06344" lon="5.68726">
        <ele>1100.5999755859</ele>
        <time>2023-05-19T06:59:12.000Z</time>
      </trkpt>
      <trkpt lat="46.06349" lon="5.68697">
        <ele>1098.4000244141</ele>
        <time>2023-05-19T06:59:14.000Z</time>
      </trkpt>
      <trkpt lat="46.06354" lon="5.68663">
        <ele>1097.5999755859</ele>
        <time>2023-05-19T06:59:16.000Z</time>
      </trkpt>
      <trkpt lat="46.06355" lon="5.68647">
        <ele>1096.5999755859</ele>
        <time>2023-05-19T06:59:17.000Z</time>
      </trkpt>
      <trkpt lat="46.06359" lon="5.68604">
        <ele>1095.4000244141</ele>
        <time>2023-05-19T06:59:20.000Z</time>
      </trkpt>
      <trkpt lat="46.06363" lon="5.68588">
        <ele>1094.8000488281</ele>
        <time>2023-05-19T06:59:21.000Z</time>
      </trkpt>
      <trkpt lat="46.06367" lon="5.68575">
        <ele>1094.1999511719</ele>
        <time>2023-05-19T06:59:22.000Z</time>
      </trkpt>
      <trkpt lat="46.06374" lon="5.68554">
        <ele>1093.1999511719</ele>
        <time>2023-05-19T06:59:24.000Z</time>
      </trkpt>
      <trkpt lat="46.06378" lon="5.68543">
        <ele>1093</ele>
        <time>2023-05-19T06:59:25.000Z</time>
      </trkpt>
      <trkpt lat="46.0639" lon="5.68512">
        <ele>1092</ele>
        <time>2023-05-19T06:59:28.000Z</time>
      </trkpt>
      <trkpt lat="46.06397" lon="5.68497">
        <ele>1091.5999755859</ele>
        <time>2023-05-19T06:59:30.000Z</time>
      </trkpt>
      <trkpt lat="46.06412" lon="5.68457">
        <ele>1091</ele>
        <time>2023-05-19T06:59:35.000Z</time>
      </trkpt>
      <trkpt lat="46.06414" lon="5.68447">
        <ele>1091</ele>
        <time>2023-05-19T06:59:36.000Z</time>
      </trkpt>
      <trkpt lat="46.06416" lon="5.68439">
        <ele>1090.8000488281</ele>
        <time>2023-05-19T06:59:37.000Z</time>
      </trkpt>
      <trkpt lat="46.06419" lon="5.68424">
        <ele>1090.8000488281</ele>
        <time>2023-05-19T06:59:39.000Z</time>
      </trkpt>
      <trkpt lat="46.0642" lon="5.68403">
        <ele>1090.4000244141</ele>
        <time>2023-05-19T06:59:41.000Z</time>
      </trkpt>
      <trkpt lat="46.06419" lon="5.68379">
        <ele>1089.5999755859</ele>
        <time>2023-05-19T06:59:43.000Z</time>
      </trkpt>
      <trkpt lat="46.06419" lon="5.6837">
        <ele>1089.4000244141</ele>
        <time>2023-05-19T06:59:44.000Z</time>
      </trkpt>
      <trkpt lat="46.0642" lon="5.68348">
        <ele>1088.5999755859</ele>
        <time>2023-05-19T06:59:46.000Z</time>
      </trkpt>
      <trkpt lat="46.06421" lon="5.68336">
        <ele>1088.5999755859</ele>
        <time>2023-05-19T06:59:47.000Z</time>
      </trkpt>
      <trkpt lat="46.06426" lon="5.68307">
        <ele>1087.1999511719</ele>
        <time>2023-05-19T06:59:50.000Z</time>
      </trkpt>
      <trkpt lat="46.06434" lon="5.68273">
        <ele>1086.5999755859</ele>
        <time>2023-05-19T06:59:53.000Z</time>
      </trkpt>
      <trkpt lat="46.06436" lon="5.68261">
        <ele>1086.1999511719</ele>
        <time>2023-05-19T06:59:54.000Z</time>
      </trkpt>
      <trkpt lat="46.06444" lon="5.68227">
        <ele>1085</ele>
        <time>2023-05-19T06:59:57.000Z</time>
      </trkpt>
      <trkpt lat="46.06449" lon="5.68204">
        <ele>1084</ele>
        <time>2023-05-19T06:59:59.000Z</time>
      </trkpt>
      <trkpt lat="46.06451" lon="5.68194">
        <ele>1083.5999755859</ele>
        <time>2023-05-19T07:00:00.000Z</time>
      </trkpt>
      <trkpt lat="46.06454" lon="5.68167">
        <ele>1082.4000244141</ele>
        <time>2023-05-19T07:00:02.000Z</time>
      </trkpt>
      <trkpt lat="46.06455" lon="5.68145">
        <ele>1080.5999755859</ele>
        <time>2023-05-19T07:00:04.000Z</time>
      </trkpt>
      <trkpt lat="46.06455" lon="5.68128">
        <ele>1079</ele>
        <time>2023-05-19T07:00:06.000Z</time>
      </trkpt>
      <trkpt lat="46.06456" lon="5.68116">
        <ele>1078.5999755859</ele>
        <time>2023-05-19T07:00:07.000Z</time>
      </trkpt>
      <trkpt lat="46.06457" lon="5.68107">
        <ele>1077.8000488281</ele>
        <time>2023-05-19T07:00:08.000Z</time>
      </trkpt>
      <trkpt lat="46.06459" lon="5.681">
        <ele>1077.4000244141</ele>
        <time>2023-05-19T07:00:09.000Z</time>
      </trkpt>
      <trkpt lat="46.06463" lon="5.68093">
        <ele>1076.5999755859</ele>
        <time>2023-05-19T07:00:10.000Z</time>
      </trkpt>
      <trkpt lat="46.06469" lon="5.68087">
        <ele>1075.4000244141</ele>
        <time>2023-05-19T07:00:11.000Z</time>
      </trkpt>
      <trkpt lat="46.0648" lon="5.68086">
        <ele>1074.1999511719</ele>
        <time>2023-05-19T07:00:13.000Z</time>
      </trkpt>
      <trkpt lat="46.06485" lon="5.6809">
        <ele>1073.8000488281</ele>
        <time>2023-05-19T07:00:14.000Z</time>
      </trkpt>
      <trkpt lat="46.06489" lon="5.68096">
        <ele>1073</ele>
        <time>2023-05-19T07:00:15.000Z</time>
      </trkpt>
      <trkpt lat="46.06497" lon="5.68112">
        <ele>1072</ele>
        <time>2023-05-19T07:00:17.000Z</time>
      </trkpt>
      <trkpt lat="46.065" lon="5.68118">
        <ele>1071.8000488281</ele>
        <time>2023-05-19T07:00:18.000Z</time>
      </trkpt>
      <trkpt lat="46.06504" lon="5.68129">
        <ele>1071.4000244141</ele>
        <time>2023-05-19T07:00:19.000Z</time>
      </trkpt>
      <trkpt lat="46.06507" lon="5.68139">
        <ele>1070.8000488281</ele>
        <time>2023-05-19T07:00:20.000Z</time>
      </trkpt>
      <trkpt lat="46.06515" lon="5.68182">
        <ele>1069.4000244141</ele>
        <time>2023-05-19T07:00:24.000Z</time>
      </trkpt>
      <trkpt lat="46.06518" lon="5.68217">
        <ele>1068.4000244141</ele>
        <time>2023-05-19T07:00:27.000Z</time>
      </trkpt>
      <trkpt lat="46.0652" lon="5.68228">
        <ele>1067.8000488281</ele>
        <time>2023-05-19T07:00:28.000Z</time>
      </trkpt>
      <trkpt lat="46.06522" lon="5.68238">
        <ele>1067</ele>
        <time>2023-05-19T07:00:29.000Z</time>
      </trkpt>
      <trkpt lat="46.06525" lon="5.68247">
        <ele>1066.5999755859</ele>
        <time>2023-05-19T07:00:30.000Z</time>
      </trkpt>
      <trkpt lat="46.06531" lon="5.68254">
        <ele>1065.5999755859</ele>
        <time>2023-05-19T07:00:31.000Z</time>
      </trkpt>
      <trkpt lat="46.06538" lon="5.6826">
        <ele>1065.1999511719</ele>
        <time>2023-05-19T07:00:32.000Z</time>
      </trkpt>
      <trkpt lat="46.06546" lon="5.68264">
        <ele>1064</ele>
        <time>2023-05-19T07:00:33.000Z</time>
      </trkpt>
      <trkpt lat="46.06552" lon="5.68265">
        <ele>1063.4000244141</ele>
        <time>2023-05-19T07:00:34.000Z</time>
      </trkpt>
      <trkpt lat="46.06559" lon="5.68265">
        <ele>1062.8000488281</ele>
        <time>2023-05-19T07:00:35.000Z</time>
      </trkpt>
      <trkpt lat="46.06565" lon="5.68261">
        <ele>1062.1999511719</ele>
        <time>2023-05-19T07:00:36.000Z</time>
      </trkpt>
      <trkpt lat="46.06578" lon="5.68248">
        <ele>1061.4000244141</ele>
        <time>2023-05-19T07:00:38.000Z</time>
      </trkpt>
      <trkpt lat="46.06585" lon="5.68232">
        <ele>1061.4000244141</ele>
        <time>2023-05-19T07:00:40.000Z</time>
      </trkpt>
      <trkpt lat="46.06587" lon="5.68222">
        <ele>1061.4000244141</ele>
        <time>2023-05-19T07:00:41.000Z</time>
      </trkpt>
      <trkpt lat="46.06588" lon="5.6821">
        <ele>1061</ele>
        <time>2023-05-19T07:00:42.000Z</time>
      </trkpt>
      <trkpt lat="46.06582" lon="5.68185">
        <ele>1060.1999511719</ele>
        <time>2023-05-19T07:00:44.000Z</time>
      </trkpt>
      <trkpt lat="46.06574" lon="5.68167">
        <ele>1059</ele>
        <time>2023-05-19T07:00:46.000Z</time>
      </trkpt>
      <trkpt lat="46.0657" lon="5.68157">
        <ele>1058.4000244141</ele>
        <time>2023-05-19T07:00:47.000Z</time>
      </trkpt>
      <trkpt lat="46.06564" lon="5.68131">
        <ele>1057.5999755859</ele>
        <time>2023-05-19T07:00:49.000Z</time>
      </trkpt>
      <trkpt lat="46.06562" lon="5.68109">
        <ele>1056.4000244141</ele>
        <time>2023-05-19T07:00:51.000Z</time>
      </trkpt>
      <trkpt lat="46.06557" lon="5.68069">
        <ele>1055</ele>
        <time>2023-05-19T07:00:54.000Z</time>
      </trkpt>
      <trkpt lat="46.06555" lon="5.68057">
        <ele>1054.5999755859</ele>
        <time>2023-05-19T07:00:55.000Z</time>
      </trkpt>
      <trkpt lat="46.06555" lon="5.68047">
        <ele>1053.8000488281</ele>
        <time>2023-05-19T07:00:56.000Z</time>
      </trkpt>
      <trkpt lat="46.06555" lon="5.68032">
        <ele>1053.5999755859</ele>
        <time>2023-05-19T07:00:57.000Z</time>
      </trkpt>
      <trkpt lat="46.06554" lon="5.68007">
        <ele>1052</ele>
        <time>2023-05-19T07:00:59.000Z</time>
      </trkpt>
      <trkpt lat="46.06551" lon="5.67985">
        <ele>1051</ele>
        <time>2023-05-19T07:01:01.000Z</time>
      </trkpt>
      <trkpt lat="46.06548" lon="5.67959">
        <ele>1049.8000488281</ele>
        <time>2023-05-19T07:01:03.000Z</time>
      </trkpt>
      <trkpt lat="46.06543" lon="5.67936">
        <ele>1048.5999755859</ele>
        <time>2023-05-19T07:01:05.000Z</time>
      </trkpt>
      <trkpt lat="46.06535" lon="5.6791">
        <ele>1047.4000244141</ele>
        <time>2023-05-19T07:01:07.000Z</time>
      </trkpt>
      <trkpt lat="46.06528" lon="5.67885">
        <ele>1046</ele>
        <time>2023-05-19T07:01:09.000Z</time>
      </trkpt>
      <trkpt lat="46.06522" lon="5.67864">
        <ele>1045.1999511719</ele>
        <time>2023-05-19T07:01:11.000Z</time>
      </trkpt>
      <trkpt lat="46.06518" lon="5.67849">
        <ele>1044.4000244141</ele>
        <time>2023-05-19T07:01:12.000Z</time>
      </trkpt>
      <trkpt lat="46.06517" lon="5.67836">
        <ele>1044.1999511719</ele>
        <time>2023-05-19T07:01:13.000Z</time>
      </trkpt>
      <trkpt lat="46.06515" lon="5.67822">
        <ele>1042.8000488281</ele>
        <time>2023-05-19T07:01:14.000Z</time>
      </trkpt>
      <trkpt lat="46.06511" lon="5.67794">
        <ele>1041.8000488281</ele>
        <time>2023-05-19T07:01:16.000Z</time>
      </trkpt>
      <trkpt lat="46.06507" lon="5.67771">
        <ele>1040.5999755859</ele>
        <time>2023-05-19T07:01:18.000Z</time>
      </trkpt>
      <trkpt lat="46.06506" lon="5.6776">
        <ele>1040.1999511719</ele>
        <time>2023-05-19T07:01:19.000Z</time>
      </trkpt>
      <trkpt lat="46.06505" lon="5.67751">
        <ele>1039.1999511719</ele>
        <time>2023-05-19T07:01:20.000Z</time>
      </trkpt>
      <trkpt lat="46.06505" lon="5.67743">
        <ele>1038.1999511719</ele>
        <time>2023-05-19T07:01:21.000Z</time>
      </trkpt>
      <trkpt lat="46.06509" lon="5.67721">
        <ele>1037.1999511719</ele>
        <time>2023-05-19T07:01:23.000Z</time>
      </trkpt>
      <trkpt lat="46.06512" lon="5.6771">
        <ele>1036.5999755859</ele>
        <time>2023-05-19T07:01:24.000Z</time>
      </trkpt>
      <trkpt lat="46.06517" lon="5.67689">
        <ele>1035.1999511719</ele>
        <time>2023-05-19T07:01:26.000Z</time>
      </trkpt>
      <trkpt lat="46.06521" lon="5.67662">
        <ele>1034.1999511719</ele>
        <time>2023-05-19T07:01:28.000Z</time>
      </trkpt>
      <trkpt lat="46.06522" lon="5.67649">
        <ele>1033.1999511719</ele>
        <time>2023-05-19T07:01:29.000Z</time>
      </trkpt>
      <trkpt lat="46.06525" lon="5.67622">
        <ele>1031.8000488281</ele>
        <time>2023-05-19T07:01:31.000Z</time>
      </trkpt>
      <trkpt lat="46.06533" lon="5.67581">
        <ele>1030.1999511719</ele>
        <time>2023-05-19T07:01:34.000Z</time>
      </trkpt>
      <trkpt lat="46.06537" lon="5.67554">
        <ele>1029</ele>
        <time>2023-05-19T07:01:36.000Z</time>
      </trkpt>
      <trkpt lat="46.06538" lon="5.67525">
        <ele>1028.1999511719</ele>
        <time>2023-05-19T07:01:38.000Z</time>
      </trkpt>
      <trkpt lat="46.06539" lon="5.67511">
        <ele>1027</ele>
        <time>2023-05-19T07:01:39.000Z</time>
      </trkpt>
      <trkpt lat="46.06537" lon="5.67482">
        <ele>1025.8000488281</ele>
        <time>2023-05-19T07:01:41.000Z</time>
      </trkpt>
      <trkpt lat="46.06536" lon="5.67468">
        <ele>1025.4000244141</ele>
        <time>2023-05-19T07:01:42.000Z</time>
      </trkpt>
      <trkpt lat="46.06535" lon="5.67454">
        <ele>1024.5999755859</ele>
        <time>2023-05-19T07:01:43.000Z</time>
      </trkpt>
      <trkpt lat="46.06534" lon="5.67432">
        <ele>1023</ele>
        <time>2023-05-19T07:01:45.000Z</time>
      </trkpt>
      <trkpt lat="46.06536" lon="5.6742">
        <ele>1022.5999755859</ele>
        <time>2023-05-19T07:01:46.000Z</time>
      </trkpt>
      <trkpt lat="46.06539" lon="5.67406">
        <ele>1021.5999755859</ele>
        <time>2023-05-19T07:01:47.000Z</time>
      </trkpt>
      <trkpt lat="46.06544" lon="5.67397">
        <ele>1020.5999755859</ele>
        <time>2023-05-19T07:01:48.000Z</time>
      </trkpt>
      <trkpt lat="46.06548" lon="5.67391">
        <ele>1020</ele>
        <time>2023-05-19T07:01:49.000Z</time>
      </trkpt>
      <trkpt lat="46.06554" lon="5.67384">
        <ele>1019.5999755859</ele>
        <time>2023-05-19T07:01:50.000Z</time>
      </trkpt>
      <trkpt lat="46.0656" lon="5.6738">
        <ele>1019.200012207</ele>
        <time>2023-05-19T07:01:51.000Z</time>
      </trkpt>
      <trkpt lat="46.06568" lon="5.67379">
        <ele>1017.799987793</ele>
        <time>2023-05-19T07:01:52.000Z</time>
      </trkpt>
      <trkpt lat="46.06584" lon="5.67382">
        <ele>1017</ele>
        <time>2023-05-19T07:01:54.000Z</time>
      </trkpt>
      <trkpt lat="46.0659" lon="5.67385">
        <ele>1016.799987793</ele>
        <time>2023-05-19T07:01:55.000Z</time>
      </trkpt>
      <trkpt lat="46.06596" lon="5.67388">
        <ele>1016</ele>
        <time>2023-05-19T07:01:56.000Z</time>
      </trkpt>
      <trkpt lat="46.06603" lon="5.67392">
        <ele>1015.5999755859</ele>
        <time>2023-05-19T07:01:57.000Z</time>
      </trkpt>
      <trkpt lat="46.06629" lon="5.67408">
        <ele>1014</ele>
        <time>2023-05-19T07:02:01.000Z</time>
      </trkpt>
      <trkpt lat="46.06634" lon="5.67412">
        <ele>1013.799987793</ele>
        <time>2023-05-19T07:02:02.000Z</time>
      </trkpt>
      <trkpt lat="46.06639" lon="5.67412">
        <ele>1013.4000244141</ele>
        <time>2023-05-19T07:02:03.000Z</time>
      </trkpt>
      <trkpt lat="46.06645" lon="5.67409">
        <ele>1013</ele>
        <time>2023-05-19T07:02:04.000Z</time>
      </trkpt>
      <trkpt lat="46.06649" lon="5.67403">
        <ele>1012</ele>
        <time>2023-05-19T07:02:05.000Z</time>
      </trkpt>
      <trkpt lat="46.06655" lon="5.6739">
        <ele>1010.200012207</ele>
        <time>2023-05-19T07:02:07.000Z</time>
      </trkpt>
      <trkpt lat="46.06659" lon="5.67373">
        <ele>1009</ele>
        <time>2023-05-19T07:02:09.000Z</time>
      </trkpt>
      <trkpt lat="46.06661" lon="5.67366">
        <ele>1008.799987793</ele>
        <time>2023-05-19T07:02:10.000Z</time>
      </trkpt>
      <trkpt lat="46.06669" lon="5.67352">
        <ele>1008.4000244141</ele>
        <time>2023-05-19T07:02:12.000Z</time>
      </trkpt>
      <trkpt lat="46.06679" lon="5.67335">
        <ele>1008</ele>
        <time>2023-05-19T07:02:14.000Z</time>
      </trkpt>
      <trkpt lat="46.06697" lon="5.67303">
        <ele>1007.5999755859</ele>
        <time>2023-05-19T07:02:18.000Z</time>
      </trkpt>
      <trkpt lat="46.06701" lon="5.67297">
        <ele>1006.799987793</ele>
        <time>2023-05-19T07:02:19.000Z</time>
      </trkpt>
      <trkpt lat="46.06703" lon="5.67293">
        <ele>1005.799987793</ele>
        <time>2023-05-19T07:02:21.000Z</time>
      </trkpt>
      <trkpt lat="46.06703" lon="5.67293">
        <ele>1005.5999755859</ele>
        <time>2023-05-19T07:02:22.000Z</time>
      </trkpt>
      <trkpt lat="46.06703" lon="5.67293">
        <ele>1004.799987793</ele>
        <time>2023-05-19T07:02:23.000Z</time>
      </trkpt>
      <trkpt lat="46.06707" lon="5.67289">
        <ele>1001.5999755859</ele>
        <time>2023-05-19T07:03:39.000Z</time>
      </trkpt>
      <trkpt lat="46.06709" lon="5.67285">
        <ele>1001.799987793</ele>
        <time>2023-05-19T07:03:40.000Z</time>
      </trkpt>
      <trkpt lat="46.0672" lon="5.67271">
        <ele>1001.799987793</ele>
        <time>2023-05-19T07:03:44.000Z</time>
      </trkpt>
      <trkpt lat="46.06725" lon="5.67268">
        <ele>1001.799987793</ele>
        <time>2023-05-19T07:03:45.000Z</time>
      </trkpt>
      <trkpt lat="46.06742" lon="5.67263">
        <ele>1001.4000244141</ele>
        <time>2023-05-19T07:03:48.000Z</time>
      </trkpt>
      <trkpt lat="46.06748" lon="5.67263">
        <ele>1000.799987793</ele>
        <time>2023-05-19T07:03:49.000Z</time>
      </trkpt>
      <trkpt lat="46.06755" lon="5.67263">
        <ele>1000.5999755859</ele>
        <time>2023-05-19T07:03:50.000Z</time>
      </trkpt>
      <trkpt lat="46.06769" lon="5.67267">
        <ele>1000.200012207</ele>
        <time>2023-05-19T07:03:52.000Z</time>
      </trkpt>
      <trkpt lat="46.06784" lon="5.67274">
        <ele>999.40002441406</ele>
        <time>2023-05-19T07:03:54.000Z</time>
      </trkpt>
      <trkpt lat="46.06815" lon="5.67288">
        <ele>997.79998779297</ele>
        <time>2023-05-19T07:03:58.000Z</time>
      </trkpt>
      <trkpt lat="46.06833" lon="5.67294">
        <ele>996.59997558594</ele>
        <time>2023-05-19T07:04:00.000Z</time>
      </trkpt>
      <trkpt lat="46.06851" lon="5.67299">
        <ele>995.40002441406</ele>
        <time>2023-05-19T07:04:02.000Z</time>
      </trkpt>
      <trkpt lat="46.0688" lon="5.67307">
        <ele>994.20001220703</ele>
        <time>2023-05-19T07:04:05.000Z</time>
      </trkpt>
      <trkpt lat="46.0689" lon="5.6731">
        <ele>993.20001220703</ele>
        <time>2023-05-19T07:04:06.000Z</time>
      </trkpt>
      <trkpt lat="46.06909" lon="5.67317">
        <ele>991.59997558594</ele>
        <time>2023-05-19T07:04:08.000Z</time>
      </trkpt>
      <trkpt lat="46.06927" lon="5.67327">
        <ele>990</ele>
        <time>2023-05-19T07:04:10.000Z</time>
      </trkpt>
      <trkpt lat="46.06935" lon="5.67334">
        <ele>989.59997558594</ele>
        <time>2023-05-19T07:04:11.000Z</time>
      </trkpt>
      <trkpt lat="46.06943" lon="5.67341">
        <ele>988.59997558594</ele>
        <time>2023-05-19T07:04:12.000Z</time>
      </trkpt>
      <trkpt lat="46.06958" lon="5.67354">
        <ele>987</ele>
        <time>2023-05-19T07:04:14.000Z</time>
      </trkpt>
      <trkpt lat="46.06966" lon="5.67358">
        <ele>986</ele>
        <time>2023-05-19T07:04:15.000Z</time>
      </trkpt>
      <trkpt lat="46.06979" lon="5.67363">
        <ele>984.79998779297</ele>
        <time>2023-05-19T07:04:17.000Z</time>
      </trkpt>
      <trkpt lat="46.06992" lon="5.67363">
        <ele>983.20001220703</ele>
        <time>2023-05-19T07:04:19.000Z</time>
      </trkpt>
      <trkpt lat="46.07003" lon="5.67357">
        <ele>981.79998779297</ele>
        <time>2023-05-19T07:04:21.000Z</time>
      </trkpt>
      <trkpt lat="46.07009" lon="5.6735">
        <ele>981.59997558594</ele>
        <time>2023-05-19T07:04:22.000Z</time>
      </trkpt>
      <trkpt lat="46.07015" lon="5.67334">
        <ele>979.79998779297</ele>
        <time>2023-05-19T07:04:24.000Z</time>
      </trkpt>
      <trkpt lat="46.07019" lon="5.67313">
        <ele>978.79998779297</ele>
        <time>2023-05-19T07:04:26.000Z</time>
      </trkpt>
      <trkpt lat="46.07021" lon="5.67286">
        <ele>977.40002441406</ele>
        <time>2023-05-19T07:04:28.000Z</time>
      </trkpt>
      <trkpt lat="46.07021" lon="5.67261">
        <ele>976.20001220703</ele>
        <time>2023-05-19T07:04:30.000Z</time>
      </trkpt>
      <trkpt lat="46.0702" lon="5.67248">
        <ele>975.79998779297</ele>
        <time>2023-05-19T07:04:31.000Z</time>
      </trkpt>
      <trkpt lat="46.07019" lon="5.67225">
        <ele>974.20001220703</ele>
        <time>2023-05-19T07:04:33.000Z</time>
      </trkpt>
      <trkpt lat="46.07014" lon="5.67209">
        <ele>972.59997558594</ele>
        <time>2023-05-19T07:04:35.000Z</time>
      </trkpt>
      <trkpt lat="46.07004" lon="5.67199">
        <ele>971.20001220703</ele>
        <time>2023-05-19T07:04:37.000Z</time>
      </trkpt>
      <trkpt lat="46.06998" lon="5.67195">
        <ele>970.79998779297</ele>
        <time>2023-05-19T07:04:38.000Z</time>
      </trkpt>
      <trkpt lat="46.06984" lon="5.67186">
        <ele>970</ele>
        <time>2023-05-19T07:04:40.000Z</time>
      </trkpt>
      <trkpt lat="46.06961" lon="5.67171">
        <ele>968.79998779297</ele>
        <time>2023-05-19T07:04:43.000Z</time>
      </trkpt>
      <trkpt lat="46.06935" lon="5.67156">
        <ele>967.40002441406</ele>
        <time>2023-05-19T07:04:46.000Z</time>
      </trkpt>
      <trkpt lat="46.06917" lon="5.67149">
        <ele>966</ele>
        <time>2023-05-19T07:04:48.000Z</time>
      </trkpt>
      <trkpt lat="46.06891" lon="5.67143">
        <ele>964.59997558594</ele>
        <time>2023-05-19T07:04:51.000Z</time>
      </trkpt>
      <trkpt lat="46.06883" lon="5.67139">
        <ele>964.20001220703</ele>
        <time>2023-05-19T07:04:52.000Z</time>
      </trkpt>
      <trkpt lat="46.06877" lon="5.67135">
        <ele>963.40002441406</ele>
        <time>2023-05-19T07:04:53.000Z</time>
      </trkpt>
      <trkpt lat="46.06863" lon="5.67124">
        <ele>961.79998779297</ele>
        <time>2023-05-19T07:04:55.000Z</time>
      </trkpt>
      <trkpt lat="46.06851" lon="5.67105">
        <ele>960.79998779297</ele>
        <time>2023-05-19T07:04:57.000Z</time>
      </trkpt>
      <trkpt lat="46.06847" lon="5.67095">
        <ele>959.79998779297</ele>
        <time>2023-05-19T07:04:58.000Z</time>
      </trkpt>
      <trkpt lat="46.06844" lon="5.67084">
        <ele>959.40002441406</ele>
        <time>2023-05-19T07:04:59.000Z</time>
      </trkpt>
      <trkpt lat="46.06844" lon="5.67073">
        <ele>959</ele>
        <time>2023-05-19T07:05:00.000Z</time>
      </trkpt>
      <trkpt lat="46.06846" lon="5.67062">
        <ele>958.40002441406</ele>
        <time>2023-05-19T07:05:01.000Z</time>
      </trkpt>
      <trkpt lat="46.06851" lon="5.67044">
        <ele>957.20001220703</ele>
        <time>2023-05-19T07:05:03.000Z</time>
      </trkpt>
      <trkpt lat="46.06854" lon="5.67037">
        <ele>956</ele>
        <time>2023-05-19T07:05:04.000Z</time>
      </trkpt>
      <trkpt lat="46.06856" lon="5.6703">
        <ele>955.79998779297</ele>
        <time>2023-05-19T07:05:05.000Z</time>
      </trkpt>
      <trkpt lat="46.06857" lon="5.67014">
        <ele>954.59997558594</ele>
        <time>2023-05-19T07:05:07.000Z</time>
      </trkpt>
      <trkpt lat="46.06851" lon="5.67">
        <ele>953.20001220703</ele>
        <time>2023-05-19T07:05:09.000Z</time>
      </trkpt>
      <trkpt lat="46.06846" lon="5.66995">
        <ele>952.79998779297</ele>
        <time>2023-05-19T07:05:10.000Z</time>
      </trkpt>
      <trkpt lat="46.06837" lon="5.66987">
        <ele>952.20001220703</ele>
        <time>2023-05-19T07:05:12.000Z</time>
      </trkpt>
      <trkpt lat="46.06821" lon="5.66973">
        <ele>951.20001220703</ele>
        <time>2023-05-19T07:05:16.000Z</time>
      </trkpt>
      <trkpt lat="46.06817" lon="5.6697">
        <ele>951</ele>
        <time>2023-05-19T07:05:17.000Z</time>
      </trkpt>
      <trkpt lat="46.06797" lon="5.66953">
        <ele>950.79998779297</ele>
        <time>2023-05-19T07:05:22.000Z</time>
      </trkpt>
      <trkpt lat="46.06789" lon="5.66945">
        <ele>950.79998779297</ele>
        <time>2023-05-19T07:05:24.000Z</time>
      </trkpt>
      <trkpt lat="46.06768" lon="5.66928">
        <ele>951.20001220703</ele>
        <time>2023-05-19T07:05:29.000Z</time>
      </trkpt>
      <trkpt lat="46.0676" lon="5.66921">
        <ele>951.20001220703</ele>
        <time>2023-05-19T07:05:31.000Z</time>
      </trkpt>
      <trkpt lat="46.06752" lon="5.66916">
        <ele>951.20001220703</ele>
        <time>2023-05-19T07:05:33.000Z</time>
      </trkpt>
      <trkpt lat="46.06716" lon="5.66899">
        <ele>951.20001220703</ele>
        <time>2023-05-19T07:05:40.000Z</time>
      </trkpt>
      <trkpt lat="46.06672" lon="5.66879">
        <ele>949.79998779297</ele>
        <time>2023-05-19T07:05:47.000Z</time>
      </trkpt>
      <trkpt lat="46.06637" lon="5.66865">
        <ele>948.40002441406</ele>
        <time>2023-05-19T07:05:52.000Z</time>
      </trkpt>
      <trkpt lat="46.06623" lon="5.6686">
        <ele>948</ele>
        <time>2023-05-19T07:05:54.000Z</time>
      </trkpt>
      <trkpt lat="46.0661" lon="5.66854">
        <ele>947.20001220703</ele>
        <time>2023-05-19T07:05:56.000Z</time>
      </trkpt>
      <trkpt lat="46.06585" lon="5.66845">
        <ele>946.20001220703</ele>
        <time>2023-05-19T07:06:00.000Z</time>
      </trkpt>
      <trkpt lat="46.06573" lon="5.6684">
        <ele>946</ele>
        <time>2023-05-19T07:06:02.000Z</time>
      </trkpt>
      <trkpt lat="46.06529" lon="5.66821">
        <ele>945.20001220703</ele>
        <time>2023-05-19T07:06:10.000Z</time>
      </trkpt>
      <trkpt lat="46.06487" lon="5.66802">
        <ele>948.59997558594</ele>
        <time>2023-05-19T07:06:18.000Z</time>
      </trkpt>
      <trkpt lat="46.06467" lon="5.66793">
        <ele>943.59997558594</ele>
        <time>2023-05-19T07:06:22.000Z</time>
      </trkpt>
      <trkpt lat="46.06428" lon="5.66771">
        <ele>943</ele>
        <time>2023-05-19T07:06:30.000Z</time>
      </trkpt>
      <trkpt lat="46.06403" lon="5.66753">
        <ele>943.59997558594</ele>
        <time>2023-05-19T07:06:36.000Z</time>
      </trkpt>
      <trkpt lat="46.06367" lon="5.66726">
        <ele>944.20001220703</ele>
        <time>2023-05-19T07:06:46.000Z</time>
      </trkpt>
      <trkpt lat="46.06357" lon="5.66717">
        <ele>944.59997558594</ele>
        <time>2023-05-19T07:06:49.000Z</time>
      </trkpt>
      <trkpt lat="46.06354" lon="5.66708">
        <ele>944.79998779297</ele>
        <time>2023-05-19T07:06:51.000Z</time>
      </trkpt>
      <trkpt lat="46.06357" lon="5.667">
        <ele>945</ele>
        <time>2023-05-19T07:06:53.000Z</time>
      </trkpt>
      <trkpt lat="46.0636" lon="5.66698">
        <ele>945</ele>
        <time>2023-05-19T07:06:54.000Z</time>
      </trkpt>
      <trkpt lat="46.06383" lon="5.66691">
        <ele>945.59997558594</ele>
        <time>2023-05-19T07:06:59.000Z</time>
      </trkpt>
      <trkpt lat="46.06417" lon="5.66688">
        <ele>945.59997558594</ele>
        <time>2023-05-19T07:07:05.000Z</time>
      </trkpt>
      <trkpt lat="46.06464" lon="5.66673">
        <ele>943.79998779297</ele>
        <time>2023-05-19T07:07:13.000Z</time>
      </trkpt>
      <trkpt lat="46.06497" lon="5.66662">
        <ele>942.59997558594</ele>
        <time>2023-05-19T07:07:18.000Z</time>
      </trkpt>
      <trkpt lat="46.06522" lon="5.66652">
        <ele>941.59997558594</ele>
        <time>2023-05-19T07:07:22.000Z</time>
      </trkpt>
      <trkpt lat="46.0653" lon="5.6665">
        <ele>941.20001220703</ele>
        <time>2023-05-19T07:07:23.000Z</time>
      </trkpt>
      <trkpt lat="46.06556" lon="5.66641">
        <ele>940.40002441406</ele>
        <time>2023-05-19T07:07:27.000Z</time>
      </trkpt>
      <trkpt lat="46.06595" lon="5.66631">
        <ele>939.40002441406</ele>
        <time>2023-05-19T07:07:33.000Z</time>
      </trkpt>
      <trkpt lat="46.06602" lon="5.6663">
        <ele>939</ele>
        <time>2023-05-19T07:07:34.000Z</time>
      </trkpt>
      <trkpt lat="46.06642" lon="5.66625">
        <ele>938.20001220703</ele>
        <time>2023-05-19T07:07:41.000Z</time>
      </trkpt>
      <trkpt lat="46.06648" lon="5.66625">
        <ele>938.20001220703</ele>
        <time>2023-05-19T07:07:42.000Z</time>
      </trkpt>
      <trkpt lat="46.06677" lon="5.66623">
        <ele>937.40002441406</ele>
        <time>2023-05-19T07:07:47.000Z</time>
      </trkpt>
      <trkpt lat="46.06683" lon="5.66623">
        <ele>937</ele>
        <time>2023-05-19T07:07:48.000Z</time>
      </trkpt>
      <trkpt lat="46.06695" lon="5.66624">
        <ele>936.59997558594</ele>
        <time>2023-05-19T07:07:50.000Z</time>
      </trkpt>
      <trkpt lat="46.06719" lon="5.66624">
        <ele>936</ele>
        <time>2023-05-19T07:07:54.000Z</time>
      </trkpt>
      <trkpt lat="46.06748" lon="5.66624">
        <ele>935</ele>
        <time>2023-05-19T07:07:59.000Z</time>
      </trkpt>
      <trkpt lat="46.06771" lon="5.66621">
        <ele>934.40002441406</ele>
        <time>2023-05-19T07:08:03.000Z</time>
      </trkpt>
      <trkpt lat="46.06801" lon="5.6661">
        <ele>933.79998779297</ele>
        <time>2023-05-19T07:08:08.000Z</time>
      </trkpt>
      <trkpt lat="46.06813" lon="5.66606">
        <ele>933.40002441406</ele>
        <time>2023-05-19T07:08:10.000Z</time>
      </trkpt>
      <trkpt lat="46.0684" lon="5.66596">
        <ele>932.79998779297</ele>
        <time>2023-05-19T07:08:15.000Z</time>
      </trkpt>
      <trkpt lat="46.06855" lon="5.66587">
        <ele>932.40002441406</ele>
        <time>2023-05-19T07:08:18.000Z</time>
      </trkpt>
      <trkpt lat="46.06872" lon="5.66574">
        <ele>931.79998779297</ele>
        <time>2023-05-19T07:08:22.000Z</time>
      </trkpt>
      <trkpt lat="46.0688" lon="5.66565">
        <ele>931.59997558594</ele>
        <time>2023-05-19T07:08:24.000Z</time>
      </trkpt>
      <trkpt lat="46.06908" lon="5.66522">
        <ele>930.79998779297</ele>
        <time>2023-05-19T07:08:31.000Z</time>
      </trkpt>
      <trkpt lat="46.06921" lon="5.66498">
        <ele>930.59997558594</ele>
        <time>2023-05-19T07:08:35.000Z</time>
      </trkpt>
      <trkpt lat="46.06933" lon="5.66475">
        <ele>930.59997558594</ele>
        <time>2023-05-19T07:08:39.000Z</time>
      </trkpt>
      <trkpt lat="46.06936" lon="5.66469">
        <ele>930.59997558594</ele>
        <time>2023-05-19T07:08:40.000Z</time>
      </trkpt>
      <trkpt lat="46.06946" lon="5.66456">
        <ele>930.79998779297</ele>
        <time>2023-05-19T07:08:43.000Z</time>
      </trkpt>
      <trkpt lat="46.06957" lon="5.66444">
        <ele>931.20001220703</ele>
        <time>2023-05-19T07:08:46.000Z</time>
      </trkpt>
      <trkpt lat="46.06968" lon="5.66435">
        <ele>931.79998779297</ele>
        <time>2023-05-19T07:08:49.000Z</time>
      </trkpt>
      <trkpt lat="46.06987" lon="5.66425">
        <ele>932.59997558594</ele>
        <time>2023-05-19T07:08:54.000Z</time>
      </trkpt>
      <trkpt lat="46.06998" lon="5.66419">
        <ele>932.79998779297</ele>
        <time>2023-05-19T07:08:57.000Z</time>
      </trkpt>
      <trkpt lat="46.07015" lon="5.66413">
        <ele>933.59997558594</ele>
        <time>2023-05-19T07:09:01.000Z</time>
      </trkpt>
      <trkpt lat="46.0702" lon="5.66411">
        <ele>933.79998779297</ele>
        <time>2023-05-19T07:09:02.000Z</time>
      </trkpt>
      <trkpt lat="46.07047" lon="5.66396">
        <ele>933.79998779297</ele>
        <time>2023-05-19T07:09:08.000Z</time>
      </trkpt>
      <trkpt lat="46.07056" lon="5.66392">
        <ele>933.79998779297</ele>
        <time>2023-05-19T07:09:10.000Z</time>
      </trkpt>
      <trkpt lat="46.07076" lon="5.66378">
        <ele>933.40002441406</ele>
        <time>2023-05-19T07:09:15.000Z</time>
      </trkpt>
      <trkpt lat="46.07109" lon="5.66357">
        <ele>933.40002441406</ele>
        <time>2023-05-19T07:09:23.000Z</time>
      </trkpt>
      <trkpt lat="46.07143" lon="5.66338">
        <ele>933.20001220703</ele>
        <time>2023-05-19T07:09:30.000Z</time>
      </trkpt>
      <trkpt lat="46.07181" lon="5.66316">
        <ele>933</ele>
        <time>2023-05-19T07:09:38.000Z</time>
      </trkpt>
      <trkpt lat="46.07201" lon="5.66299">
        <ele>932.79998779297</ele>
        <time>2023-05-19T07:09:43.000Z</time>
      </trkpt>
      <trkpt lat="46.07208" lon="5.66291">
        <ele>932.59997558594</ele>
        <time>2023-05-19T07:09:45.000Z</time>
      </trkpt>
      <trkpt lat="46.07226" lon="5.66264">
        <ele>932</ele>
        <time>2023-05-19T07:09:51.000Z</time>
      </trkpt>
      <trkpt lat="46.0723" lon="5.66256">
        <ele>932</ele>
        <time>2023-05-19T07:09:53.000Z</time>
      </trkpt>
      <trkpt lat="46.07236" lon="5.66246">
        <ele>931.59997558594</ele>
        <time>2023-05-19T07:09:55.000Z</time>
      </trkpt>
      <trkpt lat="46.07257" lon="5.66212">
        <ele>931.20001220703</ele>
        <time>2023-05-19T07:10:01.000Z</time>
      </trkpt>
      <trkpt lat="46.07272" lon="5.66185">
        <ele>931</ele>
        <time>2023-05-19T07:10:06.000Z</time>
      </trkpt>
      <trkpt lat="46.07275" lon="5.6618">
        <ele>930.79998779297</ele>
        <time>2023-05-19T07:10:07.000Z</time>
      </trkpt>
      <trkpt lat="46.07277" lon="5.66168">
        <ele>930.59997558594</ele>
        <time>2023-05-19T07:10:09.000Z</time>
      </trkpt>
      <trkpt lat="46.07276" lon="5.66161">
        <ele>930.59997558594</ele>
        <time>2023-05-19T07:10:10.000Z</time>
      </trkpt>
      <trkpt lat="46.07273" lon="5.66155">
        <ele>930.40002441406</ele>
        <time>2023-05-19T07:10:11.000Z</time>
      </trkpt>
      <trkpt lat="46.0727" lon="5.6615">
        <ele>930.40002441406</ele>
        <time>2023-05-19T07:10:12.000Z</time>
      </trkpt>
      <trkpt lat="46.07266" lon="5.66146">
        <ele>930.20001220703</ele>
        <time>2023-05-19T07:10:13.000Z</time>
      </trkpt>
      <trkpt lat="46.07258" lon="5.6614">
        <ele>929.79998779297</ele>
        <time>2023-05-19T07:10:15.000Z</time>
      </trkpt>
      <trkpt lat="46.07254" lon="5.66139">
        <ele>929.59997558594</ele>
        <time>2023-05-19T07:10:16.000Z</time>
      </trkpt>
      <trkpt lat="46.07249" lon="5.66138">
        <ele>929.59997558594</ele>
        <time>2023-05-19T07:10:17.000Z</time>
      </trkpt>
      <trkpt lat="46.07231" lon="5.66139">
        <ele>929.40002441406</ele>
        <time>2023-05-19T07:10:21.000Z</time>
      </trkpt>
      <trkpt lat="46.07185" lon="5.66151">
        <ele>930</ele>
        <time>2023-05-19T07:10:31.000Z</time>
      </trkpt>
      <trkpt lat="46.0718" lon="5.66152">
        <ele>930</ele>
        <time>2023-05-19T07:10:32.000Z</time>
      </trkpt>
      <trkpt lat="46.07141" lon="5.66158">
        <ele>930</ele>
        <time>2023-05-19T07:10:40.000Z</time>
      </trkpt>
      <trkpt lat="46.07094" lon="5.66164">
        <ele>929.79998779297</ele>
        <time>2023-05-19T07:10:51.000Z</time>
      </trkpt>
      <trkpt lat="46.07046" lon="5.66173">
        <ele>930</ele>
        <time>2023-05-19T07:11:01.000Z</time>
      </trkpt>
      <trkpt lat="46.07011" lon="5.6617">
        <ele>930.40002441406</ele>
        <time>2023-05-19T07:11:09.000Z</time>
      </trkpt>
      <trkpt lat="46.07002" lon="5.66169">
        <ele>930.59997558594</ele>
        <time>2023-05-19T07:11:11.000Z</time>
      </trkpt>
      <trkpt lat="46.06968" lon="5.66169">
        <ele>931.79998779297</ele>
        <time>2023-05-19T07:11:19.000Z</time>
      </trkpt>
      <trkpt lat="46.06945" lon="5.6617">
        <ele>932.40002441406</ele>
        <time>2023-05-19T07:11:25.000Z</time>
      </trkpt>
      <trkpt lat="46.06935" lon="5.66172">
        <ele>933</ele>
        <time>2023-05-19T07:11:28.000Z</time>
      </trkpt>
      <trkpt lat="46.06909" lon="5.66178">
        <ele>934.40002441406</ele>
        <time>2023-05-19T07:11:35.000Z</time>
      </trkpt>
      <trkpt lat="46.06887" lon="5.66181">
        <ele>935.59997558594</ele>
        <time>2023-05-19T07:11:41.000Z</time>
      </trkpt>
      <trkpt lat="46.06878" lon="5.66181">
        <ele>936.40002441406</ele>
        <time>2023-05-19T07:11:44.000Z</time>
      </trkpt>
      <trkpt lat="46.06862" lon="5.66181">
        <ele>936.79998779297</ele>
        <time>2023-05-19T07:11:49.000Z</time>
      </trkpt>
      <trkpt lat="46.06849" lon="5.6618">
        <ele>937</ele>
        <time>2023-05-19T07:11:53.000Z</time>
      </trkpt>
      <trkpt lat="46.06815" lon="5.66173">
        <ele>937.59997558594</ele>
        <time>2023-05-19T07:12:04.000Z</time>
      </trkpt>
      <trkpt lat="46.068" lon="5.66166">
        <ele>937.79998779297</ele>
        <time>2023-05-19T07:12:09.000Z</time>
      </trkpt>
      <trkpt lat="46.06794" lon="5.66158">
        <ele>938</ele>
        <time>2023-05-19T07:12:12.000Z</time>
      </trkpt>
      <trkpt lat="46.06793" lon="5.66136">
        <ele>938.40002441406</ele>
        <time>2023-05-19T07:12:17.000Z</time>
      </trkpt>
      <trkpt lat="46.06794" lon="5.66121">
        <ele>939</ele>
        <time>2023-05-19T07:12:20.000Z</time>
      </trkpt>
      <trkpt lat="46.06797" lon="5.66087">
        <ele>939.59997558594</ele>
        <time>2023-05-19T07:12:26.000Z</time>
      </trkpt>
      <trkpt lat="46.06798" lon="5.66056">
        <ele>938.79998779297</ele>
        <time>2023-05-19T07:12:30.000Z</time>
      </trkpt>
      <trkpt lat="46.06797" lon="5.66039">
        <ele>938.40002441406</ele>
        <time>2023-05-19T07:12:32.000Z</time>
      </trkpt>
      <trkpt lat="46.06792" lon="5.66005">
        <ele>937.79998779297</ele>
        <time>2023-05-19T07:12:36.000Z</time>
      </trkpt>
      <trkpt lat="46.0679" lon="5.65996">
        <ele>937.40002441406</ele>
        <time>2023-05-19T07:12:37.000Z</time>
      </trkpt>
      <trkpt lat="46.06787" lon="5.65985">
        <ele>937.20001220703</ele>
        <time>2023-05-19T07:12:38.000Z</time>
      </trkpt>
      <trkpt lat="46.06782" lon="5.65968">
        <ele>936.59997558594</ele>
        <time>2023-05-19T07:12:40.000Z</time>
      </trkpt>
      <trkpt lat="46.06773" lon="5.65937">
        <ele>936</ele>
        <time>2023-05-19T07:12:44.000Z</time>
      </trkpt>
      <trkpt lat="46.06761" lon="5.6591">
        <ele>935.59997558594</ele>
        <time>2023-05-19T07:12:48.000Z</time>
      </trkpt>
      <trkpt lat="46.06757" lon="5.65905">
        <ele>935.40002441406</ele>
        <time>2023-05-19T07:12:49.000Z</time>
      </trkpt>
      <trkpt lat="46.06744" lon="5.65887">
        <ele>934.79998779297</ele>
        <time>2023-05-19T07:12:53.000Z</time>
      </trkpt>
      <trkpt lat="46.06741" lon="5.65883">
        <ele>934.40002441406</ele>
        <time>2023-05-19T07:12:54.000Z</time>
      </trkpt>
      <trkpt lat="46.06737" lon="5.6588">
        <ele>934.40002441406</ele>
        <time>2023-05-19T07:12:55.000Z</time>
      </trkpt>
      <trkpt lat="46.06723" lon="5.65868">
        <ele>934.20001220703</ele>
        <time>2023-05-19T07:13:00.000Z</time>
      </trkpt>
      <trkpt lat="46.06709" lon="5.65857">
        <ele>934</ele>
        <time>2023-05-19T07:13:05.000Z</time>
      </trkpt>
      <trkpt lat="46.06703" lon="5.65848">
        <ele>933.79998779297</ele>
        <time>2023-05-19T07:13:08.000Z</time>
      </trkpt>
      <trkpt lat="46.06701" lon="5.65845">
        <ele>933.79998779297</ele>
        <time>2023-05-19T07:13:09.000Z</time>
      </trkpt>
      <trkpt lat="46.06694" lon="5.65835">
        <ele>933.40002441406</ele>
        <time>2023-05-19T07:13:12.000Z</time>
      </trkpt>
      <trkpt lat="46.06683" lon="5.65819">
        <ele>932.40002441406</ele>
        <time>2023-05-19T07:13:16.000Z</time>
      </trkpt>
      <trkpt lat="46.06679" lon="5.65811">
        <ele>932.20001220703</ele>
        <time>2023-05-19T07:13:18.000Z</time>
      </trkpt>
      <trkpt lat="46.06675" lon="5.65803">
        <ele>932.59997558594</ele>
        <time>2023-05-19T07:13:20.000Z</time>
      </trkpt>
      <trkpt lat="46.06668" lon="5.65778">
        <ele>932.59997558594</ele>
        <time>2023-05-19T07:13:25.000Z</time>
      </trkpt>
      <trkpt lat="46.06665" lon="5.6576">
        <ele>932.59997558594</ele>
        <time>2023-05-19T07:13:29.000Z</time>
      </trkpt>
      <trkpt lat="46.06663" lon="5.65736">
        <ele>931.79998779297</ele>
        <time>2023-05-19T07:13:34.000Z</time>
      </trkpt>
      <trkpt lat="46.06662" lon="5.65712">
        <ele>931.20001220703</ele>
        <time>2023-05-19T07:13:38.000Z</time>
      </trkpt>
      <trkpt lat="46.06661" lon="5.65702">
        <ele>931.20001220703</ele>
        <time>2023-05-19T07:13:39.000Z</time>
      </trkpt>
      <trkpt lat="46.0666" lon="5.65692">
        <ele>930.79998779297</ele>
        <time>2023-05-19T07:13:40.000Z</time>
      </trkpt>
      <trkpt lat="46.06659" lon="5.65673">
        <ele>930.79998779297</ele>
        <time>2023-05-19T07:13:42.000Z</time>
      </trkpt>
      <trkpt lat="46.06659" lon="5.65663">
        <ele>930.20001220703</ele>
        <time>2023-05-19T07:13:43.000Z</time>
      </trkpt>
      <trkpt lat="46.06659" lon="5.65651">
        <ele>930</ele>
        <time>2023-05-19T07:13:44.000Z</time>
      </trkpt>
      <trkpt lat="46.06657" lon="5.65644">
        <ele>929.40002441406</ele>
        <time>2023-05-19T07:13:45.000Z</time>
      </trkpt>
      <trkpt lat="46.06649" lon="5.65627">
        <ele>928.79998779297</ele>
        <time>2023-05-19T07:13:47.000Z</time>
      </trkpt>
      <trkpt lat="46.06645" lon="5.6561">
        <ele>928.40002441406</ele>
        <time>2023-05-19T07:13:49.000Z</time>
      </trkpt>
      <trkpt lat="46.06637" lon="5.65587">
        <ele>927.59997558594</ele>
        <time>2023-05-19T07:13:52.000Z</time>
      </trkpt>
      <trkpt lat="46.0663" lon="5.65573">
        <ele>927.40002441406</ele>
        <time>2023-05-19T07:13:54.000Z</time>
      </trkpt>
      <trkpt lat="46.06628" lon="5.65565">
        <ele>927.40002441406</ele>
        <time>2023-05-19T07:13:55.000Z</time>
      </trkpt>
      <trkpt lat="46.06626" lon="5.65549">
        <ele>927</ele>
        <time>2023-05-19T07:13:57.000Z</time>
      </trkpt>
      <trkpt lat="46.06623" lon="5.65535">
        <ele>926.40002441406</ele>
        <time>2023-05-19T07:13:59.000Z</time>
      </trkpt>
      <trkpt lat="46.06612" lon="5.65513">
        <ele>925.79998779297</ele>
        <time>2023-05-19T07:14:04.000Z</time>
      </trkpt>
      <trkpt lat="46.06607" lon="5.65505">
        <ele>925.40002441406</ele>
        <time>2023-05-19T07:14:06.000Z</time>
      </trkpt>
      <trkpt lat="46.06599" lon="5.65492">
        <ele>924.79998779297</ele>
        <time>2023-05-19T07:14:09.000Z</time>
      </trkpt>
      <trkpt lat="46.06595" lon="5.65483">
        <ele>925</ele>
        <time>2023-05-19T07:14:11.000Z</time>
      </trkpt>
      <trkpt lat="46.06587" lon="5.65457">
        <ele>925.79998779297</ele>
        <time>2023-05-19T07:14:17.000Z</time>
      </trkpt>
      <trkpt lat="46.06585" lon="5.65447">
        <ele>926</ele>
        <time>2023-05-19T07:14:19.000Z</time>
      </trkpt>
      <trkpt lat="46.06575" lon="5.65421">
        <ele>926.20001220703</ele>
        <time>2023-05-19T07:14:25.000Z</time>
      </trkpt>
      <trkpt lat="46.0656" lon="5.65385">
        <ele>926</ele>
        <time>2023-05-19T07:14:33.000Z</time>
      </trkpt>
      <trkpt lat="46.06552" lon="5.65357">
        <ele>925.79998779297</ele>
        <time>2023-05-19T07:14:39.000Z</time>
      </trkpt>
      <trkpt lat="46.0655" lon="5.65325">
        <ele>925.59997558594</ele>
        <time>2023-05-19T07:14:44.000Z</time>
      </trkpt>
      <trkpt lat="46.06547" lon="5.65311">
        <ele>925.40002441406</ele>
        <time>2023-05-19T07:14:46.000Z</time>
      </trkpt>
      <trkpt lat="46.06543" lon="5.65301">
        <ele>925.20001220703</ele>
        <time>2023-05-19T07:14:48.000Z</time>
      </trkpt>
      <trkpt lat="46.06537" lon="5.65294">
        <ele>924.79998779297</ele>
        <time>2023-05-19T07:14:50.000Z</time>
      </trkpt>
      <trkpt lat="46.06525" lon="5.65288">
        <ele>924</ele>
        <time>2023-05-19T07:14:53.000Z</time>
      </trkpt>
      <trkpt lat="46.06522" lon="5.65285">
        <ele>924</ele>
        <time>2023-05-19T07:14:54.000Z</time>
      </trkpt>
      <trkpt lat="46.065" lon="5.6527">
        <ele>923.59997558594</ele>
        <time>2023-05-19T07:15:00.000Z</time>
      </trkpt>
      <trkpt lat="46.06489" lon="5.65256">
        <ele>923.59997558594</ele>
        <time>2023-05-19T07:15:04.000Z</time>
      </trkpt>
      <trkpt lat="46.06487" lon="5.65253">
        <ele>923.59997558594</ele>
        <time>2023-05-19T07:15:05.000Z</time>
      </trkpt>
      <trkpt lat="46.06476" lon="5.65238">
        <ele>924</ele>
        <time>2023-05-19T07:15:09.000Z</time>
      </trkpt>
      <trkpt lat="46.06466" lon="5.65219">
        <ele>924.59997558594</ele>
        <time>2023-05-19T07:15:14.000Z</time>
      </trkpt>
      <trkpt lat="46.06458" lon="5.6521">
        <ele>925.20001220703</ele>
        <time>2023-05-19T07:15:18.000Z</time>
      </trkpt>
      <trkpt lat="46.06452" lon="5.652">
        <ele>925.59997558594</ele>
        <time>2023-05-19T07:15:21.000Z</time>
      </trkpt>
      <trkpt lat="46.06433" lon="5.6517">
        <ele>925.79998779297</ele>
        <time>2023-05-19T07:15:29.000Z</time>
      </trkpt>
      <trkpt lat="46.06419" lon="5.65139">
        <ele>926</ele>
        <time>2023-05-19T07:15:35.000Z</time>
      </trkpt>
      <trkpt lat="46.06411" lon="5.65121">
        <ele>925.79998779297</ele>
        <time>2023-05-19T07:15:39.000Z</time>
      </trkpt>
      <trkpt lat="46.06407" lon="5.65105">
        <ele>925.20001220703</ele>
        <time>2023-05-19T07:15:42.000Z</time>
      </trkpt>
      <trkpt lat="46.06405" lon="5.65084">
        <ele>925</ele>
        <time>2023-05-19T07:15:46.000Z</time>
      </trkpt>
      <trkpt lat="46.06396" lon="5.65054">
        <ele>924.20001220703</ele>
        <time>2023-05-19T07:15:53.000Z</time>
      </trkpt>
      <trkpt lat="46.06394" lon="5.65049">
        <ele>924</ele>
        <time>2023-05-19T07:15:54.000Z</time>
      </trkpt>
      <trkpt lat="46.06383" lon="5.65034">
        <ele>923.79998779297</ele>
        <time>2023-05-19T07:15:58.000Z</time>
      </trkpt>
      <trkpt lat="46.06369" lon="5.65013">
        <ele>923.59997558594</ele>
        <time>2023-05-19T07:16:04.000Z</time>
      </trkpt>
      <trkpt lat="46.06358" lon="5.65001">
        <ele>923.79998779297</ele>
        <time>2023-05-19T07:16:09.000Z</time>
      </trkpt>
      <trkpt lat="46.0634" lon="5.64977">
        <ele>923.79998779297</ele>
        <time>2023-05-19T07:16:16.000Z</time>
      </trkpt>
      <trkpt lat="46.06328" lon="5.64956">
        <ele>923.40002441406</ele>
        <time>2023-05-19T07:16:22.000Z</time>
      </trkpt>
      <trkpt lat="46.0632" lon="5.6495">
        <ele>922.79998779297</ele>
        <time>2023-05-19T07:16:24.000Z</time>
      </trkpt>
      <trkpt lat="46.06314" lon="5.64941">
        <ele>922.20001220703</ele>
        <time>2023-05-19T07:16:26.000Z</time>
      </trkpt>
      <trkpt lat="46.06311" lon="5.64936">
        <ele>921.59997558594</ele>
        <time>2023-05-19T07:16:27.000Z</time>
      </trkpt>
      <trkpt lat="46.06302" lon="5.64912">
        <ele>920.20001220703</ele>
        <time>2023-05-19T07:16:31.000Z</time>
      </trkpt>
      <trkpt lat="46.06296" lon="5.64902">
        <ele>919</ele>
        <time>2023-05-19T07:16:33.000Z</time>
      </trkpt>
      <trkpt lat="46.06291" lon="5.64896">
        <ele>918.79998779297</ele>
        <time>2023-05-19T07:16:34.000Z</time>
      </trkpt>
      <trkpt lat="46.06285" lon="5.64888">
        <ele>918.20001220703</ele>
        <time>2023-05-19T07:16:36.000Z</time>
      </trkpt>
      <trkpt lat="46.06283" lon="5.64884">
        <ele>918</ele>
        <time>2023-05-19T07:16:37.000Z</time>
      </trkpt>
      <trkpt lat="46.06275" lon="5.64871">
        <ele>916.40002441406</ele>
        <time>2023-05-19T07:16:40.000Z</time>
      </trkpt>
      <trkpt lat="46.06271" lon="5.64864">
        <ele>915.40002441406</ele>
        <time>2023-05-19T07:16:42.000Z</time>
      </trkpt>
      <trkpt lat="46.06268" lon="5.64861">
        <ele>914.59997558594</ele>
        <time>2023-05-19T07:16:43.000Z</time>
      </trkpt>
      <trkpt lat="46.06262" lon="5.64852">
        <ele>913.40002441406</ele>
        <time>2023-05-19T07:16:45.000Z</time>
      </trkpt>
      <trkpt lat="46.06259" lon="5.64847">
        <ele>913.20001220703</ele>
        <time>2023-05-19T07:16:46.000Z</time>
      </trkpt>
      <trkpt lat="46.06253" lon="5.64838">
        <ele>912.40002441406</ele>
        <time>2023-05-19T07:16:48.000Z</time>
      </trkpt>
      <trkpt lat="46.06246" lon="5.64824">
        <ele>911.20001220703</ele>
        <time>2023-05-19T07:16:51.000Z</time>
      </trkpt>
      <trkpt lat="46.06244" lon="5.6482">
        <ele>910.20001220703</ele>
        <time>2023-05-19T07:16:52.000Z</time>
      </trkpt>
      <trkpt lat="46.06242" lon="5.64815">
        <ele>910</ele>
        <time>2023-05-19T07:16:53.000Z</time>
      </trkpt>
      <trkpt lat="46.06236" lon="5.64801">
        <ele>908.20001220703</ele>
        <time>2023-05-19T07:16:56.000Z</time>
      </trkpt>
      <trkpt lat="46.06234" lon="5.64796">
        <ele>908</ele>
        <time>2023-05-19T07:16:57.000Z</time>
      </trkpt>
      <trkpt lat="46.06231" lon="5.64788">
        <ele>907</ele>
        <time>2023-05-19T07:16:59.000Z</time>
      </trkpt>
      <trkpt lat="46.06231" lon="5.64783">
        <ele>906.20001220703</ele>
        <time>2023-05-19T07:17:00.000Z</time>
      </trkpt>
      <trkpt lat="46.06232" lon="5.64777">
        <ele>905.59997558594</ele>
        <time>2023-05-19T07:17:01.000Z</time>
      </trkpt>
      <trkpt lat="46.06237" lon="5.64764">
        <ele>904.79998779297</ele>
        <time>2023-05-19T07:17:03.000Z</time>
      </trkpt>
      <trkpt lat="46.0624" lon="5.64757">
        <ele>904.59997558594</ele>
        <time>2023-05-19T07:17:04.000Z</time>
      </trkpt>
      <trkpt lat="46.06243" lon="5.6475">
        <ele>903.79998779297</ele>
        <time>2023-05-19T07:17:05.000Z</time>
      </trkpt>
      <trkpt lat="46.06247" lon="5.6474">
        <ele>903.40002441406</ele>
        <time>2023-05-19T07:17:06.000Z</time>
      </trkpt>
      <trkpt lat="46.06249" lon="5.64726">
        <ele>902</ele>
        <time>2023-05-19T07:17:08.000Z</time>
      </trkpt>
      <trkpt lat="46.0625" lon="5.64718">
        <ele>901.79998779297</ele>
        <time>2023-05-19T07:17:09.000Z</time>
      </trkpt>
      <trkpt lat="46.06251" lon="5.64711">
        <ele>901.40002441406</ele>
        <time>2023-05-19T07:17:10.000Z</time>
      </trkpt>
      <trkpt lat="46.06251" lon="5.64688">
        <ele>900.79998779297</ele>
        <time>2023-05-19T07:17:13.000Z</time>
      </trkpt>
      <trkpt lat="46.06251" lon="5.6468">
        <ele>900.40002441406</ele>
        <time>2023-05-19T07:17:14.000Z</time>
      </trkpt>
      <trkpt lat="46.06251" lon="5.64672">
        <ele>900</ele>
        <time>2023-05-19T07:17:15.000Z</time>
      </trkpt>
      <trkpt lat="46.06249" lon="5.64664">
        <ele>899.59997558594</ele>
        <time>2023-05-19T07:17:16.000Z</time>
      </trkpt>
      <trkpt lat="46.06245" lon="5.64638">
        <ele>898.59997558594</ele>
        <time>2023-05-19T07:17:19.000Z</time>
      </trkpt>
      <trkpt lat="46.0624" lon="5.6461">
        <ele>897.59997558594</ele>
        <time>2023-05-19T07:17:23.000Z</time>
      </trkpt>
      <trkpt lat="46.06239" lon="5.64603">
        <ele>897.20001220703</ele>
        <time>2023-05-19T07:17:24.000Z</time>
      </trkpt>
      <trkpt lat="46.06236" lon="5.64587">
        <ele>896.40002441406</ele>
        <time>2023-05-19T07:17:28.000Z</time>
      </trkpt>
      <trkpt lat="46.06229" lon="5.64559">
        <ele>896.20001220703</ele>
        <time>2023-05-19T07:17:34.000Z</time>
      </trkpt>
      <trkpt lat="46.06228" lon="5.64553">
        <ele>896.40002441406</ele>
        <time>2023-05-19T07:17:35.000Z</time>
      </trkpt>
      <trkpt lat="46.06223" lon="5.6453">
        <ele>897.40002441406</ele>
        <time>2023-05-19T07:17:40.000Z</time>
      </trkpt>
      <trkpt lat="46.06223" lon="5.64525">
        <ele>897.79998779297</ele>
        <time>2023-05-19T07:17:41.000Z</time>
      </trkpt>
      <trkpt lat="46.06222" lon="5.64522">
        <ele>898.20001220703</ele>
        <time>2023-05-19T07:17:42.000Z</time>
      </trkpt>
      <trkpt lat="46.0622" lon="5.64513">
        <ele>899</ele>
        <time>2023-05-19T07:17:44.000Z</time>
      </trkpt>
      <trkpt lat="46.06214" lon="5.64485">
        <ele>900</ele>
        <time>2023-05-19T07:17:50.000Z</time>
      </trkpt>
      <trkpt lat="46.06213" lon="5.64481">
        <ele>900</ele>
        <time>2023-05-19T07:17:51.000Z</time>
      </trkpt>
      <trkpt lat="46.06211" lon="5.64468">
        <ele>900.79998779297</ele>
        <time>2023-05-19T07:17:55.000Z</time>
      </trkpt>
      <trkpt lat="46.06211" lon="5.64457">
        <ele>901</ele>
        <time>2023-05-19T07:17:58.000Z</time>
      </trkpt>
      <trkpt lat="46.06209" lon="5.64446">
        <ele>901.20001220703</ele>
        <time>2023-05-19T07:18:01.000Z</time>
      </trkpt>
      <trkpt lat="46.06208" lon="5.64443">
        <ele>901</ele>
        <time>2023-05-19T07:18:02.000Z</time>
      </trkpt>
      <trkpt lat="46.06203" lon="5.64442">
        <ele>901</ele>
        <time>2023-05-19T07:18:04.000Z</time>
      </trkpt>
      <trkpt lat="46.06192" lon="5.64452">
        <ele>900.40002441406</ele>
        <time>2023-05-19T07:18:07.000Z</time>
      </trkpt>
      <trkpt lat="46.06185" lon="5.64473">
        <ele>900</ele>
        <time>2023-05-19T07:18:11.000Z</time>
      </trkpt>
      <trkpt lat="46.06183" lon="5.64481">
        <ele>899.79998779297</ele>
        <time>2023-05-19T07:18:12.000Z</time>
      </trkpt>
      <trkpt lat="46.06167" lon="5.64531">
        <ele>898.79998779297</ele>
        <time>2023-05-19T07:18:20.000Z</time>
      </trkpt>
      <trkpt lat="46.06148" lon="5.64588">
        <ele>897.79998779297</ele>
        <time>2023-05-19T07:18:28.000Z</time>
      </trkpt>
      <trkpt lat="46.06127" lon="5.64638">
        <ele>897.40002441406</ele>
        <time>2023-05-19T07:18:36.000Z</time>
      </trkpt>
      <trkpt lat="46.06098" lon="5.64687">
        <ele>898.59997558594</ele>
        <time>2023-05-19T07:18:46.000Z</time>
      </trkpt>
      <trkpt lat="46.06094" lon="5.64693">
        <ele>899</ele>
        <time>2023-05-19T07:18:47.000Z</time>
      </trkpt>
      <trkpt lat="46.06086" lon="5.64705">
        <ele>899.79998779297</ele>
        <time>2023-05-19T07:18:50.000Z</time>
      </trkpt>
      <trkpt lat="46.06082" lon="5.64709">
        <ele>900</ele>
        <time>2023-05-19T07:18:51.000Z</time>
      </trkpt>
      <trkpt lat="46.06078" lon="5.64712">
        <ele>900.40002441406</ele>
        <time>2023-05-19T07:18:52.000Z</time>
      </trkpt>
      <trkpt lat="46.06074" lon="5.64713">
        <ele>900.59997558594</ele>
        <time>2023-05-19T07:18:53.000Z</time>
      </trkpt>
      <trkpt lat="46.06071" lon="5.64713">
        <ele>901</ele>
        <time>2023-05-19T07:18:54.000Z</time>
      </trkpt>
      <trkpt lat="46.06065" lon="5.64708">
        <ele>901.40002441406</ele>
        <time>2023-05-19T07:18:56.000Z</time>
      </trkpt>
      <trkpt lat="46.06061" lon="5.64702">
        <ele>901.40002441406</ele>
        <time>2023-05-19T07:18:57.000Z</time>
      </trkpt>
      <trkpt lat="46.06058" lon="5.64697">
        <ele>901.59997558594</ele>
        <time>2023-05-19T07:18:58.000Z</time>
      </trkpt>
      <trkpt lat="46.06051" lon="5.64679">
        <ele>901.79998779297</ele>
        <time>2023-05-19T07:19:01.000Z</time>
      </trkpt>
      <trkpt lat="46.06041" lon="5.64654">
        <ele>901.79998779297</ele>
        <time>2023-05-19T07:19:05.000Z</time>
      </trkpt>
      <trkpt lat="46.06033" lon="5.64642">
        <ele>901.59997558594</ele>
        <time>2023-05-19T07:19:07.000Z</time>
      </trkpt>
      <trkpt lat="46.06027" lon="5.64633">
        <ele>901.40002441406</ele>
        <time>2023-05-19T07:19:09.000Z</time>
      </trkpt>
      <trkpt lat="46.06018" lon="5.64625">
        <ele>901.20001220703</ele>
        <time>2023-05-19T07:19:11.000Z</time>
      </trkpt>
      <trkpt lat="46.06014" lon="5.6462">
        <ele>901</ele>
        <time>2023-05-19T07:19:12.000Z</time>
      </trkpt>
      <trkpt lat="46.06011" lon="5.64614">
        <ele>901</ele>
        <time>2023-05-19T07:19:13.000Z</time>
      </trkpt>
      <trkpt lat="46.06004" lon="5.64597">
        <ele>900.79998779297</ele>
        <time>2023-05-19T07:19:16.000Z</time>
      </trkpt>
      <trkpt lat="46.06002" lon="5.64577">
        <ele>900.59997558594</ele>
        <time>2023-05-19T07:19:20.000Z</time>
      </trkpt>
      <trkpt lat="46.06008" lon="5.64545">
        <ele>900.59997558594</ele>
        <time>2023-05-19T07:19:25.000Z</time>
      </trkpt>
      <trkpt lat="46.06014" lon="5.6452">
        <ele>900.20001220703</ele>
        <time>2023-05-19T07:19:28.000Z</time>
      </trkpt>
      <trkpt lat="46.06015" lon="5.64508">
        <ele>900.20001220703</ele>
        <time>2023-05-19T07:19:30.000Z</time>
      </trkpt>
      <trkpt lat="46.06015" lon="5.64495">
        <ele>900.20001220703</ele>
        <time>2023-05-19T07:19:32.000Z</time>
      </trkpt>
      <trkpt lat="46.06013" lon="5.64481">
        <ele>900.20001220703</ele>
        <time>2023-05-19T07:19:34.000Z</time>
      </trkpt>
      <trkpt lat="46.06013" lon="5.64476">
        <ele>900.20001220703</ele>
        <time>2023-05-19T07:19:35.000Z</time>
      </trkpt>
      <trkpt lat="46.06011" lon="5.64469">
        <ele>900.20001220703</ele>
        <time>2023-05-19T07:19:36.000Z</time>
      </trkpt>
      <trkpt lat="46.06005" lon="5.6445">
        <ele>900.20001220703</ele>
        <time>2023-05-19T07:19:39.000Z</time>
      </trkpt>
      <trkpt lat="46.05991" lon="5.64401">
        <ele>900.20001220703</ele>
        <time>2023-05-19T07:19:46.000Z</time>
      </trkpt>
      <trkpt lat="46.05982" lon="5.64356">
        <ele>900.20001220703</ele>
        <time>2023-05-19T07:19:52.000Z</time>
      </trkpt>
      <trkpt lat="46.05968" lon="5.64303">
        <ele>901</ele>
        <time>2023-05-19T07:20:01.000Z</time>
      </trkpt>
      <trkpt lat="46.0596" lon="5.64272">
        <ele>901.79998779297</ele>
        <time>2023-05-19T07:20:06.000Z</time>
      </trkpt>
      <trkpt lat="46.05954" lon="5.64249">
        <ele>902.40002441406</ele>
        <time>2023-05-19T07:20:10.000Z</time>
      </trkpt>
      <trkpt lat="46.05949" lon="5.64233">
        <ele>902.79998779297</ele>
        <time>2023-05-19T07:20:13.000Z</time>
      </trkpt>
      <trkpt lat="46.05938" lon="5.64194">
        <ele>903.59997558594</ele>
        <time>2023-05-19T07:20:20.000Z</time>
      </trkpt>
      <trkpt lat="46.05933" lon="5.64178">
        <ele>903.79998779297</ele>
        <time>2023-05-19T07:20:23.000Z</time>
      </trkpt>
      <trkpt lat="46.05923" lon="5.64148">
        <ele>904.20001220703</ele>
        <time>2023-05-19T07:20:29.000Z</time>
      </trkpt>
      <trkpt lat="46.05906" lon="5.64107">
        <ele>904.79998779297</ele>
        <time>2023-05-19T07:20:38.000Z</time>
      </trkpt>
      <trkpt lat="46.05905" lon="5.64104">
        <ele>905</ele>
        <time>2023-05-19T07:20:39.000Z</time>
      </trkpt>
      <trkpt lat="46.05899" lon="5.64087">
        <ele>905.79998779297</ele>
        <time>2023-05-19T07:20:43.000Z</time>
      </trkpt>
      <trkpt lat="46.0589" lon="5.64065">
        <ele>906.20001220703</ele>
        <time>2023-05-19T07:20:48.000Z</time>
      </trkpt>
      <trkpt lat="46.05881" lon="5.64041">
        <ele>907</ele>
        <time>2023-05-19T07:20:55.000Z</time>
      </trkpt>
      <trkpt lat="46.05876" lon="5.64028">
        <ele>907.59997558594</ele>
        <time>2023-05-19T07:20:58.000Z</time>
      </trkpt>
      <trkpt lat="46.05873" lon="5.64021">
        <ele>908</ele>
        <time>2023-05-19T07:21:00.000Z</time>
      </trkpt>
      <trkpt lat="46.05865" lon="5.63991">
        <ele>908.40002441406</ele>
        <time>2023-05-19T07:21:07.000Z</time>
      </trkpt>
      <trkpt lat="46.05861" lon="5.63979">
        <ele>909</ele>
        <time>2023-05-19T07:21:10.000Z</time>
      </trkpt>
      <trkpt lat="46.05849" lon="5.63951">
        <ele>910</ele>
        <time>2023-05-19T07:21:17.000Z</time>
      </trkpt>
      <trkpt lat="46.05847" lon="5.63946">
        <ele>910</ele>
        <time>2023-05-19T07:21:18.000Z</time>
      </trkpt>
      <trkpt lat="46.05831" lon="5.63925">
        <ele>911.20001220703</ele>
        <time>2023-05-19T07:21:25.000Z</time>
      </trkpt>
      <trkpt lat="46.0581" lon="5.63916">
        <ele>912.20001220703</ele>
        <time>2023-05-19T07:21:32.000Z</time>
      </trkpt>
      <trkpt lat="46.05786" lon="5.63912">
        <ele>912.79998779297</ele>
        <time>2023-05-19T07:21:39.000Z</time>
      </trkpt>
      <trkpt lat="46.05768" lon="5.63907">
        <ele>913</ele>
        <time>2023-05-19T07:21:45.000Z</time>
      </trkpt>
      <trkpt lat="46.05753" lon="5.63907">
        <ele>913</ele>
        <time>2023-05-19T07:21:49.000Z</time>
      </trkpt>
      <trkpt lat="46.05751" lon="5.63909">
        <ele>913</ele>
        <time>2023-05-19T07:21:50.000Z</time>
      </trkpt>
      <trkpt lat="46.05747" lon="5.63917">
        <ele>912.79998779297</ele>
        <time>2023-05-19T07:21:52.000Z</time>
      </trkpt>
      <trkpt lat="46.05746" lon="5.63924">
        <ele>912.79998779297</ele>
        <time>2023-05-19T07:21:54.000Z</time>
      </trkpt>
      <trkpt lat="46.05743" lon="5.63948">
        <ele>913.20001220703</ele>
        <time>2023-05-19T07:22:00.000Z</time>
      </trkpt>
      <trkpt lat="46.05744" lon="5.63951">
        <ele>913.40002441406</ele>
        <time>2023-05-19T07:22:01.000Z</time>
      </trkpt>
      <trkpt lat="46.05744" lon="5.63966">
        <ele>914</ele>
        <time>2023-05-19T07:22:05.000Z</time>
      </trkpt>
      <trkpt lat="46.05743" lon="5.6399">
        <ele>914.59997558594</ele>
        <time>2023-05-19T07:22:10.000Z</time>
      </trkpt>
      <trkpt lat="46.05744" lon="5.64005">
        <ele>915</ele>
        <time>2023-05-19T07:22:13.000Z</time>
      </trkpt>
      <trkpt lat="46.05745" lon="5.64024">
        <ele>915.79998779297</ele>
        <time>2023-05-19T07:22:17.000Z</time>
      </trkpt>
      <trkpt lat="46.05746" lon="5.64043">
        <ele>916.59997558594</ele>
        <time>2023-05-19T07:22:21.000Z</time>
      </trkpt>
      <trkpt lat="46.05747" lon="5.64054">
        <ele>917</ele>
        <time>2023-05-19T07:22:23.000Z</time>
      </trkpt>
      <trkpt lat="46.05749" lon="5.64067">
        <ele>918.20001220703</ele>
        <time>2023-05-19T07:22:26.000Z</time>
      </trkpt>
      <trkpt lat="46.0575" lon="5.64081">
        <ele>919.20001220703</ele>
        <time>2023-05-19T07:22:29.000Z</time>
      </trkpt>
      <trkpt lat="46.0575" lon="5.64086">
        <ele>919.59997558594</ele>
        <time>2023-05-19T07:22:30.000Z</time>
      </trkpt>
      <trkpt lat="46.05751" lon="5.64095">
        <ele>920.20001220703</ele>
        <time>2023-05-19T07:22:32.000Z</time>
      </trkpt>
      <trkpt lat="46.05751" lon="5.64108">
        <ele>921.59997558594</ele>
        <time>2023-05-19T07:22:35.000Z</time>
      </trkpt>
      <trkpt lat="46.05751" lon="5.64113">
        <ele>921.79998779297</ele>
        <time>2023-05-19T07:22:36.000Z</time>
      </trkpt>
      <trkpt lat="46.05749" lon="5.64126">
        <ele>922.59997558594</ele>
        <time>2023-05-19T07:22:39.000Z</time>
      </trkpt>
      <trkpt lat="46.05745" lon="5.64138">
        <ele>923.59997558594</ele>
        <time>2023-05-19T07:22:42.000Z</time>
      </trkpt>
      <trkpt lat="46.05743" lon="5.64143">
        <ele>923.79998779297</ele>
        <time>2023-05-19T07:22:43.000Z</time>
      </trkpt>
      <trkpt lat="46.05737" lon="5.64154">
        <ele>924.79998779297</ele>
        <time>2023-05-19T07:22:46.000Z</time>
      </trkpt>
      <trkpt lat="46.05729" lon="5.6417">
        <ele>926</ele>
        <time>2023-05-19T07:22:50.000Z</time>
      </trkpt>
      <trkpt lat="46.05725" lon="5.64196">
        <ele>927</ele>
        <time>2023-05-19T07:22:56.000Z</time>
      </trkpt>
      <trkpt lat="46.0573" lon="5.64214">
        <ele>928.40002441406</ele>
        <time>2023-05-19T07:23:00.000Z</time>
      </trkpt>
      <trkpt lat="46.05732" lon="5.64221">
        <ele>929</ele>
        <time>2023-05-19T07:23:02.000Z</time>
      </trkpt>
      <trkpt lat="46.05734" lon="5.64227">
        <ele>929.59997558594</ele>
        <time>2023-05-19T07:23:04.000Z</time>
      </trkpt>
      <trkpt lat="46.05737" lon="5.64235">
        <ele>930.79998779297</ele>
        <time>2023-05-19T07:23:07.000Z</time>
      </trkpt>
      <trkpt lat="46.05738" lon="5.64238">
        <ele>931</ele>
        <time>2023-05-19T07:23:08.000Z</time>
      </trkpt>
      <trkpt lat="46.0574" lon="5.64247">
        <ele>931.79998779297</ele>
        <time>2023-05-19T07:23:11.000Z</time>
      </trkpt>
      <trkpt lat="46.05741" lon="5.64254">
        <ele>932.59997558594</ele>
        <time>2023-05-19T07:23:14.000Z</time>
      </trkpt>
      <trkpt lat="46.05742" lon="5.6426">
        <ele>933.20001220703</ele>
        <time>2023-05-19T07:23:16.000Z</time>
      </trkpt>
      <trkpt lat="46.0574" lon="5.64275">
        <ele>934</ele>
        <time>2023-05-19T07:23:21.000Z</time>
      </trkpt>
      <trkpt lat="46.0574" lon="5.64278">
        <ele>934.40002441406</ele>
        <time>2023-05-19T07:23:22.000Z</time>
      </trkpt>
      <trkpt lat="46.05735" lon="5.64286">
        <ele>935</ele>
        <time>2023-05-19T07:23:26.000Z</time>
      </trkpt>
      <trkpt lat="46.0573" lon="5.64288">
        <ele>935.40002441406</ele>
        <time>2023-05-19T07:23:29.000Z</time>
      </trkpt>
      <trkpt lat="46.05725" lon="5.64289">
        <ele>935.59997558594</ele>
        <time>2023-05-19T07:23:31.000Z</time>
      </trkpt>
      <trkpt lat="46.05723" lon="5.64289">
        <ele>936</ele>
        <time>2023-05-19T07:23:34.000Z</time>
      </trkpt>
      <trkpt lat="46.05712" lon="5.64286">
        <ele>936.59997558594</ele>
        <time>2023-05-19T07:24:36.000Z</time>
      </trkpt>
      <trkpt lat="46.05712" lon="5.64286">
        <ele>936.59997558594</ele>
        <time>2023-05-19T07:24:37.000Z</time>
      </trkpt>
      <trkpt lat="46.05712" lon="5.64286">
        <ele>936.59997558594</ele>
        <time>2023-05-19T07:24:39.000Z</time>
      </trkpt>
      <trkpt lat="46.057" lon="5.64292">
        <ele>939.20001220703</ele>
        <time>2023-05-19T07:25:23.000Z</time>
      </trkpt>
      <trkpt lat="46.05703" lon="5.6431">
        <ele>940</ele>
        <time>2023-05-19T07:25:29.000Z</time>
      </trkpt>
      <trkpt lat="46.05704" lon="5.64314">
        <ele>940.40002441406</ele>
        <time>2023-05-19T07:25:30.000Z</time>
      </trkpt>
      <trkpt lat="46.05708" lon="5.64329">
        <ele>941.59997558594</ele>
        <time>2023-05-19T07:25:35.000Z</time>
      </trkpt>
      <trkpt lat="46.05709" lon="5.64331">
        <ele>941.59997558594</ele>
        <time>2023-05-19T07:25:36.000Z</time>
      </trkpt>
      <trkpt lat="46.05711" lon="5.6434">
        <ele>943.40002441406</ele>
        <time>2023-05-19T07:25:39.000Z</time>
      </trkpt>
      <trkpt lat="46.05713" lon="5.64346">
        <ele>944.59997558594</ele>
        <time>2023-05-19T07:25:41.000Z</time>
      </trkpt>
      <trkpt lat="46.05714" lon="5.64349">
        <ele>945.20001220703</ele>
        <time>2023-05-19T07:25:42.000Z</time>
      </trkpt>
      <trkpt lat="46.05715" lon="5.64354">
        <ele>945.79998779297</ele>
        <time>2023-05-19T07:25:44.000Z</time>
      </trkpt>
      <trkpt lat="46.05715" lon="5.64359">
        <ele>946.79998779297</ele>
        <time>2023-05-19T07:25:46.000Z</time>
      </trkpt>
      <trkpt lat="46.05716" lon="5.64364">
        <ele>947.79998779297</ele>
        <time>2023-05-19T07:25:48.000Z</time>
      </trkpt>
      <trkpt lat="46.05716" lon="5.64367">
        <ele>948.20001220703</ele>
        <time>2023-05-19T07:25:49.000Z</time>
      </trkpt>
      <trkpt lat="46.05719" lon="5.64383">
        <ele>949.40002441406</ele>
        <time>2023-05-19T07:25:55.000Z</time>
      </trkpt>
      <trkpt lat="46.05718" lon="5.64398">
        <ele>950.59997558594</ele>
        <time>2023-05-19T07:26:00.000Z</time>
      </trkpt>
      <trkpt lat="46.05718" lon="5.64405">
        <ele>951</ele>
        <time>2023-05-19T07:26:02.000Z</time>
      </trkpt>
      <trkpt lat="46.05719" lon="5.64422">
        <ele>951.40002441406</ele>
        <time>2023-05-19T07:26:08.000Z</time>
      </trkpt>
      <trkpt lat="46.05721" lon="5.64442">
        <ele>951.59997558594</ele>
        <time>2023-05-19T07:26:16.000Z</time>
      </trkpt>
      <trkpt lat="46.05716" lon="5.64449">
        <ele>951.40002441406</ele>
        <time>2023-05-19T07:26:21.000Z</time>
      </trkpt>
      <trkpt lat="46.05713" lon="5.6445">
        <ele>951.40002441406</ele>
        <time>2023-05-19T07:26:23.000Z</time>
      </trkpt>
      <trkpt lat="46.05697" lon="5.64445">
        <ele>950.59997558594</ele>
        <time>2023-05-19T07:26:31.000Z</time>
      </trkpt>
      <trkpt lat="46.05683" lon="5.64433">
        <ele>950.40002441406</ele>
        <time>2023-05-19T07:26:38.000Z</time>
      </trkpt>
      <trkpt lat="46.05681" lon="5.64431">
        <ele>950.40002441406</ele>
        <time>2023-05-19T07:26:39.000Z</time>
      </trkpt>
      <trkpt lat="46.05672" lon="5.64427">
        <ele>950.20001220703</ele>
        <time>2023-05-19T07:26:42.000Z</time>
      </trkpt>
      <trkpt lat="46.05661" lon="5.6443">
        <ele>949.59997558594</ele>
        <time>2023-05-19T07:26:45.000Z</time>
      </trkpt>
      <trkpt lat="46.05651" lon="5.64432">
        <ele>948.40002441406</ele>
        <time>2023-05-19T07:26:48.000Z</time>
      </trkpt>
      <trkpt lat="46.05639" lon="5.64435">
        <ele>947.40002441406</ele>
        <time>2023-05-19T07:26:53.000Z</time>
      </trkpt>
      <trkpt lat="46.05632" lon="5.64439">
        <ele>947.40002441406</ele>
        <time>2023-05-19T07:26:55.000Z</time>
      </trkpt>
      <trkpt lat="46.05623" lon="5.64445">
        <ele>947.20001220703</ele>
        <time>2023-05-19T07:26:59.000Z</time>
      </trkpt>
      <trkpt lat="46.05613" lon="5.6445">
        <ele>946.59997558594</ele>
        <time>2023-05-19T07:27:04.000Z</time>
      </trkpt>
      <trkpt lat="46.0561" lon="5.64451">
        <ele>946.59997558594</ele>
        <time>2023-05-19T07:27:05.000Z</time>
      </trkpt>
      <trkpt lat="46.05601" lon="5.64454">
        <ele>946.40002441406</ele>
        <time>2023-05-19T07:27:08.000Z</time>
      </trkpt>
      <trkpt lat="46.05598" lon="5.64455">
        <ele>946.40002441406</ele>
        <time>2023-05-19T07:27:09.000Z</time>
      </trkpt>
      <trkpt lat="46.05595" lon="5.64456">
        <ele>946</ele>
        <time>2023-05-19T07:27:11.000Z</time>
      </trkpt>
      <trkpt lat="46.05595" lon="5.64456">
        <ele>945.40002441406</ele>
        <time>2023-05-19T07:27:15.000Z</time>
      </trkpt>
      <trkpt lat="46.05582" lon="5.64454">
        <ele>945.40002441406</ele>
        <time>2023-05-19T07:28:26.000Z</time>
      </trkpt>
      <trkpt lat="46.05564" lon="5.64459">
        <ele>945.40002441406</ele>
        <time>2023-05-19T07:28:32.000Z</time>
      </trkpt>
      <trkpt lat="46.05558" lon="5.64462">
        <ele>945.20001220703</ele>
        <time>2023-05-19T07:28:35.000Z</time>
      </trkpt>
      <trkpt lat="46.05555" lon="5.64462">
        <ele>945.20001220703</ele>
        <time>2023-05-19T07:28:36.000Z</time>
      </trkpt>
      <trkpt lat="46.05552" lon="5.64462">
        <ele>945.20001220703</ele>
        <time>2023-05-19T07:28:37.000Z</time>
      </trkpt>
      <trkpt lat="46.05538" lon="5.64456">
        <ele>945.59997558594</ele>
        <time>2023-05-19T07:28:43.000Z</time>
      </trkpt>
      <trkpt lat="46.05522" lon="5.64443">
        <ele>945.59997558594</ele>
        <time>2023-05-19T07:28:49.000Z</time>
      </trkpt>
      <trkpt lat="46.0551" lon="5.64439">
        <ele>945.40002441406</ele>
        <time>2023-05-19T07:28:54.000Z</time>
      </trkpt>
      <trkpt lat="46.05497" lon="5.64449">
        <ele>945.40002441406</ele>
        <time>2023-05-19T07:29:01.000Z</time>
      </trkpt>
      <trkpt lat="46.05486" lon="5.64456">
        <ele>946.20001220703</ele>
        <time>2023-05-19T07:29:07.000Z</time>
      </trkpt>
      <trkpt lat="46.05466" lon="5.64466">
        <ele>946.20001220703</ele>
        <time>2023-05-19T07:29:12.000Z</time>
      </trkpt>
      <trkpt lat="46.05448" lon="5.64481">
        <ele>945.40002441406</ele>
        <time>2023-05-19T07:29:17.000Z</time>
      </trkpt>
      <trkpt lat="46.05436" lon="5.64487">
        <ele>944.20001220703</ele>
        <time>2023-05-19T07:29:20.000Z</time>
      </trkpt>
      <trkpt lat="46.05428" lon="5.645">
        <ele>943.20001220703</ele>
        <time>2023-05-19T07:29:23.000Z</time>
      </trkpt>
      <trkpt lat="46.05425" lon="5.64504">
        <ele>942.40002441406</ele>
        <time>2023-05-19T07:29:24.000Z</time>
      </trkpt>
      <trkpt lat="46.0542" lon="5.64519">
        <ele>941.40002441406</ele>
        <time>2023-05-19T07:29:28.000Z</time>
      </trkpt>
      <trkpt lat="46.05418" lon="5.64527">
        <ele>940.20001220703</ele>
        <time>2023-05-19T07:29:30.000Z</time>
      </trkpt>
      <trkpt lat="46.05415" lon="5.6454">
        <ele>939</ele>
        <time>2023-05-19T07:29:34.000Z</time>
      </trkpt>
      <trkpt lat="46.05414" lon="5.64545">
        <ele>938.59997558594</ele>
        <time>2023-05-19T07:29:35.000Z</time>
      </trkpt>
      <trkpt lat="46.05412" lon="5.64549">
        <ele>938</ele>
        <time>2023-05-19T07:29:36.000Z</time>
      </trkpt>
      <trkpt lat="46.0541" lon="5.64558">
        <ele>936.79998779297</ele>
        <time>2023-05-19T07:29:39.000Z</time>
      </trkpt>
      <trkpt lat="46.05408" lon="5.64567">
        <ele>935.79998779297</ele>
        <time>2023-05-19T07:29:41.000Z</time>
      </trkpt>
      <trkpt lat="46.05408" lon="5.64567">
        <ele>935.40002441406</ele>
        <time>2023-05-19T07:29:42.000Z</time>
      </trkpt>
      <trkpt lat="46.05407" lon="5.64575">
        <ele>934.20001220703</ele>
        <time>2023-05-19T07:29:44.000Z</time>
      </trkpt>
      <trkpt lat="46.05405" lon="5.64593">
        <ele>933.20001220703</ele>
        <time>2023-05-19T07:29:47.000Z</time>
      </trkpt>
      <trkpt lat="46.05404" lon="5.64597">
        <ele>932</ele>
        <time>2023-05-19T07:29:49.000Z</time>
      </trkpt>
      <trkpt lat="46.05404" lon="5.64608">
        <ele>931</ele>
        <time>2023-05-19T07:29:51.000Z</time>
      </trkpt>
      <trkpt lat="46.05404" lon="5.64614">
        <ele>929.79998779297</ele>
        <time>2023-05-19T07:29:53.000Z</time>
      </trkpt>
      <trkpt lat="46.05405" lon="5.64621">
        <ele>928.79998779297</ele>
        <time>2023-05-19T07:29:55.000Z</time>
      </trkpt>
      <trkpt lat="46.05405" lon="5.64625">
        <ele>928.59997558594</ele>
        <time>2023-05-19T07:29:56.000Z</time>
      </trkpt>
      <trkpt lat="46.05405" lon="5.64627">
        <ele>928.40002441406</ele>
        <time>2023-05-19T07:29:57.000Z</time>
      </trkpt>
      <trkpt lat="46.05404" lon="5.64638">
        <ele>927.20001220703</ele>
        <time>2023-05-19T07:30:00.000Z</time>
      </trkpt>
      <trkpt lat="46.05401" lon="5.64653">
        <ele>926</ele>
        <time>2023-05-19T07:30:04.000Z</time>
      </trkpt>
      <trkpt lat="46.054" lon="5.64657">
        <ele>926</ele>
        <time>2023-05-19T07:30:05.000Z</time>
      </trkpt>
      <trkpt lat="46.05397" lon="5.64676">
        <ele>925.20001220703</ele>
        <time>2023-05-19T07:30:10.000Z</time>
      </trkpt>
      <trkpt lat="46.05397" lon="5.64689">
        <ele>925.20001220703</ele>
        <time>2023-05-19T07:30:14.000Z</time>
      </trkpt>
      <trkpt lat="46.05399" lon="5.64696">
        <ele>925.20001220703</ele>
        <time>2023-05-19T07:30:16.000Z</time>
      </trkpt>
      <trkpt lat="46.05402" lon="5.64714">
        <ele>925.20001220703</ele>
        <time>2023-05-19T07:30:21.000Z</time>
      </trkpt>
      <trkpt lat="46.05403" lon="5.6475">
        <ele>925.59997558594</ele>
        <time>2023-05-19T07:30:28.000Z</time>
      </trkpt>
      <trkpt lat="46.05399" lon="5.64785">
        <ele>925.59997558594</ele>
        <time>2023-05-19T07:30:35.000Z</time>
      </trkpt>
      <trkpt lat="46.05392" lon="5.64812">
        <ele>925.79998779297</ele>
        <time>2023-05-19T07:30:40.000Z</time>
      </trkpt>
      <trkpt lat="46.05383" lon="5.64836">
        <ele>925.79998779297</ele>
        <time>2023-05-19T07:30:44.000Z</time>
      </trkpt>
      <trkpt lat="46.05382" lon="5.6484">
        <ele>925.79998779297</ele>
        <time>2023-05-19T07:30:45.000Z</time>
      </trkpt>
      <trkpt lat="46.0537" lon="5.64878">
        <ele>925.79998779297</ele>
        <time>2023-05-19T07:30:52.000Z</time>
      </trkpt>
      <trkpt lat="46.0537" lon="5.64904">
        <ele>926.20001220703</ele>
        <time>2023-05-19T07:30:57.000Z</time>
      </trkpt>
      <trkpt lat="46.05369" lon="5.64913">
        <ele>926.20001220703</ele>
        <time>2023-05-19T07:30:59.000Z</time>
      </trkpt>
      <trkpt lat="46.05371" lon="5.64941">
        <ele>926.40002441406</ele>
        <time>2023-05-19T07:31:05.000Z</time>
      </trkpt>
      <trkpt lat="46.0537" lon="5.64966">
        <ele>926.59997558594</ele>
        <time>2023-05-19T07:31:11.000Z</time>
      </trkpt>
      <trkpt lat="46.05368" lon="5.64988">
        <ele>926.79998779297</ele>
        <time>2023-05-19T07:31:16.000Z</time>
      </trkpt>
      <trkpt lat="46.05368" lon="5.64993">
        <ele>927</ele>
        <time>2023-05-19T07:31:17.000Z</time>
      </trkpt>
      <trkpt lat="46.05368" lon="5.65011">
        <ele>927.79998779297</ele>
        <time>2023-05-19T07:31:21.000Z</time>
      </trkpt>
      <trkpt lat="46.05367" lon="5.65019">
        <ele>928</ele>
        <time>2023-05-19T07:31:23.000Z</time>
      </trkpt>
      <trkpt lat="46.05367" lon="5.65046">
        <ele>928</ele>
        <time>2023-05-19T07:31:29.000Z</time>
      </trkpt>
      <trkpt lat="46.05366" lon="5.65078">
        <ele>928.40002441406</ele>
        <time>2023-05-19T07:31:36.000Z</time>
      </trkpt>
      <trkpt lat="46.05367" lon="5.65086">
        <ele>928.59997558594</ele>
        <time>2023-05-19T07:31:38.000Z</time>
      </trkpt>
      <trkpt lat="46.05366" lon="5.65103">
        <ele>928.79998779297</ele>
        <time>2023-05-19T07:31:42.000Z</time>
      </trkpt>
      <trkpt lat="46.05365" lon="5.6513">
        <ele>929.59997558594</ele>
        <time>2023-05-19T07:31:49.000Z</time>
      </trkpt>
      <trkpt lat="46.05365" lon="5.65145">
        <ele>930</ele>
        <time>2023-05-19T07:31:53.000Z</time>
      </trkpt>
      <trkpt lat="46.05365" lon="5.65153">
        <ele>930.20001220703</ele>
        <time>2023-05-19T07:31:55.000Z</time>
      </trkpt>
      <trkpt lat="46.05363" lon="5.6516">
        <ele>930.40002441406</ele>
        <time>2023-05-19T07:31:57.000Z</time>
      </trkpt>
      <trkpt lat="46.05361" lon="5.65167">
        <ele>930.40002441406</ele>
        <time>2023-05-19T07:31:59.000Z</time>
      </trkpt>
      <trkpt lat="46.05363" lon="5.65201">
        <ele>930.59997558594</ele>
        <time>2023-05-19T07:32:06.000Z</time>
      </trkpt>
      <trkpt lat="46.05361" lon="5.65234">
        <ele>931</ele>
        <time>2023-05-19T07:32:12.000Z</time>
      </trkpt>
      <trkpt lat="46.05353" lon="5.65265">
        <ele>930.79998779297</ele>
        <time>2023-05-19T07:32:19.000Z</time>
      </trkpt>
      <trkpt lat="46.05344" lon="5.65285">
        <ele>931</ele>
        <time>2023-05-19T07:32:24.000Z</time>
      </trkpt>
      <trkpt lat="46.05334" lon="5.65302">
        <ele>931</ele>
        <time>2023-05-19T07:32:29.000Z</time>
      </trkpt>
      <trkpt lat="46.05319" lon="5.65333">
        <ele>930.79998779297</ele>
        <time>2023-05-19T07:32:37.000Z</time>
      </trkpt>
      <trkpt lat="46.0531" lon="5.65358">
        <ele>930.40002441406</ele>
        <time>2023-05-19T07:32:43.000Z</time>
      </trkpt>
      <trkpt lat="46.05299" lon="5.65392">
        <ele>930.40002441406</ele>
        <time>2023-05-19T07:32:48.000Z</time>
      </trkpt>
      <trkpt lat="46.05295" lon="5.65411">
        <ele>930.20001220703</ele>
        <time>2023-05-19T07:32:51.000Z</time>
      </trkpt>
      <trkpt lat="46.05291" lon="5.65426">
        <ele>930</ele>
        <time>2023-05-19T07:32:54.000Z</time>
      </trkpt>
      <trkpt lat="46.05286" lon="5.65451">
        <ele>929.40002441406</ele>
        <time>2023-05-19T07:32:59.000Z</time>
      </trkpt>
      <trkpt lat="46.05284" lon="5.65458">
        <ele>929.40002441406</ele>
        <time>2023-05-19T07:33:01.000Z</time>
      </trkpt>
      <trkpt lat="46.05279" lon="5.65459">
        <ele>929.40002441406</ele>
        <time>2023-05-19T07:33:03.000Z</time>
      </trkpt>
      <trkpt lat="46.05274" lon="5.65456">
        <ele>929.40002441406</ele>
        <time>2023-05-19T07:33:05.000Z</time>
      </trkpt>
      <trkpt lat="46.05265" lon="5.65447">
        <ele>929.59997558594</ele>
        <time>2023-05-19T07:33:08.000Z</time>
      </trkpt>
      <trkpt lat="46.05239" lon="5.65419">
        <ele>930.40002441406</ele>
        <time>2023-05-19T07:33:16.000Z</time>
      </trkpt>
      <trkpt lat="46.05227" lon="5.65405">
        <ele>931.40002441406</ele>
        <time>2023-05-19T07:33:20.000Z</time>
      </trkpt>
      <trkpt lat="46.05218" lon="5.65392">
        <ele>931.59997558594</ele>
        <time>2023-05-19T07:33:23.000Z</time>
      </trkpt>
      <trkpt lat="46.052" lon="5.65373">
        <ele>932.40002441406</ele>
        <time>2023-05-19T07:33:29.000Z</time>
      </trkpt>
      <trkpt lat="46.05196" lon="5.6537">
        <ele>932.40002441406</ele>
        <time>2023-05-19T07:33:30.000Z</time>
      </trkpt>
      <trkpt lat="46.05181" lon="5.65353">
        <ele>933.40002441406</ele>
        <time>2023-05-19T07:33:35.000Z</time>
      </trkpt>
      <trkpt lat="46.05167" lon="5.65338">
        <ele>933.59997558594</ele>
        <time>2023-05-19T07:33:39.000Z</time>
      </trkpt>
      <trkpt lat="46.05161" lon="5.65332">
        <ele>934</ele>
        <time>2023-05-19T07:33:41.000Z</time>
      </trkpt>
      <trkpt lat="46.05148" lon="5.65318">
        <ele>934.40002441406</ele>
        <time>2023-05-19T07:33:45.000Z</time>
      </trkpt>
      <trkpt lat="46.05142" lon="5.65311">
        <ele>934.59997558594</ele>
        <time>2023-05-19T07:33:47.000Z</time>
      </trkpt>
      <trkpt lat="46.05127" lon="5.65296">
        <ele>935.40002441406</ele>
        <time>2023-05-19T07:33:52.000Z</time>
      </trkpt>
      <trkpt lat="46.0512" lon="5.6529">
        <ele>935.79998779297</ele>
        <time>2023-05-19T07:33:54.000Z</time>
      </trkpt>
      <trkpt lat="46.05099" lon="5.65273">
        <ele>937</ele>
        <time>2023-05-19T07:34:01.000Z</time>
      </trkpt>
      <trkpt lat="46.05095" lon="5.6527">
        <ele>937</ele>
        <time>2023-05-19T07:34:02.000Z</time>
      </trkpt>
      <trkpt lat="46.0507" lon="5.65257">
        <ele>938</ele>
        <time>2023-05-19T07:34:10.000Z</time>
      </trkpt>
      <trkpt lat="46.05067" lon="5.65256">
        <ele>938</ele>
        <time>2023-05-19T07:34:11.000Z</time>
      </trkpt>
      <trkpt lat="46.05048" lon="5.65245">
        <ele>939.20001220703</ele>
        <time>2023-05-19T07:34:17.000Z</time>
      </trkpt>
      <trkpt lat="46.05048" lon="5.65245">
        <ele>939.20001220703</ele>
        <time>2023-05-19T07:34:18.000Z</time>
      </trkpt>
      <trkpt lat="46.05025" lon="5.6524">
        <ele>939.40002441406</ele>
        <time>2023-05-19T07:34:24.000Z</time>
      </trkpt>
      <trkpt lat="46.05003" lon="5.65241">
        <ele>939.59997558594</ele>
        <time>2023-05-19T07:34:29.000Z</time>
      </trkpt>
      <trkpt lat="46.04998" lon="5.65242">
        <ele>939.59997558594</ele>
        <time>2023-05-19T07:34:30.000Z</time>
      </trkpt>
      <trkpt lat="46.04971" lon="5.65253">
        <ele>939.20001220703</ele>
        <time>2023-05-19T07:34:35.000Z</time>
      </trkpt>
      <trkpt lat="46.04942" lon="5.6527">
        <ele>937.79998779297</ele>
        <time>2023-05-19T07:34:39.000Z</time>
      </trkpt>
      <trkpt lat="46.04929" lon="5.65279">
        <ele>937</ele>
        <time>2023-05-19T07:34:41.000Z</time>
      </trkpt>
      <trkpt lat="46.04911" lon="5.65291">
        <ele>936.59997558594</ele>
        <time>2023-05-19T07:34:43.000Z</time>
      </trkpt>
      <trkpt lat="46.04889" lon="5.65303">
        <ele>935.40002441406</ele>
        <time>2023-05-19T07:34:46.000Z</time>
      </trkpt>
      <trkpt lat="46.04882" lon="5.65306">
        <ele>935</ele>
        <time>2023-05-19T07:34:47.000Z</time>
      </trkpt>
      <trkpt lat="46.04863" lon="5.65313">
        <ele>933.59997558594</ele>
        <time>2023-05-19T07:34:49.000Z</time>
      </trkpt>
      <trkpt lat="46.04854" lon="5.65314">
        <ele>933</ele>
        <time>2023-05-19T07:34:50.000Z</time>
      </trkpt>
      <trkpt lat="46.04848" lon="5.65313">
        <ele>932.40002441406</ele>
        <time>2023-05-19T07:34:51.000Z</time>
      </trkpt>
      <trkpt lat="46.0484" lon="5.65312">
        <ele>932</ele>
        <time>2023-05-19T07:34:52.000Z</time>
      </trkpt>
      <trkpt lat="46.0483" lon="5.65311">
        <ele>931</ele>
        <time>2023-05-19T07:34:53.000Z</time>
      </trkpt>
      <trkpt lat="46.04813" lon="5.65308">
        <ele>930</ele>
        <time>2023-05-19T07:34:55.000Z</time>
      </trkpt>
      <trkpt lat="46.04799" lon="5.65306">
        <ele>929</ele>
        <time>2023-05-19T07:34:57.000Z</time>
      </trkpt>
      <trkpt lat="46.04789" lon="5.65305">
        <ele>928.79998779297</ele>
        <time>2023-05-19T07:34:58.000Z</time>
      </trkpt>
      <trkpt lat="46.04768" lon="5.65301">
        <ele>928.20001220703</ele>
        <time>2023-05-19T07:35:01.000Z</time>
      </trkpt>
      <trkpt lat="46.04752" lon="5.65299">
        <ele>927.79998779297</ele>
        <time>2023-05-19T07:35:03.000Z</time>
      </trkpt>
      <trkpt lat="46.04731" lon="5.65295">
        <ele>927</ele>
        <time>2023-05-19T07:35:06.000Z</time>
      </trkpt>
      <trkpt lat="46.04725" lon="5.65294">
        <ele>927</ele>
        <time>2023-05-19T07:35:07.000Z</time>
      </trkpt>
      <trkpt lat="46.04712" lon="5.65288">
        <ele>926.59997558594</ele>
        <time>2023-05-19T07:35:09.000Z</time>
      </trkpt>
      <trkpt lat="46.04707" lon="5.65284">
        <ele>926.40002441406</ele>
        <time>2023-05-19T07:35:10.000Z</time>
      </trkpt>
      <trkpt lat="46.04687" lon="5.65263">
        <ele>925.59997558594</ele>
        <time>2023-05-19T07:35:15.000Z</time>
      </trkpt>
      <trkpt lat="46.04677" lon="5.65251">
        <ele>925.40002441406</ele>
        <time>2023-05-19T07:35:18.000Z</time>
      </trkpt>
      <trkpt lat="46.04671" lon="5.65243">
        <ele>925.20001220703</ele>
        <time>2023-05-19T07:35:20.000Z</time>
      </trkpt>
      <trkpt lat="46.04647" lon="5.65215">
        <ele>925.79998779297</ele>
        <time>2023-05-19T07:35:27.000Z</time>
      </trkpt>
      <trkpt lat="46.04638" lon="5.6521">
        <ele>925.79998779297</ele>
        <time>2023-05-19T07:35:29.000Z</time>
      </trkpt>
      <trkpt lat="46.04627" lon="5.65208">
        <ele>925.79998779297</ele>
        <time>2023-05-19T07:35:31.000Z</time>
      </trkpt>
      <trkpt lat="46.04618" lon="5.65209">
        <ele>925.79998779297</ele>
        <time>2023-05-19T07:35:33.000Z</time>
      </trkpt>
      <trkpt lat="46.04611" lon="5.65218">
        <ele>925.79998779297</ele>
        <time>2023-05-19T07:35:35.000Z</time>
      </trkpt>
      <trkpt lat="46.04605" lon="5.65225">
        <ele>925.59997558594</ele>
        <time>2023-05-19T07:35:37.000Z</time>
      </trkpt>
      <trkpt lat="46.04593" lon="5.65242">
        <ele>925.40002441406</ele>
        <time>2023-05-19T07:35:41.000Z</time>
      </trkpt>
      <trkpt lat="46.04589" lon="5.65244">
        <ele>925.40002441406</ele>
        <time>2023-05-19T07:35:42.000Z</time>
      </trkpt>
      <trkpt lat="46.04579" lon="5.65248">
        <ele>925.40002441406</ele>
        <time>2023-05-19T07:35:44.000Z</time>
      </trkpt>
      <trkpt lat="46.04573" lon="5.6525">
        <ele>925.40002441406</ele>
        <time>2023-05-19T07:35:45.000Z</time>
      </trkpt>
      <trkpt lat="46.04568" lon="5.65251">
        <ele>925.59997558594</ele>
        <time>2023-05-19T07:35:46.000Z</time>
      </trkpt>
      <trkpt lat="46.04547" lon="5.65251">
        <ele>925.59997558594</ele>
        <time>2023-05-19T07:35:50.000Z</time>
      </trkpt>
      <trkpt lat="46.04537" lon="5.65251">
        <ele>925.59997558594</ele>
        <time>2023-05-19T07:35:52.000Z</time>
      </trkpt>
      <trkpt lat="46.04516" lon="5.65248">
        <ele>925.59997558594</ele>
        <time>2023-05-19T07:35:56.000Z</time>
      </trkpt>
      <trkpt lat="46.04501" lon="5.65243">
        <ele>925.40002441406</ele>
        <time>2023-05-19T07:35:59.000Z</time>
      </trkpt>
      <trkpt lat="46.04485" lon="5.65237">
        <ele>925.40002441406</ele>
        <time>2023-05-19T07:36:02.000Z</time>
      </trkpt>
      <trkpt lat="46.04466" lon="5.65225">
        <ele>925.40002441406</ele>
        <time>2023-05-19T07:36:07.000Z</time>
      </trkpt>
      <trkpt lat="46.04458" lon="5.65219">
        <ele>925.40002441406</ele>
        <time>2023-05-19T07:36:09.000Z</time>
      </trkpt>
      <trkpt lat="46.04443" lon="5.65205">
        <ele>925.40002441406</ele>
        <time>2023-05-19T07:36:13.000Z</time>
      </trkpt>
      <trkpt lat="46.04415" lon="5.65177">
        <ele>925.20001220703</ele>
        <time>2023-05-19T07:36:19.000Z</time>
      </trkpt>
      <trkpt lat="46.0441" lon="5.65174">
        <ele>925</ele>
        <time>2023-05-19T07:36:20.000Z</time>
      </trkpt>
      <trkpt lat="46.04392" lon="5.65163">
        <ele>924.79998779297</ele>
        <time>2023-05-19T07:36:24.000Z</time>
      </trkpt>
      <trkpt lat="46.04371" lon="5.65153">
        <ele>924.59997558594</ele>
        <time>2023-05-19T07:36:30.000Z</time>
      </trkpt>
      <trkpt lat="46.0435" lon="5.65143">
        <ele>924.40002441406</ele>
        <time>2023-05-19T07:36:36.000Z</time>
      </trkpt>
      <trkpt lat="46.04325" lon="5.65128">
        <ele>924.20001220703</ele>
        <time>2023-05-19T07:36:42.000Z</time>
      </trkpt>
      <trkpt lat="46.04288" lon="5.65114">
        <ele>924</ele>
        <time>2023-05-19T07:36:49.000Z</time>
      </trkpt>
      <trkpt lat="46.04264" lon="5.65109">
        <ele>923</ele>
        <time>2023-05-19T07:36:53.000Z</time>
      </trkpt>
      <trkpt lat="46.04257" lon="5.65108">
        <ele>922.40002441406</ele>
        <time>2023-05-19T07:36:54.000Z</time>
      </trkpt>
      <trkpt lat="46.04242" lon="5.65107">
        <ele>922</ele>
        <time>2023-05-19T07:36:56.000Z</time>
      </trkpt>
      <trkpt lat="46.04219" lon="5.65102">
        <ele>921.40002441406</ele>
        <time>2023-05-19T07:36:59.000Z</time>
      </trkpt>
      <trkpt lat="46.042" lon="5.65098">
        <ele>920.40002441406</ele>
        <time>2023-05-19T07:37:01.000Z</time>
      </trkpt>
      <trkpt lat="46.04175" lon="5.65095">
        <ele>919.20001220703</ele>
        <time>2023-05-19T07:37:04.000Z</time>
      </trkpt>
      <trkpt lat="46.04154" lon="5.65092">
        <ele>918</ele>
        <time>2023-05-19T07:37:06.000Z</time>
      </trkpt>
      <trkpt lat="46.04138" lon="5.65089">
        <ele>917</ele>
        <time>2023-05-19T07:37:08.000Z</time>
      </trkpt>
      <trkpt lat="46.04122" lon="5.65089">
        <ele>915.59997558594</ele>
        <time>2023-05-19T07:37:10.000Z</time>
      </trkpt>
      <trkpt lat="46.04115" lon="5.65091">
        <ele>915</ele>
        <time>2023-05-19T07:37:11.000Z</time>
      </trkpt>
      <trkpt lat="46.04106" lon="5.65095">
        <ele>914.20001220703</ele>
        <time>2023-05-19T07:37:12.000Z</time>
      </trkpt>
      <trkpt lat="46.04094" lon="5.65108">
        <ele>912.79998779297</ele>
        <time>2023-05-19T07:37:14.000Z</time>
      </trkpt>
      <trkpt lat="46.04087" lon="5.65115">
        <ele>911.79998779297</ele>
        <time>2023-05-19T07:37:15.000Z</time>
      </trkpt>
      <trkpt lat="46.04072" lon="5.65128">
        <ele>910.79998779297</ele>
        <time>2023-05-19T07:37:17.000Z</time>
      </trkpt>
      <trkpt lat="46.04058" lon="5.65132">
        <ele>909.79998779297</ele>
        <time>2023-05-19T07:37:19.000Z</time>
      </trkpt>
      <trkpt lat="46.04053" lon="5.65133">
        <ele>909.40002441406</ele>
        <time>2023-05-19T07:37:20.000Z</time>
      </trkpt>
      <trkpt lat="46.04044" lon="5.65135">
        <ele>908.20001220703</ele>
        <time>2023-05-19T07:37:22.000Z</time>
      </trkpt>
      <trkpt lat="46.04037" lon="5.65141">
        <ele>905.79998779297</ele>
        <time>2023-05-19T07:37:24.000Z</time>
      </trkpt>
      <trkpt lat="46.04033" lon="5.65146">
        <ele>903.79998779297</ele>
        <time>2023-05-19T07:37:26.000Z</time>
      </trkpt>
      <trkpt lat="46.04031" lon="5.65149">
        <ele>903</ele>
        <time>2023-05-19T07:37:27.000Z</time>
      </trkpt>
      <trkpt lat="46.04031" lon="5.65151">
        <ele>902.40002441406</ele>
        <time>2023-05-19T07:37:28.000Z</time>
      </trkpt>
      <trkpt lat="46.04031" lon="5.65153">
        <ele>900.79998779297</ele>
        <time>2023-05-19T07:37:31.000Z</time>
      </trkpt>
      <trkpt lat="46.04031" lon="5.65153">
        <ele>900.59997558594</ele>
        <time>2023-05-19T07:37:32.000Z</time>
      </trkpt>
      <trkpt lat="46.04031" lon="5.65153">
        <ele>900.20001220703</ele>
        <time>2023-05-19T07:37:33.000Z</time>
      </trkpt>
      <trkpt lat="46.0403" lon="5.6516">
        <ele>898.79998779297</ele>
        <time>2023-05-19T07:38:10.000Z</time>
      </trkpt>
      <trkpt lat="46.04029" lon="5.65169">
        <ele>898.79998779297</ele>
        <time>2023-05-19T07:38:12.000Z</time>
      </trkpt>
      <trkpt lat="46.04027" lon="5.65188">
        <ele>898.59997558594</ele>
        <time>2023-05-19T07:38:15.000Z</time>
      </trkpt>
      <trkpt lat="46.04025" lon="5.65196">
        <ele>898.59997558594</ele>
        <time>2023-05-19T07:38:16.000Z</time>
      </trkpt>
      <trkpt lat="46.04024" lon="5.65215">
        <ele>898</ele>
        <time>2023-05-19T07:38:18.000Z</time>
      </trkpt>
      <trkpt lat="46.0402" lon="5.65234">
        <ele>897.40002441406</ele>
        <time>2023-05-19T07:38:20.000Z</time>
      </trkpt>
      <trkpt lat="46.04017" lon="5.65243">
        <ele>897</ele>
        <time>2023-05-19T07:38:21.000Z</time>
      </trkpt>
      <trkpt lat="46.04008" lon="5.65259">
        <ele>896.40002441406</ele>
        <time>2023-05-19T07:38:23.000Z</time>
      </trkpt>
      <trkpt lat="46.04002" lon="5.65265">
        <ele>896.20001220703</ele>
        <time>2023-05-19T07:38:24.000Z</time>
      </trkpt>
      <trkpt lat="46.03996" lon="5.65269">
        <ele>895.79998779297</ele>
        <time>2023-05-19T07:38:25.000Z</time>
      </trkpt>
      <trkpt lat="46.03981" lon="5.65276">
        <ele>895.20001220703</ele>
        <time>2023-05-19T07:38:27.000Z</time>
      </trkpt>
      <trkpt lat="46.03958" lon="5.65283">
        <ele>893.59997558594</ele>
        <time>2023-05-19T07:38:30.000Z</time>
      </trkpt>
      <trkpt lat="46.03943" lon="5.65288">
        <ele>892.20001220703</ele>
        <time>2023-05-19T07:38:32.000Z</time>
      </trkpt>
      <trkpt lat="46.03936" lon="5.6529">
        <ele>891.79998779297</ele>
        <time>2023-05-19T07:38:33.000Z</time>
      </trkpt>
      <trkpt lat="46.03922" lon="5.65289">
        <ele>891.20001220703</ele>
        <time>2023-05-19T07:38:35.000Z</time>
      </trkpt>
      <trkpt lat="46.03915" lon="5.65285">
        <ele>891</ele>
        <time>2023-05-19T07:38:36.000Z</time>
      </trkpt>
      <trkpt lat="46.03911" lon="5.65281">
        <ele>890.20001220703</ele>
        <time>2023-05-19T07:38:37.000Z</time>
      </trkpt>
      <trkpt lat="46.03903" lon="5.65268">
        <ele>888.20001220703</ele>
        <time>2023-05-19T07:38:39.000Z</time>
      </trkpt>
      <trkpt lat="46.03892" lon="5.65242">
        <ele>887.59997558594</ele>
        <time>2023-05-19T07:38:44.000Z</time>
      </trkpt>
      <trkpt lat="46.03888" lon="5.65219">
        <ele>887.59997558594</ele>
        <time>2023-05-19T07:38:48.000Z</time>
      </trkpt>
      <trkpt lat="46.03886" lon="5.65207">
        <ele>887.79998779297</ele>
        <time>2023-05-19T07:38:50.000Z</time>
      </trkpt>
      <trkpt lat="46.03882" lon="5.65177">
        <ele>888.59997558594</ele>
        <time>2023-05-19T07:38:55.000Z</time>
      </trkpt>
      <trkpt lat="46.0388" lon="5.65157">
        <ele>889.40002441406</ele>
        <time>2023-05-19T07:38:59.000Z</time>
      </trkpt>
      <trkpt lat="46.03878" lon="5.65152">
        <ele>889.59997558594</ele>
        <time>2023-05-19T07:39:00.000Z</time>
      </trkpt>
      <trkpt lat="46.03863" lon="5.65121">
        <ele>890.40002441406</ele>
        <time>2023-05-19T07:39:07.000Z</time>
      </trkpt>
      <trkpt lat="46.03848" lon="5.651">
        <ele>891.20001220703</ele>
        <time>2023-05-19T07:39:13.000Z</time>
      </trkpt>
      <trkpt lat="46.03831" lon="5.65078">
        <ele>891.40002441406</ele>
        <time>2023-05-19T07:39:19.000Z</time>
      </trkpt>
      <trkpt lat="46.03827" lon="5.65072">
        <ele>891.59997558594</ele>
        <time>2023-05-19T07:39:21.000Z</time>
      </trkpt>
      <trkpt lat="46.03824" lon="5.65069">
        <ele>891.59997558594</ele>
        <time>2023-05-19T07:39:22.000Z</time>
      </trkpt>
      <trkpt lat="46.03804" lon="5.65053">
        <ele>892.20001220703</ele>
        <time>2023-05-19T07:39:29.000Z</time>
      </trkpt>
      <trkpt lat="46.03799" lon="5.65051">
        <ele>892.40002441406</ele>
        <time>2023-05-19T07:39:31.000Z</time>
      </trkpt>
      <trkpt lat="46.03788" lon="5.65047">
        <ele>892.79998779297</ele>
        <time>2023-05-19T07:39:35.000Z</time>
      </trkpt>
      <trkpt lat="46.03762" lon="5.6504">
        <ele>893.59997558594</ele>
        <time>2023-05-19T07:39:42.000Z</time>
      </trkpt>
      <trkpt lat="46.03741" lon="5.65043">
        <ele>893.79998779297</ele>
        <time>2023-05-19T07:39:49.000Z</time>
      </trkpt>
      <trkpt lat="46.03727" lon="5.65052">
        <ele>894</ele>
        <time>2023-05-19T07:39:54.000Z</time>
      </trkpt>
      <trkpt lat="46.03724" lon="5.65054">
        <ele>894</ele>
        <time>2023-05-19T07:39:55.000Z</time>
      </trkpt>
      <trkpt lat="46.03714" lon="5.65065">
        <ele>894.20001220703</ele>
        <time>2023-05-19T07:39:58.000Z</time>
      </trkpt>
      <trkpt lat="46.03707" lon="5.65076">
        <ele>894.59997558594</ele>
        <time>2023-05-19T07:40:01.000Z</time>
      </trkpt>
      <trkpt lat="46.03701" lon="5.65085">
        <ele>894.59997558594</ele>
        <time>2023-05-19T07:40:03.000Z</time>
      </trkpt>
      <trkpt lat="46.03677" lon="5.65102">
        <ele>895.20001220703</ele>
        <time>2023-05-19T07:40:09.000Z</time>
      </trkpt>
      <trkpt lat="46.03667" lon="5.65106">
        <ele>895.20001220703</ele>
        <time>2023-05-19T07:40:11.000Z</time>
      </trkpt>
      <trkpt lat="46.03655" lon="5.65104">
        <ele>895.40002441406</ele>
        <time>2023-05-19T07:40:14.000Z</time>
      </trkpt>
      <trkpt lat="46.03632" lon="5.6509">
        <ele>895.40002441406</ele>
        <time>2023-05-19T07:40:20.000Z</time>
      </trkpt>
      <trkpt lat="46.03605" lon="5.65068">
        <ele>894.79998779297</ele>
        <time>2023-05-19T07:40:28.000Z</time>
      </trkpt>
      <trkpt lat="46.0358" lon="5.65052">
        <ele>894</ele>
        <time>2023-05-19T07:40:35.000Z</time>
      </trkpt>
      <trkpt lat="46.03557" lon="5.65032">
        <ele>894.40002441406</ele>
        <time>2023-05-19T07:40:43.000Z</time>
      </trkpt>
      <trkpt lat="46.03548" lon="5.6501">
        <ele>896</ele>
        <time>2023-05-19T07:40:48.000Z</time>
      </trkpt>
      <trkpt lat="46.03548" lon="5.65005">
        <ele>896.20001220703</ele>
        <time>2023-05-19T07:40:49.000Z</time>
      </trkpt>
      <trkpt lat="46.03546" lon="5.6499">
        <ele>897</ele>
        <time>2023-05-19T07:40:52.000Z</time>
      </trkpt>
      <trkpt lat="46.03546" lon="5.64977">
        <ele>898</ele>
        <time>2023-05-19T07:40:55.000Z</time>
      </trkpt>
      <trkpt lat="46.03546" lon="5.64973">
        <ele>898.40002441406</ele>
        <time>2023-05-19T07:40:56.000Z</time>
      </trkpt>
      <trkpt lat="46.03546" lon="5.64965">
        <ele>899.20001220703</ele>
        <time>2023-05-19T07:40:58.000Z</time>
      </trkpt>
      <trkpt lat="46.03545" lon="5.64945">
        <ele>900.40002441406</ele>
        <time>2023-05-19T07:41:03.000Z</time>
      </trkpt>
      <trkpt lat="46.03545" lon="5.64937">
        <ele>900.79998779297</ele>
        <time>2023-05-19T07:41:05.000Z</time>
      </trkpt>
      <trkpt lat="46.03545" lon="5.64928">
        <ele>901.59997558594</ele>
        <time>2023-05-19T07:41:07.000Z</time>
      </trkpt>
      <trkpt lat="46.03544" lon="5.64904">
        <ele>902.79998779297</ele>
        <time>2023-05-19T07:41:13.000Z</time>
      </trkpt>
      <trkpt lat="46.03544" lon="5.64893">
        <ele>903.59997558594</ele>
        <time>2023-05-19T07:41:16.000Z</time>
      </trkpt>
      <trkpt lat="46.03543" lon="5.64886">
        <ele>904</ele>
        <time>2023-05-19T07:41:18.000Z</time>
      </trkpt>
      <trkpt lat="46.03542" lon="5.64866">
        <ele>904.79998779297</ele>
        <time>2023-05-19T07:41:24.000Z</time>
      </trkpt>
      <trkpt lat="46.03542" lon="5.64861">
        <ele>905.20001220703</ele>
        <time>2023-05-19T07:41:26.000Z</time>
      </trkpt>
      <trkpt lat="46.03536" lon="5.64834">
        <ele>906.20001220703</ele>
        <time>2023-05-19T07:41:34.000Z</time>
      </trkpt>
      <trkpt lat="46.03536" lon="5.64811">
        <ele>907.40002441406</ele>
        <time>2023-05-19T07:41:41.000Z</time>
      </trkpt>
      <trkpt lat="46.03536" lon="5.64804">
        <ele>907.79998779297</ele>
        <time>2023-05-19T07:41:44.000Z</time>
      </trkpt>
      <trkpt lat="46.03537" lon="5.64788">
        <ele>908.59997558594</ele>
        <time>2023-05-19T07:41:50.000Z</time>
      </trkpt>
      <trkpt lat="46.03536" lon="5.64779">
        <ele>909</ele>
        <time>2023-05-19T07:41:53.000Z</time>
      </trkpt>
      <trkpt lat="46.03536" lon="5.64769">
        <ele>909.79998779297</ele>
        <time>2023-05-19T07:41:56.000Z</time>
      </trkpt>
      <trkpt lat="46.03535" lon="5.64751">
        <ele>910.59997558594</ele>
        <time>2023-05-19T07:42:02.000Z</time>
      </trkpt>
      <trkpt lat="46.03535" lon="5.64748">
        <ele>910.79998779297</ele>
        <time>2023-05-19T07:42:03.000Z</time>
      </trkpt>
      <trkpt lat="46.03535" lon="5.6473">
        <ele>912</ele>
        <time>2023-05-19T07:42:08.000Z</time>
      </trkpt>
      <trkpt lat="46.03535" lon="5.64727">
        <ele>912</ele>
        <time>2023-05-19T07:42:09.000Z</time>
      </trkpt>
      <trkpt lat="46.03532" lon="5.64709">
        <ele>913.20001220703</ele>
        <time>2023-05-19T07:42:15.000Z</time>
      </trkpt>
      <trkpt lat="46.03529" lon="5.64686">
        <ele>914.20001220703</ele>
        <time>2023-05-19T07:42:22.000Z</time>
      </trkpt>
      <trkpt lat="46.03529" lon="5.64664">
        <ele>915.20001220703</ele>
        <time>2023-05-19T07:42:29.000Z</time>
      </trkpt>
      <trkpt lat="46.03529" lon="5.64654">
        <ele>915.79998779297</ele>
        <time>2023-05-19T07:42:32.000Z</time>
      </trkpt>
      <trkpt lat="46.0353" lon="5.64648">
        <ele>916.20001220703</ele>
        <time>2023-05-19T07:42:34.000Z</time>
      </trkpt>
      <trkpt lat="46.0353" lon="5.64635">
        <ele>917.20001220703</ele>
        <time>2023-05-19T07:42:38.000Z</time>
      </trkpt>
      <trkpt lat="46.0353" lon="5.64631">
        <ele>917.40002441406</ele>
        <time>2023-05-19T07:42:39.000Z</time>
      </trkpt>
      <trkpt lat="46.0353" lon="5.64615">
        <ele>918.40002441406</ele>
        <time>2023-05-19T07:42:44.000Z</time>
      </trkpt>
      <trkpt lat="46.03529" lon="5.64609">
        <ele>918.79998779297</ele>
        <time>2023-05-19T07:42:46.000Z</time>
      </trkpt>
      <trkpt lat="46.03529" lon="5.64599">
        <ele>919.40002441406</ele>
        <time>2023-05-19T07:42:49.000Z</time>
      </trkpt>
      <trkpt lat="46.03528" lon="5.64586">
        <ele>920.40002441406</ele>
        <time>2023-05-19T07:42:53.000Z</time>
      </trkpt>
      <trkpt lat="46.03527" lon="5.64582">
        <ele>920.59997558594</ele>
        <time>2023-05-19T07:42:54.000Z</time>
      </trkpt>
      <trkpt lat="46.03523" lon="5.64561">
        <ele>921.59997558594</ele>
        <time>2023-05-19T07:43:00.000Z</time>
      </trkpt>
      <trkpt lat="46.03521" lon="5.64555">
        <ele>921.79998779297</ele>
        <time>2023-05-19T07:43:02.000Z</time>
      </trkpt>
      <trkpt lat="46.03515" lon="5.64542">
        <ele>922.79998779297</ele>
        <time>2023-05-19T07:43:07.000Z</time>
      </trkpt>
      <trkpt lat="46.03509" lon="5.64536">
        <ele>923.20001220703</ele>
        <time>2023-05-19T07:43:10.000Z</time>
      </trkpt>
      <trkpt lat="46.035" lon="5.64529">
        <ele>924</ele>
        <time>2023-05-19T07:43:14.000Z</time>
      </trkpt>
      <trkpt lat="46.03494" lon="5.64527">
        <ele>924.20001220703</ele>
        <time>2023-05-19T07:43:16.000Z</time>
      </trkpt>
      <trkpt lat="46.03477" lon="5.64527">
        <ele>925.20001220703</ele>
        <time>2023-05-19T07:43:23.000Z</time>
      </trkpt>
      <trkpt lat="46.03475" lon="5.64528">
        <ele>925.20001220703</ele>
        <time>2023-05-19T07:43:24.000Z</time>
      </trkpt>
      <trkpt lat="46.03464" lon="5.64538">
        <ele>926</ele>
        <time>2023-05-19T07:43:30.000Z</time>
      </trkpt>
      <trkpt lat="46.03462" lon="5.6454">
        <ele>926.59997558594</ele>
        <time>2023-05-19T07:43:32.000Z</time>
      </trkpt>
      <trkpt lat="46.03455" lon="5.64543">
        <ele>927.20001220703</ele>
        <time>2023-05-19T07:43:36.000Z</time>
      </trkpt>
      <trkpt lat="46.0345" lon="5.64549">
        <ele>927.40002441406</ele>
        <time>2023-05-19T07:43:38.000Z</time>
      </trkpt>
      <trkpt lat="46.03438" lon="5.64557">
        <ele>928.20001220703</ele>
        <time>2023-05-19T07:43:44.000Z</time>
      </trkpt>
      <trkpt lat="46.03436" lon="5.6456">
        <ele>928.20001220703</ele>
        <time>2023-05-19T07:43:45.000Z</time>
      </trkpt>
      <trkpt lat="46.03423" lon="5.64565">
        <ele>929</ele>
        <time>2023-05-19T07:43:51.000Z</time>
      </trkpt>
      <trkpt lat="46.03419" lon="5.64569">
        <ele>929.40002441406</ele>
        <time>2023-05-19T07:43:53.000Z</time>
      </trkpt>
      <trkpt lat="46.03406" lon="5.64575">
        <ele>930.40002441406</ele>
        <time>2023-05-19T07:43:59.000Z</time>
      </trkpt>
      <trkpt lat="46.03398" lon="5.64579">
        <ele>930.79998779297</ele>
        <time>2023-05-19T07:44:03.000Z</time>
      </trkpt>
      <trkpt lat="46.03396" lon="5.64579">
        <ele>930.79998779297</ele>
        <time>2023-05-19T07:44:04.000Z</time>
      </trkpt>
      <trkpt lat="46.03388" lon="5.64584">
        <ele>931.59997558594</ele>
        <time>2023-05-19T07:44:08.000Z</time>
      </trkpt>
      <trkpt lat="46.03377" lon="5.64589">
        <ele>932.40002441406</ele>
        <time>2023-05-19T07:44:13.000Z</time>
      </trkpt>
      <trkpt lat="46.03375" lon="5.64591">
        <ele>932.59997558594</ele>
        <time>2023-05-19T07:44:14.000Z</time>
      </trkpt>
      <trkpt lat="46.03365" lon="5.64596">
        <ele>933.40002441406</ele>
        <time>2023-05-19T07:44:20.000Z</time>
      </trkpt>
      <trkpt lat="46.03358" lon="5.64598">
        <ele>933.59997558594</ele>
        <time>2023-05-19T07:44:23.000Z</time>
      </trkpt>
      <trkpt lat="46.03347" lon="5.64601">
        <ele>934.40002441406</ele>
        <time>2023-05-19T07:44:28.000Z</time>
      </trkpt>
      <trkpt lat="46.03343" lon="5.64601">
        <ele>934.79998779297</ele>
        <time>2023-05-19T07:44:30.000Z</time>
      </trkpt>
      <trkpt lat="46.03334" lon="5.646">
        <ele>935.79998779297</ele>
        <time>2023-05-19T07:44:34.000Z</time>
      </trkpt>
      <trkpt lat="46.03331" lon="5.646">
        <ele>936</ele>
        <time>2023-05-19T07:44:35.000Z</time>
      </trkpt>
      <trkpt lat="46.03324" lon="5.64598">
        <ele>936.79998779297</ele>
        <time>2023-05-19T07:44:39.000Z</time>
      </trkpt>
      <trkpt lat="46.03317" lon="5.64596">
        <ele>937.40002441406</ele>
        <time>2023-05-19T07:44:42.000Z</time>
      </trkpt>
      <trkpt lat="46.03311" lon="5.64595">
        <ele>938</ele>
        <time>2023-05-19T07:44:45.000Z</time>
      </trkpt>
      <trkpt lat="46.03304" lon="5.64593">
        <ele>939</ele>
        <time>2023-05-19T07:44:49.000Z</time>
      </trkpt>
      <trkpt lat="46.03301" lon="5.64593">
        <ele>939.20001220703</ele>
        <time>2023-05-19T07:44:51.000Z</time>
      </trkpt>
      <trkpt lat="46.0329" lon="5.64592">
        <ele>940</ele>
        <time>2023-05-19T07:44:56.000Z</time>
      </trkpt>
      <trkpt lat="46.03285" lon="5.64591">
        <ele>940.59997558594</ele>
        <time>2023-05-19T07:44:59.000Z</time>
      </trkpt>
      <trkpt lat="46.03277" lon="5.6459">
        <ele>941.20001220703</ele>
        <time>2023-05-19T07:45:03.000Z</time>
      </trkpt>
      <trkpt lat="46.03268" lon="5.64588">
        <ele>942.20001220703</ele>
        <time>2023-05-19T07:45:08.000Z</time>
      </trkpt>
      <trkpt lat="46.03257" lon="5.64585">
        <ele>943.20001220703</ele>
        <time>2023-05-19T07:45:14.000Z</time>
      </trkpt>
      <trkpt lat="46.03245" lon="5.64577">
        <ele>944.59997558594</ele>
        <time>2023-05-19T07:45:20.000Z</time>
      </trkpt>
      <trkpt lat="46.03235" lon="5.64568">
        <ele>945.79998779297</ele>
        <time>2023-05-19T07:45:26.000Z</time>
      </trkpt>
      <trkpt lat="46.03229" lon="5.64563">
        <ele>946.20001220703</ele>
        <time>2023-05-19T07:45:29.000Z</time>
      </trkpt>
      <trkpt lat="46.03222" lon="5.64554">
        <ele>947</ele>
        <time>2023-05-19T07:45:33.000Z</time>
      </trkpt>
      <trkpt lat="46.03213" lon="5.64544">
        <ele>948</ele>
        <time>2023-05-19T07:45:38.000Z</time>
      </trkpt>
      <trkpt lat="46.03211" lon="5.64542">
        <ele>948</ele>
        <time>2023-05-19T07:45:39.000Z</time>
      </trkpt>
      <trkpt lat="46.03199" lon="5.64531">
        <ele>949.20001220703</ele>
        <time>2023-05-19T07:45:45.000Z</time>
      </trkpt>
      <trkpt lat="46.03192" lon="5.64521">
        <ele>950.20001220703</ele>
        <time>2023-05-19T07:45:50.000Z</time>
      </trkpt>
      <trkpt lat="46.03179" lon="5.64506">
        <ele>951.20001220703</ele>
        <time>2023-05-19T07:45:58.000Z</time>
      </trkpt>
      <trkpt lat="46.03178" lon="5.64505">
        <ele>951.20001220703</ele>
        <time>2023-05-19T07:45:59.000Z</time>
      </trkpt>
      <trkpt lat="46.03171" lon="5.64499">
        <ele>952.40002441406</ele>
        <time>2023-05-19T07:46:03.000Z</time>
      </trkpt>
      <trkpt lat="46.03166" lon="5.64492">
        <ele>953.40002441406</ele>
        <time>2023-05-19T07:46:07.000Z</time>
      </trkpt>
      <trkpt lat="46.03157" lon="5.64486">
        <ele>954.59997558594</ele>
        <time>2023-05-19T07:46:12.000Z</time>
      </trkpt>
      <trkpt lat="46.03151" lon="5.64483">
        <ele>955.20001220703</ele>
        <time>2023-05-19T07:46:15.000Z</time>
      </trkpt>
      <trkpt lat="46.03146" lon="5.6448">
        <ele>955.59997558594</ele>
        <time>2023-05-19T07:46:18.000Z</time>
      </trkpt>
      <trkpt lat="46.03142" lon="5.64478">
        <ele>956</ele>
        <time>2023-05-19T07:46:20.000Z</time>
      </trkpt>
      <trkpt lat="46.03132" lon="5.64472">
        <ele>957</ele>
        <time>2023-05-19T07:46:25.000Z</time>
      </trkpt>
      <trkpt lat="46.03121" lon="5.64469">
        <ele>958</ele>
        <time>2023-05-19T07:46:30.000Z</time>
      </trkpt>
      <trkpt lat="46.03112" lon="5.64466">
        <ele>959</ele>
        <time>2023-05-19T07:46:35.000Z</time>
      </trkpt>
      <trkpt lat="46.03108" lon="5.64465">
        <ele>959.40002441406</ele>
        <time>2023-05-19T07:46:37.000Z</time>
      </trkpt>
      <trkpt lat="46.03097" lon="5.6446">
        <ele>960.20001220703</ele>
        <time>2023-05-19T07:46:42.000Z</time>
      </trkpt>
      <trkpt lat="46.03095" lon="5.64458">
        <ele>960.40002441406</ele>
        <time>2023-05-19T07:46:43.000Z</time>
      </trkpt>
      <trkpt lat="46.03084" lon="5.64452">
        <ele>961.20001220703</ele>
        <time>2023-05-19T07:46:48.000Z</time>
      </trkpt>
      <trkpt lat="46.03078" lon="5.6445">
        <ele>961.79998779297</ele>
        <time>2023-05-19T07:46:51.000Z</time>
      </trkpt>
      <trkpt lat="46.03069" lon="5.64445">
        <ele>962.40002441406</ele>
        <time>2023-05-19T07:46:55.000Z</time>
      </trkpt>
      <trkpt lat="46.03065" lon="5.64443">
        <ele>962.59997558594</ele>
        <time>2023-05-19T07:46:57.000Z</time>
      </trkpt>
      <trkpt lat="46.03057" lon="5.64437">
        <ele>963.40002441406</ele>
        <time>2023-05-19T07:47:02.000Z</time>
      </trkpt>
      <trkpt lat="46.03054" lon="5.64435">
        <ele>963.79998779297</ele>
        <time>2023-05-19T07:47:04.000Z</time>
      </trkpt>
      <trkpt lat="46.03046" lon="5.64427">
        <ele>964.59997558594</ele>
        <time>2023-05-19T07:47:09.000Z</time>
      </trkpt>
      <trkpt lat="46.03042" lon="5.64424">
        <ele>965</ele>
        <time>2023-05-19T07:47:11.000Z</time>
      </trkpt>
      <trkpt lat="46.03038" lon="5.64418">
        <ele>965.79998779297</ele>
        <time>2023-05-19T07:47:14.000Z</time>
      </trkpt>
      <trkpt lat="46.03035" lon="5.64407">
        <ele>966.40002441406</ele>
        <time>2023-05-19T07:47:18.000Z</time>
      </trkpt>
      <trkpt lat="46.03033" lon="5.6439">
        <ele>967</ele>
        <time>2023-05-19T07:47:24.000Z</time>
      </trkpt>
      <trkpt lat="46.03034" lon="5.64384">
        <ele>967.40002441406</ele>
        <time>2023-05-19T07:47:26.000Z</time>
      </trkpt>
      <trkpt lat="46.03036" lon="5.64376">
        <ele>968.20001220703</ele>
        <time>2023-05-19T07:47:29.000Z</time>
      </trkpt>
      <trkpt lat="46.03039" lon="5.64365">
        <ele>969.40002441406</ele>
        <time>2023-05-19T07:47:33.000Z</time>
      </trkpt>
      <trkpt lat="46.03044" lon="5.64356">
        <ele>970.40002441406</ele>
        <time>2023-05-19T07:47:37.000Z</time>
      </trkpt>
      <trkpt lat="46.03047" lon="5.64351">
        <ele>971</ele>
        <time>2023-05-19T07:47:39.000Z</time>
      </trkpt>
      <trkpt lat="46.03048" lon="5.64349">
        <ele>971.40002441406</ele>
        <time>2023-05-19T07:47:40.000Z</time>
      </trkpt>
      <trkpt lat="46.03057" lon="5.64342">
        <ele>972.59997558594</ele>
        <time>2023-05-19T07:47:45.000Z</time>
      </trkpt>
      <trkpt lat="46.03062" lon="5.64337">
        <ele>973</ele>
        <time>2023-05-19T07:47:48.000Z</time>
      </trkpt>
      <trkpt lat="46.03066" lon="5.64335">
        <ele>973.79998779297</ele>
        <time>2023-05-19T07:47:50.000Z</time>
      </trkpt>
      <trkpt lat="46.03073" lon="5.64332">
        <ele>975</ele>
        <time>2023-05-19T07:47:54.000Z</time>
      </trkpt>
      <trkpt lat="46.03081" lon="5.64329">
        <ele>976</ele>
        <time>2023-05-19T07:47:57.000Z</time>
      </trkpt>
      <trkpt lat="46.03083" lon="5.64328">
        <ele>976</ele>
        <time>2023-05-19T07:47:58.000Z</time>
      </trkpt>
      <trkpt lat="46.03094" lon="5.64322">
        <ele>977</ele>
        <time>2023-05-19T07:48:04.000Z</time>
      </trkpt>
      <trkpt lat="46.03096" lon="5.64321">
        <ele>977.20001220703</ele>
        <time>2023-05-19T07:48:05.000Z</time>
      </trkpt>
      <trkpt lat="46.03106" lon="5.64316">
        <ele>978.40002441406</ele>
        <time>2023-05-19T07:48:10.000Z</time>
      </trkpt>
      <trkpt lat="46.03114" lon="5.64309">
        <ele>979.40002441406</ele>
        <time>2023-05-19T07:48:15.000Z</time>
      </trkpt>
      <trkpt lat="46.03121" lon="5.64306">
        <ele>980.79998779297</ele>
        <time>2023-05-19T07:48:19.000Z</time>
      </trkpt>
      <trkpt lat="46.03127" lon="5.64302">
        <ele>981.40002441406</ele>
        <time>2023-05-19T07:48:22.000Z</time>
      </trkpt>
      <trkpt lat="46.03134" lon="5.64297">
        <ele>981.59997558594</ele>
        <time>2023-05-19T07:48:26.000Z</time>
      </trkpt>
      <trkpt lat="46.03139" lon="5.64295">
        <ele>981.79998779297</ele>
        <time>2023-05-19T07:48:29.000Z</time>
      </trkpt>
      <trkpt lat="46.03146" lon="5.6429">
        <ele>982.79998779297</ele>
        <time>2023-05-19T07:48:33.000Z</time>
      </trkpt>
      <trkpt lat="46.03148" lon="5.64289">
        <ele>983</ele>
        <time>2023-05-19T07:48:34.000Z</time>
      </trkpt>
      <trkpt lat="46.03159" lon="5.64282">
        <ele>984.20001220703</ele>
        <time>2023-05-19T07:48:40.000Z</time>
      </trkpt>
      <trkpt lat="46.03163" lon="5.6428">
        <ele>984.40002441406</ele>
        <time>2023-05-19T07:48:42.000Z</time>
      </trkpt>
      <trkpt lat="46.03171" lon="5.64278">
        <ele>985.40002441406</ele>
        <time>2023-05-19T07:48:46.000Z</time>
      </trkpt>
      <trkpt lat="46.03176" lon="5.64273">
        <ele>986</ele>
        <time>2023-05-19T07:48:49.000Z</time>
      </trkpt>
      <trkpt lat="46.0318" lon="5.64271">
        <ele>986.40002441406</ele>
        <time>2023-05-19T07:48:51.000Z</time>
      </trkpt>
      <trkpt lat="46.0319" lon="5.64266">
        <ele>987.59997558594</ele>
        <time>2023-05-19T07:48:57.000Z</time>
      </trkpt>
      <trkpt lat="46.03199" lon="5.64258">
        <ele>988.79998779297</ele>
        <time>2023-05-19T07:49:02.000Z</time>
      </trkpt>
      <trkpt lat="46.03206" lon="5.64252">
        <ele>989.79998779297</ele>
        <time>2023-05-19T07:49:06.000Z</time>
      </trkpt>
      <trkpt lat="46.03208" lon="5.64251">
        <ele>990</ele>
        <time>2023-05-19T07:49:07.000Z</time>
      </trkpt>
      <trkpt lat="46.03216" lon="5.64241">
        <ele>991.40002441406</ele>
        <time>2023-05-19T07:49:12.000Z</time>
      </trkpt>
      <trkpt lat="46.03221" lon="5.64235">
        <ele>992</ele>
        <time>2023-05-19T07:49:15.000Z</time>
      </trkpt>
      <trkpt lat="46.03225" lon="5.64232">
        <ele>992.59997558594</ele>
        <time>2023-05-19T07:49:17.000Z</time>
      </trkpt>
      <trkpt lat="46.03233" lon="5.64218">
        <ele>993.79998779297</ele>
        <time>2023-05-19T07:49:23.000Z</time>
      </trkpt>
      <trkpt lat="46.03235" lon="5.64216">
        <ele>993.79998779297</ele>
        <time>2023-05-19T07:49:24.000Z</time>
      </trkpt>
      <trkpt lat="46.03242" lon="5.64203">
        <ele>994.79998779297</ele>
        <time>2023-05-19T07:49:29.000Z</time>
      </trkpt>
      <trkpt lat="46.03247" lon="5.64192">
        <ele>995.40002441406</ele>
        <time>2023-05-19T07:49:34.000Z</time>
      </trkpt>
      <trkpt lat="46.03251" lon="5.64182">
        <ele>995.79998779297</ele>
        <time>2023-05-19T07:49:38.000Z</time>
      </trkpt>
      <trkpt lat="46.03253" lon="5.64176">
        <ele>996.20001220703</ele>
        <time>2023-05-19T07:49:40.000Z</time>
      </trkpt>
      <trkpt lat="46.03254" lon="5.64174">
        <ele>996.40002441406</ele>
        <time>2023-05-19T07:49:41.000Z</time>
      </trkpt>
      <trkpt lat="46.03257" lon="5.64169">
        <ele>997</ele>
        <time>2023-05-19T07:49:43.000Z</time>
      </trkpt>
      <trkpt lat="46.03263" lon="5.64157">
        <ele>997.79998779297</ele>
        <time>2023-05-19T07:49:48.000Z</time>
      </trkpt>
      <trkpt lat="46.03265" lon="5.64152">
        <ele>998.20001220703</ele>
        <time>2023-05-19T07:49:50.000Z</time>
      </trkpt>
      <trkpt lat="46.03271" lon="5.64139">
        <ele>999.40002441406</ele>
        <time>2023-05-19T07:49:55.000Z</time>
      </trkpt>
      <trkpt lat="46.03273" lon="5.64134">
        <ele>999.79998779297</ele>
        <time>2023-05-19T07:49:57.000Z</time>
      </trkpt>
      <trkpt lat="46.03276" lon="5.64127">
        <ele>1000.5999755859</ele>
        <time>2023-05-19T07:50:00.000Z</time>
      </trkpt>
      <trkpt lat="46.03279" lon="5.64117">
        <ele>1001.4000244141</ele>
        <time>2023-05-19T07:50:04.000Z</time>
      </trkpt>
      <trkpt lat="46.03281" lon="5.64111">
        <ele>1001.799987793</ele>
        <time>2023-05-19T07:50:06.000Z</time>
      </trkpt>
      <trkpt lat="46.03283" lon="5.64094">
        <ele>1002.5999755859</ele>
        <time>2023-05-19T07:50:12.000Z</time>
      </trkpt>
      <trkpt lat="46.03284" lon="5.64077">
        <ele>1003.799987793</ele>
        <time>2023-05-19T07:50:18.000Z</time>
      </trkpt>
      <trkpt lat="46.03284" lon="5.64074">
        <ele>1003.799987793</ele>
        <time>2023-05-19T07:50:19.000Z</time>
      </trkpt>
      <trkpt lat="46.03284" lon="5.64061">
        <ele>1004.799987793</ele>
        <time>2023-05-19T07:50:24.000Z</time>
      </trkpt>
      <trkpt lat="46.03284" lon="5.6405">
        <ele>1005.200012207</ele>
        <time>2023-05-19T07:50:28.000Z</time>
      </trkpt>
      <trkpt lat="46.03283" lon="5.64034">
        <ele>1005.799987793</ele>
        <time>2023-05-19T07:50:33.000Z</time>
      </trkpt>
      <trkpt lat="46.03283" lon="5.64021">
        <ele>1006.4000244141</ele>
        <time>2023-05-19T07:50:37.000Z</time>
      </trkpt>
      <trkpt lat="46.03282" lon="5.64012">
        <ele>1007</ele>
        <time>2023-05-19T07:50:40.000Z</time>
      </trkpt>
      <trkpt lat="46.03281" lon="5.63992">
        <ele>1008</ele>
        <time>2023-05-19T07:50:46.000Z</time>
      </trkpt>
      <trkpt lat="46.0328" lon="5.63972">
        <ele>1009</ele>
        <time>2023-05-19T07:50:52.000Z</time>
      </trkpt>
      <trkpt lat="46.03282" lon="5.63959">
        <ele>1010.200012207</ele>
        <time>2023-05-19T07:50:57.000Z</time>
      </trkpt>
      <trkpt lat="46.03282" lon="5.63952">
        <ele>1010.4000244141</ele>
        <time>2023-05-19T07:50:59.000Z</time>
      </trkpt>
      <trkpt lat="46.03283" lon="5.63939">
        <ele>1011.200012207</ele>
        <time>2023-05-19T07:51:03.000Z</time>
      </trkpt>
      <trkpt lat="46.03282" lon="5.63926">
        <ele>1011.799987793</ele>
        <time>2023-05-19T07:51:07.000Z</time>
      </trkpt>
      <trkpt lat="46.03277" lon="5.63916">
        <ele>1012.4000244141</ele>
        <time>2023-05-19T07:51:11.000Z</time>
      </trkpt>
      <trkpt lat="46.03276" lon="5.63914">
        <ele>1012.799987793</ele>
        <time>2023-05-19T07:51:12.000Z</time>
      </trkpt>
      <trkpt lat="46.03275" lon="5.63905">
        <ele>1013.5999755859</ele>
        <time>2023-05-19T07:51:15.000Z</time>
      </trkpt>
      <trkpt lat="46.03272" lon="5.63889">
        <ele>1014.5999755859</ele>
        <time>2023-05-19T07:51:20.000Z</time>
      </trkpt>
      <trkpt lat="46.0327" lon="5.63869">
        <ele>1015.799987793</ele>
        <time>2023-05-19T07:51:26.000Z</time>
      </trkpt>
      <trkpt lat="46.0327" lon="5.63866">
        <ele>1016</ele>
        <time>2023-05-19T07:51:27.000Z</time>
      </trkpt>
      <trkpt lat="46.03272" lon="5.63848">
        <ele>1017</ele>
        <time>2023-05-19T07:51:33.000Z</time>
      </trkpt>
      <trkpt lat="46.03273" lon="5.63836">
        <ele>1017.200012207</ele>
        <time>2023-05-19T07:51:36.000Z</time>
      </trkpt>
      <trkpt lat="46.03273" lon="5.63823">
        <ele>1018</ele>
        <time>2023-05-19T07:51:40.000Z</time>
      </trkpt>
      <trkpt lat="46.03273" lon="5.63812">
        <ele>1018.200012207</ele>
        <time>2023-05-19T07:51:43.000Z</time>
      </trkpt>
      <trkpt lat="46.03272" lon="5.63801">
        <ele>1018.200012207</ele>
        <time>2023-05-19T07:51:46.000Z</time>
      </trkpt>
      <trkpt lat="46.0327" lon="5.63795">
        <ele>1018.4000244141</ele>
        <time>2023-05-19T07:51:48.000Z</time>
      </trkpt>
      <trkpt lat="46.03269" lon="5.63788">
        <ele>1018.5999755859</ele>
        <time>2023-05-19T07:51:50.000Z</time>
      </trkpt>
      <trkpt lat="46.03269" lon="5.63781">
        <ele>1018.799987793</ele>
        <time>2023-05-19T07:51:52.000Z</time>
      </trkpt>
      <trkpt lat="46.03269" lon="5.63772">
        <ele>1019</ele>
        <time>2023-05-19T07:51:54.000Z</time>
      </trkpt>
      <trkpt lat="46.03267" lon="5.63753">
        <ele>1019.200012207</ele>
        <time>2023-05-19T07:51:58.000Z</time>
      </trkpt>
      <trkpt lat="46.03267" lon="5.63744">
        <ele>1019.200012207</ele>
        <time>2023-05-19T07:52:01.000Z</time>
      </trkpt>
      <trkpt lat="46.03269" lon="5.63738">
        <ele>1019.4000244141</ele>
        <time>2023-05-19T07:52:03.000Z</time>
      </trkpt>
      <trkpt lat="46.03268" lon="5.63714">
        <ele>1019.4000244141</ele>
        <time>2023-05-19T07:52:09.000Z</time>
      </trkpt>
      <trkpt lat="46.03271" lon="5.637">
        <ele>1019.799987793</ele>
        <time>2023-05-19T07:52:13.000Z</time>
      </trkpt>
      <trkpt lat="46.03269" lon="5.63691">
        <ele>1019.799987793</ele>
        <time>2023-05-19T07:52:15.000Z</time>
      </trkpt>
      <trkpt lat="46.03269" lon="5.63688">
        <ele>1019.799987793</ele>
        <time>2023-05-19T07:52:16.000Z</time>
      </trkpt>
      <trkpt lat="46.03265" lon="5.63673">
        <ele>1020.200012207</ele>
        <time>2023-05-19T07:52:20.000Z</time>
      </trkpt>
      <trkpt lat="46.03264" lon="5.63669">
        <ele>1020.200012207</ele>
        <time>2023-05-19T07:52:21.000Z</time>
      </trkpt>
      <trkpt lat="46.03266" lon="5.63659">
        <ele>1020.200012207</ele>
        <time>2023-05-19T07:52:24.000Z</time>
      </trkpt>
      <trkpt lat="46.03266" lon="5.63652">
        <ele>1020.5999755859</ele>
        <time>2023-05-19T07:52:26.000Z</time>
      </trkpt>
      <trkpt lat="46.03265" lon="5.63633">
        <ele>1020.799987793</ele>
        <time>2023-05-19T07:52:31.000Z</time>
      </trkpt>
      <trkpt lat="46.03259" lon="5.63604">
        <ele>1021.799987793</ele>
        <time>2023-05-19T07:52:38.000Z</time>
      </trkpt>
      <trkpt lat="46.03258" lon="5.63601">
        <ele>1022</ele>
        <time>2023-05-19T07:52:39.000Z</time>
      </trkpt>
      <trkpt lat="46.03256" lon="5.63584">
        <ele>1022.5999755859</ele>
        <time>2023-05-19T07:52:44.000Z</time>
      </trkpt>
      <trkpt lat="46.03255" lon="5.6358">
        <ele>1022.799987793</ele>
        <time>2023-05-19T07:52:46.000Z</time>
      </trkpt>
      <trkpt lat="46.03254" lon="5.63572">
        <ele>1023</ele>
        <time>2023-05-19T07:52:48.000Z</time>
      </trkpt>
      <trkpt lat="46.03252" lon="5.63569">
        <ele>1023.200012207</ele>
        <time>2023-05-19T07:52:49.000Z</time>
      </trkpt>
      <trkpt lat="46.03251" lon="5.63566">
        <ele>1023.4000244141</ele>
        <time>2023-05-19T07:52:50.000Z</time>
      </trkpt>
      <trkpt lat="46.03248" lon="5.6356">
        <ele>1023.4000244141</ele>
        <time>2023-05-19T07:52:52.000Z</time>
      </trkpt>
      <trkpt lat="46.03246" lon="5.63557">
        <ele>1023.5999755859</ele>
        <time>2023-05-19T07:52:53.000Z</time>
      </trkpt>
      <trkpt lat="46.03241" lon="5.63551">
        <ele>1024</ele>
        <time>2023-05-19T07:52:55.000Z</time>
      </trkpt>
      <trkpt lat="46.03232" lon="5.63536">
        <ele>1025</ele>
        <time>2023-05-19T07:53:00.000Z</time>
      </trkpt>
      <trkpt lat="46.03232" lon="5.63533">
        <ele>1025.1999511719</ele>
        <time>2023-05-19T07:53:01.000Z</time>
      </trkpt>
      <trkpt lat="46.03223" lon="5.6352">
        <ele>1026.4000244141</ele>
        <time>2023-05-19T07:53:06.000Z</time>
      </trkpt>
      <trkpt lat="46.03221" lon="5.63517">
        <ele>1026.5999755859</ele>
        <time>2023-05-19T07:53:07.000Z</time>
      </trkpt>
      <trkpt lat="46.03212" lon="5.63503">
        <ele>1027.4000244141</ele>
        <time>2023-05-19T07:53:12.000Z</time>
      </trkpt>
      <trkpt lat="46.0321" lon="5.635">
        <ele>1027.5999755859</ele>
        <time>2023-05-19T07:53:13.000Z</time>
      </trkpt>
      <trkpt lat="46.03204" lon="5.63492">
        <ele>1028.5999755859</ele>
        <time>2023-05-19T07:53:16.000Z</time>
      </trkpt>
      <trkpt lat="46.03202" lon="5.6349">
        <ele>1028.5999755859</ele>
        <time>2023-05-19T07:53:17.000Z</time>
      </trkpt>
      <trkpt lat="46.03198" lon="5.63486">
        <ele>1029</ele>
        <time>2023-05-19T07:53:19.000Z</time>
      </trkpt>
      <trkpt lat="46.03183" lon="5.63471">
        <ele>1029.5999755859</ele>
        <time>2023-05-19T07:53:23.000Z</time>
      </trkpt>
      <trkpt lat="46.03179" lon="5.63469">
        <ele>1030.1999511719</ele>
        <time>2023-05-19T07:53:26.000Z</time>
      </trkpt>
      <trkpt lat="46.03173" lon="5.63463">
        <ele>1030.8000488281</ele>
        <time>2023-05-19T07:53:29.000Z</time>
      </trkpt>
      <trkpt lat="46.03162" lon="5.63456">
        <ele>1031.1999511719</ele>
        <time>2023-05-19T07:53:33.000Z</time>
      </trkpt>
      <trkpt lat="46.03149" lon="5.63448">
        <ele>1031.5999755859</ele>
        <time>2023-05-19T07:53:38.000Z</time>
      </trkpt>
      <trkpt lat="46.03147" lon="5.63447">
        <ele>1031.8000488281</ele>
        <time>2023-05-19T07:53:39.000Z</time>
      </trkpt>
      <trkpt lat="46.03142" lon="5.6345">
        <ele>1032.5999755859</ele>
        <time>2023-05-19T07:53:44.000Z</time>
      </trkpt>
      <trkpt lat="46.03138" lon="5.63449">
        <ele>1032.8000488281</ele>
        <time>2023-05-19T07:53:46.000Z</time>
      </trkpt>
      <trkpt lat="46.03131" lon="5.63448">
        <ele>1033.1999511719</ele>
        <time>2023-05-19T07:53:49.000Z</time>
      </trkpt>
      <trkpt lat="46.03117" lon="5.63443">
        <ele>1034</ele>
        <time>2023-05-19T07:53:56.000Z</time>
      </trkpt>
      <trkpt lat="46.03098" lon="5.63435">
        <ele>1034.8000488281</ele>
        <time>2023-05-19T07:54:04.000Z</time>
      </trkpt>
      <trkpt lat="46.03093" lon="5.63433">
        <ele>1035</ele>
        <time>2023-05-19T07:54:07.000Z</time>
      </trkpt>
      <trkpt lat="46.03084" lon="5.6343">
        <ele>1035</ele>
        <time>2023-05-19T07:54:10.000Z</time>
      </trkpt>
      <trkpt lat="46.03069" lon="5.63425">
        <ele>1035.5999755859</ele>
        <time>2023-05-19T07:54:15.000Z</time>
      </trkpt>
      <trkpt lat="46.0305" lon="5.63415">
        <ele>1036</ele>
        <time>2023-05-19T07:54:22.000Z</time>
      </trkpt>
      <trkpt lat="46.0303" lon="5.63411">
        <ele>1036.5999755859</ele>
        <time>2023-05-19T07:54:29.000Z</time>
      </trkpt>
      <trkpt lat="46.03014" lon="5.63401">
        <ele>1036.8000488281</ele>
        <time>2023-05-19T07:54:35.000Z</time>
      </trkpt>
      <trkpt lat="46.03011" lon="5.63399">
        <ele>1036.8000488281</ele>
        <time>2023-05-19T07:54:36.000Z</time>
      </trkpt>
      <trkpt lat="46.02992" lon="5.63384">
        <ele>1037.5999755859</ele>
        <time>2023-05-19T07:54:44.000Z</time>
      </trkpt>
      <trkpt lat="46.02988" lon="5.63377">
        <ele>1037.8000488281</ele>
        <time>2023-05-19T07:54:46.000Z</time>
      </trkpt>
      <trkpt lat="46.02976" lon="5.63361">
        <ele>1038.8000488281</ele>
        <time>2023-05-19T07:54:52.000Z</time>
      </trkpt>
      <trkpt lat="46.02975" lon="5.63358">
        <ele>1038.8000488281</ele>
        <time>2023-05-19T07:54:53.000Z</time>
      </trkpt>
      <trkpt lat="46.02972" lon="5.63346">
        <ele>1039.4000244141</ele>
        <time>2023-05-19T07:54:57.000Z</time>
      </trkpt>
      <trkpt lat="46.0297" lon="5.6334">
        <ele>1040.1999511719</ele>
        <time>2023-05-19T07:54:59.000Z</time>
      </trkpt>
      <trkpt lat="46.02969" lon="5.63332">
        <ele>1041.1999511719</ele>
        <time>2023-05-19T07:55:02.000Z</time>
      </trkpt>
      <trkpt lat="46.02968" lon="5.63328">
        <ele>1041.5999755859</ele>
        <time>2023-05-19T07:55:03.000Z</time>
      </trkpt>
      <trkpt lat="46.02968" lon="5.63304">
        <ele>1042.4000244141</ele>
        <time>2023-05-19T07:55:09.000Z</time>
      </trkpt>
      <trkpt lat="46.02969" lon="5.63301">
        <ele>1042.5999755859</ele>
        <time>2023-05-19T07:55:10.000Z</time>
      </trkpt>
      <trkpt lat="46.02968" lon="5.63297">
        <ele>1042.5999755859</ele>
        <time>2023-05-19T07:55:11.000Z</time>
      </trkpt>
      <trkpt lat="46.02968" lon="5.63278">
        <ele>1043.5999755859</ele>
        <time>2023-05-19T07:55:16.000Z</time>
      </trkpt>
      <trkpt lat="46.02959" lon="5.63257">
        <ele>1044.5999755859</ele>
        <time>2023-05-19T07:55:21.000Z</time>
      </trkpt>
      <trkpt lat="46.02956" lon="5.63243">
        <ele>1045.4000244141</ele>
        <time>2023-05-19T07:55:24.000Z</time>
      </trkpt>
      <trkpt lat="46.02955" lon="5.63239">
        <ele>1045.5999755859</ele>
        <time>2023-05-19T07:55:25.000Z</time>
      </trkpt>
      <trkpt lat="46.02953" lon="5.63218">
        <ele>1046.8000488281</ele>
        <time>2023-05-19T07:55:30.000Z</time>
      </trkpt>
      <trkpt lat="46.02953" lon="5.63214">
        <ele>1047</ele>
        <time>2023-05-19T07:55:31.000Z</time>
      </trkpt>
      <trkpt lat="46.02952" lon="5.63199">
        <ele>1048</ele>
        <time>2023-05-19T07:55:35.000Z</time>
      </trkpt>
      <trkpt lat="46.0295" lon="5.63187">
        <ele>1048.1999511719</ele>
        <time>2023-05-19T07:55:38.000Z</time>
      </trkpt>
      <trkpt lat="46.0295" lon="5.63175">
        <ele>1049.1999511719</ele>
        <time>2023-05-19T07:55:41.000Z</time>
      </trkpt>
      <trkpt lat="46.02951" lon="5.63168">
        <ele>1049.4000244141</ele>
        <time>2023-05-19T07:55:43.000Z</time>
      </trkpt>
      <trkpt lat="46.02951" lon="5.63157">
        <ele>1050.1999511719</ele>
        <time>2023-05-19T07:55:46.000Z</time>
      </trkpt>
      <trkpt lat="46.02951" lon="5.63149">
        <ele>1050.5999755859</ele>
        <time>2023-05-19T07:55:48.000Z</time>
      </trkpt>
      <trkpt lat="46.02951" lon="5.63138">
        <ele>1051.1999511719</ele>
        <time>2023-05-19T07:55:51.000Z</time>
      </trkpt>
      <trkpt lat="46.02951" lon="5.63122">
        <ele>1052.4000244141</ele>
        <time>2023-05-19T07:55:55.000Z</time>
      </trkpt>
      <trkpt lat="46.02951" lon="5.63114">
        <ele>1052.8000488281</ele>
        <time>2023-05-19T07:55:57.000Z</time>
      </trkpt>
      <trkpt lat="46.02952" lon="5.63101">
        <ele>1053.4000244141</ele>
        <time>2023-05-19T07:56:00.000Z</time>
      </trkpt>
      <trkpt lat="46.02953" lon="5.63081">
        <ele>1054.4000244141</ele>
        <time>2023-05-19T07:56:05.000Z</time>
      </trkpt>
      <trkpt lat="46.02953" lon="5.63076">
        <ele>1054.5999755859</ele>
        <time>2023-05-19T07:56:06.000Z</time>
      </trkpt>
      <trkpt lat="46.02951" lon="5.63042">
        <ele>1055.4000244141</ele>
        <time>2023-05-19T07:56:13.000Z</time>
      </trkpt>
      <trkpt lat="46.0295" lon="5.63038">
        <ele>1055.5999755859</ele>
        <time>2023-05-19T07:56:14.000Z</time>
      </trkpt>
      <trkpt lat="46.02949" lon="5.6301">
        <ele>1055.8000488281</ele>
        <time>2023-05-19T07:56:21.000Z</time>
      </trkpt>
      <trkpt lat="46.0295" lon="5.62977">
        <ele>1055.5999755859</ele>
        <time>2023-05-19T07:56:29.000Z</time>
      </trkpt>
      <trkpt lat="46.02953" lon="5.62931">
        <ele>1055.4000244141</ele>
        <time>2023-05-19T07:56:38.000Z</time>
      </trkpt>
      <trkpt lat="46.02956" lon="5.62903">
        <ele>1055.4000244141</ele>
        <time>2023-05-19T07:56:43.000Z</time>
      </trkpt>
      <trkpt lat="46.02956" lon="5.62891">
        <ele>1055.4000244141</ele>
        <time>2023-05-19T07:56:45.000Z</time>
      </trkpt>
      <trkpt lat="46.02959" lon="5.62868">
        <ele>1055</ele>
        <time>2023-05-19T07:56:49.000Z</time>
      </trkpt>
      <trkpt lat="46.02963" lon="5.62845">
        <ele>1054.8000488281</ele>
        <time>2023-05-19T07:56:53.000Z</time>
      </trkpt>
      <trkpt lat="46.02965" lon="5.62822">
        <ele>1054.4000244141</ele>
        <time>2023-05-19T07:56:57.000Z</time>
      </trkpt>
      <trkpt lat="46.02968" lon="5.62797">
        <ele>1054</ele>
        <time>2023-05-19T07:57:01.000Z</time>
      </trkpt>
      <trkpt lat="46.02979" lon="5.6276">
        <ele>1053.5999755859</ele>
        <time>2023-05-19T07:57:09.000Z</time>
      </trkpt>
      <trkpt lat="46.02988" lon="5.62744">
        <ele>1053.5999755859</ele>
        <time>2023-05-19T07:57:13.000Z</time>
      </trkpt>
      <trkpt lat="46.03006" lon="5.62719">
        <ele>1053.1999511719</ele>
        <time>2023-05-19T07:57:19.000Z</time>
      </trkpt>
      <trkpt lat="46.03032" lon="5.62681">
        <ele>1053.5999755859</ele>
        <time>2023-05-19T07:57:27.000Z</time>
      </trkpt>
      <trkpt lat="46.03039" lon="5.62671">
        <ele>1053.5999755859</ele>
        <time>2023-05-19T07:57:29.000Z</time>
      </trkpt>
      <trkpt lat="46.03059" lon="5.62642">
        <ele>1053.4000244141</ele>
        <time>2023-05-19T07:57:36.000Z</time>
      </trkpt>
      <trkpt lat="46.03083" lon="5.62614">
        <ele>1053.5999755859</ele>
        <time>2023-05-19T07:57:44.000Z</time>
      </trkpt>
      <trkpt lat="46.03109" lon="5.62592">
        <ele>1054.4000244141</ele>
        <time>2023-05-19T07:57:53.000Z</time>
      </trkpt>
      <trkpt lat="46.03121" lon="5.62577">
        <ele>1055.4000244141</ele>
        <time>2023-05-19T07:57:58.000Z</time>
      </trkpt>
      <trkpt lat="46.03126" lon="5.6257">
        <ele>1056</ele>
        <time>2023-05-19T07:58:00.000Z</time>
      </trkpt>
      <trkpt lat="46.03133" lon="5.62559">
        <ele>1056.4000244141</ele>
        <time>2023-05-19T07:58:03.000Z</time>
      </trkpt>
      <trkpt lat="46.03139" lon="5.62545">
        <ele>1057.4000244141</ele>
        <time>2023-05-19T07:58:07.000Z</time>
      </trkpt>
      <trkpt lat="46.03142" lon="5.62537">
        <ele>1057.5999755859</ele>
        <time>2023-05-19T07:58:09.000Z</time>
      </trkpt>
      <trkpt lat="46.03148" lon="5.62524">
        <ele>1058.4000244141</ele>
        <time>2023-05-19T07:58:13.000Z</time>
      </trkpt>
      <trkpt lat="46.03151" lon="5.62519">
        <ele>1058.5999755859</ele>
        <time>2023-05-19T07:58:15.000Z</time>
      </trkpt>
      <trkpt lat="46.03154" lon="5.62513">
        <ele>1059.1999511719</ele>
        <time>2023-05-19T07:58:17.000Z</time>
      </trkpt>
      <trkpt lat="46.03157" lon="5.62504">
        <ele>1059.5999755859</ele>
        <time>2023-05-19T07:58:20.000Z</time>
      </trkpt>
      <trkpt lat="46.03162" lon="5.62491">
        <ele>1060.1999511719</ele>
        <time>2023-05-19T07:58:24.000Z</time>
      </trkpt>
      <trkpt lat="46.03165" lon="5.62477">
        <ele>1060.8000488281</ele>
        <time>2023-05-19T07:58:28.000Z</time>
      </trkpt>
      <trkpt lat="46.03165" lon="5.62471">
        <ele>1061</ele>
        <time>2023-05-19T07:58:30.000Z</time>
      </trkpt>
      <trkpt lat="46.03162" lon="5.62453">
        <ele>1062</ele>
        <time>2023-05-19T07:58:36.000Z</time>
      </trkpt>
      <trkpt lat="46.03161" lon="5.62446">
        <ele>1062.1999511719</ele>
        <time>2023-05-19T07:58:38.000Z</time>
      </trkpt>
      <trkpt lat="46.03161" lon="5.62438">
        <ele>1062.5999755859</ele>
        <time>2023-05-19T07:58:40.000Z</time>
      </trkpt>
      <trkpt lat="46.03163" lon="5.62426">
        <ele>1063</ele>
        <time>2023-05-19T07:58:43.000Z</time>
      </trkpt>
      <trkpt lat="46.03166" lon="5.62415">
        <ele>1063.5999755859</ele>
        <time>2023-05-19T07:58:46.000Z</time>
      </trkpt>
      <trkpt lat="46.03175" lon="5.62397">
        <ele>1064.1999511719</ele>
        <time>2023-05-19T07:58:51.000Z</time>
      </trkpt>
      <trkpt lat="46.0318" lon="5.62392">
        <ele>1064.5999755859</ele>
        <time>2023-05-19T07:58:53.000Z</time>
      </trkpt>
      <trkpt lat="46.0319" lon="5.62372">
        <ele>1065.1999511719</ele>
        <time>2023-05-19T07:58:58.000Z</time>
      </trkpt>
      <trkpt lat="46.03204" lon="5.62355">
        <ele>1066.1999511719</ele>
        <time>2023-05-19T07:59:04.000Z</time>
      </trkpt>
      <trkpt lat="46.03204" lon="5.6235">
        <ele>1066.1999511719</ele>
        <time>2023-05-19T07:59:05.000Z</time>
      </trkpt>
      <trkpt lat="46.03214" lon="5.6233">
        <ele>1067.1999511719</ele>
        <time>2023-05-19T07:59:12.000Z</time>
      </trkpt>
      <trkpt lat="46.03216" lon="5.62327">
        <ele>1067.4000244141</ele>
        <time>2023-05-19T07:59:13.000Z</time>
      </trkpt>
      <trkpt lat="46.03225" lon="5.62303">
        <ele>1068.1999511719</ele>
        <time>2023-05-19T07:59:20.000Z</time>
      </trkpt>
      <trkpt lat="46.03226" lon="5.623">
        <ele>1068.1999511719</ele>
        <time>2023-05-19T07:59:21.000Z</time>
      </trkpt>
      <trkpt lat="46.03228" lon="5.62284">
        <ele>1068.8000488281</ele>
        <time>2023-05-19T07:59:26.000Z</time>
      </trkpt>
      <trkpt lat="46.03226" lon="5.62274">
        <ele>1069.1999511719</ele>
        <time>2023-05-19T07:59:29.000Z</time>
      </trkpt>
      <trkpt lat="46.03226" lon="5.62263">
        <ele>1069.5999755859</ele>
        <time>2023-05-19T07:59:32.000Z</time>
      </trkpt>
      <trkpt lat="46.03226" lon="5.62247">
        <ele>1070</ele>
        <time>2023-05-19T07:59:37.000Z</time>
      </trkpt>
      <trkpt lat="46.03229" lon="5.62231">
        <ele>1070.1999511719</ele>
        <time>2023-05-19T07:59:41.000Z</time>
      </trkpt>
      <trkpt lat="46.03227" lon="5.62224">
        <ele>1070.5999755859</ele>
        <time>2023-05-19T07:59:43.000Z</time>
      </trkpt>
      <trkpt lat="46.03215" lon="5.62203">
        <ele>1071.4000244141</ele>
        <time>2023-05-19T07:59:49.000Z</time>
      </trkpt>
      <trkpt lat="46.03211" lon="5.62197">
        <ele>1071.5999755859</ele>
        <time>2023-05-19T07:59:51.000Z</time>
      </trkpt>
      <trkpt lat="46.03199" lon="5.62182">
        <ele>1072.1999511719</ele>
        <time>2023-05-19T07:59:57.000Z</time>
      </trkpt>
      <trkpt lat="46.03196" lon="5.6218">
        <ele>1072.4000244141</ele>
        <time>2023-05-19T07:59:58.000Z</time>
      </trkpt>
      <trkpt lat="46.03181" lon="5.62169">
        <ele>1072.1999511719</ele>
        <time>2023-05-19T08:00:03.000Z</time>
      </trkpt>
      <trkpt lat="46.03164" lon="5.62164">
        <ele>1070.8000488281</ele>
        <time>2023-05-19T08:00:07.000Z</time>
      </trkpt>
      <trkpt lat="46.03163" lon="5.62163">
        <ele>1070.5999755859</ele>
        <time>2023-05-19T08:00:08.000Z</time>
      </trkpt>
      <trkpt lat="46.03149" lon="5.62153">
        <ele>1070.1999511719</ele>
        <time>2023-05-19T08:00:14.000Z</time>
      </trkpt>
      <trkpt lat="46.03145" lon="5.6215">
        <ele>1070.5999755859</ele>
        <time>2023-05-19T08:00:16.000Z</time>
      </trkpt>
      <trkpt lat="46.03143" lon="5.62147">
        <ele>1070.8000488281</ele>
        <time>2023-05-19T08:00:18.000Z</time>
      </trkpt>
      <trkpt lat="46.03129" lon="5.62132">
        <ele>1071.4000244141</ele>
        <time>2023-05-19T08:00:23.000Z</time>
      </trkpt>
      <trkpt lat="46.03114" lon="5.6211">
        <ele>1071</ele>
        <time>2023-05-19T08:00:27.000Z</time>
      </trkpt>
      <trkpt lat="46.03108" lon="5.62099">
        <ele>1069.8000488281</ele>
        <time>2023-05-19T08:00:30.000Z</time>
      </trkpt>
      <trkpt lat="46.03107" lon="5.62096">
        <ele>1069.1999511719</ele>
        <time>2023-05-19T08:00:31.000Z</time>
      </trkpt>
      <trkpt lat="46.03106" lon="5.62094">
        <ele>1068.8000488281</ele>
        <time>2023-05-19T08:00:32.000Z</time>
      </trkpt>
      <trkpt lat="46.031" lon="5.62086">
        <ele>1067.5999755859</ele>
        <time>2023-05-19T08:00:35.000Z</time>
      </trkpt>
      <trkpt lat="46.031" lon="5.62086">
        <ele>1067.5999755859</ele>
        <time>2023-05-19T08:00:36.000Z</time>
      </trkpt>
      <trkpt lat="46.03088" lon="5.62073">
        <ele>1067.1999511719</ele>
        <time>2023-05-19T08:00:41.000Z</time>
      </trkpt>
      <trkpt lat="46.03066" lon="5.62064">
        <ele>1067.4000244141</ele>
        <time>2023-05-19T08:00:48.000Z</time>
      </trkpt>
      <trkpt lat="46.03042" lon="5.62071">
        <ele>1068.5999755859</ele>
        <time>2023-05-19T08:00:56.000Z</time>
      </trkpt>
      <trkpt lat="46.03034" lon="5.62071">
        <ele>1069.8000488281</ele>
        <time>2023-05-19T08:00:59.000Z</time>
      </trkpt>
      <trkpt lat="46.03026" lon="5.6207">
        <ele>1071</ele>
        <time>2023-05-19T08:01:02.000Z</time>
      </trkpt>
      <trkpt lat="46.03024" lon="5.6207">
        <ele>1071.4000244141</ele>
        <time>2023-05-19T08:01:03.000Z</time>
      </trkpt>
      <trkpt lat="46.03018" lon="5.62069">
        <ele>1072</ele>
        <time>2023-05-19T08:01:05.000Z</time>
      </trkpt>
      <trkpt lat="46.03014" lon="5.6207">
        <ele>1072.5999755859</ele>
        <time>2023-05-19T08:01:07.000Z</time>
      </trkpt>
      <trkpt lat="46.03009" lon="5.62069">
        <ele>1073.1999511719</ele>
        <time>2023-05-19T08:01:09.000Z</time>
      </trkpt>
      <trkpt lat="46.02992" lon="5.62073">
        <ele>1074</ele>
        <time>2023-05-19T08:01:17.000Z</time>
      </trkpt>
      <trkpt lat="46.02989" lon="5.62073">
        <ele>1074.4000244141</ele>
        <time>2023-05-19T08:01:18.000Z</time>
      </trkpt>
      <trkpt lat="46.02978" lon="5.62076">
        <ele>1075.4000244141</ele>
        <time>2023-05-19T08:01:23.000Z</time>
      </trkpt>
      <trkpt lat="46.02969" lon="5.62076">
        <ele>1076</ele>
        <time>2023-05-19T08:01:26.000Z</time>
      </trkpt>
      <trkpt lat="46.02965" lon="5.62075">
        <ele>1076.1999511719</ele>
        <time>2023-05-19T08:01:28.000Z</time>
      </trkpt>
      <trkpt lat="46.02961" lon="5.62075">
        <ele>1076.4000244141</ele>
        <time>2023-05-19T08:01:30.000Z</time>
      </trkpt>
      <trkpt lat="46.0296" lon="5.62075">
        <ele>1076.4000244141</ele>
        <time>2023-05-19T08:01:31.000Z</time>
      </trkpt>
      <trkpt lat="46.02954" lon="5.62075">
        <ele>1076.8000488281</ele>
        <time>2023-05-19T08:01:34.000Z</time>
      </trkpt>
      <trkpt lat="46.02952" lon="5.62073">
        <ele>1076.8000488281</ele>
        <time>2023-05-19T08:01:35.000Z</time>
      </trkpt>
      <trkpt lat="46.02949" lon="5.62072">
        <ele>1076.8000488281</ele>
        <time>2023-05-19T08:01:36.000Z</time>
      </trkpt>
      <trkpt lat="46.02939" lon="5.62073">
        <ele>1077.1999511719</ele>
        <time>2023-05-19T08:01:40.000Z</time>
      </trkpt>
      <trkpt lat="46.02933" lon="5.62076">
        <ele>1077.5999755859</ele>
        <time>2023-05-19T08:01:43.000Z</time>
      </trkpt>
      <trkpt lat="46.02925" lon="5.62077">
        <ele>1078</ele>
        <time>2023-05-19T08:01:46.000Z</time>
      </trkpt>
      <trkpt lat="46.02918" lon="5.62076">
        <ele>1079.1999511719</ele>
        <time>2023-05-19T08:01:49.000Z</time>
      </trkpt>
      <trkpt lat="46.02914" lon="5.62074">
        <ele>1080</ele>
        <time>2023-05-19T08:01:51.000Z</time>
      </trkpt>
      <trkpt lat="46.02912" lon="5.62072">
        <ele>1080.1999511719</ele>
        <time>2023-05-19T08:01:52.000Z</time>
      </trkpt>
      <trkpt lat="46.02895" lon="5.62064">
        <ele>1080.4000244141</ele>
        <time>2023-05-19T08:01:57.000Z</time>
      </trkpt>
      <trkpt lat="46.02871" lon="5.62062">
        <ele>1079.1999511719</ele>
        <time>2023-05-19T08:02:03.000Z</time>
      </trkpt>
      <trkpt lat="46.02868" lon="5.62062">
        <ele>1078.5999755859</ele>
        <time>2023-05-19T08:02:04.000Z</time>
      </trkpt>
      <trkpt lat="46.02863" lon="5.62061">
        <ele>1077.4000244141</ele>
        <time>2023-05-19T08:02:06.000Z</time>
      </trkpt>
      <trkpt lat="46.02857" lon="5.62061">
        <ele>1076.5999755859</ele>
        <time>2023-05-19T08:02:08.000Z</time>
      </trkpt>
      <trkpt lat="46.02854" lon="5.62061">
        <ele>1076.4000244141</ele>
        <time>2023-05-19T08:02:09.000Z</time>
      </trkpt>
      <trkpt lat="46.02839" lon="5.62062">
        <ele>1076.1999511719</ele>
        <time>2023-05-19T08:02:15.000Z</time>
      </trkpt>
      <trkpt lat="46.02824" lon="5.62064">
        <ele>1076.4000244141</ele>
        <time>2023-05-19T08:02:22.000Z</time>
      </trkpt>
      <trkpt lat="46.0282" lon="5.62066">
        <ele>1076.4000244141</ele>
        <time>2023-05-19T08:02:24.000Z</time>
      </trkpt>
      <trkpt lat="46.02813" lon="5.6207">
        <ele>1076.5999755859</ele>
        <time>2023-05-19T08:02:27.000Z</time>
      </trkpt>
      <trkpt lat="46.02808" lon="5.62072">
        <ele>1078.1999511719</ele>
        <time>2023-05-19T08:02:30.000Z</time>
      </trkpt>
      <trkpt lat="46.02806" lon="5.62073">
        <ele>1078.5999755859</ele>
        <time>2023-05-19T08:02:31.000Z</time>
      </trkpt>
      <trkpt lat="46.02802" lon="5.62074">
        <ele>1079.5999755859</ele>
        <time>2023-05-19T08:02:33.000Z</time>
      </trkpt>
      <trkpt lat="46.02798" lon="5.62075">
        <ele>1080.5999755859</ele>
        <time>2023-05-19T08:02:35.000Z</time>
      </trkpt>
      <trkpt lat="46.02795" lon="5.62076">
        <ele>1081.8000488281</ele>
        <time>2023-05-19T08:02:37.000Z</time>
      </trkpt>
      <trkpt lat="46.0279" lon="5.6208">
        <ele>1083</ele>
        <time>2023-05-19T08:02:40.000Z</time>
      </trkpt>
      <trkpt lat="46.02783" lon="5.62081">
        <ele>1083.8000488281</ele>
        <time>2023-05-19T08:02:43.000Z</time>
      </trkpt>
      <trkpt lat="46.02781" lon="5.6208">
        <ele>1084</ele>
        <time>2023-05-19T08:02:44.000Z</time>
      </trkpt>
      <trkpt lat="46.02767" lon="5.62078">
        <ele>1084.1999511719</ele>
        <time>2023-05-19T08:02:49.000Z</time>
      </trkpt>
      <trkpt lat="46.02753" lon="5.62079">
        <ele>1083.8000488281</ele>
        <time>2023-05-19T08:02:55.000Z</time>
      </trkpt>
      <trkpt lat="46.02728" lon="5.62083">
        <ele>1084</ele>
        <time>2023-05-19T08:03:02.000Z</time>
      </trkpt>
      <trkpt lat="46.02714" lon="5.62084">
        <ele>1084</ele>
        <time>2023-05-19T08:03:05.000Z</time>
      </trkpt>
      <trkpt lat="46.02711" lon="5.62085">
        <ele>1084</ele>
        <time>2023-05-19T08:03:06.000Z</time>
      </trkpt>
      <trkpt lat="46.02706" lon="5.62085">
        <ele>1083.8000488281</ele>
        <time>2023-05-19T08:03:07.000Z</time>
      </trkpt>
      <trkpt lat="46.02695" lon="5.62087">
        <ele>1083.4000244141</ele>
        <time>2023-05-19T08:03:10.000Z</time>
      </trkpt>
      <trkpt lat="46.02692" lon="5.62088">
        <ele>1082.8000488281</ele>
        <time>2023-05-19T08:03:12.000Z</time>
      </trkpt>
      <trkpt lat="46.02691" lon="5.62087">
        <ele>1082.5999755859</ele>
        <time>2023-05-19T08:03:13.000Z</time>
      </trkpt>
      <trkpt lat="46.02689" lon="5.62087">
        <ele>1082.4000244141</ele>
        <time>2023-05-19T08:03:14.000Z</time>
      </trkpt>
      <trkpt lat="46.02685" lon="5.62087">
        <ele>1082.1999511719</ele>
        <time>2023-05-19T08:03:16.000Z</time>
      </trkpt>
      <trkpt lat="46.02679" lon="5.62088">
        <ele>1082.1999511719</ele>
        <time>2023-05-19T08:03:18.000Z</time>
      </trkpt>
      <trkpt lat="46.02664" lon="5.62093">
        <ele>1083.4000244141</ele>
        <time>2023-05-19T08:03:24.000Z</time>
      </trkpt>
      <trkpt lat="46.02661" lon="5.62094">
        <ele>1084</ele>
        <time>2023-05-19T08:03:25.000Z</time>
      </trkpt>
      <trkpt lat="46.02651" lon="5.62096">
        <ele>1084.8000488281</ele>
        <time>2023-05-19T08:03:30.000Z</time>
      </trkpt>
      <trkpt lat="46.02649" lon="5.62095">
        <ele>1084.8000488281</ele>
        <time>2023-05-19T08:03:31.000Z</time>
      </trkpt>
      <trkpt lat="46.02648" lon="5.62095">
        <ele>1085.1999511719</ele>
        <time>2023-05-19T08:03:32.000Z</time>
      </trkpt>
      <trkpt lat="46.02643" lon="5.62097">
        <ele>1085.8000488281</ele>
        <time>2023-05-19T08:03:34.000Z</time>
      </trkpt>
      <trkpt lat="46.02639" lon="5.62099">
        <ele>1086.4000244141</ele>
        <time>2023-05-19T08:03:36.000Z</time>
      </trkpt>
      <trkpt lat="46.02636" lon="5.62104">
        <ele>1087.1999511719</ele>
        <time>2023-05-19T08:03:39.000Z</time>
      </trkpt>
      <trkpt lat="46.02635" lon="5.62109">
        <ele>1087.5999755859</ele>
        <time>2023-05-19T08:03:41.000Z</time>
      </trkpt>
      <trkpt lat="46.02635" lon="5.62117">
        <ele>1088.5999755859</ele>
        <time>2023-05-19T08:03:44.000Z</time>
      </trkpt>
      <trkpt lat="46.02633" lon="5.62122">
        <ele>1090</ele>
        <time>2023-05-19T08:03:46.000Z</time>
      </trkpt>
      <trkpt lat="46.0263" lon="5.62133">
        <ele>1091.1999511719</ele>
        <time>2023-05-19T08:03:50.000Z</time>
      </trkpt>
      <trkpt lat="46.0263" lon="5.62133">
        <ele>1092</ele>
        <time>2023-05-19T08:03:52.000Z</time>
      </trkpt>
      <trkpt lat="46.0263" lon="5.6215">
        <ele>1095.1999511719</ele>
        <time>2023-05-19T08:05:04.000Z</time>
      </trkpt>
      <trkpt lat="46.0263" lon="5.62153">
        <ele>1095.4000244141</ele>
        <time>2023-05-19T08:05:05.000Z</time>
      </trkpt>
      <trkpt lat="46.02629" lon="5.62156">
        <ele>1095.5999755859</ele>
        <time>2023-05-19T08:05:06.000Z</time>
      </trkpt>
      <trkpt lat="46.02628" lon="5.6216">
        <ele>1096.1999511719</ele>
        <time>2023-05-19T08:05:07.000Z</time>
      </trkpt>
      <trkpt lat="46.02626" lon="5.62167">
        <ele>1097</ele>
        <time>2023-05-19T08:05:09.000Z</time>
      </trkpt>
      <trkpt lat="46.02626" lon="5.6217">
        <ele>1097.1999511719</ele>
        <time>2023-05-19T08:05:10.000Z</time>
      </trkpt>
      <trkpt lat="46.02626" lon="5.62174">
        <ele>1097.4000244141</ele>
        <time>2023-05-19T08:05:11.000Z</time>
      </trkpt>
      <trkpt lat="46.02623" lon="5.6218">
        <ele>1098.4000244141</ele>
        <time>2023-05-19T08:05:13.000Z</time>
      </trkpt>
      <trkpt lat="46.02621" lon="5.62191">
        <ele>1099.8000488281</ele>
        <time>2023-05-19T08:05:16.000Z</time>
      </trkpt>
      <trkpt lat="46.02622" lon="5.62199">
        <ele>1101.5999755859</ele>
        <time>2023-05-19T08:05:19.000Z</time>
      </trkpt>
      <trkpt lat="46.02624" lon="5.62201">
        <ele>1102</ele>
        <time>2023-05-19T08:05:20.000Z</time>
      </trkpt>
      <trkpt lat="46.02627" lon="5.62205">
        <ele>1102.5999755859</ele>
        <time>2023-05-19T08:05:22.000Z</time>
      </trkpt>
      <trkpt lat="46.0263" lon="5.62209">
        <ele>1103.1999511719</ele>
        <time>2023-05-19T08:05:24.000Z</time>
      </trkpt>
      <trkpt lat="46.02631" lon="5.62211">
        <ele>1103.5999755859</ele>
        <time>2023-05-19T08:05:25.000Z</time>
      </trkpt>
      <trkpt lat="46.02635" lon="5.62217">
        <ele>1104.5999755859</ele>
        <time>2023-05-19T08:05:29.000Z</time>
      </trkpt>
      <trkpt lat="46.02636" lon="5.62218">
        <ele>1105</ele>
        <time>2023-05-19T08:05:30.000Z</time>
      </trkpt>
      <trkpt lat="46.02641" lon="5.62224">
        <ele>1106</ele>
        <time>2023-05-19T08:05:35.000Z</time>
      </trkpt>
      <trkpt lat="46.02643" lon="5.62226">
        <ele>1106.8000488281</ele>
        <time>2023-05-19T08:05:39.000Z</time>
      </trkpt>
      <trkpt lat="46.02643" lon="5.62227">
        <ele>1107</ele>
        <time>2023-05-19T08:05:40.000Z</time>
      </trkpt>
      <trkpt lat="46.02644" lon="5.62228">
        <ele>1107.1999511719</ele>
        <time>2023-05-19T08:05:41.000Z</time>
      </trkpt>
      <trkpt lat="46.02649" lon="5.62232">
        <ele>1108</ele>
        <time>2023-05-19T08:05:45.000Z</time>
      </trkpt>
      <trkpt lat="46.0265" lon="5.62233">
        <ele>1108.1999511719</ele>
        <time>2023-05-19T08:05:46.000Z</time>
      </trkpt>
      <trkpt lat="46.02652" lon="5.62234">
        <ele>1108.1999511719</ele>
        <time>2023-05-19T08:05:47.000Z</time>
      </trkpt>
      <trkpt lat="46.02655" lon="5.62235">
        <ele>1109</ele>
        <time>2023-05-19T08:05:50.000Z</time>
      </trkpt>
      <trkpt lat="46.02659" lon="5.62235">
        <ele>1109.5999755859</ele>
        <time>2023-05-19T08:05:53.000Z</time>
      </trkpt>
      <trkpt lat="46.02663" lon="5.62236">
        <ele>1110</ele>
        <time>2023-05-19T08:05:56.000Z</time>
      </trkpt>
      <trkpt lat="46.02669" lon="5.62236">
        <ele>1110.8000488281</ele>
        <time>2023-05-19T08:06:00.000Z</time>
      </trkpt>
      <trkpt lat="46.02671" lon="5.62236">
        <ele>1111.1999511719</ele>
        <time>2023-05-19T08:06:02.000Z</time>
      </trkpt>
      <trkpt lat="46.02681" lon="5.62236">
        <ele>1112.4000244141</ele>
        <time>2023-05-19T08:06:09.000Z</time>
      </trkpt>
      <trkpt lat="46.02695" lon="5.62235">
        <ele>1113</ele>
        <time>2023-05-19T08:06:17.000Z</time>
      </trkpt>
      <trkpt lat="46.02703" lon="5.62233">
        <ele>1113.4000244141</ele>
        <time>2023-05-19T08:06:21.000Z</time>
      </trkpt>
      <trkpt lat="46.02711" lon="5.62236">
        <ele>1113.5999755859</ele>
        <time>2023-05-19T08:06:24.000Z</time>
      </trkpt>
      <trkpt lat="46.02716" lon="5.62247">
        <ele>1113.8000488281</ele>
        <time>2023-05-19T08:06:29.000Z</time>
      </trkpt>
      <trkpt lat="46.02716" lon="5.6225">
        <ele>1114</ele>
        <time>2023-05-19T08:06:30.000Z</time>
      </trkpt>
      <trkpt lat="46.02715" lon="5.62252">
        <ele>1114.4000244141</ele>
        <time>2023-05-19T08:06:31.000Z</time>
      </trkpt>
      <trkpt lat="46.02713" lon="5.62254">
        <ele>1114.5999755859</ele>
        <time>2023-05-19T08:06:32.000Z</time>
      </trkpt>
      <trkpt lat="46.0271" lon="5.62258">
        <ele>1114.8000488281</ele>
        <time>2023-05-19T08:06:34.000Z</time>
      </trkpt>
      <trkpt lat="46.02705" lon="5.62261">
        <ele>1115.5999755859</ele>
        <time>2023-05-19T08:06:37.000Z</time>
      </trkpt>
      <trkpt lat="46.02698" lon="5.62264">
        <ele>1116.5999755859</ele>
        <time>2023-05-19T08:06:40.000Z</time>
      </trkpt>
      <trkpt lat="46.02696" lon="5.62264">
        <ele>1117.1999511719</ele>
        <time>2023-05-19T08:06:41.000Z</time>
      </trkpt>
      <trkpt lat="46.02692" lon="5.62265">
        <ele>1117.8000488281</ele>
        <time>2023-05-19T08:06:43.000Z</time>
      </trkpt>
      <trkpt lat="46.02678" lon="5.62268">
        <ele>1118.1999511719</ele>
        <time>2023-05-19T08:06:49.000Z</time>
      </trkpt>
      <trkpt lat="46.02663" lon="5.62273">
        <ele>1118.5999755859</ele>
        <time>2023-05-19T08:06:55.000Z</time>
      </trkpt>
      <trkpt lat="46.02661" lon="5.62275">
        <ele>1118.8000488281</ele>
        <time>2023-05-19T08:06:56.000Z</time>
      </trkpt>
      <trkpt lat="46.02649" lon="5.62279">
        <ele>1119.1999511719</ele>
        <time>2023-05-19T08:07:01.000Z</time>
      </trkpt>
      <trkpt lat="46.02635" lon="5.62285">
        <ele>1119.1999511719</ele>
        <time>2023-05-19T08:07:07.000Z</time>
      </trkpt>
      <trkpt lat="46.02621" lon="5.62294">
        <ele>1119.1999511719</ele>
        <time>2023-05-19T08:07:12.000Z</time>
      </trkpt>
      <trkpt lat="46.02607" lon="5.62301">
        <ele>1119.1999511719</ele>
        <time>2023-05-19T08:07:17.000Z</time>
      </trkpt>
      <trkpt lat="46.02594" lon="5.6231">
        <ele>1119.8000488281</ele>
        <time>2023-05-19T08:07:22.000Z</time>
      </trkpt>
      <trkpt lat="46.0259" lon="5.62314">
        <ele>1120</ele>
        <time>2023-05-19T08:07:24.000Z</time>
      </trkpt>
      <trkpt lat="46.02585" lon="5.62318">
        <ele>1120.4000244141</ele>
        <time>2023-05-19T08:07:26.000Z</time>
      </trkpt>
      <trkpt lat="46.02574" lon="5.62334">
        <ele>1121.1999511719</ele>
        <time>2023-05-19T08:07:30.000Z</time>
      </trkpt>
      <trkpt lat="46.02568" lon="5.62344">
        <ele>1122</ele>
        <time>2023-05-19T08:07:33.000Z</time>
      </trkpt>
      <trkpt lat="46.02562" lon="5.62351">
        <ele>1122.5999755859</ele>
        <time>2023-05-19T08:07:35.000Z</time>
      </trkpt>
      <trkpt lat="46.02554" lon="5.6236">
        <ele>1123.8000488281</ele>
        <time>2023-05-19T08:07:38.000Z</time>
      </trkpt>
      <trkpt lat="46.02549" lon="5.62365">
        <ele>1124.5999755859</ele>
        <time>2023-05-19T08:07:40.000Z</time>
      </trkpt>
      <trkpt lat="46.02545" lon="5.62372">
        <ele>1125</ele>
        <time>2023-05-19T08:07:42.000Z</time>
      </trkpt>
      <trkpt lat="46.02537" lon="5.62382">
        <ele>1126.4000244141</ele>
        <time>2023-05-19T08:07:46.000Z</time>
      </trkpt>
      <trkpt lat="46.02533" lon="5.62381">
        <ele>1126.8000488281</ele>
        <time>2023-05-19T08:07:47.000Z</time>
      </trkpt>
      <trkpt lat="46.02528" lon="5.62383">
        <ele>1127.5999755859</ele>
        <time>2023-05-19T08:07:49.000Z</time>
      </trkpt>
      <trkpt lat="46.02518" lon="5.6239">
        <ele>1128.5999755859</ele>
        <time>2023-05-19T08:07:52.000Z</time>
      </trkpt>
      <trkpt lat="46.02515" lon="5.62391">
        <ele>1129.1999511719</ele>
        <time>2023-05-19T08:07:53.000Z</time>
      </trkpt>
      <trkpt lat="46.02508" lon="5.62392">
        <ele>1129.8000488281</ele>
        <time>2023-05-19T08:07:56.000Z</time>
      </trkpt>
      <trkpt lat="46.02504" lon="5.62394">
        <ele>1130</ele>
        <time>2023-05-19T08:07:58.000Z</time>
      </trkpt>
      <trkpt lat="46.02491" lon="5.62397">
        <ele>1130.5999755859</ele>
        <time>2023-05-19T08:08:04.000Z</time>
      </trkpt>
      <trkpt lat="46.02476" lon="5.62403">
        <ele>1130.8000488281</ele>
        <time>2023-05-19T08:08:09.000Z</time>
      </trkpt>
      <trkpt lat="46.02473" lon="5.62404">
        <ele>1130.8000488281</ele>
        <time>2023-05-19T08:08:10.000Z</time>
      </trkpt>
      <trkpt lat="46.02455" lon="5.62413">
        <ele>1131</ele>
        <time>2023-05-19T08:08:17.000Z</time>
      </trkpt>
      <trkpt lat="46.02439" lon="5.62428">
        <ele>1131.8000488281</ele>
        <time>2023-05-19T08:08:22.000Z</time>
      </trkpt>
      <trkpt lat="46.02427" lon="5.62443">
        <ele>1132</ele>
        <time>2023-05-19T08:08:27.000Z</time>
      </trkpt>
      <trkpt lat="46.02406" lon="5.62467">
        <ele>1132</ele>
        <time>2023-05-19T08:08:35.000Z</time>
      </trkpt>
      <trkpt lat="46.02398" lon="5.62473">
        <ele>1132</ele>
        <time>2023-05-19T08:08:38.000Z</time>
      </trkpt>
      <trkpt lat="46.02389" lon="5.62477">
        <ele>1131.8000488281</ele>
        <time>2023-05-19T08:08:40.000Z</time>
      </trkpt>
      <trkpt lat="46.02374" lon="5.62484">
        <ele>1131.4000244141</ele>
        <time>2023-05-19T08:08:45.000Z</time>
      </trkpt>
      <trkpt lat="46.02348" lon="5.62492">
        <ele>1131.5999755859</ele>
        <time>2023-05-19T08:08:52.000Z</time>
      </trkpt>
      <trkpt lat="46.02328" lon="5.62497">
        <ele>1131.8000488281</ele>
        <time>2023-05-19T08:08:57.000Z</time>
      </trkpt>
      <trkpt lat="46.02304" lon="5.62505">
        <ele>1131.8000488281</ele>
        <time>2023-05-19T08:09:02.000Z</time>
      </trkpt>
      <trkpt lat="46.02297" lon="5.62509">
        <ele>1131.8000488281</ele>
        <time>2023-05-19T08:09:04.000Z</time>
      </trkpt>
      <trkpt lat="46.0229" lon="5.62512">
        <ele>1131.8000488281</ele>
        <time>2023-05-19T08:09:06.000Z</time>
      </trkpt>
      <trkpt lat="46.02267" lon="5.62532">
        <ele>1131.5999755859</ele>
        <time>2023-05-19T08:09:12.000Z</time>
      </trkpt>
      <trkpt lat="46.02247" lon="5.62548">
        <ele>1131.4000244141</ele>
        <time>2023-05-19T08:09:16.000Z</time>
      </trkpt>
      <trkpt lat="46.02244" lon="5.62552">
        <ele>1131.4000244141</ele>
        <time>2023-05-19T08:09:17.000Z</time>
      </trkpt>
      <trkpt lat="46.02223" lon="5.62566">
        <ele>1130.5999755859</ele>
        <time>2023-05-19T08:09:22.000Z</time>
      </trkpt>
      <trkpt lat="46.02219" lon="5.62569">
        <ele>1130.5999755859</ele>
        <time>2023-05-19T08:09:23.000Z</time>
      </trkpt>
      <trkpt lat="46.02203" lon="5.62578">
        <ele>1130</ele>
        <time>2023-05-19T08:09:28.000Z</time>
      </trkpt>
      <trkpt lat="46.02191" lon="5.6259">
        <ele>1129.8000488281</ele>
        <time>2023-05-19T08:09:34.000Z</time>
      </trkpt>
      <trkpt lat="46.02177" lon="5.626">
        <ele>1129.8000488281</ele>
        <time>2023-05-19T08:09:40.000Z</time>
      </trkpt>
      <trkpt lat="46.02166" lon="5.62614">
        <ele>1129.8000488281</ele>
        <time>2023-05-19T08:09:46.000Z</time>
      </trkpt>
      <trkpt lat="46.02148" lon="5.62627">
        <ele>1130</ele>
        <time>2023-05-19T08:09:53.000Z</time>
      </trkpt>
      <trkpt lat="46.02137" lon="5.62638">
        <ele>1130</ele>
        <time>2023-05-19T08:09:56.000Z</time>
      </trkpt>
      <trkpt lat="46.02133" lon="5.6264">
        <ele>1130</ele>
        <time>2023-05-19T08:09:57.000Z</time>
      </trkpt>
      <trkpt lat="46.02121" lon="5.6266">
        <ele>1130.1999511719</ele>
        <time>2023-05-19T08:10:02.000Z</time>
      </trkpt>
      <trkpt lat="46.02098" lon="5.6268">
        <ele>1130.5999755859</ele>
        <time>2023-05-19T08:10:09.000Z</time>
      </trkpt>
      <trkpt lat="46.0207" lon="5.6269">
        <ele>1131</ele>
        <time>2023-05-19T08:10:16.000Z</time>
      </trkpt>
      <trkpt lat="46.02054" lon="5.62696">
        <ele>1131.4000244141</ele>
        <time>2023-05-19T08:10:21.000Z</time>
      </trkpt>
      <trkpt lat="46.02028" lon="5.62714">
        <ele>1131.8000488281</ele>
        <time>2023-05-19T08:10:29.000Z</time>
      </trkpt>
      <trkpt lat="46.02013" lon="5.62728">
        <ele>1132.5999755859</ele>
        <time>2023-05-19T08:10:35.000Z</time>
      </trkpt>
      <trkpt lat="46.01997" lon="5.62742">
        <ele>1133.1999511719</ele>
        <time>2023-05-19T08:10:41.000Z</time>
      </trkpt>
      <trkpt lat="46.01987" lon="5.62746">
        <ele>1133.5999755859</ele>
        <time>2023-05-19T08:10:44.000Z</time>
      </trkpt>
      <trkpt lat="46.0198" lon="5.62751">
        <ele>1134</ele>
        <time>2023-05-19T08:10:46.000Z</time>
      </trkpt>
      <trkpt lat="46.0197" lon="5.62763">
        <ele>1134.8000488281</ele>
        <time>2023-05-19T08:10:50.000Z</time>
      </trkpt>
      <trkpt lat="46.01961" lon="5.62771">
        <ele>1135.1999511719</ele>
        <time>2023-05-19T08:10:54.000Z</time>
      </trkpt>
      <trkpt lat="46.01937" lon="5.62784">
        <ele>1135.1999511719</ele>
        <time>2023-05-19T08:11:01.000Z</time>
      </trkpt>
      <trkpt lat="46.01921" lon="5.62791">
        <ele>1134.8000488281</ele>
        <time>2023-05-19T08:11:05.000Z</time>
      </trkpt>
      <trkpt lat="46.01887" lon="5.628">
        <ele>1134.1999511719</ele>
        <time>2023-05-19T08:11:13.000Z</time>
      </trkpt>
      <trkpt lat="46.01882" lon="5.62801">
        <ele>1134.1999511719</ele>
        <time>2023-05-19T08:11:14.000Z</time>
      </trkpt>
      <trkpt lat="46.01872" lon="5.62803">
        <ele>1133.5999755859</ele>
        <time>2023-05-19T08:11:16.000Z</time>
      </trkpt>
      <trkpt lat="46.01856" lon="5.62806">
        <ele>1133.1999511719</ele>
        <time>2023-05-19T08:11:19.000Z</time>
      </trkpt>
      <trkpt lat="46.0184" lon="5.62812">
        <ele>1132.1999511719</ele>
        <time>2023-05-19T08:11:22.000Z</time>
      </trkpt>
      <trkpt lat="46.01819" lon="5.62825">
        <ele>1131.4000244141</ele>
        <time>2023-05-19T08:11:26.000Z</time>
      </trkpt>
      <trkpt lat="46.01816" lon="5.62827">
        <ele>1131.1999511719</ele>
        <time>2023-05-19T08:11:27.000Z</time>
      </trkpt>
      <trkpt lat="46.01808" lon="5.62837">
        <ele>1130.5999755859</ele>
        <time>2023-05-19T08:11:30.000Z</time>
      </trkpt>
      <trkpt lat="46.01795" lon="5.6285">
        <ele>1130.4000244141</ele>
        <time>2023-05-19T08:11:35.000Z</time>
      </trkpt>
      <trkpt lat="46.01793" lon="5.62853">
        <ele>1130.4000244141</ele>
        <time>2023-05-19T08:11:36.000Z</time>
      </trkpt>
      <trkpt lat="46.01786" lon="5.62866">
        <ele>1130.5999755859</ele>
        <time>2023-05-19T08:11:39.000Z</time>
      </trkpt>
      <trkpt lat="46.01773" lon="5.62897">
        <ele>1132</ele>
        <time>2023-05-19T08:11:46.000Z</time>
      </trkpt>
      <trkpt lat="46.01767" lon="5.6291">
        <ele>1132</ele>
        <time>2023-05-19T08:11:49.000Z</time>
      </trkpt>
      <trkpt lat="46.01755" lon="5.6292">
        <ele>1132.8000488281</ele>
        <time>2023-05-19T08:11:52.000Z</time>
      </trkpt>
      <trkpt lat="46.01747" lon="5.62927">
        <ele>1133</ele>
        <time>2023-05-19T08:11:55.000Z</time>
      </trkpt>
      <trkpt lat="46.01744" lon="5.62933">
        <ele>1133.4000244141</ele>
        <time>2023-05-19T08:11:57.000Z</time>
      </trkpt>
      <trkpt lat="46.01737" lon="5.6294">
        <ele>1133.5999755859</ele>
        <time>2023-05-19T08:12:01.000Z</time>
      </trkpt>
      <trkpt lat="46.0172" lon="5.62951">
        <ele>1133.8000488281</ele>
        <time>2023-05-19T08:12:08.000Z</time>
      </trkpt>
      <trkpt lat="46.01708" lon="5.62964">
        <ele>1133.5999755859</ele>
        <time>2023-05-19T08:12:13.000Z</time>
      </trkpt>
      <trkpt lat="46.01684" lon="5.62985">
        <ele>1133.5999755859</ele>
        <time>2023-05-19T08:12:22.000Z</time>
      </trkpt>
      <trkpt lat="46.01664" lon="5.63012">
        <ele>1133.4000244141</ele>
        <time>2023-05-19T08:12:30.000Z</time>
      </trkpt>
      <trkpt lat="46.01648" lon="5.63033">
        <ele>1133.1999511719</ele>
        <time>2023-05-19T08:12:36.000Z</time>
      </trkpt>
      <trkpt lat="46.01639" lon="5.63056">
        <ele>1132.8000488281</ele>
        <time>2023-05-19T08:12:42.000Z</time>
      </trkpt>
      <trkpt lat="46.0163" lon="5.63076">
        <ele>1132.8000488281</ele>
        <time>2023-05-19T08:12:48.000Z</time>
      </trkpt>
      <trkpt lat="46.01607" lon="5.63103">
        <ele>1132.4000244141</ele>
        <time>2023-05-19T08:12:55.000Z</time>
      </trkpt>
      <trkpt lat="46.01602" lon="5.63117">
        <ele>1131.8000488281</ele>
        <time>2023-05-19T08:12:58.000Z</time>
      </trkpt>
      <trkpt lat="46.016" lon="5.6313">
        <ele>1131</ele>
        <time>2023-05-19T08:13:01.000Z</time>
      </trkpt>
      <trkpt lat="46.01593" lon="5.63158">
        <ele>1130.8000488281</ele>
        <time>2023-05-19T08:13:08.000Z</time>
      </trkpt>
      <trkpt lat="46.01586" lon="5.63191">
        <ele>1130.8000488281</ele>
        <time>2023-05-19T08:13:15.000Z</time>
      </trkpt>
      <trkpt lat="46.01584" lon="5.632">
        <ele>1130.5999755859</ele>
        <time>2023-05-19T08:13:17.000Z</time>
      </trkpt>
      <trkpt lat="46.01578" lon="5.63212">
        <ele>1129.8000488281</ele>
        <time>2023-05-19T08:13:20.000Z</time>
      </trkpt>
      <trkpt lat="46.01575" lon="5.63218">
        <ele>1129.4000244141</ele>
        <time>2023-05-19T08:13:22.000Z</time>
      </trkpt>
      <trkpt lat="46.01563" lon="5.63239">
        <ele>1129.1999511719</ele>
        <time>2023-05-19T08:13:28.000Z</time>
      </trkpt>
      <trkpt lat="46.01551" lon="5.6326">
        <ele>1129.1999511719</ele>
        <time>2023-05-19T08:13:34.000Z</time>
      </trkpt>
      <trkpt lat="46.01538" lon="5.6328">
        <ele>1129.1999511719</ele>
        <time>2023-05-19T08:13:39.000Z</time>
      </trkpt>
      <trkpt lat="46.01528" lon="5.63306">
        <ele>1128.4000244141</ele>
        <time>2023-05-19T08:13:44.000Z</time>
      </trkpt>
      <trkpt lat="46.01526" lon="5.63312">
        <ele>1128.1999511719</ele>
        <time>2023-05-19T08:13:45.000Z</time>
      </trkpt>
      <trkpt lat="46.01524" lon="5.6332">
        <ele>1128.1999511719</ele>
        <time>2023-05-19T08:13:46.000Z</time>
      </trkpt>
      <trkpt lat="46.01515" lon="5.63342">
        <ele>1127.5999755859</ele>
        <time>2023-05-19T08:13:49.000Z</time>
      </trkpt>
      <trkpt lat="46.01512" lon="5.6335">
        <ele>1127.1999511719</ele>
        <time>2023-05-19T08:13:50.000Z</time>
      </trkpt>
      <trkpt lat="46.01496" lon="5.63388">
        <ele>1125.1999511719</ele>
        <time>2023-05-19T08:13:54.000Z</time>
      </trkpt>
      <trkpt lat="46.01492" lon="5.63399">
        <ele>1123.8000488281</ele>
        <time>2023-05-19T08:13:55.000Z</time>
      </trkpt>
      <trkpt lat="46.01485" lon="5.6343">
        <ele>1122.5999755859</ele>
        <time>2023-05-19T08:13:58.000Z</time>
      </trkpt>
      <trkpt lat="46.01482" lon="5.63438">
        <ele>1122.1999511719</ele>
        <time>2023-05-19T08:13:59.000Z</time>
      </trkpt>
      <trkpt lat="46.01476" lon="5.63451">
        <ele>1121.4000244141</ele>
        <time>2023-05-19T08:14:01.000Z</time>
      </trkpt>
      <trkpt lat="46.01472" lon="5.63455">
        <ele>1121</ele>
        <time>2023-05-19T08:14:02.000Z</time>
      </trkpt>
      <trkpt lat="46.01467" lon="5.6346">
        <ele>1120.1999511719</ele>
        <time>2023-05-19T08:14:03.000Z</time>
      </trkpt>
      <trkpt lat="46.01456" lon="5.63466">
        <ele>1119.1999511719</ele>
        <time>2023-05-19T08:14:05.000Z</time>
      </trkpt>
      <trkpt lat="46.01451" lon="5.63469">
        <ele>1118.5999755859</ele>
        <time>2023-05-19T08:14:06.000Z</time>
      </trkpt>
      <trkpt lat="46.01441" lon="5.63479">
        <ele>1117</ele>
        <time>2023-05-19T08:14:08.000Z</time>
      </trkpt>
      <trkpt lat="46.01437" lon="5.63485">
        <ele>1116.5999755859</ele>
        <time>2023-05-19T08:14:09.000Z</time>
      </trkpt>
      <trkpt lat="46.01435" lon="5.63492">
        <ele>1116</ele>
        <time>2023-05-19T08:14:10.000Z</time>
      </trkpt>
      <trkpt lat="46.01435" lon="5.63508">
        <ele>1114.4000244141</ele>
        <time>2023-05-19T08:14:12.000Z</time>
      </trkpt>
      <trkpt lat="46.01446" lon="5.63528">
        <ele>1113.4000244141</ele>
        <time>2023-05-19T08:14:15.000Z</time>
      </trkpt>
      <trkpt lat="46.01451" lon="5.63533">
        <ele>1113.1999511719</ele>
        <time>2023-05-19T08:14:16.000Z</time>
      </trkpt>
      <trkpt lat="46.0146" lon="5.6354">
        <ele>1112.4000244141</ele>
        <time>2023-05-19T08:14:18.000Z</time>
      </trkpt>
      <trkpt lat="46.01463" lon="5.63543">
        <ele>1112</ele>
        <time>2023-05-19T08:14:19.000Z</time>
      </trkpt>
      <trkpt lat="46.01467" lon="5.63546">
        <ele>1110.5999755859</ele>
        <time>2023-05-19T08:14:20.000Z</time>
      </trkpt>
      <trkpt lat="46.01474" lon="5.6355">
        <ele>1109.1999511719</ele>
        <time>2023-05-19T08:14:22.000Z</time>
      </trkpt>
      <trkpt lat="46.01479" lon="5.63552">
        <ele>1108.8000488281</ele>
        <time>2023-05-19T08:14:23.000Z</time>
      </trkpt>
      <trkpt lat="46.01483" lon="5.63555">
        <ele>1108</ele>
        <time>2023-05-19T08:14:24.000Z</time>
      </trkpt>
      <trkpt lat="46.01498" lon="5.63563">
        <ele>1107.1999511719</ele>
        <time>2023-05-19T08:14:27.000Z</time>
      </trkpt>
      <trkpt lat="46.01503" lon="5.63568">
        <ele>1106.5999755859</ele>
        <time>2023-05-19T08:14:28.000Z</time>
      </trkpt>
      <trkpt lat="46.01508" lon="5.63574">
        <ele>1105.5999755859</ele>
        <time>2023-05-19T08:14:29.000Z</time>
      </trkpt>
      <trkpt lat="46.01511" lon="5.63581">
        <ele>1105.1999511719</ele>
        <time>2023-05-19T08:14:30.000Z</time>
      </trkpt>
      <trkpt lat="46.01513" lon="5.63589">
        <ele>1104.4000244141</ele>
        <time>2023-05-19T08:14:31.000Z</time>
      </trkpt>
      <trkpt lat="46.01514" lon="5.63598">
        <ele>1104</ele>
        <time>2023-05-19T08:14:32.000Z</time>
      </trkpt>
      <trkpt lat="46.01516" lon="5.63616">
        <ele>1103.4000244141</ele>
        <time>2023-05-19T08:14:34.000Z</time>
      </trkpt>
      <trkpt lat="46.01516" lon="5.63625">
        <ele>1102.8000488281</ele>
        <time>2023-05-19T08:14:35.000Z</time>
      </trkpt>
      <trkpt lat="46.01516" lon="5.63645">
        <ele>1102.1999511719</ele>
        <time>2023-05-19T08:14:37.000Z</time>
      </trkpt>
      <trkpt lat="46.01516" lon="5.63654">
        <ele>1101.8000488281</ele>
        <time>2023-05-19T08:14:38.000Z</time>
      </trkpt>
      <trkpt lat="46.01515" lon="5.6366">
        <ele>1101.4000244141</ele>
        <time>2023-05-19T08:14:39.000Z</time>
      </trkpt>
      <trkpt lat="46.01515" lon="5.63666">
        <ele>1100.4000244141</ele>
        <time>2023-05-19T08:14:40.000Z</time>
      </trkpt>
      <trkpt lat="46.01515" lon="5.6367">
        <ele>1100.1999511719</ele>
        <time>2023-05-19T08:14:41.000Z</time>
      </trkpt>
      <trkpt lat="46.01515" lon="5.63675">
        <ele>1099.5999755859</ele>
        <time>2023-05-19T08:14:42.000Z</time>
      </trkpt>
      <trkpt lat="46.01517" lon="5.6368">
        <ele>1099.1999511719</ele>
        <time>2023-05-19T08:14:43.000Z</time>
      </trkpt>
      <trkpt lat="46.01525" lon="5.63694">
        <ele>1097.5999755859</ele>
        <time>2023-05-19T08:14:45.000Z</time>
      </trkpt>
      <trkpt lat="46.01533" lon="5.63708">
        <ele>1097</ele>
        <time>2023-05-19T08:14:47.000Z</time>
      </trkpt>
      <trkpt lat="46.01536" lon="5.63715">
        <ele>1096.4000244141</ele>
        <time>2023-05-19T08:14:48.000Z</time>
      </trkpt>
      <trkpt lat="46.01543" lon="5.63732">
        <ele>1095.4000244141</ele>
        <time>2023-05-19T08:14:50.000Z</time>
      </trkpt>
      <trkpt lat="46.0155" lon="5.63757">
        <ele>1094.4000244141</ele>
        <time>2023-05-19T08:14:53.000Z</time>
      </trkpt>
      <trkpt lat="46.01552" lon="5.63764">
        <ele>1094</ele>
        <time>2023-05-19T08:14:54.000Z</time>
      </trkpt>
      <trkpt lat="46.01553" lon="5.6377">
        <ele>1093.4000244141</ele>
        <time>2023-05-19T08:14:55.000Z</time>
      </trkpt>
      <trkpt lat="46.01555" lon="5.63776">
        <ele>1092.8000488281</ele>
        <time>2023-05-19T08:14:56.000Z</time>
      </trkpt>
      <trkpt lat="46.01563" lon="5.63801">
        <ele>1091.4000244141</ele>
        <time>2023-05-19T08:15:00.000Z</time>
      </trkpt>
      <trkpt lat="46.0157" lon="5.63817">
        <ele>1090.1999511719</ele>
        <time>2023-05-19T08:15:03.000Z</time>
      </trkpt>
      <trkpt lat="46.01574" lon="5.63827">
        <ele>1089.4000244141</ele>
        <time>2023-05-19T08:15:05.000Z</time>
      </trkpt>
      <trkpt lat="46.01578" lon="5.63836">
        <ele>1088.4000244141</ele>
        <time>2023-05-19T08:15:07.000Z</time>
      </trkpt>
      <trkpt lat="46.01585" lon="5.63854">
        <ele>1087.4000244141</ele>
        <time>2023-05-19T08:15:10.000Z</time>
      </trkpt>
      <trkpt lat="46.01588" lon="5.63857">
        <ele>1087.1999511719</ele>
        <time>2023-05-19T08:15:11.000Z</time>
      </trkpt>
      <trkpt lat="46.01599" lon="5.63861">
        <ele>1086.1999511719</ele>
        <time>2023-05-19T08:15:14.000Z</time>
      </trkpt>
      <trkpt lat="46.01603" lon="5.63861">
        <ele>1086</ele>
        <time>2023-05-19T08:15:15.000Z</time>
      </trkpt>
      <trkpt lat="46.01611" lon="5.63858">
        <ele>1085</ele>
        <time>2023-05-19T08:15:17.000Z</time>
      </trkpt>
      <trkpt lat="46.01624" lon="5.6385">
        <ele>1083.8000488281</ele>
        <time>2023-05-19T08:15:21.000Z</time>
      </trkpt>
      <trkpt lat="46.01637" lon="5.63855">
        <ele>1082.5999755859</ele>
        <time>2023-05-19T08:15:24.000Z</time>
      </trkpt>
      <trkpt lat="46.01641" lon="5.63859">
        <ele>1081.8000488281</ele>
        <time>2023-05-19T08:15:25.000Z</time>
      </trkpt>
      <trkpt lat="46.01645" lon="5.63863">
        <ele>1080.5999755859</ele>
        <time>2023-05-19T08:15:26.000Z</time>
      </trkpt>
      <trkpt lat="46.01652" lon="5.63871">
        <ele>1079.4000244141</ele>
        <time>2023-05-19T08:15:28.000Z</time>
      </trkpt>
      <trkpt lat="46.01654" lon="5.63881">
        <ele>1078.8000488281</ele>
        <time>2023-05-19T08:15:30.000Z</time>
      </trkpt>
      <trkpt lat="46.01649" lon="5.63892">
        <ele>1078.4000244141</ele>
        <time>2023-05-19T08:15:32.000Z</time>
      </trkpt>
      <trkpt lat="46.01645" lon="5.63896">
        <ele>1078.4000244141</ele>
        <time>2023-05-19T08:15:33.000Z</time>
      </trkpt>
      <trkpt lat="46.01641" lon="5.639">
        <ele>1078</ele>
        <time>2023-05-19T08:15:34.000Z</time>
      </trkpt>
      <trkpt lat="46.01629" lon="5.63909">
        <ele>1077.5999755859</ele>
        <time>2023-05-19T08:15:36.000Z</time>
      </trkpt>
      <trkpt lat="46.01625" lon="5.63914">
        <ele>1077</ele>
        <time>2023-05-19T08:15:37.000Z</time>
      </trkpt>
      <trkpt lat="46.0162" lon="5.63918">
        <ele>1076.8000488281</ele>
        <time>2023-05-19T08:15:38.000Z</time>
      </trkpt>
      <trkpt lat="46.01607" lon="5.63929">
        <ele>1076</ele>
        <time>2023-05-19T08:15:41.000Z</time>
      </trkpt>
      <trkpt lat="46.01601" lon="5.63932">
        <ele>1075.5999755859</ele>
        <time>2023-05-19T08:15:42.000Z</time>
      </trkpt>
      <trkpt lat="46.01596" lon="5.63936">
        <ele>1074.8000488281</ele>
        <time>2023-05-19T08:15:43.000Z</time>
      </trkpt>
      <trkpt lat="46.0159" lon="5.63938">
        <ele>1073.8000488281</ele>
        <time>2023-05-19T08:15:44.000Z</time>
      </trkpt>
      <trkpt lat="46.01571" lon="5.6394">
        <ele>1072.8000488281</ele>
        <time>2023-05-19T08:15:47.000Z</time>
      </trkpt>
      <trkpt lat="46.01566" lon="5.6394">
        <ele>1072.4000244141</ele>
        <time>2023-05-19T08:15:48.000Z</time>
      </trkpt>
      <trkpt lat="46.01549" lon="5.63941">
        <ele>1071.1999511719</ele>
        <time>2023-05-19T08:15:51.000Z</time>
      </trkpt>
      <trkpt lat="46.01536" lon="5.63937">
        <ele>1069.8000488281</ele>
        <time>2023-05-19T08:15:53.000Z</time>
      </trkpt>
      <trkpt lat="46.01523" lon="5.63935">
        <ele>1068.4000244141</ele>
        <time>2023-05-19T08:15:55.000Z</time>
      </trkpt>
      <trkpt lat="46.01502" lon="5.63933">
        <ele>1067.1999511719</ele>
        <time>2023-05-19T08:15:58.000Z</time>
      </trkpt>
      <trkpt lat="46.01489" lon="5.63932">
        <ele>1064.5999755859</ele>
        <time>2023-05-19T08:16:00.000Z</time>
      </trkpt>
      <trkpt lat="46.01477" lon="5.63933">
        <ele>1063</ele>
        <time>2023-05-19T08:16:02.000Z</time>
      </trkpt>
      <trkpt lat="46.01471" lon="5.63934">
        <ele>1062.5999755859</ele>
        <time>2023-05-19T08:16:03.000Z</time>
      </trkpt>
      <trkpt lat="46.01459" lon="5.63935">
        <ele>1061.8000488281</ele>
        <time>2023-05-19T08:16:05.000Z</time>
      </trkpt>
      <trkpt lat="46.01447" lon="5.63936">
        <ele>1060.1999511719</ele>
        <time>2023-05-19T08:16:07.000Z</time>
      </trkpt>
      <trkpt lat="46.01431" lon="5.63938">
        <ele>1059</ele>
        <time>2023-05-19T08:16:09.000Z</time>
      </trkpt>
      <trkpt lat="46.01411" lon="5.63934">
        <ele>1057.8000488281</ele>
        <time>2023-05-19T08:16:12.000Z</time>
      </trkpt>
      <trkpt lat="46.01399" lon="5.63932">
        <ele>1056.5999755859</ele>
        <time>2023-05-19T08:16:14.000Z</time>
      </trkpt>
      <trkpt lat="46.01383" lon="5.63927">
        <ele>1055.8000488281</ele>
        <time>2023-05-19T08:16:17.000Z</time>
      </trkpt>
      <trkpt lat="46.01378" lon="5.63925">
        <ele>1055.4000244141</ele>
        <time>2023-05-19T08:16:18.000Z</time>
      </trkpt>
      <trkpt lat="46.01375" lon="5.63923">
        <ele>1055.4000244141</ele>
        <time>2023-05-19T08:16:19.000Z</time>
      </trkpt>
      <trkpt lat="46.01347" lon="5.63907">
        <ele>1054.4000244141</ele>
        <time>2023-05-19T08:16:25.000Z</time>
      </trkpt>
      <trkpt lat="46.01338" lon="5.63903">
        <ele>1054.1999511719</ele>
        <time>2023-05-19T08:16:27.000Z</time>
      </trkpt>
      <trkpt lat="46.01326" lon="5.63899">
        <ele>1054.5999755859</ele>
        <time>2023-05-19T08:16:30.000Z</time>
      </trkpt>
      <trkpt lat="46.01296" lon="5.63893">
        <ele>1054.1999511719</ele>
        <time>2023-05-19T08:16:36.000Z</time>
      </trkpt>
      <trkpt lat="46.01284" lon="5.63892">
        <ele>1054.1999511719</ele>
        <time>2023-05-19T08:16:38.000Z</time>
      </trkpt>
      <trkpt lat="46.01273" lon="5.63895">
        <ele>1054.1999511719</ele>
        <time>2023-05-19T08:16:41.000Z</time>
      </trkpt>
      <trkpt lat="46.01255" lon="5.63899">
        <ele>1054.1999511719</ele>
        <time>2023-05-19T08:16:46.000Z</time>
      </trkpt>
      <trkpt lat="46.01243" lon="5.63902">
        <ele>1054.1999511719</ele>
        <time>2023-05-19T08:16:49.000Z</time>
      </trkpt>
      <trkpt lat="46.01233" lon="5.63901">
        <ele>1054.4000244141</ele>
        <time>2023-05-19T08:16:52.000Z</time>
      </trkpt>
      <trkpt lat="46.01216" lon="5.63894">
        <ele>1055</ele>
        <time>2023-05-19T08:16:57.000Z</time>
      </trkpt>
      <trkpt lat="46.01207" lon="5.63891">
        <ele>1056.4000244141</ele>
        <time>2023-05-19T08:16:59.000Z</time>
      </trkpt>
      <trkpt lat="46.01199" lon="5.63888">
        <ele>1057.5999755859</ele>
        <time>2023-05-19T08:17:01.000Z</time>
      </trkpt>
      <trkpt lat="46.01191" lon="5.63884">
        <ele>1058.5999755859</ele>
        <time>2023-05-19T08:17:03.000Z</time>
      </trkpt>
      <trkpt lat="46.01185" lon="5.63881">
        <ele>1059.5999755859</ele>
        <time>2023-05-19T08:17:05.000Z</time>
      </trkpt>
      <trkpt lat="46.01181" lon="5.63879">
        <ele>1060</ele>
        <time>2023-05-19T08:17:06.000Z</time>
      </trkpt>
      <trkpt lat="46.01174" lon="5.63877">
        <ele>1061</ele>
        <time>2023-05-19T08:17:09.000Z</time>
      </trkpt>
      <trkpt lat="46.01171" lon="5.63877">
        <ele>1061.4000244141</ele>
        <time>2023-05-19T08:17:10.000Z</time>
      </trkpt>
      <trkpt lat="46.01157" lon="5.63874">
        <ele>1061.8000488281</ele>
        <time>2023-05-19T08:17:15.000Z</time>
      </trkpt>
      <trkpt lat="46.01147" lon="5.63872">
        <ele>1062.1999511719</ele>
        <time>2023-05-19T08:17:19.000Z</time>
      </trkpt>
      <trkpt lat="46.01137" lon="5.63869">
        <ele>1062.4000244141</ele>
        <time>2023-05-19T08:17:23.000Z</time>
      </trkpt>
      <trkpt lat="46.01128" lon="5.63867">
        <ele>1063.1999511719</ele>
        <time>2023-05-19T08:17:26.000Z</time>
      </trkpt>
      <trkpt lat="46.01114" lon="5.63866">
        <ele>1063.4000244141</ele>
        <time>2023-05-19T08:17:30.000Z</time>
      </trkpt>
      <trkpt lat="46.01094" lon="5.63865">
        <ele>1063.1999511719</ele>
        <time>2023-05-19T08:17:35.000Z</time>
      </trkpt>
      <trkpt lat="46.01079" lon="5.63866">
        <ele>1062</ele>
        <time>2023-05-19T08:17:40.000Z</time>
      </trkpt>
      <trkpt lat="46.01076" lon="5.63865">
        <ele>1061.8000488281</ele>
        <time>2023-05-19T08:17:41.000Z</time>
      </trkpt>
      <trkpt lat="46.01062" lon="5.63864">
        <ele>1061</ele>
        <time>2023-05-19T08:17:46.000Z</time>
      </trkpt>
      <trkpt lat="46.01055" lon="5.63862">
        <ele>1060.8000488281</ele>
        <time>2023-05-19T08:17:48.000Z</time>
      </trkpt>
      <trkpt lat="46.01031" lon="5.63854">
        <ele>1061.4000244141</ele>
        <time>2023-05-19T08:17:56.000Z</time>
      </trkpt>
      <trkpt lat="46.01012" lon="5.63853">
        <ele>1062</ele>
        <time>2023-05-19T08:18:02.000Z</time>
      </trkpt>
      <trkpt lat="46.00994" lon="5.63853">
        <ele>1062.1999511719</ele>
        <time>2023-05-19T08:18:08.000Z</time>
      </trkpt>
      <trkpt lat="46.00973" lon="5.63851">
        <ele>1062</ele>
        <time>2023-05-19T08:18:15.000Z</time>
      </trkpt>
      <trkpt lat="46.00952" lon="5.63849">
        <ele>1062</ele>
        <time>2023-05-19T08:18:21.000Z</time>
      </trkpt>
      <trkpt lat="46.00948" lon="5.6385">
        <ele>1062</ele>
        <time>2023-05-19T08:18:22.000Z</time>
      </trkpt>
      <trkpt lat="46.00932" lon="5.63851">
        <ele>1061.5999755859</ele>
        <time>2023-05-19T08:18:25.000Z</time>
      </trkpt>
      <trkpt lat="46.00916" lon="5.63852">
        <ele>1061</ele>
        <time>2023-05-19T08:18:29.000Z</time>
      </trkpt>
      <trkpt lat="46.00912" lon="5.63852">
        <ele>1061</ele>
        <time>2023-05-19T08:18:30.000Z</time>
      </trkpt>
      <trkpt lat="46.00896" lon="5.63856">
        <ele>1060.8000488281</ele>
        <time>2023-05-19T08:18:34.000Z</time>
      </trkpt>
      <trkpt lat="46.00891" lon="5.63856">
        <ele>1060.8000488281</ele>
        <time>2023-05-19T08:18:35.000Z</time>
      </trkpt>
      <trkpt lat="46.00887" lon="5.63856">
        <ele>1060.5999755859</ele>
        <time>2023-05-19T08:18:36.000Z</time>
      </trkpt>
      <trkpt lat="46.00879" lon="5.63852">
        <ele>1059.8000488281</ele>
        <time>2023-05-19T08:18:39.000Z</time>
      </trkpt>
      <trkpt lat="46.00861" lon="5.63846">
        <ele>1060</ele>
        <time>2023-05-19T08:18:45.000Z</time>
      </trkpt>
      <trkpt lat="46.00845" lon="5.63842">
        <ele>1061.4000244141</ele>
        <time>2023-05-19T08:18:50.000Z</time>
      </trkpt>
      <trkpt lat="46.00842" lon="5.63841">
        <ele>1061.5999755859</ele>
        <time>2023-05-19T08:18:51.000Z</time>
      </trkpt>
      <trkpt lat="46.00839" lon="5.6384">
        <ele>1062</ele>
        <time>2023-05-19T08:18:52.000Z</time>
      </trkpt>
      <trkpt lat="46.0083" lon="5.63835">
        <ele>1062.5999755859</ele>
        <time>2023-05-19T08:18:55.000Z</time>
      </trkpt>
      <trkpt lat="46.00816" lon="5.6383">
        <ele>1063.8000488281</ele>
        <time>2023-05-19T08:18:59.000Z</time>
      </trkpt>
      <trkpt lat="46.00813" lon="5.6383">
        <ele>1064</ele>
        <time>2023-05-19T08:19:00.000Z</time>
      </trkpt>
      <trkpt lat="46.00797" lon="5.6383">
        <ele>1065</ele>
        <time>2023-05-19T08:19:05.000Z</time>
      </trkpt>
      <trkpt lat="46.00782" lon="5.6383">
        <ele>1065.4000244141</ele>
        <time>2023-05-19T08:19:09.000Z</time>
      </trkpt>
      <trkpt lat="46.00761" lon="5.63831">
        <ele>1065.8000488281</ele>
        <time>2023-05-19T08:19:16.000Z</time>
      </trkpt>
      <trkpt lat="46.00754" lon="5.6383">
        <ele>1066</ele>
        <time>2023-05-19T08:19:18.000Z</time>
      </trkpt>
      <trkpt lat="46.00738" lon="5.6383">
        <ele>1066</ele>
        <time>2023-05-19T08:19:24.000Z</time>
      </trkpt>
      <trkpt lat="46.0072" lon="5.63828">
        <ele>1066</ele>
        <time>2023-05-19T08:19:30.000Z</time>
      </trkpt>
      <trkpt lat="46.00697" lon="5.63829">
        <ele>1066</ele>
        <time>2023-05-19T08:19:37.000Z</time>
      </trkpt>
      <trkpt lat="46.0067" lon="5.63826">
        <ele>1066.5999755859</ele>
        <time>2023-05-19T08:19:45.000Z</time>
      </trkpt>
      <trkpt lat="46.00661" lon="5.63827">
        <ele>1067</ele>
        <time>2023-05-19T08:19:49.000Z</time>
      </trkpt>
      <trkpt lat="46.00654" lon="5.63827">
        <ele>1067.4000244141</ele>
        <time>2023-05-19T08:19:52.000Z</time>
      </trkpt>
      <trkpt lat="46.00634" lon="5.6383">
        <ele>1067.4000244141</ele>
        <time>2023-05-19T08:19:56.000Z</time>
      </trkpt>
      <trkpt lat="46.00616" lon="5.6383">
        <ele>1067.1999511719</ele>
        <time>2023-05-19T08:19:59.000Z</time>
      </trkpt>
      <trkpt lat="46.00605" lon="5.63826">
        <ele>1066.8000488281</ele>
        <time>2023-05-19T08:20:01.000Z</time>
      </trkpt>
      <trkpt lat="46.00597" lon="5.63821">
        <ele>1066.4000244141</ele>
        <time>2023-05-19T08:20:03.000Z</time>
      </trkpt>
      <trkpt lat="46.00588" lon="5.63816">
        <ele>1066.1999511719</ele>
        <time>2023-05-19T08:20:06.000Z</time>
      </trkpt>
      <trkpt lat="46.00567" lon="5.63813">
        <ele>1067.4000244141</ele>
        <time>2023-05-19T08:20:14.000Z</time>
      </trkpt>
      <trkpt lat="46.00544" lon="5.63818">
        <ele>1067.5999755859</ele>
        <time>2023-05-19T08:20:20.000Z</time>
      </trkpt>
      <trkpt lat="46.00518" lon="5.63822">
        <ele>1067.8000488281</ele>
        <time>2023-05-19T08:20:27.000Z</time>
      </trkpt>
      <trkpt lat="46.0051" lon="5.63823">
        <ele>1068.1999511719</ele>
        <time>2023-05-19T08:20:29.000Z</time>
      </trkpt>
      <trkpt lat="46.00494" lon="5.63825">
        <ele>1069.1999511719</ele>
        <time>2023-05-19T08:20:33.000Z</time>
      </trkpt>
      <trkpt lat="46.00485" lon="5.63828">
        <ele>1069.8000488281</ele>
        <time>2023-05-19T08:20:36.000Z</time>
      </trkpt>
      <trkpt lat="46.00481" lon="5.63828">
        <ele>1070.4000244141</ele>
        <time>2023-05-19T08:20:37.000Z</time>
      </trkpt>
      <trkpt lat="46.00475" lon="5.63828">
        <ele>1071.4000244141</ele>
        <time>2023-05-19T08:20:39.000Z</time>
      </trkpt>
      <trkpt lat="46.00465" lon="5.6383">
        <ele>1072.4000244141</ele>
        <time>2023-05-19T08:20:42.000Z</time>
      </trkpt>
      <trkpt lat="46.00459" lon="5.6383">
        <ele>1072.8000488281</ele>
        <time>2023-05-19T08:20:44.000Z</time>
      </trkpt>
      <trkpt lat="46.00448" lon="5.6383">
        <ele>1073.5999755859</ele>
        <time>2023-05-19T08:20:48.000Z</time>
      </trkpt>
      <trkpt lat="46.00445" lon="5.63829">
        <ele>1074</ele>
        <time>2023-05-19T08:20:49.000Z</time>
      </trkpt>
      <trkpt lat="46.00434" lon="5.63827">
        <ele>1075</ele>
        <time>2023-05-19T08:20:54.000Z</time>
      </trkpt>
      <trkpt lat="46.00421" lon="5.63827">
        <ele>1075.5999755859</ele>
        <time>2023-05-19T08:21:00.000Z</time>
      </trkpt>
      <trkpt lat="46.0041" lon="5.63829">
        <ele>1076.1999511719</ele>
        <time>2023-05-19T08:21:05.000Z</time>
      </trkpt>
      <trkpt lat="46.00403" lon="5.6383">
        <ele>1076.5999755859</ele>
        <time>2023-05-19T08:21:08.000Z</time>
      </trkpt>
      <trkpt lat="46.00395" lon="5.6383">
        <ele>1077.4000244141</ele>
        <time>2023-05-19T08:21:12.000Z</time>
      </trkpt>
      <trkpt lat="46.00388" lon="5.6383">
        <ele>1078</ele>
        <time>2023-05-19T08:21:15.000Z</time>
      </trkpt>
      <trkpt lat="46.00383" lon="5.6383">
        <ele>1078.5999755859</ele>
        <time>2023-05-19T08:21:18.000Z</time>
      </trkpt>
      <trkpt lat="46.00378" lon="5.63831">
        <ele>1078.8000488281</ele>
        <time>2023-05-19T08:21:21.000Z</time>
      </trkpt>
      <trkpt lat="46.00359" lon="5.63835">
        <ele>1079.1999511719</ele>
        <time>2023-05-19T08:21:29.000Z</time>
      </trkpt>
      <trkpt lat="46.0034" lon="5.63842">
        <ele>1079.1999511719</ele>
        <time>2023-05-19T08:21:36.000Z</time>
      </trkpt>
      <trkpt lat="46.0032" lon="5.63861">
        <ele>1078.8000488281</ele>
        <time>2023-05-19T08:21:41.000Z</time>
      </trkpt>
      <trkpt lat="46.00302" lon="5.63876">
        <ele>1077</ele>
        <time>2023-05-19T08:21:45.000Z</time>
      </trkpt>
      <trkpt lat="46.00296" lon="5.63879">
        <ele>1075.8000488281</ele>
        <time>2023-05-19T08:21:46.000Z</time>
      </trkpt>
      <trkpt lat="46.00279" lon="5.6389">
        <ele>1075</ele>
        <time>2023-05-19T08:21:49.000Z</time>
      </trkpt>
      <trkpt lat="46.0027" lon="5.63896">
        <ele>1074.4000244141</ele>
        <time>2023-05-19T08:21:50.000Z</time>
      </trkpt>
      <trkpt lat="46.00263" lon="5.63902">
        <ele>1074.1999511719</ele>
        <time>2023-05-19T08:21:51.000Z</time>
      </trkpt>
      <trkpt lat="46.00249" lon="5.63909">
        <ele>1073</ele>
        <time>2023-05-19T08:21:53.000Z</time>
      </trkpt>
      <trkpt lat="46.0024" lon="5.63914">
        <ele>1071.5999755859</ele>
        <time>2023-05-19T08:21:54.000Z</time>
      </trkpt>
      <trkpt lat="46.00233" lon="5.63916">
        <ele>1070.4000244141</ele>
        <time>2023-05-19T08:21:55.000Z</time>
      </trkpt>
      <trkpt lat="46.00221" lon="5.63917">
        <ele>1068.5999755859</ele>
        <time>2023-05-19T08:21:57.000Z</time>
      </trkpt>
      <trkpt lat="46.00198" lon="5.6392">
        <ele>1067.5999755859</ele>
        <time>2023-05-19T08:22:01.000Z</time>
      </trkpt>
      <trkpt lat="46.00195" lon="5.63921">
        <ele>1067.1999511719</ele>
        <time>2023-05-19T08:22:02.000Z</time>
      </trkpt>
      <trkpt lat="46.00186" lon="5.63923">
        <ele>1067.1999511719</ele>
        <time>2023-05-19T08:22:04.000Z</time>
      </trkpt>
      <trkpt lat="46.00175" lon="5.63929">
        <ele>1067.1999511719</ele>
        <time>2023-05-19T08:22:07.000Z</time>
      </trkpt>
      <trkpt lat="46.00167" lon="5.63932">
        <ele>1067</ele>
        <time>2023-05-19T08:22:11.000Z</time>
      </trkpt>
      <trkpt lat="46.00166" lon="5.63934">
        <ele>1067</ele>
        <time>2023-05-19T08:22:14.000Z</time>
      </trkpt>
      <trkpt lat="46.00164" lon="5.63935">
        <ele>1067.1999511719</ele>
        <time>2023-05-19T08:22:20.000Z</time>
      </trkpt>
      <trkpt lat="46.00158" lon="5.63936">
        <ele>1066.8000488281</ele>
        <time>2023-05-19T08:26:02.000Z</time>
      </trkpt>
      <trkpt lat="46.00155" lon="5.63937">
        <ele>1066.8000488281</ele>
        <time>2023-05-19T08:26:03.000Z</time>
      </trkpt>
      <trkpt lat="46.00143" lon="5.6394">
        <ele>1066.8000488281</ele>
        <time>2023-05-19T08:26:08.000Z</time>
      </trkpt>
      <trkpt lat="46.00122" lon="5.63946">
        <ele>1066.8000488281</ele>
        <time>2023-05-19T08:26:16.000Z</time>
      </trkpt>
      <trkpt lat="46.00111" lon="5.63949">
        <ele>1068.4000244141</ele>
        <time>2023-05-19T08:26:21.000Z</time>
      </trkpt>
      <trkpt lat="46.00109" lon="5.6395">
        <ele>1068.4000244141</ele>
        <time>2023-05-19T08:26:22.000Z</time>
      </trkpt>
      <trkpt lat="46.00102" lon="5.63951">
        <ele>1069.5999755859</ele>
        <time>2023-05-19T08:26:26.000Z</time>
      </trkpt>
      <trkpt lat="46.001" lon="5.63951">
        <ele>1070.1999511719</ele>
        <time>2023-05-19T08:26:27.000Z</time>
      </trkpt>
      <trkpt lat="46.00099" lon="5.63951">
        <ele>1070.8000488281</ele>
        <time>2023-05-19T08:26:28.000Z</time>
      </trkpt>
      <trkpt lat="46.00093" lon="5.63951">
        <ele>1071.8000488281</ele>
        <time>2023-05-19T08:26:32.000Z</time>
      </trkpt>
      <trkpt lat="46.00091" lon="5.63951">
        <ele>1072</ele>
        <time>2023-05-19T08:26:33.000Z</time>
      </trkpt>
      <trkpt lat="46.0008" lon="5.63949">
        <ele>1072.5999755859</ele>
        <time>2023-05-19T08:26:39.000Z</time>
      </trkpt>
      <trkpt lat="46.00079" lon="5.63948">
        <ele>1072.8000488281</ele>
        <time>2023-05-19T08:26:40.000Z</time>
      </trkpt>
      <trkpt lat="46.00076" lon="5.63947">
        <ele>1074</ele>
        <time>2023-05-19T08:26:42.000Z</time>
      </trkpt>
      <trkpt lat="46.00068" lon="5.63946">
        <ele>1075</ele>
        <time>2023-05-19T08:26:47.000Z</time>
      </trkpt>
      <trkpt lat="46.00066" lon="5.63946">
        <ele>1076</ele>
        <time>2023-05-19T08:26:49.000Z</time>
      </trkpt>
      <trkpt lat="46.00063" lon="5.63946">
        <ele>1076.4000244141</ele>
        <time>2023-05-19T08:26:51.000Z</time>
      </trkpt>
      <trkpt lat="46.00056" lon="5.63945">
        <ele>1077.8000488281</ele>
        <time>2023-05-19T08:26:55.000Z</time>
      </trkpt>
      <trkpt lat="46.00053" lon="5.63946">
        <ele>1078.1999511719</ele>
        <time>2023-05-19T08:26:57.000Z</time>
      </trkpt>
      <trkpt lat="46.0005" lon="5.63947">
        <ele>1078.4000244141</ele>
        <time>2023-05-19T08:26:59.000Z</time>
      </trkpt>
      <trkpt lat="46.00044" lon="5.63949">
        <ele>1078.8000488281</ele>
        <time>2023-05-19T08:27:02.000Z</time>
      </trkpt>
      <trkpt lat="46.00035" lon="5.63951">
        <ele>1079</ele>
        <time>2023-05-19T08:27:07.000Z</time>
      </trkpt>
      <trkpt lat="46.00022" lon="5.63951">
        <ele>1079.1999511719</ele>
        <time>2023-05-19T08:27:12.000Z</time>
      </trkpt>
      <trkpt lat="46.00018" lon="5.63949">
        <ele>1079</ele>
        <time>2023-05-19T08:27:13.000Z</time>
      </trkpt>
      <trkpt lat="46.00006" lon="5.6394">
        <ele>1078.8000488281</ele>
        <time>2023-05-19T08:27:16.000Z</time>
      </trkpt>
      <trkpt lat="46.00002" lon="5.63936">
        <ele>1078.8000488281</ele>
        <time>2023-05-19T08:27:17.000Z</time>
      </trkpt>
      <trkpt lat="45.99996" lon="5.63929">
        <ele>1078.4000244141</ele>
        <time>2023-05-19T08:27:19.000Z</time>
      </trkpt>
      <trkpt lat="45.9999" lon="5.63914">
        <ele>1077.8000488281</ele>
        <time>2023-05-19T08:27:22.000Z</time>
      </trkpt>
      <trkpt lat="45.99985" lon="5.63899">
        <ele>1077.5999755859</ele>
        <time>2023-05-19T08:27:27.000Z</time>
      </trkpt>
      <trkpt lat="45.99981" lon="5.63882">
        <ele>1078.8000488281</ele>
        <time>2023-05-19T08:27:33.000Z</time>
      </trkpt>
      <trkpt lat="45.99982" lon="5.63869">
        <ele>1080</ele>
        <time>2023-05-19T08:27:37.000Z</time>
      </trkpt>
      <trkpt lat="45.99983" lon="5.6386">
        <ele>1081.1999511719</ele>
        <time>2023-05-19T08:27:40.000Z</time>
      </trkpt>
      <trkpt lat="45.99981" lon="5.6385">
        <ele>1082.1999511719</ele>
        <time>2023-05-19T08:27:43.000Z</time>
      </trkpt>
      <trkpt lat="45.9998" lon="5.63842">
        <ele>1083.4000244141</ele>
        <time>2023-05-19T08:27:46.000Z</time>
      </trkpt>
      <trkpt lat="45.99978" lon="5.63839">
        <ele>1084.5999755859</ele>
        <time>2023-05-19T08:27:48.000Z</time>
      </trkpt>
      <trkpt lat="45.99971" lon="5.63835">
        <ele>1085.5999755859</ele>
        <time>2023-05-19T08:27:52.000Z</time>
      </trkpt>
      <trkpt lat="45.99966" lon="5.63835">
        <ele>1086.5999755859</ele>
        <time>2023-05-19T08:27:55.000Z</time>
      </trkpt>
      <trkpt lat="45.99958" lon="5.63836">
        <ele>1087.1999511719</ele>
        <time>2023-05-19T08:28:00.000Z</time>
      </trkpt>
      <trkpt lat="45.99955" lon="5.63836">
        <ele>1087.5999755859</ele>
        <time>2023-05-19T08:28:02.000Z</time>
      </trkpt>
      <trkpt lat="45.9995" lon="5.63843">
        <ele>1088</ele>
        <time>2023-05-19T08:28:05.000Z</time>
      </trkpt>
      <trkpt lat="45.99943" lon="5.63859">
        <ele>1088.8000488281</ele>
        <time>2023-05-19T08:28:11.000Z</time>
      </trkpt>
      <trkpt lat="45.99942" lon="5.63862">
        <ele>1088.8000488281</ele>
        <time>2023-05-19T08:28:12.000Z</time>
      </trkpt>
      <trkpt lat="45.99936" lon="5.63883">
        <ele>1089.4000244141</ele>
        <time>2023-05-19T08:28:18.000Z</time>
      </trkpt>
      <trkpt lat="45.99927" lon="5.63902">
        <ele>1089.4000244141</ele>
        <time>2023-05-19T08:28:24.000Z</time>
      </trkpt>
      <trkpt lat="45.99924" lon="5.63911">
        <ele>1089.8000488281</ele>
        <time>2023-05-19T08:28:27.000Z</time>
      </trkpt>
      <trkpt lat="45.99915" lon="5.6393">
        <ele>1090</ele>
        <time>2023-05-19T08:28:33.000Z</time>
      </trkpt>
      <trkpt lat="45.99909" lon="5.63944">
        <ele>1090.4000244141</ele>
        <time>2023-05-19T08:28:39.000Z</time>
      </trkpt>
      <trkpt lat="45.99906" lon="5.6395">
        <ele>1090.4000244141</ele>
        <time>2023-05-19T08:28:42.000Z</time>
      </trkpt>
      <trkpt lat="45.99905" lon="5.63953">
        <ele>1090.4000244141</ele>
        <time>2023-05-19T08:28:44.000Z</time>
      </trkpt>
      <trkpt lat="45.99904" lon="5.63955">
        <ele>1090.4000244141</ele>
        <time>2023-05-19T08:28:45.000Z</time>
      </trkpt>
      <trkpt lat="45.99904" lon="5.63955">
        <ele>1090.4000244141</ele>
        <time>2023-05-19T08:28:47.000Z</time>
      </trkpt>
      <trkpt lat="45.9991" lon="5.63944">
        <ele>1090.8000488281</ele>
        <time>2023-05-19T08:31:24.000Z</time>
      </trkpt>
      <trkpt lat="45.99911" lon="5.63942">
        <ele>1090.8000488281</ele>
        <time>2023-05-19T08:31:25.000Z</time>
      </trkpt>
      <trkpt lat="45.99913" lon="5.63938">
        <ele>1090.8000488281</ele>
        <time>2023-05-19T08:31:27.000Z</time>
      </trkpt>
      <trkpt lat="45.9992" lon="5.63919">
        <ele>1090.8000488281</ele>
        <time>2023-05-19T08:31:33.000Z</time>
      </trkpt>
      <trkpt lat="45.99931" lon="5.63891">
        <ele>1090.5999755859</ele>
        <time>2023-05-19T08:31:40.000Z</time>
      </trkpt>
      <trkpt lat="45.99938" lon="5.63868">
        <ele>1090</ele>
        <time>2023-05-19T08:31:45.000Z</time>
      </trkpt>
      <trkpt lat="45.99945" lon="5.63856">
        <ele>1090</ele>
        <time>2023-05-19T08:31:48.000Z</time>
      </trkpt>
      <trkpt lat="45.99951" lon="5.63841">
        <ele>1089.8000488281</ele>
        <time>2023-05-19T08:31:52.000Z</time>
      </trkpt>
      <trkpt lat="45.99951" lon="5.63816">
        <ele>1089.1999511719</ele>
        <time>2023-05-19T08:31:57.000Z</time>
      </trkpt>
      <trkpt lat="45.9995" lon="5.63811">
        <ele>1089.1999511719</ele>
        <time>2023-05-19T08:31:58.000Z</time>
      </trkpt>
      <trkpt lat="45.99945" lon="5.63783">
        <ele>1088.5999755859</ele>
        <time>2023-05-19T08:32:03.000Z</time>
      </trkpt>
      <trkpt lat="45.99945" lon="5.63754">
        <ele>1088.4000244141</ele>
        <time>2023-05-19T08:32:08.000Z</time>
      </trkpt>
      <trkpt lat="45.99946" lon="5.63725">
        <ele>1088.5999755859</ele>
        <time>2023-05-19T08:32:13.000Z</time>
      </trkpt>
      <trkpt lat="45.99948" lon="5.63691">
        <ele>1089</ele>
        <time>2023-05-19T08:32:19.000Z</time>
      </trkpt>
      <trkpt lat="45.99952" lon="5.63663">
        <ele>1089.5999755859</ele>
        <time>2023-05-19T08:32:24.000Z</time>
      </trkpt>
      <trkpt lat="45.99952" lon="5.63652">
        <ele>1090.1999511719</ele>
        <time>2023-05-19T08:32:26.000Z</time>
      </trkpt>
      <trkpt lat="45.99951" lon="5.63632">
        <ele>1090.8000488281</ele>
        <time>2023-05-19T08:32:30.000Z</time>
      </trkpt>
      <trkpt lat="45.99948" lon="5.63622">
        <ele>1091.1999511719</ele>
        <time>2023-05-19T08:32:32.000Z</time>
      </trkpt>
      <trkpt lat="45.99938" lon="5.63607">
        <ele>1091.8000488281</ele>
        <time>2023-05-19T08:32:36.000Z</time>
      </trkpt>
      <trkpt lat="45.99928" lon="5.63594">
        <ele>1092.1999511719</ele>
        <time>2023-05-19T08:32:40.000Z</time>
      </trkpt>
      <trkpt lat="45.99915" lon="5.6358">
        <ele>1092.5999755859</ele>
        <time>2023-05-19T08:32:45.000Z</time>
      </trkpt>
      <trkpt lat="45.99898" lon="5.63568">
        <ele>1093.1999511719</ele>
        <time>2023-05-19T08:32:52.000Z</time>
      </trkpt>
      <trkpt lat="45.99892" lon="5.63564">
        <ele>1093.4000244141</ele>
        <time>2023-05-19T08:32:54.000Z</time>
      </trkpt>
      <trkpt lat="45.99881" lon="5.63558">
        <ele>1094.4000244141</ele>
        <time>2023-05-19T08:32:58.000Z</time>
      </trkpt>
      <trkpt lat="45.99867" lon="5.63552">
        <ele>1095</ele>
        <time>2023-05-19T08:33:03.000Z</time>
      </trkpt>
      <trkpt lat="45.99854" lon="5.63546">
        <ele>1095.5999755859</ele>
        <time>2023-05-19T08:33:08.000Z</time>
      </trkpt>
      <trkpt lat="45.99837" lon="5.6354">
        <ele>1096.1999511719</ele>
        <time>2023-05-19T08:33:14.000Z</time>
      </trkpt>
      <trkpt lat="45.99826" lon="5.63537">
        <ele>1096.5999755859</ele>
        <time>2023-05-19T08:33:18.000Z</time>
      </trkpt>
      <trkpt lat="45.99813" lon="5.63534">
        <ele>1097.1999511719</ele>
        <time>2023-05-19T08:33:23.000Z</time>
      </trkpt>
      <trkpt lat="45.9979" lon="5.63529">
        <ele>1097.4000244141</ele>
        <time>2023-05-19T08:33:31.000Z</time>
      </trkpt>
      <trkpt lat="45.99761" lon="5.63525">
        <ele>1097.1999511719</ele>
        <time>2023-05-19T08:33:40.000Z</time>
      </trkpt>
      <trkpt lat="45.99732" lon="5.63519">
        <ele>1097.5999755859</ele>
        <time>2023-05-19T08:33:49.000Z</time>
      </trkpt>
      <trkpt lat="45.99699" lon="5.63513">
        <ele>1098.1999511719</ele>
        <time>2023-05-19T08:33:59.000Z</time>
      </trkpt>
      <trkpt lat="45.99674" lon="5.63507">
        <ele>1098.1999511719</ele>
        <time>2023-05-19T08:34:05.000Z</time>
      </trkpt>
      <trkpt lat="45.99658" lon="5.63504">
        <ele>1097.8000488281</ele>
        <time>2023-05-19T08:34:09.000Z</time>
      </trkpt>
      <trkpt lat="45.99645" lon="5.63503">
        <ele>1097.5999755859</ele>
        <time>2023-05-19T08:34:13.000Z</time>
      </trkpt>
      <trkpt lat="45.99618" lon="5.63496">
        <ele>1097.5999755859</ele>
        <time>2023-05-19T08:34:20.000Z</time>
      </trkpt>
      <trkpt lat="45.99595" lon="5.63491">
        <ele>1098.4000244141</ele>
        <time>2023-05-19T08:34:26.000Z</time>
      </trkpt>
      <trkpt lat="45.99591" lon="5.63491">
        <ele>1098.8000488281</ele>
        <time>2023-05-19T08:34:27.000Z</time>
      </trkpt>
      <trkpt lat="45.99577" lon="5.63489">
        <ele>1099.5999755859</ele>
        <time>2023-05-19T08:34:31.000Z</time>
      </trkpt>
      <trkpt lat="45.99571" lon="5.63487">
        <ele>1099.8000488281</ele>
        <time>2023-05-19T08:34:33.000Z</time>
      </trkpt>
      <trkpt lat="45.99552" lon="5.6348">
        <ele>1101</ele>
        <time>2023-05-19T08:34:39.000Z</time>
      </trkpt>
      <trkpt lat="45.99538" lon="5.63475">
        <ele>1102.1999511719</ele>
        <time>2023-05-19T08:34:43.000Z</time>
      </trkpt>
      <trkpt lat="45.99524" lon="5.63463">
        <ele>1103</ele>
        <time>2023-05-19T08:34:48.000Z</time>
      </trkpt>
      <trkpt lat="45.99516" lon="5.63457">
        <ele>1103.1999511719</ele>
        <time>2023-05-19T08:34:51.000Z</time>
      </trkpt>
      <trkpt lat="45.99499" lon="5.63446">
        <ele>1103.8000488281</ele>
        <time>2023-05-19T08:34:56.000Z</time>
      </trkpt>
      <trkpt lat="45.99491" lon="5.63441">
        <ele>1104.1999511719</ele>
        <time>2023-05-19T08:34:59.000Z</time>
      </trkpt>
      <trkpt lat="45.99478" lon="5.63432">
        <ele>1104.5999755859</ele>
        <time>2023-05-19T08:35:04.000Z</time>
      </trkpt>
      <trkpt lat="45.99461" lon="5.63417">
        <ele>1105</ele>
        <time>2023-05-19T08:35:11.000Z</time>
      </trkpt>
      <trkpt lat="45.99454" lon="5.63411">
        <ele>1105.1999511719</ele>
        <time>2023-05-19T08:35:14.000Z</time>
      </trkpt>
      <trkpt lat="45.99443" lon="5.63403">
        <ele>1105.1999511719</ele>
        <time>2023-05-19T08:35:18.000Z</time>
      </trkpt>
      <trkpt lat="45.99425" lon="5.6339">
        <ele>1105.5999755859</ele>
        <time>2023-05-19T08:35:25.000Z</time>
      </trkpt>
      <trkpt lat="45.99407" lon="5.63377">
        <ele>1106.1999511719</ele>
        <time>2023-05-19T08:35:31.000Z</time>
      </trkpt>
      <trkpt lat="45.99404" lon="5.63375">
        <ele>1106.4000244141</ele>
        <time>2023-05-19T08:35:32.000Z</time>
      </trkpt>
      <trkpt lat="45.99395" lon="5.63359">
        <ele>1107</ele>
        <time>2023-05-19T08:35:37.000Z</time>
      </trkpt>
      <trkpt lat="45.99391" lon="5.63346">
        <ele>1107.4000244141</ele>
        <time>2023-05-19T08:35:40.000Z</time>
      </trkpt>
      <trkpt lat="45.99387" lon="5.63331">
        <ele>1107.8000488281</ele>
        <time>2023-05-19T08:35:43.000Z</time>
      </trkpt>
      <trkpt lat="45.99385" lon="5.63305">
        <ele>1108.1999511719</ele>
        <time>2023-05-19T08:35:48.000Z</time>
      </trkpt>
      <trkpt lat="45.99383" lon="5.63292">
        <ele>1108.4000244141</ele>
        <time>2023-05-19T08:35:50.000Z</time>
      </trkpt>
      <trkpt lat="45.99381" lon="5.6328">
        <ele>1108.1999511719</ele>
        <time>2023-05-19T08:35:52.000Z</time>
      </trkpt>
      <trkpt lat="45.99379" lon="5.63274">
        <ele>1108.1999511719</ele>
        <time>2023-05-19T08:35:53.000Z</time>
      </trkpt>
      <trkpt lat="45.99374" lon="5.63258">
        <ele>1108.1999511719</ele>
        <time>2023-05-19T08:35:55.000Z</time>
      </trkpt>
      <trkpt lat="45.99371" lon="5.63249">
        <ele>1108</ele>
        <time>2023-05-19T08:35:56.000Z</time>
      </trkpt>
      <trkpt lat="45.9936" lon="5.63205">
        <ele>1106</ele>
        <time>2023-05-19T08:36:00.000Z</time>
      </trkpt>
      <trkpt lat="45.99353" lon="5.63151">
        <ele>1103.8000488281</ele>
        <time>2023-05-19T08:36:04.000Z</time>
      </trkpt>
      <trkpt lat="45.99352" lon="5.63126">
        <ele>1102.8000488281</ele>
        <time>2023-05-19T08:36:06.000Z</time>
      </trkpt>
      <trkpt lat="45.99353" lon="5.63091">
        <ele>1101</ele>
        <time>2023-05-19T08:36:09.000Z</time>
      </trkpt>
      <trkpt lat="45.99354" lon="5.63082">
        <ele>1100.5999755859</ele>
        <time>2023-05-19T08:36:10.000Z</time>
      </trkpt>
      <trkpt lat="45.99353" lon="5.63065">
        <ele>1099.8000488281</ele>
        <time>2023-05-19T08:36:12.000Z</time>
      </trkpt>
      <trkpt lat="45.99352" lon="5.6306">
        <ele>1099.4000244141</ele>
        <time>2023-05-19T08:36:13.000Z</time>
      </trkpt>
      <trkpt lat="45.99349" lon="5.63056">
        <ele>1099.1999511719</ele>
        <time>2023-05-19T08:36:14.000Z</time>
      </trkpt>
      <trkpt lat="45.99339" lon="5.63057">
        <ele>1098.8000488281</ele>
        <time>2023-05-19T08:36:16.000Z</time>
      </trkpt>
      <trkpt lat="45.99333" lon="5.63061">
        <ele>1098.8000488281</ele>
        <time>2023-05-19T08:36:17.000Z</time>
      </trkpt>
      <trkpt lat="45.99324" lon="5.6307">
        <ele>1098.4000244141</ele>
        <time>2023-05-19T08:36:19.000Z</time>
      </trkpt>
      <trkpt lat="45.99319" lon="5.63075">
        <ele>1097.8000488281</ele>
        <time>2023-05-19T08:36:20.000Z</time>
      </trkpt>
      <trkpt lat="45.99306" lon="5.63088">
        <ele>1096.5999755859</ele>
        <time>2023-05-19T08:36:23.000Z</time>
      </trkpt>
      <trkpt lat="45.99298" lon="5.63095">
        <ele>1096.1999511719</ele>
        <time>2023-05-19T08:36:25.000Z</time>
      </trkpt>
      <trkpt lat="45.99284" lon="5.63108">
        <ele>1096.1999511719</ele>
        <time>2023-05-19T08:36:29.000Z</time>
      </trkpt>
      <trkpt lat="45.99276" lon="5.63116">
        <ele>1096.1999511719</ele>
        <time>2023-05-19T08:36:31.000Z</time>
      </trkpt>
      <trkpt lat="45.99272" lon="5.6312">
        <ele>1096.1999511719</ele>
        <time>2023-05-19T08:36:32.000Z</time>
      </trkpt>
      <trkpt lat="45.99251" lon="5.63142">
        <ele>1096.5999755859</ele>
        <time>2023-05-19T08:36:38.000Z</time>
      </trkpt>
      <trkpt lat="45.99234" lon="5.63159">
        <ele>1096.8000488281</ele>
        <time>2023-05-19T08:36:43.000Z</time>
      </trkpt>
      <trkpt lat="45.99216" lon="5.63184">
        <ele>1097</ele>
        <time>2023-05-19T08:36:49.000Z</time>
      </trkpt>
      <trkpt lat="45.99213" lon="5.63187">
        <ele>1097.4000244141</ele>
        <time>2023-05-19T08:36:50.000Z</time>
      </trkpt>
      <trkpt lat="45.99196" lon="5.63205">
        <ele>1098.1999511719</ele>
        <time>2023-05-19T08:36:55.000Z</time>
      </trkpt>
      <trkpt lat="45.99171" lon="5.63225">
        <ele>1098</ele>
        <time>2023-05-19T08:37:01.000Z</time>
      </trkpt>
      <trkpt lat="45.99141" lon="5.63251">
        <ele>1097.8000488281</ele>
        <time>2023-05-19T08:37:08.000Z</time>
      </trkpt>
      <trkpt lat="45.99116" lon="5.63266">
        <ele>1097.5999755859</ele>
        <time>2023-05-19T08:37:13.000Z</time>
      </trkpt>
      <trkpt lat="45.99094" lon="5.63254">
        <ele>1097.1999511719</ele>
        <time>2023-05-19T08:37:19.000Z</time>
      </trkpt>
      <trkpt lat="45.99064" lon="5.63235">
        <ele>1097.5999755859</ele>
        <time>2023-05-19T08:37:26.000Z</time>
      </trkpt>
      <trkpt lat="45.99055" lon="5.63231">
        <ele>1097.8000488281</ele>
        <time>2023-05-19T08:37:28.000Z</time>
      </trkpt>
      <trkpt lat="45.99036" lon="5.63227">
        <ele>1098.1999511719</ele>
        <time>2023-05-19T08:37:32.000Z</time>
      </trkpt>
      <trkpt lat="45.99027" lon="5.63225">
        <ele>1098.5999755859</ele>
        <time>2023-05-19T08:37:34.000Z</time>
      </trkpt>
      <trkpt lat="45.99018" lon="5.63224">
        <ele>1099</ele>
        <time>2023-05-19T08:37:36.000Z</time>
      </trkpt>
      <trkpt lat="45.99006" lon="5.63224">
        <ele>1099.4000244141</ele>
        <time>2023-05-19T08:37:39.000Z</time>
      </trkpt>
      <trkpt lat="45.98997" lon="5.63224">
        <ele>1099.8000488281</ele>
        <time>2023-05-19T08:37:41.000Z</time>
      </trkpt>
      <trkpt lat="45.98976" lon="5.63225">
        <ele>1100.4000244141</ele>
        <time>2023-05-19T08:37:46.000Z</time>
      </trkpt>
      <trkpt lat="45.98972" lon="5.63225">
        <ele>1100.4000244141</ele>
        <time>2023-05-19T08:37:47.000Z</time>
      </trkpt>
      <trkpt lat="45.98964" lon="5.63227">
        <ele>1100.4000244141</ele>
        <time>2023-05-19T08:37:49.000Z</time>
      </trkpt>
      <trkpt lat="45.98944" lon="5.63236">
        <ele>1100.1999511719</ele>
        <time>2023-05-19T08:37:54.000Z</time>
      </trkpt>
      <trkpt lat="45.9892" lon="5.63246">
        <ele>1100</ele>
        <time>2023-05-19T08:38:00.000Z</time>
      </trkpt>
      <trkpt lat="45.98912" lon="5.63252">
        <ele>1099.5999755859</ele>
        <time>2023-05-19T08:38:02.000Z</time>
      </trkpt>
      <trkpt lat="45.98889" lon="5.63266">
        <ele>1098.8000488281</ele>
        <time>2023-05-19T08:38:07.000Z</time>
      </trkpt>
      <trkpt lat="45.98884" lon="5.63267">
        <ele>1098.8000488281</ele>
        <time>2023-05-19T08:38:08.000Z</time>
      </trkpt>
      <trkpt lat="45.98878" lon="5.63268">
        <ele>1098.5999755859</ele>
        <time>2023-05-19T08:38:09.000Z</time>
      </trkpt>
      <trkpt lat="45.98854" lon="5.63267">
        <ele>1097.8000488281</ele>
        <time>2023-05-19T08:38:13.000Z</time>
      </trkpt>
      <trkpt lat="45.98841" lon="5.63267">
        <ele>1097.4000244141</ele>
        <time>2023-05-19T08:38:15.000Z</time>
      </trkpt>
      <trkpt lat="45.9883" lon="5.6327">
        <ele>1097</ele>
        <time>2023-05-19T08:38:17.000Z</time>
      </trkpt>
      <trkpt lat="45.9882" lon="5.63274">
        <ele>1097</ele>
        <time>2023-05-19T08:38:19.000Z</time>
      </trkpt>
      <trkpt lat="45.9881" lon="5.63278">
        <ele>1096.8000488281</ele>
        <time>2023-05-19T08:38:21.000Z</time>
      </trkpt>
      <trkpt lat="45.98799" lon="5.63281">
        <ele>1096.8000488281</ele>
        <time>2023-05-19T08:38:23.000Z</time>
      </trkpt>
      <trkpt lat="45.98793" lon="5.63281">
        <ele>1096.5999755859</ele>
        <time>2023-05-19T08:38:24.000Z</time>
      </trkpt>
      <trkpt lat="45.98782" lon="5.63281">
        <ele>1096.4000244141</ele>
        <time>2023-05-19T08:38:26.000Z</time>
      </trkpt>
      <trkpt lat="45.98775" lon="5.63281">
        <ele>1096.1999511719</ele>
        <time>2023-05-19T08:38:27.000Z</time>
      </trkpt>
      <trkpt lat="45.98756" lon="5.63283">
        <ele>1096</ele>
        <time>2023-05-19T08:38:30.000Z</time>
      </trkpt>
      <trkpt lat="45.9875" lon="5.63284">
        <ele>1095.8000488281</ele>
        <time>2023-05-19T08:38:31.000Z</time>
      </trkpt>
      <trkpt lat="45.98739" lon="5.63284">
        <ele>1096</ele>
        <time>2023-05-19T08:38:34.000Z</time>
      </trkpt>
      <trkpt lat="45.9871" lon="5.63287">
        <ele>1095.8000488281</ele>
        <time>2023-05-19T08:38:40.000Z</time>
      </trkpt>
      <trkpt lat="45.98697" lon="5.63288">
        <ele>1096</ele>
        <time>2023-05-19T08:38:42.000Z</time>
      </trkpt>
      <trkpt lat="45.98685" lon="5.63287">
        <ele>1095.8000488281</ele>
        <time>2023-05-19T08:38:44.000Z</time>
      </trkpt>
      <trkpt lat="45.98679" lon="5.63286">
        <ele>1095.5999755859</ele>
        <time>2023-05-19T08:38:45.000Z</time>
      </trkpt>
      <trkpt lat="45.98667" lon="5.63282">
        <ele>1095</ele>
        <time>2023-05-19T08:38:47.000Z</time>
      </trkpt>
      <trkpt lat="45.98656" lon="5.63278">
        <ele>1094.8000488281</ele>
        <time>2023-05-19T08:38:49.000Z</time>
      </trkpt>
      <trkpt lat="45.98635" lon="5.63273">
        <ele>1094.5999755859</ele>
        <time>2023-05-19T08:38:53.000Z</time>
      </trkpt>
      <trkpt lat="45.98631" lon="5.63273">
        <ele>1094.4000244141</ele>
        <time>2023-05-19T08:38:54.000Z</time>
      </trkpt>
      <trkpt lat="45.98611" lon="5.6327">
        <ele>1093.8000488281</ele>
        <time>2023-05-19T08:38:59.000Z</time>
      </trkpt>
      <trkpt lat="45.98606" lon="5.63269">
        <ele>1093.5999755859</ele>
        <time>2023-05-19T08:39:00.000Z</time>
      </trkpt>
      <trkpt lat="45.98587" lon="5.63266">
        <ele>1093.4000244141</ele>
        <time>2023-05-19T08:39:04.000Z</time>
      </trkpt>
      <trkpt lat="45.98577" lon="5.63269">
        <ele>1093.4000244141</ele>
        <time>2023-05-19T08:39:06.000Z</time>
      </trkpt>
      <trkpt lat="45.98534" lon="5.63289">
        <ele>1093.5999755859</ele>
        <time>2023-05-19T08:39:14.000Z</time>
      </trkpt>
      <trkpt lat="45.9851" lon="5.63306">
        <ele>1092.8000488281</ele>
        <time>2023-05-19T08:39:18.000Z</time>
      </trkpt>
      <trkpt lat="45.98505" lon="5.6331">
        <ele>1092.4000244141</ele>
        <time>2023-05-19T08:39:19.000Z</time>
      </trkpt>
      <trkpt lat="45.98493" lon="5.63321">
        <ele>1091.8000488281</ele>
        <time>2023-05-19T08:39:21.000Z</time>
      </trkpt>
      <trkpt lat="45.98488" lon="5.63327">
        <ele>1091.4000244141</ele>
        <time>2023-05-19T08:39:22.000Z</time>
      </trkpt>
      <trkpt lat="45.98479" lon="5.63341">
        <ele>1090.8000488281</ele>
        <time>2023-05-19T08:39:24.000Z</time>
      </trkpt>
      <trkpt lat="45.98475" lon="5.63349">
        <ele>1090.5999755859</ele>
        <time>2023-05-19T08:39:25.000Z</time>
      </trkpt>
      <trkpt lat="45.98459" lon="5.63381">
        <ele>1090</ele>
        <time>2023-05-19T08:39:29.000Z</time>
      </trkpt>
      <trkpt lat="45.98455" lon="5.63389">
        <ele>1089.8000488281</ele>
        <time>2023-05-19T08:39:30.000Z</time>
      </trkpt>
      <trkpt lat="45.98448" lon="5.63398">
        <ele>1089.4000244141</ele>
        <time>2023-05-19T08:39:31.000Z</time>
      </trkpt>
      <trkpt lat="45.98425" lon="5.63422">
        <ele>1088.1999511719</ele>
        <time>2023-05-19T08:39:35.000Z</time>
      </trkpt>
      <trkpt lat="45.9841" lon="5.63437">
        <ele>1087.4000244141</ele>
        <time>2023-05-19T08:39:37.000Z</time>
      </trkpt>
      <trkpt lat="45.98404" lon="5.63443">
        <ele>1086.8000488281</ele>
        <time>2023-05-19T08:39:38.000Z</time>
      </trkpt>
      <trkpt lat="45.98397" lon="5.63446">
        <ele>1086.5999755859</ele>
        <time>2023-05-19T08:39:39.000Z</time>
      </trkpt>
      <trkpt lat="45.98391" lon="5.63449">
        <ele>1085.5999755859</ele>
        <time>2023-05-19T08:39:40.000Z</time>
      </trkpt>
      <trkpt lat="45.98384" lon="5.6345">
        <ele>1085.1999511719</ele>
        <time>2023-05-19T08:39:41.000Z</time>
      </trkpt>
      <trkpt lat="45.98376" lon="5.63452">
        <ele>1084.1999511719</ele>
        <time>2023-05-19T08:39:42.000Z</time>
      </trkpt>
      <trkpt lat="45.98358" lon="5.63455">
        <ele>1083</ele>
        <time>2023-05-19T08:39:45.000Z</time>
      </trkpt>
      <trkpt lat="45.98343" lon="5.63457">
        <ele>1082.1999511719</ele>
        <time>2023-05-19T08:39:47.000Z</time>
      </trkpt>
      <trkpt lat="45.98338" lon="5.63457">
        <ele>1082</ele>
        <time>2023-05-19T08:39:48.000Z</time>
      </trkpt>
      <trkpt lat="45.98326" lon="5.63453">
        <ele>1080.8000488281</ele>
        <time>2023-05-19T08:39:50.000Z</time>
      </trkpt>
      <trkpt lat="45.98313" lon="5.63446">
        <ele>1080.4000244141</ele>
        <time>2023-05-19T08:39:52.000Z</time>
      </trkpt>
      <trkpt lat="45.98295" lon="5.63436">
        <ele>1079.8000488281</ele>
        <time>2023-05-19T08:39:56.000Z</time>
      </trkpt>
      <trkpt lat="45.98291" lon="5.63434">
        <ele>1079.8000488281</ele>
        <time>2023-05-19T08:39:57.000Z</time>
      </trkpt>
      <trkpt lat="45.98266" lon="5.63422">
        <ele>1079.1999511719</ele>
        <time>2023-05-19T08:40:04.000Z</time>
      </trkpt>
      <trkpt lat="45.98244" lon="5.63416">
        <ele>1078.8000488281</ele>
        <time>2023-05-19T08:40:10.000Z</time>
      </trkpt>
      <trkpt lat="45.9824" lon="5.63416">
        <ele>1078.5999755859</ele>
        <time>2023-05-19T08:40:11.000Z</time>
      </trkpt>
      <trkpt lat="45.98217" lon="5.63423">
        <ele>1078.1999511719</ele>
        <time>2023-05-19T08:40:17.000Z</time>
      </trkpt>
      <trkpt lat="45.98207" lon="5.63434">
        <ele>1078</ele>
        <time>2023-05-19T08:40:20.000Z</time>
      </trkpt>
      <trkpt lat="45.98199" lon="5.63448">
        <ele>1078</ele>
        <time>2023-05-19T08:40:23.000Z</time>
      </trkpt>
      <trkpt lat="45.98191" lon="5.63465">
        <ele>1078.1999511719</ele>
        <time>2023-05-19T08:40:26.000Z</time>
      </trkpt>
      <trkpt lat="45.98178" lon="5.63485">
        <ele>1078.5999755859</ele>
        <time>2023-05-19T08:40:30.000Z</time>
      </trkpt>
      <trkpt lat="45.98171" lon="5.63494">
        <ele>1079</ele>
        <time>2023-05-19T08:40:32.000Z</time>
      </trkpt>
      <trkpt lat="45.98157" lon="5.63507">
        <ele>1079.4000244141</ele>
        <time>2023-05-19T08:40:36.000Z</time>
      </trkpt>
      <trkpt lat="45.9815" lon="5.63512">
        <ele>1079.5999755859</ele>
        <time>2023-05-19T08:40:38.000Z</time>
      </trkpt>
      <trkpt lat="45.98146" lon="5.63515">
        <ele>1079.8000488281</ele>
        <time>2023-05-19T08:40:39.000Z</time>
      </trkpt>
      <trkpt lat="45.98134" lon="5.63519">
        <ele>1080.4000244141</ele>
        <time>2023-05-19T08:40:42.000Z</time>
      </trkpt>
      <trkpt lat="45.98129" lon="5.6352">
        <ele>1080.5999755859</ele>
        <time>2023-05-19T08:40:43.000Z</time>
      </trkpt>
      <trkpt lat="45.98117" lon="5.63518">
        <ele>1081</ele>
        <time>2023-05-19T08:40:46.000Z</time>
      </trkpt>
      <trkpt lat="45.98113" lon="5.63517">
        <ele>1081.4000244141</ele>
        <time>2023-05-19T08:40:47.000Z</time>
      </trkpt>
      <trkpt lat="45.98109" lon="5.63515">
        <ele>1081.5999755859</ele>
        <time>2023-05-19T08:40:48.000Z</time>
      </trkpt>
      <trkpt lat="45.98103" lon="5.63512">
        <ele>1082.1999511719</ele>
        <time>2023-05-19T08:40:50.000Z</time>
      </trkpt>
      <trkpt lat="45.98092" lon="5.63508">
        <ele>1083.1999511719</ele>
        <time>2023-05-19T08:40:53.000Z</time>
      </trkpt>
      <trkpt lat="45.98088" lon="5.63507">
        <ele>1083.4000244141</ele>
        <time>2023-05-19T08:40:54.000Z</time>
      </trkpt>
      <trkpt lat="45.98075" lon="5.63503">
        <ele>1084.4000244141</ele>
        <time>2023-05-19T08:40:58.000Z</time>
      </trkpt>
      <trkpt lat="45.98068" lon="5.635">
        <ele>1085</ele>
        <time>2023-05-19T08:41:01.000Z</time>
      </trkpt>
      <trkpt lat="45.98064" lon="5.63498">
        <ele>1086</ele>
        <time>2023-05-19T08:41:03.000Z</time>
      </trkpt>
      <trkpt lat="45.98062" lon="5.63499">
        <ele>1086.1999511719</ele>
        <time>2023-05-19T08:41:04.000Z</time>
      </trkpt>
      <trkpt lat="45.9806" lon="5.63503">
        <ele>1086.5999755859</ele>
        <time>2023-05-19T08:41:06.000Z</time>
      </trkpt>
      <trkpt lat="45.98057" lon="5.63513">
        <ele>1087.1999511719</ele>
        <time>2023-05-19T08:41:09.000Z</time>
      </trkpt>
      <trkpt lat="45.98055" lon="5.63524">
        <ele>1088</ele>
        <time>2023-05-19T08:41:12.000Z</time>
      </trkpt>
      <trkpt lat="45.98055" lon="5.63533">
        <ele>1088.4000244141</ele>
        <time>2023-05-19T08:41:15.000Z</time>
      </trkpt>
      <trkpt lat="45.98054" lon="5.63538">
        <ele>1089</ele>
        <time>2023-05-19T08:41:17.000Z</time>
      </trkpt>
      <trkpt lat="45.98053" lon="5.63541">
        <ele>1089.4000244141</ele>
        <time>2023-05-19T08:41:18.000Z</time>
      </trkpt>
      <trkpt lat="45.98053" lon="5.63543">
        <ele>1089.8000488281</ele>
        <time>2023-05-19T08:41:19.000Z</time>
      </trkpt>
      <trkpt lat="45.98051" lon="5.63548">
        <ele>1090.5999755859</ele>
        <time>2023-05-19T08:41:22.000Z</time>
      </trkpt>
      <trkpt lat="45.98048" lon="5.63557">
        <ele>1091.8000488281</ele>
        <time>2023-05-19T08:41:25.000Z</time>
      </trkpt>
      <trkpt lat="45.98048" lon="5.63558">
        <ele>1092.1999511719</ele>
        <time>2023-05-19T08:41:26.000Z</time>
      </trkpt>
      <trkpt lat="45.98045" lon="5.6356">
        <ele>1092.8000488281</ele>
        <time>2023-05-19T08:41:28.000Z</time>
      </trkpt>
      <trkpt lat="45.98042" lon="5.63564">
        <ele>1093</ele>
        <time>2023-05-19T08:41:29.000Z</time>
      </trkpt>
      <trkpt lat="45.98041" lon="5.63566">
        <ele>1093.4000244141</ele>
        <time>2023-05-19T08:41:30.000Z</time>
      </trkpt>
      <trkpt lat="45.98038" lon="5.63569">
        <ele>1094.1999511719</ele>
        <time>2023-05-19T08:41:32.000Z</time>
      </trkpt>
      <trkpt lat="45.98037" lon="5.63569">
        <ele>1094.5999755859</ele>
        <time>2023-05-19T08:41:33.000Z</time>
      </trkpt>
      <trkpt lat="45.98033" lon="5.63572">
        <ele>1095.4000244141</ele>
        <time>2023-05-19T08:41:35.000Z</time>
      </trkpt>
      <trkpt lat="45.98026" lon="5.63575">
        <ele>1096.4000244141</ele>
        <time>2023-05-19T08:41:38.000Z</time>
      </trkpt>
      <trkpt lat="45.98021" lon="5.63577">
        <ele>1097</ele>
        <time>2023-05-19T08:41:40.000Z</time>
      </trkpt>
      <trkpt lat="45.98018" lon="5.63579">
        <ele>1097.8000488281</ele>
        <time>2023-05-19T08:41:42.000Z</time>
      </trkpt>
      <trkpt lat="45.98012" lon="5.63582">
        <ele>1098.4000244141</ele>
        <time>2023-05-19T08:41:46.000Z</time>
      </trkpt>
      <trkpt lat="45.98009" lon="5.63584">
        <ele>1098.5999755859</ele>
        <time>2023-05-19T08:41:48.000Z</time>
      </trkpt>
      <trkpt lat="45.98002" lon="5.63586">
        <ele>1100</ele>
        <time>2023-05-19T08:41:53.000Z</time>
      </trkpt>
      <trkpt lat="45.97992" lon="5.63589">
        <ele>1100.5999755859</ele>
        <time>2023-05-19T08:41:58.000Z</time>
      </trkpt>
      <trkpt lat="45.97989" lon="5.63591">
        <ele>1101.1999511719</ele>
        <time>2023-05-19T08:42:00.000Z</time>
      </trkpt>
      <trkpt lat="45.97985" lon="5.63593">
        <ele>1101.8000488281</ele>
        <time>2023-05-19T08:42:03.000Z</time>
      </trkpt>
      <trkpt lat="45.97981" lon="5.63594">
        <ele>1102.4000244141</ele>
        <time>2023-05-19T08:42:06.000Z</time>
      </trkpt>
      <trkpt lat="45.97971" lon="5.63598">
        <ele>1103.4000244141</ele>
        <time>2023-05-19T08:42:13.000Z</time>
      </trkpt>
      <trkpt lat="45.9797" lon="5.63599">
        <ele>1103.8000488281</ele>
        <time>2023-05-19T08:42:14.000Z</time>
      </trkpt>
      <trkpt lat="45.97963" lon="5.63602">
        <ele>1104.4000244141</ele>
        <time>2023-05-19T08:42:18.000Z</time>
      </trkpt>
      <trkpt lat="45.97956" lon="5.63605">
        <ele>1105.1999511719</ele>
        <time>2023-05-19T08:42:22.000Z</time>
      </trkpt>
      <trkpt lat="45.97953" lon="5.63607">
        <ele>1105.5999755859</ele>
        <time>2023-05-19T08:42:24.000Z</time>
      </trkpt>
      <trkpt lat="45.97947" lon="5.63608">
        <ele>1106.1999511719</ele>
        <time>2023-05-19T08:42:28.000Z</time>
      </trkpt>
      <trkpt lat="45.97945" lon="5.63607">
        <ele>1106.8000488281</ele>
        <time>2023-05-19T08:42:30.000Z</time>
      </trkpt>
      <trkpt lat="45.97938" lon="5.63609">
        <ele>1107.5999755859</ele>
        <time>2023-05-19T08:42:34.000Z</time>
      </trkpt>
      <trkpt lat="45.97934" lon="5.63609">
        <ele>1107.8000488281</ele>
        <time>2023-05-19T08:42:37.000Z</time>
      </trkpt>
      <trkpt lat="45.97928" lon="5.63611">
        <ele>1108.4000244141</ele>
        <time>2023-05-19T08:42:41.000Z</time>
      </trkpt>
      <trkpt lat="45.97922" lon="5.6361">
        <ele>1108.5999755859</ele>
        <time>2023-05-19T08:42:45.000Z</time>
      </trkpt>
      <trkpt lat="45.97916" lon="5.63611">
        <ele>1109.4000244141</ele>
        <time>2023-05-19T08:42:48.000Z</time>
      </trkpt>
      <trkpt lat="45.97913" lon="5.63611">
        <ele>1110</ele>
        <time>2023-05-19T08:42:50.000Z</time>
      </trkpt>
      <trkpt lat="45.97908" lon="5.63611">
        <ele>1110.4000244141</ele>
        <time>2023-05-19T08:42:53.000Z</time>
      </trkpt>
      <trkpt lat="45.97905" lon="5.63612">
        <ele>1111</ele>
        <time>2023-05-19T08:42:55.000Z</time>
      </trkpt>
      <trkpt lat="45.97898" lon="5.63612">
        <ele>1111.5999755859</ele>
        <time>2023-05-19T08:42:59.000Z</time>
      </trkpt>
      <trkpt lat="45.97894" lon="5.63613">
        <ele>1112.1999511719</ele>
        <time>2023-05-19T08:43:02.000Z</time>
      </trkpt>
      <trkpt lat="45.97892" lon="5.63613">
        <ele>1112.5999755859</ele>
        <time>2023-05-19T08:43:04.000Z</time>
      </trkpt>
      <trkpt lat="45.9789" lon="5.63612">
        <ele>1112.5999755859</ele>
        <time>2023-05-19T08:43:06.000Z</time>
      </trkpt>
      <trkpt lat="45.97883" lon="5.63612">
        <ele>1113.1999511719</ele>
        <time>2023-05-19T08:43:10.000Z</time>
      </trkpt>
      <trkpt lat="45.9788" lon="5.63612">
        <ele>1113.5999755859</ele>
        <time>2023-05-19T08:43:12.000Z</time>
      </trkpt>
      <trkpt lat="45.97876" lon="5.63612">
        <ele>1113.8000488281</ele>
        <time>2023-05-19T08:43:14.000Z</time>
      </trkpt>
      <trkpt lat="45.97873" lon="5.63611">
        <ele>1114.4000244141</ele>
        <time>2023-05-19T08:43:16.000Z</time>
      </trkpt>
      <trkpt lat="45.9787" lon="5.6361">
        <ele>1115</ele>
        <time>2023-05-19T08:43:18.000Z</time>
      </trkpt>
      <trkpt lat="45.97867" lon="5.6361">
        <ele>1115.5999755859</ele>
        <time>2023-05-19T08:43:20.000Z</time>
      </trkpt>
      <trkpt lat="45.97855" lon="5.63607">
        <ele>1116.5999755859</ele>
        <time>2023-05-19T08:43:27.000Z</time>
      </trkpt>
      <trkpt lat="45.97853" lon="5.63608">
        <ele>1116.8000488281</ele>
        <time>2023-05-19T08:43:28.000Z</time>
      </trkpt>
      <trkpt lat="45.97842" lon="5.63605">
        <ele>1118</ele>
        <time>2023-05-19T08:43:34.000Z</time>
      </trkpt>
      <trkpt lat="45.9784" lon="5.63604">
        <ele>1118</ele>
        <time>2023-05-19T08:43:35.000Z</time>
      </trkpt>
      <trkpt lat="45.97829" lon="5.63601">
        <ele>1118.5999755859</ele>
        <time>2023-05-19T08:43:42.000Z</time>
      </trkpt>
      <trkpt lat="45.97828" lon="5.636">
        <ele>1118.8000488281</ele>
        <time>2023-05-19T08:43:43.000Z</time>
      </trkpt>
      <trkpt lat="45.97819" lon="5.63595">
        <ele>1119.8000488281</ele>
        <time>2023-05-19T08:43:48.000Z</time>
      </trkpt>
      <trkpt lat="45.97817" lon="5.63595">
        <ele>1120</ele>
        <time>2023-05-19T08:43:49.000Z</time>
      </trkpt>
      <trkpt lat="45.97805" lon="5.63589">
        <ele>1121.1999511719</ele>
        <time>2023-05-19T08:43:56.000Z</time>
      </trkpt>
      <trkpt lat="45.97803" lon="5.63588">
        <ele>1121.4000244141</ele>
        <time>2023-05-19T08:43:57.000Z</time>
      </trkpt>
      <trkpt lat="45.97794" lon="5.63583">
        <ele>1122.1999511719</ele>
        <time>2023-05-19T08:44:04.000Z</time>
      </trkpt>
      <trkpt lat="45.97789" lon="5.63581">
        <ele>1122</ele>
        <time>2023-05-19T08:44:07.000Z</time>
      </trkpt>
      <trkpt lat="45.97785" lon="5.63578">
        <ele>1121.8000488281</ele>
        <time>2023-05-19T08:44:09.000Z</time>
      </trkpt>
      <trkpt lat="45.97771" lon="5.6357">
        <ele>1121.5999755859</ele>
        <time>2023-05-19T08:44:15.000Z</time>
      </trkpt>
      <trkpt lat="45.97754" lon="5.6356">
        <ele>1121.1999511719</ele>
        <time>2023-05-19T08:44:20.000Z</time>
      </trkpt>
      <trkpt lat="45.97737" lon="5.63551">
        <ele>1120.5999755859</ele>
        <time>2023-05-19T08:44:25.000Z</time>
      </trkpt>
      <trkpt lat="45.97733" lon="5.63549">
        <ele>1120.4000244141</ele>
        <time>2023-05-19T08:44:27.000Z</time>
      </trkpt>
      <trkpt lat="45.97716" lon="5.63536">
        <ele>1120</ele>
        <time>2023-05-19T08:44:32.000Z</time>
      </trkpt>
      <trkpt lat="45.97709" lon="5.63531">
        <ele>1119.5999755859</ele>
        <time>2023-05-19T08:44:34.000Z</time>
      </trkpt>
      <trkpt lat="45.97696" lon="5.63523">
        <ele>1118.5999755859</ele>
        <time>2023-05-19T08:44:38.000Z</time>
      </trkpt>
      <trkpt lat="45.9769" lon="5.63518">
        <ele>1118.4000244141</ele>
        <time>2023-05-19T08:44:40.000Z</time>
      </trkpt>
      <trkpt lat="45.97673" lon="5.63507">
        <ele>1117.8000488281</ele>
        <time>2023-05-19T08:44:46.000Z</time>
      </trkpt>
      <trkpt lat="45.97667" lon="5.63503">
        <ele>1117.5999755859</ele>
        <time>2023-05-19T08:44:48.000Z</time>
      </trkpt>
      <trkpt lat="45.97664" lon="5.63502">
        <ele>1117.4000244141</ele>
        <time>2023-05-19T08:44:49.000Z</time>
      </trkpt>
      <trkpt lat="45.97647" lon="5.63488">
        <ele>1116.5999755859</ele>
        <time>2023-05-19T08:44:55.000Z</time>
      </trkpt>
      <trkpt lat="45.97645" lon="5.63485">
        <ele>1116.4000244141</ele>
        <time>2023-05-19T08:44:56.000Z</time>
      </trkpt>
      <trkpt lat="45.97635" lon="5.63475">
        <ele>1115.5999755859</ele>
        <time>2023-05-19T08:45:00.000Z</time>
      </trkpt>
      <trkpt lat="45.97633" lon="5.63473">
        <ele>1115.1999511719</ele>
        <time>2023-05-19T08:45:01.000Z</time>
      </trkpt>
      <trkpt lat="45.97625" lon="5.63466">
        <ele>1114.1999511719</ele>
        <time>2023-05-19T08:45:05.000Z</time>
      </trkpt>
      <trkpt lat="45.97613" lon="5.63458">
        <ele>1113</ele>
        <time>2023-05-19T08:45:10.000Z</time>
      </trkpt>
      <trkpt lat="45.9761" lon="5.63456">
        <ele>1113</ele>
        <time>2023-05-19T08:45:11.000Z</time>
      </trkpt>
      <trkpt lat="45.976" lon="5.63444">
        <ele>1112</ele>
        <time>2023-05-19T08:45:14.000Z</time>
      </trkpt>
      <trkpt lat="45.97596" lon="5.63441">
        <ele>1111.5999755859</ele>
        <time>2023-05-19T08:45:15.000Z</time>
      </trkpt>
      <trkpt lat="45.97588" lon="5.63433">
        <ele>1110.8000488281</ele>
        <time>2023-05-19T08:45:18.000Z</time>
      </trkpt>
      <trkpt lat="45.97579" lon="5.63426">
        <ele>1109</ele>
        <time>2023-05-19T08:45:21.000Z</time>
      </trkpt>
      <trkpt lat="45.97569" lon="5.63418">
        <ele>1107.8000488281</ele>
        <time>2023-05-19T08:45:24.000Z</time>
      </trkpt>
      <trkpt lat="45.97555" lon="5.63405">
        <ele>1107.1999511719</ele>
        <time>2023-05-19T08:45:27.000Z</time>
      </trkpt>
      <trkpt lat="45.97551" lon="5.63401">
        <ele>1106</ele>
        <time>2023-05-19T08:45:28.000Z</time>
      </trkpt>
      <trkpt lat="45.97548" lon="5.63398">
        <ele>1105.8000488281</ele>
        <time>2023-05-19T08:45:29.000Z</time>
      </trkpt>
      <trkpt lat="45.97541" lon="5.63389">
        <ele>1104.8000488281</ele>
        <time>2023-05-19T08:45:32.000Z</time>
      </trkpt>
      <trkpt lat="45.97535" lon="5.6338">
        <ele>1103.4000244141</ele>
        <time>2023-05-19T08:45:35.000Z</time>
      </trkpt>
      <trkpt lat="45.9753" lon="5.63376">
        <ele>1102.8000488281</ele>
        <time>2023-05-19T08:45:37.000Z</time>
      </trkpt>
      <trkpt lat="45.97522" lon="5.63368">
        <ele>1102</ele>
        <time>2023-05-19T08:45:40.000Z</time>
      </trkpt>
      <trkpt lat="45.97516" lon="5.63362">
        <ele>1101.1999511719</ele>
        <time>2023-05-19T08:45:42.000Z</time>
      </trkpt>
      <trkpt lat="45.97511" lon="5.63354">
        <ele>1100.5999755859</ele>
        <time>2023-05-19T08:45:44.000Z</time>
      </trkpt>
      <trkpt lat="45.97509" lon="5.63352">
        <ele>1100.5999755859</ele>
        <time>2023-05-19T08:45:45.000Z</time>
      </trkpt>
      <trkpt lat="45.97505" lon="5.63346">
        <ele>1099.5999755859</ele>
        <time>2023-05-19T08:45:47.000Z</time>
      </trkpt>
      <trkpt lat="45.97492" lon="5.6333">
        <ele>1098.5999755859</ele>
        <time>2023-05-19T08:45:52.000Z</time>
      </trkpt>
      <trkpt lat="45.97486" lon="5.63319">
        <ele>1097</ele>
        <time>2023-05-19T08:45:56.000Z</time>
      </trkpt>
      <trkpt lat="45.97486" lon="5.63313">
        <ele>1096.4000244141</ele>
        <time>2023-05-19T08:45:58.000Z</time>
      </trkpt>
      <trkpt lat="45.97486" lon="5.63306">
        <ele>1096</ele>
        <time>2023-05-19T08:46:00.000Z</time>
      </trkpt>
      <trkpt lat="45.97488" lon="5.633">
        <ele>1094.5999755859</ele>
        <time>2023-05-19T08:46:02.000Z</time>
      </trkpt>
      <trkpt lat="45.97489" lon="5.63297">
        <ele>1093.8000488281</ele>
        <time>2023-05-19T08:46:03.000Z</time>
      </trkpt>
      <trkpt lat="45.9749" lon="5.63293">
        <ele>1093.4000244141</ele>
        <time>2023-05-19T08:46:04.000Z</time>
      </trkpt>
      <trkpt lat="45.97492" lon="5.63282">
        <ele>1091.5999755859</ele>
        <time>2023-05-19T08:46:07.000Z</time>
      </trkpt>
      <trkpt lat="45.97495" lon="5.63273">
        <ele>1090.1999511719</ele>
        <time>2023-05-19T08:46:09.000Z</time>
      </trkpt>
      <trkpt lat="45.97498" lon="5.63263">
        <ele>1089</ele>
        <time>2023-05-19T08:46:11.000Z</time>
      </trkpt>
      <trkpt lat="45.975" lon="5.63251">
        <ele>1088.4000244141</ele>
        <time>2023-05-19T08:46:13.000Z</time>
      </trkpt>
      <trkpt lat="45.97499" lon="5.63246">
        <ele>1087.5999755859</ele>
        <time>2023-05-19T08:46:14.000Z</time>
      </trkpt>
      <trkpt lat="45.975" lon="5.63241">
        <ele>1087.4000244141</ele>
        <time>2023-05-19T08:46:15.000Z</time>
      </trkpt>
      <trkpt lat="45.975" lon="5.63232">
        <ele>1086.8000488281</ele>
        <time>2023-05-19T08:46:17.000Z</time>
      </trkpt>
      <trkpt lat="45.97499" lon="5.63228">
        <ele>1085.4000244141</ele>
        <time>2023-05-19T08:46:18.000Z</time>
      </trkpt>
      <trkpt lat="45.975" lon="5.63218">
        <ele>1084.1999511719</ele>
        <time>2023-05-19T08:46:20.000Z</time>
      </trkpt>
      <trkpt lat="45.97501" lon="5.63207">
        <ele>1083</ele>
        <time>2023-05-19T08:46:22.000Z</time>
      </trkpt>
      <trkpt lat="45.97505" lon="5.63191">
        <ele>1081.1999511719</ele>
        <time>2023-05-19T08:46:25.000Z</time>
      </trkpt>
      <trkpt lat="45.97505" lon="5.63183">
        <ele>1081</ele>
        <time>2023-05-19T08:46:26.000Z</time>
      </trkpt>
      <trkpt lat="45.97503" lon="5.63167">
        <ele>1080</ele>
        <time>2023-05-19T08:46:28.000Z</time>
      </trkpt>
      <trkpt lat="45.975" lon="5.63153">
        <ele>1078.4000244141</ele>
        <time>2023-05-19T08:46:30.000Z</time>
      </trkpt>
      <trkpt lat="45.97493" lon="5.63145">
        <ele>1077.1999511719</ele>
        <time>2023-05-19T08:46:32.000Z</time>
      </trkpt>
      <trkpt lat="45.97489" lon="5.63143">
        <ele>1077</ele>
        <time>2023-05-19T08:46:33.000Z</time>
      </trkpt>
      <trkpt lat="45.97483" lon="5.63144">
        <ele>1076.1999511719</ele>
        <time>2023-05-19T08:46:35.000Z</time>
      </trkpt>
      <trkpt lat="45.9748" lon="5.63144">
        <ele>1076.1999511719</ele>
        <time>2023-05-19T08:46:36.000Z</time>
      </trkpt>
      <trkpt lat="45.97466" lon="5.63146">
        <ele>1075.8000488281</ele>
        <time>2023-05-19T08:46:42.000Z</time>
      </trkpt>
      <trkpt lat="45.97457" lon="5.63149">
        <ele>1076.5999755859</ele>
        <time>2023-05-19T08:46:46.000Z</time>
      </trkpt>
      <trkpt lat="45.97455" lon="5.6315">
        <ele>1076.8000488281</ele>
        <time>2023-05-19T08:46:47.000Z</time>
      </trkpt>
      <trkpt lat="45.97452" lon="5.63151">
        <ele>1077.4000244141</ele>
        <time>2023-05-19T08:46:49.000Z</time>
      </trkpt>
      <trkpt lat="45.97446" lon="5.63155">
        <ele>1078.8000488281</ele>
        <time>2023-05-19T08:46:53.000Z</time>
      </trkpt>
      <trkpt lat="45.97442" lon="5.63157">
        <ele>1079.8000488281</ele>
        <time>2023-05-19T08:46:56.000Z</time>
      </trkpt>
      <trkpt lat="45.97439" lon="5.63159">
        <ele>1080.1999511719</ele>
        <time>2023-05-19T08:46:58.000Z</time>
      </trkpt>
      <trkpt lat="45.97436" lon="5.63161">
        <ele>1080.8000488281</ele>
        <time>2023-05-19T08:47:00.000Z</time>
      </trkpt>
      <trkpt lat="45.97429" lon="5.63165">
        <ele>1081.4000244141</ele>
        <time>2023-05-19T08:47:04.000Z</time>
      </trkpt>
      <trkpt lat="45.97422" lon="5.63166">
        <ele>1082</ele>
        <time>2023-05-19T08:47:08.000Z</time>
      </trkpt>
      <trkpt lat="45.97416" lon="5.63167">
        <ele>1082.4000244141</ele>
        <time>2023-05-19T08:47:11.000Z</time>
      </trkpt>
      <trkpt lat="45.9741" lon="5.6317">
        <ele>1083</ele>
        <time>2023-05-19T08:47:14.000Z</time>
      </trkpt>
      <trkpt lat="45.97404" lon="5.63172">
        <ele>1083.5999755859</ele>
        <time>2023-05-19T08:47:17.000Z</time>
      </trkpt>
      <trkpt lat="45.97398" lon="5.63175">
        <ele>1084.1999511719</ele>
        <time>2023-05-19T08:47:19.000Z</time>
      </trkpt>
      <trkpt lat="45.97391" lon="5.6318">
        <ele>1085.4000244141</ele>
        <time>2023-05-19T08:47:22.000Z</time>
      </trkpt>
      <trkpt lat="45.97387" lon="5.63181">
        <ele>1085.5999755859</ele>
        <time>2023-05-19T08:47:23.000Z</time>
      </trkpt>
      <trkpt lat="45.97377" lon="5.63188">
        <ele>1086.8000488281</ele>
        <time>2023-05-19T08:47:29.000Z</time>
      </trkpt>
      <trkpt lat="45.97375" lon="5.63188">
        <ele>1087</ele>
        <time>2023-05-19T08:47:30.000Z</time>
      </trkpt>
      <trkpt lat="45.97367" lon="5.63189">
        <ele>1088</ele>
        <time>2023-05-19T08:47:34.000Z</time>
      </trkpt>
      <trkpt lat="45.9736" lon="5.63191">
        <ele>1089</ele>
        <time>2023-05-19T08:47:38.000Z</time>
      </trkpt>
      <trkpt lat="45.9735" lon="5.63193">
        <ele>1090</ele>
        <time>2023-05-19T08:47:44.000Z</time>
      </trkpt>
      <trkpt lat="45.97348" lon="5.63193">
        <ele>1090.1999511719</ele>
        <time>2023-05-19T08:47:45.000Z</time>
      </trkpt>
      <trkpt lat="45.9734" lon="5.63193">
        <ele>1091.1999511719</ele>
        <time>2023-05-19T08:47:50.000Z</time>
      </trkpt>
      <trkpt lat="45.97336" lon="5.63193">
        <ele>1092</ele>
        <time>2023-05-19T08:47:53.000Z</time>
      </trkpt>
      <trkpt lat="45.97335" lon="5.63193">
        <ele>1092.4000244141</ele>
        <time>2023-05-19T08:47:54.000Z</time>
      </trkpt>
      <trkpt lat="45.97328" lon="5.63193">
        <ele>1093.1999511719</ele>
        <time>2023-05-19T08:47:58.000Z</time>
      </trkpt>
      <trkpt lat="45.97324" lon="5.63193">
        <ele>1093.5999755859</ele>
        <time>2023-05-19T08:48:00.000Z</time>
      </trkpt>
      <trkpt lat="45.97323" lon="5.63193">
        <ele>1093.8000488281</ele>
        <time>2023-05-19T08:48:01.000Z</time>
      </trkpt>
      <trkpt lat="45.97318" lon="5.63194">
        <ele>1094.5999755859</ele>
        <time>2023-05-19T08:48:04.000Z</time>
      </trkpt>
      <trkpt lat="45.97311" lon="5.63193">
        <ele>1095.1999511719</ele>
        <time>2023-05-19T08:48:07.000Z</time>
      </trkpt>
      <trkpt lat="45.97307" lon="5.63192">
        <ele>1095.5999755859</ele>
        <time>2023-05-19T08:48:11.000Z</time>
      </trkpt>
      <trkpt lat="45.97302" lon="5.63192">
        <ele>1096</ele>
        <time>2023-05-19T08:48:14.000Z</time>
      </trkpt>
      <trkpt lat="45.97293" lon="5.6319">
        <ele>1096.8000488281</ele>
        <time>2023-05-19T08:48:19.000Z</time>
      </trkpt>
      <trkpt lat="45.97288" lon="5.63189">
        <ele>1097.1999511719</ele>
        <time>2023-05-19T08:48:21.000Z</time>
      </trkpt>
      <trkpt lat="45.97271" lon="5.63185">
        <ele>1097.5999755859</ele>
        <time>2023-05-19T08:48:28.000Z</time>
      </trkpt>
      <trkpt lat="45.97247" lon="5.63179">
        <ele>1097.4000244141</ele>
        <time>2023-05-19T08:48:38.000Z</time>
      </trkpt>
      <trkpt lat="45.97242" lon="5.63177">
        <ele>1097.5999755859</ele>
        <time>2023-05-19T08:48:40.000Z</time>
      </trkpt>
      <trkpt lat="45.97225" lon="5.63171">
        <ele>1097.8000488281</ele>
        <time>2023-05-19T08:48:47.000Z</time>
      </trkpt>
      <trkpt lat="45.97216" lon="5.63167">
        <ele>1097.8000488281</ele>
        <time>2023-05-19T08:48:51.000Z</time>
      </trkpt>
      <trkpt lat="45.97205" lon="5.63164">
        <ele>1097.8000488281</ele>
        <time>2023-05-19T08:48:55.000Z</time>
      </trkpt>
      <trkpt lat="45.97178" lon="5.6316">
        <ele>1098.5999755859</ele>
        <time>2023-05-19T08:49:06.000Z</time>
      </trkpt>
      <trkpt lat="45.97175" lon="5.63161">
        <ele>1098.5999755859</ele>
        <time>2023-05-19T08:49:07.000Z</time>
      </trkpt>
      <trkpt lat="45.97156" lon="5.6316">
        <ele>1099.5999755859</ele>
        <time>2023-05-19T08:49:15.000Z</time>
      </trkpt>
      <trkpt lat="45.97142" lon="5.63161">
        <ele>1099.4000244141</ele>
        <time>2023-05-19T08:49:21.000Z</time>
      </trkpt>
      <trkpt lat="45.97138" lon="5.63162">
        <ele>1099.5999755859</ele>
        <time>2023-05-19T08:49:23.000Z</time>
      </trkpt>
      <trkpt lat="45.97117" lon="5.63165">
        <ele>1100</ele>
        <time>2023-05-19T08:49:32.000Z</time>
      </trkpt>
      <trkpt lat="45.97108" lon="5.63164">
        <ele>1100.5999755859</ele>
        <time>2023-05-19T08:49:37.000Z</time>
      </trkpt>
      <trkpt lat="45.97101" lon="5.63164">
        <ele>1100.8000488281</ele>
        <time>2023-05-19T08:49:40.000Z</time>
      </trkpt>
      <trkpt lat="45.97089" lon="5.63163">
        <ele>1101.5999755859</ele>
        <time>2023-05-19T08:49:45.000Z</time>
      </trkpt>
      <trkpt lat="45.97079" lon="5.63161">
        <ele>1102.1999511719</ele>
        <time>2023-05-19T08:49:49.000Z</time>
      </trkpt>
      <trkpt lat="45.97075" lon="5.63161">
        <ele>1102.5999755859</ele>
        <time>2023-05-19T08:49:51.000Z</time>
      </trkpt>
      <trkpt lat="45.97067" lon="5.6316">
        <ele>1103.8000488281</ele>
        <time>2023-05-19T08:49:55.000Z</time>
      </trkpt>
      <trkpt lat="45.97063" lon="5.6316">
        <ele>1104.8000488281</ele>
        <time>2023-05-19T08:49:57.000Z</time>
      </trkpt>
      <trkpt lat="45.9706" lon="5.63159">
        <ele>1105.1999511719</ele>
        <time>2023-05-19T08:49:58.000Z</time>
      </trkpt>
      <trkpt lat="45.9705" lon="5.63158">
        <ele>1106.1999511719</ele>
        <time>2023-05-19T08:50:03.000Z</time>
      </trkpt>
      <trkpt lat="45.97042" lon="5.63156">
        <ele>1107.5999755859</ele>
        <time>2023-05-19T08:50:07.000Z</time>
      </trkpt>
      <trkpt lat="45.97029" lon="5.63154">
        <ele>1109</ele>
        <time>2023-05-19T08:50:13.000Z</time>
      </trkpt>
      <trkpt lat="45.97027" lon="5.63153">
        <ele>1109</ele>
        <time>2023-05-19T08:50:14.000Z</time>
      </trkpt>
      <trkpt lat="45.97015" lon="5.63151">
        <ele>1110</ele>
        <time>2023-05-19T08:50:20.000Z</time>
      </trkpt>
      <trkpt lat="45.97013" lon="5.63151">
        <ele>1110.1999511719</ele>
        <time>2023-05-19T08:50:21.000Z</time>
      </trkpt>
      <trkpt lat="45.97009" lon="5.6315">
        <ele>1111.4000244141</ele>
        <time>2023-05-19T08:50:23.000Z</time>
      </trkpt>
      <trkpt lat="45.97" lon="5.63148">
        <ele>1112.5999755859</ele>
        <time>2023-05-19T08:50:27.000Z</time>
      </trkpt>
      <trkpt lat="45.96997" lon="5.63148">
        <ele>1112.5999755859</ele>
        <time>2023-05-19T08:50:28.000Z</time>
      </trkpt>
      <trkpt lat="45.96988" lon="5.63147">
        <ele>1113.8000488281</ele>
        <time>2023-05-19T08:50:32.000Z</time>
      </trkpt>
      <trkpt lat="45.96981" lon="5.63146">
        <ele>1114.4000244141</ele>
        <time>2023-05-19T08:50:35.000Z</time>
      </trkpt>
      <trkpt lat="45.96979" lon="5.63146">
        <ele>1114.8000488281</ele>
        <time>2023-05-19T08:50:36.000Z</time>
      </trkpt>
      <trkpt lat="45.9697" lon="5.63142">
        <ele>1116</ele>
        <time>2023-05-19T08:50:41.000Z</time>
      </trkpt>
      <trkpt lat="45.96965" lon="5.63139">
        <ele>1116.4000244141</ele>
        <time>2023-05-19T08:50:44.000Z</time>
      </trkpt>
      <trkpt lat="45.96952" lon="5.63134">
        <ele>1117</ele>
        <time>2023-05-19T08:50:50.000Z</time>
      </trkpt>
      <trkpt lat="45.96948" lon="5.63132">
        <ele>1117</ele>
        <time>2023-05-19T08:50:52.000Z</time>
      </trkpt>
      <trkpt lat="45.96929" lon="5.63128">
        <ele>1117.4000244141</ele>
        <time>2023-05-19T08:51:00.000Z</time>
      </trkpt>
      <trkpt lat="45.96912" lon="5.63126">
        <ele>1118</ele>
        <time>2023-05-19T08:51:06.000Z</time>
      </trkpt>
      <trkpt lat="45.96906" lon="5.63126">
        <ele>1118</ele>
        <time>2023-05-19T08:51:08.000Z</time>
      </trkpt>
      <trkpt lat="45.96885" lon="5.63119">
        <ele>1118</ele>
        <time>2023-05-19T08:51:16.000Z</time>
      </trkpt>
      <trkpt lat="45.96868" lon="5.63114">
        <ele>1118</ele>
        <time>2023-05-19T08:51:23.000Z</time>
      </trkpt>
      <trkpt lat="45.9685" lon="5.6311">
        <ele>1118</ele>
        <time>2023-05-19T08:51:29.000Z</time>
      </trkpt>
      <trkpt lat="45.96825" lon="5.63104">
        <ele>1117.8000488281</ele>
        <time>2023-05-19T08:51:36.000Z</time>
      </trkpt>
      <trkpt lat="45.96799" lon="5.63102">
        <ele>1117.1999511719</ele>
        <time>2023-05-19T08:51:44.000Z</time>
      </trkpt>
      <trkpt lat="45.96781" lon="5.63101">
        <ele>1116.8000488281</ele>
        <time>2023-05-19T08:51:49.000Z</time>
      </trkpt>
      <trkpt lat="45.96773" lon="5.63099">
        <ele>1116.8000488281</ele>
        <time>2023-05-19T08:51:51.000Z</time>
      </trkpt>
      <trkpt lat="45.96759" lon="5.63095">
        <ele>1116.5999755859</ele>
        <time>2023-05-19T08:51:55.000Z</time>
      </trkpt>
      <trkpt lat="45.96749" lon="5.63093">
        <ele>1116.4000244141</ele>
        <time>2023-05-19T08:51:58.000Z</time>
      </trkpt>
      <trkpt lat="45.96738" lon="5.63088">
        <ele>1116.4000244141</ele>
        <time>2023-05-19T08:52:01.000Z</time>
      </trkpt>
      <trkpt lat="45.96722" lon="5.63085">
        <ele>1116</ele>
        <time>2023-05-19T08:52:05.000Z</time>
      </trkpt>
      <trkpt lat="45.96709" lon="5.63084">
        <ele>1115.8000488281</ele>
        <time>2023-05-19T08:52:08.000Z</time>
      </trkpt>
      <trkpt lat="45.96695" lon="5.63086">
        <ele>1115.4000244141</ele>
        <time>2023-05-19T08:52:12.000Z</time>
      </trkpt>
      <trkpt lat="45.96672" lon="5.63088">
        <ele>1115.4000244141</ele>
        <time>2023-05-19T08:52:18.000Z</time>
      </trkpt>
      <trkpt lat="45.96648" lon="5.6309">
        <ele>1115.5999755859</ele>
        <time>2023-05-19T08:52:24.000Z</time>
      </trkpt>
      <trkpt lat="45.96627" lon="5.63088">
        <ele>1115.5999755859</ele>
        <time>2023-05-19T08:52:30.000Z</time>
      </trkpt>
      <trkpt lat="45.96609" lon="5.63086">
        <ele>1116.4000244141</ele>
        <time>2023-05-19T08:52:35.000Z</time>
      </trkpt>
      <trkpt lat="45.96605" lon="5.63085">
        <ele>1116.5999755859</ele>
        <time>2023-05-19T08:52:36.000Z</time>
      </trkpt>
      <trkpt lat="45.96594" lon="5.63086">
        <ele>1116.8000488281</ele>
        <time>2023-05-19T08:52:39.000Z</time>
      </trkpt>
      <trkpt lat="45.96581" lon="5.63085">
        <ele>1117.1999511719</ele>
        <time>2023-05-19T08:52:42.000Z</time>
      </trkpt>
      <trkpt lat="45.96557" lon="5.63087">
        <ele>1117.8000488281</ele>
        <time>2023-05-19T08:52:48.000Z</time>
      </trkpt>
      <trkpt lat="45.96553" lon="5.63086">
        <ele>1117.8000488281</ele>
        <time>2023-05-19T08:52:49.000Z</time>
      </trkpt>
      <trkpt lat="45.96528" lon="5.63085">
        <ele>1118</ele>
        <time>2023-05-19T08:52:54.000Z</time>
      </trkpt>
      <trkpt lat="45.96523" lon="5.63086">
        <ele>1118</ele>
        <time>2023-05-19T08:52:55.000Z</time>
      </trkpt>
      <trkpt lat="45.96483" lon="5.63095">
        <ele>1117.4000244141</ele>
        <time>2023-05-19T08:53:03.000Z</time>
      </trkpt>
      <trkpt lat="45.96458" lon="5.631">
        <ele>1116.5999755859</ele>
        <time>2023-05-19T08:53:08.000Z</time>
      </trkpt>
      <trkpt lat="45.96448" lon="5.63103">
        <ele>1116.1999511719</ele>
        <time>2023-05-19T08:53:10.000Z</time>
      </trkpt>
      <trkpt lat="45.9643" lon="5.63107">
        <ele>1115.4000244141</ele>
        <time>2023-05-19T08:53:13.000Z</time>
      </trkpt>
      <trkpt lat="45.96418" lon="5.63108">
        <ele>1115</ele>
        <time>2023-05-19T08:53:15.000Z</time>
      </trkpt>
      <trkpt lat="45.96403" lon="5.63106">
        <ele>1114.1999511719</ele>
        <time>2023-05-19T08:53:17.000Z</time>
      </trkpt>
      <trkpt lat="45.96384" lon="5.63104">
        <ele>1112.4000244141</ele>
        <time>2023-05-19T08:53:20.000Z</time>
      </trkpt>
      <trkpt lat="45.96378" lon="5.63104">
        <ele>1112</ele>
        <time>2023-05-19T08:53:21.000Z</time>
      </trkpt>
      <trkpt lat="45.96372" lon="5.63105">
        <ele>1111</ele>
        <time>2023-05-19T08:53:22.000Z</time>
      </trkpt>
      <trkpt lat="45.96359" lon="5.63107">
        <ele>1109.8000488281</ele>
        <time>2023-05-19T08:53:24.000Z</time>
      </trkpt>
      <trkpt lat="45.96345" lon="5.6311">
        <ele>1108.4000244141</ele>
        <time>2023-05-19T08:53:26.000Z</time>
      </trkpt>
      <trkpt lat="45.96336" lon="5.63114">
        <ele>1107.8000488281</ele>
        <time>2023-05-19T08:53:27.000Z</time>
      </trkpt>
      <trkpt lat="45.96329" lon="5.63118">
        <ele>1107.1999511719</ele>
        <time>2023-05-19T08:53:28.000Z</time>
      </trkpt>
      <trkpt lat="45.96318" lon="5.63126">
        <ele>1106</ele>
        <time>2023-05-19T08:53:30.000Z</time>
      </trkpt>
      <trkpt lat="45.96311" lon="5.63132">
        <ele>1105.1999511719</ele>
        <time>2023-05-19T08:53:31.000Z</time>
      </trkpt>
      <trkpt lat="45.96305" lon="5.63138">
        <ele>1105</ele>
        <time>2023-05-19T08:53:32.000Z</time>
      </trkpt>
      <trkpt lat="45.96293" lon="5.6315">
        <ele>1103.5999755859</ele>
        <time>2023-05-19T08:53:34.000Z</time>
      </trkpt>
      <trkpt lat="45.96275" lon="5.6317">
        <ele>1102.5999755859</ele>
        <time>2023-05-19T08:53:37.000Z</time>
      </trkpt>
      <trkpt lat="45.96265" lon="5.63181">
        <ele>1101.4000244141</ele>
        <time>2023-05-19T08:53:39.000Z</time>
      </trkpt>
      <trkpt lat="45.9625" lon="5.63193">
        <ele>1100</ele>
        <time>2023-05-19T08:53:42.000Z</time>
      </trkpt>
      <trkpt lat="45.96242" lon="5.63202">
        <ele>1099.5999755859</ele>
        <time>2023-05-19T08:53:44.000Z</time>
      </trkpt>
      <trkpt lat="45.96232" lon="5.63216">
        <ele>1099.4000244141</ele>
        <time>2023-05-19T08:53:48.000Z</time>
      </trkpt>
      <trkpt lat="45.96224" lon="5.63222">
        <ele>1099.8000488281</ele>
        <time>2023-05-19T08:53:51.000Z</time>
      </trkpt>
      <trkpt lat="45.96221" lon="5.63222">
        <ele>1100</ele>
        <time>2023-05-19T08:53:52.000Z</time>
      </trkpt>
      <trkpt lat="45.9621" lon="5.63225">
        <ele>1101.1999511719</ele>
        <time>2023-05-19T08:53:56.000Z</time>
      </trkpt>
      <trkpt lat="45.96203" lon="5.63227">
        <ele>1101.8000488281</ele>
        <time>2023-05-19T08:53:59.000Z</time>
      </trkpt>
      <trkpt lat="45.96198" lon="5.63228">
        <ele>1102.4000244141</ele>
        <time>2023-05-19T08:54:01.000Z</time>
      </trkpt>
      <trkpt lat="45.96185" lon="5.63233">
        <ele>1103</ele>
        <time>2023-05-19T08:54:06.000Z</time>
      </trkpt>
      <trkpt lat="45.96175" lon="5.63242">
        <ele>1103.5999755859</ele>
        <time>2023-05-19T08:54:10.000Z</time>
      </trkpt>
      <trkpt lat="45.96163" lon="5.63251">
        <ele>1104.5999755859</ele>
        <time>2023-05-19T08:54:15.000Z</time>
      </trkpt>
      <trkpt lat="45.96161" lon="5.63253">
        <ele>1104.8000488281</ele>
        <time>2023-05-19T08:54:16.000Z</time>
      </trkpt>
      <trkpt lat="45.96149" lon="5.63263">
        <ele>1105.8000488281</ele>
        <time>2023-05-19T08:54:21.000Z</time>
      </trkpt>
      <trkpt lat="45.96142" lon="5.63269">
        <ele>1106.4000244141</ele>
        <time>2023-05-19T08:54:24.000Z</time>
      </trkpt>
      <trkpt lat="45.96137" lon="5.63273">
        <ele>1107</ele>
        <time>2023-05-19T08:54:26.000Z</time>
      </trkpt>
      <trkpt lat="45.96125" lon="5.6328">
        <ele>1108</ele>
        <time>2023-05-19T08:54:31.000Z</time>
      </trkpt>
      <trkpt lat="45.96122" lon="5.63281">
        <ele>1108.5999755859</ele>
        <time>2023-05-19T08:54:32.000Z</time>
      </trkpt>
      <trkpt lat="45.96115" lon="5.63284">
        <ele>1109.8000488281</ele>
        <time>2023-05-19T08:54:35.000Z</time>
      </trkpt>
      <trkpt lat="45.96106" lon="5.63289">
        <ele>1111</ele>
        <time>2023-05-19T08:54:39.000Z</time>
      </trkpt>
      <trkpt lat="45.96095" lon="5.63298">
        <ele>1112</ele>
        <time>2023-05-19T08:54:44.000Z</time>
      </trkpt>
      <trkpt lat="45.96084" lon="5.63306">
        <ele>1113.1999511719</ele>
        <time>2023-05-19T08:54:49.000Z</time>
      </trkpt>
      <trkpt lat="45.96069" lon="5.63318">
        <ele>1114.1999511719</ele>
        <time>2023-05-19T08:54:56.000Z</time>
      </trkpt>
      <trkpt lat="45.96066" lon="5.63321">
        <ele>1114.5999755859</ele>
        <time>2023-05-19T08:54:58.000Z</time>
      </trkpt>
      <trkpt lat="45.96057" lon="5.63327">
        <ele>1115.1999511719</ele>
        <time>2023-05-19T08:55:02.000Z</time>
      </trkpt>
      <trkpt lat="45.96048" lon="5.63334">
        <ele>1116.5999755859</ele>
        <time>2023-05-19T08:55:07.000Z</time>
      </trkpt>
      <trkpt lat="45.96045" lon="5.63335">
        <ele>1116.4000244141</ele>
        <time>2023-05-19T08:55:08.000Z</time>
      </trkpt>
      <trkpt lat="45.96034" lon="5.63341">
        <ele>1117.5999755859</ele>
        <time>2023-05-19T08:55:13.000Z</time>
      </trkpt>
      <trkpt lat="45.96031" lon="5.63343">
        <ele>1117.8000488281</ele>
        <time>2023-05-19T08:55:14.000Z</time>
      </trkpt>
      <trkpt lat="45.96024" lon="5.63347">
        <ele>1118.8000488281</ele>
        <time>2023-05-19T08:55:17.000Z</time>
      </trkpt>
      <trkpt lat="45.96022" lon="5.63348">
        <ele>1119.1999511719</ele>
        <time>2023-05-19T08:55:18.000Z</time>
      </trkpt>
      <trkpt lat="45.96018" lon="5.63351">
        <ele>1120</ele>
        <time>2023-05-19T08:55:20.000Z</time>
      </trkpt>
      <trkpt lat="45.96012" lon="5.63355">
        <ele>1121.1999511719</ele>
        <time>2023-05-19T08:55:23.000Z</time>
      </trkpt>
      <trkpt lat="45.96005" lon="5.63358">
        <ele>1122.4000244141</ele>
        <time>2023-05-19T08:55:26.000Z</time>
      </trkpt>
      <trkpt lat="45.96004" lon="5.63359">
        <ele>1122.8000488281</ele>
        <time>2023-05-19T08:55:27.000Z</time>
      </trkpt>
      <trkpt lat="45.96001" lon="5.6336">
        <ele>1123.4000244141</ele>
        <time>2023-05-19T08:55:29.000Z</time>
      </trkpt>
      <trkpt lat="45.95996" lon="5.63362">
        <ele>1124.8000488281</ele>
        <time>2023-05-19T08:55:32.000Z</time>
      </trkpt>
      <trkpt lat="45.95991" lon="5.63367">
        <ele>1126</ele>
        <time>2023-05-19T08:55:35.000Z</time>
      </trkpt>
      <trkpt lat="45.95981" lon="5.63374">
        <ele>1127.5999755859</ele>
        <time>2023-05-19T08:55:39.000Z</time>
      </trkpt>
      <trkpt lat="45.95975" lon="5.63376">
        <ele>1128.5999755859</ele>
        <time>2023-05-19T08:55:42.000Z</time>
      </trkpt>
      <trkpt lat="45.95966" lon="5.63381">
        <ele>1130</ele>
        <time>2023-05-19T08:55:46.000Z</time>
      </trkpt>
      <trkpt lat="45.95956" lon="5.63387">
        <ele>1131.1999511719</ele>
        <time>2023-05-19T08:55:50.000Z</time>
      </trkpt>
      <trkpt lat="45.95951" lon="5.63389">
        <ele>1131.5999755859</ele>
        <time>2023-05-19T08:55:52.000Z</time>
      </trkpt>
      <trkpt lat="45.95944" lon="5.63392">
        <ele>1132.4000244141</ele>
        <time>2023-05-19T08:55:55.000Z</time>
      </trkpt>
      <trkpt lat="45.95935" lon="5.63397">
        <ele>1133</ele>
        <time>2023-05-19T08:55:58.000Z</time>
      </trkpt>
      <trkpt lat="45.95926" lon="5.634">
        <ele>1133.8000488281</ele>
        <time>2023-05-19T08:56:01.000Z</time>
      </trkpt>
      <trkpt lat="45.95917" lon="5.63405">
        <ele>1134.8000488281</ele>
        <time>2023-05-19T08:56:05.000Z</time>
      </trkpt>
      <trkpt lat="45.95916" lon="5.63405">
        <ele>1135</ele>
        <time>2023-05-19T08:56:06.000Z</time>
      </trkpt>
      <trkpt lat="45.95906" lon="5.63413">
        <ele>1135.8000488281</ele>
        <time>2023-05-19T08:56:11.000Z</time>
      </trkpt>
      <trkpt lat="45.95902" lon="5.63415">
        <ele>1136.1999511719</ele>
        <time>2023-05-19T08:56:13.000Z</time>
      </trkpt>
      <trkpt lat="45.95895" lon="5.63419">
        <ele>1137</ele>
        <time>2023-05-19T08:56:16.000Z</time>
      </trkpt>
      <trkpt lat="45.95889" lon="5.63424">
        <ele>1137.5999755859</ele>
        <time>2023-05-19T08:56:19.000Z</time>
      </trkpt>
      <trkpt lat="45.95887" lon="5.63425">
        <ele>1138</ele>
        <time>2023-05-19T08:56:20.000Z</time>
      </trkpt>
      <trkpt lat="45.95874" lon="5.63429">
        <ele>1138.8000488281</ele>
        <time>2023-05-19T08:56:25.000Z</time>
      </trkpt>
      <trkpt lat="45.95871" lon="5.63431">
        <ele>1139.1999511719</ele>
        <time>2023-05-19T08:56:26.000Z</time>
      </trkpt>
      <trkpt lat="45.95861" lon="5.63438">
        <ele>1140.1999511719</ele>
        <time>2023-05-19T08:56:30.000Z</time>
      </trkpt>
      <trkpt lat="45.95848" lon="5.63447">
        <ele>1141.1999511719</ele>
        <time>2023-05-19T08:56:36.000Z</time>
      </trkpt>
      <trkpt lat="45.9584" lon="5.63453">
        <ele>1141.4000244141</ele>
        <time>2023-05-19T08:56:39.000Z</time>
      </trkpt>
      <trkpt lat="45.95835" lon="5.63454">
        <ele>1141.5999755859</ele>
        <time>2023-05-19T08:56:41.000Z</time>
      </trkpt>
      <trkpt lat="45.9582" lon="5.63458">
        <ele>1142.1999511719</ele>
        <time>2023-05-19T08:56:47.000Z</time>
      </trkpt>
      <trkpt lat="45.95816" lon="5.6346">
        <ele>1142.5999755859</ele>
        <time>2023-05-19T08:56:49.000Z</time>
      </trkpt>
      <trkpt lat="45.95801" lon="5.63475">
        <ele>1143.4000244141</ele>
        <time>2023-05-19T08:56:54.000Z</time>
      </trkpt>
      <trkpt lat="45.95795" lon="5.63479">
        <ele>1143.8000488281</ele>
        <time>2023-05-19T08:56:57.000Z</time>
      </trkpt>
      <trkpt lat="45.9579" lon="5.63482">
        <ele>1144.5999755859</ele>
        <time>2023-05-19T08:56:59.000Z</time>
      </trkpt>
      <trkpt lat="45.95784" lon="5.63486">
        <ele>1145.5999755859</ele>
        <time>2023-05-19T08:57:01.000Z</time>
      </trkpt>
      <trkpt lat="45.95782" lon="5.63487">
        <ele>1145.8000488281</ele>
        <time>2023-05-19T08:57:02.000Z</time>
      </trkpt>
      <trkpt lat="45.95776" lon="5.63489">
        <ele>1147</ele>
        <time>2023-05-19T08:57:05.000Z</time>
      </trkpt>
      <trkpt lat="45.95771" lon="5.63491">
        <ele>1148</ele>
        <time>2023-05-19T08:57:08.000Z</time>
      </trkpt>
      <trkpt lat="45.95758" lon="5.63499">
        <ele>1149</ele>
        <time>2023-05-19T08:57:13.000Z</time>
      </trkpt>
      <trkpt lat="45.95756" lon="5.63501">
        <ele>1149.1999511719</ele>
        <time>2023-05-19T08:57:14.000Z</time>
      </trkpt>
      <trkpt lat="45.95745" lon="5.63508">
        <ele>1149.8000488281</ele>
        <time>2023-05-19T08:57:19.000Z</time>
      </trkpt>
      <trkpt lat="45.9574" lon="5.63512">
        <ele>1150.1999511719</ele>
        <time>2023-05-19T08:57:21.000Z</time>
      </trkpt>
      <trkpt lat="45.95724" lon="5.63523">
        <ele>1151</ele>
        <time>2023-05-19T08:57:27.000Z</time>
      </trkpt>
      <trkpt lat="45.95722" lon="5.63523">
        <ele>1151.4000244141</ele>
        <time>2023-05-19T08:57:28.000Z</time>
      </trkpt>
      <trkpt lat="45.95713" lon="5.6352">
        <ele>1152.5999755859</ele>
        <time>2023-05-19T08:57:32.000Z</time>
      </trkpt>
      <trkpt lat="45.95707" lon="5.63519">
        <ele>1153</ele>
        <time>2023-05-19T08:57:34.000Z</time>
      </trkpt>
      <trkpt lat="45.95698" lon="5.63517">
        <ele>1153.5999755859</ele>
        <time>2023-05-19T08:57:37.000Z</time>
      </trkpt>
      <trkpt lat="45.95688" lon="5.63516">
        <ele>1154.1999511719</ele>
        <time>2023-05-19T08:57:41.000Z</time>
      </trkpt>
      <trkpt lat="45.95683" lon="5.63517">
        <ele>1154.5999755859</ele>
        <time>2023-05-19T08:57:43.000Z</time>
      </trkpt>
      <trkpt lat="45.95674" lon="5.63517">
        <ele>1155.5999755859</ele>
        <time>2023-05-19T08:57:47.000Z</time>
      </trkpt>
      <trkpt lat="45.95672" lon="5.63518">
        <ele>1156.1999511719</ele>
        <time>2023-05-19T08:57:48.000Z</time>
      </trkpt>
      <trkpt lat="45.95667" lon="5.63517">
        <ele>1156.8000488281</ele>
        <time>2023-05-19T08:57:51.000Z</time>
      </trkpt>
      <trkpt lat="45.95661" lon="5.63515">
        <ele>1157.1999511719</ele>
        <time>2023-05-19T08:57:54.000Z</time>
      </trkpt>
      <trkpt lat="45.95657" lon="5.63514">
        <ele>1157.5999755859</ele>
        <time>2023-05-19T08:57:56.000Z</time>
      </trkpt>
      <trkpt lat="45.95652" lon="5.63514">
        <ele>1157.8000488281</ele>
        <time>2023-05-19T08:57:58.000Z</time>
      </trkpt>
      <trkpt lat="45.9565" lon="5.63513">
        <ele>1158</ele>
        <time>2023-05-19T08:57:59.000Z</time>
      </trkpt>
      <trkpt lat="45.95645" lon="5.6351">
        <ele>1159.5999755859</ele>
        <time>2023-05-19T08:58:02.000Z</time>
      </trkpt>
      <trkpt lat="45.9564" lon="5.63508">
        <ele>1160.5999755859</ele>
        <time>2023-05-19T08:58:05.000Z</time>
      </trkpt>
      <trkpt lat="45.95639" lon="5.63507">
        <ele>1160.8000488281</ele>
        <time>2023-05-19T08:58:06.000Z</time>
      </trkpt>
      <trkpt lat="45.95628" lon="5.635">
        <ele>1161.8000488281</ele>
        <time>2023-05-19T08:58:12.000Z</time>
      </trkpt>
      <trkpt lat="45.95625" lon="5.635">
        <ele>1162</ele>
        <time>2023-05-19T08:58:13.000Z</time>
      </trkpt>
      <trkpt lat="45.95617" lon="5.63499">
        <ele>1163</ele>
        <time>2023-05-19T08:58:17.000Z</time>
      </trkpt>
      <trkpt lat="45.9561" lon="5.63498">
        <ele>1164</ele>
        <time>2023-05-19T08:58:21.000Z</time>
      </trkpt>
      <trkpt lat="45.95608" lon="5.63497">
        <ele>1164.1999511719</ele>
        <time>2023-05-19T08:58:22.000Z</time>
      </trkpt>
      <trkpt lat="45.95597" lon="5.6349">
        <ele>1165.1999511719</ele>
        <time>2023-05-19T08:58:28.000Z</time>
      </trkpt>
      <trkpt lat="45.95593" lon="5.63487">
        <ele>1166</ele>
        <time>2023-05-19T08:58:30.000Z</time>
      </trkpt>
      <trkpt lat="45.95589" lon="5.63485">
        <ele>1166.4000244141</ele>
        <time>2023-05-19T08:58:32.000Z</time>
      </trkpt>
      <trkpt lat="45.95581" lon="5.63482">
        <ele>1168</ele>
        <time>2023-05-19T08:58:36.000Z</time>
      </trkpt>
      <trkpt lat="45.9558" lon="5.63481">
        <ele>1168.4000244141</ele>
        <time>2023-05-19T08:58:37.000Z</time>
      </trkpt>
      <trkpt lat="45.95572" lon="5.63479">
        <ele>1169.1999511719</ele>
        <time>2023-05-19T08:58:41.000Z</time>
      </trkpt>
      <trkpt lat="45.95565" lon="5.63475">
        <ele>1170.4000244141</ele>
        <time>2023-05-19T08:58:45.000Z</time>
      </trkpt>
      <trkpt lat="45.95553" lon="5.63466">
        <ele>1171.5999755859</ele>
        <time>2023-05-19T08:58:52.000Z</time>
      </trkpt>
      <trkpt lat="45.95551" lon="5.63465">
        <ele>1172</ele>
        <time>2023-05-19T08:58:53.000Z</time>
      </trkpt>
      <trkpt lat="45.9554" lon="5.63462">
        <ele>1172.8000488281</ele>
        <time>2023-05-19T08:58:58.000Z</time>
      </trkpt>
      <trkpt lat="45.95537" lon="5.63462">
        <ele>1173</ele>
        <time>2023-05-19T08:59:00.000Z</time>
      </trkpt>
      <trkpt lat="45.95535" lon="5.63461">
        <ele>1173.4000244141</ele>
        <time>2023-05-19T08:59:01.000Z</time>
      </trkpt>
      <trkpt lat="45.95529" lon="5.63458">
        <ele>1174</ele>
        <time>2023-05-19T08:59:04.000Z</time>
      </trkpt>
      <trkpt lat="45.95517" lon="5.63457">
        <ele>1174.8000488281</ele>
        <time>2023-05-19T08:59:10.000Z</time>
      </trkpt>
      <trkpt lat="45.95512" lon="5.63457">
        <ele>1175.1999511719</ele>
        <time>2023-05-19T08:59:13.000Z</time>
      </trkpt>
      <trkpt lat="45.95507" lon="5.63459">
        <ele>1175.5999755859</ele>
        <time>2023-05-19T08:59:15.000Z</time>
      </trkpt>
      <trkpt lat="45.95498" lon="5.63461">
        <ele>1176.1999511719</ele>
        <time>2023-05-19T08:59:19.000Z</time>
      </trkpt>
      <trkpt lat="45.95489" lon="5.63464">
        <ele>1176.4000244141</ele>
        <time>2023-05-19T08:59:23.000Z</time>
      </trkpt>
      <trkpt lat="45.95472" lon="5.63468">
        <ele>1175.5999755859</ele>
        <time>2023-05-19T08:59:30.000Z</time>
      </trkpt>
      <trkpt lat="45.95468" lon="5.6347">
        <ele>1175</ele>
        <time>2023-05-19T08:59:32.000Z</time>
      </trkpt>
      <trkpt lat="45.95452" lon="5.63476">
        <ele>1173.8000488281</ele>
        <time>2023-05-19T08:59:37.000Z</time>
      </trkpt>
      <trkpt lat="45.95449" lon="5.63478">
        <ele>1173.4000244141</ele>
        <time>2023-05-19T08:59:38.000Z</time>
      </trkpt>
      <trkpt lat="45.95443" lon="5.63475">
        <ele>1172.5999755859</ele>
        <time>2023-05-19T08:59:40.000Z</time>
      </trkpt>
      <trkpt lat="45.95434" lon="5.63474">
        <ele>1171.4000244141</ele>
        <time>2023-05-19T08:59:43.000Z</time>
      </trkpt>
      <trkpt lat="45.95426" lon="5.63473">
        <ele>1170</ele>
        <time>2023-05-19T08:59:46.000Z</time>
      </trkpt>
      <trkpt lat="45.9542" lon="5.63473">
        <ele>1168.8000488281</ele>
        <time>2023-05-19T08:59:48.000Z</time>
      </trkpt>
      <trkpt lat="45.95411" lon="5.63472">
        <ele>1167.5999755859</ele>
        <time>2023-05-19T08:59:50.000Z</time>
      </trkpt>
      <trkpt lat="45.95405" lon="5.63471">
        <ele>1166.8000488281</ele>
        <time>2023-05-19T08:59:52.000Z</time>
      </trkpt>
      <trkpt lat="45.95403" lon="5.6347">
        <ele>1166.5999755859</ele>
        <time>2023-05-19T08:59:53.000Z</time>
      </trkpt>
      <trkpt lat="45.95399" lon="5.6347">
        <ele>1165.4000244141</ele>
        <time>2023-05-19T08:59:55.000Z</time>
      </trkpt>
      <trkpt lat="45.95395" lon="5.63468">
        <ele>1164.1999511719</ele>
        <time>2023-05-19T08:59:57.000Z</time>
      </trkpt>
      <trkpt lat="45.95381" lon="5.63462">
        <ele>1163</ele>
        <time>2023-05-19T09:00:01.000Z</time>
      </trkpt>
      <trkpt lat="45.95371" lon="5.63462">
        <ele>1162.4000244141</ele>
        <time>2023-05-19T09:00:03.000Z</time>
      </trkpt>
      <trkpt lat="45.95361" lon="5.63464">
        <ele>1161.1999511719</ele>
        <time>2023-05-19T09:00:05.000Z</time>
      </trkpt>
      <trkpt lat="45.95348" lon="5.63468">
        <ele>1160</ele>
        <time>2023-05-19T09:00:08.000Z</time>
      </trkpt>
      <trkpt lat="45.95339" lon="5.63464">
        <ele>1159</ele>
        <time>2023-05-19T09:00:11.000Z</time>
      </trkpt>
      <trkpt lat="45.95336" lon="5.63462">
        <ele>1158.5999755859</ele>
        <time>2023-05-19T09:00:12.000Z</time>
      </trkpt>
      <trkpt lat="45.95334" lon="5.63461">
        <ele>1158.5999755859</ele>
        <time>2023-05-19T09:00:13.000Z</time>
      </trkpt>
      <trkpt lat="45.95323" lon="5.63467">
        <ele>1158.1999511719</ele>
        <time>2023-05-19T09:00:17.000Z</time>
      </trkpt>
      <trkpt lat="45.95308" lon="5.63471">
        <ele>1158.4000244141</ele>
        <time>2023-05-19T09:00:24.000Z</time>
      </trkpt>
      <trkpt lat="45.953" lon="5.63469">
        <ele>1158.8000488281</ele>
        <time>2023-05-19T09:00:30.000Z</time>
      </trkpt>
      <trkpt lat="45.953" lon="5.63469">
        <ele>1159.1999511719</ele>
        <time>2023-05-19T09:00:31.000Z</time>
      </trkpt>
      <trkpt lat="45.95247" lon="5.63452">
        <ele>1158.1999511719</ele>
        <time>2023-05-19T09:02:25.000Z</time>
      </trkpt>
      <trkpt lat="45.95241" lon="5.63451">
        <ele>1158</ele>
        <time>2023-05-19T09:02:26.000Z</time>
      </trkpt>
      <trkpt lat="45.95237" lon="5.6345">
        <ele>1157.8000488281</ele>
        <time>2023-05-19T09:02:27.000Z</time>
      </trkpt>
      <trkpt lat="45.95234" lon="5.6345">
        <ele>1157.5999755859</ele>
        <time>2023-05-19T09:02:28.000Z</time>
      </trkpt>
      <trkpt lat="45.95223" lon="5.63447">
        <ele>1156.5999755859</ele>
        <time>2023-05-19T09:02:32.000Z</time>
      </trkpt>
      <trkpt lat="45.95221" lon="5.63446">
        <ele>1156.1999511719</ele>
        <time>2023-05-19T09:02:33.000Z</time>
      </trkpt>
      <trkpt lat="45.95217" lon="5.63442">
        <ele>1155.4000244141</ele>
        <time>2023-05-19T09:02:38.000Z</time>
      </trkpt>
      <trkpt lat="45.95217" lon="5.63442">
        <ele>1155.1999511719</ele>
        <time>2023-05-19T09:02:39.000Z</time>
      </trkpt>
      <trkpt lat="45.95215" lon="5.63443">
        <ele>1155.1999511719</ele>
        <time>2023-05-19T09:02:40.000Z</time>
      </trkpt>
      <trkpt lat="45.95209" lon="5.63438">
        <ele>1154.8000488281</ele>
        <time>2023-05-19T09:02:43.000Z</time>
      </trkpt>
      <trkpt lat="45.95206" lon="5.63438">
        <ele>1154.8000488281</ele>
        <time>2023-05-19T09:02:44.000Z</time>
      </trkpt>
      <trkpt lat="45.95201" lon="5.63438">
        <ele>1154.5999755859</ele>
        <time>2023-05-19T09:02:45.000Z</time>
      </trkpt>
      <trkpt lat="45.95197" lon="5.63438">
        <ele>1154.4000244141</ele>
        <time>2023-05-19T09:02:46.000Z</time>
      </trkpt>
      <trkpt lat="45.95186" lon="5.63436">
        <ele>1153.4000244141</ele>
        <time>2023-05-19T09:02:49.000Z</time>
      </trkpt>
      <trkpt lat="45.95183" lon="5.63435">
        <ele>1152.4000244141</ele>
        <time>2023-05-19T09:02:51.000Z</time>
      </trkpt>
      <trkpt lat="45.95174" lon="5.6343">
        <ele>1151</ele>
        <time>2023-05-19T09:02:54.000Z</time>
      </trkpt>
      <trkpt lat="45.95162" lon="5.63429">
        <ele>1150.5999755859</ele>
        <time>2023-05-19T09:02:57.000Z</time>
      </trkpt>
      <trkpt lat="45.95159" lon="5.63427">
        <ele>1150.1999511719</ele>
        <time>2023-05-19T09:02:58.000Z</time>
      </trkpt>
      <trkpt lat="45.95158" lon="5.63426">
        <ele>1149.4000244141</ele>
        <time>2023-05-19T09:02:59.000Z</time>
      </trkpt>
      <trkpt lat="45.95152" lon="5.63424">
        <ele>1148.4000244141</ele>
        <time>2023-05-19T09:03:01.000Z</time>
      </trkpt>
      <trkpt lat="45.95144" lon="5.63425">
        <ele>1147.1999511719</ele>
        <time>2023-05-19T09:03:04.000Z</time>
      </trkpt>
      <trkpt lat="45.95139" lon="5.63428">
        <ele>1146</ele>
        <time>2023-05-19T09:03:06.000Z</time>
      </trkpt>
      <trkpt lat="45.95134" lon="5.63426">
        <ele>1145.8000488281</ele>
        <time>2023-05-19T09:03:07.000Z</time>
      </trkpt>
      <trkpt lat="45.95122" lon="5.63424">
        <ele>1144.8000488281</ele>
        <time>2023-05-19T09:03:10.000Z</time>
      </trkpt>
      <trkpt lat="45.95115" lon="5.63422">
        <ele>1144.1999511719</ele>
        <time>2023-05-19T09:03:13.000Z</time>
      </trkpt>
      <trkpt lat="45.95104" lon="5.63424">
        <ele>1143.5999755859</ele>
        <time>2023-05-19T09:03:16.000Z</time>
      </trkpt>
      <trkpt lat="45.951" lon="5.63424">
        <ele>1143.5999755859</ele>
        <time>2023-05-19T09:03:18.000Z</time>
      </trkpt>
      <trkpt lat="45.95096" lon="5.63425">
        <ele>1142.5999755859</ele>
        <time>2023-05-19T09:03:19.000Z</time>
      </trkpt>
      <trkpt lat="45.95087" lon="5.63428">
        <ele>1141.4000244141</ele>
        <time>2023-05-19T09:03:21.000Z</time>
      </trkpt>
      <trkpt lat="45.95081" lon="5.63437">
        <ele>1140.1999511719</ele>
        <time>2023-05-19T09:03:23.000Z</time>
      </trkpt>
      <trkpt lat="45.95076" lon="5.63446">
        <ele>1139.1999511719</ele>
        <time>2023-05-19T09:03:26.000Z</time>
      </trkpt>
      <trkpt lat="45.95071" lon="5.63454">
        <ele>1138.4000244141</ele>
        <time>2023-05-19T09:03:29.000Z</time>
      </trkpt>
      <trkpt lat="45.95069" lon="5.63458">
        <ele>1138.1999511719</ele>
        <time>2023-05-19T09:03:30.000Z</time>
      </trkpt>
      <trkpt lat="45.95057" lon="5.63472">
        <ele>1137.8000488281</ele>
        <time>2023-05-19T09:03:35.000Z</time>
      </trkpt>
      <trkpt lat="45.95042" lon="5.63478">
        <ele>1137.1999511719</ele>
        <time>2023-05-19T09:03:39.000Z</time>
      </trkpt>
      <trkpt lat="45.95038" lon="5.63478">
        <ele>1136.8000488281</ele>
        <time>2023-05-19T09:03:40.000Z</time>
      </trkpt>
      <trkpt lat="45.95034" lon="5.63479">
        <ele>1137</ele>
        <time>2023-05-19T09:03:41.000Z</time>
      </trkpt>
      <trkpt lat="45.95026" lon="5.63477">
        <ele>1136.1999511719</ele>
        <time>2023-05-19T09:03:43.000Z</time>
      </trkpt>
      <trkpt lat="45.9502" lon="5.63473">
        <ele>1135.5999755859</ele>
        <time>2023-05-19T09:03:45.000Z</time>
      </trkpt>
      <trkpt lat="45.95012" lon="5.63467">
        <ele>1135</ele>
        <time>2023-05-19T09:03:47.000Z</time>
      </trkpt>
      <trkpt lat="45.95004" lon="5.63463">
        <ele>1133.5999755859</ele>
        <time>2023-05-19T09:03:49.000Z</time>
      </trkpt>
      <trkpt lat="45.95001" lon="5.63462">
        <ele>1133.4000244141</ele>
        <time>2023-05-19T09:03:50.000Z</time>
      </trkpt>
      <trkpt lat="45.94998" lon="5.63461">
        <ele>1132.1999511719</ele>
        <time>2023-05-19T09:03:51.000Z</time>
      </trkpt>
      <trkpt lat="45.94988" lon="5.6346">
        <ele>1131</ele>
        <time>2023-05-19T09:03:54.000Z</time>
      </trkpt>
      <trkpt lat="45.9498" lon="5.63462">
        <ele>1130.1999511719</ele>
        <time>2023-05-19T09:03:56.000Z</time>
      </trkpt>
      <trkpt lat="45.94976" lon="5.63461">
        <ele>1130</ele>
        <time>2023-05-19T09:03:57.000Z</time>
      </trkpt>
      <trkpt lat="45.94962" lon="5.63459">
        <ele>1129.4000244141</ele>
        <time>2023-05-19T09:04:00.000Z</time>
      </trkpt>
      <trkpt lat="45.94957" lon="5.63461">
        <ele>1129.1999511719</ele>
        <time>2023-05-19T09:04:01.000Z</time>
      </trkpt>
      <trkpt lat="45.94952" lon="5.63462">
        <ele>1129</ele>
        <time>2023-05-19T09:04:02.000Z</time>
      </trkpt>
      <trkpt lat="45.94935" lon="5.63468">
        <ele>1128</ele>
        <time>2023-05-19T09:04:06.000Z</time>
      </trkpt>
      <trkpt lat="45.94928" lon="5.63469">
        <ele>1126.5999755859</ele>
        <time>2023-05-19T09:04:08.000Z</time>
      </trkpt>
      <trkpt lat="45.94919" lon="5.63476">
        <ele>1125.5999755859</ele>
        <time>2023-05-19T09:04:10.000Z</time>
      </trkpt>
      <trkpt lat="45.94915" lon="5.63482">
        <ele>1124.4000244141</ele>
        <time>2023-05-19T09:04:11.000Z</time>
      </trkpt>
      <trkpt lat="45.9491" lon="5.63485">
        <ele>1123.4000244141</ele>
        <time>2023-05-19T09:04:12.000Z</time>
      </trkpt>
      <trkpt lat="45.94904" lon="5.63487">
        <ele>1122.4000244141</ele>
        <time>2023-05-19T09:04:14.000Z</time>
      </trkpt>
      <trkpt lat="45.94902" lon="5.63487">
        <ele>1121.8000488281</ele>
        <time>2023-05-19T09:04:15.000Z</time>
      </trkpt>
      <trkpt lat="45.94901" lon="5.63488">
        <ele>1121.1999511719</ele>
        <time>2023-05-19T09:04:16.000Z</time>
      </trkpt>
      <trkpt lat="45.94901" lon="5.63488">
        <ele>1119.5999755859</ele>
        <time>2023-05-19T09:04:18.000Z</time>
      </trkpt>
      <trkpt lat="45.94893" lon="5.63491">
        <ele>1117.1999511719</ele>
        <time>2023-05-19T09:04:37.000Z</time>
      </trkpt>
      <trkpt lat="45.94874" lon="5.63497">
        <ele>1116.5999755859</ele>
        <time>2023-05-19T09:04:41.000Z</time>
      </trkpt>
      <trkpt lat="45.94862" lon="5.63501">
        <ele>1115.5999755859</ele>
        <time>2023-05-19T09:04:43.000Z</time>
      </trkpt>
      <trkpt lat="45.94846" lon="5.63503">
        <ele>1114.4000244141</ele>
        <time>2023-05-19T09:04:45.000Z</time>
      </trkpt>
      <trkpt lat="45.9484" lon="5.63504">
        <ele>1113.4000244141</ele>
        <time>2023-05-19T09:04:46.000Z</time>
      </trkpt>
      <trkpt lat="45.94834" lon="5.63503">
        <ele>1112.8000488281</ele>
        <time>2023-05-19T09:04:47.000Z</time>
      </trkpt>
      <trkpt lat="45.94828" lon="5.63501">
        <ele>1111.8000488281</ele>
        <time>2023-05-19T09:04:48.000Z</time>
      </trkpt>
      <trkpt lat="45.94822" lon="5.63499">
        <ele>1111.1999511719</ele>
        <time>2023-05-19T09:04:49.000Z</time>
      </trkpt>
      <trkpt lat="45.94818" lon="5.63498">
        <ele>1110</ele>
        <time>2023-05-19T09:04:50.000Z</time>
      </trkpt>
      <trkpt lat="45.94805" lon="5.63496">
        <ele>1108.5999755859</ele>
        <time>2023-05-19T09:04:53.000Z</time>
      </trkpt>
      <trkpt lat="45.94791" lon="5.63495">
        <ele>1107.5999755859</ele>
        <time>2023-05-19T09:04:56.000Z</time>
      </trkpt>
      <trkpt lat="45.94779" lon="5.63497">
        <ele>1106.4000244141</ele>
        <time>2023-05-19T09:04:58.000Z</time>
      </trkpt>
      <trkpt lat="45.94759" lon="5.63494">
        <ele>1104.5999755859</ele>
        <time>2023-05-19T09:05:01.000Z</time>
      </trkpt>
      <trkpt lat="45.94749" lon="5.63492">
        <ele>1103.1999511719</ele>
        <time>2023-05-19T09:05:03.000Z</time>
      </trkpt>
      <trkpt lat="45.94743" lon="5.63491">
        <ele>1102</ele>
        <time>2023-05-19T09:05:04.000Z</time>
      </trkpt>
      <trkpt lat="45.94733" lon="5.6349">
        <ele>1101</ele>
        <time>2023-05-19T09:05:06.000Z</time>
      </trkpt>
      <trkpt lat="45.94724" lon="5.63492">
        <ele>1099.8000488281</ele>
        <time>2023-05-19T09:05:08.000Z</time>
      </trkpt>
      <trkpt lat="45.94713" lon="5.63491">
        <ele>1098.5999755859</ele>
        <time>2023-05-19T09:05:10.000Z</time>
      </trkpt>
      <trkpt lat="45.94707" lon="5.63494">
        <ele>1098.4000244141</ele>
        <time>2023-05-19T09:05:11.000Z</time>
      </trkpt>
      <trkpt lat="45.94696" lon="5.63496">
        <ele>1097</ele>
        <time>2023-05-19T09:05:13.000Z</time>
      </trkpt>
      <trkpt lat="45.94691" lon="5.63497">
        <ele>1096.5999755859</ele>
        <time>2023-05-19T09:05:14.000Z</time>
      </trkpt>
      <trkpt lat="45.94687" lon="5.63498">
        <ele>1095.5999755859</ele>
        <time>2023-05-19T09:05:15.000Z</time>
      </trkpt>
      <trkpt lat="45.9468" lon="5.635">
        <ele>1094.4000244141</ele>
        <time>2023-05-19T09:05:17.000Z</time>
      </trkpt>
      <trkpt lat="45.94672" lon="5.635">
        <ele>1093</ele>
        <time>2023-05-19T09:05:19.000Z</time>
      </trkpt>
      <trkpt lat="45.94667" lon="5.63499">
        <ele>1092</ele>
        <time>2023-05-19T09:05:20.000Z</time>
      </trkpt>
      <trkpt lat="45.94663" lon="5.63497">
        <ele>1091.5999755859</ele>
        <time>2023-05-19T09:05:21.000Z</time>
      </trkpt>
      <trkpt lat="45.94659" lon="5.63494">
        <ele>1090.5999755859</ele>
        <time>2023-05-19T09:05:22.000Z</time>
      </trkpt>
      <trkpt lat="45.94651" lon="5.6349">
        <ele>1089.1999511719</ele>
        <time>2023-05-19T09:05:24.000Z</time>
      </trkpt>
      <trkpt lat="45.94644" lon="5.63488">
        <ele>1088</ele>
        <time>2023-05-19T09:05:26.000Z</time>
      </trkpt>
      <trkpt lat="45.94634" lon="5.63486">
        <ele>1086.1999511719</ele>
        <time>2023-05-19T09:05:29.000Z</time>
      </trkpt>
      <trkpt lat="45.94631" lon="5.63486">
        <ele>1085.5999755859</ele>
        <time>2023-05-19T09:05:30.000Z</time>
      </trkpt>
      <trkpt lat="45.94628" lon="5.63486">
        <ele>1085</ele>
        <time>2023-05-19T09:05:31.000Z</time>
      </trkpt>
      <trkpt lat="45.94622" lon="5.63487">
        <ele>1083.5999755859</ele>
        <time>2023-05-19T09:05:33.000Z</time>
      </trkpt>
      <trkpt lat="45.94615" lon="5.63488">
        <ele>1082</ele>
        <time>2023-05-19T09:05:36.000Z</time>
      </trkpt>
      <trkpt lat="45.94613" lon="5.63488">
        <ele>1081.8000488281</ele>
        <time>2023-05-19T09:05:37.000Z</time>
      </trkpt>
      <trkpt lat="45.94606" lon="5.63487">
        <ele>1080.8000488281</ele>
        <time>2023-05-19T09:05:39.000Z</time>
      </trkpt>
      <trkpt lat="45.946" lon="5.63482">
        <ele>1080</ele>
        <time>2023-05-19T09:05:41.000Z</time>
      </trkpt>
      <trkpt lat="45.94596" lon="5.6348">
        <ele>1079.8000488281</ele>
        <time>2023-05-19T09:05:42.000Z</time>
      </trkpt>
      <trkpt lat="45.94588" lon="5.63475">
        <ele>1078.4000244141</ele>
        <time>2023-05-19T09:05:44.000Z</time>
      </trkpt>
      <trkpt lat="45.94581" lon="5.63469">
        <ele>1077</ele>
        <time>2023-05-19T09:05:46.000Z</time>
      </trkpt>
      <trkpt lat="45.94571" lon="5.63465">
        <ele>1075.8000488281</ele>
        <time>2023-05-19T09:05:49.000Z</time>
      </trkpt>
      <trkpt lat="45.94567" lon="5.63465">
        <ele>1074.5999755859</ele>
        <time>2023-05-19T09:05:50.000Z</time>
      </trkpt>
      <trkpt lat="45.94564" lon="5.63464">
        <ele>1074.4000244141</ele>
        <time>2023-05-19T09:05:51.000Z</time>
      </trkpt>
      <trkpt lat="45.94557" lon="5.63459">
        <ele>1073.5999755859</ele>
        <time>2023-05-19T09:05:53.000Z</time>
      </trkpt>
      <trkpt lat="45.94552" lon="5.63454">
        <ele>1073.1999511719</ele>
        <time>2023-05-19T09:05:55.000Z</time>
      </trkpt>
      <trkpt lat="45.94547" lon="5.63449">
        <ele>1072.4000244141</ele>
        <time>2023-05-19T09:05:57.000Z</time>
      </trkpt>
      <trkpt lat="45.94538" lon="5.63444">
        <ele>1071</ele>
        <time>2023-05-19T09:06:00.000Z</time>
      </trkpt>
      <trkpt lat="45.94527" lon="5.63441">
        <ele>1069.8000488281</ele>
        <time>2023-05-19T09:06:02.000Z</time>
      </trkpt>
      <trkpt lat="45.94517" lon="5.6344">
        <ele>1068</ele>
        <time>2023-05-19T09:06:05.000Z</time>
      </trkpt>
      <trkpt lat="45.94502" lon="5.63432">
        <ele>1066.5999755859</ele>
        <time>2023-05-19T09:06:08.000Z</time>
      </trkpt>
      <trkpt lat="45.94494" lon="5.63427">
        <ele>1065.4000244141</ele>
        <time>2023-05-19T09:06:11.000Z</time>
      </trkpt>
      <trkpt lat="45.94491" lon="5.63426">
        <ele>1064.1999511719</ele>
        <time>2023-05-19T09:06:12.000Z</time>
      </trkpt>
      <trkpt lat="45.94488" lon="5.63424">
        <ele>1063.8000488281</ele>
        <time>2023-05-19T09:06:13.000Z</time>
      </trkpt>
      <trkpt lat="45.94486" lon="5.63422">
        <ele>1063</ele>
        <time>2023-05-19T09:06:14.000Z</time>
      </trkpt>
      <trkpt lat="45.94485" lon="5.63419">
        <ele>1062.1999511719</ele>
        <time>2023-05-19T09:06:15.000Z</time>
      </trkpt>
      <trkpt lat="45.94483" lon="5.63416">
        <ele>1061.8000488281</ele>
        <time>2023-05-19T09:06:16.000Z</time>
      </trkpt>
      <trkpt lat="45.94478" lon="5.63406">
        <ele>1060.8000488281</ele>
        <time>2023-05-19T09:06:18.000Z</time>
      </trkpt>
      <trkpt lat="45.9447" lon="5.63391">
        <ele>1059.4000244141</ele>
        <time>2023-05-19T09:06:21.000Z</time>
      </trkpt>
      <trkpt lat="45.94469" lon="5.63385">
        <ele>1059</ele>
        <time>2023-05-19T09:06:22.000Z</time>
      </trkpt>
      <trkpt lat="45.94466" lon="5.63378">
        <ele>1058</ele>
        <time>2023-05-19T09:06:24.000Z</time>
      </trkpt>
      <trkpt lat="45.94466" lon="5.63377">
        <ele>1057.1999511719</ele>
        <time>2023-05-19T09:06:26.000Z</time>
      </trkpt>
      <trkpt lat="45.94466" lon="5.63377">
        <ele>1056.8000488281</ele>
        <time>2023-05-19T09:06:27.000Z</time>
      </trkpt>
      <trkpt lat="45.94456" lon="5.63358">
        <ele>1055.4000244141</ele>
        <time>2023-05-19T09:06:57.000Z</time>
      </trkpt>
      <trkpt lat="45.94452" lon="5.63353">
        <ele>1055.1999511719</ele>
        <time>2023-05-19T09:06:59.000Z</time>
      </trkpt>
      <trkpt lat="45.94437" lon="5.63337">
        <ele>1054.8000488281</ele>
        <time>2023-05-19T09:07:04.000Z</time>
      </trkpt>
      <trkpt lat="45.94429" lon="5.6333">
        <ele>1054</ele>
        <time>2023-05-19T09:07:07.000Z</time>
      </trkpt>
      <trkpt lat="45.94423" lon="5.63324">
        <ele>1053</ele>
        <time>2023-05-19T09:07:09.000Z</time>
      </trkpt>
      <trkpt lat="45.9442" lon="5.63321">
        <ele>1052.8000488281</ele>
        <time>2023-05-19T09:07:10.000Z</time>
      </trkpt>
      <trkpt lat="45.94413" lon="5.63315">
        <ele>1051.8000488281</ele>
        <time>2023-05-19T09:07:12.000Z</time>
      </trkpt>
      <trkpt lat="45.94404" lon="5.633">
        <ele>1050.5999755859</ele>
        <time>2023-05-19T09:07:16.000Z</time>
      </trkpt>
      <trkpt lat="45.94391" lon="5.63283">
        <ele>1049.5999755859</ele>
        <time>2023-05-19T09:07:21.000Z</time>
      </trkpt>
      <trkpt lat="45.94384" lon="5.63276">
        <ele>1049.1999511719</ele>
        <time>2023-05-19T09:07:23.000Z</time>
      </trkpt>
      <trkpt lat="45.94371" lon="5.63261">
        <ele>1048.4000244141</ele>
        <time>2023-05-19T09:07:27.000Z</time>
      </trkpt>
      <trkpt lat="45.94367" lon="5.63258">
        <ele>1048.1999511719</ele>
        <time>2023-05-19T09:07:28.000Z</time>
      </trkpt>
      <trkpt lat="45.94353" lon="5.63246">
        <ele>1047.4000244141</ele>
        <time>2023-05-19T09:07:31.000Z</time>
      </trkpt>
      <trkpt lat="45.94348" lon="5.63242">
        <ele>1047</ele>
        <time>2023-05-19T09:07:32.000Z</time>
      </trkpt>
      <trkpt lat="45.94334" lon="5.63233">
        <ele>1045.1999511719</ele>
        <time>2023-05-19T09:07:35.000Z</time>
      </trkpt>
      <trkpt lat="45.9433" lon="5.63229">
        <ele>1044.8000488281</ele>
        <time>2023-05-19T09:07:36.000Z</time>
      </trkpt>
      <trkpt lat="45.94327" lon="5.63226">
        <ele>1044.1999511719</ele>
        <time>2023-05-19T09:07:37.000Z</time>
      </trkpt>
      <trkpt lat="45.94325" lon="5.63225">
        <ele>1044</ele>
        <time>2023-05-19T09:07:38.000Z</time>
      </trkpt>
      <trkpt lat="45.94322" lon="5.63224">
        <ele>1043.8000488281</ele>
        <time>2023-05-19T09:07:39.000Z</time>
      </trkpt>
      <trkpt lat="45.94317" lon="5.63221">
        <ele>1042.8000488281</ele>
        <time>2023-05-19T09:07:41.000Z</time>
      </trkpt>
      <trkpt lat="45.94295" lon="5.63214">
        <ele>1041.8000488281</ele>
        <time>2023-05-19T09:07:46.000Z</time>
      </trkpt>
      <trkpt lat="45.94292" lon="5.63212">
        <ele>1041.5999755859</ele>
        <time>2023-05-19T09:07:47.000Z</time>
      </trkpt>
      <trkpt lat="45.94279" lon="5.63196">
        <ele>1040.4000244141</ele>
        <time>2023-05-19T09:07:50.000Z</time>
      </trkpt>
      <trkpt lat="45.94273" lon="5.63188">
        <ele>1039.8000488281</ele>
        <time>2023-05-19T09:07:52.000Z</time>
      </trkpt>
      <trkpt lat="45.94259" lon="5.63171">
        <ele>1039</ele>
        <time>2023-05-19T09:07:55.000Z</time>
      </trkpt>
      <trkpt lat="45.9425" lon="5.63163">
        <ele>1038.5999755859</ele>
        <time>2023-05-19T09:07:57.000Z</time>
      </trkpt>
      <trkpt lat="45.94241" lon="5.63158">
        <ele>1037.8000488281</ele>
        <time>2023-05-19T09:08:00.000Z</time>
      </trkpt>
      <trkpt lat="45.94231" lon="5.63151">
        <ele>1037.4000244141</ele>
        <time>2023-05-19T09:08:02.000Z</time>
      </trkpt>
      <trkpt lat="45.94215" lon="5.63135">
        <ele>1036.5999755859</ele>
        <time>2023-05-19T09:08:06.000Z</time>
      </trkpt>
      <trkpt lat="45.94211" lon="5.6313">
        <ele>1036.4000244141</ele>
        <time>2023-05-19T09:08:07.000Z</time>
      </trkpt>
      <trkpt lat="45.94196" lon="5.63108">
        <ele>1035.5999755859</ele>
        <time>2023-05-19T09:08:13.000Z</time>
      </trkpt>
      <trkpt lat="45.94193" lon="5.63091">
        <ele>1034.1999511719</ele>
        <time>2023-05-19T09:08:18.000Z</time>
      </trkpt>
      <trkpt lat="45.9419" lon="5.63065">
        <ele>1033.4000244141</ele>
        <time>2023-05-19T09:08:24.000Z</time>
      </trkpt>
      <trkpt lat="45.9419" lon="5.63053">
        <ele>1032.8000488281</ele>
        <time>2023-05-19T09:08:27.000Z</time>
      </trkpt>
      <trkpt lat="45.9419" lon="5.63045">
        <ele>1032.4000244141</ele>
        <time>2023-05-19T09:08:29.000Z</time>
      </trkpt>
      <trkpt lat="45.94188" lon="5.63038">
        <ele>1032.1999511719</ele>
        <time>2023-05-19T09:08:31.000Z</time>
      </trkpt>
      <trkpt lat="45.94186" lon="5.63032">
        <ele>1031.8000488281</ele>
        <time>2023-05-19T09:08:33.000Z</time>
      </trkpt>
      <trkpt lat="45.94186" lon="5.63028">
        <ele>1031.4000244141</ele>
        <time>2023-05-19T09:08:37.000Z</time>
      </trkpt>
      <trkpt lat="45.94174" lon="5.62967">
        <ele>1030.4000244141</ele>
        <time>2023-05-19T09:09:09.000Z</time>
      </trkpt>
      <trkpt lat="45.94173" lon="5.62965">
        <ele>1030.4000244141</ele>
        <time>2023-05-19T09:09:10.000Z</time>
      </trkpt>
      <trkpt lat="45.94171" lon="5.6296">
        <ele>1030.4000244141</ele>
        <time>2023-05-19T09:09:12.000Z</time>
      </trkpt>
      <trkpt lat="45.94167" lon="5.62941">
        <ele>1030.1999511719</ele>
        <time>2023-05-19T09:09:19.000Z</time>
      </trkpt>
      <trkpt lat="45.94165" lon="5.62935">
        <ele>1030</ele>
        <time>2023-05-19T09:09:23.000Z</time>
      </trkpt>
      <trkpt lat="45.94163" lon="5.62933">
        <ele>1029.8000488281</ele>
        <time>2023-05-19T09:09:25.000Z</time>
      </trkpt>
      <trkpt lat="45.94162" lon="5.62923">
        <ele>1029.8000488281</ele>
        <time>2023-05-19T09:09:30.000Z</time>
      </trkpt>
      <trkpt lat="45.94159" lon="5.62915">
        <ele>1029.8000488281</ele>
        <time>2023-05-19T09:09:33.000Z</time>
      </trkpt>
      <trkpt lat="45.94159" lon="5.62912">
        <ele>1029.8000488281</ele>
        <time>2023-05-19T09:09:35.000Z</time>
      </trkpt>
      <trkpt lat="45.94159" lon="5.6291">
        <ele>1029.8000488281</ele>
        <time>2023-05-19T09:09:36.000Z</time>
      </trkpt>
      <trkpt lat="45.94159" lon="5.62909">
        <ele>1029.8000488281</ele>
        <time>2023-05-19T09:09:37.000Z</time>
      </trkpt>
      <trkpt lat="45.94153" lon="5.62893">
        <ele>1029.8000488281</ele>
        <time>2023-05-19T09:09:42.000Z</time>
      </trkpt>
      <trkpt lat="45.94153" lon="5.62891">
        <ele>1029.5999755859</ele>
        <time>2023-05-19T09:09:46.000Z</time>
      </trkpt>
      <trkpt lat="45.94153" lon="5.62891">
        <ele>1029.5999755859</ele>
        <time>2023-05-19T09:09:53.000Z</time>
      </trkpt>
      <trkpt lat="45.941" lon="5.62858">
        <ele>1032.1999511719</ele>
        <time>2023-05-19T09:11:31.000Z</time>
      </trkpt>
      <trkpt lat="45.94097" lon="5.62858">
        <ele>1032.1999511719</ele>
        <time>2023-05-19T09:11:32.000Z</time>
      </trkpt>
      <trkpt lat="45.94094" lon="5.62858">
        <ele>1032</ele>
        <time>2023-05-19T09:11:33.000Z</time>
      </trkpt>
      <trkpt lat="45.94084" lon="5.6286">
        <ele>1031.4000244141</ele>
        <time>2023-05-19T09:11:36.000Z</time>
      </trkpt>
      <trkpt lat="45.9408" lon="5.62859">
        <ele>1031</ele>
        <time>2023-05-19T09:11:37.000Z</time>
      </trkpt>
      <trkpt lat="45.94071" lon="5.62855">
        <ele>1030.5999755859</ele>
        <time>2023-05-19T09:11:39.000Z</time>
      </trkpt>
      <trkpt lat="45.94067" lon="5.62851">
        <ele>1030.5999755859</ele>
        <time>2023-05-19T09:11:40.000Z</time>
      </trkpt>
      <trkpt lat="45.9406" lon="5.62844">
        <ele>1030</ele>
        <time>2023-05-19T09:11:42.000Z</time>
      </trkpt>
      <trkpt lat="45.94051" lon="5.62836">
        <ele>1029</ele>
        <time>2023-05-19T09:11:45.000Z</time>
      </trkpt>
      <trkpt lat="45.94049" lon="5.62835">
        <ele>1028.5999755859</ele>
        <time>2023-05-19T09:11:46.000Z</time>
      </trkpt>
      <trkpt lat="45.9404" lon="5.6283">
        <ele>1028.1999511719</ele>
        <time>2023-05-19T09:11:50.000Z</time>
      </trkpt>
      <trkpt lat="45.94028" lon="5.62822">
        <ele>1028</ele>
        <time>2023-05-19T09:11:53.000Z</time>
      </trkpt>
      <trkpt lat="45.94025" lon="5.62817">
        <ele>1027.5999755859</ele>
        <time>2023-05-19T09:11:54.000Z</time>
      </trkpt>
      <trkpt lat="45.94019" lon="5.628">
        <ele>1026.8000488281</ele>
        <time>2023-05-19T09:11:58.000Z</time>
      </trkpt>
      <trkpt lat="45.94015" lon="5.62795">
        <ele>1026.1999511719</ele>
        <time>2023-05-19T09:11:59.000Z</time>
      </trkpt>
      <trkpt lat="45.94008" lon="5.62787">
        <ele>1025</ele>
        <time>2023-05-19T09:12:01.000Z</time>
      </trkpt>
      <trkpt lat="45.94003" lon="5.62782">
        <ele>1024.1999511719</ele>
        <time>2023-05-19T09:12:02.000Z</time>
      </trkpt>
      <trkpt lat="45.94" lon="5.62778">
        <ele>1023.5999755859</ele>
        <time>2023-05-19T09:12:03.000Z</time>
      </trkpt>
      <trkpt lat="45.93989" lon="5.62766">
        <ele>1021.799987793</ele>
        <time>2023-05-19T09:12:06.000Z</time>
      </trkpt>
      <trkpt lat="45.93986" lon="5.62762">
        <ele>1021.5999755859</ele>
        <time>2023-05-19T09:12:07.000Z</time>
      </trkpt>
      <trkpt lat="45.93983" lon="5.62756">
        <ele>1020.799987793</ele>
        <time>2023-05-19T09:12:08.000Z</time>
      </trkpt>
      <trkpt lat="45.93981" lon="5.62749">
        <ele>1019.5999755859</ele>
        <time>2023-05-19T09:12:09.000Z</time>
      </trkpt>
      <trkpt lat="45.93976" lon="5.62736">
        <ele>1017.5999755859</ele>
        <time>2023-05-19T09:12:11.000Z</time>
      </trkpt>
      <trkpt lat="45.93972" lon="5.62734">
        <ele>1017</ele>
        <time>2023-05-19T09:12:12.000Z</time>
      </trkpt>
      <trkpt lat="45.93968" lon="5.62735">
        <ele>1016</ele>
        <time>2023-05-19T09:12:13.000Z</time>
      </trkpt>
      <trkpt lat="45.93965" lon="5.62737">
        <ele>1015.5999755859</ele>
        <time>2023-05-19T09:12:14.000Z</time>
      </trkpt>
      <trkpt lat="45.93963" lon="5.62741">
        <ele>1014.799987793</ele>
        <time>2023-05-19T09:12:15.000Z</time>
      </trkpt>
      <trkpt lat="45.93957" lon="5.62759">
        <ele>1014.200012207</ele>
        <time>2023-05-19T09:12:20.000Z</time>
      </trkpt>
      <trkpt lat="45.93948" lon="5.62783">
        <ele>1014.799987793</ele>
        <time>2023-05-19T09:12:28.000Z</time>
      </trkpt>
      <trkpt lat="45.93941" lon="5.62793">
        <ele>1016</ele>
        <time>2023-05-19T09:12:32.000Z</time>
      </trkpt>
      <trkpt lat="45.93939" lon="5.62796">
        <ele>1016</ele>
        <time>2023-05-19T09:12:33.000Z</time>
      </trkpt>
      <trkpt lat="45.93926" lon="5.62826">
        <ele>1016.5999755859</ele>
        <time>2023-05-19T09:12:42.000Z</time>
      </trkpt>
      <trkpt lat="45.93923" lon="5.62831">
        <ele>1017</ele>
        <time>2023-05-19T09:12:44.000Z</time>
      </trkpt>
      <trkpt lat="45.93914" lon="5.6285">
        <ele>1017.200012207</ele>
        <time>2023-05-19T09:12:50.000Z</time>
      </trkpt>
      <trkpt lat="45.93907" lon="5.62873">
        <ele>1018</ele>
        <time>2023-05-19T09:12:57.000Z</time>
      </trkpt>
      <trkpt lat="45.93905" lon="5.62879">
        <ele>1018.200012207</ele>
        <time>2023-05-19T09:12:59.000Z</time>
      </trkpt>
      <trkpt lat="45.93903" lon="5.62892">
        <ele>1019.200012207</ele>
        <time>2023-05-19T09:13:04.000Z</time>
      </trkpt>
      <trkpt lat="45.93903" lon="5.62895">
        <ele>1019.4000244141</ele>
        <time>2023-05-19T09:13:05.000Z</time>
      </trkpt>
      <trkpt lat="45.93902" lon="5.62907">
        <ele>1020.200012207</ele>
        <time>2023-05-19T09:13:10.000Z</time>
      </trkpt>
      <trkpt lat="45.93901" lon="5.6291">
        <ele>1020.4000244141</ele>
        <time>2023-05-19T09:13:11.000Z</time>
      </trkpt>
      <trkpt lat="45.93898" lon="5.62936">
        <ele>1021.200012207</ele>
        <time>2023-05-19T09:13:18.000Z</time>
      </trkpt>
      <trkpt lat="45.93896" lon="5.62947">
        <ele>1021.4000244141</ele>
        <time>2023-05-19T09:13:20.000Z</time>
      </trkpt>
      <trkpt lat="45.93892" lon="5.62967">
        <ele>1021.5999755859</ele>
        <time>2023-05-19T09:13:24.000Z</time>
      </trkpt>
      <trkpt lat="45.93892" lon="5.63006">
        <ele>1021.5999755859</ele>
        <time>2023-05-19T09:13:30.000Z</time>
      </trkpt>
      <trkpt lat="45.9389" lon="5.63042">
        <ele>1021.200012207</ele>
        <time>2023-05-19T09:13:36.000Z</time>
      </trkpt>
      <trkpt lat="45.9389" lon="5.63051">
        <ele>1021</ele>
        <time>2023-05-19T09:13:39.000Z</time>
      </trkpt>
      <trkpt lat="45.93889" lon="5.63052">
        <ele>1021</ele>
        <time>2023-05-19T09:13:40.000Z</time>
      </trkpt>
      <trkpt lat="45.93877" lon="5.63057">
        <ele>1021.200012207</ele>
        <time>2023-05-19T09:13:45.000Z</time>
      </trkpt>
      <trkpt lat="45.93855" lon="5.63057">
        <ele>1021.4000244141</ele>
        <time>2023-05-19T09:13:52.000Z</time>
      </trkpt>
      <trkpt lat="45.93841" lon="5.63053">
        <ele>1020.4000244141</ele>
        <time>2023-05-19T09:13:57.000Z</time>
      </trkpt>
      <trkpt lat="45.93838" lon="5.63053">
        <ele>1020</ele>
        <time>2023-05-19T09:13:58.000Z</time>
      </trkpt>
      <trkpt lat="45.93831" lon="5.63055">
        <ele>1019</ele>
        <time>2023-05-19T09:14:01.000Z</time>
      </trkpt>
      <trkpt lat="45.9382" lon="5.63058">
        <ele>1018.4000244141</ele>
        <time>2023-05-19T09:14:04.000Z</time>
      </trkpt>
      <trkpt lat="45.93808" lon="5.63066">
        <ele>1017.799987793</ele>
        <time>2023-05-19T09:14:06.000Z</time>
      </trkpt>
      <trkpt lat="45.93804" lon="5.63071">
        <ele>1017</ele>
        <time>2023-05-19T09:14:08.000Z</time>
      </trkpt>
      <trkpt lat="45.938" lon="5.63075">
        <ele>1016.5999755859</ele>
        <time>2023-05-19T09:14:09.000Z</time>
      </trkpt>
      <trkpt lat="45.93788" lon="5.63086">
        <ele>1015.5999755859</ele>
        <time>2023-05-19T09:14:12.000Z</time>
      </trkpt>
      <trkpt lat="45.9378" lon="5.63092">
        <ele>1015.4000244141</ele>
        <time>2023-05-19T09:14:13.000Z</time>
      </trkpt>
      <trkpt lat="45.93766" lon="5.63097">
        <ele>1014.4000244141</ele>
        <time>2023-05-19T09:14:17.000Z</time>
      </trkpt>
      <trkpt lat="45.93754" lon="5.63106">
        <ele>1013.799987793</ele>
        <time>2023-05-19T09:14:20.000Z</time>
      </trkpt>
      <trkpt lat="45.93741" lon="5.63118">
        <ele>1013.5999755859</ele>
        <time>2023-05-19T09:14:21.000Z</time>
      </trkpt>
      <trkpt lat="45.93741" lon="5.63118">
        <ele>1013.5999755859</ele>
        <time>2023-05-19T09:14:22.000Z</time>
      </trkpt>
      <trkpt lat="45.93731" lon="5.63129">
        <ele>1012.799987793</ele>
        <time>2023-05-19T09:14:23.000Z</time>
      </trkpt>
      <trkpt lat="45.93726" lon="5.63139">
        <ele>1012.4000244141</ele>
        <time>2023-05-19T09:14:25.000Z</time>
      </trkpt>
      <trkpt lat="45.93724" lon="5.63143">
        <ele>1011.5999755859</ele>
        <time>2023-05-19T09:14:27.000Z</time>
      </trkpt>
      <trkpt lat="45.93722" lon="5.6315">
        <ele>1011.4000244141</ele>
        <time>2023-05-19T09:14:28.000Z</time>
      </trkpt>
      <trkpt lat="45.93721" lon="5.63153">
        <ele>1011.4000244141</ele>
        <time>2023-05-19T09:14:29.000Z</time>
      </trkpt>
      <trkpt lat="45.9372" lon="5.63164">
        <ele>1011</ele>
        <time>2023-05-19T09:14:32.000Z</time>
      </trkpt>
      <trkpt lat="45.93717" lon="5.63184">
        <ele>1010.4000244141</ele>
        <time>2023-05-19T09:14:35.000Z</time>
      </trkpt>
      <trkpt lat="45.93716" lon="5.63192">
        <ele>1009.4000244141</ele>
        <time>2023-05-19T09:14:37.000Z</time>
      </trkpt>
      <trkpt lat="45.93716" lon="5.63202">
        <ele>1009.200012207</ele>
        <time>2023-05-19T09:14:38.000Z</time>
      </trkpt>
      <trkpt lat="45.93716" lon="5.63207">
        <ele>1007.200012207</ele>
        <time>2023-05-19T09:14:40.000Z</time>
      </trkpt>
      <trkpt lat="45.93712" lon="5.63221">
        <ele>1006</ele>
        <time>2023-05-19T09:14:42.000Z</time>
      </trkpt>
      <trkpt lat="45.93712" lon="5.63224">
        <ele>1005.4000244141</ele>
        <time>2023-05-19T09:14:43.000Z</time>
      </trkpt>
      <trkpt lat="45.93711" lon="5.63227">
        <ele>1003.799987793</ele>
        <time>2023-05-19T09:14:44.000Z</time>
      </trkpt>
      <trkpt lat="45.93709" lon="5.63233">
        <ele>1002</ele>
        <time>2023-05-19T09:14:46.000Z</time>
      </trkpt>
      <trkpt lat="45.93705" lon="5.6324">
        <ele>1000.799987793</ele>
        <time>2023-05-19T09:14:48.000Z</time>
      </trkpt>
      <trkpt lat="45.93695" lon="5.63248">
        <ele>998.79998779297</ele>
        <time>2023-05-19T09:14:51.000Z</time>
      </trkpt>
      <trkpt lat="45.93691" lon="5.63251">
        <ele>997.20001220703</ele>
        <time>2023-05-19T09:14:53.000Z</time>
      </trkpt>
      <trkpt lat="45.93687" lon="5.63251">
        <ele>995.59997558594</ele>
        <time>2023-05-19T09:14:56.000Z</time>
      </trkpt>
      <trkpt lat="45.9368" lon="5.63252">
        <ele>994.40002441406</ele>
        <time>2023-05-19T09:14:58.000Z</time>
      </trkpt>
      <trkpt lat="45.93676" lon="5.63252">
        <ele>993.79998779297</ele>
        <time>2023-05-19T09:14:59.000Z</time>
      </trkpt>
      <trkpt lat="45.93673" lon="5.6325">
        <ele>993</ele>
        <time>2023-05-19T09:15:00.000Z</time>
      </trkpt>
      <trkpt lat="45.93665" lon="5.63248">
        <ele>990.79998779297</ele>
        <time>2023-05-19T09:15:03.000Z</time>
      </trkpt>
      <trkpt lat="45.93656" lon="5.63251">
        <ele>989.59997558594</ele>
        <time>2023-05-19T09:15:05.000Z</time>
      </trkpt>
      <trkpt lat="45.93653" lon="5.63253">
        <ele>988.59997558594</ele>
        <time>2023-05-19T09:15:07.000Z</time>
      </trkpt>
      <trkpt lat="45.93649" lon="5.63254">
        <ele>987.40002441406</ele>
        <time>2023-05-19T09:15:10.000Z</time>
      </trkpt>
      <trkpt lat="45.93649" lon="5.63254">
        <ele>986.40002441406</ele>
        <time>2023-05-19T09:15:13.000Z</time>
      </trkpt>
      <trkpt lat="45.93649" lon="5.63254">
        <ele>985.79998779297</ele>
        <time>2023-05-19T09:15:14.000Z</time>
      </trkpt>
      <trkpt lat="45.93634" lon="5.63248">
        <ele>983.59997558594</ele>
        <time>2023-05-19T09:15:26.000Z</time>
      </trkpt>
      <trkpt lat="45.93633" lon="5.63248">
        <ele>983.20001220703</ele>
        <time>2023-05-19T09:15:27.000Z</time>
      </trkpt>
      <trkpt lat="45.93632" lon="5.63248">
        <ele>982.40002441406</ele>
        <time>2023-05-19T09:15:29.000Z</time>
      </trkpt>
      <trkpt lat="45.93631" lon="5.63246">
        <ele>982</ele>
        <time>2023-05-19T09:15:31.000Z</time>
      </trkpt>
      <trkpt lat="45.93631" lon="5.63245">
        <ele>981.40002441406</ele>
        <time>2023-05-19T09:15:32.000Z</time>
      </trkpt>
      <trkpt lat="45.9363" lon="5.63245">
        <ele>981.20001220703</ele>
        <time>2023-05-19T09:15:33.000Z</time>
      </trkpt>
      <trkpt lat="45.93627" lon="5.63247">
        <ele>980.40002441406</ele>
        <time>2023-05-19T09:15:38.000Z</time>
      </trkpt>
      <trkpt lat="45.93625" lon="5.63248">
        <ele>980.20001220703</ele>
        <time>2023-05-19T09:15:39.000Z</time>
      </trkpt>
      <trkpt lat="45.93625" lon="5.63248">
        <ele>980</ele>
        <time>2023-05-19T09:15:40.000Z</time>
      </trkpt>
      <trkpt lat="45.9361" lon="5.63266">
        <ele>978.79998779297</ele>
        <time>2023-05-19T09:15:44.000Z</time>
      </trkpt>
      <trkpt lat="45.93598" lon="5.63289">
        <ele>977.20001220703</ele>
        <time>2023-05-19T09:15:48.000Z</time>
      </trkpt>
      <trkpt lat="45.93592" lon="5.63297">
        <ele>976.20001220703</ele>
        <time>2023-05-19T09:15:51.000Z</time>
      </trkpt>
      <trkpt lat="45.93589" lon="5.63299">
        <ele>976</ele>
        <time>2023-05-19T09:15:52.000Z</time>
      </trkpt>
      <trkpt lat="45.93582" lon="5.633">
        <ele>975.20001220703</ele>
        <time>2023-05-19T09:15:54.000Z</time>
      </trkpt>
      <trkpt lat="45.93573" lon="5.63301">
        <ele>973.59997558594</ele>
        <time>2023-05-19T09:15:57.000Z</time>
      </trkpt>
      <trkpt lat="45.93567" lon="5.63301">
        <ele>972.20001220703</ele>
        <time>2023-05-19T09:15:59.000Z</time>
      </trkpt>
      <trkpt lat="45.93564" lon="5.63302">
        <ele>971</ele>
        <time>2023-05-19T09:16:00.000Z</time>
      </trkpt>
      <trkpt lat="45.93558" lon="5.633">
        <ele>969.40002441406</ele>
        <time>2023-05-19T09:16:02.000Z</time>
      </trkpt>
      <trkpt lat="45.93558" lon="5.633">
        <ele>969</ele>
        <time>2023-05-19T09:16:03.000Z</time>
      </trkpt>
      <trkpt lat="45.93555" lon="5.63299">
        <ele>968.40002441406</ele>
        <time>2023-05-19T09:16:04.000Z</time>
      </trkpt>
      <trkpt lat="45.93543" lon="5.63294">
        <ele>967.20001220703</ele>
        <time>2023-05-19T09:16:06.000Z</time>
      </trkpt>
      <trkpt lat="45.9354" lon="5.63291">
        <ele>965.59997558594</ele>
        <time>2023-05-19T09:16:07.000Z</time>
      </trkpt>
      <trkpt lat="45.93536" lon="5.63289">
        <ele>965</ele>
        <time>2023-05-19T09:16:08.000Z</time>
      </trkpt>
      <trkpt lat="45.93532" lon="5.63287">
        <ele>964</ele>
        <time>2023-05-19T09:16:09.000Z</time>
      </trkpt>
      <trkpt lat="45.93518" lon="5.63276">
        <ele>963</ele>
        <time>2023-05-19T09:16:12.000Z</time>
      </trkpt>
      <trkpt lat="45.93508" lon="5.63272">
        <ele>962</ele>
        <time>2023-05-19T09:16:14.000Z</time>
      </trkpt>
      <trkpt lat="45.93504" lon="5.63269">
        <ele>961.40002441406</ele>
        <time>2023-05-19T09:16:15.000Z</time>
      </trkpt>
      <trkpt lat="45.93496" lon="5.63271">
        <ele>960.20001220703</ele>
        <time>2023-05-19T09:16:17.000Z</time>
      </trkpt>
      <trkpt lat="45.93488" lon="5.63269">
        <ele>959</ele>
        <time>2023-05-19T09:16:19.000Z</time>
      </trkpt>
      <trkpt lat="45.93475" lon="5.63267">
        <ele>956.20001220703</ele>
        <time>2023-05-19T09:16:22.000Z</time>
      </trkpt>
      <trkpt lat="45.93465" lon="5.63266">
        <ele>955</ele>
        <time>2023-05-19T09:16:24.000Z</time>
      </trkpt>
      <trkpt lat="45.93457" lon="5.63267">
        <ele>954</ele>
        <time>2023-05-19T09:16:26.000Z</time>
      </trkpt>
      <trkpt lat="45.93449" lon="5.63272">
        <ele>952.59997558594</ele>
        <time>2023-05-19T09:16:28.000Z</time>
      </trkpt>
      <trkpt lat="45.93446" lon="5.63271">
        <ele>951</ele>
        <time>2023-05-19T09:16:29.000Z</time>
      </trkpt>
      <trkpt lat="45.93439" lon="5.63271">
        <ele>949</ele>
        <time>2023-05-19T09:16:31.000Z</time>
      </trkpt>
      <trkpt lat="45.93431" lon="5.63271">
        <ele>948</ele>
        <time>2023-05-19T09:16:33.000Z</time>
      </trkpt>
      <trkpt lat="45.93427" lon="5.63271">
        <ele>946.20001220703</ele>
        <time>2023-05-19T09:16:34.000Z</time>
      </trkpt>
      <trkpt lat="45.93421" lon="5.63272">
        <ele>945</ele>
        <time>2023-05-19T09:16:36.000Z</time>
      </trkpt>
      <trkpt lat="45.93414" lon="5.63271">
        <ele>943</ele>
        <time>2023-05-19T09:16:38.000Z</time>
      </trkpt>
      <trkpt lat="45.9341" lon="5.6327">
        <ele>941.40002441406</ele>
        <time>2023-05-19T09:16:39.000Z</time>
      </trkpt>
      <trkpt lat="45.93404" lon="5.63271">
        <ele>939.40002441406</ele>
        <time>2023-05-19T09:16:41.000Z</time>
      </trkpt>
      <trkpt lat="45.934" lon="5.63271">
        <ele>938.59997558594</ele>
        <time>2023-05-19T09:16:42.000Z</time>
      </trkpt>
      <trkpt lat="45.93397" lon="5.63271">
        <ele>937.20001220703</ele>
        <time>2023-05-19T09:16:43.000Z</time>
      </trkpt>
      <trkpt lat="45.93393" lon="5.63272">
        <ele>935.20001220703</ele>
        <time>2023-05-19T09:16:45.000Z</time>
      </trkpt>
      <trkpt lat="45.93382" lon="5.63275">
        <ele>933.40002441406</ele>
        <time>2023-05-19T09:16:47.000Z</time>
      </trkpt>
      <trkpt lat="45.93374" lon="5.63276">
        <ele>931.40002441406</ele>
        <time>2023-05-19T09:16:49.000Z</time>
      </trkpt>
      <trkpt lat="45.93371" lon="5.63277">
        <ele>930.20001220703</ele>
        <time>2023-05-19T09:16:50.000Z</time>
      </trkpt>
      <trkpt lat="45.93364" lon="5.63276">
        <ele>928.40002441406</ele>
        <time>2023-05-19T09:16:52.000Z</time>
      </trkpt>
      <trkpt lat="45.93358" lon="5.63279">
        <ele>926.59997558594</ele>
        <time>2023-05-19T09:16:54.000Z</time>
      </trkpt>
      <trkpt lat="45.93349" lon="5.63278">
        <ele>925.20001220703</ele>
        <time>2023-05-19T09:16:56.000Z</time>
      </trkpt>
      <trkpt lat="45.93344" lon="5.63276">
        <ele>924.20001220703</ele>
        <time>2023-05-19T09:16:57.000Z</time>
      </trkpt>
      <trkpt lat="45.93339" lon="5.63274">
        <ele>923.79998779297</ele>
        <time>2023-05-19T09:16:58.000Z</time>
      </trkpt>
      <trkpt lat="45.93333" lon="5.63272">
        <ele>922</ele>
        <time>2023-05-19T09:16:59.000Z</time>
      </trkpt>
      <trkpt lat="45.93327" lon="5.63271">
        <ele>921</ele>
        <time>2023-05-19T09:17:00.000Z</time>
      </trkpt>
      <trkpt lat="45.93319" lon="5.6327">
        <ele>920</ele>
        <time>2023-05-19T09:17:01.000Z</time>
      </trkpt>
      <trkpt lat="45.933" lon="5.63263">
        <ele>918.79998779297</ele>
        <time>2023-05-19T09:17:04.000Z</time>
      </trkpt>
      <trkpt lat="45.9329" lon="5.63261">
        <ele>917.59997558594</ele>
        <time>2023-05-19T09:17:06.000Z</time>
      </trkpt>
      <trkpt lat="45.9329" lon="5.63261">
        <ele>916.59997558594</ele>
        <time>2023-05-19T09:17:07.000Z</time>
      </trkpt>
      <trkpt lat="45.93284" lon="5.63252">
        <ele>915.40002441406</ele>
        <time>2023-05-19T09:17:08.000Z</time>
      </trkpt>
      <trkpt lat="45.9328" lon="5.63245">
        <ele>914</ele>
        <time>2023-05-19T09:17:10.000Z</time>
      </trkpt>
      <trkpt lat="45.93278" lon="5.6324">
        <ele>913.40002441406</ele>
        <time>2023-05-19T09:17:12.000Z</time>
      </trkpt>
      <trkpt lat="45.93266" lon="5.63219">
        <ele>913.40002441406</ele>
        <time>2023-05-19T09:17:20.000Z</time>
      </trkpt>
      <trkpt lat="45.93265" lon="5.63217">
        <ele>913.79998779297</ele>
        <time>2023-05-19T09:17:21.000Z</time>
      </trkpt>
      <trkpt lat="45.93259" lon="5.63205">
        <ele>914.79998779297</ele>
        <time>2023-05-19T09:17:25.000Z</time>
      </trkpt>
      <trkpt lat="45.93257" lon="5.63203">
        <ele>915.20001220703</ele>
        <time>2023-05-19T09:17:26.000Z</time>
      </trkpt>
      <trkpt lat="45.93252" lon="5.63188">
        <ele>915.79998779297</ele>
        <time>2023-05-19T09:17:32.000Z</time>
      </trkpt>
      <trkpt lat="45.93249" lon="5.63185">
        <ele>916.20001220703</ele>
        <time>2023-05-19T09:17:33.000Z</time>
      </trkpt>
      <trkpt lat="45.9324" lon="5.63165">
        <ele>916.59997558594</ele>
        <time>2023-05-19T09:17:39.000Z</time>
      </trkpt>
      <trkpt lat="45.93227" lon="5.63156">
        <ele>917.20001220703</ele>
        <time>2023-05-19T09:17:44.000Z</time>
      </trkpt>
      <trkpt lat="45.93218" lon="5.63151">
        <ele>917.79998779297</ele>
        <time>2023-05-19T09:17:49.000Z</time>
      </trkpt>
      <trkpt lat="45.93213" lon="5.6315">
        <ele>918.40002441406</ele>
        <time>2023-05-19T09:17:52.000Z</time>
      </trkpt>
      <trkpt lat="45.93207" lon="5.63144">
        <ele>919.40002441406</ele>
        <time>2023-05-19T09:17:56.000Z</time>
      </trkpt>
      <trkpt lat="45.93205" lon="5.63143">
        <ele>919.79998779297</ele>
        <time>2023-05-19T09:17:57.000Z</time>
      </trkpt>
      <trkpt lat="45.93195" lon="5.63138">
        <ele>920.79998779297</ele>
        <time>2023-05-19T09:18:02.000Z</time>
      </trkpt>
      <trkpt lat="45.9319" lon="5.63133">
        <ele>922</ele>
        <time>2023-05-19T09:18:05.000Z</time>
      </trkpt>
      <trkpt lat="45.93182" lon="5.63127">
        <ele>923.20001220703</ele>
        <time>2023-05-19T09:18:09.000Z</time>
      </trkpt>
      <trkpt lat="45.93178" lon="5.63125">
        <ele>923.59997558594</ele>
        <time>2023-05-19T09:18:11.000Z</time>
      </trkpt>
      <trkpt lat="45.93175" lon="5.63122">
        <ele>924.59997558594</ele>
        <time>2023-05-19T09:18:13.000Z</time>
      </trkpt>
      <trkpt lat="45.93169" lon="5.63116">
        <ele>925.59997558594</ele>
        <time>2023-05-19T09:18:17.000Z</time>
      </trkpt>
      <trkpt lat="45.93167" lon="5.63115">
        <ele>925.59997558594</ele>
        <time>2023-05-19T09:18:18.000Z</time>
      </trkpt>
      <trkpt lat="45.9316" lon="5.63109">
        <ele>926.59997558594</ele>
        <time>2023-05-19T09:18:22.000Z</time>
      </trkpt>
      <trkpt lat="45.93156" lon="5.63106">
        <ele>927.20001220703</ele>
        <time>2023-05-19T09:18:25.000Z</time>
      </trkpt>
      <trkpt lat="45.93151" lon="5.63103">
        <ele>927.79998779297</ele>
        <time>2023-05-19T09:18:28.000Z</time>
      </trkpt>
      <trkpt lat="45.93145" lon="5.63098">
        <ele>928.59997558594</ele>
        <time>2023-05-19T09:18:32.000Z</time>
      </trkpt>
      <trkpt lat="45.93139" lon="5.63094">
        <ele>929</ele>
        <time>2023-05-19T09:18:35.000Z</time>
      </trkpt>
      <trkpt lat="45.93128" lon="5.63086">
        <ele>929.79998779297</ele>
        <time>2023-05-19T09:18:41.000Z</time>
      </trkpt>
      <trkpt lat="45.93122" lon="5.63082">
        <ele>930.20001220703</ele>
        <time>2023-05-19T09:18:44.000Z</time>
      </trkpt>
      <trkpt lat="45.93116" lon="5.63077">
        <ele>931.20001220703</ele>
        <time>2023-05-19T09:18:47.000Z</time>
      </trkpt>
      <trkpt lat="45.93111" lon="5.63075">
        <ele>931.59997558594</ele>
        <time>2023-05-19T09:18:49.000Z</time>
      </trkpt>
      <trkpt lat="45.93101" lon="5.63066">
        <ele>931.79998779297</ele>
        <time>2023-05-19T09:18:54.000Z</time>
      </trkpt>
      <trkpt lat="45.93086" lon="5.63052">
        <ele>932</ele>
        <time>2023-05-19T09:18:59.000Z</time>
      </trkpt>
      <trkpt lat="45.93061" lon="5.63037">
        <ele>932.40002441406</ele>
        <time>2023-05-19T09:19:06.000Z</time>
      </trkpt>
      <trkpt lat="45.93031" lon="5.63012">
        <ele>932</ele>
        <time>2023-05-19T09:19:15.000Z</time>
      </trkpt>
      <trkpt lat="45.93003" lon="5.62993">
        <ele>931.20001220703</ele>
        <time>2023-05-19T09:19:21.000Z</time>
      </trkpt>
      <trkpt lat="45.92982" lon="5.62982">
        <ele>930.79998779297</ele>
        <time>2023-05-19T09:19:24.000Z</time>
      </trkpt>
      <trkpt lat="45.92974" lon="5.62978">
        <ele>930</ele>
        <time>2023-05-19T09:19:25.000Z</time>
      </trkpt>
      <trkpt lat="45.9295" lon="5.62963">
        <ele>929</ele>
        <time>2023-05-19T09:19:28.000Z</time>
      </trkpt>
      <trkpt lat="45.92942" lon="5.62956">
        <ele>928.79998779297</ele>
        <time>2023-05-19T09:19:29.000Z</time>
      </trkpt>
      <trkpt lat="45.92934" lon="5.62949">
        <ele>927.79998779297</ele>
        <time>2023-05-19T09:19:30.000Z</time>
      </trkpt>
      <trkpt lat="45.92919" lon="5.62938">
        <ele>927</ele>
        <time>2023-05-19T09:19:32.000Z</time>
      </trkpt>
      <trkpt lat="45.92911" lon="5.62932">
        <ele>925.79998779297</ele>
        <time>2023-05-19T09:19:33.000Z</time>
      </trkpt>
      <trkpt lat="45.92903" lon="5.62928">
        <ele>925.59997558594</ele>
        <time>2023-05-19T09:19:34.000Z</time>
      </trkpt>
      <trkpt lat="45.92879" lon="5.62911">
        <ele>924.59997558594</ele>
        <time>2023-05-19T09:19:37.000Z</time>
      </trkpt>
      <trkpt lat="45.92864" lon="5.629">
        <ele>923</ele>
        <time>2023-05-19T09:19:39.000Z</time>
      </trkpt>
      <trkpt lat="45.92856" lon="5.62895">
        <ele>922.40002441406</ele>
        <time>2023-05-19T09:19:40.000Z</time>
      </trkpt>
      <trkpt lat="45.92848" lon="5.62891">
        <ele>922</ele>
        <time>2023-05-19T09:19:41.000Z</time>
      </trkpt>
      <trkpt lat="45.92841" lon="5.62887">
        <ele>921.20001220703</ele>
        <time>2023-05-19T09:19:42.000Z</time>
      </trkpt>
      <trkpt lat="45.92834" lon="5.62883">
        <ele>921</ele>
        <time>2023-05-19T09:19:43.000Z</time>
      </trkpt>
      <trkpt lat="45.92821" lon="5.62877">
        <ele>920.59997558594</ele>
        <time>2023-05-19T09:19:45.000Z</time>
      </trkpt>
      <trkpt lat="45.92816" lon="5.62874">
        <ele>920.20001220703</ele>
        <time>2023-05-19T09:19:46.000Z</time>
      </trkpt>
      <trkpt lat="45.92805" lon="5.62866">
        <ele>920</ele>
        <time>2023-05-19T09:19:49.000Z</time>
      </trkpt>
      <trkpt lat="45.92788" lon="5.62864">
        <ele>920.20001220703</ele>
        <time>2023-05-19T09:19:54.000Z</time>
      </trkpt>
      <trkpt lat="45.92777" lon="5.6286">
        <ele>921.40002441406</ele>
        <time>2023-05-19T09:19:57.000Z</time>
      </trkpt>
      <trkpt lat="45.92769" lon="5.62854">
        <ele>922</ele>
        <time>2023-05-19T09:19:59.000Z</time>
      </trkpt>
      <trkpt lat="45.92756" lon="5.62845">
        <ele>922.40002441406</ele>
        <time>2023-05-19T09:20:02.000Z</time>
      </trkpt>
      <trkpt lat="45.92747" lon="5.62839">
        <ele>922.79998779297</ele>
        <time>2023-05-19T09:20:04.000Z</time>
      </trkpt>
      <trkpt lat="45.92722" lon="5.62816">
        <ele>923</ele>
        <time>2023-05-19T09:20:09.000Z</time>
      </trkpt>
      <trkpt lat="45.92716" lon="5.62811">
        <ele>922.79998779297</ele>
        <time>2023-05-19T09:20:10.000Z</time>
      </trkpt>
      <trkpt lat="45.9271" lon="5.62807">
        <ele>922.59997558594</ele>
        <time>2023-05-19T09:20:11.000Z</time>
      </trkpt>
      <trkpt lat="45.927" lon="5.628">
        <ele>922</ele>
        <time>2023-05-19T09:20:13.000Z</time>
      </trkpt>
      <trkpt lat="45.92689" lon="5.62797">
        <ele>921.59997558594</ele>
        <time>2023-05-19T09:20:15.000Z</time>
      </trkpt>
      <trkpt lat="45.92684" lon="5.62798">
        <ele>921.40002441406</ele>
        <time>2023-05-19T09:20:16.000Z</time>
      </trkpt>
      <trkpt lat="45.92672" lon="5.62797">
        <ele>921</ele>
        <time>2023-05-19T09:20:19.000Z</time>
      </trkpt>
      <trkpt lat="45.92654" lon="5.62785">
        <ele>920.79998779297</ele>
        <time>2023-05-19T09:20:23.000Z</time>
      </trkpt>
      <trkpt lat="45.92629" lon="5.62783">
        <ele>920.79998779297</ele>
        <time>2023-05-19T09:20:28.000Z</time>
      </trkpt>
      <trkpt lat="45.92605" lon="5.62776">
        <ele>920.79998779297</ele>
        <time>2023-05-19T09:20:33.000Z</time>
      </trkpt>
      <trkpt lat="45.92587" lon="5.62774">
        <ele>921</ele>
        <time>2023-05-19T09:20:38.000Z</time>
      </trkpt>
      <trkpt lat="45.92573" lon="5.62772">
        <ele>920.79998779297</ele>
        <time>2023-05-19T09:20:41.000Z</time>
      </trkpt>
      <trkpt lat="45.92563" lon="5.62772">
        <ele>920.79998779297</ele>
        <time>2023-05-19T09:20:43.000Z</time>
      </trkpt>
      <trkpt lat="45.92531" lon="5.62776">
        <ele>920.79998779297</ele>
        <time>2023-05-19T09:20:49.000Z</time>
      </trkpt>
      <trkpt lat="45.92505" lon="5.62773">
        <ele>920.79998779297</ele>
        <time>2023-05-19T09:20:54.000Z</time>
      </trkpt>
      <trkpt lat="45.92494" lon="5.62768">
        <ele>920.79998779297</ele>
        <time>2023-05-19T09:20:56.000Z</time>
      </trkpt>
      <trkpt lat="45.92484" lon="5.62767">
        <ele>920.79998779297</ele>
        <time>2023-05-19T09:20:58.000Z</time>
      </trkpt>
      <trkpt lat="45.92474" lon="5.62764">
        <ele>920.79998779297</ele>
        <time>2023-05-19T09:21:00.000Z</time>
      </trkpt>
      <trkpt lat="45.92463" lon="5.62759">
        <ele>920.79998779297</ele>
        <time>2023-05-19T09:21:02.000Z</time>
      </trkpt>
      <trkpt lat="45.92452" lon="5.62759">
        <ele>920.79998779297</ele>
        <time>2023-05-19T09:21:04.000Z</time>
      </trkpt>
      <trkpt lat="45.92442" lon="5.62762">
        <ele>920.79998779297</ele>
        <time>2023-05-19T09:21:06.000Z</time>
      </trkpt>
      <trkpt lat="45.92436" lon="5.62761">
        <ele>920.79998779297</ele>
        <time>2023-05-19T09:21:07.000Z</time>
      </trkpt>
      <trkpt lat="45.92416" lon="5.6276">
        <ele>920.79998779297</ele>
        <time>2023-05-19T09:21:11.000Z</time>
      </trkpt>
      <trkpt lat="45.92409" lon="5.62759">
        <ele>920.79998779297</ele>
        <time>2023-05-19T09:21:12.000Z</time>
      </trkpt>
      <trkpt lat="45.92398" lon="5.62757">
        <ele>921</ele>
        <time>2023-05-19T09:21:14.000Z</time>
      </trkpt>
      <trkpt lat="45.92387" lon="5.62756">
        <ele>920.79998779297</ele>
        <time>2023-05-19T09:21:16.000Z</time>
      </trkpt>
      <trkpt lat="45.9236" lon="5.6275">
        <ele>921</ele>
        <time>2023-05-19T09:21:21.000Z</time>
      </trkpt>
      <trkpt lat="45.92321" lon="5.62741">
        <ele>921</ele>
        <time>2023-05-19T09:21:28.000Z</time>
      </trkpt>
      <trkpt lat="45.92311" lon="5.62738">
        <ele>920.20001220703</ele>
        <time>2023-05-19T09:21:30.000Z</time>
      </trkpt>
      <trkpt lat="45.92287" lon="5.62736">
        <ele>919.40002441406</ele>
        <time>2023-05-19T09:21:34.000Z</time>
      </trkpt>
      <trkpt lat="45.92275" lon="5.62735">
        <ele>918.79998779297</ele>
        <time>2023-05-19T09:21:36.000Z</time>
      </trkpt>
      <trkpt lat="45.92262" lon="5.62735">
        <ele>918.20001220703</ele>
        <time>2023-05-19T09:21:38.000Z</time>
      </trkpt>
      <trkpt lat="45.9225" lon="5.62735">
        <ele>918</ele>
        <time>2023-05-19T09:21:40.000Z</time>
      </trkpt>
      <trkpt lat="45.92244" lon="5.62734">
        <ele>917.79998779297</ele>
        <time>2023-05-19T09:21:41.000Z</time>
      </trkpt>
      <trkpt lat="45.92238" lon="5.62734">
        <ele>917.59997558594</ele>
        <time>2023-05-19T09:21:42.000Z</time>
      </trkpt>
      <trkpt lat="45.92212" lon="5.62731">
        <ele>916.79998779297</ele>
        <time>2023-05-19T09:21:46.000Z</time>
      </trkpt>
      <trkpt lat="45.92205" lon="5.6273">
        <ele>916.59997558594</ele>
        <time>2023-05-19T09:21:47.000Z</time>
      </trkpt>
      <trkpt lat="45.92173" lon="5.62723">
        <ele>916.20001220703</ele>
        <time>2023-05-19T09:21:51.000Z</time>
      </trkpt>
      <trkpt lat="45.92158" lon="5.6272">
        <ele>915.59997558594</ele>
        <time>2023-05-19T09:21:53.000Z</time>
      </trkpt>
      <trkpt lat="45.92151" lon="5.62719">
        <ele>915.20001220703</ele>
        <time>2023-05-19T09:21:54.000Z</time>
      </trkpt>
      <trkpt lat="45.92137" lon="5.62717">
        <ele>914.59997558594</ele>
        <time>2023-05-19T09:21:56.000Z</time>
      </trkpt>
      <trkpt lat="45.9213" lon="5.62718">
        <ele>914</ele>
        <time>2023-05-19T09:21:57.000Z</time>
      </trkpt>
      <trkpt lat="45.92113" lon="5.62723">
        <ele>913</ele>
        <time>2023-05-19T09:21:59.000Z</time>
      </trkpt>
      <trkpt lat="45.92105" lon="5.62724">
        <ele>912.79998779297</ele>
        <time>2023-05-19T09:22:00.000Z</time>
      </trkpt>
      <trkpt lat="45.92097" lon="5.62725">
        <ele>912.40002441406</ele>
        <time>2023-05-19T09:22:01.000Z</time>
      </trkpt>
      <trkpt lat="45.92082" lon="5.62724">
        <ele>911.59997558594</ele>
        <time>2023-05-19T09:22:03.000Z</time>
      </trkpt>
      <trkpt lat="45.92074" lon="5.62724">
        <ele>911.20001220703</ele>
        <time>2023-05-19T09:22:04.000Z</time>
      </trkpt>
      <trkpt lat="45.92058" lon="5.62723">
        <ele>910.40002441406</ele>
        <time>2023-05-19T09:22:06.000Z</time>
      </trkpt>
      <trkpt lat="45.92041" lon="5.62722">
        <ele>909.20001220703</ele>
        <time>2023-05-19T09:22:08.000Z</time>
      </trkpt>
      <trkpt lat="45.92025" lon="5.62723">
        <ele>907.79998779297</ele>
        <time>2023-05-19T09:22:10.000Z</time>
      </trkpt>
      <trkpt lat="45.92007" lon="5.62725">
        <ele>906.79998779297</ele>
        <time>2023-05-19T09:22:12.000Z</time>
      </trkpt>
      <trkpt lat="45.91989" lon="5.62728">
        <ele>905.79998779297</ele>
        <time>2023-05-19T09:22:14.000Z</time>
      </trkpt>
      <trkpt lat="45.91979" lon="5.62729">
        <ele>904.79998779297</ele>
        <time>2023-05-19T09:22:15.000Z</time>
      </trkpt>
      <trkpt lat="45.91971" lon="5.62729">
        <ele>904.40002441406</ele>
        <time>2023-05-19T09:22:16.000Z</time>
      </trkpt>
      <trkpt lat="45.91962" lon="5.6273">
        <ele>902.59997558594</ele>
        <time>2023-05-19T09:22:17.000Z</time>
      </trkpt>
      <trkpt lat="45.91943" lon="5.62731">
        <ele>900.79998779297</ele>
        <time>2023-05-19T09:22:19.000Z</time>
      </trkpt>
      <trkpt lat="45.91933" lon="5.62733">
        <ele>899.79998779297</ele>
        <time>2023-05-19T09:22:20.000Z</time>
      </trkpt>
      <trkpt lat="45.91922" lon="5.62733">
        <ele>899.40002441406</ele>
        <time>2023-05-19T09:22:21.000Z</time>
      </trkpt>
      <trkpt lat="45.9191" lon="5.62733">
        <ele>898.40002441406</ele>
        <time>2023-05-19T09:22:22.000Z</time>
      </trkpt>
      <trkpt lat="45.91888" lon="5.62732">
        <ele>896.20001220703</ele>
        <time>2023-05-19T09:22:24.000Z</time>
      </trkpt>
      <trkpt lat="45.91867" lon="5.62732">
        <ele>894.20001220703</ele>
        <time>2023-05-19T09:22:26.000Z</time>
      </trkpt>
      <trkpt lat="45.91857" lon="5.62732">
        <ele>892.79998779297</ele>
        <time>2023-05-19T09:22:27.000Z</time>
      </trkpt>
      <trkpt lat="45.91838" lon="5.62733">
        <ele>890</ele>
        <time>2023-05-19T09:22:29.000Z</time>
      </trkpt>
      <trkpt lat="45.91819" lon="5.62735">
        <ele>888.20001220703</ele>
        <time>2023-05-19T09:22:31.000Z</time>
      </trkpt>
      <trkpt lat="45.91799" lon="5.62736">
        <ele>885.79998779297</ele>
        <time>2023-05-19T09:22:33.000Z</time>
      </trkpt>
      <trkpt lat="45.91778" lon="5.62733">
        <ele>884.20001220703</ele>
        <time>2023-05-19T09:22:35.000Z</time>
      </trkpt>
      <trkpt lat="45.91769" lon="5.62731">
        <ele>882.40002441406</ele>
        <time>2023-05-19T09:22:36.000Z</time>
      </trkpt>
      <trkpt lat="45.91759" lon="5.6273">
        <ele>881.79998779297</ele>
        <time>2023-05-19T09:22:37.000Z</time>
      </trkpt>
      <trkpt lat="45.91748" lon="5.62728">
        <ele>881</ele>
        <time>2023-05-19T09:22:38.000Z</time>
      </trkpt>
      <trkpt lat="45.91726" lon="5.62724">
        <ele>879.59997558594</ele>
        <time>2023-05-19T09:22:40.000Z</time>
      </trkpt>
      <trkpt lat="45.91715" lon="5.6272">
        <ele>878.79998779297</ele>
        <time>2023-05-19T09:22:41.000Z</time>
      </trkpt>
      <trkpt lat="45.91703" lon="5.62716">
        <ele>877.20001220703</ele>
        <time>2023-05-19T09:22:42.000Z</time>
      </trkpt>
      <trkpt lat="45.91681" lon="5.62709">
        <ele>876.20001220703</ele>
        <time>2023-05-19T09:22:44.000Z</time>
      </trkpt>
      <trkpt lat="45.91657" lon="5.62701">
        <ele>874.79998779297</ele>
        <time>2023-05-19T09:22:46.000Z</time>
      </trkpt>
      <trkpt lat="45.91647" lon="5.62698">
        <ele>873.20001220703</ele>
        <time>2023-05-19T09:22:47.000Z</time>
      </trkpt>
      <trkpt lat="45.91626" lon="5.6269">
        <ele>871.20001220703</ele>
        <time>2023-05-19T09:22:49.000Z</time>
      </trkpt>
      <trkpt lat="45.91617" lon="5.62685">
        <ele>869.79998779297</ele>
        <time>2023-05-19T09:22:50.000Z</time>
      </trkpt>
      <trkpt lat="45.91608" lon="5.6268">
        <ele>869.20001220703</ele>
        <time>2023-05-19T09:22:51.000Z</time>
      </trkpt>
      <trkpt lat="45.916" lon="5.62676">
        <ele>868.40002441406</ele>
        <time>2023-05-19T09:22:52.000Z</time>
      </trkpt>
      <trkpt lat="45.91579" lon="5.62663">
        <ele>867.40002441406</ele>
        <time>2023-05-19T09:22:55.000Z</time>
      </trkpt>
      <trkpt lat="45.91572" lon="5.6266">
        <ele>867</ele>
        <time>2023-05-19T09:22:56.000Z</time>
      </trkpt>
      <trkpt lat="45.91543" lon="5.62651">
        <ele>866.20001220703</ele>
        <time>2023-05-19T09:23:00.000Z</time>
      </trkpt>
      <trkpt lat="45.91527" lon="5.62646">
        <ele>865.79998779297</ele>
        <time>2023-05-19T09:23:02.000Z</time>
      </trkpt>
      <trkpt lat="45.9152" lon="5.62644">
        <ele>865</ele>
        <time>2023-05-19T09:23:03.000Z</time>
      </trkpt>
      <trkpt lat="45.91513" lon="5.62642">
        <ele>864.59997558594</ele>
        <time>2023-05-19T09:23:04.000Z</time>
      </trkpt>
      <trkpt lat="45.915" lon="5.62634">
        <ele>863.59997558594</ele>
        <time>2023-05-19T09:23:06.000Z</time>
      </trkpt>
      <trkpt lat="45.91493" lon="5.6263">
        <ele>863.40002441406</ele>
        <time>2023-05-19T09:23:07.000Z</time>
      </trkpt>
      <trkpt lat="45.91486" lon="5.62627">
        <ele>863.20001220703</ele>
        <time>2023-05-19T09:23:08.000Z</time>
      </trkpt>
      <trkpt lat="45.91472" lon="5.62626">
        <ele>862.79998779297</ele>
        <time>2023-05-19T09:23:10.000Z</time>
      </trkpt>
      <trkpt lat="45.91465" lon="5.62629">
        <ele>862.59997558594</ele>
        <time>2023-05-19T09:23:11.000Z</time>
      </trkpt>
      <trkpt lat="45.91453" lon="5.62637">
        <ele>862.40002441406</ele>
        <time>2023-05-19T09:23:13.000Z</time>
      </trkpt>
      <trkpt lat="45.91449" lon="5.6264">
        <ele>862.20001220703</ele>
        <time>2023-05-19T09:23:14.000Z</time>
      </trkpt>
      <trkpt lat="45.91444" lon="5.62642">
        <ele>861.79998779297</ele>
        <time>2023-05-19T09:23:15.000Z</time>
      </trkpt>
      <trkpt lat="45.91434" lon="5.62644">
        <ele>861.59997558594</ele>
        <time>2023-05-19T09:23:17.000Z</time>
      </trkpt>
      <trkpt lat="45.91403" lon="5.62647">
        <ele>861.20001220703</ele>
        <time>2023-05-19T09:23:23.000Z</time>
      </trkpt>
      <trkpt lat="45.91398" lon="5.62646">
        <ele>861</ele>
        <time>2023-05-19T09:23:24.000Z</time>
      </trkpt>
      <trkpt lat="45.91381" lon="5.62642">
        <ele>861</ele>
        <time>2023-05-19T09:23:28.000Z</time>
      </trkpt>
      <trkpt lat="45.9137" lon="5.62637">
        <ele>861</ele>
        <time>2023-05-19T09:23:31.000Z</time>
      </trkpt>
      <trkpt lat="45.91359" lon="5.62627">
        <ele>861</ele>
        <time>2023-05-19T09:23:34.000Z</time>
      </trkpt>
      <trkpt lat="45.91342" lon="5.62607">
        <ele>860.79998779297</ele>
        <time>2023-05-19T09:23:38.000Z</time>
      </trkpt>
      <trkpt lat="45.91337" lon="5.62603">
        <ele>860.59997558594</ele>
        <time>2023-05-19T09:23:39.000Z</time>
      </trkpt>
      <trkpt lat="45.91327" lon="5.62595">
        <ele>860.20001220703</ele>
        <time>2023-05-19T09:23:41.000Z</time>
      </trkpt>
      <trkpt lat="45.91317" lon="5.62591">
        <ele>860</ele>
        <time>2023-05-19T09:23:43.000Z</time>
      </trkpt>
      <trkpt lat="45.91313" lon="5.6259">
        <ele>859.59997558594</ele>
        <time>2023-05-19T09:23:44.000Z</time>
      </trkpt>
      <trkpt lat="45.91299" lon="5.62585">
        <ele>859.20001220703</ele>
        <time>2023-05-19T09:23:48.000Z</time>
      </trkpt>
      <trkpt lat="45.91273" lon="5.62576">
        <ele>859.20001220703</ele>
        <time>2023-05-19T09:23:53.000Z</time>
      </trkpt>
      <trkpt lat="45.91235" lon="5.6256">
        <ele>859</ele>
        <time>2023-05-19T09:24:00.000Z</time>
      </trkpt>
      <trkpt lat="45.91229" lon="5.6256">
        <ele>859</ele>
        <time>2023-05-19T09:24:01.000Z</time>
      </trkpt>
      <trkpt lat="45.91223" lon="5.62561">
        <ele>858.59997558594</ele>
        <time>2023-05-19T09:24:02.000Z</time>
      </trkpt>
      <trkpt lat="45.91217" lon="5.62565">
        <ele>858.40002441406</ele>
        <time>2023-05-19T09:24:03.000Z</time>
      </trkpt>
      <trkpt lat="45.91211" lon="5.62572">
        <ele>858.20001220703</ele>
        <time>2023-05-19T09:24:04.000Z</time>
      </trkpt>
      <trkpt lat="45.91191" lon="5.62594">
        <ele>857.40002441406</ele>
        <time>2023-05-19T09:24:07.000Z</time>
      </trkpt>
      <trkpt lat="45.91183" lon="5.626">
        <ele>857.20001220703</ele>
        <time>2023-05-19T09:24:08.000Z</time>
      </trkpt>
      <trkpt lat="45.91168" lon="5.6261">
        <ele>856</ele>
        <time>2023-05-19T09:24:10.000Z</time>
      </trkpt>
      <trkpt lat="45.9116" lon="5.62614">
        <ele>855.79998779297</ele>
        <time>2023-05-19T09:24:11.000Z</time>
      </trkpt>
      <trkpt lat="45.91153" lon="5.62616">
        <ele>855.20001220703</ele>
        <time>2023-05-19T09:24:12.000Z</time>
      </trkpt>
      <trkpt lat="45.91144" lon="5.62614">
        <ele>854.79998779297</ele>
        <time>2023-05-19T09:24:13.000Z</time>
      </trkpt>
      <trkpt lat="45.91129" lon="5.62608">
        <ele>853.59997558594</ele>
        <time>2023-05-19T09:24:15.000Z</time>
      </trkpt>
      <trkpt lat="45.91107" lon="5.62599">
        <ele>852.20001220703</ele>
        <time>2023-05-19T09:24:18.000Z</time>
      </trkpt>
      <trkpt lat="45.91093" lon="5.62598">
        <ele>851.40002441406</ele>
        <time>2023-05-19T09:24:20.000Z</time>
      </trkpt>
      <trkpt lat="45.91086" lon="5.62598">
        <ele>851</ele>
        <time>2023-05-19T09:24:21.000Z</time>
      </trkpt>
      <trkpt lat="45.91071" lon="5.626">
        <ele>850.59997558594</ele>
        <time>2023-05-19T09:24:23.000Z</time>
      </trkpt>
      <trkpt lat="45.91064" lon="5.62602">
        <ele>850.40002441406</ele>
        <time>2023-05-19T09:24:24.000Z</time>
      </trkpt>
      <trkpt lat="45.91058" lon="5.62606">
        <ele>850.20001220703</ele>
        <time>2023-05-19T09:24:25.000Z</time>
      </trkpt>
      <trkpt lat="45.91053" lon="5.62611">
        <ele>849.79998779297</ele>
        <time>2023-05-19T09:24:26.000Z</time>
      </trkpt>
      <trkpt lat="45.91048" lon="5.62616">
        <ele>849.59997558594</ele>
        <time>2023-05-19T09:24:27.000Z</time>
      </trkpt>
      <trkpt lat="45.91039" lon="5.6263">
        <ele>849</ele>
        <time>2023-05-19T09:24:29.000Z</time>
      </trkpt>
      <trkpt lat="45.91035" lon="5.62635">
        <ele>848.79998779297</ele>
        <time>2023-05-19T09:24:30.000Z</time>
      </trkpt>
      <trkpt lat="45.91021" lon="5.62658">
        <ele>848.59997558594</ele>
        <time>2023-05-19T09:24:35.000Z</time>
      </trkpt>
      <trkpt lat="45.91013" lon="5.62666">
        <ele>848.79998779297</ele>
        <time>2023-05-19T09:24:37.000Z</time>
      </trkpt>
      <trkpt lat="45.91006" lon="5.62667">
        <ele>849</ele>
        <time>2023-05-19T09:24:39.000Z</time>
      </trkpt>
      <trkpt lat="45.90996" lon="5.62671">
        <ele>849.59997558594</ele>
        <time>2023-05-19T09:24:43.000Z</time>
      </trkpt>
      <trkpt lat="45.90987" lon="5.62684">
        <ele>850</ele>
        <time>2023-05-19T09:24:46.000Z</time>
      </trkpt>
      <trkpt lat="45.90985" lon="5.6269">
        <ele>850</ele>
        <time>2023-05-19T09:24:47.000Z</time>
      </trkpt>
      <trkpt lat="45.9097" lon="5.62729">
        <ele>849.79998779297</ele>
        <time>2023-05-19T09:24:52.000Z</time>
      </trkpt>
      <trkpt lat="45.90949" lon="5.62783">
        <ele>848</ele>
        <time>2023-05-19T09:24:58.000Z</time>
      </trkpt>
      <trkpt lat="45.90945" lon="5.62793">
        <ele>847.59997558594</ele>
        <time>2023-05-19T09:24:59.000Z</time>
      </trkpt>
      <trkpt lat="45.90936" lon="5.62822">
        <ele>846.79998779297</ele>
        <time>2023-05-19T09:25:02.000Z</time>
      </trkpt>
      <trkpt lat="45.90934" lon="5.6284">
        <ele>846</ele>
        <time>2023-05-19T09:25:04.000Z</time>
      </trkpt>
      <trkpt lat="45.90935" lon="5.62849">
        <ele>845.20001220703</ele>
        <time>2023-05-19T09:25:05.000Z</time>
      </trkpt>
      <trkpt lat="45.90938" lon="5.62861">
        <ele>844.20001220703</ele>
        <time>2023-05-19T09:25:07.000Z</time>
      </trkpt>
      <trkpt lat="45.90942" lon="5.62874">
        <ele>842.59997558594</ele>
        <time>2023-05-19T09:25:10.000Z</time>
      </trkpt>
      <trkpt lat="45.90942" lon="5.62877">
        <ele>842</ele>
        <time>2023-05-19T09:25:11.000Z</time>
      </trkpt>
      <trkpt lat="45.90941" lon="5.62884">
        <ele>841.20001220703</ele>
        <time>2023-05-19T09:25:13.000Z</time>
      </trkpt>
      <trkpt lat="45.90936" lon="5.62888">
        <ele>840.59997558594</ele>
        <time>2023-05-19T09:25:15.000Z</time>
      </trkpt>
      <trkpt lat="45.90923" lon="5.62887">
        <ele>840.59997558594</ele>
        <time>2023-05-19T09:25:20.000Z</time>
      </trkpt>
      <trkpt lat="45.90921" lon="5.62887">
        <ele>840.59997558594</ele>
        <time>2023-05-19T09:25:21.000Z</time>
      </trkpt>
      <trkpt lat="45.90906" lon="5.62887">
        <ele>842.20001220703</ele>
        <time>2023-05-19T09:25:26.000Z</time>
      </trkpt>
      <trkpt lat="45.90899" lon="5.62887">
        <ele>843.20001220703</ele>
        <time>2023-05-19T09:25:28.000Z</time>
      </trkpt>
      <trkpt lat="45.90896" lon="5.62887">
        <ele>843.59997558594</ele>
        <time>2023-05-19T09:25:29.000Z</time>
      </trkpt>
      <trkpt lat="45.90894" lon="5.62889">
        <ele>844.20001220703</ele>
        <time>2023-05-19T09:25:30.000Z</time>
      </trkpt>
      <trkpt lat="45.90891" lon="5.6289">
        <ele>844.40002441406</ele>
        <time>2023-05-19T09:25:31.000Z</time>
      </trkpt>
      <trkpt lat="45.90886" lon="5.62893">
        <ele>845.79998779297</ele>
        <time>2023-05-19T09:25:33.000Z</time>
      </trkpt>
      <trkpt lat="45.90878" lon="5.62899">
        <ele>847.20001220703</ele>
        <time>2023-05-19T09:25:36.000Z</time>
      </trkpt>
      <trkpt lat="45.9087" lon="5.62904">
        <ele>848.59997558594</ele>
        <time>2023-05-19T09:25:39.000Z</time>
      </trkpt>
      <trkpt lat="45.9086" lon="5.62912">
        <ele>849.79998779297</ele>
        <time>2023-05-19T09:25:43.000Z</time>
      </trkpt>
      <trkpt lat="45.90851" lon="5.62919">
        <ele>850.40002441406</ele>
        <time>2023-05-19T09:25:46.000Z</time>
      </trkpt>
      <trkpt lat="45.90846" lon="5.62922">
        <ele>851</ele>
        <time>2023-05-19T09:25:48.000Z</time>
      </trkpt>
      <trkpt lat="45.90838" lon="5.62928">
        <ele>852.40002441406</ele>
        <time>2023-05-19T09:25:51.000Z</time>
      </trkpt>
      <trkpt lat="45.90832" lon="5.62932">
        <ele>853.59997558594</ele>
        <time>2023-05-19T09:25:53.000Z</time>
      </trkpt>
      <trkpt lat="45.90829" lon="5.62934">
        <ele>853.79998779297</ele>
        <time>2023-05-19T09:25:54.000Z</time>
      </trkpt>
      <trkpt lat="45.90823" lon="5.62938">
        <ele>854.59997558594</ele>
        <time>2023-05-19T09:25:56.000Z</time>
      </trkpt>
      <trkpt lat="45.90807" lon="5.62946">
        <ele>855.59997558594</ele>
        <time>2023-05-19T09:26:00.000Z</time>
      </trkpt>
      <trkpt lat="45.90803" lon="5.62947">
        <ele>855.79998779297</ele>
        <time>2023-05-19T09:26:01.000Z</time>
      </trkpt>
      <trkpt lat="45.90791" lon="5.6295">
        <ele>856.79998779297</ele>
        <time>2023-05-19T09:26:04.000Z</time>
      </trkpt>
      <trkpt lat="45.90784" lon="5.62951">
        <ele>857.20001220703</ele>
        <time>2023-05-19T09:26:06.000Z</time>
      </trkpt>
      <trkpt lat="45.90768" lon="5.62957">
        <ele>858</ele>
        <time>2023-05-19T09:26:11.000Z</time>
      </trkpt>
      <trkpt lat="45.90761" lon="5.62958">
        <ele>858.20001220703</ele>
        <time>2023-05-19T09:26:13.000Z</time>
      </trkpt>
      <trkpt lat="45.9074" lon="5.62966">
        <ele>859</ele>
        <time>2023-05-19T09:26:19.000Z</time>
      </trkpt>
      <trkpt lat="45.90721" lon="5.62969">
        <ele>859</ele>
        <time>2023-05-19T09:26:24.000Z</time>
      </trkpt>
      <trkpt lat="45.90687" lon="5.62984">
        <ele>858.40002441406</ele>
        <time>2023-05-19T09:26:33.000Z</time>
      </trkpt>
      <trkpt lat="45.90665" lon="5.62997">
        <ele>858.40002441406</ele>
        <time>2023-05-19T09:26:39.000Z</time>
      </trkpt>
      <trkpt lat="45.90654" lon="5.63002">
        <ele>858.20001220703</ele>
        <time>2023-05-19T09:26:43.000Z</time>
      </trkpt>
      <trkpt lat="45.90624" lon="5.63018">
        <ele>858.20001220703</ele>
        <time>2023-05-19T09:26:52.000Z</time>
      </trkpt>
      <trkpt lat="45.90603" lon="5.6303">
        <ele>858.79998779297</ele>
        <time>2023-05-19T09:26:58.000Z</time>
      </trkpt>
      <trkpt lat="45.90599" lon="5.63031">
        <ele>859.20001220703</ele>
        <time>2023-05-19T09:26:59.000Z</time>
      </trkpt>
      <trkpt lat="45.9058" lon="5.63033">
        <ele>860.20001220703</ele>
        <time>2023-05-19T09:27:05.000Z</time>
      </trkpt>
      <trkpt lat="45.90577" lon="5.63034">
        <ele>860.59997558594</ele>
        <time>2023-05-19T09:27:06.000Z</time>
      </trkpt>
      <trkpt lat="45.90558" lon="5.63043">
        <ele>861.59997558594</ele>
        <time>2023-05-19T09:27:12.000Z</time>
      </trkpt>
      <trkpt lat="45.90541" lon="5.63055">
        <ele>862.59997558594</ele>
        <time>2023-05-19T09:27:18.000Z</time>
      </trkpt>
      <trkpt lat="45.90536" lon="5.63059">
        <ele>863</ele>
        <time>2023-05-19T09:27:20.000Z</time>
      </trkpt>
      <trkpt lat="45.90522" lon="5.63067">
        <ele>863.79998779297</ele>
        <time>2023-05-19T09:27:25.000Z</time>
      </trkpt>
      <trkpt lat="45.90518" lon="5.6307">
        <ele>864.20001220703</ele>
        <time>2023-05-19T09:27:27.000Z</time>
      </trkpt>
      <trkpt lat="45.90507" lon="5.63077">
        <ele>865</ele>
        <time>2023-05-19T09:27:31.000Z</time>
      </trkpt>
      <trkpt lat="45.905" lon="5.63081">
        <ele>865.40002441406</ele>
        <time>2023-05-19T09:27:34.000Z</time>
      </trkpt>
      <trkpt lat="45.90489" lon="5.63091">
        <ele>866.20001220703</ele>
        <time>2023-05-19T09:27:38.000Z</time>
      </trkpt>
      <trkpt lat="45.90485" lon="5.63094">
        <ele>866.59997558594</ele>
        <time>2023-05-19T09:27:40.000Z</time>
      </trkpt>
      <trkpt lat="45.90476" lon="5.63106">
        <ele>866.79998779297</ele>
        <time>2023-05-19T09:27:45.000Z</time>
      </trkpt>
      <trkpt lat="45.90462" lon="5.6313">
        <ele>866.20001220703</ele>
        <time>2023-05-19T09:27:51.000Z</time>
      </trkpt>
      <trkpt lat="45.90451" lon="5.63147">
        <ele>864.59997558594</ele>
        <time>2023-05-19T09:27:54.000Z</time>
      </trkpt>
      <trkpt lat="45.90449" lon="5.63152">
        <ele>864.20001220703</ele>
        <time>2023-05-19T09:27:55.000Z</time>
      </trkpt>
      <trkpt lat="45.90441" lon="5.63162">
        <ele>863.20001220703</ele>
        <time>2023-05-19T09:27:57.000Z</time>
      </trkpt>
      <trkpt lat="45.90436" lon="5.63166">
        <ele>862.79998779297</ele>
        <time>2023-05-19T09:27:58.000Z</time>
      </trkpt>
      <trkpt lat="45.90432" lon="5.6317">
        <ele>862.20001220703</ele>
        <time>2023-05-19T09:27:59.000Z</time>
      </trkpt>
      <trkpt lat="45.90427" lon="5.63174">
        <ele>862</ele>
        <time>2023-05-19T09:28:00.000Z</time>
      </trkpt>
      <trkpt lat="45.90423" lon="5.63177">
        <ele>860.40002441406</ele>
        <time>2023-05-19T09:28:01.000Z</time>
      </trkpt>
      <trkpt lat="45.90414" lon="5.63184">
        <ele>859</ele>
        <time>2023-05-19T09:28:03.000Z</time>
      </trkpt>
      <trkpt lat="45.90411" lon="5.63189">
        <ele>858</ele>
        <time>2023-05-19T09:28:04.000Z</time>
      </trkpt>
      <trkpt lat="45.90407" lon="5.63194">
        <ele>857.20001220703</ele>
        <time>2023-05-19T09:28:05.000Z</time>
      </trkpt>
      <trkpt lat="45.90402" lon="5.63199">
        <ele>856.40002441406</ele>
        <time>2023-05-19T09:28:06.000Z</time>
      </trkpt>
      <trkpt lat="45.90398" lon="5.63203">
        <ele>855.79998779297</ele>
        <time>2023-05-19T09:28:07.000Z</time>
      </trkpt>
      <trkpt lat="45.90394" lon="5.63206">
        <ele>855</ele>
        <time>2023-05-19T09:28:08.000Z</time>
      </trkpt>
      <trkpt lat="45.90382" lon="5.63215">
        <ele>854.20001220703</ele>
        <time>2023-05-19T09:28:10.000Z</time>
      </trkpt>
      <trkpt lat="45.90377" lon="5.63219">
        <ele>853.59997558594</ele>
        <time>2023-05-19T09:28:11.000Z</time>
      </trkpt>
      <trkpt lat="45.9036" lon="5.63228">
        <ele>852.20001220703</ele>
        <time>2023-05-19T09:28:15.000Z</time>
      </trkpt>
      <trkpt lat="45.90356" lon="5.6323">
        <ele>852</ele>
        <time>2023-05-19T09:28:16.000Z</time>
      </trkpt>
      <trkpt lat="45.90352" lon="5.63233">
        <ele>850.59997558594</ele>
        <time>2023-05-19T09:28:17.000Z</time>
      </trkpt>
      <trkpt lat="45.90348" lon="5.63235">
        <ele>849.40002441406</ele>
        <time>2023-05-19T09:28:18.000Z</time>
      </trkpt>
      <trkpt lat="45.90343" lon="5.63238">
        <ele>848.79998779297</ele>
        <time>2023-05-19T09:28:19.000Z</time>
      </trkpt>
      <trkpt lat="45.90339" lon="5.63241">
        <ele>847.59997558594</ele>
        <time>2023-05-19T09:28:20.000Z</time>
      </trkpt>
      <trkpt lat="45.90335" lon="5.63243">
        <ele>847.20001220703</ele>
        <time>2023-05-19T09:28:21.000Z</time>
      </trkpt>
      <trkpt lat="45.90332" lon="5.63245">
        <ele>846.40002441406</ele>
        <time>2023-05-19T09:28:22.000Z</time>
      </trkpt>
      <trkpt lat="45.90321" lon="5.63252">
        <ele>845.40002441406</ele>
        <time>2023-05-19T09:28:25.000Z</time>
      </trkpt>
      <trkpt lat="45.90318" lon="5.63255">
        <ele>844.40002441406</ele>
        <time>2023-05-19T09:28:26.000Z</time>
      </trkpt>
      <trkpt lat="45.90313" lon="5.6326">
        <ele>843.20001220703</ele>
        <time>2023-05-19T09:28:28.000Z</time>
      </trkpt>
      <trkpt lat="45.90306" lon="5.63265">
        <ele>842.40002441406</ele>
        <time>2023-05-19T09:28:30.000Z</time>
      </trkpt>
      <trkpt lat="45.90303" lon="5.63267">
        <ele>842.20001220703</ele>
        <time>2023-05-19T09:28:31.000Z</time>
      </trkpt>
      <trkpt lat="45.90295" lon="5.63272">
        <ele>840.79998779297</ele>
        <time>2023-05-19T09:28:33.000Z</time>
      </trkpt>
      <trkpt lat="45.90291" lon="5.63276">
        <ele>839.59997558594</ele>
        <time>2023-05-19T09:28:34.000Z</time>
      </trkpt>
      <trkpt lat="45.90284" lon="5.6328">
        <ele>838.20001220703</ele>
        <time>2023-05-19T09:28:36.000Z</time>
      </trkpt>
      <trkpt lat="45.90277" lon="5.63286">
        <ele>836.59997558594</ele>
        <time>2023-05-19T09:28:38.000Z</time>
      </trkpt>
      <trkpt lat="45.9027" lon="5.63293">
        <ele>835.40002441406</ele>
        <time>2023-05-19T09:28:40.000Z</time>
      </trkpt>
      <trkpt lat="45.90264" lon="5.63303">
        <ele>834.79998779297</ele>
        <time>2023-05-19T09:28:42.000Z</time>
      </trkpt>
      <trkpt lat="45.90255" lon="5.63312">
        <ele>834.20001220703</ele>
        <time>2023-05-19T09:28:44.000Z</time>
      </trkpt>
      <trkpt lat="45.90241" lon="5.63318">
        <ele>832.79998779297</ele>
        <time>2023-05-19T09:28:46.000Z</time>
      </trkpt>
      <trkpt lat="45.9023" lon="5.63322">
        <ele>831.59997558594</ele>
        <time>2023-05-19T09:28:48.000Z</time>
      </trkpt>
      <trkpt lat="45.90224" lon="5.63323">
        <ele>830.40002441406</ele>
        <time>2023-05-19T09:28:49.000Z</time>
      </trkpt>
      <trkpt lat="45.90219" lon="5.63324">
        <ele>829.20001220703</ele>
        <time>2023-05-19T09:28:50.000Z</time>
      </trkpt>
      <trkpt lat="45.90204" lon="5.63328">
        <ele>828.40002441406</ele>
        <time>2023-05-19T09:28:53.000Z</time>
      </trkpt>
      <trkpt lat="45.90199" lon="5.6333">
        <ele>828</ele>
        <time>2023-05-19T09:28:54.000Z</time>
      </trkpt>
      <trkpt lat="45.90196" lon="5.63331">
        <ele>827.79998779297</ele>
        <time>2023-05-19T09:28:55.000Z</time>
      </trkpt>
      <trkpt lat="45.90185" lon="5.63333">
        <ele>827.20001220703</ele>
        <time>2023-05-19T09:28:58.000Z</time>
      </trkpt>
      <trkpt lat="45.9018" lon="5.63336">
        <ele>827</ele>
        <time>2023-05-19T09:29:00.000Z</time>
      </trkpt>
      <trkpt lat="45.90171" lon="5.63339">
        <ele>826.20001220703</ele>
        <time>2023-05-19T09:29:03.000Z</time>
      </trkpt>
      <trkpt lat="45.90143" lon="5.63351">
        <ele>826.20001220703</ele>
        <time>2023-05-19T09:29:11.000Z</time>
      </trkpt>
      <trkpt lat="45.90112" lon="5.63362">
        <ele>826.20001220703</ele>
        <time>2023-05-19T09:29:19.000Z</time>
      </trkpt>
      <trkpt lat="45.90102" lon="5.63369">
        <ele>826.20001220703</ele>
        <time>2023-05-19T09:29:21.000Z</time>
      </trkpt>
      <trkpt lat="45.9009" lon="5.63374">
        <ele>825.59997558594</ele>
        <time>2023-05-19T09:29:23.000Z</time>
      </trkpt>
      <trkpt lat="45.90062" lon="5.6338">
        <ele>824.40002441406</ele>
        <time>2023-05-19T09:29:27.000Z</time>
      </trkpt>
      <trkpt lat="45.90055" lon="5.63382">
        <ele>824</ele>
        <time>2023-05-19T09:29:28.000Z</time>
      </trkpt>
      <trkpt lat="45.90049" lon="5.63385">
        <ele>823.20001220703</ele>
        <time>2023-05-19T09:29:29.000Z</time>
      </trkpt>
      <trkpt lat="45.90033" lon="5.63392">
        <ele>821.59997558594</ele>
        <time>2023-05-19T09:29:32.000Z</time>
      </trkpt>
      <trkpt lat="45.90027" lon="5.63397">
        <ele>820.40002441406</ele>
        <time>2023-05-19T09:29:33.000Z</time>
      </trkpt>
      <trkpt lat="45.90014" lon="5.63405">
        <ele>819.59997558594</ele>
        <time>2023-05-19T09:29:35.000Z</time>
      </trkpt>
      <trkpt lat="45.90009" lon="5.63409">
        <ele>819.20001220703</ele>
        <time>2023-05-19T09:29:36.000Z</time>
      </trkpt>
      <trkpt lat="45.89987" lon="5.63421">
        <ele>817.79998779297</ele>
        <time>2023-05-19T09:29:41.000Z</time>
      </trkpt>
      <trkpt lat="45.8998" lon="5.63424">
        <ele>817</ele>
        <time>2023-05-19T09:29:42.000Z</time>
      </trkpt>
      <trkpt lat="45.89973" lon="5.63427">
        <ele>816.40002441406</ele>
        <time>2023-05-19T09:29:43.000Z</time>
      </trkpt>
      <trkpt lat="45.89966" lon="5.63427">
        <ele>815.59997558594</ele>
        <time>2023-05-19T09:29:44.000Z</time>
      </trkpt>
      <trkpt lat="45.8996" lon="5.63426">
        <ele>814.79998779297</ele>
        <time>2023-05-19T09:29:45.000Z</time>
      </trkpt>
      <trkpt lat="45.89954" lon="5.63427">
        <ele>814.59997558594</ele>
        <time>2023-05-19T09:29:46.000Z</time>
      </trkpt>
      <trkpt lat="45.89943" lon="5.63431">
        <ele>814.20001220703</ele>
        <time>2023-05-19T09:29:48.000Z</time>
      </trkpt>
      <trkpt lat="45.89937" lon="5.63433">
        <ele>812.79998779297</ele>
        <time>2023-05-19T09:29:49.000Z</time>
      </trkpt>
      <trkpt lat="45.89923" lon="5.63437">
        <ele>811.40002441406</ele>
        <time>2023-05-19T09:29:51.000Z</time>
      </trkpt>
      <trkpt lat="45.89916" lon="5.63439">
        <ele>810.20001220703</ele>
        <time>2023-05-19T09:29:52.000Z</time>
      </trkpt>
      <trkpt lat="45.89902" lon="5.63443">
        <ele>808.59997558594</ele>
        <time>2023-05-19T09:29:54.000Z</time>
      </trkpt>
      <trkpt lat="45.89887" lon="5.63449">
        <ele>807</ele>
        <time>2023-05-19T09:29:56.000Z</time>
      </trkpt>
      <trkpt lat="45.89874" lon="5.63453">
        <ele>806.20001220703</ele>
        <time>2023-05-19T09:29:58.000Z</time>
      </trkpt>
      <trkpt lat="45.89867" lon="5.63454">
        <ele>805.59997558594</ele>
        <time>2023-05-19T09:29:59.000Z</time>
      </trkpt>
      <trkpt lat="45.89861" lon="5.63456">
        <ele>805.40002441406</ele>
        <time>2023-05-19T09:30:00.000Z</time>
      </trkpt>
      <trkpt lat="45.89855" lon="5.63459">
        <ele>804.59997558594</ele>
        <time>2023-05-19T09:30:01.000Z</time>
      </trkpt>
      <trkpt lat="45.8985" lon="5.63462">
        <ele>804.40002441406</ele>
        <time>2023-05-19T09:30:02.000Z</time>
      </trkpt>
      <trkpt lat="45.89845" lon="5.63464">
        <ele>803.79998779297</ele>
        <time>2023-05-19T09:30:03.000Z</time>
      </trkpt>
      <trkpt lat="45.89839" lon="5.63466">
        <ele>803.40002441406</ele>
        <time>2023-05-19T09:30:04.000Z</time>
      </trkpt>
      <trkpt lat="45.89829" lon="5.63466">
        <ele>802.79998779297</ele>
        <time>2023-05-19T09:30:06.000Z</time>
      </trkpt>
      <trkpt lat="45.89826" lon="5.63465">
        <ele>802.40002441406</ele>
        <time>2023-05-19T09:30:07.000Z</time>
      </trkpt>
      <trkpt lat="45.89818" lon="5.63462">
        <ele>801.59997558594</ele>
        <time>2023-05-19T09:30:09.000Z</time>
      </trkpt>
      <trkpt lat="45.89812" lon="5.6346">
        <ele>801.40002441406</ele>
        <time>2023-05-19T09:30:11.000Z</time>
      </trkpt>
      <trkpt lat="45.89802" lon="5.63453">
        <ele>801.40002441406</ele>
        <time>2023-05-19T09:30:14.000Z</time>
      </trkpt>
      <trkpt lat="45.89788" lon="5.63451">
        <ele>802.59997558594</ele>
        <time>2023-05-19T09:30:18.000Z</time>
      </trkpt>
      <trkpt lat="45.89781" lon="5.63453">
        <ele>803.59997558594</ele>
        <time>2023-05-19T09:30:20.000Z</time>
      </trkpt>
      <trkpt lat="45.89777" lon="5.63453">
        <ele>804.40002441406</ele>
        <time>2023-05-19T09:30:21.000Z</time>
      </trkpt>
      <trkpt lat="45.89765" lon="5.63455">
        <ele>805.79998779297</ele>
        <time>2023-05-19T09:30:24.000Z</time>
      </trkpt>
      <trkpt lat="45.89757" lon="5.63455">
        <ele>806.79998779297</ele>
        <time>2023-05-19T09:30:26.000Z</time>
      </trkpt>
      <trkpt lat="45.89748" lon="5.63455">
        <ele>807.79998779297</ele>
        <time>2023-05-19T09:30:28.000Z</time>
      </trkpt>
      <trkpt lat="45.89737" lon="5.63454">
        <ele>809.40002441406</ele>
        <time>2023-05-19T09:30:31.000Z</time>
      </trkpt>
      <trkpt lat="45.89726" lon="5.63452">
        <ele>810.40002441406</ele>
        <time>2023-05-19T09:30:34.000Z</time>
      </trkpt>
      <trkpt lat="45.8972" lon="5.63449">
        <ele>811.79998779297</ele>
        <time>2023-05-19T09:30:36.000Z</time>
      </trkpt>
      <trkpt lat="45.89713" lon="5.63448">
        <ele>812.79998779297</ele>
        <time>2023-05-19T09:30:38.000Z</time>
      </trkpt>
      <trkpt lat="45.8971" lon="5.63447">
        <ele>813</ele>
        <time>2023-05-19T09:30:39.000Z</time>
      </trkpt>
      <trkpt lat="45.89701" lon="5.63446">
        <ele>814</ele>
        <time>2023-05-19T09:30:42.000Z</time>
      </trkpt>
      <trkpt lat="45.89696" lon="5.63444">
        <ele>814.79998779297</ele>
        <time>2023-05-19T09:30:44.000Z</time>
      </trkpt>
      <trkpt lat="45.89693" lon="5.63444">
        <ele>815.20001220703</ele>
        <time>2023-05-19T09:30:45.000Z</time>
      </trkpt>
      <trkpt lat="45.89686" lon="5.6344">
        <ele>816.20001220703</ele>
        <time>2023-05-19T09:30:48.000Z</time>
      </trkpt>
      <trkpt lat="45.89677" lon="5.63434">
        <ele>817.40002441406</ele>
        <time>2023-05-19T09:30:52.000Z</time>
      </trkpt>
      <trkpt lat="45.89672" lon="5.63431">
        <ele>817.79998779297</ele>
        <time>2023-05-19T09:30:54.000Z</time>
      </trkpt>
      <trkpt lat="45.89665" lon="5.63427">
        <ele>818.40002441406</ele>
        <time>2023-05-19T09:30:57.000Z</time>
      </trkpt>
      <trkpt lat="45.89658" lon="5.6342">
        <ele>819.20001220703</ele>
        <time>2023-05-19T09:31:00.000Z</time>
      </trkpt>
      <trkpt lat="45.89656" lon="5.63419">
        <ele>819.40002441406</ele>
        <time>2023-05-19T09:31:01.000Z</time>
      </trkpt>
      <trkpt lat="45.89649" lon="5.63415">
        <ele>820.40002441406</ele>
        <time>2023-05-19T09:31:04.000Z</time>
      </trkpt>
      <trkpt lat="45.89638" lon="5.63408">
        <ele>821.79998779297</ele>
        <time>2023-05-19T09:31:09.000Z</time>
      </trkpt>
      <trkpt lat="45.89629" lon="5.63406">
        <ele>823.20001220703</ele>
        <time>2023-05-19T09:31:14.000Z</time>
      </trkpt>
      <trkpt lat="45.89627" lon="5.63406">
        <ele>823.20001220703</ele>
        <time>2023-05-19T09:31:15.000Z</time>
      </trkpt>
      <trkpt lat="45.89627" lon="5.63406">
        <ele>824.20001220703</ele>
        <time>2023-05-19T09:31:18.000Z</time>
      </trkpt>
      <trkpt lat="45.8963" lon="5.63408">
        <ele>823.40002441406</ele>
        <time>2023-05-19T09:33:00.000Z</time>
      </trkpt>
      <trkpt lat="45.89633" lon="5.6341">
        <ele>823.40002441406</ele>
        <time>2023-05-19T09:33:01.000Z</time>
      </trkpt>
      <trkpt lat="45.8964" lon="5.63414">
        <ele>823.40002441406</ele>
        <time>2023-05-19T09:33:03.000Z</time>
      </trkpt>
      <trkpt lat="45.89651" lon="5.63422">
        <ele>823</ele>
        <time>2023-05-19T09:33:06.000Z</time>
      </trkpt>
      <trkpt lat="45.89662" lon="5.63429">
        <ele>822.20001220703</ele>
        <time>2023-05-19T09:33:09.000Z</time>
      </trkpt>
      <trkpt lat="45.89669" lon="5.63434">
        <ele>821.59997558594</ele>
        <time>2023-05-19T09:33:11.000Z</time>
      </trkpt>
      <trkpt lat="45.89679" lon="5.6344">
        <ele>820.20001220703</ele>
        <time>2023-05-19T09:33:14.000Z</time>
      </trkpt>
      <trkpt lat="45.89682" lon="5.63441">
        <ele>820</ele>
        <time>2023-05-19T09:33:15.000Z</time>
      </trkpt>
      <trkpt lat="45.89686" lon="5.63442">
        <ele>819</ele>
        <time>2023-05-19T09:33:17.000Z</time>
      </trkpt>
      <trkpt lat="45.89693" lon="5.63445">
        <ele>817.59997558594</ele>
        <time>2023-05-19T09:33:20.000Z</time>
      </trkpt>
      <trkpt lat="45.89701" lon="5.6345">
        <ele>816.79998779297</ele>
        <time>2023-05-19T09:33:23.000Z</time>
      </trkpt>
      <trkpt lat="45.89704" lon="5.63451">
        <ele>816.59997558594</ele>
        <time>2023-05-19T09:33:24.000Z</time>
      </trkpt>
      <trkpt lat="45.89707" lon="5.63452">
        <ele>816.20001220703</ele>
        <time>2023-05-19T09:33:25.000Z</time>
      </trkpt>
      <trkpt lat="45.8971" lon="5.63455">
        <ele>815.59997558594</ele>
        <time>2023-05-19T09:33:27.000Z</time>
      </trkpt>
      <trkpt lat="45.89713" lon="5.63455">
        <ele>815.20001220703</ele>
        <time>2023-05-19T09:33:28.000Z</time>
      </trkpt>
      <trkpt lat="45.89717" lon="5.63457">
        <ele>814.40002441406</ele>
        <time>2023-05-19T09:33:30.000Z</time>
      </trkpt>
      <trkpt lat="45.89722" lon="5.63457">
        <ele>814</ele>
        <time>2023-05-19T09:33:32.000Z</time>
      </trkpt>
      <trkpt lat="45.89725" lon="5.63453">
        <ele>814</ele>
        <time>2023-05-19T09:33:33.000Z</time>
      </trkpt>
      <trkpt lat="45.89731" lon="5.63453">
        <ele>813</ele>
        <time>2023-05-19T09:33:35.000Z</time>
      </trkpt>
      <trkpt lat="45.89734" lon="5.63454">
        <ele>812.79998779297</ele>
        <time>2023-05-19T09:33:36.000Z</time>
      </trkpt>
      <trkpt lat="45.8974" lon="5.63456">
        <ele>812.40002441406</ele>
        <time>2023-05-19T09:33:38.000Z</time>
      </trkpt>
      <trkpt lat="45.89747" lon="5.63456">
        <ele>811.79998779297</ele>
        <time>2023-05-19T09:33:41.000Z</time>
      </trkpt>
      <trkpt lat="45.89757" lon="5.63456">
        <ele>810.59997558594</ele>
        <time>2023-05-19T09:33:44.000Z</time>
      </trkpt>
      <trkpt lat="45.89768" lon="5.63454">
        <ele>809.79998779297</ele>
        <time>2023-05-19T09:33:47.000Z</time>
      </trkpt>
      <trkpt lat="45.89771" lon="5.63454">
        <ele>809.20001220703</ele>
        <time>2023-05-19T09:33:48.000Z</time>
      </trkpt>
      <trkpt lat="45.8978" lon="5.63452">
        <ele>808.20001220703</ele>
        <time>2023-05-19T09:33:51.000Z</time>
      </trkpt>
      <trkpt lat="45.89787" lon="5.63451">
        <ele>807.20001220703</ele>
        <time>2023-05-19T09:33:53.000Z</time>
      </trkpt>
      <trkpt lat="45.89795" lon="5.63452">
        <ele>806.79998779297</ele>
        <time>2023-05-19T09:33:55.000Z</time>
      </trkpt>
      <trkpt lat="45.89803" lon="5.63456">
        <ele>806.20001220703</ele>
        <time>2023-05-19T09:33:57.000Z</time>
      </trkpt>
      <trkpt lat="45.89806" lon="5.63459">
        <ele>805.40002441406</ele>
        <time>2023-05-19T09:33:58.000Z</time>
      </trkpt>
      <trkpt lat="45.89811" lon="5.63461">
        <ele>805</ele>
        <time>2023-05-19T09:33:59.000Z</time>
      </trkpt>
      <trkpt lat="45.8982" lon="5.63464">
        <ele>803.40002441406</ele>
        <time>2023-05-19T09:34:02.000Z</time>
      </trkpt>
      <trkpt lat="45.89825" lon="5.63464">
        <ele>802.40002441406</ele>
        <time>2023-05-19T09:34:04.000Z</time>
      </trkpt>
      <trkpt lat="45.8983" lon="5.63463">
        <ele>801.59997558594</ele>
        <time>2023-05-19T09:34:06.000Z</time>
      </trkpt>
      <trkpt lat="45.89832" lon="5.63464">
        <ele>801</ele>
        <time>2023-05-19T09:34:07.000Z</time>
      </trkpt>
      <trkpt lat="45.89833" lon="5.63468">
        <ele>800.79998779297</ele>
        <time>2023-05-19T09:34:08.000Z</time>
      </trkpt>
      <trkpt lat="45.89833" lon="5.63469">
        <ele>800.59997558594</ele>
        <time>2023-05-19T09:34:09.000Z</time>
      </trkpt>
      <trkpt lat="45.89833" lon="5.63469">
        <ele>800</ele>
        <time>2023-05-19T09:34:11.000Z</time>
      </trkpt>
      <trkpt lat="45.89833" lon="5.63469">
        <ele>800</ele>
        <time>2023-05-19T09:34:12.000Z</time>
      </trkpt>
      <trkpt lat="45.89822" lon="5.63472">
        <ele>799.79998779297</ele>
        <time>2023-05-19T09:34:26.000Z</time>
      </trkpt>
      <trkpt lat="45.89818" lon="5.63473">
        <ele>799.79998779297</ele>
        <time>2023-05-19T09:34:27.000Z</time>
      </trkpt>
      <trkpt lat="45.89793" lon="5.63482">
        <ele>799.20001220703</ele>
        <time>2023-05-19T09:34:31.000Z</time>
      </trkpt>
      <trkpt lat="45.89786" lon="5.63484">
        <ele>798.79998779297</ele>
        <time>2023-05-19T09:34:32.000Z</time>
      </trkpt>
      <trkpt lat="45.8978" lon="5.63487">
        <ele>798.40002441406</ele>
        <time>2023-05-19T09:34:33.000Z</time>
      </trkpt>
      <trkpt lat="45.8977" lon="5.63492">
        <ele>798</ele>
        <time>2023-05-19T09:34:35.000Z</time>
      </trkpt>
      <trkpt lat="45.89766" lon="5.63494">
        <ele>797.59997558594</ele>
        <time>2023-05-19T09:34:36.000Z</time>
      </trkpt>
      <trkpt lat="45.89757" lon="5.63498">
        <ele>796.20001220703</ele>
        <time>2023-05-19T09:34:38.000Z</time>
      </trkpt>
      <trkpt lat="45.89749" lon="5.63501">
        <ele>795</ele>
        <time>2023-05-19T09:34:40.000Z</time>
      </trkpt>
      <trkpt lat="45.89744" lon="5.63502">
        <ele>794.20001220703</ele>
        <time>2023-05-19T09:34:41.000Z</time>
      </trkpt>
      <trkpt lat="45.8974" lon="5.63505">
        <ele>793.79998779297</ele>
        <time>2023-05-19T09:34:42.000Z</time>
      </trkpt>
      <trkpt lat="45.89728" lon="5.63511">
        <ele>793.20001220703</ele>
        <time>2023-05-19T09:34:45.000Z</time>
      </trkpt>
      <trkpt lat="45.8972" lon="5.63513">
        <ele>792.79998779297</ele>
        <time>2023-05-19T09:34:47.000Z</time>
      </trkpt>
      <trkpt lat="45.89704" lon="5.63515">
        <ele>792.40002441406</ele>
        <time>2023-05-19T09:34:51.000Z</time>
      </trkpt>
      <trkpt lat="45.89691" lon="5.63516">
        <ele>792.20001220703</ele>
        <time>2023-05-19T09:34:55.000Z</time>
      </trkpt>
      <trkpt lat="45.8967" lon="5.63521">
        <ele>791.79998779297</ele>
        <time>2023-05-19T09:35:00.000Z</time>
      </trkpt>
      <trkpt lat="45.89667" lon="5.63522">
        <ele>791.79998779297</ele>
        <time>2023-05-19T09:35:01.000Z</time>
      </trkpt>
      <trkpt lat="45.89663" lon="5.63523">
        <ele>791.79998779297</ele>
        <time>2023-05-19T09:35:02.000Z</time>
      </trkpt>
      <trkpt lat="45.89654" lon="5.63525">
        <ele>791.79998779297</ele>
        <time>2023-05-19T09:35:06.000Z</time>
      </trkpt>
      <trkpt lat="45.89635" lon="5.63531">
        <ele>792.40002441406</ele>
        <time>2023-05-19T09:35:12.000Z</time>
      </trkpt>
      <trkpt lat="45.89619" lon="5.63533">
        <ele>793</ele>
        <time>2023-05-19T09:35:16.000Z</time>
      </trkpt>
      <trkpt lat="45.89612" lon="5.6353">
        <ele>793.79998779297</ele>
        <time>2023-05-19T09:35:18.000Z</time>
      </trkpt>
      <trkpt lat="45.89609" lon="5.63529">
        <ele>794.20001220703</ele>
        <time>2023-05-19T09:35:19.000Z</time>
      </trkpt>
      <trkpt lat="45.896" lon="5.63528">
        <ele>795.40002441406</ele>
        <time>2023-05-19T09:35:22.000Z</time>
      </trkpt>
      <trkpt lat="45.89597" lon="5.63528">
        <ele>796</ele>
        <time>2023-05-19T09:35:23.000Z</time>
      </trkpt>
      <trkpt lat="45.89592" lon="5.63527">
        <ele>796.59997558594</ele>
        <time>2023-05-19T09:35:25.000Z</time>
      </trkpt>
      <trkpt lat="45.89584" lon="5.6353">
        <ele>797.59997558594</ele>
        <time>2023-05-19T09:35:28.000Z</time>
      </trkpt>
      <trkpt lat="45.89571" lon="5.63536">
        <ele>798.79998779297</ele>
        <time>2023-05-19T09:35:33.000Z</time>
      </trkpt>
      <trkpt lat="45.89566" lon="5.63536">
        <ele>799.40002441406</ele>
        <time>2023-05-19T09:35:35.000Z</time>
      </trkpt>
      <trkpt lat="45.89558" lon="5.63537">
        <ele>800</ele>
        <time>2023-05-19T09:35:38.000Z</time>
      </trkpt>
      <trkpt lat="45.8955" lon="5.63538">
        <ele>801</ele>
        <time>2023-05-19T09:35:41.000Z</time>
      </trkpt>
      <trkpt lat="45.89547" lon="5.63539">
        <ele>801.20001220703</ele>
        <time>2023-05-19T09:35:42.000Z</time>
      </trkpt>
      <trkpt lat="45.89539" lon="5.63541">
        <ele>802.40002441406</ele>
        <time>2023-05-19T09:35:45.000Z</time>
      </trkpt>
      <trkpt lat="45.89534" lon="5.63542">
        <ele>803.79998779297</ele>
        <time>2023-05-19T09:35:47.000Z</time>
      </trkpt>
      <trkpt lat="45.89528" lon="5.63544">
        <ele>804.59997558594</ele>
        <time>2023-05-19T09:35:49.000Z</time>
      </trkpt>
      <trkpt lat="45.89526" lon="5.63544">
        <ele>804.79998779297</ele>
        <time>2023-05-19T09:35:50.000Z</time>
      </trkpt>
      <trkpt lat="45.89523" lon="5.63545">
        <ele>805</ele>
        <time>2023-05-19T09:35:51.000Z</time>
      </trkpt>
      <trkpt lat="45.89505" lon="5.63549">
        <ele>806</ele>
        <time>2023-05-19T09:35:58.000Z</time>
      </trkpt>
      <trkpt lat="45.895" lon="5.63549">
        <ele>806</ele>
        <time>2023-05-19T09:36:00.000Z</time>
      </trkpt>
      <trkpt lat="45.89489" lon="5.63549">
        <ele>806.59997558594</ele>
        <time>2023-05-19T09:36:05.000Z</time>
      </trkpt>
      <trkpt lat="45.8948" lon="5.63549">
        <ele>807.20001220703</ele>
        <time>2023-05-19T09:36:09.000Z</time>
      </trkpt>
      <trkpt lat="45.89473" lon="5.6355">
        <ele>807.79998779297</ele>
        <time>2023-05-19T09:36:12.000Z</time>
      </trkpt>
      <trkpt lat="45.89465" lon="5.63547">
        <ele>808.20001220703</ele>
        <time>2023-05-19T09:36:15.000Z</time>
      </trkpt>
      <trkpt lat="45.89458" lon="5.63546">
        <ele>809.40002441406</ele>
        <time>2023-05-19T09:36:18.000Z</time>
      </trkpt>
      <trkpt lat="45.89452" lon="5.63545">
        <ele>810.59997558594</ele>
        <time>2023-05-19T09:36:21.000Z</time>
      </trkpt>
      <trkpt lat="45.89448" lon="5.63543">
        <ele>811.79998779297</ele>
        <time>2023-05-19T09:36:23.000Z</time>
      </trkpt>
      <trkpt lat="45.89445" lon="5.63543">
        <ele>812</ele>
        <time>2023-05-19T09:36:24.000Z</time>
      </trkpt>
      <trkpt lat="45.89437" lon="5.63544">
        <ele>813.20001220703</ele>
        <time>2023-05-19T09:36:27.000Z</time>
      </trkpt>
      <trkpt lat="45.89428" lon="5.63543">
        <ele>814</ele>
        <time>2023-05-19T09:36:31.000Z</time>
      </trkpt>
      <trkpt lat="45.89425" lon="5.63544">
        <ele>814.20001220703</ele>
        <time>2023-05-19T09:36:32.000Z</time>
      </trkpt>
      <trkpt lat="45.89418" lon="5.63544">
        <ele>814.79998779297</ele>
        <time>2023-05-19T09:36:35.000Z</time>
      </trkpt>
      <trkpt lat="45.89408" lon="5.63544">
        <ele>815.40002441406</ele>
        <time>2023-05-19T09:36:39.000Z</time>
      </trkpt>
      <trkpt lat="45.89405" lon="5.63544">
        <ele>815.40002441406</ele>
        <time>2023-05-19T09:36:40.000Z</time>
      </trkpt>
      <trkpt lat="45.89393" lon="5.63543">
        <ele>816.79998779297</ele>
        <time>2023-05-19T09:36:45.000Z</time>
      </trkpt>
      <trkpt lat="45.8939" lon="5.63544">
        <ele>817</ele>
        <time>2023-05-19T09:36:46.000Z</time>
      </trkpt>
      <trkpt lat="45.89381" lon="5.63547">
        <ele>818</ele>
        <time>2023-05-19T09:36:50.000Z</time>
      </trkpt>
      <trkpt lat="45.89378" lon="5.63547">
        <ele>818.20001220703</ele>
        <time>2023-05-19T09:36:51.000Z</time>
      </trkpt>
      <trkpt lat="45.89363" lon="5.63554">
        <ele>819.20001220703</ele>
        <time>2023-05-19T09:36:57.000Z</time>
      </trkpt>
      <trkpt lat="45.89352" lon="5.63551">
        <ele>820.20001220703</ele>
        <time>2023-05-19T09:37:01.000Z</time>
      </trkpt>
      <trkpt lat="45.89348" lon="5.63552">
        <ele>820.59997558594</ele>
        <time>2023-05-19T09:37:03.000Z</time>
      </trkpt>
      <trkpt lat="45.89342" lon="5.63553">
        <ele>821.20001220703</ele>
        <time>2023-05-19T09:37:05.000Z</time>
      </trkpt>
      <trkpt lat="45.89334" lon="5.63553">
        <ele>822.20001220703</ele>
        <time>2023-05-19T09:37:10.000Z</time>
      </trkpt>
      <trkpt lat="45.89334" lon="5.63553">
        <ele>822.20001220703</ele>
        <time>2023-05-19T09:37:11.000Z</time>
      </trkpt>
      <trkpt lat="45.89334" lon="5.63553">
        <ele>822.40002441406</ele>
        <time>2023-05-19T09:37:12.000Z</time>
      </trkpt>
      <trkpt lat="45.89327" lon="5.63556">
        <ele>822.59997558594</ele>
        <time>2023-05-19T09:37:21.000Z</time>
      </trkpt>
      <trkpt lat="45.89325" lon="5.63556">
        <ele>822.59997558594</ele>
        <time>2023-05-19T09:37:22.000Z</time>
      </trkpt>
      <trkpt lat="45.89312" lon="5.63558">
        <ele>822.79998779297</ele>
        <time>2023-05-19T09:37:27.000Z</time>
      </trkpt>
      <trkpt lat="45.89301" lon="5.63558">
        <ele>823.40002441406</ele>
        <time>2023-05-19T09:37:31.000Z</time>
      </trkpt>
      <trkpt lat="45.89296" lon="5.63559">
        <ele>824</ele>
        <time>2023-05-19T09:37:33.000Z</time>
      </trkpt>
      <trkpt lat="45.8929" lon="5.63559">
        <ele>824.59997558594</ele>
        <time>2023-05-19T09:37:35.000Z</time>
      </trkpt>
      <trkpt lat="45.89283" lon="5.6356">
        <ele>826</ele>
        <time>2023-05-19T09:37:38.000Z</time>
      </trkpt>
      <trkpt lat="45.89278" lon="5.6356">
        <ele>826.59997558594</ele>
        <time>2023-05-19T09:37:40.000Z</time>
      </trkpt>
      <trkpt lat="45.89271" lon="5.63561">
        <ele>827.20001220703</ele>
        <time>2023-05-19T09:37:42.000Z</time>
      </trkpt>
      <trkpt lat="45.8926" lon="5.63566">
        <ele>827.79998779297</ele>
        <time>2023-05-19T09:37:45.000Z</time>
      </trkpt>
      <trkpt lat="45.89239" lon="5.63573">
        <ele>827.79998779297</ele>
        <time>2023-05-19T09:37:50.000Z</time>
      </trkpt>
      <trkpt lat="45.89213" lon="5.63585">
        <ele>827</ele>
        <time>2023-05-19T09:37:57.000Z</time>
      </trkpt>
      <trkpt lat="45.89188" lon="5.63584">
        <ele>827.40002441406</ele>
        <time>2023-05-19T09:38:03.000Z</time>
      </trkpt>
      <trkpt lat="45.89176" lon="5.63586">
        <ele>828.40002441406</ele>
        <time>2023-05-19T09:38:07.000Z</time>
      </trkpt>
      <trkpt lat="45.89169" lon="5.63585">
        <ele>829</ele>
        <time>2023-05-19T09:38:09.000Z</time>
      </trkpt>
      <trkpt lat="45.89163" lon="5.63586">
        <ele>829.79998779297</ele>
        <time>2023-05-19T09:38:11.000Z</time>
      </trkpt>
      <trkpt lat="45.89154" lon="5.63584">
        <ele>830.40002441406</ele>
        <time>2023-05-19T09:38:14.000Z</time>
      </trkpt>
      <trkpt lat="45.8915" lon="5.63584">
        <ele>830.40002441406</ele>
        <time>2023-05-19T09:38:15.000Z</time>
      </trkpt>
      <trkpt lat="45.89147" lon="5.63586">
        <ele>830.79998779297</ele>
        <time>2023-05-19T09:38:16.000Z</time>
      </trkpt>
      <trkpt lat="45.8914" lon="5.63588">
        <ele>831.20001220703</ele>
        <time>2023-05-19T09:38:18.000Z</time>
      </trkpt>
      <trkpt lat="45.89127" lon="5.63589">
        <ele>831.79998779297</ele>
        <time>2023-05-19T09:38:22.000Z</time>
      </trkpt>
      <trkpt lat="45.89124" lon="5.63589">
        <ele>832</ele>
        <time>2023-05-19T09:38:23.000Z</time>
      </trkpt>
      <trkpt lat="45.89121" lon="5.63591">
        <ele>832</ele>
        <time>2023-05-19T09:38:24.000Z</time>
      </trkpt>
      <trkpt lat="45.89104" lon="5.63593">
        <ele>832.40002441406</ele>
        <time>2023-05-19T09:38:30.000Z</time>
      </trkpt>
      <trkpt lat="45.89097" lon="5.63594">
        <ele>832.79998779297</ele>
        <time>2023-05-19T09:38:33.000Z</time>
      </trkpt>
      <trkpt lat="45.89095" lon="5.63594">
        <ele>833</ele>
        <time>2023-05-19T09:38:34.000Z</time>
      </trkpt>
      <trkpt lat="45.8908" lon="5.63596">
        <ele>833.20001220703</ele>
        <time>2023-05-19T09:38:40.000Z</time>
      </trkpt>
      <trkpt lat="45.89062" lon="5.63598">
        <ele>834</ele>
        <time>2023-05-19T09:38:47.000Z</time>
      </trkpt>
      <trkpt lat="45.89056" lon="5.636">
        <ele>834.20001220703</ele>
        <time>2023-05-19T09:38:49.000Z</time>
      </trkpt>
      <trkpt lat="45.89039" lon="5.63604">
        <ele>834.79998779297</ele>
        <time>2023-05-19T09:38:54.000Z</time>
      </trkpt>
      <trkpt lat="45.89036" lon="5.63606">
        <ele>835.20001220703</ele>
        <time>2023-05-19T09:38:55.000Z</time>
      </trkpt>
      <trkpt lat="45.89016" lon="5.63615">
        <ele>835.59997558594</ele>
        <time>2023-05-19T09:39:02.000Z</time>
      </trkpt>
      <trkpt lat="45.89002" lon="5.63624">
        <ele>835.40002441406</ele>
        <time>2023-05-19T09:39:08.000Z</time>
      </trkpt>
      <trkpt lat="45.88985" lon="5.6363">
        <ele>834.59997558594</ele>
        <time>2023-05-19T09:39:12.000Z</time>
      </trkpt>
      <trkpt lat="45.88972" lon="5.63636">
        <ele>833.79998779297</ele>
        <time>2023-05-19T09:39:14.000Z</time>
      </trkpt>
      <trkpt lat="45.8896" lon="5.63641">
        <ele>832.59997558594</ele>
        <time>2023-05-19T09:39:16.000Z</time>
      </trkpt>
      <trkpt lat="45.88951" lon="5.63642">
        <ele>831.40002441406</ele>
        <time>2023-05-19T09:39:18.000Z</time>
      </trkpt>
      <trkpt lat="45.88946" lon="5.63643">
        <ele>830.59997558594</ele>
        <time>2023-05-19T09:39:20.000Z</time>
      </trkpt>
      <trkpt lat="45.88944" lon="5.63644">
        <ele>830.40002441406</ele>
        <time>2023-05-19T09:39:21.000Z</time>
      </trkpt>
      <trkpt lat="45.8894" lon="5.63645">
        <ele>828.20001220703</ele>
        <time>2023-05-19T09:39:23.000Z</time>
      </trkpt>
      <trkpt lat="45.88934" lon="5.63647">
        <ele>827.40002441406</ele>
        <time>2023-05-19T09:39:25.000Z</time>
      </trkpt>
      <trkpt lat="45.88932" lon="5.63648">
        <ele>827.20001220703</ele>
        <time>2023-05-19T09:39:26.000Z</time>
      </trkpt>
      <trkpt lat="45.88921" lon="5.63651">
        <ele>826.79998779297</ele>
        <time>2023-05-19T09:39:30.000Z</time>
      </trkpt>
      <trkpt lat="45.88906" lon="5.63656">
        <ele>826.79998779297</ele>
        <time>2023-05-19T09:39:35.000Z</time>
      </trkpt>
      <trkpt lat="45.8889" lon="5.63661">
        <ele>826.59997558594</ele>
        <time>2023-05-19T09:39:40.000Z</time>
      </trkpt>
      <trkpt lat="45.88869" lon="5.63672">
        <ele>826.20001220703</ele>
        <time>2023-05-19T09:39:47.000Z</time>
      </trkpt>
      <trkpt lat="45.88849" lon="5.63687">
        <ele>825.40002441406</ele>
        <time>2023-05-19T09:39:52.000Z</time>
      </trkpt>
      <trkpt lat="45.88845" lon="5.63692">
        <ele>825.40002441406</ele>
        <time>2023-05-19T09:39:53.000Z</time>
      </trkpt>
      <trkpt lat="45.88834" lon="5.637">
        <ele>824.59997558594</ele>
        <time>2023-05-19T09:39:55.000Z</time>
      </trkpt>
      <trkpt lat="45.88825" lon="5.63709">
        <ele>823.59997558594</ele>
        <time>2023-05-19T09:39:57.000Z</time>
      </trkpt>
      <trkpt lat="45.8882" lon="5.63713">
        <ele>823.40002441406</ele>
        <time>2023-05-19T09:39:58.000Z</time>
      </trkpt>
      <trkpt lat="45.88811" lon="5.6372">
        <ele>822.79998779297</ele>
        <time>2023-05-19T09:40:00.000Z</time>
      </trkpt>
      <trkpt lat="45.88807" lon="5.63724">
        <ele>822.20001220703</ele>
        <time>2023-05-19T09:40:01.000Z</time>
      </trkpt>
      <trkpt lat="45.88801" lon="5.63729">
        <ele>821.20001220703</ele>
        <time>2023-05-19T09:40:02.000Z</time>
      </trkpt>
      <trkpt lat="45.88797" lon="5.63732">
        <ele>821</ele>
        <time>2023-05-19T09:40:03.000Z</time>
      </trkpt>
      <trkpt lat="45.88792" lon="5.63734">
        <ele>818.59997558594</ele>
        <time>2023-05-19T09:40:05.000Z</time>
      </trkpt>
      <trkpt lat="45.88788" lon="5.63736">
        <ele>817.79998779297</ele>
        <time>2023-05-19T09:40:06.000Z</time>
      </trkpt>
      <trkpt lat="45.88783" lon="5.63738">
        <ele>816.79998779297</ele>
        <time>2023-05-19T09:40:07.000Z</time>
      </trkpt>
      <trkpt lat="45.88775" lon="5.63735">
        <ele>815.59997558594</ele>
        <time>2023-05-19T09:40:10.000Z</time>
      </trkpt>
      <trkpt lat="45.88771" lon="5.63734">
        <ele>814.40002441406</ele>
        <time>2023-05-19T09:40:12.000Z</time>
      </trkpt>
      <trkpt lat="45.88769" lon="5.63733">
        <ele>814.20001220703</ele>
        <time>2023-05-19T09:40:14.000Z</time>
      </trkpt>
      <trkpt lat="45.88767" lon="5.63733">
        <ele>814.20001220703</ele>
        <time>2023-05-19T09:40:15.000Z</time>
      </trkpt>
      <trkpt lat="45.88765" lon="5.63732">
        <ele>814.20001220703</ele>
        <time>2023-05-19T09:40:17.000Z</time>
      </trkpt>
      <trkpt lat="45.88765" lon="5.63732">
        <ele>814.40002441406</ele>
        <time>2023-05-19T09:40:19.000Z</time>
      </trkpt>
      <trkpt lat="45.88771" lon="5.63734">
        <ele>814.40002441406</ele>
        <time>2023-05-19T09:40:30.000Z</time>
      </trkpt>
      <trkpt lat="45.88776" lon="5.63736">
        <ele>814.40002441406</ele>
        <time>2023-05-19T09:40:32.000Z</time>
      </trkpt>
      <trkpt lat="45.88793" lon="5.63741">
        <ele>814.20001220703</ele>
        <time>2023-05-19T09:40:36.000Z</time>
      </trkpt>
      <trkpt lat="45.88803" lon="5.63742">
        <ele>813.40002441406</ele>
        <time>2023-05-19T09:40:38.000Z</time>
      </trkpt>
      <trkpt lat="45.88809" lon="5.63742">
        <ele>813</ele>
        <time>2023-05-19T09:40:39.000Z</time>
      </trkpt>
      <trkpt lat="45.88815" lon="5.63741">
        <ele>812.79998779297</ele>
        <time>2023-05-19T09:40:40.000Z</time>
      </trkpt>
      <trkpt lat="45.8883" lon="5.63739">
        <ele>811.79998779297</ele>
        <time>2023-05-19T09:40:42.000Z</time>
      </trkpt>
      <trkpt lat="45.88847" lon="5.63734">
        <ele>810.79998779297</ele>
        <time>2023-05-19T09:40:44.000Z</time>
      </trkpt>
      <trkpt lat="45.88855" lon="5.63732">
        <ele>810.59997558594</ele>
        <time>2023-05-19T09:40:45.000Z</time>
      </trkpt>
      <trkpt lat="45.88862" lon="5.63733">
        <ele>809.59997558594</ele>
        <time>2023-05-19T09:40:46.000Z</time>
      </trkpt>
      <trkpt lat="45.88868" lon="5.63737">
        <ele>809.20001220703</ele>
        <time>2023-05-19T09:40:47.000Z</time>
      </trkpt>
      <trkpt lat="45.88871" lon="5.63743">
        <ele>808.40002441406</ele>
        <time>2023-05-19T09:40:48.000Z</time>
      </trkpt>
      <trkpt lat="45.88873" lon="5.63749">
        <ele>808</ele>
        <time>2023-05-19T09:40:49.000Z</time>
      </trkpt>
      <trkpt lat="45.88871" lon="5.63755">
        <ele>807.20001220703</ele>
        <time>2023-05-19T09:40:50.000Z</time>
      </trkpt>
      <trkpt lat="45.88867" lon="5.63761">
        <ele>805.79998779297</ele>
        <time>2023-05-19T09:40:51.000Z</time>
      </trkpt>
      <trkpt lat="45.88856" lon="5.63768">
        <ele>804.40002441406</ele>
        <time>2023-05-19T09:40:53.000Z</time>
      </trkpt>
      <trkpt lat="45.88845" lon="5.63775">
        <ele>803.40002441406</ele>
        <time>2023-05-19T09:40:55.000Z</time>
      </trkpt>
      <trkpt lat="45.8884" lon="5.63778">
        <ele>802.59997558594</ele>
        <time>2023-05-19T09:40:56.000Z</time>
      </trkpt>
      <trkpt lat="45.88837" lon="5.6378">
        <ele>802</ele>
        <time>2023-05-19T09:40:57.000Z</time>
      </trkpt>
      <trkpt lat="45.88834" lon="5.63783">
        <ele>801</ele>
        <time>2023-05-19T09:40:58.000Z</time>
      </trkpt>
      <trkpt lat="45.88833" lon="5.63785">
        <ele>800.79998779297</ele>
        <time>2023-05-19T09:40:59.000Z</time>
      </trkpt>
      <trkpt lat="45.88832" lon="5.63784">
        <ele>799.79998779297</ele>
        <time>2023-05-19T09:41:01.000Z</time>
      </trkpt>
      <trkpt lat="45.88833" lon="5.63784">
        <ele>799.20001220703</ele>
        <time>2023-05-19T09:41:02.000Z</time>
      </trkpt>
      <trkpt lat="45.88833" lon="5.63784">
        <ele>797.59997558594</ele>
        <time>2023-05-19T09:41:03.000Z</time>
      </trkpt>
      <trkpt lat="45.88827" lon="5.63792">
        <ele>794.79998779297</ele>
        <time>2023-05-19T09:42:55.000Z</time>
      </trkpt>
      <trkpt lat="45.88824" lon="5.63795">
        <ele>794.59997558594</ele>
        <time>2023-05-19T09:42:56.000Z</time>
      </trkpt>
      <trkpt lat="45.8881" lon="5.63806">
        <ele>794.40002441406</ele>
        <time>2023-05-19T09:42:59.000Z</time>
      </trkpt>
      <trkpt lat="45.88804" lon="5.6381">
        <ele>794.40002441406</ele>
        <time>2023-05-19T09:43:00.000Z</time>
      </trkpt>
      <trkpt lat="45.8879" lon="5.63817">
        <ele>793.79998779297</ele>
        <time>2023-05-19T09:43:02.000Z</time>
      </trkpt>
      <trkpt lat="45.88774" lon="5.63824">
        <ele>793.20001220703</ele>
        <time>2023-05-19T09:43:04.000Z</time>
      </trkpt>
      <trkpt lat="45.88766" lon="5.63826">
        <ele>792.59997558594</ele>
        <time>2023-05-19T09:43:05.000Z</time>
      </trkpt>
      <trkpt lat="45.88742" lon="5.63835">
        <ele>791.40002441406</ele>
        <time>2023-05-19T09:43:08.000Z</time>
      </trkpt>
      <trkpt lat="45.88734" lon="5.63839">
        <ele>790.79998779297</ele>
        <time>2023-05-19T09:43:09.000Z</time>
      </trkpt>
      <trkpt lat="45.88725" lon="5.63843">
        <ele>790</ele>
        <time>2023-05-19T09:43:10.000Z</time>
      </trkpt>
      <trkpt lat="45.88694" lon="5.63865">
        <ele>788.20001220703</ele>
        <time>2023-05-19T09:43:14.000Z</time>
      </trkpt>
      <trkpt lat="45.88688" lon="5.63871">
        <ele>787.79998779297</ele>
        <time>2023-05-19T09:43:15.000Z</time>
      </trkpt>
      <trkpt lat="45.88682" lon="5.63877">
        <ele>787</ele>
        <time>2023-05-19T09:43:16.000Z</time>
      </trkpt>
      <trkpt lat="45.8867" lon="5.63889">
        <ele>786.20001220703</ele>
        <time>2023-05-19T09:43:18.000Z</time>
      </trkpt>
      <trkpt lat="45.88664" lon="5.63895">
        <ele>785.59997558594</ele>
        <time>2023-05-19T09:43:19.000Z</time>
      </trkpt>
      <trkpt lat="45.88656" lon="5.63901">
        <ele>785</ele>
        <time>2023-05-19T09:43:20.000Z</time>
      </trkpt>
      <trkpt lat="45.88649" lon="5.63906">
        <ele>784.20001220703</ele>
        <time>2023-05-19T09:43:21.000Z</time>
      </trkpt>
      <trkpt lat="45.88634" lon="5.63917">
        <ele>782.59997558594</ele>
        <time>2023-05-19T09:43:23.000Z</time>
      </trkpt>
      <trkpt lat="45.88619" lon="5.63927">
        <ele>781.20001220703</ele>
        <time>2023-05-19T09:43:25.000Z</time>
      </trkpt>
      <trkpt lat="45.88611" lon="5.63934">
        <ele>780.20001220703</ele>
        <time>2023-05-19T09:43:26.000Z</time>
      </trkpt>
      <trkpt lat="45.88603" lon="5.63941">
        <ele>779.79998779297</ele>
        <time>2023-05-19T09:43:27.000Z</time>
      </trkpt>
      <trkpt lat="45.88595" lon="5.6395">
        <ele>778.79998779297</ele>
        <time>2023-05-19T09:43:28.000Z</time>
      </trkpt>
      <trkpt lat="45.88578" lon="5.63964">
        <ele>777.40002441406</ele>
        <time>2023-05-19T09:43:30.000Z</time>
      </trkpt>
      <trkpt lat="45.88563" lon="5.63977">
        <ele>776</ele>
        <time>2023-05-19T09:43:32.000Z</time>
      </trkpt>
      <trkpt lat="45.88556" lon="5.63983">
        <ele>774.79998779297</ele>
        <time>2023-05-19T09:43:33.000Z</time>
      </trkpt>
      <trkpt lat="45.88544" lon="5.63996">
        <ele>773.59997558594</ele>
        <time>2023-05-19T09:43:35.000Z</time>
      </trkpt>
      <trkpt lat="45.88532" lon="5.64009">
        <ele>772.20001220703</ele>
        <time>2023-05-19T09:43:37.000Z</time>
      </trkpt>
      <trkpt lat="45.88527" lon="5.64014">
        <ele>771.59997558594</ele>
        <time>2023-05-19T09:43:38.000Z</time>
      </trkpt>
      <trkpt lat="45.88522" lon="5.6402">
        <ele>770.79998779297</ele>
        <time>2023-05-19T09:43:39.000Z</time>
      </trkpt>
      <trkpt lat="45.88516" lon="5.64027">
        <ele>769.40002441406</ele>
        <time>2023-05-19T09:43:40.000Z</time>
      </trkpt>
      <trkpt lat="45.88505" lon="5.64041">
        <ele>767.79998779297</ele>
        <time>2023-05-19T09:43:42.000Z</time>
      </trkpt>
      <trkpt lat="45.88494" lon="5.64055">
        <ele>766.40002441406</ele>
        <time>2023-05-19T09:43:44.000Z</time>
      </trkpt>
      <trkpt lat="45.88486" lon="5.64065">
        <ele>764.59997558594</ele>
        <time>2023-05-19T09:43:46.000Z</time>
      </trkpt>
      <trkpt lat="45.88483" lon="5.64071">
        <ele>763.20001220703</ele>
        <time>2023-05-19T09:43:47.000Z</time>
      </trkpt>
      <trkpt lat="45.88483" lon="5.64078">
        <ele>762.59997558594</ele>
        <time>2023-05-19T09:43:48.000Z</time>
      </trkpt>
      <trkpt lat="45.88485" lon="5.64084">
        <ele>761.79998779297</ele>
        <time>2023-05-19T09:43:49.000Z</time>
      </trkpt>
      <trkpt lat="45.88488" lon="5.64089">
        <ele>761.20001220703</ele>
        <time>2023-05-19T09:43:50.000Z</time>
      </trkpt>
      <trkpt lat="45.88493" lon="5.64091">
        <ele>759.79998779297</ele>
        <time>2023-05-19T09:43:51.000Z</time>
      </trkpt>
      <trkpt lat="45.88499" lon="5.64092">
        <ele>759.40002441406</ele>
        <time>2023-05-19T09:43:52.000Z</time>
      </trkpt>
      <trkpt lat="45.88505" lon="5.64093">
        <ele>758.59997558594</ele>
        <time>2023-05-19T09:43:53.000Z</time>
      </trkpt>
      <trkpt lat="45.88511" lon="5.64094">
        <ele>758.20001220703</ele>
        <time>2023-05-19T09:43:54.000Z</time>
      </trkpt>
      <trkpt lat="45.88516" lon="5.64096">
        <ele>757.20001220703</ele>
        <time>2023-05-19T09:43:55.000Z</time>
      </trkpt>
      <trkpt lat="45.88523" lon="5.64098">
        <ele>756.40002441406</ele>
        <time>2023-05-19T09:43:57.000Z</time>
      </trkpt>
      <trkpt lat="45.88524" lon="5.64099">
        <ele>755.40002441406</ele>
        <time>2023-05-19T09:43:58.000Z</time>
      </trkpt>
      <trkpt lat="45.88525" lon="5.641">
        <ele>755</ele>
        <time>2023-05-19T09:43:59.000Z</time>
      </trkpt>
      <trkpt lat="45.88524" lon="5.64101">
        <ele>754</ele>
        <time>2023-05-19T09:44:00.000Z</time>
      </trkpt>
      <trkpt lat="45.88524" lon="5.64101">
        <ele>753.40002441406</ele>
        <time>2023-05-19T09:44:01.000Z</time>
      </trkpt>
      <trkpt lat="45.88524" lon="5.64101">
        <ele>752.20001220703</ele>
        <time>2023-05-19T09:44:02.000Z</time>
      </trkpt>
      <trkpt lat="45.88525" lon="5.64101">
        <ele>751.20001220703</ele>
        <time>2023-05-19T09:44:06.000Z</time>
      </trkpt>
      <trkpt lat="45.88525" lon="5.641">
        <ele>751</ele>
        <time>2023-05-19T09:44:08.000Z</time>
      </trkpt>
      <trkpt lat="45.88524" lon="5.641">
        <ele>750.79998779297</ele>
        <time>2023-05-19T09:44:11.000Z</time>
      </trkpt>
      <trkpt lat="45.88521" lon="5.64099">
        <ele>751.20001220703</ele>
        <time>2023-05-19T09:44:20.000Z</time>
      </trkpt>
      <trkpt lat="45.88518" lon="5.64098">
        <ele>751.20001220703</ele>
        <time>2023-05-19T09:44:21.000Z</time>
      </trkpt>
      <trkpt lat="45.88504" lon="5.64095">
        <ele>752</ele>
        <time>2023-05-19T09:44:27.000Z</time>
      </trkpt>
      <trkpt lat="45.88499" lon="5.64091">
        <ele>752.59997558594</ele>
        <time>2023-05-19T09:44:30.000Z</time>
      </trkpt>
      <trkpt lat="45.88496" lon="5.64086">
        <ele>753.59997558594</ele>
        <time>2023-05-19T09:44:33.000Z</time>
      </trkpt>
      <trkpt lat="45.88488" lon="5.64087">
        <ele>754.59997558594</ele>
        <time>2023-05-19T09:44:37.000Z</time>
      </trkpt>
      <trkpt lat="45.88486" lon="5.64088">
        <ele>754.79998779297</ele>
        <time>2023-05-19T09:44:38.000Z</time>
      </trkpt>
      <trkpt lat="45.88483" lon="5.6409">
        <ele>754.79998779297</ele>
        <time>2023-05-19T09:44:39.000Z</time>
      </trkpt>
      <trkpt lat="45.88473" lon="5.64105">
        <ele>755</ele>
        <time>2023-05-19T09:44:44.000Z</time>
      </trkpt>
      <trkpt lat="45.88463" lon="5.64122">
        <ele>753.79998779297</ele>
        <time>2023-05-19T09:44:50.000Z</time>
      </trkpt>
      <trkpt lat="45.88461" lon="5.64125">
        <ele>753.40002441406</ele>
        <time>2023-05-19T09:44:51.000Z</time>
      </trkpt>
      <trkpt lat="45.88459" lon="5.64131">
        <ele>752.20001220703</ele>
        <time>2023-05-19T09:44:53.000Z</time>
      </trkpt>
      <trkpt lat="45.8846" lon="5.6414">
        <ele>751.59997558594</ele>
        <time>2023-05-19T09:44:55.000Z</time>
      </trkpt>
      <trkpt lat="45.88463" lon="5.64145">
        <ele>750.79998779297</ele>
        <time>2023-05-19T09:44:56.000Z</time>
      </trkpt>
      <trkpt lat="45.88468" lon="5.64153">
        <ele>749.59997558594</ele>
        <time>2023-05-19T09:44:58.000Z</time>
      </trkpt>
      <trkpt lat="45.8847" lon="5.64156">
        <ele>749.40002441406</ele>
        <time>2023-05-19T09:44:59.000Z</time>
      </trkpt>
      <trkpt lat="45.88475" lon="5.64172">
        <ele>748.40002441406</ele>
        <time>2023-05-19T09:45:02.000Z</time>
      </trkpt>
      <trkpt lat="45.88478" lon="5.64182">
        <ele>747.40002441406</ele>
        <time>2023-05-19T09:45:04.000Z</time>
      </trkpt>
      <trkpt lat="45.88478" lon="5.64187">
        <ele>746.20001220703</ele>
        <time>2023-05-19T09:45:05.000Z</time>
      </trkpt>
      <trkpt lat="45.88478" lon="5.64197">
        <ele>745</ele>
        <time>2023-05-19T09:45:07.000Z</time>
      </trkpt>
      <trkpt lat="45.88477" lon="5.64209">
        <ele>744.40002441406</ele>
        <time>2023-05-19T09:45:09.000Z</time>
      </trkpt>
      <trkpt lat="45.88477" lon="5.64215">
        <ele>743.40002441406</ele>
        <time>2023-05-19T09:45:10.000Z</time>
      </trkpt>
      <trkpt lat="45.88478" lon="5.64227">
        <ele>741.79998779297</ele>
        <time>2023-05-19T09:45:12.000Z</time>
      </trkpt>
      <trkpt lat="45.88481" lon="5.64239">
        <ele>740.79998779297</ele>
        <time>2023-05-19T09:45:14.000Z</time>
      </trkpt>
      <trkpt lat="45.88483" lon="5.64245">
        <ele>740</ele>
        <time>2023-05-19T09:45:15.000Z</time>
      </trkpt>
      <trkpt lat="45.88484" lon="5.64251">
        <ele>739</ele>
        <time>2023-05-19T09:45:16.000Z</time>
      </trkpt>
      <trkpt lat="45.88488" lon="5.64264">
        <ele>737.59997558594</ele>
        <time>2023-05-19T09:45:18.000Z</time>
      </trkpt>
      <trkpt lat="45.88492" lon="5.64275">
        <ele>736.40002441406</ele>
        <time>2023-05-19T09:45:20.000Z</time>
      </trkpt>
      <trkpt lat="45.88493" lon="5.6428">
        <ele>734.59997558594</ele>
        <time>2023-05-19T09:45:21.000Z</time>
      </trkpt>
      <trkpt lat="45.88494" lon="5.64292">
        <ele>732.79998779297</ele>
        <time>2023-05-19T09:45:23.000Z</time>
      </trkpt>
      <trkpt lat="45.88497" lon="5.64304">
        <ele>731.79998779297</ele>
        <time>2023-05-19T09:45:25.000Z</time>
      </trkpt>
      <trkpt lat="45.88502" lon="5.64315">
        <ele>730.79998779297</ele>
        <time>2023-05-19T09:45:27.000Z</time>
      </trkpt>
      <trkpt lat="45.88502" lon="5.6432">
        <ele>729.59997558594</ele>
        <time>2023-05-19T09:45:28.000Z</time>
      </trkpt>
      <trkpt lat="45.88505" lon="5.64331">
        <ele>727.79998779297</ele>
        <time>2023-05-19T09:45:30.000Z</time>
      </trkpt>
      <trkpt lat="45.88507" lon="5.64351">
        <ele>726.20001220703</ele>
        <time>2023-05-19T09:45:33.000Z</time>
      </trkpt>
      <trkpt lat="45.8851" lon="5.64367">
        <ele>724.79998779297</ele>
        <time>2023-05-19T09:45:35.000Z</time>
      </trkpt>
      <trkpt lat="45.88512" lon="5.64384">
        <ele>723.59997558594</ele>
        <time>2023-05-19T09:45:37.000Z</time>
      </trkpt>
      <trkpt lat="45.88514" lon="5.64401">
        <ele>722</ele>
        <time>2023-05-19T09:45:39.000Z</time>
      </trkpt>
      <trkpt lat="45.88513" lon="5.64409">
        <ele>720.79998779297</ele>
        <time>2023-05-19T09:45:40.000Z</time>
      </trkpt>
      <trkpt lat="45.88514" lon="5.64426">
        <ele>718.79998779297</ele>
        <time>2023-05-19T09:45:42.000Z</time>
      </trkpt>
      <trkpt lat="45.88519" lon="5.64447">
        <ele>717.40002441406</ele>
        <time>2023-05-19T09:45:45.000Z</time>
      </trkpt>
      <trkpt lat="45.88522" lon="5.64454">
        <ele>716.79998779297</ele>
        <time>2023-05-19T09:45:46.000Z</time>
      </trkpt>
      <trkpt lat="45.88524" lon="5.6446">
        <ele>716</ele>
        <time>2023-05-19T09:45:47.000Z</time>
      </trkpt>
      <trkpt lat="45.88525" lon="5.64469">
        <ele>714.40002441406</ele>
        <time>2023-05-19T09:45:49.000Z</time>
      </trkpt>
      <trkpt lat="45.88528" lon="5.64476">
        <ele>712.40002441406</ele>
        <time>2023-05-19T09:45:51.000Z</time>
      </trkpt>
      <trkpt lat="45.88529" lon="5.6448">
        <ele>711.40002441406</ele>
        <time>2023-05-19T09:45:52.000Z</time>
      </trkpt>
      <trkpt lat="45.8853" lon="5.64485">
        <ele>710.20001220703</ele>
        <time>2023-05-19T09:45:53.000Z</time>
      </trkpt>
      <trkpt lat="45.88532" lon="5.64498">
        <ele>708.79998779297</ele>
        <time>2023-05-19T09:45:56.000Z</time>
      </trkpt>
      <trkpt lat="45.88536" lon="5.64522">
        <ele>707.79998779297</ele>
        <time>2023-05-19T09:46:00.000Z</time>
      </trkpt>
      <trkpt lat="45.88538" lon="5.64529">
        <ele>707.40002441406</ele>
        <time>2023-05-19T09:46:01.000Z</time>
      </trkpt>
      <trkpt lat="45.88543" lon="5.64543">
        <ele>706.40002441406</ele>
        <time>2023-05-19T09:46:03.000Z</time>
      </trkpt>
      <trkpt lat="45.88547" lon="5.64557">
        <ele>705.79998779297</ele>
        <time>2023-05-19T09:46:05.000Z</time>
      </trkpt>
      <trkpt lat="45.8855" lon="5.64572">
        <ele>705.20001220703</ele>
        <time>2023-05-19T09:46:07.000Z</time>
      </trkpt>
      <trkpt lat="45.88553" lon="5.64588">
        <ele>704</ele>
        <time>2023-05-19T09:46:09.000Z</time>
      </trkpt>
      <trkpt lat="45.88557" lon="5.64603">
        <ele>702.79998779297</ele>
        <time>2023-05-19T09:46:11.000Z</time>
      </trkpt>
      <trkpt lat="45.88562" lon="5.64622">
        <ele>700.79998779297</ele>
        <time>2023-05-19T09:46:14.000Z</time>
      </trkpt>
      <trkpt lat="45.88565" lon="5.64637">
        <ele>698.59997558594</ele>
        <time>2023-05-19T09:46:17.000Z</time>
      </trkpt>
      <trkpt lat="45.88568" lon="5.64646">
        <ele>697.59997558594</ele>
        <time>2023-05-19T09:46:19.000Z</time>
      </trkpt>
      <trkpt lat="45.8857" lon="5.64654">
        <ele>696.40002441406</ele>
        <time>2023-05-19T09:46:21.000Z</time>
      </trkpt>
      <trkpt lat="45.88571" lon="5.64662">
        <ele>695</ele>
        <time>2023-05-19T09:46:23.000Z</time>
      </trkpt>
      <trkpt lat="45.88573" lon="5.64671">
        <ele>694.20001220703</ele>
        <time>2023-05-19T09:46:25.000Z</time>
      </trkpt>
      <trkpt lat="45.88575" lon="5.64676">
        <ele>693.79998779297</ele>
        <time>2023-05-19T09:46:26.000Z</time>
      </trkpt>
      <trkpt lat="45.8858" lon="5.64691">
        <ele>692.59997558594</ele>
        <time>2023-05-19T09:46:29.000Z</time>
      </trkpt>
      <trkpt lat="45.88581" lon="5.64697">
        <ele>691.40002441406</ele>
        <time>2023-05-19T09:46:30.000Z</time>
      </trkpt>
      <trkpt lat="45.88583" lon="5.64709">
        <ele>690.20001220703</ele>
        <time>2023-05-19T09:46:32.000Z</time>
      </trkpt>
      <trkpt lat="45.88584" lon="5.64724">
        <ele>689.20001220703</ele>
        <time>2023-05-19T09:46:34.000Z</time>
      </trkpt>
      <trkpt lat="45.88584" lon="5.64731">
        <ele>688.59997558594</ele>
        <time>2023-05-19T09:46:35.000Z</time>
      </trkpt>
      <trkpt lat="45.88583" lon="5.64745">
        <ele>687.20001220703</ele>
        <time>2023-05-19T09:46:37.000Z</time>
      </trkpt>
      <trkpt lat="45.88583" lon="5.64752">
        <ele>686.20001220703</ele>
        <time>2023-05-19T09:46:38.000Z</time>
      </trkpt>
      <trkpt lat="45.88583" lon="5.64765">
        <ele>684.79998779297</ele>
        <time>2023-05-19T09:46:40.000Z</time>
      </trkpt>
      <trkpt lat="45.88582" lon="5.64772">
        <ele>683.79998779297</ele>
        <time>2023-05-19T09:46:41.000Z</time>
      </trkpt>
      <trkpt lat="45.88583" lon="5.64779">
        <ele>682.59997558594</ele>
        <time>2023-05-19T09:46:42.000Z</time>
      </trkpt>
      <trkpt lat="45.88586" lon="5.64793">
        <ele>681.20001220703</ele>
        <time>2023-05-19T09:46:44.000Z</time>
      </trkpt>
      <trkpt lat="45.88591" lon="5.64807">
        <ele>680.20001220703</ele>
        <time>2023-05-19T09:46:46.000Z</time>
      </trkpt>
      <trkpt lat="45.88598" lon="5.64819">
        <ele>678.79998779297</ele>
        <time>2023-05-19T09:46:48.000Z</time>
      </trkpt>
      <trkpt lat="45.88605" lon="5.64827">
        <ele>677.59997558594</ele>
        <time>2023-05-19T09:46:50.000Z</time>
      </trkpt>
      <trkpt lat="45.88609" lon="5.64831">
        <ele>676.59997558594</ele>
        <time>2023-05-19T09:46:51.000Z</time>
      </trkpt>
      <trkpt lat="45.88613" lon="5.64836">
        <ele>675.79998779297</ele>
        <time>2023-05-19T09:46:52.000Z</time>
      </trkpt>
      <trkpt lat="45.88615" lon="5.64842">
        <ele>674.79998779297</ele>
        <time>2023-05-19T09:46:53.000Z</time>
      </trkpt>
      <trkpt lat="45.88621" lon="5.64858">
        <ele>673</ele>
        <time>2023-05-19T09:46:56.000Z</time>
      </trkpt>
      <trkpt lat="45.88626" lon="5.64874">
        <ele>671.59997558594</ele>
        <time>2023-05-19T09:46:59.000Z</time>
      </trkpt>
      <trkpt lat="45.88628" lon="5.64885">
        <ele>670</ele>
        <time>2023-05-19T09:47:01.000Z</time>
      </trkpt>
      <trkpt lat="45.88631" lon="5.64898">
        <ele>668.79998779297</ele>
        <time>2023-05-19T09:47:03.000Z</time>
      </trkpt>
      <trkpt lat="45.8864" lon="5.64913">
        <ele>667.59997558594</ele>
        <time>2023-05-19T09:47:05.000Z</time>
      </trkpt>
      <trkpt lat="45.88652" lon="5.64925">
        <ele>666.40002441406</ele>
        <time>2023-05-19T09:47:07.000Z</time>
      </trkpt>
      <trkpt lat="45.88659" lon="5.6493">
        <ele>665.79998779297</ele>
        <time>2023-05-19T09:47:08.000Z</time>
      </trkpt>
      <trkpt lat="45.88673" lon="5.6494">
        <ele>664.79998779297</ele>
        <time>2023-05-19T09:47:10.000Z</time>
      </trkpt>
      <trkpt lat="45.8869" lon="5.64953">
        <ele>663.79998779297</ele>
        <time>2023-05-19T09:47:12.000Z</time>
      </trkpt>
      <trkpt lat="45.88708" lon="5.64965">
        <ele>662.40002441406</ele>
        <time>2023-05-19T09:47:14.000Z</time>
      </trkpt>
      <trkpt lat="45.88724" lon="5.64976">
        <ele>661.40002441406</ele>
        <time>2023-05-19T09:47:16.000Z</time>
      </trkpt>
      <trkpt lat="45.88734" lon="5.64981">
        <ele>660.59997558594</ele>
        <time>2023-05-19T09:47:17.000Z</time>
      </trkpt>
      <trkpt lat="45.88743" lon="5.64984">
        <ele>660.20001220703</ele>
        <time>2023-05-19T09:47:18.000Z</time>
      </trkpt>
      <trkpt lat="45.88763" lon="5.64992">
        <ele>659.20001220703</ele>
        <time>2023-05-19T09:47:20.000Z</time>
      </trkpt>
      <trkpt lat="45.88784" lon="5.65">
        <ele>658</ele>
        <time>2023-05-19T09:47:22.000Z</time>
      </trkpt>
      <trkpt lat="45.88805" lon="5.65009">
        <ele>656.20001220703</ele>
        <time>2023-05-19T09:47:24.000Z</time>
      </trkpt>
      <trkpt lat="45.88826" lon="5.6502">
        <ele>654.20001220703</ele>
        <time>2023-05-19T09:47:26.000Z</time>
      </trkpt>
      <trkpt lat="45.88844" lon="5.65031">
        <ele>652.59997558594</ele>
        <time>2023-05-19T09:47:28.000Z</time>
      </trkpt>
      <trkpt lat="45.8886" lon="5.65041">
        <ele>650.59997558594</ele>
        <time>2023-05-19T09:47:30.000Z</time>
      </trkpt>
      <trkpt lat="45.88875" lon="5.65047">
        <ele>649.59997558594</ele>
        <time>2023-05-19T09:47:32.000Z</time>
      </trkpt>
      <trkpt lat="45.88883" lon="5.65048">
        <ele>648.59997558594</ele>
        <time>2023-05-19T09:47:33.000Z</time>
      </trkpt>
      <trkpt lat="45.88891" lon="5.65047">
        <ele>648</ele>
        <time>2023-05-19T09:47:34.000Z</time>
      </trkpt>
      <trkpt lat="45.88906" lon="5.65041">
        <ele>646.79998779297</ele>
        <time>2023-05-19T09:47:36.000Z</time>
      </trkpt>
      <trkpt lat="45.88914" lon="5.65038">
        <ele>645.79998779297</ele>
        <time>2023-05-19T09:47:37.000Z</time>
      </trkpt>
      <trkpt lat="45.88929" lon="5.65033">
        <ele>644.59997558594</ele>
        <time>2023-05-19T09:47:39.000Z</time>
      </trkpt>
      <trkpt lat="45.88946" lon="5.65035">
        <ele>643.59997558594</ele>
        <time>2023-05-19T09:47:41.000Z</time>
      </trkpt>
      <trkpt lat="45.88954" lon="5.6504">
        <ele>642.59997558594</ele>
        <time>2023-05-19T09:47:42.000Z</time>
      </trkpt>
      <trkpt lat="45.8897" lon="5.65053">
        <ele>641.59997558594</ele>
        <time>2023-05-19T09:47:44.000Z</time>
      </trkpt>
      <trkpt lat="45.88984" lon="5.65065">
        <ele>640.40002441406</ele>
        <time>2023-05-19T09:47:46.000Z</time>
      </trkpt>
      <trkpt lat="45.88992" lon="5.65069">
        <ele>639.20001220703</ele>
        <time>2023-05-19T09:47:48.000Z</time>
      </trkpt>
      <trkpt lat="45.88994" lon="5.65071">
        <ele>638</ele>
        <time>2023-05-19T09:47:49.000Z</time>
      </trkpt>
      <trkpt lat="45.88998" lon="5.65074">
        <ele>635.79998779297</ele>
        <time>2023-05-19T09:47:51.000Z</time>
      </trkpt>
      <trkpt lat="45.89" lon="5.65075">
        <ele>635.40002441406</ele>
        <time>2023-05-19T09:47:52.000Z</time>
      </trkpt>
      <trkpt lat="45.89001" lon="5.65077">
        <ele>634.40002441406</ele>
        <time>2023-05-19T09:47:53.000Z</time>
      </trkpt>
      <trkpt lat="45.89005" lon="5.6508">
        <ele>633.40002441406</ele>
        <time>2023-05-19T09:47:55.000Z</time>
      </trkpt>
      <trkpt lat="45.89014" lon="5.65086">
        <ele>632</ele>
        <time>2023-05-19T09:47:58.000Z</time>
      </trkpt>
      <trkpt lat="45.89034" lon="5.65101">
        <ele>631.40002441406</ele>
        <time>2023-05-19T09:48:03.000Z</time>
      </trkpt>
      <trkpt lat="45.89045" lon="5.65107">
        <ele>631</ele>
        <time>2023-05-19T09:48:05.000Z</time>
      </trkpt>
      <trkpt lat="45.89051" lon="5.65108">
        <ele>630.79998779297</ele>
        <time>2023-05-19T09:48:06.000Z</time>
      </trkpt>
      <trkpt lat="45.89058" lon="5.6511">
        <ele>630.40002441406</ele>
        <time>2023-05-19T09:48:07.000Z</time>
      </trkpt>
      <trkpt lat="45.89066" lon="5.65112">
        <ele>629.40002441406</ele>
        <time>2023-05-19T09:48:08.000Z</time>
      </trkpt>
      <trkpt lat="45.89082" lon="5.65118">
        <ele>628.40002441406</ele>
        <time>2023-05-19T09:48:10.000Z</time>
      </trkpt>
      <trkpt lat="45.891" lon="5.65128">
        <ele>628</ele>
        <time>2023-05-19T09:48:12.000Z</time>
      </trkpt>
      <trkpt lat="45.89109" lon="5.65136">
        <ele>627.79998779297</ele>
        <time>2023-05-19T09:48:13.000Z</time>
      </trkpt>
      <trkpt lat="45.89117" lon="5.65144">
        <ele>627.20001220703</ele>
        <time>2023-05-19T09:48:14.000Z</time>
      </trkpt>
      <trkpt lat="45.89132" lon="5.6516">
        <ele>625.79998779297</ele>
        <time>2023-05-19T09:48:16.000Z</time>
      </trkpt>
      <trkpt lat="45.89139" lon="5.65169">
        <ele>624.79998779297</ele>
        <time>2023-05-19T09:48:17.000Z</time>
      </trkpt>
      <trkpt lat="45.8915" lon="5.65189">
        <ele>623.59997558594</ele>
        <time>2023-05-19T09:48:19.000Z</time>
      </trkpt>
      <trkpt lat="45.89166" lon="5.65215">
        <ele>622.59997558594</ele>
        <time>2023-05-19T09:48:22.000Z</time>
      </trkpt>
      <trkpt lat="45.89169" lon="5.65223">
        <ele>622</ele>
        <time>2023-05-19T09:48:23.000Z</time>
      </trkpt>
      <trkpt lat="45.89171" lon="5.65232">
        <ele>621.20001220703</ele>
        <time>2023-05-19T09:48:24.000Z</time>
      </trkpt>
      <trkpt lat="45.89171" lon="5.65242">
        <ele>620.79998779297</ele>
        <time>2023-05-19T09:48:25.000Z</time>
      </trkpt>
      <trkpt lat="45.89168" lon="5.65252">
        <ele>620.20001220703</ele>
        <time>2023-05-19T09:48:26.000Z</time>
      </trkpt>
      <trkpt lat="45.89165" lon="5.6526">
        <ele>619.79998779297</ele>
        <time>2023-05-19T09:48:27.000Z</time>
      </trkpt>
      <trkpt lat="45.8916" lon="5.65267">
        <ele>619</ele>
        <time>2023-05-19T09:48:28.000Z</time>
      </trkpt>
      <trkpt lat="45.89154" lon="5.65271">
        <ele>618.59997558594</ele>
        <time>2023-05-19T09:48:29.000Z</time>
      </trkpt>
      <trkpt lat="45.89131" lon="5.65279">
        <ele>617.79998779297</ele>
        <time>2023-05-19T09:48:32.000Z</time>
      </trkpt>
      <trkpt lat="45.89113" lon="5.65283">
        <ele>616.40002441406</ele>
        <time>2023-05-19T09:48:34.000Z</time>
      </trkpt>
      <trkpt lat="45.89095" lon="5.65284">
        <ele>615.40002441406</ele>
        <time>2023-05-19T09:48:36.000Z</time>
      </trkpt>
      <trkpt lat="45.89079" lon="5.65286">
        <ele>613.40002441406</ele>
        <time>2023-05-19T09:48:38.000Z</time>
      </trkpt>
      <trkpt lat="45.89055" lon="5.65289">
        <ele>612.20001220703</ele>
        <time>2023-05-19T09:48:41.000Z</time>
      </trkpt>
      <trkpt lat="45.89045" lon="5.65292">
        <ele>611.40002441406</ele>
        <time>2023-05-19T09:48:43.000Z</time>
      </trkpt>
      <trkpt lat="45.8904" lon="5.65296">
        <ele>610.20001220703</ele>
        <time>2023-05-19T09:48:44.000Z</time>
      </trkpt>
      <trkpt lat="45.89037" lon="5.653">
        <ele>609.79998779297</ele>
        <time>2023-05-19T09:48:45.000Z</time>
      </trkpt>
      <trkpt lat="45.89036" lon="5.65314">
        <ele>608.40002441406</ele>
        <time>2023-05-19T09:48:47.000Z</time>
      </trkpt>
      <trkpt lat="45.89039" lon="5.65329">
        <ele>607.20001220703</ele>
        <time>2023-05-19T09:48:49.000Z</time>
      </trkpt>
      <trkpt lat="45.89042" lon="5.65335">
        <ele>606.79998779297</ele>
        <time>2023-05-19T09:48:50.000Z</time>
      </trkpt>
      <trkpt lat="45.89048" lon="5.65351">
        <ele>606</ele>
        <time>2023-05-19T09:48:52.000Z</time>
      </trkpt>
      <trkpt lat="45.89055" lon="5.65369">
        <ele>604.79998779297</ele>
        <time>2023-05-19T09:48:54.000Z</time>
      </trkpt>
      <trkpt lat="45.89066" lon="5.65397">
        <ele>603.59997558594</ele>
        <time>2023-05-19T09:48:57.000Z</time>
      </trkpt>
      <trkpt lat="45.8907" lon="5.65405">
        <ele>603.40002441406</ele>
        <time>2023-05-19T09:48:58.000Z</time>
      </trkpt>
      <trkpt lat="45.89079" lon="5.65416">
        <ele>602.79998779297</ele>
        <time>2023-05-19T09:49:00.000Z</time>
      </trkpt>
      <trkpt lat="45.89084" lon="5.65419">
        <ele>601.79998779297</ele>
        <time>2023-05-19T09:49:01.000Z</time>
      </trkpt>
      <trkpt lat="45.89094" lon="5.65422">
        <ele>600.40002441406</ele>
        <time>2023-05-19T09:49:03.000Z</time>
      </trkpt>
      <trkpt lat="45.891" lon="5.65423">
        <ele>600.20001220703</ele>
        <time>2023-05-19T09:49:04.000Z</time>
      </trkpt>
      <trkpt lat="45.89113" lon="5.65422">
        <ele>599.59997558594</ele>
        <time>2023-05-19T09:49:06.000Z</time>
      </trkpt>
      <trkpt lat="45.89121" lon="5.65421">
        <ele>599.20001220703</ele>
        <time>2023-05-19T09:49:07.000Z</time>
      </trkpt>
      <trkpt lat="45.89128" lon="5.6542">
        <ele>598.40002441406</ele>
        <time>2023-05-19T09:49:08.000Z</time>
      </trkpt>
      <trkpt lat="45.89145" lon="5.65418">
        <ele>597.79998779297</ele>
        <time>2023-05-19T09:49:10.000Z</time>
      </trkpt>
      <trkpt lat="45.89162" lon="5.65419">
        <ele>597.40002441406</ele>
        <time>2023-05-19T09:49:12.000Z</time>
      </trkpt>
      <trkpt lat="45.89185" lon="5.6542">
        <ele>596.59997558594</ele>
        <time>2023-05-19T09:49:15.000Z</time>
      </trkpt>
      <trkpt lat="45.89201" lon="5.65422">
        <ele>596</ele>
        <time>2023-05-19T09:49:17.000Z</time>
      </trkpt>
      <trkpt lat="45.89225" lon="5.65422">
        <ele>595.59997558594</ele>
        <time>2023-05-19T09:49:20.000Z</time>
      </trkpt>
      <trkpt lat="45.89232" lon="5.65423">
        <ele>595.20001220703</ele>
        <time>2023-05-19T09:49:21.000Z</time>
      </trkpt>
      <trkpt lat="45.89239" lon="5.65424">
        <ele>595</ele>
        <time>2023-05-19T09:49:22.000Z</time>
      </trkpt>
      <trkpt lat="45.89249" lon="5.65427">
        <ele>594.20001220703</ele>
        <time>2023-05-19T09:49:25.000Z</time>
      </trkpt>
      <trkpt lat="45.8925" lon="5.65427">
        <ele>593.40002441406</ele>
        <time>2023-05-19T09:49:26.000Z</time>
      </trkpt>
      <trkpt lat="45.89248" lon="5.65431">
        <ele>593.20001220703</ele>
        <time>2023-05-19T09:49:27.000Z</time>
      </trkpt>
      <trkpt lat="45.89246" lon="5.65434">
        <ele>592.59997558594</ele>
        <time>2023-05-19T09:49:28.000Z</time>
      </trkpt>
      <trkpt lat="45.89243" lon="5.65439">
        <ele>592</ele>
        <time>2023-05-19T09:49:30.000Z</time>
      </trkpt>
      <trkpt lat="45.89242" lon="5.65444">
        <ele>591.79998779297</ele>
        <time>2023-05-19T09:49:32.000Z</time>
      </trkpt>
      <trkpt lat="45.89238" lon="5.65462">
        <ele>590.79998779297</ele>
        <time>2023-05-19T09:49:37.000Z</time>
      </trkpt>
      <trkpt lat="45.89237" lon="5.65466">
        <ele>590.59997558594</ele>
        <time>2023-05-19T09:49:38.000Z</time>
      </trkpt>
      <trkpt lat="45.89235" lon="5.65487">
        <ele>589.59997558594</ele>
        <time>2023-05-19T09:49:42.000Z</time>
      </trkpt>
      <trkpt lat="45.89231" lon="5.65501">
        <ele>588.40002441406</ele>
        <time>2023-05-19T09:49:45.000Z</time>
      </trkpt>
      <trkpt lat="45.89222" lon="5.65513">
        <ele>587.20001220703</ele>
        <time>2023-05-19T09:49:48.000Z</time>
      </trkpt>
      <trkpt lat="45.89219" lon="5.65516">
        <ele>586.59997558594</ele>
        <time>2023-05-19T09:49:49.000Z</time>
      </trkpt>
      <trkpt lat="45.89216" lon="5.65518">
        <ele>586</ele>
        <time>2023-05-19T09:49:50.000Z</time>
      </trkpt>
      <trkpt lat="45.89205" lon="5.65525">
        <ele>584.79998779297</ele>
        <time>2023-05-19T09:49:54.000Z</time>
      </trkpt>
      <trkpt lat="45.892" lon="5.65529">
        <ele>583.20001220703</ele>
        <time>2023-05-19T09:49:56.000Z</time>
      </trkpt>
      <trkpt lat="45.89195" lon="5.65531">
        <ele>581.40002441406</ele>
        <time>2023-05-19T09:49:58.000Z</time>
      </trkpt>
      <trkpt lat="45.89192" lon="5.65532">
        <ele>580.59997558594</ele>
        <time>2023-05-19T09:50:00.000Z</time>
      </trkpt>
      <trkpt lat="45.89191" lon="5.65532">
        <ele>580.20001220703</ele>
        <time>2023-05-19T09:50:01.000Z</time>
      </trkpt>
      <trkpt lat="45.8919" lon="5.65532">
        <ele>579.59997558594</ele>
        <time>2023-05-19T09:50:04.000Z</time>
      </trkpt>
      <trkpt lat="45.89154" lon="5.65551">
        <ele>572.79998779297</ele>
        <time>2023-05-19T09:54:13.000Z</time>
      </trkpt>
      <trkpt lat="45.89152" lon="5.65553">
        <ele>572.79998779297</ele>
        <time>2023-05-19T09:54:14.000Z</time>
      </trkpt>
      <trkpt lat="45.89138" lon="5.65562">
        <ele>572</ele>
        <time>2023-05-19T09:54:19.000Z</time>
      </trkpt>
      <trkpt lat="45.89128" lon="5.65565">
        <ele>571.79998779297</ele>
        <time>2023-05-19T09:54:22.000Z</time>
      </trkpt>
      <trkpt lat="45.89119" lon="5.65572">
        <ele>570.59997558594</ele>
        <time>2023-05-19T09:54:26.000Z</time>
      </trkpt>
      <trkpt lat="45.89111" lon="5.65577">
        <ele>569.59997558594</ele>
        <time>2023-05-19T09:54:28.000Z</time>
      </trkpt>
      <trkpt lat="45.89105" lon="5.65581">
        <ele>568.40002441406</ele>
        <time>2023-05-19T09:54:30.000Z</time>
      </trkpt>
      <trkpt lat="45.891" lon="5.65583">
        <ele>567.40002441406</ele>
        <time>2023-05-19T09:54:32.000Z</time>
      </trkpt>
      <trkpt lat="45.89092" lon="5.65587">
        <ele>566.40002441406</ele>
        <time>2023-05-19T09:54:34.000Z</time>
      </trkpt>
      <trkpt lat="45.89087" lon="5.65586">
        <ele>566</ele>
        <time>2023-05-19T09:54:35.000Z</time>
      </trkpt>
      <trkpt lat="45.89077" lon="5.65584">
        <ele>564.40002441406</ele>
        <time>2023-05-19T09:54:38.000Z</time>
      </trkpt>
      <trkpt lat="45.89074" lon="5.65584">
        <ele>563.40002441406</ele>
        <time>2023-05-19T09:54:39.000Z</time>
      </trkpt>
      <trkpt lat="45.89071" lon="5.65585">
        <ele>563</ele>
        <time>2023-05-19T09:54:40.000Z</time>
      </trkpt>
      <trkpt lat="45.89065" lon="5.65584">
        <ele>562</ele>
        <time>2023-05-19T09:54:42.000Z</time>
      </trkpt>
      <trkpt lat="45.89055" lon="5.65586">
        <ele>560.40002441406</ele>
        <time>2023-05-19T09:54:45.000Z</time>
      </trkpt>
      <trkpt lat="45.89045" lon="5.65584">
        <ele>559</ele>
        <time>2023-05-19T09:54:48.000Z</time>
      </trkpt>
      <trkpt lat="45.8904" lon="5.65579">
        <ele>557.59997558594</ele>
        <time>2023-05-19T09:54:50.000Z</time>
      </trkpt>
      <trkpt lat="45.89035" lon="5.65579">
        <ele>556.59997558594</ele>
        <time>2023-05-19T09:54:52.000Z</time>
      </trkpt>
      <trkpt lat="45.89027" lon="5.65579">
        <ele>555.40002441406</ele>
        <time>2023-05-19T09:54:55.000Z</time>
      </trkpt>
      <trkpt lat="45.89015" lon="5.6558">
        <ele>554.79998779297</ele>
        <time>2023-05-19T09:54:57.000Z</time>
      </trkpt>
      <trkpt lat="45.89005" lon="5.65574">
        <ele>554.20001220703</ele>
        <time>2023-05-19T09:54:59.000Z</time>
      </trkpt>
      <trkpt lat="45.88993" lon="5.65567">
        <ele>552.79998779297</ele>
        <time>2023-05-19T09:55:02.000Z</time>
      </trkpt>
      <trkpt lat="45.88983" lon="5.65547">
        <ele>551.40002441406</ele>
        <time>2023-05-19T09:55:06.000Z</time>
      </trkpt>
      <trkpt lat="45.88981" lon="5.65544">
        <ele>550.79998779297</ele>
        <time>2023-05-19T09:55:07.000Z</time>
      </trkpt>
      <trkpt lat="45.88979" lon="5.65542">
        <ele>550.40002441406</ele>
        <time>2023-05-19T09:55:08.000Z</time>
      </trkpt>
      <trkpt lat="45.88976" lon="5.6554">
        <ele>549</ele>
        <time>2023-05-19T09:55:09.000Z</time>
      </trkpt>
      <trkpt lat="45.88969" lon="5.6554">
        <ele>547.79998779297</ele>
        <time>2023-05-19T09:55:11.000Z</time>
      </trkpt>
      <trkpt lat="45.8896" lon="5.65543">
        <ele>546.59997558594</ele>
        <time>2023-05-19T09:55:13.000Z</time>
      </trkpt>
      <trkpt lat="45.88958" lon="5.65545">
        <ele>545.79998779297</ele>
        <time>2023-05-19T09:55:14.000Z</time>
      </trkpt>
      <trkpt lat="45.88956" lon="5.65547">
        <ele>545</ele>
        <time>2023-05-19T09:55:15.000Z</time>
      </trkpt>
      <trkpt lat="45.88946" lon="5.65553">
        <ele>543.79998779297</ele>
        <time>2023-05-19T09:55:18.000Z</time>
      </trkpt>
      <trkpt lat="45.88937" lon="5.65559">
        <ele>542.40002441406</ele>
        <time>2023-05-19T09:55:20.000Z</time>
      </trkpt>
      <trkpt lat="45.88933" lon="5.65562">
        <ele>542</ele>
        <time>2023-05-19T09:55:21.000Z</time>
      </trkpt>
      <trkpt lat="45.88927" lon="5.65567">
        <ele>540.79998779297</ele>
        <time>2023-05-19T09:55:23.000Z</time>
      </trkpt>
      <trkpt lat="45.88925" lon="5.65567">
        <ele>540.40002441406</ele>
        <time>2023-05-19T09:55:24.000Z</time>
      </trkpt>
      <trkpt lat="45.88923" lon="5.65569">
        <ele>539.20001220703</ele>
        <time>2023-05-19T09:55:25.000Z</time>
      </trkpt>
      <trkpt lat="45.8892" lon="5.65576">
        <ele>538.20001220703</ele>
        <time>2023-05-19T09:55:27.000Z</time>
      </trkpt>
      <trkpt lat="45.88918" lon="5.65582">
        <ele>538</ele>
        <time>2023-05-19T09:55:28.000Z</time>
      </trkpt>
      <trkpt lat="45.88914" lon="5.65598">
        <ele>537.40002441406</ele>
        <time>2023-05-19T09:55:30.000Z</time>
      </trkpt>
      <trkpt lat="45.88913" lon="5.65614">
        <ele>536.79998779297</ele>
        <time>2023-05-19T09:55:32.000Z</time>
      </trkpt>
      <trkpt lat="45.88913" lon="5.65621">
        <ele>536.79998779297</ele>
        <time>2023-05-19T09:55:33.000Z</time>
      </trkpt>
      <trkpt lat="45.88912" lon="5.65626">
        <ele>536</ele>
        <time>2023-05-19T09:55:34.000Z</time>
      </trkpt>
      <trkpt lat="45.88911" lon="5.6563">
        <ele>535.79998779297</ele>
        <time>2023-05-19T09:55:35.000Z</time>
      </trkpt>
      <trkpt lat="45.88909" lon="5.65634">
        <ele>534.79998779297</ele>
        <time>2023-05-19T09:55:36.000Z</time>
      </trkpt>
      <trkpt lat="45.88907" lon="5.65636">
        <ele>534.40002441406</ele>
        <time>2023-05-19T09:55:37.000Z</time>
      </trkpt>
      <trkpt lat="45.88899" lon="5.6565">
        <ele>533</ele>
        <time>2023-05-19T09:55:41.000Z</time>
      </trkpt>
      <trkpt lat="45.889" lon="5.65655">
        <ele>533</ele>
        <time>2023-05-19T09:55:42.000Z</time>
      </trkpt>
      <trkpt lat="45.88911" lon="5.65691">
        <ele>532.40002441406</ele>
        <time>2023-05-19T09:55:46.000Z</time>
      </trkpt>
      <trkpt lat="45.88914" lon="5.65704">
        <ele>532</ele>
        <time>2023-05-19T09:55:47.000Z</time>
      </trkpt>
      <trkpt lat="45.88919" lon="5.65728">
        <ele>530.79998779297</ele>
        <time>2023-05-19T09:55:49.000Z</time>
      </trkpt>
      <trkpt lat="45.88923" lon="5.65739">
        <ele>530</ele>
        <time>2023-05-19T09:55:50.000Z</time>
      </trkpt>
      <trkpt lat="45.88926" lon="5.65749">
        <ele>528.79998779297</ele>
        <time>2023-05-19T09:55:51.000Z</time>
      </trkpt>
      <trkpt lat="45.88929" lon="5.65759">
        <ele>528.40002441406</ele>
        <time>2023-05-19T09:55:52.000Z</time>
      </trkpt>
      <trkpt lat="45.88931" lon="5.65769">
        <ele>527.40002441406</ele>
        <time>2023-05-19T09:55:53.000Z</time>
      </trkpt>
      <trkpt lat="45.88933" lon="5.6578">
        <ele>526.79998779297</ele>
        <time>2023-05-19T09:55:54.000Z</time>
      </trkpt>
      <trkpt lat="45.88934" lon="5.6579">
        <ele>525.59997558594</ele>
        <time>2023-05-19T09:55:55.000Z</time>
      </trkpt>
      <trkpt lat="45.88935" lon="5.658">
        <ele>525</ele>
        <time>2023-05-19T09:55:56.000Z</time>
      </trkpt>
      <trkpt lat="45.88936" lon="5.65811">
        <ele>523.59997558594</ele>
        <time>2023-05-19T09:55:57.000Z</time>
      </trkpt>
      <trkpt lat="45.88934" lon="5.65834">
        <ele>522</ele>
        <time>2023-05-19T09:55:59.000Z</time>
      </trkpt>
      <trkpt lat="45.88932" lon="5.65846">
        <ele>520.79998779297</ele>
        <time>2023-05-19T09:56:00.000Z</time>
      </trkpt>
      <trkpt lat="45.88929" lon="5.65872">
        <ele>518.59997558594</ele>
        <time>2023-05-19T09:56:02.000Z</time>
      </trkpt>
      <trkpt lat="45.88926" lon="5.65883">
        <ele>517.79998779297</ele>
        <time>2023-05-19T09:56:03.000Z</time>
      </trkpt>
      <trkpt lat="45.88922" lon="5.65893">
        <ele>516.59997558594</ele>
        <time>2023-05-19T09:56:04.000Z</time>
      </trkpt>
      <trkpt lat="45.88914" lon="5.65909">
        <ele>515.20001220703</ele>
        <time>2023-05-19T09:56:06.000Z</time>
      </trkpt>
      <trkpt lat="45.88912" lon="5.65914">
        <ele>513.79998779297</ele>
        <time>2023-05-19T09:56:07.000Z</time>
      </trkpt>
      <trkpt lat="45.8891" lon="5.65919">
        <ele>513.20001220703</ele>
        <time>2023-05-19T09:56:08.000Z</time>
      </trkpt>
      <trkpt lat="45.88908" lon="5.65925">
        <ele>511.60000610352</ele>
        <time>2023-05-19T09:56:09.000Z</time>
      </trkpt>
      <trkpt lat="45.88907" lon="5.65931">
        <ele>510.79998779297</ele>
        <time>2023-05-19T09:56:10.000Z</time>
      </trkpt>
      <trkpt lat="45.88907" lon="5.65937">
        <ele>509.20001220703</ele>
        <time>2023-05-19T09:56:11.000Z</time>
      </trkpt>
      <trkpt lat="45.88908" lon="5.65942">
        <ele>508.60000610352</ele>
        <time>2023-05-19T09:56:12.000Z</time>
      </trkpt>
      <trkpt lat="45.8891" lon="5.65946">
        <ele>507</ele>
        <time>2023-05-19T09:56:13.000Z</time>
      </trkpt>
      <trkpt lat="45.8891" lon="5.65948">
        <ele>505.79998779297</ele>
        <time>2023-05-19T09:56:14.000Z</time>
      </trkpt>
      <trkpt lat="45.8891" lon="5.65949">
        <ele>504.20001220703</ele>
        <time>2023-05-19T09:56:16.000Z</time>
      </trkpt>
      <trkpt lat="45.8891" lon="5.65949">
        <ele>503.60000610352</ele>
        <time>2023-05-19T09:56:17.000Z</time>
      </trkpt>
      <trkpt lat="45.88913" lon="5.65956">
        <ele>500.79998779297</ele>
        <time>2023-05-19T09:56:32.000Z</time>
      </trkpt>
      <trkpt lat="45.88916" lon="5.65966">
        <ele>500.60000610352</ele>
        <time>2023-05-19T09:56:34.000Z</time>
      </trkpt>
      <trkpt lat="45.88924" lon="5.65992">
        <ele>500.20001220703</ele>
        <time>2023-05-19T09:56:38.000Z</time>
      </trkpt>
      <trkpt lat="45.88927" lon="5.65999">
        <ele>499.79998779297</ele>
        <time>2023-05-19T09:56:39.000Z</time>
      </trkpt>
      <trkpt lat="45.88938" lon="5.66025">
        <ele>499.39999389648</ele>
        <time>2023-05-19T09:56:42.000Z</time>
      </trkpt>
      <trkpt lat="45.88943" lon="5.66044">
        <ele>498.60000610352</ele>
        <time>2023-05-19T09:56:44.000Z</time>
      </trkpt>
      <trkpt lat="45.88944" lon="5.66054">
        <ele>498.20001220703</ele>
        <time>2023-05-19T09:56:45.000Z</time>
      </trkpt>
      <trkpt lat="45.88948" lon="5.66074">
        <ele>497.79998779297</ele>
        <time>2023-05-19T09:56:47.000Z</time>
      </trkpt>
      <trkpt lat="45.88951" lon="5.66083">
        <ele>497.20001220703</ele>
        <time>2023-05-19T09:56:48.000Z</time>
      </trkpt>
      <trkpt lat="45.88955" lon="5.66092">
        <ele>496.79998779297</ele>
        <time>2023-05-19T09:56:49.000Z</time>
      </trkpt>
      <trkpt lat="45.88958" lon="5.66101">
        <ele>496</ele>
        <time>2023-05-19T09:56:50.000Z</time>
      </trkpt>
      <trkpt lat="45.88962" lon="5.6611">
        <ele>495</ele>
        <time>2023-05-19T09:56:51.000Z</time>
      </trkpt>
      <trkpt lat="45.88966" lon="5.6613">
        <ele>493</ele>
        <time>2023-05-19T09:56:53.000Z</time>
      </trkpt>
      <trkpt lat="45.88965" lon="5.66149">
        <ele>491</ele>
        <time>2023-05-19T09:56:55.000Z</time>
      </trkpt>
      <trkpt lat="45.88965" lon="5.66158">
        <ele>489.60000610352</ele>
        <time>2023-05-19T09:56:56.000Z</time>
      </trkpt>
      <trkpt lat="45.88965" lon="5.66164">
        <ele>489</ele>
        <time>2023-05-19T09:56:57.000Z</time>
      </trkpt>
      <trkpt lat="45.88965" lon="5.66168">
        <ele>488.39999389648</ele>
        <time>2023-05-19T09:56:58.000Z</time>
      </trkpt>
      <trkpt lat="45.88964" lon="5.66171">
        <ele>487</ele>
        <time>2023-05-19T09:57:00.000Z</time>
      </trkpt>
      <trkpt lat="45.88963" lon="5.66175">
        <ele>485.39999389648</ele>
        <time>2023-05-19T09:57:02.000Z</time>
      </trkpt>
      <trkpt lat="45.88963" lon="5.66184">
        <ele>484.39999389648</ele>
        <time>2023-05-19T09:57:04.000Z</time>
      </trkpt>
      <trkpt lat="45.88963" lon="5.66189">
        <ele>483.79998779297</ele>
        <time>2023-05-19T09:57:05.000Z</time>
      </trkpt>
      <trkpt lat="45.88961" lon="5.6621">
        <ele>483.60000610352</ele>
        <time>2023-05-19T09:57:10.000Z</time>
      </trkpt>
      <trkpt lat="45.8896" lon="5.66229">
        <ele>484.60000610352</ele>
        <time>2023-05-19T09:57:15.000Z</time>
      </trkpt>
      <trkpt lat="45.88961" lon="5.66233">
        <ele>484.79998779297</ele>
        <time>2023-05-19T09:57:16.000Z</time>
      </trkpt>
      <trkpt lat="45.88969" lon="5.66247">
        <ele>485.79998779297</ele>
        <time>2023-05-19T09:57:21.000Z</time>
      </trkpt>
      <trkpt lat="45.88974" lon="5.66255">
        <ele>486.60000610352</ele>
        <time>2023-05-19T09:57:24.000Z</time>
      </trkpt>
      <trkpt lat="45.88979" lon="5.6626">
        <ele>486.79998779297</ele>
        <time>2023-05-19T09:57:26.000Z</time>
      </trkpt>
      <trkpt lat="45.88989" lon="5.6627">
        <ele>487.60000610352</ele>
        <time>2023-05-19T09:57:31.000Z</time>
      </trkpt>
      <trkpt lat="45.88992" lon="5.66274">
        <ele>487.79998779297</ele>
        <time>2023-05-19T09:57:33.000Z</time>
      </trkpt>
      <trkpt lat="45.88996" lon="5.66278">
        <ele>488</ele>
        <time>2023-05-19T09:57:35.000Z</time>
      </trkpt>
      <trkpt lat="45.89006" lon="5.66289">
        <ele>488.39999389648</ele>
        <time>2023-05-19T09:57:40.000Z</time>
      </trkpt>
      <trkpt lat="45.89018" lon="5.66303">
        <ele>489</ele>
        <time>2023-05-19T09:57:46.000Z</time>
      </trkpt>
      <trkpt lat="45.89023" lon="5.66311">
        <ele>489.20001220703</ele>
        <time>2023-05-19T09:57:49.000Z</time>
      </trkpt>
      <trkpt lat="45.89031" lon="5.66322">
        <ele>490.20001220703</ele>
        <time>2023-05-19T09:57:54.000Z</time>
      </trkpt>
      <trkpt lat="45.89034" lon="5.66327">
        <ele>490.79998779297</ele>
        <time>2023-05-19T09:57:56.000Z</time>
      </trkpt>
      <trkpt lat="45.89045" lon="5.6634">
        <ele>491.39999389648</ele>
        <time>2023-05-19T09:58:02.000Z</time>
      </trkpt>
      <trkpt lat="45.89047" lon="5.66342">
        <ele>491.60000610352</ele>
        <time>2023-05-19T09:58:03.000Z</time>
      </trkpt>
      <trkpt lat="45.89063" lon="5.66364">
        <ele>492.39999389648</ele>
        <time>2023-05-19T09:58:13.000Z</time>
      </trkpt>
      <trkpt lat="45.89069" lon="5.66374">
        <ele>493.39999389648</ele>
        <time>2023-05-19T09:58:17.000Z</time>
      </trkpt>
      <trkpt lat="45.89071" lon="5.66376">
        <ele>493.60000610352</ele>
        <time>2023-05-19T09:58:18.000Z</time>
      </trkpt>
      <trkpt lat="45.89072" lon="5.66379">
        <ele>493.60000610352</ele>
        <time>2023-05-19T09:58:19.000Z</time>
      </trkpt>
      <trkpt lat="45.89077" lon="5.66394">
        <ele>494.39999389648</ele>
        <time>2023-05-19T09:58:24.000Z</time>
      </trkpt>
      <trkpt lat="45.8908" lon="5.66403">
        <ele>494.79998779297</ele>
        <time>2023-05-19T09:58:27.000Z</time>
      </trkpt>
      <trkpt lat="45.89084" lon="5.6642">
        <ele>495.60000610352</ele>
        <time>2023-05-19T09:58:32.000Z</time>
      </trkpt>
      <trkpt lat="45.89084" lon="5.66421">
        <ele>496</ele>
        <time>2023-05-19T09:58:33.000Z</time>
      </trkpt>
      <trkpt lat="45.89083" lon="5.66422">
        <ele>496.39999389648</ele>
        <time>2023-05-19T09:58:35.000Z</time>
      </trkpt>
      <trkpt lat="45.89084" lon="5.66422">
        <ele>496.39999389648</ele>
        <time>2023-05-19T09:58:36.000Z</time>
      </trkpt>
      <trkpt lat="45.89086" lon="5.66429">
        <ele>496.60000610352</ele>
        <time>2023-05-19T09:58:39.000Z</time>
      </trkpt>
      <trkpt lat="45.89088" lon="5.66439">
        <ele>496.60000610352</ele>
        <time>2023-05-19T09:58:41.000Z</time>
      </trkpt>
      <trkpt lat="45.89089" lon="5.66451">
        <ele>496.60000610352</ele>
        <time>2023-05-19T09:58:43.000Z</time>
      </trkpt>
      <trkpt lat="45.89092" lon="5.6647">
        <ele>495.79998779297</ele>
        <time>2023-05-19T09:58:46.000Z</time>
      </trkpt>
      <trkpt lat="45.89092" lon="5.66487">
        <ele>494.60000610352</ele>
        <time>2023-05-19T09:58:49.000Z</time>
      </trkpt>
      <trkpt lat="45.89092" lon="5.66507">
        <ele>493.60000610352</ele>
        <time>2023-05-19T09:58:52.000Z</time>
      </trkpt>
      <trkpt lat="45.89094" lon="5.66527">
        <ele>492.39999389648</ele>
        <time>2023-05-19T09:58:55.000Z</time>
      </trkpt>
      <trkpt lat="45.89094" lon="5.66535">
        <ele>492</ele>
        <time>2023-05-19T09:58:56.000Z</time>
      </trkpt>
      <trkpt lat="45.89095" lon="5.66544">
        <ele>491.20001220703</ele>
        <time>2023-05-19T09:58:57.000Z</time>
      </trkpt>
      <trkpt lat="45.89095" lon="5.66552">
        <ele>490.20001220703</ele>
        <time>2023-05-19T09:58:58.000Z</time>
      </trkpt>
      <trkpt lat="45.89095" lon="5.6656">
        <ele>489</ele>
        <time>2023-05-19T09:58:59.000Z</time>
      </trkpt>
      <trkpt lat="45.89094" lon="5.66573">
        <ele>487</ele>
        <time>2023-05-19T09:59:01.000Z</time>
      </trkpt>
      <trkpt lat="45.89089" lon="5.66599">
        <ele>485.79998779297</ele>
        <time>2023-05-19T09:59:04.000Z</time>
      </trkpt>
      <trkpt lat="45.89088" lon="5.66605">
        <ele>484.79998779297</ele>
        <time>2023-05-19T09:59:05.000Z</time>
      </trkpt>
      <trkpt lat="45.89087" lon="5.66611">
        <ele>484.39999389648</ele>
        <time>2023-05-19T09:59:06.000Z</time>
      </trkpt>
      <trkpt lat="45.89086" lon="5.66616">
        <ele>484</ele>
        <time>2023-05-19T09:59:07.000Z</time>
      </trkpt>
      <trkpt lat="45.89084" lon="5.66619">
        <ele>483.39999389648</ele>
        <time>2023-05-19T09:59:08.000Z</time>
      </trkpt>
      <trkpt lat="45.89081" lon="5.66628">
        <ele>482</ele>
        <time>2023-05-19T09:59:10.000Z</time>
      </trkpt>
      <trkpt lat="45.8908" lon="5.66633">
        <ele>481.60000610352</ele>
        <time>2023-05-19T09:59:11.000Z</time>
      </trkpt>
      <trkpt lat="45.89078" lon="5.66642">
        <ele>480.60000610352</ele>
        <time>2023-05-19T09:59:13.000Z</time>
      </trkpt>
      <trkpt lat="45.8907" lon="5.66658">
        <ele>479.60000610352</ele>
        <time>2023-05-19T09:59:16.000Z</time>
      </trkpt>
      <trkpt lat="45.89065" lon="5.66672">
        <ele>478.39999389648</ele>
        <time>2023-05-19T09:59:18.000Z</time>
      </trkpt>
      <trkpt lat="45.8906" lon="5.66687">
        <ele>477.20001220703</ele>
        <time>2023-05-19T09:59:20.000Z</time>
      </trkpt>
      <trkpt lat="45.89057" lon="5.66695">
        <ele>476.79998779297</ele>
        <time>2023-05-19T09:59:21.000Z</time>
      </trkpt>
      <trkpt lat="45.8905" lon="5.66707">
        <ele>475.60000610352</ele>
        <time>2023-05-19T09:59:23.000Z</time>
      </trkpt>
      <trkpt lat="45.89046" lon="5.66715">
        <ele>474.79998779297</ele>
        <time>2023-05-19T09:59:24.000Z</time>
      </trkpt>
      <trkpt lat="45.89042" lon="5.66722">
        <ele>474.39999389648</ele>
        <time>2023-05-19T09:59:25.000Z</time>
      </trkpt>
      <trkpt lat="45.89037" lon="5.66731">
        <ele>472.60000610352</ele>
        <time>2023-05-19T09:59:27.000Z</time>
      </trkpt>
      <trkpt lat="45.89032" lon="5.66743">
        <ele>471</ele>
        <time>2023-05-19T09:59:29.000Z</time>
      </trkpt>
      <trkpt lat="45.89025" lon="5.66756">
        <ele>469.79998779297</ele>
        <time>2023-05-19T09:59:32.000Z</time>
      </trkpt>
      <trkpt lat="45.89018" lon="5.66766">
        <ele>468.39999389648</ele>
        <time>2023-05-19T09:59:34.000Z</time>
      </trkpt>
      <trkpt lat="45.89014" lon="5.66773">
        <ele>467.39999389648</ele>
        <time>2023-05-19T09:59:36.000Z</time>
      </trkpt>
      <trkpt lat="45.89012" lon="5.66775">
        <ele>467</ele>
        <time>2023-05-19T09:59:37.000Z</time>
      </trkpt>
      <trkpt lat="45.8901" lon="5.66778">
        <ele>465.79998779297</ele>
        <time>2023-05-19T09:59:38.000Z</time>
      </trkpt>
      <trkpt lat="45.89002" lon="5.66787">
        <ele>464.39999389648</ele>
        <time>2023-05-19T09:59:40.000Z</time>
      </trkpt>
      <trkpt lat="45.88997" lon="5.66792">
        <ele>463.39999389648</ele>
        <time>2023-05-19T09:59:42.000Z</time>
      </trkpt>
      <trkpt lat="45.88995" lon="5.66797">
        <ele>462</ele>
        <time>2023-05-19T09:59:43.000Z</time>
      </trkpt>
      <trkpt lat="45.88992" lon="5.66803">
        <ele>460.20001220703</ele>
        <time>2023-05-19T09:59:45.000Z</time>
      </trkpt>
      <trkpt lat="45.88989" lon="5.66809">
        <ele>459</ele>
        <time>2023-05-19T09:59:47.000Z</time>
      </trkpt>
      <trkpt lat="45.88985" lon="5.66818">
        <ele>458.60000610352</ele>
        <time>2023-05-19T09:59:48.000Z</time>
      </trkpt>
      <trkpt lat="45.88985" lon="5.66818">
        <ele>457.79998779297</ele>
        <time>2023-05-19T09:59:49.000Z</time>
      </trkpt>
      <trkpt lat="45.88985" lon="5.66818">
        <ele>457</ele>
        <time>2023-05-19T09:59:51.000Z</time>
      </trkpt>
      <trkpt lat="45.88976" lon="5.6683">
        <ele>454.79998779297</ele>
        <time>2023-05-19T10:00:08.000Z</time>
      </trkpt>
      <trkpt lat="45.88976" lon="5.6683">
        <ele>454.39999389648</ele>
        <time>2023-05-19T10:00:09.000Z</time>
      </trkpt>
      <trkpt lat="45.88974" lon="5.66833">
        <ele>453.60000610352</ele>
        <time>2023-05-19T10:00:11.000Z</time>
      </trkpt>
      <trkpt lat="45.88973" lon="5.66835">
        <ele>452.39999389648</ele>
        <time>2023-05-19T10:00:14.000Z</time>
      </trkpt>
      <trkpt lat="45.88972" lon="5.66842">
        <ele>451.60000610352</ele>
        <time>2023-05-19T10:00:17.000Z</time>
      </trkpt>
      <trkpt lat="45.88972" lon="5.66845">
        <ele>451.60000610352</ele>
        <time>2023-05-19T10:00:18.000Z</time>
      </trkpt>
      <trkpt lat="45.88966" lon="5.66857">
        <ele>451.20001220703</ele>
        <time>2023-05-19T10:00:22.000Z</time>
      </trkpt>
      <trkpt lat="45.88964" lon="5.66861">
        <ele>450.79998779297</ele>
        <time>2023-05-19T10:00:23.000Z</time>
      </trkpt>
      <trkpt lat="45.8896" lon="5.6687">
        <ele>450.20001220703</ele>
        <time>2023-05-19T10:00:26.000Z</time>
      </trkpt>
      <trkpt lat="45.88953" lon="5.66884">
        <ele>449.20001220703</ele>
        <time>2023-05-19T10:00:29.000Z</time>
      </trkpt>
      <trkpt lat="45.88952" lon="5.66889">
        <ele>448.60000610352</ele>
        <time>2023-05-19T10:00:30.000Z</time>
      </trkpt>
      <trkpt lat="45.88948" lon="5.66898">
        <ele>448</ele>
        <time>2023-05-19T10:00:32.000Z</time>
      </trkpt>
      <trkpt lat="45.88937" lon="5.66912">
        <ele>446.60000610352</ele>
        <time>2023-05-19T10:00:35.000Z</time>
      </trkpt>
      <trkpt lat="45.88932" lon="5.66917">
        <ele>445.60000610352</ele>
        <time>2023-05-19T10:00:37.000Z</time>
      </trkpt>
      <trkpt lat="45.88931" lon="5.66918">
        <ele>445.20001220703</ele>
        <time>2023-05-19T10:00:38.000Z</time>
      </trkpt>
      <trkpt lat="45.88933" lon="5.66923">
        <ele>444.79998779297</ele>
        <time>2023-05-19T10:00:40.000Z</time>
      </trkpt>
      <trkpt lat="45.88935" lon="5.66924">
        <ele>444.39999389648</ele>
        <time>2023-05-19T10:00:41.000Z</time>
      </trkpt>
      <trkpt lat="45.88943" lon="5.66923">
        <ele>444</ele>
        <time>2023-05-19T10:00:44.000Z</time>
      </trkpt>
      <trkpt lat="45.88955" lon="5.66918">
        <ele>443.20001220703</ele>
        <time>2023-05-19T10:00:47.000Z</time>
      </trkpt>
      <trkpt lat="45.88963" lon="5.66915">
        <ele>442.20001220703</ele>
        <time>2023-05-19T10:00:49.000Z</time>
      </trkpt>
      <trkpt lat="45.88972" lon="5.66918">
        <ele>440.79998779297</ele>
        <time>2023-05-19T10:00:51.000Z</time>
      </trkpt>
      <trkpt lat="45.88987" lon="5.66926">
        <ele>439.79998779297</ele>
        <time>2023-05-19T10:00:54.000Z</time>
      </trkpt>
      <trkpt lat="45.88993" lon="5.66926">
        <ele>439.39999389648</ele>
        <time>2023-05-19T10:00:55.000Z</time>
      </trkpt>
      <trkpt lat="45.89003" lon="5.66928">
        <ele>438.39999389648</ele>
        <time>2023-05-19T10:00:57.000Z</time>
      </trkpt>
      <trkpt lat="45.89006" lon="5.66931">
        <ele>437.60000610352</ele>
        <time>2023-05-19T10:00:58.000Z</time>
      </trkpt>
      <trkpt lat="45.89008" lon="5.66936">
        <ele>436.20001220703</ele>
        <time>2023-05-19T10:00:59.000Z</time>
      </trkpt>
      <trkpt lat="45.89009" lon="5.66944">
        <ele>435.20001220703</ele>
        <time>2023-05-19T10:01:00.000Z</time>
      </trkpt>
      <trkpt lat="45.89009" lon="5.66951">
        <ele>434.60000610352</ele>
        <time>2023-05-19T10:01:01.000Z</time>
      </trkpt>
      <trkpt lat="45.89009" lon="5.66958">
        <ele>433.79998779297</ele>
        <time>2023-05-19T10:01:02.000Z</time>
      </trkpt>
      <trkpt lat="45.89007" lon="5.66976">
        <ele>432.39999389648</ele>
        <time>2023-05-19T10:01:04.000Z</time>
      </trkpt>
      <trkpt lat="45.89006" lon="5.66985">
        <ele>432.20001220703</ele>
        <time>2023-05-19T10:01:05.000Z</time>
      </trkpt>
      <trkpt lat="45.89005" lon="5.66991">
        <ele>431.20001220703</ele>
        <time>2023-05-19T10:01:06.000Z</time>
      </trkpt>
      <trkpt lat="45.89003" lon="5.67">
        <ele>429.79998779297</ele>
        <time>2023-05-19T10:01:08.000Z</time>
      </trkpt>
      <trkpt lat="45.89003" lon="5.67012">
        <ele>429</ele>
        <time>2023-05-19T10:01:10.000Z</time>
      </trkpt>
      <trkpt lat="45.89004" lon="5.67017">
        <ele>428.20001220703</ele>
        <time>2023-05-19T10:01:11.000Z</time>
      </trkpt>
      <trkpt lat="45.89004" lon="5.67025">
        <ele>427</ele>
        <time>2023-05-19T10:01:13.000Z</time>
      </trkpt>
      <trkpt lat="45.89005" lon="5.67033">
        <ele>425.60000610352</ele>
        <time>2023-05-19T10:01:15.000Z</time>
      </trkpt>
      <trkpt lat="45.89007" lon="5.67041">
        <ele>424.39999389648</ele>
        <time>2023-05-19T10:01:17.000Z</time>
      </trkpt>
      <trkpt lat="45.89013" lon="5.67046">
        <ele>423.39999389648</ele>
        <time>2023-05-19T10:01:19.000Z</time>
      </trkpt>
      <trkpt lat="45.89021" lon="5.67049">
        <ele>421.79998779297</ele>
        <time>2023-05-19T10:01:21.000Z</time>
      </trkpt>
      <trkpt lat="45.89033" lon="5.67054">
        <ele>421.20001220703</ele>
        <time>2023-05-19T10:01:23.000Z</time>
      </trkpt>
      <trkpt lat="45.89047" lon="5.67059">
        <ele>420.20001220703</ele>
        <time>2023-05-19T10:01:25.000Z</time>
      </trkpt>
      <trkpt lat="45.89068" lon="5.67066">
        <ele>418.60000610352</ele>
        <time>2023-05-19T10:01:28.000Z</time>
      </trkpt>
      <trkpt lat="45.89088" lon="5.67068">
        <ele>417.60000610352</ele>
        <time>2023-05-19T10:01:31.000Z</time>
      </trkpt>
      <trkpt lat="45.89093" lon="5.67067">
        <ele>417.39999389648</ele>
        <time>2023-05-19T10:01:32.000Z</time>
      </trkpt>
      <trkpt lat="45.89101" lon="5.67064">
        <ele>417.20001220703</ele>
        <time>2023-05-19T10:01:33.000Z</time>
      </trkpt>
      <trkpt lat="45.89117" lon="5.67053">
        <ele>416.79998779297</ele>
        <time>2023-05-19T10:01:36.000Z</time>
      </trkpt>
      <trkpt lat="45.89124" lon="5.67044">
        <ele>416.60000610352</ele>
        <time>2023-05-19T10:01:38.000Z</time>
      </trkpt>
      <trkpt lat="45.89133" lon="5.67034">
        <ele>416.39999389648</ele>
        <time>2023-05-19T10:01:40.000Z</time>
      </trkpt>
      <trkpt lat="45.8914" lon="5.67028">
        <ele>416.20001220703</ele>
        <time>2023-05-19T10:01:42.000Z</time>
      </trkpt>
      <trkpt lat="45.89142" lon="5.67027">
        <ele>416.20001220703</ele>
        <time>2023-05-19T10:01:43.000Z</time>
      </trkpt>
      <trkpt lat="45.89143" lon="5.67027">
        <ele>416</ele>
        <time>2023-05-19T10:01:44.000Z</time>
      </trkpt>
      <trkpt lat="45.89145" lon="5.67025">
        <ele>416</ele>
        <time>2023-05-19T10:01:46.000Z</time>
      </trkpt>
      <trkpt lat="45.89146" lon="5.67024">
        <ele>416</ele>
        <time>2023-05-19T10:01:47.000Z</time>
      </trkpt>
      <trkpt lat="45.8914" lon="5.67025">
        <ele>415.79998779297</ele>
        <time>2023-05-19T10:01:51.000Z</time>
      </trkpt>
      <trkpt lat="45.89139" lon="5.67027">
        <ele>415.79998779297</ele>
        <time>2023-05-19T10:01:52.000Z</time>
      </trkpt>
      <trkpt lat="45.89143" lon="5.67035">
        <ele>415.79998779297</ele>
        <time>2023-05-19T10:01:55.000Z</time>
      </trkpt>
      <trkpt lat="45.89151" lon="5.67045">
        <ele>415.60000610352</ele>
        <time>2023-05-19T10:01:59.000Z</time>
      </trkpt>
      <trkpt lat="45.89156" lon="5.67054">
        <ele>415</ele>
        <time>2023-05-19T10:02:03.000Z</time>
      </trkpt>
      <trkpt lat="45.89158" lon="5.67057">
        <ele>415</ele>
        <time>2023-05-19T10:02:04.000Z</time>
      </trkpt>
      <trkpt lat="45.8916" lon="5.67058">
        <ele>414.60000610352</ele>
        <time>2023-05-19T10:02:08.000Z</time>
      </trkpt>
      <trkpt lat="45.89238" lon="5.67197">
        <ele>457.60000610352</ele>
        <time>2023-05-19T10:16:30.000Z</time>
      </trkpt>
      <trkpt lat="45.8924" lon="5.67201">
        <ele>458.60000610352</ele>
        <time>2023-05-19T10:16:31.000Z</time>
      </trkpt>
      <trkpt lat="45.89242" lon="5.67205">
        <ele>459</ele>
        <time>2023-05-19T10:16:32.000Z</time>
      </trkpt>
      <trkpt lat="45.89243" lon="5.67207">
        <ele>459.60000610352</ele>
        <time>2023-05-19T10:16:33.000Z</time>
      </trkpt>
      <trkpt lat="45.89243" lon="5.67208">
        <ele>460.39999389648</ele>
        <time>2023-05-19T10:16:35.000Z</time>
      </trkpt>
      <trkpt lat="45.89243" lon="5.67208">
        <ele>460.79998779297</ele>
        <time>2023-05-19T10:16:36.000Z</time>
      </trkpt>
      <trkpt lat="45.8925" lon="5.67208">
        <ele>461.39999389648</ele>
        <time>2023-05-19T10:16:59.000Z</time>
      </trkpt>
      <trkpt lat="45.89257" lon="5.6721">
        <ele>461.60000610352</ele>
        <time>2023-05-19T10:17:02.000Z</time>
      </trkpt>
      <trkpt lat="45.89259" lon="5.67211">
        <ele>461.60000610352</ele>
        <time>2023-05-19T10:17:03.000Z</time>
      </trkpt>
      <trkpt lat="45.89269" lon="5.6722">
        <ele>462.20001220703</ele>
        <time>2023-05-19T10:17:08.000Z</time>
      </trkpt>
      <trkpt lat="45.89276" lon="5.67232">
        <ele>463</ele>
        <time>2023-05-19T10:17:13.000Z</time>
      </trkpt>
      <trkpt lat="45.89278" lon="5.67237">
        <ele>463.60000610352</ele>
        <time>2023-05-19T10:17:15.000Z</time>
      </trkpt>
      <trkpt lat="45.8928" lon="5.67244">
        <ele>464.20001220703</ele>
        <time>2023-05-19T10:17:17.000Z</time>
      </trkpt>
      <trkpt lat="45.8928" lon="5.67247">
        <ele>464.39999389648</ele>
        <time>2023-05-19T10:17:18.000Z</time>
      </trkpt>
      <trkpt lat="45.89283" lon="5.67264">
        <ele>465.20001220703</ele>
        <time>2023-05-19T10:17:23.000Z</time>
      </trkpt>
      <trkpt lat="45.89287" lon="5.67278">
        <ele>466</ele>
        <time>2023-05-19T10:17:28.000Z</time>
      </trkpt>
      <trkpt lat="45.89287" lon="5.67281">
        <ele>466.20001220703</ele>
        <time>2023-05-19T10:17:29.000Z</time>
      </trkpt>
      <trkpt lat="45.89296" lon="5.67297">
        <ele>467.20001220703</ele>
        <time>2023-05-19T10:17:35.000Z</time>
      </trkpt>
      <trkpt lat="45.89297" lon="5.673">
        <ele>467.39999389648</ele>
        <time>2023-05-19T10:17:36.000Z</time>
      </trkpt>
      <trkpt lat="45.89312" lon="5.67323">
        <ele>468.39999389648</ele>
        <time>2023-05-19T10:17:45.000Z</time>
      </trkpt>
      <trkpt lat="45.89326" lon="5.67341">
        <ele>469.39999389648</ele>
        <time>2023-05-19T10:17:52.000Z</time>
      </trkpt>
      <trkpt lat="45.89332" lon="5.67348">
        <ele>470.20001220703</ele>
        <time>2023-05-19T10:17:55.000Z</time>
      </trkpt>
      <trkpt lat="45.89345" lon="5.67371">
        <ele>470.39999389648</ele>
        <time>2023-05-19T10:18:01.000Z</time>
      </trkpt>
      <trkpt lat="45.8935" lon="5.6738">
        <ele>470.20001220703</ele>
        <time>2023-05-19T10:18:04.000Z</time>
      </trkpt>
      <trkpt lat="45.89358" lon="5.67394">
        <ele>469.79998779297</ele>
        <time>2023-05-19T10:18:07.000Z</time>
      </trkpt>
      <trkpt lat="45.89374" lon="5.67415">
        <ele>469.39999389648</ele>
        <time>2023-05-19T10:18:11.000Z</time>
      </trkpt>
      <trkpt lat="45.89379" lon="5.67419">
        <ele>469.20001220703</ele>
        <time>2023-05-19T10:18:12.000Z</time>
      </trkpt>
      <trkpt lat="45.89385" lon="5.67423">
        <ele>469</ele>
        <time>2023-05-19T10:18:13.000Z</time>
      </trkpt>
      <trkpt lat="45.89395" lon="5.67431">
        <ele>467.60000610352</ele>
        <time>2023-05-19T10:18:15.000Z</time>
      </trkpt>
      <trkpt lat="45.89399" lon="5.67436">
        <ele>467</ele>
        <time>2023-05-19T10:18:16.000Z</time>
      </trkpt>
      <trkpt lat="45.894" lon="5.67442">
        <ele>466.60000610352</ele>
        <time>2023-05-19T10:18:17.000Z</time>
      </trkpt>
      <trkpt lat="45.89399" lon="5.67448">
        <ele>466.39999389648</ele>
        <time>2023-05-19T10:18:18.000Z</time>
      </trkpt>
      <trkpt lat="45.89396" lon="5.67454">
        <ele>466.20001220703</ele>
        <time>2023-05-19T10:18:19.000Z</time>
      </trkpt>
      <trkpt lat="45.89385" lon="5.67473">
        <ele>465.60000610352</ele>
        <time>2023-05-19T10:18:22.000Z</time>
      </trkpt>
      <trkpt lat="45.89381" lon="5.6748">
        <ele>465.20001220703</ele>
        <time>2023-05-19T10:18:23.000Z</time>
      </trkpt>
      <trkpt lat="45.89363" lon="5.67515">
        <ele>464.39999389648</ele>
        <time>2023-05-19T10:18:28.000Z</time>
      </trkpt>
      <trkpt lat="45.8936" lon="5.67524">
        <ele>463.79998779297</ele>
        <time>2023-05-19T10:18:29.000Z</time>
      </trkpt>
      <trkpt lat="45.89354" lon="5.67541">
        <ele>463</ele>
        <time>2023-05-19T10:18:32.000Z</time>
      </trkpt>
      <trkpt lat="45.89351" lon="5.67544">
        <ele>462.79998779297</ele>
        <time>2023-05-19T10:18:33.000Z</time>
      </trkpt>
      <trkpt lat="45.8935" lon="5.67548">
        <ele>462.39999389648</ele>
        <time>2023-05-19T10:18:34.000Z</time>
      </trkpt>
      <trkpt lat="45.89352" lon="5.67556">
        <ele>461.60000610352</ele>
        <time>2023-05-19T10:18:36.000Z</time>
      </trkpt>
      <trkpt lat="45.89371" lon="5.67568">
        <ele>460.79998779297</ele>
        <time>2023-05-19T10:18:42.000Z</time>
      </trkpt>
      <trkpt lat="45.89384" lon="5.67565">
        <ele>460.79998779297</ele>
        <time>2023-05-19T10:18:46.000Z</time>
      </trkpt>
      <trkpt lat="45.89407" lon="5.67557">
        <ele>462.39999389648</ele>
        <time>2023-05-19T10:18:54.000Z</time>
      </trkpt>
      <trkpt lat="45.89414" lon="5.67553">
        <ele>463</ele>
        <time>2023-05-19T10:18:57.000Z</time>
      </trkpt>
      <trkpt lat="45.89421" lon="5.67549">
        <ele>464</ele>
        <time>2023-05-19T10:19:00.000Z</time>
      </trkpt>
      <trkpt lat="45.89423" lon="5.67548">
        <ele>464</ele>
        <time>2023-05-19T10:19:01.000Z</time>
      </trkpt>
      <trkpt lat="45.89426" lon="5.67548">
        <ele>464.20001220703</ele>
        <time>2023-05-19T10:19:02.000Z</time>
      </trkpt>
      <trkpt lat="45.89438" lon="5.67546">
        <ele>465.39999389648</ele>
        <time>2023-05-19T10:19:07.000Z</time>
      </trkpt>
      <trkpt lat="45.89443" lon="5.67546">
        <ele>465.60000610352</ele>
        <time>2023-05-19T10:19:09.000Z</time>
      </trkpt>
      <trkpt lat="45.89453" lon="5.67544">
        <ele>466.60000610352</ele>
        <time>2023-05-19T10:19:14.000Z</time>
      </trkpt>
      <trkpt lat="45.89464" lon="5.67542">
        <ele>467.20001220703</ele>
        <time>2023-05-19T10:19:19.000Z</time>
      </trkpt>
      <trkpt lat="45.89471" lon="5.67541">
        <ele>467.60000610352</ele>
        <time>2023-05-19T10:19:23.000Z</time>
      </trkpt>
      <trkpt lat="45.89481" lon="5.67541">
        <ele>468</ele>
        <time>2023-05-19T10:19:28.000Z</time>
      </trkpt>
      <trkpt lat="45.89485" lon="5.67547">
        <ele>468.60000610352</ele>
        <time>2023-05-19T10:19:31.000Z</time>
      </trkpt>
      <trkpt lat="45.89485" lon="5.67549">
        <ele>468.60000610352</ele>
        <time>2023-05-19T10:19:32.000Z</time>
      </trkpt>
      <trkpt lat="45.89485" lon="5.67552">
        <ele>468.79998779297</ele>
        <time>2023-05-19T10:19:33.000Z</time>
      </trkpt>
      <trkpt lat="45.89485" lon="5.67562">
        <ele>469.39999389648</ele>
        <time>2023-05-19T10:19:37.000Z</time>
      </trkpt>
      <trkpt lat="45.89486" lon="5.67563">
        <ele>469.60000610352</ele>
        <time>2023-05-19T10:19:38.000Z</time>
      </trkpt>
      <trkpt lat="45.89487" lon="5.67565">
        <ele>469.79998779297</ele>
        <time>2023-05-19T10:19:39.000Z</time>
      </trkpt>
      <trkpt lat="45.89492" lon="5.67568">
        <ele>470</ele>
        <time>2023-05-19T10:19:42.000Z</time>
      </trkpt>
      <trkpt lat="45.89498" lon="5.67576">
        <ele>470.79998779297</ele>
        <time>2023-05-19T10:19:46.000Z</time>
      </trkpt>
      <trkpt lat="45.89499" lon="5.67578">
        <ele>471</ele>
        <time>2023-05-19T10:19:47.000Z</time>
      </trkpt>
      <trkpt lat="45.89503" lon="5.67587">
        <ele>472</ele>
        <time>2023-05-19T10:19:51.000Z</time>
      </trkpt>
      <trkpt lat="45.89508" lon="5.67597">
        <ele>473.20001220703</ele>
        <time>2023-05-19T10:19:56.000Z</time>
      </trkpt>
      <trkpt lat="45.8951" lon="5.67599">
        <ele>473.39999389648</ele>
        <time>2023-05-19T10:19:57.000Z</time>
      </trkpt>
      <trkpt lat="45.89513" lon="5.67605">
        <ele>474.20001220703</ele>
        <time>2023-05-19T10:20:00.000Z</time>
      </trkpt>
      <trkpt lat="45.89518" lon="5.67616">
        <ele>475.39999389648</ele>
        <time>2023-05-19T10:20:05.000Z</time>
      </trkpt>
      <trkpt lat="45.89522" lon="5.67623">
        <ele>476.60000610352</ele>
        <time>2023-05-19T10:20:09.000Z</time>
      </trkpt>
      <trkpt lat="45.89525" lon="5.67631">
        <ele>478</ele>
        <time>2023-05-19T10:20:13.000Z</time>
      </trkpt>
      <trkpt lat="45.89529" lon="5.67636">
        <ele>479.20001220703</ele>
        <time>2023-05-19T10:20:17.000Z</time>
      </trkpt>
      <trkpt lat="45.89534" lon="5.6764">
        <ele>480</ele>
        <time>2023-05-19T10:20:21.000Z</time>
      </trkpt>
      <trkpt lat="45.89535" lon="5.67642">
        <ele>480.39999389648</ele>
        <time>2023-05-19T10:20:22.000Z</time>
      </trkpt>
      <trkpt lat="45.89539" lon="5.67647">
        <ele>481.60000610352</ele>
        <time>2023-05-19T10:20:25.000Z</time>
      </trkpt>
      <trkpt lat="45.89542" lon="5.67653">
        <ele>483.20001220703</ele>
        <time>2023-05-19T10:20:29.000Z</time>
      </trkpt>
      <trkpt lat="45.89543" lon="5.67654">
        <ele>483.60000610352</ele>
        <time>2023-05-19T10:20:30.000Z</time>
      </trkpt>
      <trkpt lat="45.89546" lon="5.67658">
        <ele>484.60000610352</ele>
        <time>2023-05-19T10:20:33.000Z</time>
      </trkpt>
      <trkpt lat="45.89547" lon="5.67663">
        <ele>485.79998779297</ele>
        <time>2023-05-19T10:20:36.000Z</time>
      </trkpt>
      <trkpt lat="45.89547" lon="5.67664">
        <ele>486</ele>
        <time>2023-05-19T10:20:37.000Z</time>
      </trkpt>
      <trkpt lat="45.89549" lon="5.67668">
        <ele>487.20001220703</ele>
        <time>2023-05-19T10:20:40.000Z</time>
      </trkpt>
      <trkpt lat="45.8955" lon="5.67671">
        <ele>487.79998779297</ele>
        <time>2023-05-19T10:20:43.000Z</time>
      </trkpt>
      <trkpt lat="45.89551" lon="5.67672">
        <ele>488</ele>
        <time>2023-05-19T10:20:44.000Z</time>
      </trkpt>
      <trkpt lat="45.89551" lon="5.67674">
        <ele>488.20001220703</ele>
        <time>2023-05-19T10:20:45.000Z</time>
      </trkpt>
      <trkpt lat="45.89553" lon="5.67676">
        <ele>489</ele>
        <time>2023-05-19T10:20:49.000Z</time>
      </trkpt>
      <trkpt lat="45.89553" lon="5.67678">
        <ele>489.60000610352</ele>
        <time>2023-05-19T10:20:50.000Z</time>
      </trkpt>
      <trkpt lat="45.89558" lon="5.67686">
        <ele>490.60000610352</ele>
        <time>2023-05-19T10:20:55.000Z</time>
      </trkpt>
      <trkpt lat="45.89564" lon="5.67697">
        <ele>491.79998779297</ele>
        <time>2023-05-19T10:21:00.000Z</time>
      </trkpt>
      <trkpt lat="45.89567" lon="5.67701">
        <ele>492.39999389648</ele>
        <time>2023-05-19T10:21:03.000Z</time>
      </trkpt>
      <trkpt lat="45.8957" lon="5.67705">
        <ele>493.20001220703</ele>
        <time>2023-05-19T10:21:06.000Z</time>
      </trkpt>
      <trkpt lat="45.89576" lon="5.67715">
        <ele>494</ele>
        <time>2023-05-19T10:21:10.000Z</time>
      </trkpt>
      <trkpt lat="45.89578" lon="5.67718">
        <ele>494.20001220703</ele>
        <time>2023-05-19T10:21:12.000Z</time>
      </trkpt>
      <trkpt lat="45.89582" lon="5.67723">
        <ele>495.39999389648</ele>
        <time>2023-05-19T10:21:15.000Z</time>
      </trkpt>
      <trkpt lat="45.89585" lon="5.67727">
        <ele>496.20001220703</ele>
        <time>2023-05-19T10:21:19.000Z</time>
      </trkpt>
      <trkpt lat="45.89588" lon="5.6773">
        <ele>496.60000610352</ele>
        <time>2023-05-19T10:21:21.000Z</time>
      </trkpt>
      <trkpt lat="45.89591" lon="5.67734">
        <ele>497.79998779297</ele>
        <time>2023-05-19T10:21:25.000Z</time>
      </trkpt>
      <trkpt lat="45.89592" lon="5.67734">
        <ele>498.39999389648</ele>
        <time>2023-05-19T10:21:27.000Z</time>
      </trkpt>
      <trkpt lat="45.89596" lon="5.67738">
        <ele>499</ele>
        <time>2023-05-19T10:21:30.000Z</time>
      </trkpt>
      <trkpt lat="45.896" lon="5.67744">
        <ele>500.20001220703</ele>
        <time>2023-05-19T10:21:34.000Z</time>
      </trkpt>
      <trkpt lat="45.89603" lon="5.67749">
        <ele>500.60000610352</ele>
        <time>2023-05-19T10:21:36.000Z</time>
      </trkpt>
      <trkpt lat="45.89606" lon="5.67752">
        <ele>501.39999389648</ele>
        <time>2023-05-19T10:21:38.000Z</time>
      </trkpt>
      <trkpt lat="45.89612" lon="5.6776">
        <ele>502.39999389648</ele>
        <time>2023-05-19T10:21:42.000Z</time>
      </trkpt>
      <trkpt lat="45.89615" lon="5.67766">
        <ele>503.39999389648</ele>
        <time>2023-05-19T10:21:45.000Z</time>
      </trkpt>
      <trkpt lat="45.89616" lon="5.67769">
        <ele>503.79998779297</ele>
        <time>2023-05-19T10:21:46.000Z</time>
      </trkpt>
      <trkpt lat="45.89616" lon="5.67773">
        <ele>504.39999389648</ele>
        <time>2023-05-19T10:21:48.000Z</time>
      </trkpt>
      <trkpt lat="45.89616" lon="5.67776">
        <ele>505</ele>
        <time>2023-05-19T10:21:49.000Z</time>
      </trkpt>
      <trkpt lat="45.89613" lon="5.67792">
        <ele>506</ele>
        <time>2023-05-19T10:21:56.000Z</time>
      </trkpt>
      <trkpt lat="45.89613" lon="5.67794">
        <ele>506</ele>
        <time>2023-05-19T10:21:58.000Z</time>
      </trkpt>
      <trkpt lat="45.89613" lon="5.67809">
        <ele>506.39999389648</ele>
        <time>2023-05-19T10:22:05.000Z</time>
      </trkpt>
      <trkpt lat="45.89614" lon="5.67832">
        <ele>507</ele>
        <time>2023-05-19T10:22:14.000Z</time>
      </trkpt>
      <trkpt lat="45.89614" lon="5.67834">
        <ele>507</ele>
        <time>2023-05-19T10:22:15.000Z</time>
      </trkpt>
      <trkpt lat="45.89616" lon="5.67858">
        <ele>508</ele>
        <time>2023-05-19T10:22:24.000Z</time>
      </trkpt>
      <trkpt lat="45.89616" lon="5.67861">
        <ele>508</ele>
        <time>2023-05-19T10:22:25.000Z</time>
      </trkpt>
      <trkpt lat="45.89615" lon="5.67881">
        <ele>508.39999389648</ele>
        <time>2023-05-19T10:22:30.000Z</time>
      </trkpt>
      <trkpt lat="45.89614" lon="5.67919">
        <ele>508.39999389648</ele>
        <time>2023-05-19T10:22:39.000Z</time>
      </trkpt>
      <trkpt lat="45.89612" lon="5.67955">
        <ele>507.39999389648</ele>
        <time>2023-05-19T10:22:48.000Z</time>
      </trkpt>
      <trkpt lat="45.89612" lon="5.67963">
        <ele>507.20001220703</ele>
        <time>2023-05-19T10:22:50.000Z</time>
      </trkpt>
      <trkpt lat="45.89611" lon="5.6799">
        <ele>506.60000610352</ele>
        <time>2023-05-19T10:22:56.000Z</time>
      </trkpt>
      <trkpt lat="45.89611" lon="5.68011">
        <ele>506.39999389648</ele>
        <time>2023-05-19T10:23:01.000Z</time>
      </trkpt>
      <trkpt lat="45.89611" lon="5.68017">
        <ele>506.20001220703</ele>
        <time>2023-05-19T10:23:03.000Z</time>
      </trkpt>
      <trkpt lat="45.89611" lon="5.68019">
        <ele>506.20001220703</ele>
        <time>2023-05-19T10:23:04.000Z</time>
      </trkpt>
      <trkpt lat="45.89613" lon="5.68028">
        <ele>505.79998779297</ele>
        <time>2023-05-19T10:23:08.000Z</time>
      </trkpt>
      <trkpt lat="45.89614" lon="5.68029">
        <ele>505.79998779297</ele>
        <time>2023-05-19T10:23:09.000Z</time>
      </trkpt>
      <trkpt lat="45.89625" lon="5.68031">
        <ele>505.79998779297</ele>
        <time>2023-05-19T10:23:13.000Z</time>
      </trkpt>
      <trkpt lat="45.8964" lon="5.68027">
        <ele>506.79998779297</ele>
        <time>2023-05-19T10:23:19.000Z</time>
      </trkpt>
      <trkpt lat="45.89645" lon="5.68027">
        <ele>507.20001220703</ele>
        <time>2023-05-19T10:23:21.000Z</time>
      </trkpt>
      <trkpt lat="45.89653" lon="5.68023">
        <ele>508</ele>
        <time>2023-05-19T10:23:25.000Z</time>
      </trkpt>
      <trkpt lat="45.89657" lon="5.68022">
        <ele>508.39999389648</ele>
        <time>2023-05-19T10:23:27.000Z</time>
      </trkpt>
      <trkpt lat="45.8966" lon="5.68024">
        <ele>509</ele>
        <time>2023-05-19T10:23:29.000Z</time>
      </trkpt>
      <trkpt lat="45.89664" lon="5.68038">
        <ele>509.60000610352</ele>
        <time>2023-05-19T10:23:34.000Z</time>
      </trkpt>
      <trkpt lat="45.89666" lon="5.68049">
        <ele>510</ele>
        <time>2023-05-19T10:23:38.000Z</time>
      </trkpt>
      <trkpt lat="45.89671" lon="5.68067">
        <ele>510.60000610352</ele>
        <time>2023-05-19T10:23:44.000Z</time>
      </trkpt>
      <trkpt lat="45.89671" lon="5.6807">
        <ele>510.79998779297</ele>
        <time>2023-05-19T10:23:45.000Z</time>
      </trkpt>
      <trkpt lat="45.89672" lon="5.6809">
        <ele>511.39999389648</ele>
        <time>2023-05-19T10:23:52.000Z</time>
      </trkpt>
      <trkpt lat="45.89672" lon="5.681">
        <ele>512.20001220703</ele>
        <time>2023-05-19T10:23:55.000Z</time>
      </trkpt>
      <trkpt lat="45.89675" lon="5.68116">
        <ele>512.59997558594</ele>
        <time>2023-05-19T10:24:00.000Z</time>
      </trkpt>
      <trkpt lat="45.89675" lon="5.68122">
        <ele>513.20001220703</ele>
        <time>2023-05-19T10:24:02.000Z</time>
      </trkpt>
      <trkpt lat="45.89679" lon="5.68139">
        <ele>514</ele>
        <time>2023-05-19T10:24:08.000Z</time>
      </trkpt>
      <trkpt lat="45.8968" lon="5.68142">
        <ele>514.20001220703</ele>
        <time>2023-05-19T10:24:09.000Z</time>
      </trkpt>
      <trkpt lat="45.89683" lon="5.68157">
        <ele>515</ele>
        <time>2023-05-19T10:24:14.000Z</time>
      </trkpt>
      <trkpt lat="45.89685" lon="5.68165">
        <ele>515.20001220703</ele>
        <time>2023-05-19T10:24:17.000Z</time>
      </trkpt>
      <trkpt lat="45.89688" lon="5.68177">
        <ele>516.40002441406</ele>
        <time>2023-05-19T10:24:21.000Z</time>
      </trkpt>
      <trkpt lat="45.89695" lon="5.68198">
        <ele>517.20001220703</ele>
        <time>2023-05-19T10:24:28.000Z</time>
      </trkpt>
      <trkpt lat="45.89696" lon="5.6821">
        <ele>517.59997558594</ele>
        <time>2023-05-19T10:24:32.000Z</time>
      </trkpt>
      <trkpt lat="45.89696" lon="5.6822">
        <ele>517.79998779297</ele>
        <time>2023-05-19T10:24:35.000Z</time>
      </trkpt>
      <trkpt lat="45.89697" lon="5.68241">
        <ele>518.20001220703</ele>
        <time>2023-05-19T10:24:42.000Z</time>
      </trkpt>
      <trkpt lat="45.89698" lon="5.68242">
        <ele>518</ele>
        <time>2023-05-19T10:24:43.000Z</time>
      </trkpt>
      <trkpt lat="45.89699" lon="5.68242">
        <ele>518</ele>
        <time>2023-05-19T10:24:46.000Z</time>
      </trkpt>
      <trkpt lat="45.89707" lon="5.68245">
        <ele>517</ele>
        <time>2023-05-19T10:25:38.000Z</time>
      </trkpt>
      <trkpt lat="45.89709" lon="5.68246">
        <ele>517</ele>
        <time>2023-05-19T10:25:39.000Z</time>
      </trkpt>
      <trkpt lat="45.89713" lon="5.68245">
        <ele>517</ele>
        <time>2023-05-19T10:25:44.000Z</time>
      </trkpt>
      <trkpt lat="45.89721" lon="5.68244">
        <ele>517</ele>
        <time>2023-05-19T10:25:52.000Z</time>
      </trkpt>
      <trkpt lat="45.89729" lon="5.68245">
        <ele>517.40002441406</ele>
        <time>2023-05-19T10:26:00.000Z</time>
      </trkpt>
      <trkpt lat="45.89734" lon="5.68244">
        <ele>517.59997558594</ele>
        <time>2023-05-19T10:26:04.000Z</time>
      </trkpt>
      <trkpt lat="45.89739" lon="5.68243">
        <ele>518</ele>
        <time>2023-05-19T10:26:12.000Z</time>
      </trkpt>
      <trkpt lat="45.89739" lon="5.68243">
        <ele>518</ele>
        <time>2023-05-19T10:26:14.000Z</time>
      </trkpt>
      <trkpt lat="45.89739" lon="5.68256">
        <ele>520.20001220703</ele>
        <time>2023-05-19T10:35:05.000Z</time>
      </trkpt>
      <trkpt lat="45.8974" lon="5.68258">
        <ele>520.20001220703</ele>
        <time>2023-05-19T10:35:06.000Z</time>
      </trkpt>
      <trkpt lat="45.89741" lon="5.68262">
        <ele>520</ele>
        <time>2023-05-19T10:35:07.000Z</time>
      </trkpt>
      <trkpt lat="45.89745" lon="5.6829">
        <ele>520.20001220703</ele>
        <time>2023-05-19T10:35:14.000Z</time>
      </trkpt>
      <trkpt lat="45.8975" lon="5.68314">
        <ele>521.20001220703</ele>
        <time>2023-05-19T10:35:21.000Z</time>
      </trkpt>
      <trkpt lat="45.89762" lon="5.68328">
        <ele>521.79998779297</ele>
        <time>2023-05-19T10:35:27.000Z</time>
      </trkpt>
      <trkpt lat="45.89781" lon="5.6835">
        <ele>522.20001220703</ele>
        <time>2023-05-19T10:35:35.000Z</time>
      </trkpt>
      <trkpt lat="45.89799" lon="5.68374">
        <ele>521.79998779297</ele>
        <time>2023-05-19T10:35:43.000Z</time>
      </trkpt>
      <trkpt lat="45.89807" lon="5.68396">
        <ele>521.59997558594</ele>
        <time>2023-05-19T10:35:49.000Z</time>
      </trkpt>
      <trkpt lat="45.89817" lon="5.68421">
        <ele>521.40002441406</ele>
        <time>2023-05-19T10:35:54.000Z</time>
      </trkpt>
      <trkpt lat="45.89821" lon="5.68432">
        <ele>521.20001220703</ele>
        <time>2023-05-19T10:35:56.000Z</time>
      </trkpt>
      <trkpt lat="45.89829" lon="5.68443">
        <ele>521</ele>
        <time>2023-05-19T10:35:58.000Z</time>
      </trkpt>
      <trkpt lat="45.89832" lon="5.68448">
        <ele>521</ele>
        <time>2023-05-19T10:35:59.000Z</time>
      </trkpt>
      <trkpt lat="45.89845" lon="5.68465">
        <ele>520.20001220703</ele>
        <time>2023-05-19T10:36:03.000Z</time>
      </trkpt>
      <trkpt lat="45.89863" lon="5.68487">
        <ele>519.79998779297</ele>
        <time>2023-05-19T10:36:08.000Z</time>
      </trkpt>
      <trkpt lat="45.89884" lon="5.68514">
        <ele>519.40002441406</ele>
        <time>2023-05-19T10:36:15.000Z</time>
      </trkpt>
      <trkpt lat="45.89897" lon="5.68545">
        <ele>519.40002441406</ele>
        <time>2023-05-19T10:36:22.000Z</time>
      </trkpt>
      <trkpt lat="45.89904" lon="5.68561">
        <ele>519.20001220703</ele>
        <time>2023-05-19T10:36:26.000Z</time>
      </trkpt>
      <trkpt lat="45.89906" lon="5.68568">
        <ele>519.20001220703</ele>
        <time>2023-05-19T10:36:28.000Z</time>
      </trkpt>
      <trkpt lat="45.89918" lon="5.68592">
        <ele>519</ele>
        <time>2023-05-19T10:36:34.000Z</time>
      </trkpt>
      <trkpt lat="45.89935" lon="5.68617">
        <ele>519.20001220703</ele>
        <time>2023-05-19T10:36:40.000Z</time>
      </trkpt>
      <trkpt lat="45.8995" lon="5.68639">
        <ele>518.79998779297</ele>
        <time>2023-05-19T10:36:44.000Z</time>
      </trkpt>
      <trkpt lat="45.89953" lon="5.68652">
        <ele>518.40002441406</ele>
        <time>2023-05-19T10:36:46.000Z</time>
      </trkpt>
      <trkpt lat="45.89952" lon="5.68659">
        <ele>517.79998779297</ele>
        <time>2023-05-19T10:36:47.000Z</time>
      </trkpt>
      <trkpt lat="45.89946" lon="5.68679">
        <ele>517.40002441406</ele>
        <time>2023-05-19T10:36:50.000Z</time>
      </trkpt>
      <trkpt lat="45.89943" lon="5.68689">
        <ele>517</ele>
        <time>2023-05-19T10:36:52.000Z</time>
      </trkpt>
      <trkpt lat="45.89941" lon="5.68693">
        <ele>516.79998779297</ele>
        <time>2023-05-19T10:36:53.000Z</time>
      </trkpt>
      <trkpt lat="45.89936" lon="5.687">
        <ele>516.20001220703</ele>
        <time>2023-05-19T10:36:55.000Z</time>
      </trkpt>
      <trkpt lat="45.89926" lon="5.68706">
        <ele>516</ele>
        <time>2023-05-19T10:36:58.000Z</time>
      </trkpt>
      <trkpt lat="45.89921" lon="5.68707">
        <ele>515.79998779297</ele>
        <time>2023-05-19T10:36:59.000Z</time>
      </trkpt>
      <trkpt lat="45.89904" lon="5.6871">
        <ele>515.40002441406</ele>
        <time>2023-05-19T10:37:03.000Z</time>
      </trkpt>
      <trkpt lat="45.899" lon="5.68715">
        <ele>515.20001220703</ele>
        <time>2023-05-19T10:37:04.000Z</time>
      </trkpt>
      <trkpt lat="45.89899" lon="5.68721">
        <ele>514.79998779297</ele>
        <time>2023-05-19T10:37:05.000Z</time>
      </trkpt>
      <trkpt lat="45.89897" lon="5.68737">
        <ele>513.79998779297</ele>
        <time>2023-05-19T10:37:07.000Z</time>
      </trkpt>
      <trkpt lat="45.89896" lon="5.68751">
        <ele>512.79998779297</ele>
        <time>2023-05-19T10:37:09.000Z</time>
      </trkpt>
      <trkpt lat="45.89895" lon="5.68759">
        <ele>512.59997558594</ele>
        <time>2023-05-19T10:37:10.000Z</time>
      </trkpt>
      <trkpt lat="45.89894" lon="5.68771">
        <ele>512</ele>
        <time>2023-05-19T10:37:12.000Z</time>
      </trkpt>
      <trkpt lat="45.89895" lon="5.68781">
        <ele>511.60000610352</ele>
        <time>2023-05-19T10:37:14.000Z</time>
      </trkpt>
      <trkpt lat="45.89895" lon="5.68785">
        <ele>511.60000610352</ele>
        <time>2023-05-19T10:37:15.000Z</time>
      </trkpt>
      <trkpt lat="45.89896" lon="5.68794">
        <ele>510.79998779297</ele>
        <time>2023-05-19T10:37:17.000Z</time>
      </trkpt>
      <trkpt lat="45.89896" lon="5.68799">
        <ele>510.39999389648</ele>
        <time>2023-05-19T10:37:18.000Z</time>
      </trkpt>
      <trkpt lat="45.89894" lon="5.68813">
        <ele>509</ele>
        <time>2023-05-19T10:37:21.000Z</time>
      </trkpt>
      <trkpt lat="45.8989" lon="5.68817">
        <ele>508.60000610352</ele>
        <time>2023-05-19T10:37:22.000Z</time>
      </trkpt>
      <trkpt lat="45.89886" lon="5.68821">
        <ele>508</ele>
        <time>2023-05-19T10:37:23.000Z</time>
      </trkpt>
      <trkpt lat="45.89875" lon="5.68827">
        <ele>507.20001220703</ele>
        <time>2023-05-19T10:37:25.000Z</time>
      </trkpt>
      <trkpt lat="45.89869" lon="5.68829">
        <ele>506.60000610352</ele>
        <time>2023-05-19T10:37:26.000Z</time>
      </trkpt>
      <trkpt lat="45.89857" lon="5.68836">
        <ele>505.79998779297</ele>
        <time>2023-05-19T10:37:28.000Z</time>
      </trkpt>
      <trkpt lat="45.89851" lon="5.68839">
        <ele>504.20001220703</ele>
        <time>2023-05-19T10:37:29.000Z</time>
      </trkpt>
      <trkpt lat="45.8984" lon="5.68849">
        <ele>503.39999389648</ele>
        <time>2023-05-19T10:37:31.000Z</time>
      </trkpt>
      <trkpt lat="45.89834" lon="5.68862">
        <ele>502.20001220703</ele>
        <time>2023-05-19T10:37:33.000Z</time>
      </trkpt>
      <trkpt lat="45.89831" lon="5.6887">
        <ele>501.79998779297</ele>
        <time>2023-05-19T10:37:34.000Z</time>
      </trkpt>
      <trkpt lat="45.89826" lon="5.68882">
        <ele>501</ele>
        <time>2023-05-19T10:37:36.000Z</time>
      </trkpt>
      <trkpt lat="45.89822" lon="5.68892">
        <ele>499.79998779297</ele>
        <time>2023-05-19T10:37:38.000Z</time>
      </trkpt>
      <trkpt lat="45.89819" lon="5.68896">
        <ele>499.39999389648</ele>
        <time>2023-05-19T10:37:39.000Z</time>
      </trkpt>
      <trkpt lat="45.89815" lon="5.68897">
        <ele>498.60000610352</ele>
        <time>2023-05-19T10:37:40.000Z</time>
      </trkpt>
      <trkpt lat="45.89811" lon="5.68897">
        <ele>498.20001220703</ele>
        <time>2023-05-19T10:37:41.000Z</time>
      </trkpt>
      <trkpt lat="45.89801" lon="5.68898">
        <ele>496.79998779297</ele>
        <time>2023-05-19T10:37:43.000Z</time>
      </trkpt>
      <trkpt lat="45.89789" lon="5.68901">
        <ele>495.60000610352</ele>
        <time>2023-05-19T10:37:45.000Z</time>
      </trkpt>
      <trkpt lat="45.89783" lon="5.68902">
        <ele>495.39999389648</ele>
        <time>2023-05-19T10:37:46.000Z</time>
      </trkpt>
      <trkpt lat="45.89765" lon="5.68906">
        <ele>494.60000610352</ele>
        <time>2023-05-19T10:37:49.000Z</time>
      </trkpt>
      <trkpt lat="45.8976" lon="5.68907">
        <ele>494.39999389648</ele>
        <time>2023-05-19T10:37:50.000Z</time>
      </trkpt>
      <trkpt lat="45.89747" lon="5.68909">
        <ele>493.60000610352</ele>
        <time>2023-05-19T10:37:52.000Z</time>
      </trkpt>
      <trkpt lat="45.89741" lon="5.6891">
        <ele>493.20001220703</ele>
        <time>2023-05-19T10:37:53.000Z</time>
      </trkpt>
      <trkpt lat="45.89724" lon="5.68913">
        <ele>492.39999389648</ele>
        <time>2023-05-19T10:37:56.000Z</time>
      </trkpt>
      <trkpt lat="45.89708" lon="5.68916">
        <ele>491.39999389648</ele>
        <time>2023-05-19T10:37:59.000Z</time>
      </trkpt>
      <trkpt lat="45.89704" lon="5.68917">
        <ele>491.20001220703</ele>
        <time>2023-05-19T10:38:00.000Z</time>
      </trkpt>
      <trkpt lat="45.89695" lon="5.68919">
        <ele>491</ele>
        <time>2023-05-19T10:38:02.000Z</time>
      </trkpt>
      <trkpt lat="45.89685" lon="5.68921">
        <ele>490.79998779297</ele>
        <time>2023-05-19T10:38:05.000Z</time>
      </trkpt>
      <trkpt lat="45.89665" lon="5.68925">
        <ele>490.60000610352</ele>
        <time>2023-05-19T10:38:11.000Z</time>
      </trkpt>
      <trkpt lat="45.89661" lon="5.68925">
        <ele>490.60000610352</ele>
        <time>2023-05-19T10:38:12.000Z</time>
      </trkpt>
      <trkpt lat="45.89652" lon="5.68926">
        <ele>490.60000610352</ele>
        <time>2023-05-19T10:38:14.000Z</time>
      </trkpt>
      <trkpt lat="45.89647" lon="5.68926">
        <ele>490.60000610352</ele>
        <time>2023-05-19T10:38:15.000Z</time>
      </trkpt>
      <trkpt lat="45.89638" lon="5.68926">
        <ele>490.39999389648</ele>
        <time>2023-05-19T10:38:17.000Z</time>
      </trkpt>
      <trkpt lat="45.8963" lon="5.6893">
        <ele>490.20001220703</ele>
        <time>2023-05-19T10:38:19.000Z</time>
      </trkpt>
      <trkpt lat="45.89623" lon="5.6894">
        <ele>490</ele>
        <time>2023-05-19T10:38:21.000Z</time>
      </trkpt>
      <trkpt lat="45.89619" lon="5.68946">
        <ele>490</ele>
        <time>2023-05-19T10:38:22.000Z</time>
      </trkpt>
      <trkpt lat="45.89613" lon="5.6896">
        <ele>489.79998779297</ele>
        <time>2023-05-19T10:38:24.000Z</time>
      </trkpt>
      <trkpt lat="45.89609" lon="5.68966">
        <ele>489.60000610352</ele>
        <time>2023-05-19T10:38:25.000Z</time>
      </trkpt>
      <trkpt lat="45.89605" lon="5.68971">
        <ele>488.79998779297</ele>
        <time>2023-05-19T10:38:26.000Z</time>
      </trkpt>
      <trkpt lat="45.896" lon="5.68974">
        <ele>488.39999389648</ele>
        <time>2023-05-19T10:38:27.000Z</time>
      </trkpt>
      <trkpt lat="45.89596" lon="5.68975">
        <ele>487.79998779297</ele>
        <time>2023-05-19T10:38:28.000Z</time>
      </trkpt>
      <trkpt lat="45.89588" lon="5.68974">
        <ele>487</ele>
        <time>2023-05-19T10:38:30.000Z</time>
      </trkpt>
      <trkpt lat="45.89576" lon="5.68974">
        <ele>485.79998779297</ele>
        <time>2023-05-19T10:38:33.000Z</time>
      </trkpt>
      <trkpt lat="45.89555" lon="5.6897">
        <ele>486</ele>
        <time>2023-05-19T10:38:39.000Z</time>
      </trkpt>
      <trkpt lat="45.89552" lon="5.68969">
        <ele>486.60000610352</ele>
        <time>2023-05-19T10:38:40.000Z</time>
      </trkpt>
      <trkpt lat="45.89546" lon="5.68966">
        <ele>487.20001220703</ele>
        <time>2023-05-19T10:38:42.000Z</time>
      </trkpt>
      <trkpt lat="45.89537" lon="5.6896">
        <ele>487.60000610352</ele>
        <time>2023-05-19T10:38:45.000Z</time>
      </trkpt>
      <trkpt lat="45.89529" lon="5.6895">
        <ele>488.20001220703</ele>
        <time>2023-05-19T10:38:48.000Z</time>
      </trkpt>
      <trkpt lat="45.89516" lon="5.68938">
        <ele>488.60000610352</ele>
        <time>2023-05-19T10:38:52.000Z</time>
      </trkpt>
      <trkpt lat="45.8951" lon="5.68933">
        <ele>488.60000610352</ele>
        <time>2023-05-19T10:38:54.000Z</time>
      </trkpt>
      <trkpt lat="45.89489" lon="5.68916">
        <ele>488.79998779297</ele>
        <time>2023-05-19T10:39:01.000Z</time>
      </trkpt>
      <trkpt lat="45.89473" lon="5.68896">
        <ele>488.79998779297</ele>
        <time>2023-05-19T10:39:06.000Z</time>
      </trkpt>
      <trkpt lat="45.89463" lon="5.68884">
        <ele>488.79998779297</ele>
        <time>2023-05-19T10:39:09.000Z</time>
      </trkpt>
      <trkpt lat="45.89448" lon="5.68873">
        <ele>488.39999389648</ele>
        <time>2023-05-19T10:39:13.000Z</time>
      </trkpt>
      <trkpt lat="45.89436" lon="5.68852">
        <ele>488.20001220703</ele>
        <time>2023-05-19T10:39:18.000Z</time>
      </trkpt>
      <trkpt lat="45.89423" lon="5.68834">
        <ele>487.60000610352</ele>
        <time>2023-05-19T10:39:23.000Z</time>
      </trkpt>
      <trkpt lat="45.89416" lon="5.6883">
        <ele>487.60000610352</ele>
        <time>2023-05-19T10:39:25.000Z</time>
      </trkpt>
      <trkpt lat="45.89409" lon="5.68827">
        <ele>487.39999389648</ele>
        <time>2023-05-19T10:39:27.000Z</time>
      </trkpt>
      <trkpt lat="45.89397" lon="5.6882">
        <ele>487.20001220703</ele>
        <time>2023-05-19T10:39:30.000Z</time>
      </trkpt>
      <trkpt lat="45.89366" lon="5.68805">
        <ele>487.20001220703</ele>
        <time>2023-05-19T10:39:37.000Z</time>
      </trkpt>
      <trkpt lat="45.89346" lon="5.68792">
        <ele>486.60000610352</ele>
        <time>2023-05-19T10:39:42.000Z</time>
      </trkpt>
      <trkpt lat="45.89339" lon="5.68785">
        <ele>486.39999389648</ele>
        <time>2023-05-19T10:39:44.000Z</time>
      </trkpt>
      <trkpt lat="45.89335" lon="5.68781">
        <ele>486.39999389648</ele>
        <time>2023-05-19T10:39:45.000Z</time>
      </trkpt>
      <trkpt lat="45.89326" lon="5.68768">
        <ele>486.20001220703</ele>
        <time>2023-05-19T10:39:48.000Z</time>
      </trkpt>
      <trkpt lat="45.89322" lon="5.68758">
        <ele>486</ele>
        <time>2023-05-19T10:39:50.000Z</time>
      </trkpt>
      <trkpt lat="45.8932" lon="5.68753">
        <ele>486</ele>
        <time>2023-05-19T10:39:51.000Z</time>
      </trkpt>
      <trkpt lat="45.8931" lon="5.68711">
        <ele>485.39999389648</ele>
        <time>2023-05-19T10:39:59.000Z</time>
      </trkpt>
      <trkpt lat="45.89308" lon="5.68702">
        <ele>485.39999389648</ele>
        <time>2023-05-19T10:40:01.000Z</time>
      </trkpt>
      <trkpt lat="45.89305" lon="5.68672">
        <ele>485.60000610352</ele>
        <time>2023-05-19T10:40:07.000Z</time>
      </trkpt>
      <trkpt lat="45.89304" lon="5.68636">
        <ele>485.60000610352</ele>
        <time>2023-05-19T10:40:14.000Z</time>
      </trkpt>
      <trkpt lat="45.89298" lon="5.68603">
        <ele>485.60000610352</ele>
        <time>2023-05-19T10:40:21.000Z</time>
      </trkpt>
      <trkpt lat="45.89294" lon="5.68589">
        <ele>486</ele>
        <time>2023-05-19T10:40:25.000Z</time>
      </trkpt>
      <trkpt lat="45.89288" lon="5.68579">
        <ele>486</ele>
        <time>2023-05-19T10:40:29.000Z</time>
      </trkpt>
      <trkpt lat="45.89279" lon="5.68572">
        <ele>486</ele>
        <time>2023-05-19T10:40:34.000Z</time>
      </trkpt>
      <trkpt lat="45.89277" lon="5.6857">
        <ele>485.60000610352</ele>
        <time>2023-05-19T10:40:35.000Z</time>
      </trkpt>
      <trkpt lat="45.89271" lon="5.68569">
        <ele>484.39999389648</ele>
        <time>2023-05-19T10:40:37.000Z</time>
      </trkpt>
      <trkpt lat="45.89269" lon="5.68568">
        <ele>484</ele>
        <time>2023-05-19T10:40:38.000Z</time>
      </trkpt>
      <trkpt lat="45.89266" lon="5.68568">
        <ele>483.20001220703</ele>
        <time>2023-05-19T10:40:39.000Z</time>
      </trkpt>
      <trkpt lat="45.89262" lon="5.68567">
        <ele>482.20001220703</ele>
        <time>2023-05-19T10:40:41.000Z</time>
      </trkpt>
      <trkpt lat="45.89257" lon="5.68564">
        <ele>480.39999389648</ele>
        <time>2023-05-19T10:40:43.000Z</time>
      </trkpt>
      <trkpt lat="45.89255" lon="5.68562">
        <ele>479.20001220703</ele>
        <time>2023-05-19T10:40:44.000Z</time>
      </trkpt>
      <trkpt lat="45.89253" lon="5.68559">
        <ele>479</ele>
        <time>2023-05-19T10:40:45.000Z</time>
      </trkpt>
      <trkpt lat="45.89251" lon="5.68556">
        <ele>478.20001220703</ele>
        <time>2023-05-19T10:40:46.000Z</time>
      </trkpt>
      <trkpt lat="45.89249" lon="5.68546">
        <ele>476.60000610352</ele>
        <time>2023-05-19T10:40:49.000Z</time>
      </trkpt>
      <trkpt lat="45.89247" lon="5.68542">
        <ele>476.20001220703</ele>
        <time>2023-05-19T10:40:50.000Z</time>
      </trkpt>
      <trkpt lat="45.89245" lon="5.68539">
        <ele>475.39999389648</ele>
        <time>2023-05-19T10:40:51.000Z</time>
      </trkpt>
      <trkpt lat="45.89239" lon="5.68532">
        <ele>474.39999389648</ele>
        <time>2023-05-19T10:40:54.000Z</time>
      </trkpt>
      <trkpt lat="45.89236" lon="5.68529">
        <ele>473.39999389648</ele>
        <time>2023-05-19T10:40:56.000Z</time>
      </trkpt>
      <trkpt lat="45.89235" lon="5.68526">
        <ele>473</ele>
        <time>2023-05-19T10:40:57.000Z</time>
      </trkpt>
      <trkpt lat="45.89236" lon="5.68524">
        <ele>472</ele>
        <time>2023-05-19T10:40:59.000Z</time>
      </trkpt>
      <trkpt lat="45.89236" lon="5.68524">
        <ele>471.60000610352</ele>
        <time>2023-05-19T10:41:01.000Z</time>
      </trkpt>
      <trkpt lat="45.89235" lon="5.68515">
        <ele>470.20001220703</ele>
        <time>2023-05-19T10:43:59.000Z</time>
      </trkpt>
      <trkpt lat="45.89234" lon="5.68512">
        <ele>470.39999389648</ele>
        <time>2023-05-19T10:44:00.000Z</time>
      </trkpt>
      <trkpt lat="45.89233" lon="5.6851">
        <ele>470.39999389648</ele>
        <time>2023-05-19T10:44:01.000Z</time>
      </trkpt>
      <trkpt lat="45.89228" lon="5.68498">
        <ele>470.60000610352</ele>
        <time>2023-05-19T10:44:05.000Z</time>
      </trkpt>
      <trkpt lat="45.89224" lon="5.6848">
        <ele>471</ele>
        <time>2023-05-19T10:44:10.000Z</time>
      </trkpt>
      <trkpt lat="45.89224" lon="5.68477">
        <ele>471.39999389648</ele>
        <time>2023-05-19T10:44:11.000Z</time>
      </trkpt>
      <trkpt lat="45.89224" lon="5.68459">
        <ele>472.39999389648</ele>
        <time>2023-05-19T10:44:16.000Z</time>
      </trkpt>
      <trkpt lat="45.89222" lon="5.68433">
        <ele>473</ele>
        <time>2023-05-19T10:44:22.000Z</time>
      </trkpt>
      <trkpt lat="45.89216" lon="5.68412">
        <ele>472.39999389648</ele>
        <time>2023-05-19T10:44:27.000Z</time>
      </trkpt>
      <trkpt lat="45.89214" lon="5.6841">
        <ele>471.79998779297</ele>
        <time>2023-05-19T10:44:28.000Z</time>
      </trkpt>
      <trkpt lat="45.89213" lon="5.6841">
        <ele>471.60000610352</ele>
        <time>2023-05-19T10:44:29.000Z</time>
      </trkpt>
      <trkpt lat="45.89206" lon="5.68412">
        <ele>471.20001220703</ele>
        <time>2023-05-19T10:44:31.000Z</time>
      </trkpt>
      <trkpt lat="45.89194" lon="5.68423">
        <ele>470.20001220703</ele>
        <time>2023-05-19T10:44:34.000Z</time>
      </trkpt>
      <trkpt lat="45.89191" lon="5.68426">
        <ele>469.60000610352</ele>
        <time>2023-05-19T10:44:35.000Z</time>
      </trkpt>
      <trkpt lat="45.89185" lon="5.68435">
        <ele>468.39999389648</ele>
        <time>2023-05-19T10:44:37.000Z</time>
      </trkpt>
      <trkpt lat="45.89184" lon="5.6844">
        <ele>467</ele>
        <time>2023-05-19T10:44:38.000Z</time>
      </trkpt>
      <trkpt lat="45.89183" lon="5.68445">
        <ele>466.20001220703</ele>
        <time>2023-05-19T10:44:39.000Z</time>
      </trkpt>
      <trkpt lat="45.89182" lon="5.68449">
        <ele>465</ele>
        <time>2023-05-19T10:44:40.000Z</time>
      </trkpt>
      <trkpt lat="45.89182" lon="5.68461">
        <ele>463.20001220703</ele>
        <time>2023-05-19T10:44:42.000Z</time>
      </trkpt>
      <trkpt lat="45.89183" lon="5.68468">
        <ele>462.79998779297</ele>
        <time>2023-05-19T10:44:43.000Z</time>
      </trkpt>
      <trkpt lat="45.89185" lon="5.68475">
        <ele>461.39999389648</ele>
        <time>2023-05-19T10:44:44.000Z</time>
      </trkpt>
      <trkpt lat="45.89188" lon="5.68487">
        <ele>460</ele>
        <time>2023-05-19T10:44:46.000Z</time>
      </trkpt>
      <trkpt lat="45.89189" lon="5.68495">
        <ele>459.39999389648</ele>
        <time>2023-05-19T10:44:47.000Z</time>
      </trkpt>
      <trkpt lat="45.89189" lon="5.68515">
        <ele>458.20001220703</ele>
        <time>2023-05-19T10:44:49.000Z</time>
      </trkpt>
      <trkpt lat="45.89188" lon="5.68525">
        <ele>458</ele>
        <time>2023-05-19T10:44:50.000Z</time>
      </trkpt>
      <trkpt lat="45.89185" lon="5.68533">
        <ele>457.39999389648</ele>
        <time>2023-05-19T10:44:51.000Z</time>
      </trkpt>
      <trkpt lat="45.89182" lon="5.68543">
        <ele>457</ele>
        <time>2023-05-19T10:44:52.000Z</time>
      </trkpt>
      <trkpt lat="45.89178" lon="5.68555">
        <ele>456.39999389648</ele>
        <time>2023-05-19T10:44:53.000Z</time>
      </trkpt>
      <trkpt lat="45.89177" lon="5.68564">
        <ele>455.39999389648</ele>
        <time>2023-05-19T10:44:54.000Z</time>
      </trkpt>
      <trkpt lat="45.89177" lon="5.68574">
        <ele>455</ele>
        <time>2023-05-19T10:44:55.000Z</time>
      </trkpt>
      <trkpt lat="45.89178" lon="5.68583">
        <ele>453.60000610352</ele>
        <time>2023-05-19T10:44:56.000Z</time>
      </trkpt>
      <trkpt lat="45.89179" lon="5.68594">
        <ele>452</ele>
        <time>2023-05-19T10:44:57.000Z</time>
      </trkpt>
      <trkpt lat="45.89183" lon="5.68617">
        <ele>450</ele>
        <time>2023-05-19T10:44:59.000Z</time>
      </trkpt>
      <trkpt lat="45.89185" lon="5.68641">
        <ele>448.60000610352</ele>
        <time>2023-05-19T10:45:01.000Z</time>
      </trkpt>
      <trkpt lat="45.89187" lon="5.68663">
        <ele>446.60000610352</ele>
        <time>2023-05-19T10:45:03.000Z</time>
      </trkpt>
      <trkpt lat="45.89187" lon="5.68675">
        <ele>445.60000610352</ele>
        <time>2023-05-19T10:45:04.000Z</time>
      </trkpt>
      <trkpt lat="45.8919" lon="5.68688">
        <ele>445.39999389648</ele>
        <time>2023-05-19T10:45:05.000Z</time>
      </trkpt>
      <trkpt lat="45.89196" lon="5.68708">
        <ele>444.20001220703</ele>
        <time>2023-05-19T10:45:07.000Z</time>
      </trkpt>
      <trkpt lat="45.89206" lon="5.68743">
        <ele>442.79998779297</ele>
        <time>2023-05-19T10:45:10.000Z</time>
      </trkpt>
      <trkpt lat="45.89208" lon="5.68755">
        <ele>442.39999389648</ele>
        <time>2023-05-19T10:45:11.000Z</time>
      </trkpt>
      <trkpt lat="45.89208" lon="5.68766">
        <ele>442.20001220703</ele>
        <time>2023-05-19T10:45:12.000Z</time>
      </trkpt>
      <trkpt lat="45.8921" lon="5.68774">
        <ele>441.79998779297</ele>
        <time>2023-05-19T10:45:13.000Z</time>
      </trkpt>
      <trkpt lat="45.89212" lon="5.68784">
        <ele>441.60000610352</ele>
        <time>2023-05-19T10:45:14.000Z</time>
      </trkpt>
      <trkpt lat="45.89219" lon="5.68806">
        <ele>441.20001220703</ele>
        <time>2023-05-19T10:45:16.000Z</time>
      </trkpt>
      <trkpt lat="45.89232" lon="5.68836">
        <ele>440.60000610352</ele>
        <time>2023-05-19T10:45:19.000Z</time>
      </trkpt>
      <trkpt lat="45.89238" lon="5.68848">
        <ele>439.79998779297</ele>
        <time>2023-05-19T10:45:20.000Z</time>
      </trkpt>
      <trkpt lat="45.89244" lon="5.68858">
        <ele>439.39999389648</ele>
        <time>2023-05-19T10:45:21.000Z</time>
      </trkpt>
      <trkpt lat="45.89251" lon="5.68867">
        <ele>438.60000610352</ele>
        <time>2023-05-19T10:45:22.000Z</time>
      </trkpt>
      <trkpt lat="45.89256" lon="5.68874">
        <ele>438.20001220703</ele>
        <time>2023-05-19T10:45:23.000Z</time>
      </trkpt>
      <trkpt lat="45.89271" lon="5.68892">
        <ele>436.60000610352</ele>
        <time>2023-05-19T10:45:25.000Z</time>
      </trkpt>
      <trkpt lat="45.89282" lon="5.68911">
        <ele>434.39999389648</ele>
        <time>2023-05-19T10:45:27.000Z</time>
      </trkpt>
      <trkpt lat="45.89289" lon="5.68926">
        <ele>433.20001220703</ele>
        <time>2023-05-19T10:45:29.000Z</time>
      </trkpt>
      <trkpt lat="45.89293" lon="5.68936">
        <ele>431.39999389648</ele>
        <time>2023-05-19T10:45:31.000Z</time>
      </trkpt>
      <trkpt lat="45.89294" lon="5.68938">
        <ele>430.39999389648</ele>
        <time>2023-05-19T10:45:32.000Z</time>
      </trkpt>
      <trkpt lat="45.89297" lon="5.68942">
        <ele>428.39999389648</ele>
        <time>2023-05-19T10:45:34.000Z</time>
      </trkpt>
      <trkpt lat="45.893" lon="5.68946">
        <ele>427.20001220703</ele>
        <time>2023-05-19T10:45:36.000Z</time>
      </trkpt>
      <trkpt lat="45.89306" lon="5.68952">
        <ele>426.60000610352</ele>
        <time>2023-05-19T10:45:38.000Z</time>
      </trkpt>
      <trkpt lat="45.89309" lon="5.68954">
        <ele>425.79998779297</ele>
        <time>2023-05-19T10:45:39.000Z</time>
      </trkpt>
      <trkpt lat="45.89313" lon="5.68957">
        <ele>425.39999389648</ele>
        <time>2023-05-19T10:45:40.000Z</time>
      </trkpt>
      <trkpt lat="45.89319" lon="5.68959">
        <ele>424.60000610352</ele>
        <time>2023-05-19T10:45:41.000Z</time>
      </trkpt>
      <trkpt lat="45.89323" lon="5.68961">
        <ele>424.39999389648</ele>
        <time>2023-05-19T10:45:42.000Z</time>
      </trkpt>
      <trkpt lat="45.89329" lon="5.68964">
        <ele>423.60000610352</ele>
        <time>2023-05-19T10:45:43.000Z</time>
      </trkpt>
      <trkpt lat="45.89334" lon="5.68967">
        <ele>422</ele>
        <time>2023-05-19T10:45:44.000Z</time>
      </trkpt>
      <trkpt lat="45.89345" lon="5.68976">
        <ele>420.20001220703</ele>
        <time>2023-05-19T10:45:46.000Z</time>
      </trkpt>
      <trkpt lat="45.89354" lon="5.68987">
        <ele>418.20001220703</ele>
        <time>2023-05-19T10:45:48.000Z</time>
      </trkpt>
      <trkpt lat="45.89358" lon="5.68992">
        <ele>417.60000610352</ele>
        <time>2023-05-19T10:45:49.000Z</time>
      </trkpt>
      <trkpt lat="45.89361" lon="5.69">
        <ele>416.79998779297</ele>
        <time>2023-05-19T10:45:50.000Z</time>
      </trkpt>
      <trkpt lat="45.89364" lon="5.69019">
        <ele>415.79998779297</ele>
        <time>2023-05-19T10:45:52.000Z</time>
      </trkpt>
      <trkpt lat="45.89366" lon="5.69026">
        <ele>414.60000610352</ele>
        <time>2023-05-19T10:45:53.000Z</time>
      </trkpt>
      <trkpt lat="45.89369" lon="5.6904">
        <ele>413.39999389648</ele>
        <time>2023-05-19T10:45:55.000Z</time>
      </trkpt>
      <trkpt lat="45.89371" lon="5.69053">
        <ele>412.39999389648</ele>
        <time>2023-05-19T10:45:57.000Z</time>
      </trkpt>
      <trkpt lat="45.89372" lon="5.6906">
        <ele>410.39999389648</ele>
        <time>2023-05-19T10:45:58.000Z</time>
      </trkpt>
      <trkpt lat="45.89371" lon="5.69065">
        <ele>410</ele>
        <time>2023-05-19T10:45:59.000Z</time>
      </trkpt>
      <trkpt lat="45.8937" lon="5.69068">
        <ele>409.20001220703</ele>
        <time>2023-05-19T10:46:00.000Z</time>
      </trkpt>
      <trkpt lat="45.89367" lon="5.69072">
        <ele>408.60000610352</ele>
        <time>2023-05-19T10:46:01.000Z</time>
      </trkpt>
      <trkpt lat="45.89364" lon="5.69077">
        <ele>408</ele>
        <time>2023-05-19T10:46:02.000Z</time>
      </trkpt>
      <trkpt lat="45.89357" lon="5.69087">
        <ele>407</ele>
        <time>2023-05-19T10:46:04.000Z</time>
      </trkpt>
      <trkpt lat="45.89346" lon="5.69099">
        <ele>405.39999389648</ele>
        <time>2023-05-19T10:46:07.000Z</time>
      </trkpt>
      <trkpt lat="45.89341" lon="5.69108">
        <ele>403.39999389648</ele>
        <time>2023-05-19T10:46:09.000Z</time>
      </trkpt>
      <trkpt lat="45.8934" lon="5.69114">
        <ele>402</ele>
        <time>2023-05-19T10:46:10.000Z</time>
      </trkpt>
      <trkpt lat="45.89342" lon="5.6912">
        <ele>401.39999389648</ele>
        <time>2023-05-19T10:46:11.000Z</time>
      </trkpt>
      <trkpt lat="45.89344" lon="5.69129">
        <ele>400.60000610352</ele>
        <time>2023-05-19T10:46:12.000Z</time>
      </trkpt>
      <trkpt lat="45.89346" lon="5.69137">
        <ele>400.20001220703</ele>
        <time>2023-05-19T10:46:13.000Z</time>
      </trkpt>
      <trkpt lat="45.89349" lon="5.69149">
        <ele>399.60000610352</ele>
        <time>2023-05-19T10:46:14.000Z</time>
      </trkpt>
      <trkpt lat="45.89351" lon="5.69156">
        <ele>398.79998779297</ele>
        <time>2023-05-19T10:46:15.000Z</time>
      </trkpt>
      <trkpt lat="45.89355" lon="5.69166">
        <ele>398</ele>
        <time>2023-05-19T10:46:16.000Z</time>
      </trkpt>
      <trkpt lat="45.89358" lon="5.69176">
        <ele>396.79998779297</ele>
        <time>2023-05-19T10:46:17.000Z</time>
      </trkpt>
      <trkpt lat="45.8936" lon="5.69197">
        <ele>395.39999389648</ele>
        <time>2023-05-19T10:46:19.000Z</time>
      </trkpt>
      <trkpt lat="45.89362" lon="5.69204">
        <ele>395.20001220703</ele>
        <time>2023-05-19T10:46:20.000Z</time>
      </trkpt>
      <trkpt lat="45.89364" lon="5.69211">
        <ele>394.79998779297</ele>
        <time>2023-05-19T10:46:21.000Z</time>
      </trkpt>
      <trkpt lat="45.89365" lon="5.6922">
        <ele>394.39999389648</ele>
        <time>2023-05-19T10:46:22.000Z</time>
      </trkpt>
      <trkpt lat="45.89363" lon="5.69226">
        <ele>393.39999389648</ele>
        <time>2023-05-19T10:46:23.000Z</time>
      </trkpt>
      <trkpt lat="45.89361" lon="5.6923">
        <ele>392.60000610352</ele>
        <time>2023-05-19T10:46:24.000Z</time>
      </trkpt>
      <trkpt lat="45.89353" lon="5.69238">
        <ele>391.60000610352</ele>
        <time>2023-05-19T10:46:27.000Z</time>
      </trkpt>
      <trkpt lat="45.8934" lon="5.69247">
        <ele>390.20001220703</ele>
        <time>2023-05-19T10:46:30.000Z</time>
      </trkpt>
      <trkpt lat="45.89332" lon="5.69253">
        <ele>389</ele>
        <time>2023-05-19T10:46:32.000Z</time>
      </trkpt>
      <trkpt lat="45.89328" lon="5.69255">
        <ele>388.60000610352</ele>
        <time>2023-05-19T10:46:33.000Z</time>
      </trkpt>
      <trkpt lat="45.89316" lon="5.69263">
        <ele>388.20001220703</ele>
        <time>2023-05-19T10:46:37.000Z</time>
      </trkpt>
      <trkpt lat="45.89306" lon="5.69273">
        <ele>388.20001220703</ele>
        <time>2023-05-19T10:46:40.000Z</time>
      </trkpt>
      <trkpt lat="45.89302" lon="5.6929">
        <ele>388.60000610352</ele>
        <time>2023-05-19T10:46:44.000Z</time>
      </trkpt>
      <trkpt lat="45.89302" lon="5.69306">
        <ele>389.20001220703</ele>
        <time>2023-05-19T10:46:49.000Z</time>
      </trkpt>
      <trkpt lat="45.89301" lon="5.69323">
        <ele>390.20001220703</ele>
        <time>2023-05-19T10:46:54.000Z</time>
      </trkpt>
      <trkpt lat="45.893" lon="5.69329">
        <ele>390.60000610352</ele>
        <time>2023-05-19T10:46:56.000Z</time>
      </trkpt>
      <trkpt lat="45.89299" lon="5.69344">
        <ele>391.39999389648</ele>
        <time>2023-05-19T10:47:01.000Z</time>
      </trkpt>
      <trkpt lat="45.89298" lon="5.69356">
        <ele>392.20001220703</ele>
        <time>2023-05-19T10:47:05.000Z</time>
      </trkpt>
      <trkpt lat="45.89297" lon="5.69361">
        <ele>392.60000610352</ele>
        <time>2023-05-19T10:47:07.000Z</time>
      </trkpt>
      <trkpt lat="45.89295" lon="5.69375">
        <ele>393.39999389648</ele>
        <time>2023-05-19T10:47:12.000Z</time>
      </trkpt>
      <trkpt lat="45.89295" lon="5.69378">
        <ele>393.60000610352</ele>
        <time>2023-05-19T10:47:13.000Z</time>
      </trkpt>
      <trkpt lat="45.89292" lon="5.69391">
        <ele>394.79998779297</ele>
        <time>2023-05-19T10:47:18.000Z</time>
      </trkpt>
      <trkpt lat="45.89291" lon="5.69396">
        <ele>395.20001220703</ele>
        <time>2023-05-19T10:47:20.000Z</time>
      </trkpt>
      <trkpt lat="45.8929" lon="5.69404">
        <ele>395.79998779297</ele>
        <time>2023-05-19T10:47:23.000Z</time>
      </trkpt>
      <trkpt lat="45.89288" lon="5.69413">
        <ele>397.39999389648</ele>
        <time>2023-05-19T10:47:27.000Z</time>
      </trkpt>
      <trkpt lat="45.89288" lon="5.69416">
        <ele>397.60000610352</ele>
        <time>2023-05-19T10:47:28.000Z</time>
      </trkpt>
      <trkpt lat="45.89287" lon="5.69426">
        <ele>398.60000610352</ele>
        <time>2023-05-19T10:47:31.000Z</time>
      </trkpt>
      <trkpt lat="45.89286" lon="5.69434">
        <ele>399.60000610352</ele>
        <time>2023-05-19T10:47:34.000Z</time>
      </trkpt>
      <trkpt lat="45.89284" lon="5.69444">
        <ele>400.79998779297</ele>
        <time>2023-05-19T10:47:38.000Z</time>
      </trkpt>
      <trkpt lat="45.89281" lon="5.69451">
        <ele>401.79998779297</ele>
        <time>2023-05-19T10:47:41.000Z</time>
      </trkpt>
      <trkpt lat="45.89277" lon="5.69455">
        <ele>403.20001220703</ele>
        <time>2023-05-19T10:47:45.000Z</time>
      </trkpt>
      <trkpt lat="45.89275" lon="5.69456">
        <ele>404.20001220703</ele>
        <time>2023-05-19T10:47:48.000Z</time>
      </trkpt>
      <trkpt lat="45.89268" lon="5.69457">
        <ele>405.39999389648</ele>
        <time>2023-05-19T10:47:52.000Z</time>
      </trkpt>
      <trkpt lat="45.89266" lon="5.69457">
        <ele>405.79998779297</ele>
        <time>2023-05-19T10:47:53.000Z</time>
      </trkpt>
      <trkpt lat="45.89261" lon="5.69456">
        <ele>406.39999389648</ele>
        <time>2023-05-19T10:47:56.000Z</time>
      </trkpt>
      <trkpt lat="45.89258" lon="5.69454">
        <ele>407.20001220703</ele>
        <time>2023-05-19T10:47:58.000Z</time>
      </trkpt>
      <trkpt lat="45.89257" lon="5.69454">
        <ele>407.39999389648</ele>
        <time>2023-05-19T10:47:59.000Z</time>
      </trkpt>
      <trkpt lat="45.89255" lon="5.69454">
        <ele>407.79998779297</ele>
        <time>2023-05-19T10:48:00.000Z</time>
      </trkpt>
      <trkpt lat="45.89247" lon="5.69453">
        <ele>408.79998779297</ele>
        <time>2023-05-19T10:48:04.000Z</time>
      </trkpt>
      <trkpt lat="45.89243" lon="5.69452">
        <ele>409.60000610352</ele>
        <time>2023-05-19T10:48:07.000Z</time>
      </trkpt>
      <trkpt lat="45.89242" lon="5.69453">
        <ele>409.79998779297</ele>
        <time>2023-05-19T10:48:08.000Z</time>
      </trkpt>
      <trkpt lat="45.89237" lon="5.69452">
        <ele>410.20001220703</ele>
        <time>2023-05-19T10:48:10.000Z</time>
      </trkpt>
      <trkpt lat="45.89235" lon="5.69451">
        <ele>410.39999389648</ele>
        <time>2023-05-19T10:48:11.000Z</time>
      </trkpt>
      <trkpt lat="45.89232" lon="5.69448">
        <ele>410.79998779297</ele>
        <time>2023-05-19T10:48:13.000Z</time>
      </trkpt>
      <trkpt lat="45.89227" lon="5.69448">
        <ele>411.39999389648</ele>
        <time>2023-05-19T10:48:16.000Z</time>
      </trkpt>
      <trkpt lat="45.89222" lon="5.69449">
        <ele>412</ele>
        <time>2023-05-19T10:48:19.000Z</time>
      </trkpt>
      <trkpt lat="45.89215" lon="5.69448">
        <ele>413</ele>
        <time>2023-05-19T10:48:24.000Z</time>
      </trkpt>
      <trkpt lat="45.89214" lon="5.69449">
        <ele>413.20001220703</ele>
        <time>2023-05-19T10:48:25.000Z</time>
      </trkpt>
      <trkpt lat="45.89212" lon="5.69451">
        <ele>413.60000610352</ele>
        <time>2023-05-19T10:48:27.000Z</time>
      </trkpt>
      <trkpt lat="45.89208" lon="5.6945">
        <ele>414.20001220703</ele>
        <time>2023-05-19T10:48:30.000Z</time>
      </trkpt>
      <trkpt lat="45.89206" lon="5.6945">
        <ele>414.20001220703</ele>
        <time>2023-05-19T10:48:31.000Z</time>
      </trkpt>
      <trkpt lat="45.89198" lon="5.6945">
        <ele>415.20001220703</ele>
        <time>2023-05-19T10:48:36.000Z</time>
      </trkpt>
      <trkpt lat="45.89196" lon="5.6945">
        <ele>415.39999389648</ele>
        <time>2023-05-19T10:48:37.000Z</time>
      </trkpt>
      <trkpt lat="45.89193" lon="5.6945">
        <ele>415.39999389648</ele>
        <time>2023-05-19T10:48:38.000Z</time>
      </trkpt>
      <trkpt lat="45.89188" lon="5.69451">
        <ele>415.79998779297</ele>
        <time>2023-05-19T10:48:41.000Z</time>
      </trkpt>
      <trkpt lat="45.89186" lon="5.69451">
        <ele>416</ele>
        <time>2023-05-19T10:48:43.000Z</time>
      </trkpt>
      <trkpt lat="45.89181" lon="5.6945">
        <ele>416.39999389648</ele>
        <time>2023-05-19T10:48:46.000Z</time>
      </trkpt>
      <trkpt lat="45.89173" lon="5.69451">
        <ele>416.79998779297</ele>
        <time>2023-05-19T10:48:50.000Z</time>
      </trkpt>
      <trkpt lat="45.89169" lon="5.69454">
        <ele>417.20001220703</ele>
        <time>2023-05-19T10:48:53.000Z</time>
      </trkpt>
      <trkpt lat="45.89166" lon="5.69454">
        <ele>417.39999389648</ele>
        <time>2023-05-19T10:48:55.000Z</time>
      </trkpt>
      <trkpt lat="45.8916" lon="5.69455">
        <ele>418</ele>
        <time>2023-05-19T10:49:00.000Z</time>
      </trkpt>
      <trkpt lat="45.89156" lon="5.69454">
        <ele>418.60000610352</ele>
        <time>2023-05-19T10:49:03.000Z</time>
      </trkpt>
      <trkpt lat="45.89155" lon="5.69451">
        <ele>419.20001220703</ele>
        <time>2023-05-19T10:49:06.000Z</time>
      </trkpt>
      <trkpt lat="45.89148" lon="5.69447">
        <ele>419.79998779297</ele>
        <time>2023-05-19T10:49:11.000Z</time>
      </trkpt>
      <trkpt lat="45.89141" lon="5.69446">
        <ele>421</ele>
        <time>2023-05-19T10:49:15.000Z</time>
      </trkpt>
      <trkpt lat="45.89138" lon="5.69444">
        <ele>421.20001220703</ele>
        <time>2023-05-19T10:49:17.000Z</time>
      </trkpt>
      <trkpt lat="45.8913" lon="5.69441">
        <ele>422.20001220703</ele>
        <time>2023-05-19T10:49:22.000Z</time>
      </trkpt>
      <trkpt lat="45.89127" lon="5.69437">
        <ele>422.79998779297</ele>
        <time>2023-05-19T10:49:25.000Z</time>
      </trkpt>
      <trkpt lat="45.89124" lon="5.69435">
        <ele>423.20001220703</ele>
        <time>2023-05-19T10:49:27.000Z</time>
      </trkpt>
      <trkpt lat="45.89115" lon="5.69427">
        <ele>424.39999389648</ele>
        <time>2023-05-19T10:49:34.000Z</time>
      </trkpt>
      <trkpt lat="45.8911" lon="5.69422">
        <ele>425.20001220703</ele>
        <time>2023-05-19T10:49:40.000Z</time>
      </trkpt>
      <trkpt lat="45.89107" lon="5.6942">
        <ele>425.39999389648</ele>
        <time>2023-05-19T10:49:42.000Z</time>
      </trkpt>
      <trkpt lat="45.89106" lon="5.69419">
        <ele>425.39999389648</ele>
        <time>2023-05-19T10:49:43.000Z</time>
      </trkpt>
      <trkpt lat="45.89096" lon="5.69415">
        <ele>426.20001220703</ele>
        <time>2023-05-19T10:49:49.000Z</time>
      </trkpt>
      <trkpt lat="45.8909" lon="5.69411">
        <ele>426.79998779297</ele>
        <time>2023-05-19T10:49:52.000Z</time>
      </trkpt>
      <trkpt lat="45.8908" lon="5.69406">
        <ele>427.60000610352</ele>
        <time>2023-05-19T10:49:57.000Z</time>
      </trkpt>
      <trkpt lat="45.89077" lon="5.69404">
        <ele>427.79998779297</ele>
        <time>2023-05-19T10:49:59.000Z</time>
      </trkpt>
      <trkpt lat="45.89059" lon="5.694">
        <ele>428.79998779297</ele>
        <time>2023-05-19T10:50:07.000Z</time>
      </trkpt>
      <trkpt lat="45.89058" lon="5.694">
        <ele>429</ele>
        <time>2023-05-19T10:50:08.000Z</time>
      </trkpt>
      <trkpt lat="45.89052" lon="5.694">
        <ele>430</ele>
        <time>2023-05-19T10:50:13.000Z</time>
      </trkpt>
      <trkpt lat="45.89051" lon="5.694">
        <ele>430.39999389648</ele>
        <time>2023-05-19T10:50:14.000Z</time>
      </trkpt>
      <trkpt lat="45.89043" lon="5.69405">
        <ele>431.20001220703</ele>
        <time>2023-05-19T10:50:19.000Z</time>
      </trkpt>
      <trkpt lat="45.89043" lon="5.69407">
        <ele>431.39999389648</ele>
        <time>2023-05-19T10:50:20.000Z</time>
      </trkpt>
      <trkpt lat="45.89042" lon="5.69409">
        <ele>431.60000610352</ele>
        <time>2023-05-19T10:50:21.000Z</time>
      </trkpt>
      <trkpt lat="45.89037" lon="5.69417">
        <ele>432.60000610352</ele>
        <time>2023-05-19T10:50:25.000Z</time>
      </trkpt>
      <trkpt lat="45.89032" lon="5.69426">
        <ele>433.60000610352</ele>
        <time>2023-05-19T10:50:30.000Z</time>
      </trkpt>
      <trkpt lat="45.89031" lon="5.69438">
        <ele>434.60000610352</ele>
        <time>2023-05-19T10:50:35.000Z</time>
      </trkpt>
      <trkpt lat="45.8903" lon="5.69445">
        <ele>435.20001220703</ele>
        <time>2023-05-19T10:50:38.000Z</time>
      </trkpt>
      <trkpt lat="45.8903" lon="5.69449">
        <ele>435.79998779297</ele>
        <time>2023-05-19T10:50:40.000Z</time>
      </trkpt>
      <trkpt lat="45.8903" lon="5.69459">
        <ele>436.60000610352</ele>
        <time>2023-05-19T10:50:44.000Z</time>
      </trkpt>
      <trkpt lat="45.89031" lon="5.69464">
        <ele>437</ele>
        <time>2023-05-19T10:50:46.000Z</time>
      </trkpt>
      <trkpt lat="45.89031" lon="5.69475">
        <ele>438</ele>
        <time>2023-05-19T10:50:51.000Z</time>
      </trkpt>
      <trkpt lat="45.89031" lon="5.69478">
        <ele>438.20001220703</ele>
        <time>2023-05-19T10:50:52.000Z</time>
      </trkpt>
      <trkpt lat="45.89032" lon="5.69484">
        <ele>439</ele>
        <time>2023-05-19T10:50:55.000Z</time>
      </trkpt>
      <trkpt lat="45.89032" lon="5.69486">
        <ele>439.39999389648</ele>
        <time>2023-05-19T10:50:56.000Z</time>
      </trkpt>
      <trkpt lat="45.89032" lon="5.69497">
        <ele>440.79998779297</ele>
        <time>2023-05-19T10:51:01.000Z</time>
      </trkpt>
      <trkpt lat="45.89032" lon="5.695">
        <ele>441</ele>
        <time>2023-05-19T10:51:02.000Z</time>
      </trkpt>
      <trkpt lat="45.89031" lon="5.6951">
        <ele>442</ele>
        <time>2023-05-19T10:51:07.000Z</time>
      </trkpt>
      <trkpt lat="45.89033" lon="5.69524">
        <ele>442.79998779297</ele>
        <time>2023-05-19T10:51:13.000Z</time>
      </trkpt>
      <trkpt lat="45.89033" lon="5.69526">
        <ele>443</ele>
        <time>2023-05-19T10:51:14.000Z</time>
      </trkpt>
      <trkpt lat="45.89035" lon="5.69537">
        <ele>444</ele>
        <time>2023-05-19T10:51:19.000Z</time>
      </trkpt>
      <trkpt lat="45.89035" lon="5.69539">
        <ele>444.20001220703</ele>
        <time>2023-05-19T10:51:20.000Z</time>
      </trkpt>
      <trkpt lat="45.89033" lon="5.69549">
        <ele>445.20001220703</ele>
        <time>2023-05-19T10:51:24.000Z</time>
      </trkpt>
      <trkpt lat="45.89031" lon="5.69553">
        <ele>445.39999389648</ele>
        <time>2023-05-19T10:51:26.000Z</time>
      </trkpt>
      <trkpt lat="45.89024" lon="5.69555">
        <ele>446.39999389648</ele>
        <time>2023-05-19T10:51:29.000Z</time>
      </trkpt>
      <trkpt lat="45.89019" lon="5.69554">
        <ele>446.39999389648</ele>
        <time>2023-05-19T10:51:31.000Z</time>
      </trkpt>
      <trkpt lat="45.89007" lon="5.69551">
        <ele>446.20001220703</ele>
        <time>2023-05-19T10:51:37.000Z</time>
      </trkpt>
      <trkpt lat="45.89003" lon="5.6955">
        <ele>445.39999389648</ele>
        <time>2023-05-19T10:51:40.000Z</time>
      </trkpt>
      <trkpt lat="45.89" lon="5.69548">
        <ele>445</ele>
        <time>2023-05-19T10:51:42.000Z</time>
      </trkpt>
      <trkpt lat="45.89003" lon="5.69546">
        <ele>444.60000610352</ele>
        <time>2023-05-19T10:51:44.000Z</time>
      </trkpt>
      <trkpt lat="45.89005" lon="5.69549">
        <ele>444.39999389648</ele>
        <time>2023-05-19T10:51:46.000Z</time>
      </trkpt>
      <trkpt lat="45.89009" lon="5.69553">
        <ele>444.39999389648</ele>
        <time>2023-05-19T10:51:49.000Z</time>
      </trkpt>
      <trkpt lat="45.89012" lon="5.69554">
        <ele>444.39999389648</ele>
        <time>2023-05-19T10:51:51.000Z</time>
      </trkpt>
      <trkpt lat="45.89017" lon="5.69557">
        <ele>444.60000610352</ele>
        <time>2023-05-19T10:51:54.000Z</time>
      </trkpt>
      <trkpt lat="45.89022" lon="5.69558">
        <ele>445</ele>
        <time>2023-05-19T10:51:57.000Z</time>
      </trkpt>
      <trkpt lat="45.89033" lon="5.69561">
        <ele>446.39999389648</ele>
        <time>2023-05-19T10:52:04.000Z</time>
      </trkpt>
      <trkpt lat="45.89036" lon="5.69562">
        <ele>446.60000610352</ele>
        <time>2023-05-19T10:52:06.000Z</time>
      </trkpt>
      <trkpt lat="45.89042" lon="5.69565">
        <ele>447</ele>
        <time>2023-05-19T10:52:09.000Z</time>
      </trkpt>
      <trkpt lat="45.89044" lon="5.69566">
        <ele>447.39999389648</ele>
        <time>2023-05-19T10:52:11.000Z</time>
      </trkpt>
      <trkpt lat="45.89049" lon="5.69572">
        <ele>448</ele>
        <time>2023-05-19T10:52:15.000Z</time>
      </trkpt>
      <trkpt lat="45.89053" lon="5.69577">
        <ele>448.60000610352</ele>
        <time>2023-05-19T10:52:18.000Z</time>
      </trkpt>
      <trkpt lat="45.89056" lon="5.69586">
        <ele>449.20001220703</ele>
        <time>2023-05-19T10:52:22.000Z</time>
      </trkpt>
      <trkpt lat="45.89057" lon="5.69596">
        <ele>449.60000610352</ele>
        <time>2023-05-19T10:52:26.000Z</time>
      </trkpt>
      <trkpt lat="45.89058" lon="5.696">
        <ele>450</ele>
        <time>2023-05-19T10:52:28.000Z</time>
      </trkpt>
      <trkpt lat="45.89056" lon="5.69615">
        <ele>450.79998779297</ele>
        <time>2023-05-19T10:52:34.000Z</time>
      </trkpt>
      <trkpt lat="45.89051" lon="5.6963">
        <ele>452</ele>
        <time>2023-05-19T10:52:40.000Z</time>
      </trkpt>
      <trkpt lat="45.8905" lon="5.69633">
        <ele>452.20001220703</ele>
        <time>2023-05-19T10:52:41.000Z</time>
      </trkpt>
      <trkpt lat="45.89041" lon="5.69654">
        <ele>453</ele>
        <time>2023-05-19T10:52:50.000Z</time>
      </trkpt>
      <trkpt lat="45.8904" lon="5.69659">
        <ele>453.39999389648</ele>
        <time>2023-05-19T10:52:52.000Z</time>
      </trkpt>
      <trkpt lat="45.89035" lon="5.69667">
        <ele>454</ele>
        <time>2023-05-19T10:52:56.000Z</time>
      </trkpt>
      <trkpt lat="45.89032" lon="5.69679">
        <ele>454.79998779297</ele>
        <time>2023-05-19T10:53:01.000Z</time>
      </trkpt>
      <trkpt lat="45.8903" lon="5.69683">
        <ele>455.20001220703</ele>
        <time>2023-05-19T10:53:03.000Z</time>
      </trkpt>
      <trkpt lat="45.89023" lon="5.69695">
        <ele>456.20001220703</ele>
        <time>2023-05-19T10:53:09.000Z</time>
      </trkpt>
      <trkpt lat="45.89012" lon="5.69713">
        <ele>457.39999389648</ele>
        <time>2023-05-19T10:53:16.000Z</time>
      </trkpt>
      <trkpt lat="45.89011" lon="5.69715">
        <ele>457.60000610352</ele>
        <time>2023-05-19T10:53:17.000Z</time>
      </trkpt>
      <trkpt lat="45.88999" lon="5.69732">
        <ele>458.39999389648</ele>
        <time>2023-05-19T10:53:23.000Z</time>
      </trkpt>
      <trkpt lat="45.8899" lon="5.69741">
        <ele>459</ele>
        <time>2023-05-19T10:53:27.000Z</time>
      </trkpt>
      <trkpt lat="45.88984" lon="5.69747">
        <ele>459.60000610352</ele>
        <time>2023-05-19T10:53:30.000Z</time>
      </trkpt>
      <trkpt lat="45.88973" lon="5.69755">
        <ele>460.60000610352</ele>
        <time>2023-05-19T10:53:35.000Z</time>
      </trkpt>
      <trkpt lat="45.88969" lon="5.69758">
        <ele>461.20001220703</ele>
        <time>2023-05-19T10:53:37.000Z</time>
      </trkpt>
      <trkpt lat="45.88964" lon="5.69761">
        <ele>461.79998779297</ele>
        <time>2023-05-19T10:53:39.000Z</time>
      </trkpt>
      <trkpt lat="45.88949" lon="5.69772">
        <ele>463</ele>
        <time>2023-05-19T10:53:46.000Z</time>
      </trkpt>
      <trkpt lat="45.88937" lon="5.69797">
        <ele>464</ele>
        <time>2023-05-19T10:53:53.000Z</time>
      </trkpt>
      <trkpt lat="45.88933" lon="5.69829">
        <ele>464.79998779297</ele>
        <time>2023-05-19T10:54:00.000Z</time>
      </trkpt>
      <trkpt lat="45.88932" lon="5.69842">
        <ele>465.20001220703</ele>
        <time>2023-05-19T10:54:03.000Z</time>
      </trkpt>
      <trkpt lat="45.8893" lon="5.69869">
        <ele>466</ele>
        <time>2023-05-19T10:54:09.000Z</time>
      </trkpt>
      <trkpt lat="45.8893" lon="5.69879">
        <ele>466.20001220703</ele>
        <time>2023-05-19T10:54:11.000Z</time>
      </trkpt>
      <trkpt lat="45.88929" lon="5.69902">
        <ele>467.39999389648</ele>
        <time>2023-05-19T10:54:16.000Z</time>
      </trkpt>
      <trkpt lat="45.88929" lon="5.69912">
        <ele>467.60000610352</ele>
        <time>2023-05-19T10:54:18.000Z</time>
      </trkpt>
      <trkpt lat="45.88927" lon="5.69936">
        <ele>468.60000610352</ele>
        <time>2023-05-19T10:54:24.000Z</time>
      </trkpt>
      <trkpt lat="45.88926" lon="5.69959">
        <ele>469</ele>
        <time>2023-05-19T10:54:29.000Z</time>
      </trkpt>
      <trkpt lat="45.88927" lon="5.69967">
        <ele>469.60000610352</ele>
        <time>2023-05-19T10:54:31.000Z</time>
      </trkpt>
      <trkpt lat="45.88923" lon="5.69987">
        <ele>470.60000610352</ele>
        <time>2023-05-19T10:54:36.000Z</time>
      </trkpt>
      <trkpt lat="45.88921" lon="5.69989">
        <ele>470.60000610352</ele>
        <time>2023-05-19T10:54:37.000Z</time>
      </trkpt>
      <trkpt lat="45.88911" lon="5.69991">
        <ele>471.20001220703</ele>
        <time>2023-05-19T10:54:40.000Z</time>
      </trkpt>
      <trkpt lat="45.88887" lon="5.69985">
        <ele>471.60000610352</ele>
        <time>2023-05-19T10:54:48.000Z</time>
      </trkpt>
      <trkpt lat="45.88876" lon="5.69975">
        <ele>471.79998779297</ele>
        <time>2023-05-19T10:54:53.000Z</time>
      </trkpt>
      <trkpt lat="45.8887" lon="5.69968">
        <ele>471.79998779297</ele>
        <time>2023-05-19T10:54:56.000Z</time>
      </trkpt>
      <trkpt lat="45.88864" lon="5.69963">
        <ele>472</ele>
        <time>2023-05-19T10:54:58.000Z</time>
      </trkpt>
      <trkpt lat="45.88844" lon="5.69952">
        <ele>472.39999389648</ele>
        <time>2023-05-19T10:55:04.000Z</time>
      </trkpt>
      <trkpt lat="45.88826" lon="5.69955">
        <ele>472.39999389648</ele>
        <time>2023-05-19T10:55:09.000Z</time>
      </trkpt>
      <trkpt lat="45.88817" lon="5.69966">
        <ele>472.39999389648</ele>
        <time>2023-05-19T10:55:13.000Z</time>
      </trkpt>
      <trkpt lat="45.88809" lon="5.69986">
        <ele>472.60000610352</ele>
        <time>2023-05-19T10:55:18.000Z</time>
      </trkpt>
      <trkpt lat="45.88803" lon="5.70003">
        <ele>473.20001220703</ele>
        <time>2023-05-19T10:55:22.000Z</time>
      </trkpt>
      <trkpt lat="45.888" lon="5.70022">
        <ele>474</ele>
        <time>2023-05-19T10:55:26.000Z</time>
      </trkpt>
      <trkpt lat="45.88799" lon="5.70027">
        <ele>474.39999389648</ele>
        <time>2023-05-19T10:55:27.000Z</time>
      </trkpt>
      <trkpt lat="45.88786" lon="5.70067">
        <ele>475.39999389648</ele>
        <time>2023-05-19T10:55:36.000Z</time>
      </trkpt>
      <trkpt lat="45.8878" lon="5.70085">
        <ele>475.60000610352</ele>
        <time>2023-05-19T10:55:41.000Z</time>
      </trkpt>
      <trkpt lat="45.88765" lon="5.70114">
        <ele>475.60000610352</ele>
        <time>2023-05-19T10:55:49.000Z</time>
      </trkpt>
      <trkpt lat="45.88752" lon="5.70115">
        <ele>475.79998779297</ele>
        <time>2023-05-19T10:55:53.000Z</time>
      </trkpt>
      <trkpt lat="45.88724" lon="5.70114">
        <ele>475.39999389648</ele>
        <time>2023-05-19T10:56:00.000Z</time>
      </trkpt>
      <trkpt lat="45.88715" lon="5.70117">
        <ele>475</ele>
        <time>2023-05-19T10:56:02.000Z</time>
      </trkpt>
      <trkpt lat="45.88709" lon="5.70122">
        <ele>474.39999389648</ele>
        <time>2023-05-19T10:56:04.000Z</time>
      </trkpt>
      <trkpt lat="45.88709" lon="5.70125">
        <ele>474.39999389648</ele>
        <time>2023-05-19T10:56:05.000Z</time>
      </trkpt>
      <trkpt lat="45.88709" lon="5.70137">
        <ele>473.79998779297</ele>
        <time>2023-05-19T10:56:08.000Z</time>
      </trkpt>
      <trkpt lat="45.8871" lon="5.70168">
        <ele>473.39999389648</ele>
        <time>2023-05-19T10:56:14.000Z</time>
      </trkpt>
      <trkpt lat="45.88711" lon="5.70191">
        <ele>473.39999389648</ele>
        <time>2023-05-19T10:56:18.000Z</time>
      </trkpt>
      <trkpt lat="45.88712" lon="5.70203">
        <ele>473.39999389648</ele>
        <time>2023-05-19T10:56:20.000Z</time>
      </trkpt>
      <trkpt lat="45.88711" lon="5.70208">
        <ele>473.20001220703</ele>
        <time>2023-05-19T10:56:21.000Z</time>
      </trkpt>
      <trkpt lat="45.88702" lon="5.7023">
        <ele>473.20001220703</ele>
        <time>2023-05-19T10:56:25.000Z</time>
      </trkpt>
      <trkpt lat="45.88685" lon="5.7026">
        <ele>472.39999389648</ele>
        <time>2023-05-19T10:56:30.000Z</time>
      </trkpt>
      <trkpt lat="45.88678" lon="5.70272">
        <ele>471.79998779297</ele>
        <time>2023-05-19T10:56:32.000Z</time>
      </trkpt>
      <trkpt lat="45.8866" lon="5.703">
        <ele>471</ele>
        <time>2023-05-19T10:56:37.000Z</time>
      </trkpt>
      <trkpt lat="45.88652" lon="5.70312">
        <ele>470.60000610352</ele>
        <time>2023-05-19T10:56:39.000Z</time>
      </trkpt>
      <trkpt lat="45.88635" lon="5.70338">
        <ele>470</ele>
        <time>2023-05-19T10:56:44.000Z</time>
      </trkpt>
      <trkpt lat="45.88622" lon="5.70354">
        <ele>469.39999389648</ele>
        <time>2023-05-19T10:56:47.000Z</time>
      </trkpt>
      <trkpt lat="45.88603" lon="5.70377">
        <ele>469</ele>
        <time>2023-05-19T10:56:51.000Z</time>
      </trkpt>
      <trkpt lat="45.88599" lon="5.70383">
        <ele>468.60000610352</ele>
        <time>2023-05-19T10:56:52.000Z</time>
      </trkpt>
      <trkpt lat="45.88595" lon="5.70389">
        <ele>468</ele>
        <time>2023-05-19T10:56:53.000Z</time>
      </trkpt>
      <trkpt lat="45.88591" lon="5.70398">
        <ele>467.79998779297</ele>
        <time>2023-05-19T10:56:54.000Z</time>
      </trkpt>
      <trkpt lat="45.88584" lon="5.70422">
        <ele>467</ele>
        <time>2023-05-19T10:56:57.000Z</time>
      </trkpt>
      <trkpt lat="45.88582" lon="5.70431">
        <ele>466.79998779297</ele>
        <time>2023-05-19T10:56:58.000Z</time>
      </trkpt>
      <trkpt lat="45.88579" lon="5.7044">
        <ele>466.60000610352</ele>
        <time>2023-05-19T10:56:59.000Z</time>
      </trkpt>
      <trkpt lat="45.8857" lon="5.70459">
        <ele>465.79998779297</ele>
        <time>2023-05-19T10:57:02.000Z</time>
      </trkpt>
      <trkpt lat="45.88564" lon="5.70472">
        <ele>465.60000610352</ele>
        <time>2023-05-19T10:57:04.000Z</time>
      </trkpt>
      <trkpt lat="45.88558" lon="5.70481">
        <ele>465</ele>
        <time>2023-05-19T10:57:07.000Z</time>
      </trkpt>
      <trkpt lat="45.88558" lon="5.70481">
        <ele>464.60000610352</ele>
        <time>2023-05-19T10:57:09.000Z</time>
      </trkpt>
      <trkpt lat="45.88554" lon="5.70486">
        <ele>463.60000610352</ele>
        <time>2023-05-19T10:57:36.000Z</time>
      </trkpt>
      <trkpt lat="45.88545" lon="5.70498">
        <ele>463.39999389648</ele>
        <time>2023-05-19T10:57:41.000Z</time>
      </trkpt>
      <trkpt lat="45.88542" lon="5.70502">
        <ele>462.39999389648</ele>
        <time>2023-05-19T10:57:44.000Z</time>
      </trkpt>
      <trkpt lat="45.88542" lon="5.70502">
        <ele>462.20001220703</ele>
        <time>2023-05-19T10:57:45.000Z</time>
      </trkpt>
      <trkpt lat="45.88542" lon="5.70502">
        <ele>462.20001220703</ele>
        <time>2023-05-19T10:57:46.000Z</time>
      </trkpt>
      <trkpt lat="45.88537" lon="5.70509">
        <ele>462</ele>
        <time>2023-05-19T10:58:23.000Z</time>
      </trkpt>
      <trkpt lat="45.88524" lon="5.70531">
        <ele>462.20001220703</ele>
        <time>2023-05-19T10:58:29.000Z</time>
      </trkpt>
      <trkpt lat="45.88508" lon="5.70562">
        <ele>462</ele>
        <time>2023-05-19T10:58:37.000Z</time>
      </trkpt>
      <trkpt lat="45.885" lon="5.70586">
        <ele>461.39999389648</ele>
        <time>2023-05-19T10:58:41.000Z</time>
      </trkpt>
      <trkpt lat="45.88498" lon="5.70593">
        <ele>461</ele>
        <time>2023-05-19T10:58:42.000Z</time>
      </trkpt>
      <trkpt lat="45.88496" lon="5.70604">
        <ele>461</ele>
        <time>2023-05-19T10:58:43.000Z</time>
      </trkpt>
      <trkpt lat="45.88493" lon="5.7063">
        <ele>459.79998779297</ele>
        <time>2023-05-19T10:58:46.000Z</time>
      </trkpt>
      <trkpt lat="45.88493" lon="5.70639">
        <ele>459</ele>
        <time>2023-05-19T10:58:47.000Z</time>
      </trkpt>
      <trkpt lat="45.88494" lon="5.70649">
        <ele>458.39999389648</ele>
        <time>2023-05-19T10:58:48.000Z</time>
      </trkpt>
      <trkpt lat="45.88494" lon="5.70657">
        <ele>457.79998779297</ele>
        <time>2023-05-19T10:58:49.000Z</time>
      </trkpt>
      <trkpt lat="45.8849" lon="5.70672">
        <ele>457</ele>
        <time>2023-05-19T10:58:51.000Z</time>
      </trkpt>
      <trkpt lat="45.8848" lon="5.7069">
        <ele>456</ele>
        <time>2023-05-19T10:58:53.000Z</time>
      </trkpt>
      <trkpt lat="45.88474" lon="5.70698">
        <ele>455.20001220703</ele>
        <time>2023-05-19T10:58:54.000Z</time>
      </trkpt>
      <trkpt lat="45.88467" lon="5.70706">
        <ele>454.79998779297</ele>
        <time>2023-05-19T10:58:55.000Z</time>
      </trkpt>
      <trkpt lat="45.88456" lon="5.70717">
        <ele>453.60000610352</ele>
        <time>2023-05-19T10:58:57.000Z</time>
      </trkpt>
      <trkpt lat="45.88448" lon="5.70723">
        <ele>452.60000610352</ele>
        <time>2023-05-19T10:58:58.000Z</time>
      </trkpt>
      <trkpt lat="45.88443" lon="5.70727">
        <ele>451.79998779297</ele>
        <time>2023-05-19T10:58:59.000Z</time>
      </trkpt>
      <trkpt lat="45.88437" lon="5.70732">
        <ele>450.60000610352</ele>
        <time>2023-05-19T10:59:00.000Z</time>
      </trkpt>
      <trkpt lat="45.8843" lon="5.70737">
        <ele>449.60000610352</ele>
        <time>2023-05-19T10:59:01.000Z</time>
      </trkpt>
      <trkpt lat="45.88415" lon="5.70748">
        <ele>448.20001220703</ele>
        <time>2023-05-19T10:59:03.000Z</time>
      </trkpt>
      <trkpt lat="45.88407" lon="5.70753">
        <ele>447.60000610352</ele>
        <time>2023-05-19T10:59:04.000Z</time>
      </trkpt>
      <trkpt lat="45.88401" lon="5.70758">
        <ele>446.20001220703</ele>
        <time>2023-05-19T10:59:05.000Z</time>
      </trkpt>
      <trkpt lat="45.88385" lon="5.70768">
        <ele>444.20001220703</ele>
        <time>2023-05-19T10:59:07.000Z</time>
      </trkpt>
      <trkpt lat="45.88376" lon="5.70775">
        <ele>443.39999389648</ele>
        <time>2023-05-19T10:59:08.000Z</time>
      </trkpt>
      <trkpt lat="45.88368" lon="5.70781">
        <ele>442.60000610352</ele>
        <time>2023-05-19T10:59:09.000Z</time>
      </trkpt>
      <trkpt lat="45.88351" lon="5.70793">
        <ele>441.39999389648</ele>
        <time>2023-05-19T10:59:11.000Z</time>
      </trkpt>
      <trkpt lat="45.88333" lon="5.70805">
        <ele>440</ele>
        <time>2023-05-19T10:59:13.000Z</time>
      </trkpt>
      <trkpt lat="45.88323" lon="5.70812">
        <ele>439</ele>
        <time>2023-05-19T10:59:14.000Z</time>
      </trkpt>
      <trkpt lat="45.88313" lon="5.7082">
        <ele>438</ele>
        <time>2023-05-19T10:59:15.000Z</time>
      </trkpt>
      <trkpt lat="45.88297" lon="5.70831">
        <ele>436</ele>
        <time>2023-05-19T10:59:17.000Z</time>
      </trkpt>
      <trkpt lat="45.88288" lon="5.70837">
        <ele>434.60000610352</ele>
        <time>2023-05-19T10:59:18.000Z</time>
      </trkpt>
      <trkpt lat="45.88281" lon="5.70842">
        <ele>432.79998779297</ele>
        <time>2023-05-19T10:59:19.000Z</time>
      </trkpt>
      <trkpt lat="45.88268" lon="5.70851">
        <ele>431.39999389648</ele>
        <time>2023-05-19T10:59:21.000Z</time>
      </trkpt>
      <trkpt lat="45.88263" lon="5.70856">
        <ele>429.39999389648</ele>
        <time>2023-05-19T10:59:22.000Z</time>
      </trkpt>
      <trkpt lat="45.88258" lon="5.70861">
        <ele>428.79998779297</ele>
        <time>2023-05-19T10:59:23.000Z</time>
      </trkpt>
      <trkpt lat="45.88255" lon="5.70866">
        <ele>427.79998779297</ele>
        <time>2023-05-19T10:59:24.000Z</time>
      </trkpt>
      <trkpt lat="45.8825" lon="5.70875">
        <ele>425.39999389648</ele>
        <time>2023-05-19T10:59:26.000Z</time>
      </trkpt>
      <trkpt lat="45.88246" lon="5.70878">
        <ele>424.79998779297</ele>
        <time>2023-05-19T10:59:27.000Z</time>
      </trkpt>
      <trkpt lat="45.88243" lon="5.7088">
        <ele>423.39999389648</ele>
        <time>2023-05-19T10:59:28.000Z</time>
      </trkpt>
      <trkpt lat="45.88239" lon="5.7088">
        <ele>422.20001220703</ele>
        <time>2023-05-19T10:59:29.000Z</time>
      </trkpt>
      <trkpt lat="45.88235" lon="5.70879">
        <ele>421.60000610352</ele>
        <time>2023-05-19T10:59:30.000Z</time>
      </trkpt>
      <trkpt lat="45.88232" lon="5.70878">
        <ele>421</ele>
        <time>2023-05-19T10:59:31.000Z</time>
      </trkpt>
      <trkpt lat="45.88214" lon="5.70868">
        <ele>420.60000610352</ele>
        <time>2023-05-19T10:59:36.000Z</time>
      </trkpt>
      <trkpt lat="45.88199" lon="5.70852">
        <ele>421</ele>
        <time>2023-05-19T10:59:42.000Z</time>
      </trkpt>
      <trkpt lat="45.88186" lon="5.70852">
        <ele>421.20001220703</ele>
        <time>2023-05-19T10:59:46.000Z</time>
      </trkpt>
      <trkpt lat="45.88181" lon="5.70852">
        <ele>421.39999389648</ele>
        <time>2023-05-19T10:59:47.000Z</time>
      </trkpt>
      <trkpt lat="45.88167" lon="5.70855">
        <ele>421</ele>
        <time>2023-05-19T10:59:50.000Z</time>
      </trkpt>
      <trkpt lat="45.88154" lon="5.70857">
        <ele>419.79998779297</ele>
        <time>2023-05-19T10:59:53.000Z</time>
      </trkpt>
      <trkpt lat="45.88145" lon="5.7086">
        <ele>419</ele>
        <time>2023-05-19T10:59:55.000Z</time>
      </trkpt>
      <trkpt lat="45.8814" lon="5.70862">
        <ele>418.20001220703</ele>
        <time>2023-05-19T10:59:56.000Z</time>
      </trkpt>
      <trkpt lat="45.88135" lon="5.70862">
        <ele>417.39999389648</ele>
        <time>2023-05-19T10:59:57.000Z</time>
      </trkpt>
      <trkpt lat="45.88128" lon="5.70863">
        <ele>417</ele>
        <time>2023-05-19T10:59:58.000Z</time>
      </trkpt>
      <trkpt lat="45.88116" lon="5.70864">
        <ele>415.79998779297</ele>
        <time>2023-05-19T11:00:00.000Z</time>
      </trkpt>
      <trkpt lat="45.88111" lon="5.70865">
        <ele>415</ele>
        <time>2023-05-19T11:00:01.000Z</time>
      </trkpt>
      <trkpt lat="45.88096" lon="5.70868">
        <ele>414.20001220703</ele>
        <time>2023-05-19T11:00:03.000Z</time>
      </trkpt>
      <trkpt lat="45.88084" lon="5.70873">
        <ele>412.79998779297</ele>
        <time>2023-05-19T11:00:05.000Z</time>
      </trkpt>
      <trkpt lat="45.88078" lon="5.70875">
        <ele>412</ele>
        <time>2023-05-19T11:00:06.000Z</time>
      </trkpt>
      <trkpt lat="45.88071" lon="5.70877">
        <ele>411.79998779297</ele>
        <time>2023-05-19T11:00:07.000Z</time>
      </trkpt>
      <trkpt lat="45.88064" lon="5.70877">
        <ele>410.79998779297</ele>
        <time>2023-05-19T11:00:08.000Z</time>
      </trkpt>
      <trkpt lat="45.88055" lon="5.70876">
        <ele>410.39999389648</ele>
        <time>2023-05-19T11:00:09.000Z</time>
      </trkpt>
      <trkpt lat="45.88049" lon="5.70875">
        <ele>409</ele>
        <time>2023-05-19T11:00:10.000Z</time>
      </trkpt>
      <trkpt lat="45.88035" lon="5.70872">
        <ele>407.79998779297</ele>
        <time>2023-05-19T11:00:12.000Z</time>
      </trkpt>
      <trkpt lat="45.88029" lon="5.70869">
        <ele>406.60000610352</ele>
        <time>2023-05-19T11:00:13.000Z</time>
      </trkpt>
      <trkpt lat="45.88013" lon="5.70869">
        <ele>405.20001220703</ele>
        <time>2023-05-19T11:00:15.000Z</time>
      </trkpt>
      <trkpt lat="45.88008" lon="5.70869">
        <ele>404.60000610352</ele>
        <time>2023-05-19T11:00:16.000Z</time>
      </trkpt>
      <trkpt lat="45.88" lon="5.70868">
        <ele>404</ele>
        <time>2023-05-19T11:00:17.000Z</time>
      </trkpt>
      <trkpt lat="45.87992" lon="5.70867">
        <ele>403.79998779297</ele>
        <time>2023-05-19T11:00:18.000Z</time>
      </trkpt>
      <trkpt lat="45.87977" lon="5.70864">
        <ele>403</ele>
        <time>2023-05-19T11:00:20.000Z</time>
      </trkpt>
      <trkpt lat="45.87969" lon="5.70863">
        <ele>402.60000610352</ele>
        <time>2023-05-19T11:00:21.000Z</time>
      </trkpt>
      <trkpt lat="45.87961" lon="5.70862">
        <ele>401.79998779297</ele>
        <time>2023-05-19T11:00:22.000Z</time>
      </trkpt>
      <trkpt lat="45.8794" lon="5.70852">
        <ele>401</ele>
        <time>2023-05-19T11:00:25.000Z</time>
      </trkpt>
      <trkpt lat="45.87934" lon="5.70849">
        <ele>400</ele>
        <time>2023-05-19T11:00:26.000Z</time>
      </trkpt>
      <trkpt lat="45.87929" lon="5.70849">
        <ele>399.39999389648</ele>
        <time>2023-05-19T11:00:27.000Z</time>
      </trkpt>
      <trkpt lat="45.87925" lon="5.70851">
        <ele>399.20001220703</ele>
        <time>2023-05-19T11:00:28.000Z</time>
      </trkpt>
      <trkpt lat="45.87919" lon="5.70854">
        <ele>398.39999389648</ele>
        <time>2023-05-19T11:00:29.000Z</time>
      </trkpt>
      <trkpt lat="45.87913" lon="5.7086">
        <ele>398</ele>
        <time>2023-05-19T11:00:30.000Z</time>
      </trkpt>
      <trkpt lat="45.87907" lon="5.70862">
        <ele>397.20001220703</ele>
        <time>2023-05-19T11:00:31.000Z</time>
      </trkpt>
      <trkpt lat="45.87889" lon="5.70869">
        <ele>395.60000610352</ele>
        <time>2023-05-19T11:00:34.000Z</time>
      </trkpt>
      <trkpt lat="45.87884" lon="5.70872">
        <ele>395.39999389648</ele>
        <time>2023-05-19T11:00:35.000Z</time>
      </trkpt>
      <trkpt lat="45.87872" lon="5.70877">
        <ele>394.60000610352</ele>
        <time>2023-05-19T11:00:37.000Z</time>
      </trkpt>
      <trkpt lat="45.87866" lon="5.70878">
        <ele>394</ele>
        <time>2023-05-19T11:00:38.000Z</time>
      </trkpt>
      <trkpt lat="45.87854" lon="5.70875">
        <ele>393</ele>
        <time>2023-05-19T11:00:40.000Z</time>
      </trkpt>
      <trkpt lat="45.87843" lon="5.70875">
        <ele>392.20001220703</ele>
        <time>2023-05-19T11:00:42.000Z</time>
      </trkpt>
      <trkpt lat="45.87837" lon="5.70876">
        <ele>391.79998779297</ele>
        <time>2023-05-19T11:00:43.000Z</time>
      </trkpt>
      <trkpt lat="45.87834" lon="5.70878">
        <ele>391.60000610352</ele>
        <time>2023-05-19T11:00:44.000Z</time>
      </trkpt>
      <trkpt lat="45.87829" lon="5.70885">
        <ele>391</ele>
        <time>2023-05-19T11:00:46.000Z</time>
      </trkpt>
      <trkpt lat="45.87828" lon="5.70889">
        <ele>390.60000610352</ele>
        <time>2023-05-19T11:00:47.000Z</time>
      </trkpt>
      <trkpt lat="45.87821" lon="5.70909">
        <ele>389.39999389648</ele>
        <time>2023-05-19T11:00:50.000Z</time>
      </trkpt>
      <trkpt lat="45.87818" lon="5.70916">
        <ele>389</ele>
        <time>2023-05-19T11:00:51.000Z</time>
      </trkpt>
      <trkpt lat="45.87814" lon="5.70922">
        <ele>388.39999389648</ele>
        <time>2023-05-19T11:00:52.000Z</time>
      </trkpt>
      <trkpt lat="45.87802" lon="5.70929">
        <ele>387.39999389648</ele>
        <time>2023-05-19T11:00:55.000Z</time>
      </trkpt>
      <trkpt lat="45.87797" lon="5.70933">
        <ele>386.79998779297</ele>
        <time>2023-05-19T11:00:56.000Z</time>
      </trkpt>
      <trkpt lat="45.87787" lon="5.70937">
        <ele>385.79998779297</ele>
        <time>2023-05-19T11:00:58.000Z</time>
      </trkpt>
      <trkpt lat="45.87778" lon="5.70945">
        <ele>384.39999389648</ele>
        <time>2023-05-19T11:01:00.000Z</time>
      </trkpt>
      <trkpt lat="45.87767" lon="5.70952">
        <ele>383.20001220703</ele>
        <time>2023-05-19T11:01:02.000Z</time>
      </trkpt>
      <trkpt lat="45.87762" lon="5.70953">
        <ele>381.79998779297</ele>
        <time>2023-05-19T11:01:03.000Z</time>
      </trkpt>
      <trkpt lat="45.87758" lon="5.70952">
        <ele>381</ele>
        <time>2023-05-19T11:01:04.000Z</time>
      </trkpt>
      <trkpt lat="45.87755" lon="5.7095">
        <ele>380.60000610352</ele>
        <time>2023-05-19T11:01:05.000Z</time>
      </trkpt>
      <trkpt lat="45.87751" lon="5.70943">
        <ele>379.39999389648</ele>
        <time>2023-05-19T11:01:07.000Z</time>
      </trkpt>
      <trkpt lat="45.87744" lon="5.70935">
        <ele>378</ele>
        <time>2023-05-19T11:01:10.000Z</time>
      </trkpt>
      <trkpt lat="45.87732" lon="5.70919">
        <ele>377.20001220703</ele>
        <time>2023-05-19T11:01:14.000Z</time>
      </trkpt>
      <trkpt lat="45.8773" lon="5.70915">
        <ele>377</ele>
        <time>2023-05-19T11:01:15.000Z</time>
      </trkpt>
      <trkpt lat="45.87718" lon="5.70898">
        <ele>376.39999389648</ele>
        <time>2023-05-19T11:01:21.000Z</time>
      </trkpt>
      <trkpt lat="45.87713" lon="5.70878">
        <ele>376.60000610352</ele>
        <time>2023-05-19T11:01:26.000Z</time>
      </trkpt>
      <trkpt lat="45.87711" lon="5.7086">
        <ele>376.60000610352</ele>
        <time>2023-05-19T11:01:30.000Z</time>
      </trkpt>
      <trkpt lat="45.87711" lon="5.70855">
        <ele>376.79998779297</ele>
        <time>2023-05-19T11:01:31.000Z</time>
      </trkpt>
      <trkpt lat="45.8771" lon="5.70841">
        <ele>377</ele>
        <time>2023-05-19T11:01:36.000Z</time>
      </trkpt>
      <trkpt lat="45.87707" lon="5.70839">
        <ele>377</ele>
        <time>2023-05-19T11:01:38.000Z</time>
      </trkpt>
      <trkpt lat="45.87701" lon="5.70843">
        <ele>377</ele>
        <time>2023-05-19T11:01:41.000Z</time>
      </trkpt>
      <trkpt lat="45.87685" lon="5.70857">
        <ele>375.60000610352</ele>
        <time>2023-05-19T11:01:46.000Z</time>
      </trkpt>
      <trkpt lat="45.87674" lon="5.70862">
        <ele>374.20001220703</ele>
        <time>2023-05-19T11:01:49.000Z</time>
      </trkpt>
      <trkpt lat="45.8767" lon="5.70864">
        <ele>373.20001220703</ele>
        <time>2023-05-19T11:01:50.000Z</time>
      </trkpt>
      <trkpt lat="45.87665" lon="5.7087">
        <ele>372.79998779297</ele>
        <time>2023-05-19T11:01:51.000Z</time>
      </trkpt>
      <trkpt lat="45.87661" lon="5.70876">
        <ele>371.79998779297</ele>
        <time>2023-05-19T11:01:52.000Z</time>
      </trkpt>
      <trkpt lat="45.87655" lon="5.70885">
        <ele>370.79998779297</ele>
        <time>2023-05-19T11:01:54.000Z</time>
      </trkpt>
      <trkpt lat="45.87651" lon="5.70889">
        <ele>369.79998779297</ele>
        <time>2023-05-19T11:01:55.000Z</time>
      </trkpt>
      <trkpt lat="45.87646" lon="5.70891">
        <ele>369.39999389648</ele>
        <time>2023-05-19T11:01:56.000Z</time>
      </trkpt>
      <trkpt lat="45.87635" lon="5.70901">
        <ele>367.79998779297</ele>
        <time>2023-05-19T11:01:59.000Z</time>
      </trkpt>
      <trkpt lat="45.87626" lon="5.70912">
        <ele>366.39999389648</ele>
        <time>2023-05-19T11:02:01.000Z</time>
      </trkpt>
      <trkpt lat="45.87613" lon="5.70918">
        <ele>364.20001220703</ele>
        <time>2023-05-19T11:02:04.000Z</time>
      </trkpt>
      <trkpt lat="45.87609" lon="5.70921">
        <ele>363.79998779297</ele>
        <time>2023-05-19T11:02:05.000Z</time>
      </trkpt>
      <trkpt lat="45.87605" lon="5.70923">
        <ele>363</ele>
        <time>2023-05-19T11:02:06.000Z</time>
      </trkpt>
      <trkpt lat="45.87598" lon="5.70926">
        <ele>361.79998779297</ele>
        <time>2023-05-19T11:02:08.000Z</time>
      </trkpt>
      <trkpt lat="45.87592" lon="5.70924">
        <ele>360.60000610352</ele>
        <time>2023-05-19T11:02:11.000Z</time>
      </trkpt>
      <trkpt lat="45.87586" lon="5.70921">
        <ele>359.79998779297</ele>
        <time>2023-05-19T11:02:14.000Z</time>
      </trkpt>
      <trkpt lat="45.87585" lon="5.7092">
        <ele>359.39999389648</ele>
        <time>2023-05-19T11:02:15.000Z</time>
      </trkpt>
      <trkpt lat="45.87585" lon="5.7092">
        <ele>358.79998779297</ele>
        <time>2023-05-19T11:02:16.000Z</time>
      </trkpt>
      <trkpt lat="45.87585" lon="5.7092">
        <ele>358.20001220703</ele>
        <time>2023-05-19T11:02:17.000Z</time>
      </trkpt>
      <trkpt lat="45.87576" lon="5.70918">
        <ele>350.79998779297</ele>
        <time>2023-05-19T11:02:47.000Z</time>
      </trkpt>
      <trkpt lat="45.8757" lon="5.70919">
        <ele>350.60000610352</ele>
        <time>2023-05-19T11:02:49.000Z</time>
      </trkpt>
      <trkpt lat="45.87559" lon="5.70921">
        <ele>348.60000610352</ele>
        <time>2023-05-19T11:02:52.000Z</time>
      </trkpt>
      <trkpt lat="45.87555" lon="5.70921">
        <ele>347.39999389648</ele>
        <time>2023-05-19T11:02:53.000Z</time>
      </trkpt>
      <trkpt lat="45.87553" lon="5.70921">
        <ele>347</ele>
        <time>2023-05-19T11:02:54.000Z</time>
      </trkpt>
      <trkpt lat="45.8755" lon="5.70921">
        <ele>346</ele>
        <time>2023-05-19T11:02:55.000Z</time>
      </trkpt>
      <trkpt lat="45.87545" lon="5.70922">
        <ele>343.60000610352</ele>
        <time>2023-05-19T11:02:57.000Z</time>
      </trkpt>
      <trkpt lat="45.87541" lon="5.70923">
        <ele>341.79998779297</ele>
        <time>2023-05-19T11:02:59.000Z</time>
      </trkpt>
      <trkpt lat="45.87538" lon="5.70925">
        <ele>340.39999389648</ele>
        <time>2023-05-19T11:03:00.000Z</time>
      </trkpt>
      <trkpt lat="45.87533" lon="5.70926">
        <ele>338.20001220703</ele>
        <time>2023-05-19T11:03:02.000Z</time>
      </trkpt>
      <trkpt lat="45.87527" lon="5.70928">
        <ele>335.60000610352</ele>
        <time>2023-05-19T11:03:04.000Z</time>
      </trkpt>
      <trkpt lat="45.87521" lon="5.70927">
        <ele>334</ele>
        <time>2023-05-19T11:03:06.000Z</time>
      </trkpt>
      <trkpt lat="45.87516" lon="5.70923">
        <ele>332.60000610352</ele>
        <time>2023-05-19T11:03:07.000Z</time>
      </trkpt>
      <trkpt lat="45.87507" lon="5.70918">
        <ele>331</ele>
        <time>2023-05-19T11:03:09.000Z</time>
      </trkpt>
      <trkpt lat="45.875" lon="5.70919">
        <ele>328.79998779297</ele>
        <time>2023-05-19T11:03:11.000Z</time>
      </trkpt>
      <trkpt lat="45.87493" lon="5.7092">
        <ele>327</ele>
        <time>2023-05-19T11:03:13.000Z</time>
      </trkpt>
      <trkpt lat="45.87489" lon="5.7092">
        <ele>325.60000610352</ele>
        <time>2023-05-19T11:03:14.000Z</time>
      </trkpt>
      <trkpt lat="45.87481" lon="5.70922">
        <ele>323</ele>
        <time>2023-05-19T11:03:16.000Z</time>
      </trkpt>
      <trkpt lat="45.87475" lon="5.70923">
        <ele>321</ele>
        <time>2023-05-19T11:03:18.000Z</time>
      </trkpt>
      <trkpt lat="45.87472" lon="5.70922">
        <ele>320.60000610352</ele>
        <time>2023-05-19T11:03:19.000Z</time>
      </trkpt>
      <trkpt lat="45.87466" lon="5.7092">
        <ele>320</ele>
        <time>2023-05-19T11:03:21.000Z</time>
      </trkpt>
      <trkpt lat="45.8746" lon="5.70911">
        <ele>318.60000610352</ele>
        <time>2023-05-19T11:03:23.000Z</time>
      </trkpt>
      <trkpt lat="45.8745" lon="5.70894">
        <ele>317.60000610352</ele>
        <time>2023-05-19T11:03:26.000Z</time>
      </trkpt>
      <trkpt lat="45.87443" lon="5.70883">
        <ele>316.20001220703</ele>
        <time>2023-05-19T11:03:29.000Z</time>
      </trkpt>
      <trkpt lat="45.8744" lon="5.7088">
        <ele>315.20001220703</ele>
        <time>2023-05-19T11:03:30.000Z</time>
      </trkpt>
      <trkpt lat="45.87435" lon="5.70877">
        <ele>313.60000610352</ele>
        <time>2023-05-19T11:03:32.000Z</time>
      </trkpt>
      <trkpt lat="45.87429" lon="5.70874">
        <ele>312.60000610352</ele>
        <time>2023-05-19T11:03:35.000Z</time>
      </trkpt>
      <trkpt lat="45.87427" lon="5.70876">
        <ele>312</ele>
        <time>2023-05-19T11:03:36.000Z</time>
      </trkpt>
      <trkpt lat="45.87426" lon="5.70878">
        <ele>311.39999389648</ele>
        <time>2023-05-19T11:03:37.000Z</time>
      </trkpt>
      <trkpt lat="45.8742" lon="5.70884">
        <ele>310</ele>
        <time>2023-05-19T11:03:39.000Z</time>
      </trkpt>
      <trkpt lat="45.87416" lon="5.70886">
        <ele>308.39999389648</ele>
        <time>2023-05-19T11:03:41.000Z</time>
      </trkpt>
      <trkpt lat="45.87412" lon="5.70888">
        <ele>306.60000610352</ele>
        <time>2023-05-19T11:03:43.000Z</time>
      </trkpt>
      <trkpt lat="45.8741" lon="5.70891">
        <ele>305.39999389648</ele>
        <time>2023-05-19T11:03:44.000Z</time>
      </trkpt>
      <trkpt lat="45.87406" lon="5.70894">
        <ele>304.20001220703</ele>
        <time>2023-05-19T11:03:46.000Z</time>
      </trkpt>
      <trkpt lat="45.87405" lon="5.70896">
        <ele>303.39999389648</ele>
        <time>2023-05-19T11:03:47.000Z</time>
      </trkpt>
      <trkpt lat="45.87403" lon="5.70898">
        <ele>302</ele>
        <time>2023-05-19T11:03:48.000Z</time>
      </trkpt>
      <trkpt lat="45.87402" lon="5.70899">
        <ele>301.39999389648</ele>
        <time>2023-05-19T11:03:49.000Z</time>
      </trkpt>
      <trkpt lat="45.874" lon="5.70901">
        <ele>300.60000610352</ele>
        <time>2023-05-19T11:03:50.000Z</time>
      </trkpt>
      <trkpt lat="45.87399" lon="5.70906">
        <ele>299.60000610352</ele>
        <time>2023-05-19T11:03:51.000Z</time>
      </trkpt>
      <trkpt lat="45.87395" lon="5.70915">
        <ele>298</ele>
        <time>2023-05-19T11:03:53.000Z</time>
      </trkpt>
      <trkpt lat="45.87393" lon="5.70919">
        <ele>297.20001220703</ele>
        <time>2023-05-19T11:03:54.000Z</time>
      </trkpt>
      <trkpt lat="45.87392" lon="5.70922">
        <ele>295.79998779297</ele>
        <time>2023-05-19T11:03:55.000Z</time>
      </trkpt>
      <trkpt lat="45.87389" lon="5.70928">
        <ele>294.39999389648</ele>
        <time>2023-05-19T11:03:57.000Z</time>
      </trkpt>
      <trkpt lat="45.87386" lon="5.70929">
        <ele>294</ele>
        <time>2023-05-19T11:03:58.000Z</time>
      </trkpt>
      <trkpt lat="45.87384" lon="5.70931">
        <ele>293</ele>
        <time>2023-05-19T11:03:59.000Z</time>
      </trkpt>
      <trkpt lat="45.87378" lon="5.70935">
        <ele>291.79998779297</ele>
        <time>2023-05-19T11:04:01.000Z</time>
      </trkpt>
      <trkpt lat="45.87372" lon="5.70936">
        <ele>290.79998779297</ele>
        <time>2023-05-19T11:04:03.000Z</time>
      </trkpt>
      <trkpt lat="45.87365" lon="5.70936">
        <ele>289.60000610352</ele>
        <time>2023-05-19T11:04:05.000Z</time>
      </trkpt>
      <trkpt lat="45.87362" lon="5.70938">
        <ele>288.20001220703</ele>
        <time>2023-05-19T11:04:06.000Z</time>
      </trkpt>
      <trkpt lat="45.8736" lon="5.70938">
        <ele>287.60000610352</ele>
        <time>2023-05-19T11:04:07.000Z</time>
      </trkpt>
      <trkpt lat="45.87355" lon="5.70938">
        <ele>286.39999389648</ele>
        <time>2023-05-19T11:04:09.000Z</time>
      </trkpt>
      <trkpt lat="45.8735" lon="5.70939">
        <ele>285.20001220703</ele>
        <time>2023-05-19T11:04:11.000Z</time>
      </trkpt>
      <trkpt lat="45.87346" lon="5.70938">
        <ele>284</ele>
        <time>2023-05-19T11:04:13.000Z</time>
      </trkpt>
      <trkpt lat="45.87342" lon="5.70933">
        <ele>283</ele>
        <time>2023-05-19T11:04:15.000Z</time>
      </trkpt>
      <trkpt lat="45.87339" lon="5.70929">
        <ele>281.79998779297</ele>
        <time>2023-05-19T11:04:17.000Z</time>
      </trkpt>
      <trkpt lat="45.87335" lon="5.70921">
        <ele>280.60000610352</ele>
        <time>2023-05-19T11:04:19.000Z</time>
      </trkpt>
      <trkpt lat="45.87333" lon="5.70916">
        <ele>279.60000610352</ele>
        <time>2023-05-19T11:04:21.000Z</time>
      </trkpt>
      <trkpt lat="45.87331" lon="5.7091">
        <ele>278.60000610352</ele>
        <time>2023-05-19T11:04:23.000Z</time>
      </trkpt>
      <trkpt lat="45.8733" lon="5.70909">
        <ele>278.39999389648</ele>
        <time>2023-05-19T11:04:24.000Z</time>
      </trkpt>
      <trkpt lat="45.87331" lon="5.70907">
        <ele>277.20001220703</ele>
        <time>2023-05-19T11:04:27.000Z</time>
      </trkpt>
      <trkpt lat="45.87331" lon="5.70907">
        <ele>276.60000610352</ele>
        <time>2023-05-19T11:04:28.000Z</time>
      </trkpt>
      <trkpt lat="45.87326" lon="5.70898">
        <ele>275.39999389648</ele>
        <time>2023-05-19T11:04:38.000Z</time>
      </trkpt>
      <trkpt lat="45.87324" lon="5.70893">
        <ele>275.20001220703</ele>
        <time>2023-05-19T11:04:40.000Z</time>
      </trkpt>
      <trkpt lat="45.87312" lon="5.70883">
        <ele>274.20001220703</ele>
        <time>2023-05-19T11:04:44.000Z</time>
      </trkpt>
      <trkpt lat="45.87302" lon="5.70871">
        <ele>272.60000610352</ele>
        <time>2023-05-19T11:04:48.000Z</time>
      </trkpt>
      <trkpt lat="45.87302" lon="5.70867">
        <ele>272.20001220703</ele>
        <time>2023-05-19T11:04:49.000Z</time>
      </trkpt>
      <trkpt lat="45.87303" lon="5.70863">
        <ele>271</ele>
        <time>2023-05-19T11:04:50.000Z</time>
      </trkpt>
      <trkpt lat="45.87304" lon="5.70858">
        <ele>269.79998779297</ele>
        <time>2023-05-19T11:04:52.000Z</time>
      </trkpt>
      <trkpt lat="45.87304" lon="5.70856">
        <ele>269.20001220703</ele>
        <time>2023-05-19T11:04:53.000Z</time>
      </trkpt>
      <trkpt lat="45.87304" lon="5.70854">
        <ele>269</ele>
        <time>2023-05-19T11:04:54.000Z</time>
      </trkpt>
      <trkpt lat="45.87303" lon="5.70851">
        <ele>268.79998779297</ele>
        <time>2023-05-19T11:04:55.000Z</time>
      </trkpt>
      <trkpt lat="45.873" lon="5.70845">
        <ele>268.60000610352</ele>
        <time>2023-05-19T11:04:57.000Z</time>
      </trkpt>
      <trkpt lat="45.87293" lon="5.70836">
        <ele>268.60000610352</ele>
        <time>2023-05-19T11:04:59.000Z</time>
      </trkpt>
      <trkpt lat="45.8729" lon="5.70829">
        <ele>268.39999389648</ele>
        <time>2023-05-19T11:05:00.000Z</time>
      </trkpt>
      <trkpt lat="45.87288" lon="5.70822">
        <ele>268.20001220703</ele>
        <time>2023-05-19T11:05:01.000Z</time>
      </trkpt>
      <trkpt lat="45.87284" lon="5.70806">
        <ele>267.60000610352</ele>
        <time>2023-05-19T11:05:03.000Z</time>
      </trkpt>
      <trkpt lat="45.87283" lon="5.70797">
        <ele>267.39999389648</ele>
        <time>2023-05-19T11:05:04.000Z</time>
      </trkpt>
      <trkpt lat="45.87282" lon="5.70788">
        <ele>266.20001220703</ele>
        <time>2023-05-19T11:05:05.000Z</time>
      </trkpt>
      <trkpt lat="45.8728" lon="5.70778">
        <ele>265.60000610352</ele>
        <time>2023-05-19T11:05:06.000Z</time>
      </trkpt>
      <trkpt lat="45.87278" lon="5.70768">
        <ele>264.20001220703</ele>
        <time>2023-05-19T11:05:07.000Z</time>
      </trkpt>
      <trkpt lat="45.87274" lon="5.70758">
        <ele>263.39999389648</ele>
        <time>2023-05-19T11:05:08.000Z</time>
      </trkpt>
      <trkpt lat="45.87268" lon="5.7075">
        <ele>262.39999389648</ele>
        <time>2023-05-19T11:05:09.000Z</time>
      </trkpt>
      <trkpt lat="45.87262" lon="5.70744">
        <ele>261.79998779297</ele>
        <time>2023-05-19T11:05:10.000Z</time>
      </trkpt>
      <trkpt lat="45.87254" lon="5.70739">
        <ele>261</ele>
        <time>2023-05-19T11:05:11.000Z</time>
      </trkpt>
      <trkpt lat="45.87247" lon="5.70735">
        <ele>259.79998779297</ele>
        <time>2023-05-19T11:05:12.000Z</time>
      </trkpt>
      <trkpt lat="45.87235" lon="5.70728">
        <ele>258.60000610352</ele>
        <time>2023-05-19T11:05:14.000Z</time>
      </trkpt>
      <trkpt lat="45.87228" lon="5.70724">
        <ele>257.79998779297</ele>
        <time>2023-05-19T11:05:16.000Z</time>
      </trkpt>
      <trkpt lat="45.87227" lon="5.70722">
        <ele>257.60000610352</ele>
        <time>2023-05-19T11:05:17.000Z</time>
      </trkpt>
      <trkpt lat="45.87225" lon="5.7072">
        <ele>256.60000610352</ele>
        <time>2023-05-19T11:05:19.000Z</time>
      </trkpt>
      <trkpt lat="45.87225" lon="5.7072">
        <ele>256.39999389648</ele>
        <time>2023-05-19T11:05:20.000Z</time>
      </trkpt>
      <trkpt lat="45.87225" lon="5.7072">
        <ele>256.20001220703</ele>
        <time>2023-05-19T11:05:21.000Z</time>
      </trkpt>
      <trkpt lat="45.87223" lon="5.70717">
        <ele>255.39999389648</ele>
        <time>2023-05-19T11:05:41.000Z</time>
      </trkpt>
      <trkpt lat="45.87221" lon="5.70717">
        <ele>255.39999389648</ele>
        <time>2023-05-19T11:05:42.000Z</time>
      </trkpt>
      <trkpt lat="45.87207" lon="5.70718">
        <ele>255.39999389648</ele>
        <time>2023-05-19T11:05:46.000Z</time>
      </trkpt>
      <trkpt lat="45.87182" lon="5.70729">
        <ele>255.19999694824</ele>
        <time>2023-05-19T11:05:53.000Z</time>
      </trkpt>
      <trkpt lat="45.87169" lon="5.7075">
        <ele>255</ele>
        <time>2023-05-19T11:05:59.000Z</time>
      </trkpt>
      <trkpt lat="45.87161" lon="5.70775">
        <ele>255.80000305176</ele>
        <time>2023-05-19T11:06:05.000Z</time>
      </trkpt>
      <trkpt lat="45.87152" lon="5.70805">
        <ele>256.39999389648</ele>
        <time>2023-05-19T11:06:13.000Z</time>
      </trkpt>
      <trkpt lat="45.87151" lon="5.70808">
        <ele>256.60000610352</ele>
        <time>2023-05-19T11:06:14.000Z</time>
      </trkpt>
      <trkpt lat="45.87143" lon="5.7083">
        <ele>257.60000610352</ele>
        <time>2023-05-19T11:06:20.000Z</time>
      </trkpt>
      <trkpt lat="45.87142" lon="5.70833">
        <ele>257.79998779297</ele>
        <time>2023-05-19T11:06:21.000Z</time>
      </trkpt>
      <trkpt lat="45.87136" lon="5.70848">
        <ele>258.79998779297</ele>
        <time>2023-05-19T11:06:26.000Z</time>
      </trkpt>
      <trkpt lat="45.87132" lon="5.70855">
        <ele>259</ele>
        <time>2023-05-19T11:06:28.000Z</time>
      </trkpt>
      <trkpt lat="45.87124" lon="5.70859">
        <ele>259.20001220703</ele>
        <time>2023-05-19T11:06:30.000Z</time>
      </trkpt>
      <trkpt lat="45.87116" lon="5.70861">
        <ele>259.20001220703</ele>
        <time>2023-05-19T11:06:32.000Z</time>
      </trkpt>
      <trkpt lat="45.87089" lon="5.70865">
        <ele>258.20001220703</ele>
        <time>2023-05-19T11:06:38.000Z</time>
      </trkpt>
      <trkpt lat="45.87084" lon="5.70865">
        <ele>258.20001220703</ele>
        <time>2023-05-19T11:06:39.000Z</time>
      </trkpt>
      <trkpt lat="45.87079" lon="5.70865">
        <ele>258.20001220703</ele>
        <time>2023-05-19T11:06:40.000Z</time>
      </trkpt>
      <trkpt lat="45.87058" lon="5.7086">
        <ele>258</ele>
        <time>2023-05-19T11:06:45.000Z</time>
      </trkpt>
      <trkpt lat="45.87054" lon="5.70858">
        <ele>257.79998779297</ele>
        <time>2023-05-19T11:06:46.000Z</time>
      </trkpt>
      <trkpt lat="45.87034" lon="5.70851">
        <ele>257.39999389648</ele>
        <time>2023-05-19T11:06:51.000Z</time>
      </trkpt>
      <trkpt lat="45.87016" lon="5.70852">
        <ele>257</ele>
        <time>2023-05-19T11:06:56.000Z</time>
      </trkpt>
      <trkpt lat="45.87014" lon="5.70852">
        <ele>256.79998779297</ele>
        <time>2023-05-19T11:06:57.000Z</time>
      </trkpt>
      <trkpt lat="45.87007" lon="5.70851">
        <ele>256.60000610352</ele>
        <time>2023-05-19T11:07:00.000Z</time>
      </trkpt>
      <trkpt lat="45.86997" lon="5.70848">
        <ele>256.39999389648</ele>
        <time>2023-05-19T11:07:04.000Z</time>
      </trkpt>
      <trkpt lat="45.86983" lon="5.7084">
        <ele>256.20001220703</ele>
        <time>2023-05-19T11:07:10.000Z</time>
      </trkpt>
      <trkpt lat="45.86973" lon="5.70834">
        <ele>256.60000610352</ele>
        <time>2023-05-19T11:07:13.000Z</time>
      </trkpt>
      <trkpt lat="45.86958" lon="5.70827">
        <ele>256.20001220703</ele>
        <time>2023-05-19T11:07:18.000Z</time>
      </trkpt>
      <trkpt lat="45.86948" lon="5.70822">
        <ele>256</ele>
        <time>2023-05-19T11:07:21.000Z</time>
      </trkpt>
      <trkpt lat="45.8694" lon="5.70819">
        <ele>255.80000305176</ele>
        <time>2023-05-19T11:07:23.000Z</time>
      </trkpt>
      <trkpt lat="45.86935" lon="5.70817">
        <ele>255.80000305176</ele>
        <time>2023-05-19T11:07:24.000Z</time>
      </trkpt>
      <trkpt lat="45.86914" lon="5.70809">
        <ele>255.60000610352</ele>
        <time>2023-05-19T11:07:28.000Z</time>
      </trkpt>
      <trkpt lat="45.86902" lon="5.70807">
        <ele>255</ele>
        <time>2023-05-19T11:07:32.000Z</time>
      </trkpt>
      <trkpt lat="45.86876" lon="5.70806">
        <ele>254.80000305176</ele>
        <time>2023-05-19T11:07:39.000Z</time>
      </trkpt>
      <trkpt lat="45.86872" lon="5.70806">
        <ele>254.80000305176</ele>
        <time>2023-05-19T11:07:40.000Z</time>
      </trkpt>
      <trkpt lat="45.8685" lon="5.70813">
        <ele>254.60000610352</ele>
        <time>2023-05-19T11:07:46.000Z</time>
      </trkpt>
      <trkpt lat="45.86823" lon="5.7082">
        <ele>254.19999694824</ele>
        <time>2023-05-19T11:07:54.000Z</time>
      </trkpt>
      <trkpt lat="45.86807" lon="5.70821">
        <ele>254</ele>
        <time>2023-05-19T11:07:59.000Z</time>
      </trkpt>
      <trkpt lat="45.86806" lon="5.7082">
        <ele>254</ele>
        <time>2023-05-19T11:08:00.000Z</time>
      </trkpt>
      <trkpt lat="45.86806" lon="5.7082">
        <ele>253.80000305176</ele>
        <time>2023-05-19T11:08:02.000Z</time>
      </trkpt>
      <trkpt lat="45.86799" lon="5.70818">
        <ele>253.60000610352</ele>
        <time>2023-05-19T11:08:07.000Z</time>
      </trkpt>
      <trkpt lat="45.86782" lon="5.70805">
        <ele>253.19999694824</ele>
        <time>2023-05-19T11:08:14.000Z</time>
      </trkpt>
      <trkpt lat="45.86771" lon="5.7079">
        <ele>252.80000305176</ele>
        <time>2023-05-19T11:08:19.000Z</time>
      </trkpt>
      <trkpt lat="45.86762" lon="5.70779">
        <ele>252.60000610352</ele>
        <time>2023-05-19T11:08:22.000Z</time>
      </trkpt>
      <trkpt lat="45.86752" lon="5.70767">
        <ele>252.19999694824</ele>
        <time>2023-05-19T11:08:27.000Z</time>
      </trkpt>
      <trkpt lat="45.86752" lon="5.70767">
        <ele>252.19999694824</ele>
        <time>2023-05-19T11:08:29.000Z</time>
      </trkpt>
      <trkpt lat="45.86748" lon="5.70761">
        <ele>252.39999389648</ele>
        <time>2023-05-19T11:09:12.000Z</time>
      </trkpt>
      <trkpt lat="45.86746" lon="5.70758">
        <ele>252.39999389648</ele>
        <time>2023-05-19T11:09:13.000Z</time>
      </trkpt>
      <trkpt lat="45.86733" lon="5.70747">
        <ele>252.39999389648</ele>
        <time>2023-05-19T11:09:17.000Z</time>
      </trkpt>
      <trkpt lat="45.86717" lon="5.70724">
        <ele>252.19999694824</ele>
        <time>2023-05-19T11:09:23.000Z</time>
      </trkpt>
      <trkpt lat="45.86698" lon="5.70703">
        <ele>252.19999694824</ele>
        <time>2023-05-19T11:09:29.000Z</time>
      </trkpt>
      <trkpt lat="45.86672" lon="5.70693">
        <ele>252.39999389648</ele>
        <time>2023-05-19T11:09:36.000Z</time>
      </trkpt>
      <trkpt lat="45.86639" lon="5.7068">
        <ele>252.39999389648</ele>
        <time>2023-05-19T11:09:45.000Z</time>
      </trkpt>
      <trkpt lat="45.86625" lon="5.70675">
        <ele>252.19999694824</ele>
        <time>2023-05-19T11:09:49.000Z</time>
      </trkpt>
      <trkpt lat="45.86616" lon="5.70673">
        <ele>252.19999694824</ele>
        <time>2023-05-19T11:09:52.000Z</time>
      </trkpt>
      <trkpt lat="45.86595" lon="5.70661">
        <ele>252</ele>
        <time>2023-05-19T11:09:59.000Z</time>
      </trkpt>
      <trkpt lat="45.86569" lon="5.70639">
        <ele>251.80000305176</ele>
        <time>2023-05-19T11:10:07.000Z</time>
      </trkpt>
      <trkpt lat="45.86546" lon="5.70629">
        <ele>251.60000610352</ele>
        <time>2023-05-19T11:10:13.000Z</time>
      </trkpt>
      <trkpt lat="45.86519" lon="5.70631">
        <ele>251</ele>
        <time>2023-05-19T11:10:18.000Z</time>
      </trkpt>
      <trkpt lat="45.86514" lon="5.70632">
        <ele>250.80000305176</ele>
        <time>2023-05-19T11:10:19.000Z</time>
      </trkpt>
      <trkpt lat="45.865" lon="5.70635">
        <ele>250.39999389648</ele>
        <time>2023-05-19T11:10:22.000Z</time>
      </trkpt>
      <trkpt lat="45.86492" lon="5.70639">
        <ele>250.19999694824</ele>
        <time>2023-05-19T11:10:24.000Z</time>
      </trkpt>
      <trkpt lat="45.86488" lon="5.70642">
        <ele>250</ele>
        <time>2023-05-19T11:10:25.000Z</time>
      </trkpt>
      <trkpt lat="45.86479" lon="5.70651">
        <ele>249.80000305176</ele>
        <time>2023-05-19T11:10:28.000Z</time>
      </trkpt>
      <trkpt lat="45.86453" lon="5.70674">
        <ele>250</ele>
        <time>2023-05-19T11:10:35.000Z</time>
      </trkpt>
      <trkpt lat="45.8643" lon="5.70691">
        <ele>249.80000305176</ele>
        <time>2023-05-19T11:10:41.000Z</time>
      </trkpt>
      <trkpt lat="45.864" lon="5.70719">
        <ele>250</ele>
        <time>2023-05-19T11:10:48.000Z</time>
      </trkpt>
      <trkpt lat="45.86374" lon="5.70746">
        <ele>249.39999389648</ele>
        <time>2023-05-19T11:10:54.000Z</time>
      </trkpt>
      <trkpt lat="45.86371" lon="5.70749">
        <ele>249.39999389648</ele>
        <time>2023-05-19T11:10:55.000Z</time>
      </trkpt>
      <trkpt lat="45.86339" lon="5.70779">
        <ele>249.60000610352</ele>
        <time>2023-05-19T11:11:03.000Z</time>
      </trkpt>
      <trkpt lat="45.86326" lon="5.70787">
        <ele>249.80000305176</ele>
        <time>2023-05-19T11:11:06.000Z</time>
      </trkpt>
      <trkpt lat="45.86319" lon="5.70796">
        <ele>249.80000305176</ele>
        <time>2023-05-19T11:11:08.000Z</time>
      </trkpt>
      <trkpt lat="45.86299" lon="5.70819">
        <ele>249.60000610352</ele>
        <time>2023-05-19T11:11:15.000Z</time>
      </trkpt>
      <trkpt lat="45.86291" lon="5.70837">
        <ele>249.19999694824</ele>
        <time>2023-05-19T11:11:20.000Z</time>
      </trkpt>
      <trkpt lat="45.86292" lon="5.70856">
        <ele>249.19999694824</ele>
        <time>2023-05-19T11:11:24.000Z</time>
      </trkpt>
      <trkpt lat="45.86291" lon="5.70862">
        <ele>249.19999694824</ele>
        <time>2023-05-19T11:11:25.000Z</time>
      </trkpt>
      <trkpt lat="45.86292" lon="5.70895">
        <ele>249</ele>
        <time>2023-05-19T11:11:30.000Z</time>
      </trkpt>
      <trkpt lat="45.86293" lon="5.70906">
        <ele>249.19999694824</ele>
        <time>2023-05-19T11:11:32.000Z</time>
      </trkpt>
      <trkpt lat="45.86291" lon="5.70916">
        <ele>249.19999694824</ele>
        <time>2023-05-19T11:11:34.000Z</time>
      </trkpt>
      <trkpt lat="45.86288" lon="5.70918">
        <ele>249.19999694824</ele>
        <time>2023-05-19T11:11:35.000Z</time>
      </trkpt>
      <trkpt lat="45.86285" lon="5.70919">
        <ele>249.39999389648</ele>
        <time>2023-05-19T11:11:36.000Z</time>
      </trkpt>
      <trkpt lat="45.86277" lon="5.7092">
        <ele>249.60000610352</ele>
        <time>2023-05-19T11:11:39.000Z</time>
      </trkpt>
      <trkpt lat="45.86264" lon="5.70925">
        <ele>249.60000610352</ele>
        <time>2023-05-19T11:11:43.000Z</time>
      </trkpt>
      <trkpt lat="45.86261" lon="5.70927">
        <ele>249.80000305176</ele>
        <time>2023-05-19T11:11:44.000Z</time>
      </trkpt>
      <trkpt lat="45.86249" lon="5.70926">
        <ele>249.80000305176</ele>
        <time>2023-05-19T11:11:48.000Z</time>
      </trkpt>
      <trkpt lat="45.86248" lon="5.70922">
        <ele>249.80000305176</ele>
        <time>2023-05-19T11:11:50.000Z</time>
      </trkpt>
      <trkpt lat="45.86249" lon="5.70919">
        <ele>249.80000305176</ele>
        <time>2023-05-19T11:11:52.000Z</time>
      </trkpt>
      <trkpt lat="45.86259" lon="5.7092">
        <ele>249.60000610352</ele>
        <time>2023-05-19T11:11:57.000Z</time>
      </trkpt>
      <trkpt lat="45.8627" lon="5.70921">
        <ele>249.60000610352</ele>
        <time>2023-05-19T11:12:03.000Z</time>
      </trkpt>
      <trkpt lat="45.86272" lon="5.70921">
        <ele>249.60000610352</ele>
        <time>2023-05-19T11:12:06.000Z</time>
      </trkpt>
      <trkpt lat="45.86285" lon="5.70921">
        <ele>249.39999389648</ele>
        <time>2023-05-19T11:12:15.000Z</time>
      </trkpt>
      <trkpt lat="45.86284" lon="5.70919">
        <ele>249.19999694824</ele>
        <time>2023-05-19T11:12:16.000Z</time>
      </trkpt>
      <trkpt lat="45.86282" lon="5.70918">
        <ele>249.19999694824</ele>
        <time>2023-05-19T11:12:18.000Z</time>
      </trkpt>
      <trkpt lat="45.86278" lon="5.7092">
        <ele>249</ele>
        <time>2023-05-19T11:12:20.000Z</time>
      </trkpt>
      <trkpt lat="45.86267" lon="5.70922">
        <ele>249</ele>
        <time>2023-05-19T11:12:25.000Z</time>
      </trkpt>
      <trkpt lat="45.86251" lon="5.70922">
        <ele>249.19999694824</ele>
        <time>2023-05-19T11:12:29.000Z</time>
      </trkpt>
      <trkpt lat="45.86233" lon="5.70924">
        <ele>250</ele>
        <time>2023-05-19T11:12:35.000Z</time>
      </trkpt>
      <trkpt lat="45.86231" lon="5.70925">
        <ele>250</ele>
        <time>2023-05-19T11:12:36.000Z</time>
      </trkpt>
      <trkpt lat="45.86225" lon="5.70936">
        <ele>250</ele>
        <time>2023-05-19T11:12:39.000Z</time>
      </trkpt>
      <trkpt lat="45.86221" lon="5.70945">
        <ele>250.19999694824</ele>
        <time>2023-05-19T11:12:41.000Z</time>
      </trkpt>
      <trkpt lat="45.86214" lon="5.70961">
        <ele>250.39999389648</ele>
        <time>2023-05-19T11:12:45.000Z</time>
      </trkpt>
      <trkpt lat="45.86204" lon="5.70986">
        <ele>250.60000610352</ele>
        <time>2023-05-19T11:12:50.000Z</time>
      </trkpt>
      <trkpt lat="45.862" lon="5.70998">
        <ele>250.80000305176</ele>
        <time>2023-05-19T11:12:54.000Z</time>
      </trkpt>
      <trkpt lat="45.86189" lon="5.7102">
        <ele>250.60000610352</ele>
        <time>2023-05-19T11:13:00.000Z</time>
      </trkpt>
      <trkpt lat="45.86186" lon="5.71025">
        <ele>250.60000610352</ele>
        <time>2023-05-19T11:13:01.000Z</time>
      </trkpt>
      <trkpt lat="45.86174" lon="5.71047">
        <ele>250.39999389648</ele>
        <time>2023-05-19T11:13:06.000Z</time>
      </trkpt>
      <trkpt lat="45.86162" lon="5.71077">
        <ele>250.39999389648</ele>
        <time>2023-05-19T11:13:12.000Z</time>
      </trkpt>
      <trkpt lat="45.86153" lon="5.71103">
        <ele>250.39999389648</ele>
        <time>2023-05-19T11:13:17.000Z</time>
      </trkpt>
      <trkpt lat="45.86146" lon="5.71123">
        <ele>250.60000610352</ele>
        <time>2023-05-19T11:13:22.000Z</time>
      </trkpt>
      <trkpt lat="45.86135" lon="5.71144">
        <ele>250.60000610352</ele>
        <time>2023-05-19T11:13:27.000Z</time>
      </trkpt>
      <trkpt lat="45.86124" lon="5.7117">
        <ele>250.60000610352</ele>
        <time>2023-05-19T11:13:33.000Z</time>
      </trkpt>
      <trkpt lat="45.86109" lon="5.71197">
        <ele>250.60000610352</ele>
        <time>2023-05-19T11:13:39.000Z</time>
      </trkpt>
      <trkpt lat="45.86099" lon="5.7122">
        <ele>250.39999389648</ele>
        <time>2023-05-19T11:13:44.000Z</time>
      </trkpt>
      <trkpt lat="45.86079" lon="5.71253">
        <ele>250.39999389648</ele>
        <time>2023-05-19T11:13:50.000Z</time>
      </trkpt>
      <trkpt lat="45.8606" lon="5.71283">
        <ele>250.19999694824</ele>
        <time>2023-05-19T11:13:57.000Z</time>
      </trkpt>
      <trkpt lat="45.86041" lon="5.71321">
        <ele>250.39999389648</ele>
        <time>2023-05-19T11:14:04.000Z</time>
      </trkpt>
      <trkpt lat="45.86028" lon="5.71344">
        <ele>250.19999694824</ele>
        <time>2023-05-19T11:14:09.000Z</time>
      </trkpt>
      <trkpt lat="45.86017" lon="5.71369">
        <ele>250</ele>
        <time>2023-05-19T11:14:15.000Z</time>
      </trkpt>
      <trkpt lat="45.86004" lon="5.71391">
        <ele>250.19999694824</ele>
        <time>2023-05-19T11:14:20.000Z</time>
      </trkpt>
      <trkpt lat="45.85998" lon="5.71406">
        <ele>249.80000305176</ele>
        <time>2023-05-19T11:14:24.000Z</time>
      </trkpt>
      <trkpt lat="45.85986" lon="5.71425">
        <ele>250</ele>
        <time>2023-05-19T11:14:29.000Z</time>
      </trkpt>
      <trkpt lat="45.8597" lon="5.71454">
        <ele>250</ele>
        <time>2023-05-19T11:14:35.000Z</time>
      </trkpt>
      <trkpt lat="45.85948" lon="5.71492">
        <ele>249.80000305176</ele>
        <time>2023-05-19T11:14:43.000Z</time>
      </trkpt>
      <trkpt lat="45.85937" lon="5.71522">
        <ele>249.60000610352</ele>
        <time>2023-05-19T11:14:50.000Z</time>
      </trkpt>
      <trkpt lat="45.85935" lon="5.7153">
        <ele>249.39999389648</ele>
        <time>2023-05-19T11:14:53.000Z</time>
      </trkpt>
      <trkpt lat="45.85935" lon="5.7153">
        <ele>249.19999694824</ele>
        <time>2023-05-19T11:14:54.000Z</time>
      </trkpt>
      <trkpt lat="45.85935" lon="5.7153">
        <ele>249.19999694824</ele>
        <time>2023-05-19T11:14:55.000Z</time>
      </trkpt>
      <trkpt lat="45.85934" lon="5.71536">
        <ele>248.80000305176</ele>
        <time>2023-05-19T11:15:02.000Z</time>
      </trkpt>
      <trkpt lat="45.85934" lon="5.71544">
        <ele>248.80000305176</ele>
        <time>2023-05-19T11:15:04.000Z</time>
      </trkpt>
      <trkpt lat="45.85927" lon="5.71582">
        <ele>248.80000305176</ele>
        <time>2023-05-19T11:15:11.000Z</time>
      </trkpt>
      <trkpt lat="45.85922" lon="5.71617">
        <ele>249</ele>
        <time>2023-05-19T11:15:17.000Z</time>
      </trkpt>
      <trkpt lat="45.85911" lon="5.7165">
        <ele>249.19999694824</ele>
        <time>2023-05-19T11:15:24.000Z</time>
      </trkpt>
      <trkpt lat="45.85894" lon="5.71693">
        <ele>249.19999694824</ele>
        <time>2023-05-19T11:15:33.000Z</time>
      </trkpt>
      <trkpt lat="45.85875" lon="5.71733">
        <ele>249</ele>
        <time>2023-05-19T11:15:41.000Z</time>
      </trkpt>
      <trkpt lat="45.8586" lon="5.71757">
        <ele>249.19999694824</ele>
        <time>2023-05-19T11:15:47.000Z</time>
      </trkpt>
      <trkpt lat="45.85843" lon="5.7178">
        <ele>249.19999694824</ele>
        <time>2023-05-19T11:15:53.000Z</time>
      </trkpt>
      <trkpt lat="45.85822" lon="5.71811">
        <ele>249.19999694824</ele>
        <time>2023-05-19T11:16:02.000Z</time>
      </trkpt>
      <trkpt lat="45.8581" lon="5.71831">
        <ele>249.19999694824</ele>
        <time>2023-05-19T11:16:07.000Z</time>
      </trkpt>
      <trkpt lat="45.85789" lon="5.71861">
        <ele>249.19999694824</ele>
        <time>2023-05-19T11:16:14.000Z</time>
      </trkpt>
      <trkpt lat="45.85772" lon="5.71883">
        <ele>249</ele>
        <time>2023-05-19T11:16:20.000Z</time>
      </trkpt>
      <trkpt lat="45.85752" lon="5.71909">
        <ele>248.80000305176</ele>
        <time>2023-05-19T11:16:27.000Z</time>
      </trkpt>
      <trkpt lat="45.85733" lon="5.71933">
        <ele>249</ele>
        <time>2023-05-19T11:16:32.000Z</time>
      </trkpt>
      <trkpt lat="45.85715" lon="5.71955">
        <ele>249</ele>
        <time>2023-05-19T11:16:37.000Z</time>
      </trkpt>
      <trkpt lat="45.85695" lon="5.71971">
        <ele>249.19999694824</ele>
        <time>2023-05-19T11:16:42.000Z</time>
      </trkpt>
      <trkpt lat="45.85673" lon="5.71984">
        <ele>248.80000305176</ele>
        <time>2023-05-19T11:16:48.000Z</time>
      </trkpt>
      <trkpt lat="45.85652" lon="5.72007">
        <ele>248.60000610352</ele>
        <time>2023-05-19T11:16:54.000Z</time>
      </trkpt>
      <trkpt lat="45.85634" lon="5.7202">
        <ele>248.39999389648</ele>
        <time>2023-05-19T11:16:59.000Z</time>
      </trkpt>
      <trkpt lat="45.85623" lon="5.72033">
        <ele>248.19999694824</ele>
        <time>2023-05-19T11:17:02.000Z</time>
      </trkpt>
      <trkpt lat="45.8562" lon="5.72037">
        <ele>248.19999694824</ele>
        <time>2023-05-19T11:17:03.000Z</time>
      </trkpt>
      <trkpt lat="45.856" lon="5.72062">
        <ele>248.60000610352</ele>
        <time>2023-05-19T11:17:09.000Z</time>
      </trkpt>
      <trkpt lat="45.85595" lon="5.72069">
        <ele>248.60000610352</ele>
        <time>2023-05-19T11:17:11.000Z</time>
      </trkpt>
      <trkpt lat="45.85588" lon="5.72082">
        <ele>248.60000610352</ele>
        <time>2023-05-19T11:17:14.000Z</time>
      </trkpt>
      <trkpt lat="45.85582" lon="5.721">
        <ele>248.39999389648</ele>
        <time>2023-05-19T11:17:18.000Z</time>
      </trkpt>
      <trkpt lat="45.85574" lon="5.72118">
        <ele>248.19999694824</ele>
        <time>2023-05-19T11:17:22.000Z</time>
      </trkpt>
      <trkpt lat="45.85562" lon="5.72144">
        <ele>248.19999694824</ele>
        <time>2023-05-19T11:17:28.000Z</time>
      </trkpt>
      <trkpt lat="45.85546" lon="5.72171">
        <ele>248</ele>
        <time>2023-05-19T11:17:34.000Z</time>
      </trkpt>
      <trkpt lat="45.85545" lon="5.72178">
        <ele>247.80000305176</ele>
        <time>2023-05-19T11:17:35.000Z</time>
      </trkpt>
      <trkpt lat="45.8554" lon="5.72214">
        <ele>247.39999389648</ele>
        <time>2023-05-19T11:17:41.000Z</time>
      </trkpt>
      <trkpt lat="45.85538" lon="5.72244">
        <ele>247.19999694824</ele>
        <time>2023-05-19T11:17:46.000Z</time>
      </trkpt>
      <trkpt lat="45.85532" lon="5.72271">
        <ele>247</ele>
        <time>2023-05-19T11:17:51.000Z</time>
      </trkpt>
      <trkpt lat="45.85516" lon="5.72304">
        <ele>246.60000610352</ele>
        <time>2023-05-19T11:17:57.000Z</time>
      </trkpt>
      <trkpt lat="45.85502" lon="5.72329">
        <ele>247</ele>
        <time>2023-05-19T11:18:02.000Z</time>
      </trkpt>
      <trkpt lat="45.85488" lon="5.72346">
        <ele>247.19999694824</ele>
        <time>2023-05-19T11:18:06.000Z</time>
      </trkpt>
      <trkpt lat="45.85488" lon="5.7235">
        <ele>247.19999694824</ele>
        <time>2023-05-19T11:18:07.000Z</time>
      </trkpt>
      <trkpt lat="45.85492" lon="5.72379">
        <ele>246.80000305176</ele>
        <time>2023-05-19T11:18:12.000Z</time>
      </trkpt>
      <trkpt lat="45.85501" lon="5.72411">
        <ele>246.80000305176</ele>
        <time>2023-05-19T11:18:17.000Z</time>
      </trkpt>
      <trkpt lat="45.85506" lon="5.72437">
        <ele>246.60000610352</ele>
        <time>2023-05-19T11:18:21.000Z</time>
      </trkpt>
      <trkpt lat="45.8551" lon="5.72462">
        <ele>246.60000610352</ele>
        <time>2023-05-19T11:18:26.000Z</time>
      </trkpt>
      <trkpt lat="45.855" lon="5.72484">
        <ele>246.60000610352</ele>
        <time>2023-05-19T11:18:30.000Z</time>
      </trkpt>
      <trkpt lat="45.8549" lon="5.72499">
        <ele>246.39999389648</ele>
        <time>2023-05-19T11:18:33.000Z</time>
      </trkpt>
      <trkpt lat="45.85488" lon="5.72503">
        <ele>246.39999389648</ele>
        <time>2023-05-19T11:18:34.000Z</time>
      </trkpt>
      <trkpt lat="45.85479" lon="5.72516">
        <ele>246</ele>
        <time>2023-05-19T11:18:38.000Z</time>
      </trkpt>
      <trkpt lat="45.85474" lon="5.72528">
        <ele>246</ele>
        <time>2023-05-19T11:18:42.000Z</time>
      </trkpt>
      <trkpt lat="45.85467" lon="5.72549">
        <ele>245.80000305176</ele>
        <time>2023-05-19T11:18:48.000Z</time>
      </trkpt>
      <trkpt lat="45.85465" lon="5.72554">
        <ele>245.80000305176</ele>
        <time>2023-05-19T11:18:49.000Z</time>
      </trkpt>
      <trkpt lat="45.85458" lon="5.72561">
        <ele>245.80000305176</ele>
        <time>2023-05-19T11:18:52.000Z</time>
      </trkpt>
      <trkpt lat="45.85448" lon="5.7257">
        <ele>245.19999694824</ele>
        <time>2023-05-19T11:18:56.000Z</time>
      </trkpt>
      <trkpt lat="45.85442" lon="5.7258">
        <ele>245.19999694824</ele>
        <time>2023-05-19T11:18:59.000Z</time>
      </trkpt>
      <trkpt lat="45.85441" lon="5.72582">
        <ele>245</ele>
        <time>2023-05-19T11:19:00.000Z</time>
      </trkpt>
      <trkpt lat="45.8544" lon="5.72582">
        <ele>245</ele>
        <time>2023-05-19T11:19:02.000Z</time>
      </trkpt>
      <trkpt lat="45.8544" lon="5.72582">
        <ele>245</ele>
        <time>2023-05-19T11:19:03.000Z</time>
      </trkpt>
      <trkpt lat="45.85421" lon="5.72614">
        <ele>244.19999694824</ele>
        <time>2023-05-19T11:19:24.000Z</time>
      </trkpt>
      <trkpt lat="45.85416" lon="5.7262">
        <ele>244.19999694824</ele>
        <time>2023-05-19T11:19:26.000Z</time>
      </trkpt>
      <trkpt lat="45.85415" lon="5.72622">
        <ele>244.19999694824</ele>
        <time>2023-05-19T11:19:27.000Z</time>
      </trkpt>
      <trkpt lat="45.85414" lon="5.72623">
        <ele>244.19999694824</ele>
        <time>2023-05-19T11:19:29.000Z</time>
      </trkpt>
      <trkpt lat="45.85412" lon="5.72624">
        <ele>244.39999389648</ele>
        <time>2023-05-19T11:19:37.000Z</time>
      </trkpt>
      <trkpt lat="45.85408" lon="5.72628">
        <ele>244.39999389648</ele>
        <time>2023-05-19T11:19:45.000Z</time>
      </trkpt>
      <trkpt lat="45.85407" lon="5.72629">
        <ele>244.39999389648</ele>
        <time>2023-05-19T11:19:46.000Z</time>
      </trkpt>
      <trkpt lat="45.85404" lon="5.72632">
        <ele>244.39999389648</ele>
        <time>2023-05-19T11:19:48.000Z</time>
      </trkpt>
      <trkpt lat="45.85393" lon="5.72647">
        <ele>244.60000610352</ele>
        <time>2023-05-19T11:19:53.000Z</time>
      </trkpt>
      <trkpt lat="45.85386" lon="5.72663">
        <ele>244.60000610352</ele>
        <time>2023-05-19T11:19:56.000Z</time>
      </trkpt>
      <trkpt lat="45.85383" lon="5.72669">
        <ele>244.80000305176</ele>
        <time>2023-05-19T11:19:58.000Z</time>
      </trkpt>
      <trkpt lat="45.8537" lon="5.72692">
        <ele>244.60000610352</ele>
        <time>2023-05-19T11:20:05.000Z</time>
      </trkpt>
      <trkpt lat="45.85369" lon="5.72695">
        <ele>244.60000610352</ele>
        <time>2023-05-19T11:20:06.000Z</time>
      </trkpt>
      <trkpt lat="45.85358" lon="5.72715">
        <ele>244.39999389648</ele>
        <time>2023-05-19T11:20:12.000Z</time>
      </trkpt>
      <trkpt lat="45.85344" lon="5.72744">
        <ele>244.39999389648</ele>
        <time>2023-05-19T11:20:20.000Z</time>
      </trkpt>
      <trkpt lat="45.85334" lon="5.72758">
        <ele>244.39999389648</ele>
        <time>2023-05-19T11:20:25.000Z</time>
      </trkpt>
      <trkpt lat="45.8532" lon="5.72766">
        <ele>244.60000610352</ele>
        <time>2023-05-19T11:20:31.000Z</time>
      </trkpt>
      <trkpt lat="45.8531" lon="5.7278">
        <ele>244.60000610352</ele>
        <time>2023-05-19T11:20:37.000Z</time>
      </trkpt>
      <trkpt lat="45.85293" lon="5.72804">
        <ele>244.39999389648</ele>
        <time>2023-05-19T11:20:46.000Z</time>
      </trkpt>
      <trkpt lat="45.85281" lon="5.72821">
        <ele>244.19999694824</ele>
        <time>2023-05-19T11:20:52.000Z</time>
      </trkpt>
      <trkpt lat="45.85276" lon="5.72827">
        <ele>244.19999694824</ele>
        <time>2023-05-19T11:20:55.000Z</time>
      </trkpt>
      <trkpt lat="45.85258" lon="5.72842">
        <ele>244.19999694824</ele>
        <time>2023-05-19T11:21:01.000Z</time>
      </trkpt>
      <trkpt lat="45.85233" lon="5.72853">
        <ele>244.60000610352</ele>
        <time>2023-05-19T11:21:08.000Z</time>
      </trkpt>
      <trkpt lat="45.85214" lon="5.72863">
        <ele>244.60000610352</ele>
        <time>2023-05-19T11:21:15.000Z</time>
      </trkpt>
      <trkpt lat="45.85198" lon="5.72875">
        <ele>244.39999389648</ele>
        <time>2023-05-19T11:21:23.000Z</time>
      </trkpt>
      <trkpt lat="45.85176" lon="5.72889">
        <ele>244.60000610352</ele>
        <time>2023-05-19T11:21:30.000Z</time>
      </trkpt>
      <trkpt lat="45.85165" lon="5.72899">
        <ele>244.60000610352</ele>
        <time>2023-05-19T11:21:34.000Z</time>
      </trkpt>
      <trkpt lat="45.85162" lon="5.729">
        <ele>244.60000610352</ele>
        <time>2023-05-19T11:21:35.000Z</time>
      </trkpt>
      <trkpt lat="45.85139" lon="5.72911">
        <ele>244.19999694824</ele>
        <time>2023-05-19T11:21:43.000Z</time>
      </trkpt>
      <trkpt lat="45.85134" lon="5.72915">
        <ele>244.19999694824</ele>
        <time>2023-05-19T11:21:45.000Z</time>
      </trkpt>
      <trkpt lat="45.85123" lon="5.72922">
        <ele>244</ele>
        <time>2023-05-19T11:21:49.000Z</time>
      </trkpt>
      <trkpt lat="45.85108" lon="5.72935">
        <ele>244</ele>
        <time>2023-05-19T11:21:55.000Z</time>
      </trkpt>
      <trkpt lat="45.85086" lon="5.72954">
        <ele>244.19999694824</ele>
        <time>2023-05-19T11:22:03.000Z</time>
      </trkpt>
      <trkpt lat="45.85064" lon="5.72974">
        <ele>244.19999694824</ele>
        <time>2023-05-19T11:22:10.000Z</time>
      </trkpt>
      <trkpt lat="45.85037" lon="5.72998">
        <ele>244.39999389648</ele>
        <time>2023-05-19T11:22:20.000Z</time>
      </trkpt>
      <trkpt lat="45.8501" lon="5.73026">
        <ele>244</ele>
        <time>2023-05-19T11:22:30.000Z</time>
      </trkpt>
      <trkpt lat="45.8498" lon="5.7306">
        <ele>244.19999694824</ele>
        <time>2023-05-19T11:22:40.000Z</time>
      </trkpt>
      <trkpt lat="45.84962" lon="5.73079">
        <ele>244</ele>
        <time>2023-05-19T11:22:47.000Z</time>
      </trkpt>
      <trkpt lat="45.84936" lon="5.73106">
        <ele>243.60000610352</ele>
        <time>2023-05-19T11:22:56.000Z</time>
      </trkpt>
      <trkpt lat="45.84904" lon="5.73148">
        <ele>243.60000610352</ele>
        <time>2023-05-19T11:23:08.000Z</time>
      </trkpt>
      <trkpt lat="45.84887" lon="5.73175">
        <ele>243.80000305176</ele>
        <time>2023-05-19T11:23:15.000Z</time>
      </trkpt>
      <trkpt lat="45.84856" lon="5.73226">
        <ele>244</ele>
        <time>2023-05-19T11:23:27.000Z</time>
      </trkpt>
      <trkpt lat="45.84846" lon="5.73251">
        <ele>243.39999389648</ele>
        <time>2023-05-19T11:23:34.000Z</time>
      </trkpt>
      <trkpt lat="45.84841" lon="5.73267">
        <ele>243</ele>
        <time>2023-05-19T11:23:37.000Z</time>
      </trkpt>
      <trkpt lat="45.84835" lon="5.73287">
        <ele>243.39999389648</ele>
        <time>2023-05-19T11:23:41.000Z</time>
      </trkpt>
      <trkpt lat="45.84825" lon="5.73322">
        <ele>243.80000305176</ele>
        <time>2023-05-19T11:23:48.000Z</time>
      </trkpt>
      <trkpt lat="45.84817" lon="5.73355">
        <ele>244.39999389648</ele>
        <time>2023-05-19T11:23:54.000Z</time>
      </trkpt>
      <trkpt lat="45.84817" lon="5.73359">
        <ele>244.39999389648</ele>
        <time>2023-05-19T11:23:55.000Z</time>
      </trkpt>
      <trkpt lat="45.84809" lon="5.73392">
        <ele>244.19999694824</ele>
        <time>2023-05-19T11:24:01.000Z</time>
      </trkpt>
      <trkpt lat="45.84802" lon="5.73421">
        <ele>243.60000610352</ele>
        <time>2023-05-19T11:24:08.000Z</time>
      </trkpt>
      <trkpt lat="45.84793" lon="5.73468">
        <ele>244.19999694824</ele>
        <time>2023-05-19T11:24:17.000Z</time>
      </trkpt>
      <trkpt lat="45.8478" lon="5.73513">
        <ele>244</ele>
        <time>2023-05-19T11:24:27.000Z</time>
      </trkpt>
      <trkpt lat="45.84765" lon="5.73559">
        <ele>244.60000610352</ele>
        <time>2023-05-19T11:24:37.000Z</time>
      </trkpt>
      <trkpt lat="45.84754" lon="5.73594">
        <ele>244.39999389648</ele>
        <time>2023-05-19T11:24:44.000Z</time>
      </trkpt>
      <trkpt lat="45.8474" lon="5.73639">
        <ele>244.60000610352</ele>
        <time>2023-05-19T11:24:54.000Z</time>
      </trkpt>
      <trkpt lat="45.84733" lon="5.73664">
        <ele>244.39999389648</ele>
        <time>2023-05-19T11:25:00.000Z</time>
      </trkpt>
      <trkpt lat="45.84731" lon="5.73669">
        <ele>244.39999389648</ele>
        <time>2023-05-19T11:25:01.000Z</time>
      </trkpt>
      <trkpt lat="45.84723" lon="5.73699">
        <ele>244.19999694824</ele>
        <time>2023-05-19T11:25:07.000Z</time>
      </trkpt>
      <trkpt lat="45.84711" lon="5.73739">
        <ele>244</ele>
        <time>2023-05-19T11:25:14.000Z</time>
      </trkpt>
      <trkpt lat="45.84697" lon="5.73786">
        <ele>243.39999389648</ele>
        <time>2023-05-19T11:25:21.000Z</time>
      </trkpt>
      <trkpt lat="45.84681" lon="5.73834">
        <ele>244</ele>
        <time>2023-05-19T11:25:30.000Z</time>
      </trkpt>
      <trkpt lat="45.84674" lon="5.73852">
        <ele>244.19999694824</ele>
        <time>2023-05-19T11:25:33.000Z</time>
      </trkpt>
      <trkpt lat="45.84668" lon="5.73853">
        <ele>244.39999389648</ele>
        <time>2023-05-19T11:25:35.000Z</time>
      </trkpt>
      <trkpt lat="45.8466" lon="5.7385">
        <ele>244.39999389648</ele>
        <time>2023-05-19T11:25:37.000Z</time>
      </trkpt>
      <trkpt lat="45.84635" lon="5.73843">
        <ele>244</ele>
        <time>2023-05-19T11:25:44.000Z</time>
      </trkpt>
      <trkpt lat="45.84632" lon="5.73849">
        <ele>244</ele>
        <time>2023-05-19T11:25:46.000Z</time>
      </trkpt>
      <trkpt lat="45.84632" lon="5.73852">
        <ele>244.19999694824</ele>
        <time>2023-05-19T11:25:47.000Z</time>
      </trkpt>
      <trkpt lat="45.84636" lon="5.7387">
        <ele>244.39999389648</ele>
        <time>2023-05-19T11:25:50.000Z</time>
      </trkpt>
      <trkpt lat="45.84638" lon="5.73877">
        <ele>244.60000610352</ele>
        <time>2023-05-19T11:25:51.000Z</time>
      </trkpt>
      <trkpt lat="45.84658" lon="5.73931">
        <ele>245</ele>
        <time>2023-05-19T11:25:58.000Z</time>
      </trkpt>
      <trkpt lat="45.84675" lon="5.73978">
        <ele>245</ele>
        <time>2023-05-19T11:26:04.000Z</time>
      </trkpt>
      <trkpt lat="45.84698" lon="5.74032">
        <ele>244.80000305176</ele>
        <time>2023-05-19T11:26:11.000Z</time>
      </trkpt>
      <trkpt lat="45.84702" lon="5.74045">
        <ele>244.60000610352</ele>
        <time>2023-05-19T11:26:14.000Z</time>
      </trkpt>
      <trkpt lat="45.84704" lon="5.74048">
        <ele>244.39999389648</ele>
        <time>2023-05-19T11:26:16.000Z</time>
      </trkpt>
      <trkpt lat="45.84704" lon="5.74048">
        <ele>244.39999389648</ele>
        <time>2023-05-19T11:26:18.000Z</time>
      </trkpt>
      <trkpt lat="45.84704" lon="5.74048">
        <ele>244.19999694824</ele>
        <time>2023-05-19T11:26:20.000Z</time>
      </trkpt>
      <trkpt lat="45.84705" lon="5.74052">
        <ele>244.19999694824</ele>
        <time>2023-05-19T11:26:50.000Z</time>
      </trkpt>
      <trkpt lat="45.84709" lon="5.74062">
        <ele>244.19999694824</ele>
        <time>2023-05-19T11:26:52.000Z</time>
      </trkpt>
      <trkpt lat="45.84723" lon="5.74102">
        <ele>244.19999694824</ele>
        <time>2023-05-19T11:26:59.000Z</time>
      </trkpt>
      <trkpt lat="45.8474" lon="5.74143">
        <ele>244.19999694824</ele>
        <time>2023-05-19T11:27:06.000Z</time>
      </trkpt>
      <trkpt lat="45.84757" lon="5.7419">
        <ele>244.39999389648</ele>
        <time>2023-05-19T11:27:13.000Z</time>
      </trkpt>
      <trkpt lat="45.84783" lon="5.74256">
        <ele>244.60000610352</ele>
        <time>2023-05-19T11:27:23.000Z</time>
      </trkpt>
      <trkpt lat="45.84807" lon="5.74317">
        <ele>244.39999389648</ele>
        <time>2023-05-19T11:27:32.000Z</time>
      </trkpt>
      <trkpt lat="45.84833" lon="5.74382">
        <ele>244.19999694824</ele>
        <time>2023-05-19T11:27:42.000Z</time>
      </trkpt>
      <trkpt lat="45.84858" lon="5.74446">
        <ele>244.19999694824</ele>
        <time>2023-05-19T11:27:52.000Z</time>
      </trkpt>
      <trkpt lat="45.84886" lon="5.74515">
        <ele>244.19999694824</ele>
        <time>2023-05-19T11:28:02.000Z</time>
      </trkpt>
      <trkpt lat="45.84913" lon="5.74581">
        <ele>244.39999389648</ele>
        <time>2023-05-19T11:28:12.000Z</time>
      </trkpt>
      <trkpt lat="45.84932" lon="5.74637">
        <ele>244.60000610352</ele>
        <time>2023-05-19T11:28:21.000Z</time>
      </trkpt>
      <trkpt lat="45.84953" lon="5.74691">
        <ele>244.19999694824</ele>
        <time>2023-05-19T11:28:30.000Z</time>
      </trkpt>
      <trkpt lat="45.84981" lon="5.74761">
        <ele>244.39999389648</ele>
        <time>2023-05-19T11:28:41.000Z</time>
      </trkpt>
      <trkpt lat="45.85002" lon="5.74814">
        <ele>244.39999389648</ele>
        <time>2023-05-19T11:28:49.000Z</time>
      </trkpt>
      <trkpt lat="45.85024" lon="5.74868">
        <ele>244.60000610352</ele>
        <time>2023-05-19T11:28:57.000Z</time>
      </trkpt>
      <trkpt lat="45.85047" lon="5.74927">
        <ele>244.60000610352</ele>
        <time>2023-05-19T11:29:06.000Z</time>
      </trkpt>
      <trkpt lat="45.85072" lon="5.74988">
        <ele>244.60000610352</ele>
        <time>2023-05-19T11:29:16.000Z</time>
      </trkpt>
      <trkpt lat="45.85085" lon="5.75018">
        <ele>244.60000610352</ele>
        <time>2023-05-19T11:29:21.000Z</time>
      </trkpt>
      <trkpt lat="45.8509" lon="5.7503">
        <ele>244.80000305176</ele>
        <time>2023-05-19T11:29:23.000Z</time>
      </trkpt>
      <trkpt lat="45.85098" lon="5.75048">
        <ele>244.60000610352</ele>
        <time>2023-05-19T11:29:26.000Z</time>
      </trkpt>
      <trkpt lat="45.85104" lon="5.75066">
        <ele>245</ele>
        <time>2023-05-19T11:29:30.000Z</time>
      </trkpt>
      <trkpt lat="45.85128" lon="5.7513">
        <ele>245</ele>
        <time>2023-05-19T11:29:39.000Z</time>
      </trkpt>
      <trkpt lat="45.85156" lon="5.75202">
        <ele>245.80000305176</ele>
        <time>2023-05-19T11:29:51.000Z</time>
      </trkpt>
      <trkpt lat="45.85158" lon="5.75208">
        <ele>245.80000305176</ele>
        <time>2023-05-19T11:29:53.000Z</time>
      </trkpt>
      <trkpt lat="45.85171" lon="5.75241">
        <ele>246</ele>
        <time>2023-05-19T11:29:58.000Z</time>
      </trkpt>
      <trkpt lat="45.8518" lon="5.75265">
        <ele>246.19999694824</ele>
        <time>2023-05-19T11:30:02.000Z</time>
      </trkpt>
      <trkpt lat="45.85194" lon="5.753">
        <ele>246.39999389648</ele>
        <time>2023-05-19T11:30:09.000Z</time>
      </trkpt>
      <trkpt lat="45.85207" lon="5.75335">
        <ele>246.80000305176</ele>
        <time>2023-05-19T11:30:16.000Z</time>
      </trkpt>
      <trkpt lat="45.85209" lon="5.7534">
        <ele>247</ele>
        <time>2023-05-19T11:30:17.000Z</time>
      </trkpt>
      <trkpt lat="45.8522" lon="5.75367">
        <ele>247.80000305176</ele>
        <time>2023-05-19T11:30:23.000Z</time>
      </trkpt>
      <trkpt lat="45.85224" lon="5.75379">
        <ele>248</ele>
        <time>2023-05-19T11:30:26.000Z</time>
      </trkpt>
      <trkpt lat="45.85234" lon="5.75402">
        <ele>249</ele>
        <time>2023-05-19T11:30:31.000Z</time>
      </trkpt>
      <trkpt lat="45.85237" lon="5.75411">
        <ele>249.19999694824</ele>
        <time>2023-05-19T11:30:33.000Z</time>
      </trkpt>
      <trkpt lat="45.8525" lon="5.75441">
        <ele>249.60000610352</ele>
        <time>2023-05-19T11:30:40.000Z</time>
      </trkpt>
      <trkpt lat="45.85259" lon="5.75465">
        <ele>250.39999389648</ele>
        <time>2023-05-19T11:30:45.000Z</time>
      </trkpt>
      <trkpt lat="45.8526" lon="5.7547">
        <ele>250.39999389648</ele>
        <time>2023-05-19T11:30:46.000Z</time>
      </trkpt>
      <trkpt lat="45.85255" lon="5.75494">
        <ele>251</ele>
        <time>2023-05-19T11:30:50.000Z</time>
      </trkpt>
      <trkpt lat="45.85247" lon="5.7555">
        <ele>250.80000305176</ele>
        <time>2023-05-19T11:30:57.000Z</time>
      </trkpt>
      <trkpt lat="45.85239" lon="5.75626">
        <ele>249.39999389648</ele>
        <time>2023-05-19T11:31:05.000Z</time>
      </trkpt>
      <trkpt lat="45.85238" lon="5.75636">
        <ele>249</ele>
        <time>2023-05-19T11:31:06.000Z</time>
      </trkpt>
      <trkpt lat="45.85232" lon="5.75686">
        <ele>248</ele>
        <time>2023-05-19T11:31:11.000Z</time>
      </trkpt>
      <trkpt lat="45.85229" lon="5.75714">
        <ele>247.60000610352</ele>
        <time>2023-05-19T11:31:14.000Z</time>
      </trkpt>
      <trkpt lat="45.85225" lon="5.75749">
        <ele>246.80000305176</ele>
        <time>2023-05-19T11:31:18.000Z</time>
      </trkpt>
      <trkpt lat="45.85222" lon="5.75773">
        <ele>246.60000610352</ele>
        <time>2023-05-19T11:31:21.000Z</time>
      </trkpt>
      <trkpt lat="45.85213" lon="5.75844">
        <ele>246</ele>
        <time>2023-05-19T11:31:30.000Z</time>
      </trkpt>
      <trkpt lat="45.85211" lon="5.7586">
        <ele>245.80000305176</ele>
        <time>2023-05-19T11:31:32.000Z</time>
      </trkpt>
      <trkpt lat="45.85203" lon="5.75897">
        <ele>245.19999694824</ele>
        <time>2023-05-19T11:31:38.000Z</time>
      </trkpt>
      <trkpt lat="45.85197" lon="5.75917">
        <ele>245.19999694824</ele>
        <time>2023-05-19T11:31:40.000Z</time>
      </trkpt>
      <trkpt lat="45.85187" lon="5.75943">
        <ele>244.80000305176</ele>
        <time>2023-05-19T11:31:44.000Z</time>
      </trkpt>
      <trkpt lat="45.85178" lon="5.7597">
        <ele>244.39999389648</ele>
        <time>2023-05-19T11:31:48.000Z</time>
      </trkpt>
      <trkpt lat="45.85159" lon="5.76009">
        <ele>244.19999694824</ele>
        <time>2023-05-19T11:31:54.000Z</time>
      </trkpt>
      <trkpt lat="45.85149" lon="5.76028">
        <ele>244.19999694824</ele>
        <time>2023-05-19T11:31:57.000Z</time>
      </trkpt>
      <trkpt lat="45.85128" lon="5.76062">
        <ele>244.39999389648</ele>
        <time>2023-05-19T11:32:03.000Z</time>
      </trkpt>
      <trkpt lat="45.85122" lon="5.76073">
        <ele>244.39999389648</ele>
        <time>2023-05-19T11:32:05.000Z</time>
      </trkpt>
      <trkpt lat="45.85097" lon="5.76118">
        <ele>245.60000610352</ele>
        <time>2023-05-19T11:32:13.000Z</time>
      </trkpt>
      <trkpt lat="45.8509" lon="5.7613">
        <ele>245.80000305176</ele>
        <time>2023-05-19T11:32:15.000Z</time>
      </trkpt>
      <trkpt lat="45.85068" lon="5.76176">
        <ele>246.80000305176</ele>
        <time>2023-05-19T11:32:22.000Z</time>
      </trkpt>
      <trkpt lat="45.85068" lon="5.76176">
        <ele>247</ele>
        <time>2023-05-19T11:32:23.000Z</time>
      </trkpt>
      <trkpt lat="45.85044" lon="5.76229">
        <ele>247.19999694824</ele>
        <time>2023-05-19T11:32:31.000Z</time>
      </trkpt>
      <trkpt lat="45.85025" lon="5.7627">
        <ele>246.60000610352</ele>
        <time>2023-05-19T11:32:39.000Z</time>
      </trkpt>
      <trkpt lat="45.85021" lon="5.76281">
        <ele>246.39999389648</ele>
        <time>2023-05-19T11:32:41.000Z</time>
      </trkpt>
      <trkpt lat="45.85016" lon="5.76293">
        <ele>246.39999389648</ele>
        <time>2023-05-19T11:32:43.000Z</time>
      </trkpt>
      <trkpt lat="45.85013" lon="5.76299">
        <ele>246.39999389648</ele>
        <time>2023-05-19T11:32:45.000Z</time>
      </trkpt>
      <trkpt lat="45.84992" lon="5.7634">
        <ele>246.39999389648</ele>
        <time>2023-05-19T11:32:51.000Z</time>
      </trkpt>
      <trkpt lat="45.84973" lon="5.76384">
        <ele>246.80000305176</ele>
        <time>2023-05-19T11:32:58.000Z</time>
      </trkpt>
      <trkpt lat="45.84953" lon="5.76431">
        <ele>247</ele>
        <time>2023-05-19T11:33:05.000Z</time>
      </trkpt>
      <trkpt lat="45.84934" lon="5.76475">
        <ele>246.60000610352</ele>
        <time>2023-05-19T11:33:12.000Z</time>
      </trkpt>
      <trkpt lat="45.84906" lon="5.76538">
        <ele>246</ele>
        <time>2023-05-19T11:33:22.000Z</time>
      </trkpt>
      <trkpt lat="45.84888" lon="5.76582">
        <ele>245.80000305176</ele>
        <time>2023-05-19T11:33:28.000Z</time>
      </trkpt>
      <trkpt lat="45.84879" lon="5.76603">
        <ele>245.80000305176</ele>
        <time>2023-05-19T11:33:31.000Z</time>
      </trkpt>
      <trkpt lat="45.84871" lon="5.76622">
        <ele>245.60000610352</ele>
        <time>2023-05-19T11:33:34.000Z</time>
      </trkpt>
      <trkpt lat="45.8486" lon="5.76646">
        <ele>245.60000610352</ele>
        <time>2023-05-19T11:33:38.000Z</time>
      </trkpt>
      <trkpt lat="45.84845" lon="5.76676">
        <ele>245.19999694824</ele>
        <time>2023-05-19T11:33:43.000Z</time>
      </trkpt>
      <trkpt lat="45.84814" lon="5.76742">
        <ele>245</ele>
        <time>2023-05-19T11:33:54.000Z</time>
      </trkpt>
      <trkpt lat="45.84805" lon="5.76761">
        <ele>245.19999694824</ele>
        <time>2023-05-19T11:33:58.000Z</time>
      </trkpt>
      <trkpt lat="45.84801" lon="5.76772">
        <ele>245.39999389648</ele>
        <time>2023-05-19T11:34:00.000Z</time>
      </trkpt>
      <trkpt lat="45.84784" lon="5.76822">
        <ele>246</ele>
        <time>2023-05-19T11:34:09.000Z</time>
      </trkpt>
      <trkpt lat="45.84773" lon="5.76842">
        <ele>246.19999694824</ele>
        <time>2023-05-19T11:34:14.000Z</time>
      </trkpt>
      <trkpt lat="45.84767" lon="5.76851">
        <ele>246.19999694824</ele>
        <time>2023-05-19T11:34:16.000Z</time>
      </trkpt>
      <trkpt lat="45.84763" lon="5.76865">
        <ele>246.19999694824</ele>
        <time>2023-05-19T11:34:18.000Z</time>
      </trkpt>
      <trkpt lat="45.84764" lon="5.76877">
        <ele>246.19999694824</ele>
        <time>2023-05-19T11:34:20.000Z</time>
      </trkpt>
      <trkpt lat="45.84766" lon="5.76883">
        <ele>246.39999389648</ele>
        <time>2023-05-19T11:34:21.000Z</time>
      </trkpt>
      <trkpt lat="45.84769" lon="5.76888">
        <ele>246.39999389648</ele>
        <time>2023-05-19T11:34:22.000Z</time>
      </trkpt>
      <trkpt lat="45.84776" lon="5.76896">
        <ele>246.39999389648</ele>
        <time>2023-05-19T11:34:24.000Z</time>
      </trkpt>
      <trkpt lat="45.8478" lon="5.769">
        <ele>246.60000610352</ele>
        <time>2023-05-19T11:34:25.000Z</time>
      </trkpt>
      <trkpt lat="45.84787" lon="5.76908">
        <ele>246.80000305176</ele>
        <time>2023-05-19T11:34:27.000Z</time>
      </trkpt>
      <trkpt lat="45.84793" lon="5.7692">
        <ele>247</ele>
        <time>2023-05-19T11:34:29.000Z</time>
      </trkpt>
      <trkpt lat="45.84795" lon="5.76926">
        <ele>247</ele>
        <time>2023-05-19T11:34:30.000Z</time>
      </trkpt>
      <trkpt lat="45.848" lon="5.76946">
        <ele>247.60000610352</ele>
        <time>2023-05-19T11:34:33.000Z</time>
      </trkpt>
      <trkpt lat="45.84804" lon="5.76967">
        <ele>248.39999389648</ele>
        <time>2023-05-19T11:34:36.000Z</time>
      </trkpt>
      <trkpt lat="45.84805" lon="5.76971">
        <ele>248.80000305176</ele>
        <time>2023-05-19T11:34:37.000Z</time>
      </trkpt>
      <trkpt lat="45.84805" lon="5.76977">
        <ele>249.19999694824</ele>
        <time>2023-05-19T11:34:38.000Z</time>
      </trkpt>
      <trkpt lat="45.84807" lon="5.76992">
        <ele>249.80000305176</ele>
        <time>2023-05-19T11:34:41.000Z</time>
      </trkpt>
      <trkpt lat="45.8481" lon="5.77004">
        <ele>250.39999389648</ele>
        <time>2023-05-19T11:34:45.000Z</time>
      </trkpt>
      <trkpt lat="45.84812" lon="5.77018">
        <ele>250.80000305176</ele>
        <time>2023-05-19T11:34:50.000Z</time>
      </trkpt>
      <trkpt lat="45.84816" lon="5.77024">
        <ele>251.19999694824</ele>
        <time>2023-05-19T11:34:52.000Z</time>
      </trkpt>
      <trkpt lat="45.84823" lon="5.77027">
        <ele>251.39999389648</ele>
        <time>2023-05-19T11:34:55.000Z</time>
      </trkpt>
      <trkpt lat="45.84824" lon="5.77025">
        <ele>251.60000610352</ele>
        <time>2023-05-19T11:34:56.000Z</time>
      </trkpt>
      <trkpt lat="45.84827" lon="5.77017">
        <ele>251.80000305176</ele>
        <time>2023-05-19T11:34:59.000Z</time>
      </trkpt>
      <trkpt lat="45.84827" lon="5.7701">
        <ele>252</ele>
        <time>2023-05-19T11:35:01.000Z</time>
      </trkpt>
      <trkpt lat="45.84824" lon="5.77003">
        <ele>252</ele>
        <time>2023-05-19T11:35:03.000Z</time>
      </trkpt>
      <trkpt lat="45.84819" lon="5.76996">
        <ele>252</ele>
        <time>2023-05-19T11:35:05.000Z</time>
      </trkpt>
      <trkpt lat="45.84811" lon="5.76975">
        <ele>252</ele>
        <time>2023-05-19T11:35:09.000Z</time>
      </trkpt>
      <trkpt lat="45.84809" lon="5.76968">
        <ele>251.80000305176</ele>
        <time>2023-05-19T11:35:10.000Z</time>
      </trkpt>
      <trkpt lat="45.84802" lon="5.76932">
        <ele>251</ele>
        <time>2023-05-19T11:35:15.000Z</time>
      </trkpt>
      <trkpt lat="45.84798" lon="5.76917">
        <ele>250.80000305176</ele>
        <time>2023-05-19T11:35:17.000Z</time>
      </trkpt>
      <trkpt lat="45.84795" lon="5.769">
        <ele>250.60000610352</ele>
        <time>2023-05-19T11:35:19.000Z</time>
      </trkpt>
      <trkpt lat="45.84792" lon="5.76874">
        <ele>249.60000610352</ele>
        <time>2023-05-19T11:35:22.000Z</time>
      </trkpt>
      <trkpt lat="45.84791" lon="5.76866">
        <ele>249.39999389648</ele>
        <time>2023-05-19T11:35:23.000Z</time>
      </trkpt>
      <trkpt lat="45.84787" lon="5.76853">
        <ele>249</ele>
        <time>2023-05-19T11:35:25.000Z</time>
      </trkpt>
      <trkpt lat="45.84783" lon="5.76849">
        <ele>248.80000305176</ele>
        <time>2023-05-19T11:35:26.000Z</time>
      </trkpt>
      <trkpt lat="45.84777" lon="5.76846">
        <ele>248.60000610352</ele>
        <time>2023-05-19T11:35:27.000Z</time>
      </trkpt>
      <trkpt lat="45.84767" lon="5.7685">
        <ele>248.19999694824</ele>
        <time>2023-05-19T11:35:29.000Z</time>
      </trkpt>
      <trkpt lat="45.84761" lon="5.7686">
        <ele>247.80000305176</ele>
        <time>2023-05-19T11:35:31.000Z</time>
      </trkpt>
      <trkpt lat="45.84759" lon="5.76866">
        <ele>247.60000610352</ele>
        <time>2023-05-19T11:35:32.000Z</time>
      </trkpt>
      <trkpt lat="45.84756" lon="5.76877">
        <ele>247.39999389648</ele>
        <time>2023-05-19T11:35:34.000Z</time>
      </trkpt>
      <trkpt lat="45.84751" lon="5.76907">
        <ele>247.19999694824</ele>
        <time>2023-05-19T11:35:39.000Z</time>
      </trkpt>
      <trkpt lat="45.8474" lon="5.76969">
        <ele>247.19999694824</ele>
        <time>2023-05-19T11:35:49.000Z</time>
      </trkpt>
      <trkpt lat="45.84739" lon="5.76975">
        <ele>247.39999389648</ele>
        <time>2023-05-19T11:35:50.000Z</time>
      </trkpt>
      <trkpt lat="45.84736" lon="5.76992">
        <ele>247.39999389648</ele>
        <time>2023-05-19T11:35:53.000Z</time>
      </trkpt>
      <trkpt lat="45.84734" lon="5.76998">
        <ele>247.39999389648</ele>
        <time>2023-05-19T11:35:54.000Z</time>
      </trkpt>
      <trkpt lat="45.84732" lon="5.77003">
        <ele>247.60000610352</ele>
        <time>2023-05-19T11:35:55.000Z</time>
      </trkpt>
      <trkpt lat="45.84729" lon="5.77007">
        <ele>247.60000610352</ele>
        <time>2023-05-19T11:35:56.000Z</time>
      </trkpt>
      <trkpt lat="45.84726" lon="5.77012">
        <ele>247.80000305176</ele>
        <time>2023-05-19T11:35:57.000Z</time>
      </trkpt>
      <trkpt lat="45.84709" lon="5.7703">
        <ele>248</ele>
        <time>2023-05-19T11:36:02.000Z</time>
      </trkpt>
      <trkpt lat="45.84678" lon="5.77061">
        <ele>247.80000305176</ele>
        <time>2023-05-19T11:36:10.000Z</time>
      </trkpt>
      <trkpt lat="45.84648" lon="5.77083">
        <ele>247.80000305176</ele>
        <time>2023-05-19T11:36:19.000Z</time>
      </trkpt>
      <trkpt lat="45.84623" lon="5.77095">
        <ele>247.60000610352</ele>
        <time>2023-05-19T11:36:26.000Z</time>
      </trkpt>
      <trkpt lat="45.8459" lon="5.77107">
        <ele>247.80000305176</ele>
        <time>2023-05-19T11:36:33.000Z</time>
      </trkpt>
      <trkpt lat="45.84549" lon="5.77114">
        <ele>248.19999694824</ele>
        <time>2023-05-19T11:36:41.000Z</time>
      </trkpt>
      <trkpt lat="45.8451" lon="5.77119">
        <ele>248</ele>
        <time>2023-05-19T11:36:49.000Z</time>
      </trkpt>
      <trkpt lat="45.84488" lon="5.7713">
        <ele>248.39999389648</ele>
        <time>2023-05-19T11:36:55.000Z</time>
      </trkpt>
      <trkpt lat="45.84476" lon="5.77137">
        <ele>248.39999389648</ele>
        <time>2023-05-19T11:36:58.000Z</time>
      </trkpt>
      <trkpt lat="45.84463" lon="5.77145">
        <ele>248.39999389648</ele>
        <time>2023-05-19T11:37:01.000Z</time>
      </trkpt>
      <trkpt lat="45.84459" lon="5.77149">
        <ele>248.39999389648</ele>
        <time>2023-05-19T11:37:02.000Z</time>
      </trkpt>
      <trkpt lat="45.84447" lon="5.77161">
        <ele>248.39999389648</ele>
        <time>2023-05-19T11:37:05.000Z</time>
      </trkpt>
      <trkpt lat="45.84432" lon="5.77181">
        <ele>248.39999389648</ele>
        <time>2023-05-19T11:37:09.000Z</time>
      </trkpt>
      <trkpt lat="45.84416" lon="5.77218">
        <ele>248</ele>
        <time>2023-05-19T11:37:16.000Z</time>
      </trkpt>
      <trkpt lat="45.8441" lon="5.77257">
        <ele>247.80000305176</ele>
        <time>2023-05-19T11:37:23.000Z</time>
      </trkpt>
      <trkpt lat="45.84406" lon="5.77301">
        <ele>247.39999389648</ele>
        <time>2023-05-19T11:37:30.000Z</time>
      </trkpt>
      <trkpt lat="45.84398" lon="5.7738">
        <ele>247</ele>
        <time>2023-05-19T11:37:41.000Z</time>
      </trkpt>
      <trkpt lat="45.84386" lon="5.7744">
        <ele>246.80000305176</ele>
        <time>2023-05-19T11:37:49.000Z</time>
      </trkpt>
      <trkpt lat="45.84368" lon="5.77501">
        <ele>247</ele>
        <time>2023-05-19T11:37:57.000Z</time>
      </trkpt>
      <trkpt lat="45.84366" lon="5.77508">
        <ele>247</ele>
        <time>2023-05-19T11:37:58.000Z</time>
      </trkpt>
      <trkpt lat="45.84355" lon="5.77548">
        <ele>247</ele>
        <time>2023-05-19T11:38:03.000Z</time>
      </trkpt>
      <trkpt lat="45.84346" lon="5.77579">
        <ele>247.19999694824</ele>
        <time>2023-05-19T11:38:08.000Z</time>
      </trkpt>
      <trkpt lat="45.84345" lon="5.77585">
        <ele>247.19999694824</ele>
        <time>2023-05-19T11:38:09.000Z</time>
      </trkpt>
      <trkpt lat="45.84333" lon="5.77626">
        <ele>247.19999694824</ele>
        <time>2023-05-19T11:38:16.000Z</time>
      </trkpt>
      <trkpt lat="45.84328" lon="5.77651">
        <ele>247.39999389648</ele>
        <time>2023-05-19T11:38:20.000Z</time>
      </trkpt>
      <trkpt lat="45.84324" lon="5.77676">
        <ele>247.80000305176</ele>
        <time>2023-05-19T11:38:24.000Z</time>
      </trkpt>
      <trkpt lat="45.84321" lon="5.77727">
        <ele>248.39999389648</ele>
        <time>2023-05-19T11:38:32.000Z</time>
      </trkpt>
      <trkpt lat="45.84321" lon="5.7774">
        <ele>248.60000610352</ele>
        <time>2023-05-19T11:38:34.000Z</time>
      </trkpt>
      <trkpt lat="45.8432" lon="5.77777">
        <ele>248.80000305176</ele>
        <time>2023-05-19T11:38:41.000Z</time>
      </trkpt>
      <trkpt lat="45.84325" lon="5.77816">
        <ele>248.80000305176</ele>
        <time>2023-05-19T11:38:49.000Z</time>
      </trkpt>
      <trkpt lat="45.84333" lon="5.77849">
        <ele>248.39999389648</ele>
        <time>2023-05-19T11:38:55.000Z</time>
      </trkpt>
      <trkpt lat="45.84341" lon="5.77866">
        <ele>248.39999389648</ele>
        <time>2023-05-19T11:39:00.000Z</time>
      </trkpt>
      <trkpt lat="45.84343" lon="5.7787">
        <ele>248.39999389648</ele>
        <time>2023-05-19T11:39:01.000Z</time>
      </trkpt>
      <trkpt lat="45.84358" lon="5.77883">
        <ele>248.39999389648</ele>
        <time>2023-05-19T11:39:08.000Z</time>
      </trkpt>
      <trkpt lat="45.84376" lon="5.7789">
        <ele>248.19999694824</ele>
        <time>2023-05-19T11:39:13.000Z</time>
      </trkpt>
      <trkpt lat="45.84405" lon="5.77898">
        <ele>248</ele>
        <time>2023-05-19T11:39:19.000Z</time>
      </trkpt>
      <trkpt lat="45.84436" lon="5.77914">
        <ele>247.80000305176</ele>
        <time>2023-05-19T11:39:26.000Z</time>
      </trkpt>
      <trkpt lat="45.84462" lon="5.77933">
        <ele>247.60000610352</ele>
        <time>2023-05-19T11:39:32.000Z</time>
      </trkpt>
      <trkpt lat="45.84466" lon="5.77937">
        <ele>247.60000610352</ele>
        <time>2023-05-19T11:39:33.000Z</time>
      </trkpt>
      <trkpt lat="45.84469" lon="5.77941">
        <ele>247.80000305176</ele>
        <time>2023-05-19T11:39:34.000Z</time>
      </trkpt>
      <trkpt lat="45.84504" lon="5.77984">
        <ele>248.39999389648</ele>
        <time>2023-05-19T11:39:44.000Z</time>
      </trkpt>
      <trkpt lat="45.84531" lon="5.78017">
        <ele>248.80000305176</ele>
        <time>2023-05-19T11:39:52.000Z</time>
      </trkpt>
      <trkpt lat="45.84539" lon="5.78025">
        <ele>248.80000305176</ele>
        <time>2023-05-19T11:39:54.000Z</time>
      </trkpt>
      <trkpt lat="45.84559" lon="5.78049">
        <ele>249.39999389648</ele>
        <time>2023-05-19T11:40:00.000Z</time>
      </trkpt>
      <trkpt lat="45.84566" lon="5.78059">
        <ele>249.60000610352</ele>
        <time>2023-05-19T11:40:02.000Z</time>
      </trkpt>
      <trkpt lat="45.8459" lon="5.78089">
        <ele>250.39999389648</ele>
        <time>2023-05-19T11:40:10.000Z</time>
      </trkpt>
      <trkpt lat="45.84593" lon="5.78093">
        <ele>250.39999389648</ele>
        <time>2023-05-19T11:40:11.000Z</time>
      </trkpt>
      <trkpt lat="45.84599" lon="5.781">
        <ele>250.60000610352</ele>
        <time>2023-05-19T11:40:13.000Z</time>
      </trkpt>
      <trkpt lat="45.84622" lon="5.78127">
        <ele>251.60000610352</ele>
        <time>2023-05-19T11:40:21.000Z</time>
      </trkpt>
      <trkpt lat="45.84625" lon="5.78129">
        <ele>251.60000610352</ele>
        <time>2023-05-19T11:40:22.000Z</time>
      </trkpt>
      <trkpt lat="45.84654" lon="5.78141">
        <ele>252.80000305176</ele>
        <time>2023-05-19T11:40:30.000Z</time>
      </trkpt>
      <trkpt lat="45.84676" lon="5.78148">
        <ele>253.60000610352</ele>
        <time>2023-05-19T11:40:36.000Z</time>
      </trkpt>
      <trkpt lat="45.84684" lon="5.78151">
        <ele>253.80000305176</ele>
        <time>2023-05-19T11:40:38.000Z</time>
      </trkpt>
      <trkpt lat="45.84701" lon="5.7815">
        <ele>254.60000610352</ele>
        <time>2023-05-19T11:40:43.000Z</time>
      </trkpt>
      <trkpt lat="45.84711" lon="5.7815">
        <ele>254.80000305176</ele>
        <time>2023-05-19T11:40:46.000Z</time>
      </trkpt>
      <trkpt lat="45.8472" lon="5.78154">
        <ele>255.39999389648</ele>
        <time>2023-05-19T11:40:49.000Z</time>
      </trkpt>
      <trkpt lat="45.8474" lon="5.78157">
        <ele>255.60000610352</ele>
        <time>2023-05-19T11:40:55.000Z</time>
      </trkpt>
      <trkpt lat="45.84757" lon="5.78144">
        <ele>256</ele>
        <time>2023-05-19T11:41:01.000Z</time>
      </trkpt>
      <trkpt lat="45.84771" lon="5.78132">
        <ele>257</ele>
        <time>2023-05-19T11:41:06.000Z</time>
      </trkpt>
      <trkpt lat="45.84776" lon="5.78128">
        <ele>257.20001220703</ele>
        <time>2023-05-19T11:41:08.000Z</time>
      </trkpt>
      <trkpt lat="45.84783" lon="5.7812">
        <ele>257.79998779297</ele>
        <time>2023-05-19T11:41:12.000Z</time>
      </trkpt>
      <trkpt lat="45.84784" lon="5.78116">
        <ele>258.20001220703</ele>
        <time>2023-05-19T11:41:14.000Z</time>
      </trkpt>
      <trkpt lat="45.84784" lon="5.78113">
        <ele>258.39999389648</ele>
        <time>2023-05-19T11:41:15.000Z</time>
      </trkpt>
      <trkpt lat="45.84781" lon="5.7811">
        <ele>258.60000610352</ele>
        <time>2023-05-19T11:41:17.000Z</time>
      </trkpt>
      <trkpt lat="45.84771" lon="5.78104">
        <ele>258.79998779297</ele>
        <time>2023-05-19T11:41:24.000Z</time>
      </trkpt>
      <trkpt lat="45.84767" lon="5.7811">
        <ele>259</ele>
        <time>2023-05-19T11:41:28.000Z</time>
      </trkpt>
      <trkpt lat="45.8476" lon="5.78118">
        <ele>258.79998779297</ele>
        <time>2023-05-19T11:41:33.000Z</time>
      </trkpt>
      <trkpt lat="45.84757" lon="5.78115">
        <ele>258.79998779297</ele>
        <time>2023-05-19T11:41:35.000Z</time>
      </trkpt>
      <trkpt lat="45.84756" lon="5.78111">
        <ele>258.79998779297</ele>
        <time>2023-05-19T11:41:37.000Z</time>
      </trkpt>
      <trkpt lat="45.84759" lon="5.78104">
        <ele>258.79998779297</ele>
        <time>2023-05-19T11:41:40.000Z</time>
      </trkpt>
      <trkpt lat="45.84767" lon="5.78106">
        <ele>259</ele>
        <time>2023-05-19T11:41:45.000Z</time>
      </trkpt>
      <trkpt lat="45.84775" lon="5.78108">
        <ele>259</ele>
        <time>2023-05-19T11:41:50.000Z</time>
      </trkpt>
      <trkpt lat="45.8478" lon="5.78113">
        <ele>258.79998779297</ele>
        <time>2023-05-19T11:41:53.000Z</time>
      </trkpt>
      <trkpt lat="45.8478" lon="5.78117">
        <ele>258.79998779297</ele>
        <time>2023-05-19T11:41:55.000Z</time>
      </trkpt>
      <trkpt lat="45.84786" lon="5.78118">
        <ele>258.79998779297</ele>
        <time>2023-05-19T11:41:58.000Z</time>
      </trkpt>
      <trkpt lat="45.84793" lon="5.78113">
        <ele>259</ele>
        <time>2023-05-19T11:42:01.000Z</time>
      </trkpt>
      <trkpt lat="45.84797" lon="5.78112">
        <ele>259</ele>
        <time>2023-05-19T11:42:02.000Z</time>
      </trkpt>
      <trkpt lat="45.84807" lon="5.78112">
        <ele>259.20001220703</ele>
        <time>2023-05-19T11:42:06.000Z</time>
      </trkpt>
      <trkpt lat="45.84809" lon="5.78113">
        <ele>259.39999389648</ele>
        <time>2023-05-19T11:42:07.000Z</time>
      </trkpt>
      <trkpt lat="45.84824" lon="5.7812">
        <ele>260</ele>
        <time>2023-05-19T11:42:12.000Z</time>
      </trkpt>
      <trkpt lat="45.8483" lon="5.78119">
        <ele>260.39999389648</ele>
        <time>2023-05-19T11:42:14.000Z</time>
      </trkpt>
      <trkpt lat="45.84833" lon="5.78119">
        <ele>260.60000610352</ele>
        <time>2023-05-19T11:42:15.000Z</time>
      </trkpt>
      <trkpt lat="45.84837" lon="5.7812">
        <ele>260.79998779297</ele>
        <time>2023-05-19T11:42:16.000Z</time>
      </trkpt>
      <trkpt lat="45.84849" lon="5.78121">
        <ele>261.60000610352</ele>
        <time>2023-05-19T11:42:20.000Z</time>
      </trkpt>
      <trkpt lat="45.84856" lon="5.78121">
        <ele>261.79998779297</ele>
        <time>2023-05-19T11:42:22.000Z</time>
      </trkpt>
      <trkpt lat="45.84874" lon="5.78124">
        <ele>262.79998779297</ele>
        <time>2023-05-19T11:42:27.000Z</time>
      </trkpt>
      <trkpt lat="45.84893" lon="5.78125">
        <ele>263.39999389648</ele>
        <time>2023-05-19T11:42:32.000Z</time>
      </trkpt>
      <trkpt lat="45.84904" lon="5.78125">
        <ele>264</ele>
        <time>2023-05-19T11:42:35.000Z</time>
      </trkpt>
      <trkpt lat="45.84907" lon="5.78126">
        <ele>264.20001220703</ele>
        <time>2023-05-19T11:42:36.000Z</time>
      </trkpt>
      <trkpt lat="45.84914" lon="5.78127">
        <ele>264.39999389648</ele>
        <time>2023-05-19T11:42:38.000Z</time>
      </trkpt>
      <trkpt lat="45.84924" lon="5.78129">
        <ele>265.20001220703</ele>
        <time>2023-05-19T11:42:41.000Z</time>
      </trkpt>
      <trkpt lat="45.8493" lon="5.78132">
        <ele>265.39999389648</ele>
        <time>2023-05-19T11:42:43.000Z</time>
      </trkpt>
      <trkpt lat="45.84945" lon="5.78149">
        <ele>266.20001220703</ele>
        <time>2023-05-19T11:42:49.000Z</time>
      </trkpt>
      <trkpt lat="45.84959" lon="5.78167">
        <ele>267.20001220703</ele>
        <time>2023-05-19T11:42:56.000Z</time>
      </trkpt>
      <trkpt lat="45.84961" lon="5.78168">
        <ele>267.20001220703</ele>
        <time>2023-05-19T11:42:57.000Z</time>
      </trkpt>
      <trkpt lat="45.84976" lon="5.78177">
        <ele>268</ele>
        <time>2023-05-19T11:43:03.000Z</time>
      </trkpt>
      <trkpt lat="45.84981" lon="5.7818">
        <ele>268.39999389648</ele>
        <time>2023-05-19T11:43:05.000Z</time>
      </trkpt>
      <trkpt lat="45.84992" lon="5.78182">
        <ele>268.79998779297</ele>
        <time>2023-05-19T11:43:09.000Z</time>
      </trkpt>
      <trkpt lat="45.84999" lon="5.78179">
        <ele>269.39999389648</ele>
        <time>2023-05-19T11:43:12.000Z</time>
      </trkpt>
      <trkpt lat="45.85002" lon="5.78174">
        <ele>269.60000610352</ele>
        <time>2023-05-19T11:43:14.000Z</time>
      </trkpt>
      <trkpt lat="45.85006" lon="5.7816">
        <ele>270.60000610352</ele>
        <time>2023-05-19T11:43:18.000Z</time>
      </trkpt>
      <trkpt lat="45.85007" lon="5.78153">
        <ele>270.79998779297</ele>
        <time>2023-05-19T11:43:20.000Z</time>
      </trkpt>
      <trkpt lat="45.85006" lon="5.78131">
        <ele>271</ele>
        <time>2023-05-19T11:43:27.000Z</time>
      </trkpt>
      <trkpt lat="45.85" lon="5.78107">
        <ele>271.20001220703</ele>
        <time>2023-05-19T11:43:34.000Z</time>
      </trkpt>
      <trkpt lat="45.84997" lon="5.78097">
        <ele>271.20001220703</ele>
        <time>2023-05-19T11:43:37.000Z</time>
      </trkpt>
      <trkpt lat="45.84999" lon="5.78092">
        <ele>271.20001220703</ele>
        <time>2023-05-19T11:43:39.000Z</time>
      </trkpt>
      <trkpt lat="45.85009" lon="5.7808">
        <ele>271.79998779297</ele>
        <time>2023-05-19T11:43:45.000Z</time>
      </trkpt>
      <trkpt lat="45.85018" lon="5.78073">
        <ele>272.60000610352</ele>
        <time>2023-05-19T11:43:50.000Z</time>
      </trkpt>
      <trkpt lat="45.85021" lon="5.78069">
        <ele>273</ele>
        <time>2023-05-19T11:43:52.000Z</time>
      </trkpt>
      <trkpt lat="45.8503" lon="5.78057">
        <ele>273.79998779297</ele>
        <time>2023-05-19T11:43:58.000Z</time>
      </trkpt>
      <trkpt lat="45.85033" lon="5.78052">
        <ele>274.20001220703</ele>
        <time>2023-05-19T11:43:59.000Z</time>
      </trkpt>
      <trkpt lat="45.85041" lon="5.78044">
        <ele>275</ele>
        <time>2023-05-19T11:44:04.000Z</time>
      </trkpt>
      <trkpt lat="45.85043" lon="5.78042">
        <ele>275.20001220703</ele>
        <time>2023-05-19T11:44:05.000Z</time>
      </trkpt>
      <trkpt lat="45.85055" lon="5.78033">
        <ele>276.39999389648</ele>
        <time>2023-05-19T11:44:11.000Z</time>
      </trkpt>
      <trkpt lat="45.85066" lon="5.78026">
        <ele>277.39999389648</ele>
        <time>2023-05-19T11:44:16.000Z</time>
      </trkpt>
      <trkpt lat="45.85068" lon="5.78024">
        <ele>277.60000610352</ele>
        <time>2023-05-19T11:44:17.000Z</time>
      </trkpt>
      <trkpt lat="45.85073" lon="5.78019">
        <ele>278.60000610352</ele>
        <time>2023-05-19T11:44:20.000Z</time>
      </trkpt>
      <trkpt lat="45.85074" lon="5.78015">
        <ele>279</ele>
        <time>2023-05-19T11:44:22.000Z</time>
      </trkpt>
      <trkpt lat="45.85071" lon="5.78016">
        <ele>279.60000610352</ele>
        <time>2023-05-19T11:44:26.000Z</time>
      </trkpt>
      <trkpt lat="45.85069" lon="5.78019">
        <ele>279.60000610352</ele>
        <time>2023-05-19T11:44:27.000Z</time>
      </trkpt>
      <trkpt lat="45.85055" lon="5.78032">
        <ele>279.79998779297</ele>
        <time>2023-05-19T11:44:32.000Z</time>
      </trkpt>
      <trkpt lat="45.85035" lon="5.78048">
        <ele>279</ele>
        <time>2023-05-19T11:44:38.000Z</time>
      </trkpt>
      <trkpt lat="45.85032" lon="5.78051">
        <ele>278.60000610352</ele>
        <time>2023-05-19T11:44:39.000Z</time>
      </trkpt>
      <trkpt lat="45.85027" lon="5.78058">
        <ele>277.79998779297</ele>
        <time>2023-05-19T11:44:42.000Z</time>
      </trkpt>
      <trkpt lat="45.85024" lon="5.78062">
        <ele>277.39999389648</ele>
        <time>2023-05-19T11:44:43.000Z</time>
      </trkpt>
      <trkpt lat="45.85012" lon="5.78075">
        <ele>276.39999389648</ele>
        <time>2023-05-19T11:44:47.000Z</time>
      </trkpt>
      <trkpt lat="45.85009" lon="5.78078">
        <ele>276</ele>
        <time>2023-05-19T11:44:48.000Z</time>
      </trkpt>
      <trkpt lat="45.84999" lon="5.78084">
        <ele>275</ele>
        <time>2023-05-19T11:44:51.000Z</time>
      </trkpt>
      <trkpt lat="45.84992" lon="5.78094">
        <ele>274.39999389648</ele>
        <time>2023-05-19T11:44:54.000Z</time>
      </trkpt>
      <trkpt lat="45.8499" lon="5.78096">
        <ele>274</ele>
        <time>2023-05-19T11:44:55.000Z</time>
      </trkpt>
      <trkpt lat="45.8498" lon="5.78102">
        <ele>272.79998779297</ele>
        <time>2023-05-19T11:44:58.000Z</time>
      </trkpt>
      <trkpt lat="45.84977" lon="5.78105">
        <ele>272.60000610352</ele>
        <time>2023-05-19T11:44:59.000Z</time>
      </trkpt>
      <trkpt lat="45.84969" lon="5.78112">
        <ele>272.20001220703</ele>
        <time>2023-05-19T11:45:01.000Z</time>
      </trkpt>
      <trkpt lat="45.84952" lon="5.78122">
        <ele>271.79998779297</ele>
        <time>2023-05-19T11:45:04.000Z</time>
      </trkpt>
      <trkpt lat="45.84936" lon="5.78127">
        <ele>270.79998779297</ele>
        <time>2023-05-19T11:45:07.000Z</time>
      </trkpt>
      <trkpt lat="45.84933" lon="5.78127">
        <ele>270.39999389648</ele>
        <time>2023-05-19T11:45:08.000Z</time>
      </trkpt>
      <trkpt lat="45.84929" lon="5.78127">
        <ele>269.39999389648</ele>
        <time>2023-05-19T11:45:09.000Z</time>
      </trkpt>
      <trkpt lat="45.84919" lon="5.78126">
        <ele>268.39999389648</ele>
        <time>2023-05-19T11:45:11.000Z</time>
      </trkpt>
      <trkpt lat="45.84914" lon="5.78124">
        <ele>268</ele>
        <time>2023-05-19T11:45:12.000Z</time>
      </trkpt>
      <trkpt lat="45.84903" lon="5.78122">
        <ele>267.20001220703</ele>
        <time>2023-05-19T11:45:14.000Z</time>
      </trkpt>
      <trkpt lat="45.84891" lon="5.78121">
        <ele>266.79998779297</ele>
        <time>2023-05-19T11:45:16.000Z</time>
      </trkpt>
      <trkpt lat="45.84865" lon="5.78117">
        <ele>266.20001220703</ele>
        <time>2023-05-19T11:45:20.000Z</time>
      </trkpt>
      <trkpt lat="45.84847" lon="5.78114">
        <ele>265.60000610352</ele>
        <time>2023-05-19T11:45:23.000Z</time>
      </trkpt>
      <trkpt lat="45.84831" lon="5.7811">
        <ele>264.79998779297</ele>
        <time>2023-05-19T11:45:26.000Z</time>
      </trkpt>
      <trkpt lat="45.84827" lon="5.7811">
        <ele>264.60000610352</ele>
        <time>2023-05-19T11:45:27.000Z</time>
      </trkpt>
      <trkpt lat="45.84818" lon="5.78112">
        <ele>264.20001220703</ele>
        <time>2023-05-19T11:45:29.000Z</time>
      </trkpt>
      <trkpt lat="45.84814" lon="5.78106">
        <ele>263.60000610352</ele>
        <time>2023-05-19T11:45:31.000Z</time>
      </trkpt>
      <trkpt lat="45.84812" lon="5.78103">
        <ele>263.39999389648</ele>
        <time>2023-05-19T11:45:32.000Z</time>
      </trkpt>
      <trkpt lat="45.84802" lon="5.781">
        <ele>262.60000610352</ele>
        <time>2023-05-19T11:45:35.000Z</time>
      </trkpt>
      <trkpt lat="45.84796" lon="5.78104">
        <ele>262.20001220703</ele>
        <time>2023-05-19T11:45:37.000Z</time>
      </trkpt>
      <trkpt lat="45.8479" lon="5.78111">
        <ele>261.79998779297</ele>
        <time>2023-05-19T11:45:39.000Z</time>
      </trkpt>
      <trkpt lat="45.8477" lon="5.78129">
        <ele>261.20001220703</ele>
        <time>2023-05-19T11:45:44.000Z</time>
      </trkpt>
      <trkpt lat="45.84761" lon="5.78138">
        <ele>260.79998779297</ele>
        <time>2023-05-19T11:45:46.000Z</time>
      </trkpt>
      <trkpt lat="45.84745" lon="5.78151">
        <ele>260.20001220703</ele>
        <time>2023-05-19T11:45:49.000Z</time>
      </trkpt>
      <trkpt lat="45.84741" lon="5.78154">
        <ele>260</ele>
        <time>2023-05-19T11:45:50.000Z</time>
      </trkpt>
      <trkpt lat="45.84725" lon="5.78159">
        <ele>258.79998779297</ele>
        <time>2023-05-19T11:45:54.000Z</time>
      </trkpt>
      <trkpt lat="45.8471" lon="5.78156">
        <ele>257.39999389648</ele>
        <time>2023-05-19T11:45:58.000Z</time>
      </trkpt>
      <trkpt lat="45.84706" lon="5.78154">
        <ele>257.20001220703</ele>
        <time>2023-05-19T11:45:59.000Z</time>
      </trkpt>
      <trkpt lat="45.84688" lon="5.78146">
        <ele>256.39999389648</ele>
        <time>2023-05-19T11:46:03.000Z</time>
      </trkpt>
      <trkpt lat="45.84678" lon="5.78143">
        <ele>256</ele>
        <time>2023-05-19T11:46:05.000Z</time>
      </trkpt>
      <trkpt lat="45.84674" lon="5.78142">
        <ele>255.60000610352</ele>
        <time>2023-05-19T11:46:06.000Z</time>
      </trkpt>
      <trkpt lat="45.84664" lon="5.78139">
        <ele>255.19999694824</ele>
        <time>2023-05-19T11:46:08.000Z</time>
      </trkpt>
      <trkpt lat="45.8465" lon="5.78136">
        <ele>255</ele>
        <time>2023-05-19T11:46:11.000Z</time>
      </trkpt>
      <trkpt lat="45.84627" lon="5.78129">
        <ele>254.19999694824</ele>
        <time>2023-05-19T11:46:16.000Z</time>
      </trkpt>
      <trkpt lat="45.84623" lon="5.78127">
        <ele>254.19999694824</ele>
        <time>2023-05-19T11:46:17.000Z</time>
      </trkpt>
      <trkpt lat="45.84618" lon="5.78123">
        <ele>253.80000305176</ele>
        <time>2023-05-19T11:46:18.000Z</time>
      </trkpt>
      <trkpt lat="45.84614" lon="5.78119">
        <ele>253.80000305176</ele>
        <time>2023-05-19T11:46:19.000Z</time>
      </trkpt>
      <trkpt lat="45.84603" lon="5.78103">
        <ele>253</ele>
        <time>2023-05-19T11:46:22.000Z</time>
      </trkpt>
      <trkpt lat="45.84599" lon="5.78097">
        <ele>252.80000305176</ele>
        <time>2023-05-19T11:46:23.000Z</time>
      </trkpt>
      <trkpt lat="45.84595" lon="5.78092">
        <ele>252.60000610352</ele>
        <time>2023-05-19T11:46:24.000Z</time>
      </trkpt>
      <trkpt lat="45.84581" lon="5.78073">
        <ele>252</ele>
        <time>2023-05-19T11:46:28.000Z</time>
      </trkpt>
      <trkpt lat="45.84578" lon="5.78069">
        <ele>252</ele>
        <time>2023-05-19T11:46:29.000Z</time>
      </trkpt>
      <trkpt lat="45.84571" lon="5.7806">
        <ele>251.80000305176</ele>
        <time>2023-05-19T11:46:31.000Z</time>
      </trkpt>
      <trkpt lat="45.84568" lon="5.78055">
        <ele>251.39999389648</ele>
        <time>2023-05-19T11:46:32.000Z</time>
      </trkpt>
      <trkpt lat="45.84553" lon="5.78038">
        <ele>250.80000305176</ele>
        <time>2023-05-19T11:46:36.000Z</time>
      </trkpt>
      <trkpt lat="45.84549" lon="5.78033">
        <ele>250.80000305176</ele>
        <time>2023-05-19T11:46:37.000Z</time>
      </trkpt>
      <trkpt lat="45.84517" lon="5.77993">
        <ele>249.80000305176</ele>
        <time>2023-05-19T11:46:45.000Z</time>
      </trkpt>
      <trkpt lat="45.84484" lon="5.77951">
        <ele>248.80000305176</ele>
        <time>2023-05-19T11:46:53.000Z</time>
      </trkpt>
      <trkpt lat="45.8448" lon="5.77946">
        <ele>248.80000305176</ele>
        <time>2023-05-19T11:46:54.000Z</time>
      </trkpt>
      <trkpt lat="45.84449" lon="5.77914">
        <ele>248</ele>
        <time>2023-05-19T11:47:01.000Z</time>
      </trkpt>
      <trkpt lat="45.8443" lon="5.77905">
        <ele>247.80000305176</ele>
        <time>2023-05-19T11:47:05.000Z</time>
      </trkpt>
      <trkpt lat="45.84421" lon="5.77901">
        <ele>247.60000610352</ele>
        <time>2023-05-19T11:47:07.000Z</time>
      </trkpt>
      <trkpt lat="45.84397" lon="5.7789">
        <ele>247.19999694824</ele>
        <time>2023-05-19T11:47:13.000Z</time>
      </trkpt>
      <trkpt lat="45.8438" lon="5.77885">
        <ele>247.39999389648</ele>
        <time>2023-05-19T11:47:19.000Z</time>
      </trkpt>
      <trkpt lat="45.84369" lon="5.77889">
        <ele>247.39999389648</ele>
        <time>2023-05-19T11:47:23.000Z</time>
      </trkpt>
      <trkpt lat="45.84361" lon="5.77886">
        <ele>247.60000610352</ele>
        <time>2023-05-19T11:47:27.000Z</time>
      </trkpt>
      <trkpt lat="45.84348" lon="5.77876">
        <ele>247.80000305176</ele>
        <time>2023-05-19T11:47:34.000Z</time>
      </trkpt>
      <trkpt lat="45.84344" lon="5.77875">
        <ele>247.80000305176</ele>
        <time>2023-05-19T11:47:36.000Z</time>
      </trkpt>
      <trkpt lat="45.84342" lon="5.7788">
        <ele>247.80000305176</ele>
        <time>2023-05-19T11:47:38.000Z</time>
      </trkpt>
      <trkpt lat="45.84341" lon="5.77883">
        <ele>247.80000305176</ele>
        <time>2023-05-19T11:47:39.000Z</time>
      </trkpt>
      <trkpt lat="45.84343" lon="5.77893">
        <ele>248</ele>
        <time>2023-05-19T11:47:42.000Z</time>
      </trkpt>
      <trkpt lat="45.84351" lon="5.77901">
        <ele>248.19999694824</ele>
        <time>2023-05-19T11:47:48.000Z</time>
      </trkpt>
      <trkpt lat="45.84351" lon="5.77902">
        <ele>248.19999694824</ele>
        <time>2023-05-19T11:47:51.000Z</time>
      </trkpt>
      <trkpt lat="45.84358" lon="5.77902">
        <ele>248.80000305176</ele>
        <time>2023-05-19T11:55:52.000Z</time>
      </trkpt>
      <trkpt lat="45.8436" lon="5.77902">
        <ele>248.80000305176</ele>
        <time>2023-05-19T11:55:53.000Z</time>
      </trkpt>
      <trkpt lat="45.84364" lon="5.77901">
        <ele>249</ele>
        <time>2023-05-19T11:55:55.000Z</time>
      </trkpt>
      <trkpt lat="45.8437" lon="5.77896">
        <ele>248.80000305176</ele>
        <time>2023-05-19T11:55:58.000Z</time>
      </trkpt>
      <trkpt lat="45.84373" lon="5.77894">
        <ele>248.80000305176</ele>
        <time>2023-05-19T11:55:59.000Z</time>
      </trkpt>
      <trkpt lat="45.84378" lon="5.77894">
        <ele>248.80000305176</ele>
        <time>2023-05-19T11:56:01.000Z</time>
      </trkpt>
      <trkpt lat="45.84381" lon="5.77896">
        <ele>248.60000610352</ele>
        <time>2023-05-19T11:56:02.000Z</time>
      </trkpt>
      <trkpt lat="45.84385" lon="5.77902">
        <ele>248.39999389648</ele>
        <time>2023-05-19T11:56:04.000Z</time>
      </trkpt>
      <trkpt lat="45.84386" lon="5.77912">
        <ele>248.19999694824</ele>
        <time>2023-05-19T11:56:06.000Z</time>
      </trkpt>
      <trkpt lat="45.84385" lon="5.77935">
        <ele>248</ele>
        <time>2023-05-19T11:56:12.000Z</time>
      </trkpt>
      <trkpt lat="45.84383" lon="5.77955">
        <ele>247.60000610352</ele>
        <time>2023-05-19T11:56:19.000Z</time>
      </trkpt>
      <trkpt lat="45.84383" lon="5.77969">
        <ele>247.60000610352</ele>
        <time>2023-05-19T11:56:25.000Z</time>
      </trkpt>
      <trkpt lat="45.84384" lon="5.7797">
        <ele>247.60000610352</ele>
        <time>2023-05-19T11:56:26.000Z</time>
      </trkpt>
      <trkpt lat="45.84386" lon="5.77969">
        <ele>247.60000610352</ele>
        <time>2023-05-19T11:56:28.000Z</time>
      </trkpt>
      <trkpt lat="45.84385" lon="5.77945">
        <ele>247.39999389648</ele>
        <time>2023-05-19T11:56:35.000Z</time>
      </trkpt>
      <trkpt lat="45.84388" lon="5.77914">
        <ele>247.60000610352</ele>
        <time>2023-05-19T11:56:43.000Z</time>
      </trkpt>
      <trkpt lat="45.8439" lon="5.77901">
        <ele>247.80000305176</ele>
        <time>2023-05-19T11:56:48.000Z</time>
      </trkpt>
      <trkpt lat="45.84401" lon="5.77896">
        <ele>247.80000305176</ele>
        <time>2023-05-19T11:56:53.000Z</time>
      </trkpt>
      <trkpt lat="45.84417" lon="5.77904">
        <ele>247.60000610352</ele>
        <time>2023-05-19T11:57:00.000Z</time>
      </trkpt>
      <trkpt lat="45.84436" lon="5.77913">
        <ele>247.60000610352</ele>
        <time>2023-05-19T11:57:07.000Z</time>
      </trkpt>
      <trkpt lat="45.84452" lon="5.77923">
        <ele>247.60000610352</ele>
        <time>2023-05-19T11:57:13.000Z</time>
      </trkpt>
      <trkpt lat="45.84472" lon="5.77941">
        <ele>248.19999694824</ele>
        <time>2023-05-19T11:57:21.000Z</time>
      </trkpt>
      <trkpt lat="45.84474" lon="5.77947">
        <ele>248.39999389648</ele>
        <time>2023-05-19T11:57:25.000Z</time>
      </trkpt>
      <trkpt lat="45.84474" lon="5.77947">
        <ele>248.39999389648</ele>
        <time>2023-05-19T11:57:26.000Z</time>
      </trkpt>
      <trkpt lat="45.84479" lon="5.77954">
        <ele>248.19999694824</ele>
        <time>2023-05-19T11:57:50.000Z</time>
      </trkpt>
      <trkpt lat="45.84485" lon="5.77958">
        <ele>248.19999694824</ele>
        <time>2023-05-19T11:57:52.000Z</time>
      </trkpt>
      <trkpt lat="45.84502" lon="5.77978">
        <ele>248.39999389648</ele>
        <time>2023-05-19T11:57:58.000Z</time>
      </trkpt>
      <trkpt lat="45.84516" lon="5.77995">
        <ele>249</ele>
        <time>2023-05-19T11:58:03.000Z</time>
      </trkpt>
      <trkpt lat="45.84518" lon="5.77998">
        <ele>249</ele>
        <time>2023-05-19T11:58:04.000Z</time>
      </trkpt>
      <trkpt lat="45.84542" lon="5.78026">
        <ele>249.39999389648</ele>
        <time>2023-05-19T11:58:12.000Z</time>
      </trkpt>
      <trkpt lat="45.84556" lon="5.78044">
        <ele>249.80000305176</ele>
        <time>2023-05-19T11:58:18.000Z</time>
      </trkpt>
      <trkpt lat="45.84558" lon="5.78046">
        <ele>250.19999694824</ele>
        <time>2023-05-19T11:58:19.000Z</time>
      </trkpt>
      <trkpt lat="45.84579" lon="5.78074">
        <ele>251</ele>
        <time>2023-05-19T11:58:28.000Z</time>
      </trkpt>
      <trkpt lat="45.8459" lon="5.78089">
        <ele>251.19999694824</ele>
        <time>2023-05-19T11:58:33.000Z</time>
      </trkpt>
      <trkpt lat="45.84605" lon="5.78108">
        <ele>251.80000305176</ele>
        <time>2023-05-19T11:58:39.000Z</time>
      </trkpt>
      <trkpt lat="45.84622" lon="5.78127">
        <ele>252.19999694824</ele>
        <time>2023-05-19T11:58:46.000Z</time>
      </trkpt>
      <trkpt lat="45.84625" lon="5.78129">
        <ele>252.39999389648</ele>
        <time>2023-05-19T11:58:47.000Z</time>
      </trkpt>
      <trkpt lat="45.84642" lon="5.78139">
        <ele>252.60000610352</ele>
        <time>2023-05-19T11:58:53.000Z</time>
      </trkpt>
      <trkpt lat="45.84656" lon="5.78144">
        <ele>253.39999389648</ele>
        <time>2023-05-19T11:58:59.000Z</time>
      </trkpt>
      <trkpt lat="45.84659" lon="5.78143">
        <ele>253.39999389648</ele>
        <time>2023-05-19T11:59:00.000Z</time>
      </trkpt>
      <trkpt lat="45.84672" lon="5.78145">
        <ele>254.19999694824</ele>
        <time>2023-05-19T11:59:06.000Z</time>
      </trkpt>
      <trkpt lat="45.84691" lon="5.78144">
        <ele>254.60000610352</ele>
        <time>2023-05-19T11:59:13.000Z</time>
      </trkpt>
      <trkpt lat="45.84693" lon="5.78144">
        <ele>254.60000610352</ele>
        <time>2023-05-19T11:59:14.000Z</time>
      </trkpt>
      <trkpt lat="45.84714" lon="5.78151">
        <ele>255</ele>
        <time>2023-05-19T11:59:22.000Z</time>
      </trkpt>
      <trkpt lat="45.84722" lon="5.78162">
        <ele>255.19999694824</ele>
        <time>2023-05-19T11:59:27.000Z</time>
      </trkpt>
      <trkpt lat="45.84724" lon="5.78174">
        <ele>255.39999389648</ele>
        <time>2023-05-19T11:59:30.000Z</time>
      </trkpt>
      <trkpt lat="45.84724" lon="5.78186">
        <ele>255.80000305176</ele>
        <time>2023-05-19T11:59:33.000Z</time>
      </trkpt>
      <trkpt lat="45.84724" lon="5.78191">
        <ele>255.80000305176</ele>
        <time>2023-05-19T11:59:34.000Z</time>
      </trkpt>
      <trkpt lat="45.8472" lon="5.78221">
        <ele>255.39999389648</ele>
        <time>2023-05-19T11:59:40.000Z</time>
      </trkpt>
      <trkpt lat="45.84716" lon="5.78254">
        <ele>255.19999694824</ele>
        <time>2023-05-19T11:59:46.000Z</time>
      </trkpt>
      <trkpt lat="45.84709" lon="5.78282">
        <ele>255</ele>
        <time>2023-05-19T11:59:51.000Z</time>
      </trkpt>
      <trkpt lat="45.84709" lon="5.78294">
        <ele>254.80000305176</ele>
        <time>2023-05-19T11:59:53.000Z</time>
      </trkpt>
      <trkpt lat="45.8471" lon="5.7832">
        <ele>254.60000610352</ele>
        <time>2023-05-19T11:59:57.000Z</time>
      </trkpt>
      <trkpt lat="45.8471" lon="5.78326">
        <ele>254.60000610352</ele>
        <time>2023-05-19T11:59:58.000Z</time>
      </trkpt>
      <trkpt lat="45.84712" lon="5.78339">
        <ele>254.60000610352</ele>
        <time>2023-05-19T12:00:00.000Z</time>
      </trkpt>
      <trkpt lat="45.84711" lon="5.78352">
        <ele>254.39999389648</ele>
        <time>2023-05-19T12:00:02.000Z</time>
      </trkpt>
      <trkpt lat="45.84711" lon="5.78358">
        <ele>254.39999389648</ele>
        <time>2023-05-19T12:00:03.000Z</time>
      </trkpt>
      <trkpt lat="45.8471" lon="5.78366">
        <ele>254.39999389648</ele>
        <time>2023-05-19T12:00:04.000Z</time>
      </trkpt>
      <trkpt lat="45.84705" lon="5.7838">
        <ele>254.19999694824</ele>
        <time>2023-05-19T12:00:06.000Z</time>
      </trkpt>
      <trkpt lat="45.84689" lon="5.78413">
        <ele>253.80000305176</ele>
        <time>2023-05-19T12:00:11.000Z</time>
      </trkpt>
      <trkpt lat="45.84686" lon="5.78419">
        <ele>253.60000610352</ele>
        <time>2023-05-19T12:00:12.000Z</time>
      </trkpt>
      <trkpt lat="45.84683" lon="5.78425">
        <ele>253.60000610352</ele>
        <time>2023-05-19T12:00:13.000Z</time>
      </trkpt>
      <trkpt lat="45.84671" lon="5.78442">
        <ele>253.39999389648</ele>
        <time>2023-05-19T12:00:16.000Z</time>
      </trkpt>
      <trkpt lat="45.84654" lon="5.78462">
        <ele>253.19999694824</ele>
        <time>2023-05-19T12:00:20.000Z</time>
      </trkpt>
      <trkpt lat="45.84633" lon="5.78489">
        <ele>252.39999389648</ele>
        <time>2023-05-19T12:00:25.000Z</time>
      </trkpt>
      <trkpt lat="45.84625" lon="5.78501">
        <ele>252.19999694824</ele>
        <time>2023-05-19T12:00:27.000Z</time>
      </trkpt>
      <trkpt lat="45.84609" lon="5.78522">
        <ele>251.80000305176</ele>
        <time>2023-05-19T12:00:31.000Z</time>
      </trkpt>
      <trkpt lat="45.84596" lon="5.78546">
        <ele>251.39999389648</ele>
        <time>2023-05-19T12:00:35.000Z</time>
      </trkpt>
      <trkpt lat="45.8458" lon="5.78577">
        <ele>250.39999389648</ele>
        <time>2023-05-19T12:00:41.000Z</time>
      </trkpt>
      <trkpt lat="45.84574" lon="5.78586">
        <ele>250.19999694824</ele>
        <time>2023-05-19T12:00:42.000Z</time>
      </trkpt>
      <trkpt lat="45.84567" lon="5.78592">
        <ele>250</ele>
        <time>2023-05-19T12:00:45.000Z</time>
      </trkpt>
      <trkpt lat="45.84559" lon="5.786">
        <ele>249.60000610352</ele>
        <time>2023-05-19T12:00:49.000Z</time>
      </trkpt>
      <trkpt lat="45.84553" lon="5.78607">
        <ele>249.39999389648</ele>
        <time>2023-05-19T12:00:50.000Z</time>
      </trkpt>
      <trkpt lat="45.84549" lon="5.78611">
        <ele>249.39999389648</ele>
        <time>2023-05-19T12:00:52.000Z</time>
      </trkpt>
      <trkpt lat="45.84545" lon="5.78612">
        <ele>249.39999389648</ele>
        <time>2023-05-19T12:00:54.000Z</time>
      </trkpt>
      <trkpt lat="45.84543" lon="5.78616">
        <ele>249.60000610352</ele>
        <time>2023-05-19T12:00:57.000Z</time>
      </trkpt>
      <trkpt lat="45.84544" lon="5.78615">
        <ele>249.60000610352</ele>
        <time>2023-05-19T12:00:58.000Z</time>
      </trkpt>
      <trkpt lat="45.84553" lon="5.78605">
        <ele>249.60000610352</ele>
        <time>2023-05-19T12:01:02.000Z</time>
      </trkpt>
      <trkpt lat="45.84557" lon="5.78591">
        <ele>249.60000610352</ele>
        <time>2023-05-19T12:01:06.000Z</time>
      </trkpt>
      <trkpt lat="45.84557" lon="5.78566">
        <ele>249.39999389648</ele>
        <time>2023-05-19T12:01:11.000Z</time>
      </trkpt>
      <trkpt lat="45.84557" lon="5.78556">
        <ele>249.19999694824</ele>
        <time>2023-05-19T12:01:13.000Z</time>
      </trkpt>
      <trkpt lat="45.84555" lon="5.78537">
        <ele>249</ele>
        <time>2023-05-19T12:01:18.000Z</time>
      </trkpt>
      <trkpt lat="45.84553" lon="5.78531">
        <ele>249</ele>
        <time>2023-05-19T12:01:23.000Z</time>
      </trkpt>
      <trkpt lat="45.84558" lon="5.78552">
        <ele>248.60000610352</ele>
        <time>2023-05-19T12:01:35.000Z</time>
      </trkpt>
      <trkpt lat="45.84558" lon="5.78557">
        <ele>248.60000610352</ele>
        <time>2023-05-19T12:01:36.000Z</time>
      </trkpt>
      <trkpt lat="45.8456" lon="5.78584">
        <ele>248.80000305176</ele>
        <time>2023-05-19T12:01:42.000Z</time>
      </trkpt>
      <trkpt lat="45.84561" lon="5.78592">
        <ele>248.80000305176</ele>
        <time>2023-05-19T12:01:44.000Z</time>
      </trkpt>
      <trkpt lat="45.84558" lon="5.78601">
        <ele>249</ele>
        <time>2023-05-19T12:01:47.000Z</time>
      </trkpt>
      <trkpt lat="45.84556" lon="5.78604">
        <ele>249.19999694824</ele>
        <time>2023-05-19T12:01:48.000Z</time>
      </trkpt>
      <trkpt lat="45.84534" lon="5.78623">
        <ele>249.80000305176</ele>
        <time>2023-05-19T12:01:54.000Z</time>
      </trkpt>
      <trkpt lat="45.84534" lon="5.78623">
        <ele>249.80000305176</ele>
        <time>2023-05-19T12:01:55.000Z</time>
      </trkpt>
      <trkpt lat="45.84533" lon="5.78625">
        <ele>249.80000305176</ele>
        <time>2023-05-19T12:01:56.000Z</time>
      </trkpt>
      <trkpt lat="45.84534" lon="5.78629">
        <ele>250</ele>
        <time>2023-05-19T12:01:58.000Z</time>
      </trkpt>
      <trkpt lat="45.84537" lon="5.78623">
        <ele>250</ele>
        <time>2023-05-19T12:02:01.000Z</time>
      </trkpt>
      <trkpt lat="45.84543" lon="5.78619">
        <ele>250</ele>
        <time>2023-05-19T12:02:04.000Z</time>
      </trkpt>
      <trkpt lat="45.84553" lon="5.78612">
        <ele>250</ele>
        <time>2023-05-19T12:02:06.000Z</time>
      </trkpt>
      <trkpt lat="45.84579" lon="5.7859">
        <ele>249.80000305176</ele>
        <time>2023-05-19T12:02:15.000Z</time>
      </trkpt>
      <trkpt lat="45.84591" lon="5.78571">
        <ele>249.80000305176</ele>
        <time>2023-05-19T12:02:20.000Z</time>
      </trkpt>
      <trkpt lat="45.84605" lon="5.78547">
        <ele>249.60000610352</ele>
        <time>2023-05-19T12:02:28.000Z</time>
      </trkpt>
      <trkpt lat="45.84616" lon="5.78532">
        <ele>249.80000305176</ele>
        <time>2023-05-19T12:02:32.000Z</time>
      </trkpt>
      <trkpt lat="45.84618" lon="5.78531">
        <ele>250.19999694824</ele>
        <time>2023-05-19T12:02:34.000Z</time>
      </trkpt>
      <trkpt lat="45.84623" lon="5.78534">
        <ele>250.19999694824</ele>
        <time>2023-05-19T12:02:36.000Z</time>
      </trkpt>
      <trkpt lat="45.84623" lon="5.78534">
        <ele>250.19999694824</ele>
        <time>2023-05-19T12:02:37.000Z</time>
      </trkpt>
      <trkpt lat="45.84635" lon="5.78555">
        <ele>250.60000610352</ele>
        <time>2023-05-19T12:02:43.000Z</time>
      </trkpt>
      <trkpt lat="45.84649" lon="5.78572">
        <ele>250.80000305176</ele>
        <time>2023-05-19T12:02:49.000Z</time>
      </trkpt>
      <trkpt lat="45.84656" lon="5.78583">
        <ele>250.80000305176</ele>
        <time>2023-05-19T12:02:52.000Z</time>
      </trkpt>
      <trkpt lat="45.8466" lon="5.78602">
        <ele>250.80000305176</ele>
        <time>2023-05-19T12:02:56.000Z</time>
      </trkpt>
      <trkpt lat="45.84666" lon="5.78625">
        <ele>250.80000305176</ele>
        <time>2023-05-19T12:03:01.000Z</time>
      </trkpt>
      <trkpt lat="45.84674" lon="5.7864">
        <ele>250.80000305176</ele>
        <time>2023-05-19T12:03:04.000Z</time>
      </trkpt>
      <trkpt lat="45.84677" lon="5.78643">
        <ele>250.60000610352</ele>
        <time>2023-05-19T12:03:06.000Z</time>
      </trkpt>
      <trkpt lat="45.84696" lon="5.78664">
        <ele>250.39999389648</ele>
        <time>2023-05-19T12:03:12.000Z</time>
      </trkpt>
      <trkpt lat="45.84725" lon="5.78688">
        <ele>250.39999389648</ele>
        <time>2023-05-19T12:03:20.000Z</time>
      </trkpt>
      <trkpt lat="45.84737" lon="5.78692">
        <ele>250.39999389648</ele>
        <time>2023-05-19T12:03:24.000Z</time>
      </trkpt>
      <trkpt lat="45.84739" lon="5.78694">
        <ele>250.39999389648</ele>
        <time>2023-05-19T12:03:26.000Z</time>
      </trkpt>
      <trkpt lat="45.8474" lon="5.78697">
        <ele>250.60000610352</ele>
        <time>2023-05-19T12:03:27.000Z</time>
      </trkpt>
      <trkpt lat="45.84739" lon="5.78703">
        <ele>250.60000610352</ele>
        <time>2023-05-19T12:03:29.000Z</time>
      </trkpt>
      <trkpt lat="45.84742" lon="5.78704">
        <ele>250.80000305176</ele>
        <time>2023-05-19T12:03:31.000Z</time>
      </trkpt>
      <trkpt lat="45.84745" lon="5.78702">
        <ele>250.80000305176</ele>
        <time>2023-05-19T12:03:33.000Z</time>
      </trkpt>
      <trkpt lat="45.84761" lon="5.78699">
        <ele>251</ele>
        <time>2023-05-19T12:03:38.000Z</time>
      </trkpt>
      <trkpt lat="45.84786" lon="5.78695">
        <ele>251.19999694824</ele>
        <time>2023-05-19T12:03:45.000Z</time>
      </trkpt>
      <trkpt lat="45.84791" lon="5.78706">
        <ele>251.19999694824</ele>
        <time>2023-05-19T12:03:48.000Z</time>
      </trkpt>
      <trkpt lat="45.84799" lon="5.7875">
        <ele>251.39999389648</ele>
        <time>2023-05-19T12:03:56.000Z</time>
      </trkpt>
      <trkpt lat="45.84799" lon="5.78768">
        <ele>251.39999389648</ele>
        <time>2023-05-19T12:04:00.000Z</time>
      </trkpt>
      <trkpt lat="45.84791" lon="5.78771">
        <ele>251.39999389648</ele>
        <time>2023-05-19T12:04:03.000Z</time>
      </trkpt>
      <trkpt lat="45.84776" lon="5.7877">
        <ele>251.39999389648</ele>
        <time>2023-05-19T12:04:09.000Z</time>
      </trkpt>
      <trkpt lat="45.84755" lon="5.78773">
        <ele>251.39999389648</ele>
        <time>2023-05-19T12:04:16.000Z</time>
      </trkpt>
      <trkpt lat="45.84733" lon="5.78778">
        <ele>251.60000610352</ele>
        <time>2023-05-19T12:04:23.000Z</time>
      </trkpt>
      <trkpt lat="45.84731" lon="5.78778">
        <ele>251.60000610352</ele>
        <time>2023-05-19T12:04:25.000Z</time>
      </trkpt>
      <trkpt lat="45.84724" lon="5.7878">
        <ele>251.60000610352</ele>
        <time>2023-05-19T12:04:27.000Z</time>
      </trkpt>
      <trkpt lat="45.84723" lon="5.78782">
        <ele>251.60000610352</ele>
        <time>2023-05-19T12:04:29.000Z</time>
      </trkpt>
      <trkpt lat="45.84723" lon="5.78784">
        <ele>251.60000610352</ele>
        <time>2023-05-19T12:04:30.000Z</time>
      </trkpt>
      <trkpt lat="45.84726" lon="5.78787">
        <ele>251.39999389648</ele>
        <time>2023-05-19T12:04:32.000Z</time>
      </trkpt>
      <trkpt lat="45.84744" lon="5.78783">
        <ele>251.19999694824</ele>
        <time>2023-05-19T12:04:37.000Z</time>
      </trkpt>
      <trkpt lat="45.84768" lon="5.7878">
        <ele>251.19999694824</ele>
        <time>2023-05-19T12:04:43.000Z</time>
      </trkpt>
      <trkpt lat="45.84797" lon="5.78781">
        <ele>251.60000610352</ele>
        <time>2023-05-19T12:04:51.000Z</time>
      </trkpt>
      <trkpt lat="45.84805" lon="5.7879">
        <ele>251.80000305176</ele>
        <time>2023-05-19T12:04:55.000Z</time>
      </trkpt>
      <trkpt lat="45.8481" lon="5.78814">
        <ele>252</ele>
        <time>2023-05-19T12:04:59.000Z</time>
      </trkpt>
      <trkpt lat="45.84812" lon="5.78824">
        <ele>252</ele>
        <time>2023-05-19T12:05:00.000Z</time>
      </trkpt>
      <trkpt lat="45.84816" lon="5.78838">
        <ele>252.19999694824</ele>
        <time>2023-05-19T12:05:03.000Z</time>
      </trkpt>
      <trkpt lat="45.84818" lon="5.78857">
        <ele>252.19999694824</ele>
        <time>2023-05-19T12:05:05.000Z</time>
      </trkpt>
      <trkpt lat="45.84827" lon="5.78899">
        <ele>252.39999389648</ele>
        <time>2023-05-19T12:05:12.000Z</time>
      </trkpt>
      <trkpt lat="45.84834" lon="5.78941">
        <ele>252.39999389648</ele>
        <time>2023-05-19T12:05:19.000Z</time>
      </trkpt>
      <trkpt lat="45.84845" lon="5.79">
        <ele>252</ele>
        <time>2023-05-19T12:05:28.000Z</time>
      </trkpt>
      <trkpt lat="45.84846" lon="5.79007">
        <ele>252</ele>
        <time>2023-05-19T12:05:29.000Z</time>
      </trkpt>
      <trkpt lat="45.84857" lon="5.79074">
        <ele>251.80000305176</ele>
        <time>2023-05-19T12:05:39.000Z</time>
      </trkpt>
      <trkpt lat="45.84858" lon="5.7908">
        <ele>251.80000305176</ele>
        <time>2023-05-19T12:05:40.000Z</time>
      </trkpt>
      <trkpt lat="45.84864" lon="5.79123">
        <ele>251.80000305176</ele>
        <time>2023-05-19T12:05:46.000Z</time>
      </trkpt>
      <trkpt lat="45.84868" lon="5.79149">
        <ele>251.60000610352</ele>
        <time>2023-05-19T12:05:52.000Z</time>
      </trkpt>
      <trkpt lat="45.84869" lon="5.79153">
        <ele>251.60000610352</ele>
        <time>2023-05-19T12:05:53.000Z</time>
      </trkpt>
      <trkpt lat="45.84876" lon="5.79185">
        <ele>251.19999694824</ele>
        <time>2023-05-19T12:05:58.000Z</time>
      </trkpt>
      <trkpt lat="45.84876" lon="5.79185">
        <ele>251.19999694824</ele>
        <time>2023-05-19T12:05:59.000Z</time>
      </trkpt>
      <trkpt lat="45.84881" lon="5.79207">
        <ele>251.19999694824</ele>
        <time>2023-05-19T12:06:02.000Z</time>
      </trkpt>
      <trkpt lat="45.84884" lon="5.79216">
        <ele>251.19999694824</ele>
        <time>2023-05-19T12:06:05.000Z</time>
      </trkpt>
      <trkpt lat="45.84906" lon="5.79254">
        <ele>251.60000610352</ele>
        <time>2023-05-19T12:06:12.000Z</time>
      </trkpt>
      <trkpt lat="45.84937" lon="5.79283">
        <ele>251.60000610352</ele>
        <time>2023-05-19T12:06:20.000Z</time>
      </trkpt>
      <trkpt lat="45.84981" lon="5.79312">
        <ele>251.60000610352</ele>
        <time>2023-05-19T12:06:30.000Z</time>
      </trkpt>
      <trkpt lat="45.85029" lon="5.79346">
        <ele>251.80000305176</ele>
        <time>2023-05-19T12:06:40.000Z</time>
      </trkpt>
      <trkpt lat="45.85065" lon="5.79377">
        <ele>252.19999694824</ele>
        <time>2023-05-19T12:06:48.000Z</time>
      </trkpt>
      <trkpt lat="45.85093" lon="5.79409">
        <ele>252.60000610352</ele>
        <time>2023-05-19T12:06:55.000Z</time>
      </trkpt>
      <trkpt lat="45.85099" lon="5.79418">
        <ele>253.19999694824</ele>
        <time>2023-05-19T12:06:57.000Z</time>
      </trkpt>
      <trkpt lat="45.85104" lon="5.7943">
        <ele>253.60000610352</ele>
        <time>2023-05-19T12:07:00.000Z</time>
      </trkpt>
      <trkpt lat="45.85105" lon="5.79435">
        <ele>253.80000305176</ele>
        <time>2023-05-19T12:07:01.000Z</time>
      </trkpt>
      <trkpt lat="45.85104" lon="5.79469">
        <ele>254.19999694824</ele>
        <time>2023-05-19T12:07:07.000Z</time>
      </trkpt>
      <trkpt lat="45.85096" lon="5.79489">
        <ele>254.60000610352</ele>
        <time>2023-05-19T12:07:11.000Z</time>
      </trkpt>
      <trkpt lat="45.85091" lon="5.79501">
        <ele>254.80000305176</ele>
        <time>2023-05-19T12:07:13.000Z</time>
      </trkpt>
      <trkpt lat="45.85081" lon="5.79527">
        <ele>255.80000305176</ele>
        <time>2023-05-19T12:07:18.000Z</time>
      </trkpt>
      <trkpt lat="45.85074" lon="5.79543">
        <ele>256.79998779297</ele>
        <time>2023-05-19T12:07:21.000Z</time>
      </trkpt>
      <trkpt lat="45.85069" lon="5.79555">
        <ele>257.20001220703</ele>
        <time>2023-05-19T12:07:23.000Z</time>
      </trkpt>
      <trkpt lat="45.85056" lon="5.79584">
        <ele>257.79998779297</ele>
        <time>2023-05-19T12:07:28.000Z</time>
      </trkpt>
      <trkpt lat="45.85045" lon="5.79608">
        <ele>257.79998779297</ele>
        <time>2023-05-19T12:07:32.000Z</time>
      </trkpt>
      <trkpt lat="45.85022" lon="5.79664">
        <ele>257.20001220703</ele>
        <time>2023-05-19T12:07:40.000Z</time>
      </trkpt>
      <trkpt lat="45.85002" lon="5.7971">
        <ele>256</ele>
        <time>2023-05-19T12:07:46.000Z</time>
      </trkpt>
      <trkpt lat="45.84994" lon="5.79726">
        <ele>255.39999389648</ele>
        <time>2023-05-19T12:07:48.000Z</time>
      </trkpt>
      <trkpt lat="45.84991" lon="5.79734">
        <ele>255</ele>
        <time>2023-05-19T12:07:49.000Z</time>
      </trkpt>
      <trkpt lat="45.84987" lon="5.79741">
        <ele>254.80000305176</ele>
        <time>2023-05-19T12:07:50.000Z</time>
      </trkpt>
      <trkpt lat="45.84978" lon="5.79752">
        <ele>254.19999694824</ele>
        <time>2023-05-19T12:07:52.000Z</time>
      </trkpt>
      <trkpt lat="45.8497" lon="5.79756">
        <ele>254</ele>
        <time>2023-05-19T12:07:54.000Z</time>
      </trkpt>
      <trkpt lat="45.84966" lon="5.79753">
        <ele>254</ele>
        <time>2023-05-19T12:07:55.000Z</time>
      </trkpt>
      <trkpt lat="45.84965" lon="5.79734">
        <ele>253.39999389648</ele>
        <time>2023-05-19T12:07:58.000Z</time>
      </trkpt>
      <trkpt lat="45.84966" lon="5.79725">
        <ele>253</ele>
        <time>2023-05-19T12:08:00.000Z</time>
      </trkpt>
      <trkpt lat="45.84971" lon="5.7969">
        <ele>252.80000305176</ele>
        <time>2023-05-19T12:08:03.000Z</time>
      </trkpt>
      <trkpt lat="45.84982" lon="5.79612">
        <ele>252.39999389648</ele>
        <time>2023-05-19T12:08:11.000Z</time>
      </trkpt>
      <trkpt lat="45.84988" lon="5.7956">
        <ele>252.19999694824</ele>
        <time>2023-05-19T12:08:17.000Z</time>
      </trkpt>
      <trkpt lat="45.84988" lon="5.79552">
        <ele>252</ele>
        <time>2023-05-19T12:08:18.000Z</time>
      </trkpt>
      <trkpt lat="45.84989" lon="5.79543">
        <ele>252</ele>
        <time>2023-05-19T12:08:19.000Z</time>
      </trkpt>
      <trkpt lat="45.84988" lon="5.79535">
        <ele>252</ele>
        <time>2023-05-19T12:08:20.000Z</time>
      </trkpt>
      <trkpt lat="45.84985" lon="5.79526">
        <ele>252</ele>
        <time>2023-05-19T12:08:21.000Z</time>
      </trkpt>
      <trkpt lat="45.84982" lon="5.7952">
        <ele>252</ele>
        <time>2023-05-19T12:08:22.000Z</time>
      </trkpt>
      <trkpt lat="45.84969" lon="5.79504">
        <ele>251.80000305176</ele>
        <time>2023-05-19T12:08:25.000Z</time>
      </trkpt>
      <trkpt lat="45.8493" lon="5.7945">
        <ele>251.60000610352</ele>
        <time>2023-05-19T12:08:34.000Z</time>
      </trkpt>
      <trkpt lat="45.84892" lon="5.79401">
        <ele>251.19999694824</ele>
        <time>2023-05-19T12:08:42.000Z</time>
      </trkpt>
      <trkpt lat="45.84851" lon="5.79343">
        <ele>251.19999694824</ele>
        <time>2023-05-19T12:08:51.000Z</time>
      </trkpt>
      <trkpt lat="45.84812" lon="5.79286">
        <ele>251.39999389648</ele>
        <time>2023-05-19T12:08:59.000Z</time>
      </trkpt>
      <trkpt lat="45.84807" lon="5.79279">
        <ele>251.19999694824</ele>
        <time>2023-05-19T12:09:00.000Z</time>
      </trkpt>
      <trkpt lat="45.84798" lon="5.79264">
        <ele>251</ele>
        <time>2023-05-19T12:09:02.000Z</time>
      </trkpt>
      <trkpt lat="45.8478" lon="5.79232">
        <ele>250.39999389648</ele>
        <time>2023-05-19T12:09:07.000Z</time>
      </trkpt>
      <trkpt lat="45.8476" lon="5.79196">
        <ele>250.19999694824</ele>
        <time>2023-05-19T12:09:13.000Z</time>
      </trkpt>
      <trkpt lat="45.84727" lon="5.7913">
        <ele>250.60000610352</ele>
        <time>2023-05-19T12:09:23.000Z</time>
      </trkpt>
      <trkpt lat="45.84711" lon="5.79097">
        <ele>250.80000305176</ele>
        <time>2023-05-19T12:09:28.000Z</time>
      </trkpt>
      <trkpt lat="45.84703" lon="5.79078">
        <ele>250.60000610352</ele>
        <time>2023-05-19T12:09:31.000Z</time>
      </trkpt>
      <trkpt lat="45.84683" lon="5.7903">
        <ele>250.39999389648</ele>
        <time>2023-05-19T12:09:39.000Z</time>
      </trkpt>
      <trkpt lat="45.84666" lon="5.78988">
        <ele>250.39999389648</ele>
        <time>2023-05-19T12:09:45.000Z</time>
      </trkpt>
      <trkpt lat="45.84636" lon="5.78915">
        <ele>250.80000305176</ele>
        <time>2023-05-19T12:09:54.000Z</time>
      </trkpt>
      <trkpt lat="45.84608" lon="5.78849">
        <ele>250.80000305176</ele>
        <time>2023-05-19T12:10:03.000Z</time>
      </trkpt>
      <trkpt lat="45.84605" lon="5.78842">
        <ele>250.80000305176</ele>
        <time>2023-05-19T12:10:04.000Z</time>
      </trkpt>
      <trkpt lat="45.84588" lon="5.78799">
        <ele>250.60000610352</ele>
        <time>2023-05-19T12:10:11.000Z</time>
      </trkpt>
      <trkpt lat="45.84562" lon="5.7873">
        <ele>250.80000305176</ele>
        <time>2023-05-19T12:10:22.000Z</time>
      </trkpt>
      <trkpt lat="45.8454" lon="5.78678">
        <ele>251.60000610352</ele>
        <time>2023-05-19T12:10:30.000Z</time>
      </trkpt>
      <trkpt lat="45.84522" lon="5.78638">
        <ele>251.39999389648</ele>
        <time>2023-05-19T12:10:37.000Z</time>
      </trkpt>
      <trkpt lat="45.84508" lon="5.78608">
        <ele>251.39999389648</ele>
        <time>2023-05-19T12:10:43.000Z</time>
      </trkpt>
      <trkpt lat="45.8449" lon="5.78564">
        <ele>251</ele>
        <time>2023-05-19T12:10:50.000Z</time>
      </trkpt>
      <trkpt lat="45.84475" lon="5.78532">
        <ele>250.80000305176</ele>
        <time>2023-05-19T12:10:56.000Z</time>
      </trkpt>
      <trkpt lat="45.8447" lon="5.78522">
        <ele>250.80000305176</ele>
        <time>2023-05-19T12:10:58.000Z</time>
      </trkpt>
      <trkpt lat="45.84448" lon="5.78496">
        <ele>250.60000610352</ele>
        <time>2023-05-19T12:11:04.000Z</time>
      </trkpt>
      <trkpt lat="45.84444" lon="5.78494">
        <ele>250.60000610352</ele>
        <time>2023-05-19T12:11:05.000Z</time>
      </trkpt>
      <trkpt lat="45.84439" lon="5.78493">
        <ele>250.60000610352</ele>
        <time>2023-05-19T12:11:06.000Z</time>
      </trkpt>
      <trkpt lat="45.84425" lon="5.78494">
        <ele>250.60000610352</ele>
        <time>2023-05-19T12:11:09.000Z</time>
      </trkpt>
      <trkpt lat="45.84392" lon="5.78496">
        <ele>250.80000305176</ele>
        <time>2023-05-19T12:11:15.000Z</time>
      </trkpt>
      <trkpt lat="45.84381" lon="5.78494">
        <ele>250.80000305176</ele>
        <time>2023-05-19T12:11:17.000Z</time>
      </trkpt>
      <trkpt lat="45.8437" lon="5.78493">
        <ele>250.80000305176</ele>
        <time>2023-05-19T12:11:19.000Z</time>
      </trkpt>
      <trkpt lat="45.84364" lon="5.78493">
        <ele>250.80000305176</ele>
        <time>2023-05-19T12:11:20.000Z</time>
      </trkpt>
      <trkpt lat="45.84324" lon="5.78491">
        <ele>250.60000610352</ele>
        <time>2023-05-19T12:11:27.000Z</time>
      </trkpt>
      <trkpt lat="45.84276" lon="5.78478">
        <ele>250.60000610352</ele>
        <time>2023-05-19T12:11:35.000Z</time>
      </trkpt>
      <trkpt lat="45.8427" lon="5.78476">
        <ele>250.60000610352</ele>
        <time>2023-05-19T12:11:36.000Z</time>
      </trkpt>
      <trkpt lat="45.8422" lon="5.78458">
        <ele>250.39999389648</ele>
        <time>2023-05-19T12:11:45.000Z</time>
      </trkpt>
      <trkpt lat="45.84196" lon="5.7845">
        <ele>250.19999694824</ele>
        <time>2023-05-19T12:11:51.000Z</time>
      </trkpt>
      <trkpt lat="45.84182" lon="5.78445">
        <ele>250.19999694824</ele>
        <time>2023-05-19T12:11:54.000Z</time>
      </trkpt>
      <trkpt lat="45.84128" lon="5.78426">
        <ele>250</ele>
        <time>2023-05-19T12:12:03.000Z</time>
      </trkpt>
      <trkpt lat="45.84123" lon="5.78424">
        <ele>250.19999694824</ele>
        <time>2023-05-19T12:12:04.000Z</time>
      </trkpt>
      <trkpt lat="45.84118" lon="5.78423">
        <ele>250.19999694824</ele>
        <time>2023-05-19T12:12:05.000Z</time>
      </trkpt>
      <trkpt lat="45.84108" lon="5.78416">
        <ele>250.19999694824</ele>
        <time>2023-05-19T12:12:07.000Z</time>
      </trkpt>
      <trkpt lat="45.84104" lon="5.78412">
        <ele>250.39999389648</ele>
        <time>2023-05-19T12:12:08.000Z</time>
      </trkpt>
      <trkpt lat="45.84087" lon="5.78388">
        <ele>250.60000610352</ele>
        <time>2023-05-19T12:12:13.000Z</time>
      </trkpt>
      <trkpt lat="45.84087" lon="5.78388">
        <ele>250.60000610352</ele>
        <time>2023-05-19T12:12:14.000Z</time>
      </trkpt>
      <trkpt lat="45.84065" lon="5.78365">
        <ele>250.80000305176</ele>
        <time>2023-05-19T12:12:19.000Z</time>
      </trkpt>
      <trkpt lat="45.84062" lon="5.7836">
        <ele>250.80000305176</ele>
        <time>2023-05-19T12:12:20.000Z</time>
      </trkpt>
      <trkpt lat="45.84058" lon="5.78348">
        <ele>250.60000610352</ele>
        <time>2023-05-19T12:12:22.000Z</time>
      </trkpt>
      <trkpt lat="45.84059" lon="5.78334">
        <ele>250.39999389648</ele>
        <time>2023-05-19T12:12:24.000Z</time>
      </trkpt>
      <trkpt lat="45.84067" lon="5.78283">
        <ele>249.80000305176</ele>
        <time>2023-05-19T12:12:31.000Z</time>
      </trkpt>
      <trkpt lat="45.84067" lon="5.78269">
        <ele>249.80000305176</ele>
        <time>2023-05-19T12:12:33.000Z</time>
      </trkpt>
      <trkpt lat="45.84069" lon="5.78257">
        <ele>249.60000610352</ele>
        <time>2023-05-19T12:12:35.000Z</time>
      </trkpt>
      <trkpt lat="45.84072" lon="5.78246">
        <ele>249.60000610352</ele>
        <time>2023-05-19T12:12:37.000Z</time>
      </trkpt>
      <trkpt lat="45.84081" lon="5.78188">
        <ele>249.39999389648</ele>
        <time>2023-05-19T12:12:45.000Z</time>
      </trkpt>
      <trkpt lat="45.84084" lon="5.78172">
        <ele>249.39999389648</ele>
        <time>2023-05-19T12:12:47.000Z</time>
      </trkpt>
      <trkpt lat="45.84092" lon="5.78145">
        <ele>249.39999389648</ele>
        <time>2023-05-19T12:12:51.000Z</time>
      </trkpt>
      <trkpt lat="45.84099" lon="5.78114">
        <ele>249.39999389648</ele>
        <time>2023-05-19T12:12:56.000Z</time>
      </trkpt>
      <trkpt lat="45.84099" lon="5.78108">
        <ele>249.19999694824</ele>
        <time>2023-05-19T12:12:57.000Z</time>
      </trkpt>
      <trkpt lat="45.84097" lon="5.78103">
        <ele>249.19999694824</ele>
        <time>2023-05-19T12:12:58.000Z</time>
      </trkpt>
      <trkpt lat="45.84091" lon="5.78096">
        <ele>249.19999694824</ele>
        <time>2023-05-19T12:13:00.000Z</time>
      </trkpt>
      <trkpt lat="45.84082" lon="5.78092">
        <ele>249</ele>
        <time>2023-05-19T12:13:02.000Z</time>
      </trkpt>
      <trkpt lat="45.84067" lon="5.7809">
        <ele>249</ele>
        <time>2023-05-19T12:13:05.000Z</time>
      </trkpt>
      <trkpt lat="45.84034" lon="5.78096">
        <ele>249.19999694824</ele>
        <time>2023-05-19T12:13:11.000Z</time>
      </trkpt>
      <trkpt lat="45.83975" lon="5.78107">
        <ele>249.19999694824</ele>
        <time>2023-05-19T12:13:21.000Z</time>
      </trkpt>
      <trkpt lat="45.83945" lon="5.78109">
        <ele>248.80000305176</ele>
        <time>2023-05-19T12:13:27.000Z</time>
      </trkpt>
      <trkpt lat="45.83927" lon="5.78109">
        <ele>248.60000610352</ele>
        <time>2023-05-19T12:13:31.000Z</time>
      </trkpt>
      <trkpt lat="45.83919" lon="5.78106">
        <ele>248.39999389648</ele>
        <time>2023-05-19T12:13:33.000Z</time>
      </trkpt>
      <trkpt lat="45.83914" lon="5.78104">
        <ele>248.39999389648</ele>
        <time>2023-05-19T12:13:34.000Z</time>
      </trkpt>
      <trkpt lat="45.83901" lon="5.78093">
        <ele>248.39999389648</ele>
        <time>2023-05-19T12:13:37.000Z</time>
      </trkpt>
      <trkpt lat="45.83897" lon="5.78089">
        <ele>248.39999389648</ele>
        <time>2023-05-19T12:13:38.000Z</time>
      </trkpt>
      <trkpt lat="45.83887" lon="5.7808">
        <ele>248.39999389648</ele>
        <time>2023-05-19T12:13:40.000Z</time>
      </trkpt>
      <trkpt lat="45.8388" lon="5.78067">
        <ele>248.80000305176</ele>
        <time>2023-05-19T12:13:42.000Z</time>
      </trkpt>
      <trkpt lat="45.83876" lon="5.78053">
        <ele>248.80000305176</ele>
        <time>2023-05-19T12:13:44.000Z</time>
      </trkpt>
      <trkpt lat="45.83875" lon="5.78039">
        <ele>249</ele>
        <time>2023-05-19T12:13:46.000Z</time>
      </trkpt>
      <trkpt lat="45.83879" lon="5.78003">
        <ele>249</ele>
        <time>2023-05-19T12:13:51.000Z</time>
      </trkpt>
      <trkpt lat="45.83886" lon="5.77967">
        <ele>248.60000610352</ele>
        <time>2023-05-19T12:13:56.000Z</time>
      </trkpt>
      <trkpt lat="45.83886" lon="5.77956">
        <ele>248.60000610352</ele>
        <time>2023-05-19T12:13:58.000Z</time>
      </trkpt>
      <trkpt lat="45.8389" lon="5.77935">
        <ele>248.39999389648</ele>
        <time>2023-05-19T12:14:02.000Z</time>
      </trkpt>
      <trkpt lat="45.83891" lon="5.77928">
        <ele>248.39999389648</ele>
        <time>2023-05-19T12:14:03.000Z</time>
      </trkpt>
      <trkpt lat="45.83899" lon="5.77875">
        <ele>248</ele>
        <time>2023-05-19T12:14:13.000Z</time>
      </trkpt>
      <trkpt lat="45.83895" lon="5.77859">
        <ele>247.80000305176</ele>
        <time>2023-05-19T12:14:17.000Z</time>
      </trkpt>
      <trkpt lat="45.83894" lon="5.77853">
        <ele>247.60000610352</ele>
        <time>2023-05-19T12:14:19.000Z</time>
      </trkpt>
      <trkpt lat="45.83894" lon="5.77853">
        <ele>247.60000610352</ele>
        <time>2023-05-19T12:14:20.000Z</time>
      </trkpt>
      <trkpt lat="45.83894" lon="5.77853">
        <ele>247.39999389648</ele>
        <time>2023-05-19T12:14:21.000Z</time>
      </trkpt>
      <trkpt lat="45.83888" lon="5.77854">
        <ele>247.19999694824</ele>
        <time>2023-05-19T12:15:06.000Z</time>
      </trkpt>
      <trkpt lat="45.83882" lon="5.77852">
        <ele>247.19999694824</ele>
        <time>2023-05-19T12:15:08.000Z</time>
      </trkpt>
      <trkpt lat="45.83867" lon="5.77845">
        <ele>247</ele>
        <time>2023-05-19T12:15:12.000Z</time>
      </trkpt>
      <trkpt lat="45.83859" lon="5.77843">
        <ele>247.19999694824</ele>
        <time>2023-05-19T12:15:14.000Z</time>
      </trkpt>
      <trkpt lat="45.8383" lon="5.77833">
        <ele>247.60000610352</ele>
        <time>2023-05-19T12:15:20.000Z</time>
      </trkpt>
      <trkpt lat="45.838" lon="5.77824">
        <ele>247.60000610352</ele>
        <time>2023-05-19T12:15:27.000Z</time>
      </trkpt>
      <trkpt lat="45.83795" lon="5.77822">
        <ele>247.60000610352</ele>
        <time>2023-05-19T12:15:28.000Z</time>
      </trkpt>
      <trkpt lat="45.83761" lon="5.77812">
        <ele>247.60000610352</ele>
        <time>2023-05-19T12:15:35.000Z</time>
      </trkpt>
      <trkpt lat="45.83726" lon="5.77806">
        <ele>247.39999389648</ele>
        <time>2023-05-19T12:15:42.000Z</time>
      </trkpt>
      <trkpt lat="45.83681" lon="5.77806">
        <ele>247.19999694824</ele>
        <time>2023-05-19T12:15:51.000Z</time>
      </trkpt>
      <trkpt lat="45.83643" lon="5.77817">
        <ele>247</ele>
        <time>2023-05-19T12:15:59.000Z</time>
      </trkpt>
      <trkpt lat="45.83599" lon="5.77833">
        <ele>247</ele>
        <time>2023-05-19T12:16:08.000Z</time>
      </trkpt>
      <trkpt lat="45.83547" lon="5.77853">
        <ele>246.80000305176</ele>
        <time>2023-05-19T12:16:19.000Z</time>
      </trkpt>
      <trkpt lat="45.83523" lon="5.77862">
        <ele>246.39999389648</ele>
        <time>2023-05-19T12:16:25.000Z</time>
      </trkpt>
      <trkpt lat="45.83473" lon="5.77881">
        <ele>246.19999694824</ele>
        <time>2023-05-19T12:16:35.000Z</time>
      </trkpt>
      <trkpt lat="45.83431" lon="5.77892">
        <ele>246.19999694824</ele>
        <time>2023-05-19T12:16:44.000Z</time>
      </trkpt>
      <trkpt lat="45.8339" lon="5.77898">
        <ele>246.39999389648</ele>
        <time>2023-05-19T12:16:52.000Z</time>
      </trkpt>
      <trkpt lat="45.8334" lon="5.77898">
        <ele>246.39999389648</ele>
        <time>2023-05-19T12:17:01.000Z</time>
      </trkpt>
      <trkpt lat="45.83307" lon="5.77896">
        <ele>246.19999694824</ele>
        <time>2023-05-19T12:17:08.000Z</time>
      </trkpt>
      <trkpt lat="45.83256" lon="5.77895">
        <ele>246.19999694824</ele>
        <time>2023-05-19T12:17:17.000Z</time>
      </trkpt>
      <trkpt lat="45.83217" lon="5.77893">
        <ele>246.39999389648</ele>
        <time>2023-05-19T12:17:25.000Z</time>
      </trkpt>
      <trkpt lat="45.83178" lon="5.77892">
        <ele>246.19999694824</ele>
        <time>2023-05-19T12:17:33.000Z</time>
      </trkpt>
      <trkpt lat="45.83151" lon="5.77893">
        <ele>246.60000610352</ele>
        <time>2023-05-19T12:17:39.000Z</time>
      </trkpt>
      <trkpt lat="45.83146" lon="5.77895">
        <ele>246.60000610352</ele>
        <time>2023-05-19T12:17:40.000Z</time>
      </trkpt>
      <trkpt lat="45.83136" lon="5.779">
        <ele>246.39999389648</ele>
        <time>2023-05-19T12:17:42.000Z</time>
      </trkpt>
      <trkpt lat="45.83132" lon="5.77904">
        <ele>246.39999389648</ele>
        <time>2023-05-19T12:17:43.000Z</time>
      </trkpt>
      <trkpt lat="45.83129" lon="5.77907">
        <ele>246.39999389648</ele>
        <time>2023-05-19T12:17:44.000Z</time>
      </trkpt>
      <trkpt lat="45.8312" lon="5.77909">
        <ele>246.39999389648</ele>
        <time>2023-05-19T12:17:46.000Z</time>
      </trkpt>
      <trkpt lat="45.8311" lon="5.779">
        <ele>246.19999694824</ele>
        <time>2023-05-19T12:17:49.000Z</time>
      </trkpt>
      <trkpt lat="45.83101" lon="5.77899">
        <ele>246</ele>
        <time>2023-05-19T12:17:51.000Z</time>
      </trkpt>
      <trkpt lat="45.83094" lon="5.779">
        <ele>246</ele>
        <time>2023-05-19T12:17:52.000Z</time>
      </trkpt>
      <trkpt lat="45.83056" lon="5.77902">
        <ele>246.39999389648</ele>
        <time>2023-05-19T12:17:59.000Z</time>
      </trkpt>
      <trkpt lat="45.83013" lon="5.77895">
        <ele>246.60000610352</ele>
        <time>2023-05-19T12:18:07.000Z</time>
      </trkpt>
      <trkpt lat="45.8299" lon="5.77892">
        <ele>246.80000305176</ele>
        <time>2023-05-19T12:18:11.000Z</time>
      </trkpt>
      <trkpt lat="45.82961" lon="5.77889">
        <ele>246.80000305176</ele>
        <time>2023-05-19T12:18:16.000Z</time>
      </trkpt>
      <trkpt lat="45.82927" lon="5.77883">
        <ele>246.19999694824</ele>
        <time>2023-05-19T12:18:23.000Z</time>
      </trkpt>
      <trkpt lat="45.82904" lon="5.77876">
        <ele>246.19999694824</ele>
        <time>2023-05-19T12:18:28.000Z</time>
      </trkpt>
      <trkpt lat="45.82894" lon="5.77873">
        <ele>246.19999694824</ele>
        <time>2023-05-19T12:18:30.000Z</time>
      </trkpt>
      <trkpt lat="45.82853" lon="5.7786">
        <ele>246.39999389648</ele>
        <time>2023-05-19T12:18:38.000Z</time>
      </trkpt>
      <trkpt lat="45.82823" lon="5.77849">
        <ele>246.39999389648</ele>
        <time>2023-05-19T12:18:44.000Z</time>
      </trkpt>
      <trkpt lat="45.82817" lon="5.77847">
        <ele>246.39999389648</ele>
        <time>2023-05-19T12:18:45.000Z</time>
      </trkpt>
      <trkpt lat="45.82793" lon="5.77838">
        <ele>246.60000610352</ele>
        <time>2023-05-19T12:18:50.000Z</time>
      </trkpt>
      <trkpt lat="45.82753" lon="5.77822">
        <ele>246.80000305176</ele>
        <time>2023-05-19T12:18:57.000Z</time>
      </trkpt>
      <trkpt lat="45.82721" lon="5.77809">
        <ele>247</ele>
        <time>2023-05-19T12:19:03.000Z</time>
      </trkpt>
      <trkpt lat="45.82712" lon="5.77806">
        <ele>247</ele>
        <time>2023-05-19T12:19:05.000Z</time>
      </trkpt>
      <trkpt lat="45.82697" lon="5.77803">
        <ele>247.19999694824</ele>
        <time>2023-05-19T12:19:08.000Z</time>
      </trkpt>
      <trkpt lat="45.82672" lon="5.77795">
        <ele>247.19999694824</ele>
        <time>2023-05-19T12:19:14.000Z</time>
      </trkpt>
      <trkpt lat="45.82654" lon="5.7779">
        <ele>247.19999694824</ele>
        <time>2023-05-19T12:19:20.000Z</time>
      </trkpt>
      <trkpt lat="45.82648" lon="5.77796">
        <ele>247.19999694824</ele>
        <time>2023-05-19T12:19:21.000Z</time>
      </trkpt>
      <trkpt lat="45.82647" lon="5.77801">
        <ele>247.19999694824</ele>
        <time>2023-05-19T12:19:22.000Z</time>
      </trkpt>
      <trkpt lat="45.82646" lon="5.77808">
        <ele>247.19999694824</ele>
        <time>2023-05-19T12:19:23.000Z</time>
      </trkpt>
      <trkpt lat="45.82643" lon="5.77831">
        <ele>247.19999694824</ele>
        <time>2023-05-19T12:19:26.000Z</time>
      </trkpt>
      <trkpt lat="45.8264" lon="5.77873">
        <ele>247.39999389648</ele>
        <time>2023-05-19T12:19:32.000Z</time>
      </trkpt>
      <trkpt lat="45.82641" lon="5.77886">
        <ele>247.39999389648</ele>
        <time>2023-05-19T12:19:34.000Z</time>
      </trkpt>
      <trkpt lat="45.82642" lon="5.77912">
        <ele>247.39999389648</ele>
        <time>2023-05-19T12:19:38.000Z</time>
      </trkpt>
      <trkpt lat="45.82642" lon="5.77926">
        <ele>247.39999389648</ele>
        <time>2023-05-19T12:19:40.000Z</time>
      </trkpt>
      <trkpt lat="45.82642" lon="5.77947">
        <ele>247.60000610352</ele>
        <time>2023-05-19T12:19:43.000Z</time>
      </trkpt>
      <trkpt lat="45.82643" lon="5.77961">
        <ele>247.60000610352</ele>
        <time>2023-05-19T12:19:45.000Z</time>
      </trkpt>
      <trkpt lat="45.82645" lon="5.77974">
        <ele>247.60000610352</ele>
        <time>2023-05-19T12:19:47.000Z</time>
      </trkpt>
      <trkpt lat="45.82644" lon="5.78">
        <ele>247.60000610352</ele>
        <time>2023-05-19T12:19:51.000Z</time>
      </trkpt>
      <trkpt lat="45.82647" lon="5.78036">
        <ele>247.60000610352</ele>
        <time>2023-05-19T12:19:56.000Z</time>
      </trkpt>
      <trkpt lat="45.8265" lon="5.78063">
        <ele>247.60000610352</ele>
        <time>2023-05-19T12:20:00.000Z</time>
      </trkpt>
      <trkpt lat="45.82651" lon="5.78073">
        <ele>247.60000610352</ele>
        <time>2023-05-19T12:20:01.000Z</time>
      </trkpt>
      <trkpt lat="45.82652" lon="5.7808">
        <ele>247.60000610352</ele>
        <time>2023-05-19T12:20:02.000Z</time>
      </trkpt>
      <trkpt lat="45.82655" lon="5.781">
        <ele>247.80000305176</ele>
        <time>2023-05-19T12:20:05.000Z</time>
      </trkpt>
      <trkpt lat="45.82657" lon="5.78108">
        <ele>247.80000305176</ele>
        <time>2023-05-19T12:20:06.000Z</time>
      </trkpt>
      <trkpt lat="45.82656" lon="5.78115">
        <ele>247.80000305176</ele>
        <time>2023-05-19T12:20:07.000Z</time>
      </trkpt>
      <trkpt lat="45.82655" lon="5.78139">
        <ele>247.80000305176</ele>
        <time>2023-05-19T12:20:11.000Z</time>
      </trkpt>
      <trkpt lat="45.82656" lon="5.7815">
        <ele>247.80000305176</ele>
        <time>2023-05-19T12:20:13.000Z</time>
      </trkpt>
      <trkpt lat="45.82659" lon="5.7816">
        <ele>248</ele>
        <time>2023-05-19T12:20:15.000Z</time>
      </trkpt>
      <trkpt lat="45.82658" lon="5.78191">
        <ele>248</ele>
        <time>2023-05-19T12:20:20.000Z</time>
      </trkpt>
      <trkpt lat="45.82657" lon="5.7823">
        <ele>248</ele>
        <time>2023-05-19T12:20:27.000Z</time>
      </trkpt>
      <trkpt lat="45.82657" lon="5.78235">
        <ele>247.80000305176</ele>
        <time>2023-05-19T12:20:28.000Z</time>
      </trkpt>
      <trkpt lat="45.82657" lon="5.78248">
        <ele>248</ele>
        <time>2023-05-19T12:20:30.000Z</time>
      </trkpt>
      <trkpt lat="45.8266" lon="5.78282">
        <ele>248.19999694824</ele>
        <time>2023-05-19T12:20:35.000Z</time>
      </trkpt>
      <trkpt lat="45.82665" lon="5.78351">
        <ele>248.39999389648</ele>
        <time>2023-05-19T12:20:45.000Z</time>
      </trkpt>
      <trkpt lat="45.82668" lon="5.78395">
        <ele>249</ele>
        <time>2023-05-19T12:20:51.000Z</time>
      </trkpt>
      <trkpt lat="45.82669" lon="5.78402">
        <ele>249</ele>
        <time>2023-05-19T12:20:52.000Z</time>
      </trkpt>
      <trkpt lat="45.82671" lon="5.78428">
        <ele>248.80000305176</ele>
        <time>2023-05-19T12:20:56.000Z</time>
      </trkpt>
      <trkpt lat="45.82672" lon="5.78441">
        <ele>248.80000305176</ele>
        <time>2023-05-19T12:20:58.000Z</time>
      </trkpt>
      <trkpt lat="45.82672" lon="5.78447">
        <ele>248.60000610352</ele>
        <time>2023-05-19T12:20:59.000Z</time>
      </trkpt>
      <trkpt lat="45.82673" lon="5.78454">
        <ele>248.60000610352</ele>
        <time>2023-05-19T12:21:00.000Z</time>
      </trkpt>
      <trkpt lat="45.82675" lon="5.78489">
        <ele>248.60000610352</ele>
        <time>2023-05-19T12:21:06.000Z</time>
      </trkpt>
      <trkpt lat="45.82674" lon="5.78498">
        <ele>248.60000610352</ele>
        <time>2023-05-19T12:21:10.000Z</time>
      </trkpt>
      <trkpt lat="45.82674" lon="5.785">
        <ele>248.60000610352</ele>
        <time>2023-05-19T12:21:14.000Z</time>
      </trkpt>
      <trkpt lat="45.82674" lon="5.785">
        <ele>248.60000610352</ele>
        <time>2023-05-19T12:21:16.000Z</time>
      </trkpt>
      <trkpt lat="45.82655" lon="5.78505">
        <ele>247.60000610352</ele>
        <time>2023-05-19T12:21:47.000Z</time>
      </trkpt>
      <trkpt lat="45.82654" lon="5.78505">
        <ele>247.60000610352</ele>
        <time>2023-05-19T12:21:48.000Z</time>
      </trkpt>
      <trkpt lat="45.82639" lon="5.78501">
        <ele>247.60000610352</ele>
        <time>2023-05-19T12:21:53.000Z</time>
      </trkpt>
      <trkpt lat="45.82612" lon="5.78493">
        <ele>247.80000305176</ele>
        <time>2023-05-19T12:22:00.000Z</time>
      </trkpt>
      <trkpt lat="45.82561" lon="5.78479">
        <ele>248</ele>
        <time>2023-05-19T12:22:11.000Z</time>
      </trkpt>
      <trkpt lat="45.82506" lon="5.78464">
        <ele>248</ele>
        <time>2023-05-19T12:22:24.000Z</time>
      </trkpt>
      <trkpt lat="45.82463" lon="5.78451">
        <ele>248</ele>
        <time>2023-05-19T12:22:34.000Z</time>
      </trkpt>
      <trkpt lat="45.82421" lon="5.7844">
        <ele>247.60000610352</ele>
        <time>2023-05-19T12:22:43.000Z</time>
      </trkpt>
      <trkpt lat="45.82376" lon="5.78428">
        <ele>248</ele>
        <time>2023-05-19T12:22:53.000Z</time>
      </trkpt>
      <trkpt lat="45.82373" lon="5.78427">
        <ele>248</ele>
        <time>2023-05-19T12:22:54.000Z</time>
      </trkpt>
      <trkpt lat="45.82321" lon="5.78413">
        <ele>248.19999694824</ele>
        <time>2023-05-19T12:23:05.000Z</time>
      </trkpt>
      <trkpt lat="45.82273" lon="5.78399">
        <ele>248</ele>
        <time>2023-05-19T12:23:15.000Z</time>
      </trkpt>
      <trkpt lat="45.82227" lon="5.78387">
        <ele>248</ele>
        <time>2023-05-19T12:23:25.000Z</time>
      </trkpt>
      <trkpt lat="45.82192" lon="5.7838">
        <ele>248</ele>
        <time>2023-05-19T12:23:32.000Z</time>
      </trkpt>
      <trkpt lat="45.82142" lon="5.78366">
        <ele>248.60000610352</ele>
        <time>2023-05-19T12:23:41.000Z</time>
      </trkpt>
      <trkpt lat="45.8211" lon="5.78356">
        <ele>248.39999389648</ele>
        <time>2023-05-19T12:23:48.000Z</time>
      </trkpt>
      <trkpt lat="45.82069" lon="5.78346">
        <ele>248</ele>
        <time>2023-05-19T12:23:56.000Z</time>
      </trkpt>
      <trkpt lat="45.8203" lon="5.78333">
        <ele>248</ele>
        <time>2023-05-19T12:24:03.000Z</time>
      </trkpt>
      <trkpt lat="45.81994" lon="5.78318">
        <ele>248.19999694824</ele>
        <time>2023-05-19T12:24:11.000Z</time>
      </trkpt>
      <trkpt lat="45.81965" lon="5.78303">
        <ele>248.19999694824</ele>
        <time>2023-05-19T12:24:18.000Z</time>
      </trkpt>
      <trkpt lat="45.81936" lon="5.78286">
        <ele>248.39999389648</ele>
        <time>2023-05-19T12:24:25.000Z</time>
      </trkpt>
      <trkpt lat="45.81931" lon="5.78285">
        <ele>248.39999389648</ele>
        <time>2023-05-19T12:24:26.000Z</time>
      </trkpt>
      <trkpt lat="45.81917" lon="5.78281">
        <ele>248.60000610352</ele>
        <time>2023-05-19T12:24:29.000Z</time>
      </trkpt>
      <trkpt lat="45.81903" lon="5.78273">
        <ele>248.60000610352</ele>
        <time>2023-05-19T12:24:32.000Z</time>
      </trkpt>
      <trkpt lat="45.81878" lon="5.78252">
        <ele>248.80000305176</ele>
        <time>2023-05-19T12:24:37.000Z</time>
      </trkpt>
      <trkpt lat="45.81863" lon="5.78241">
        <ele>249</ele>
        <time>2023-05-19T12:24:40.000Z</time>
      </trkpt>
      <trkpt lat="45.81838" lon="5.78222">
        <ele>249.19999694824</ele>
        <time>2023-05-19T12:24:45.000Z</time>
      </trkpt>
      <trkpt lat="45.8181" lon="5.78201">
        <ele>249</ele>
        <time>2023-05-19T12:24:51.000Z</time>
      </trkpt>
      <trkpt lat="45.81772" lon="5.78174">
        <ele>249</ele>
        <time>2023-05-19T12:24:59.000Z</time>
      </trkpt>
      <trkpt lat="45.8173" lon="5.78149">
        <ele>248.80000305176</ele>
        <time>2023-05-19T12:25:08.000Z</time>
      </trkpt>
      <trkpt lat="45.81718" lon="5.78143">
        <ele>248.60000610352</ele>
        <time>2023-05-19T12:25:11.000Z</time>
      </trkpt>
      <trkpt lat="45.81711" lon="5.78143">
        <ele>248.60000610352</ele>
        <time>2023-05-19T12:25:13.000Z</time>
      </trkpt>
      <trkpt lat="45.81707" lon="5.78142">
        <ele>248.60000610352</ele>
        <time>2023-05-19T12:25:14.000Z</time>
      </trkpt>
      <trkpt lat="45.81693" lon="5.78138">
        <ele>248.60000610352</ele>
        <time>2023-05-19T12:25:18.000Z</time>
      </trkpt>
      <trkpt lat="45.81673" lon="5.78137">
        <ele>248.39999389648</ele>
        <time>2023-05-19T12:25:24.000Z</time>
      </trkpt>
      <trkpt lat="45.81652" lon="5.78149">
        <ele>248.39999389648</ele>
        <time>2023-05-19T12:25:30.000Z</time>
      </trkpt>
      <trkpt lat="45.81647" lon="5.78152">
        <ele>248.19999694824</ele>
        <time>2023-05-19T12:25:32.000Z</time>
      </trkpt>
      <trkpt lat="45.81637" lon="5.78164">
        <ele>248</ele>
        <time>2023-05-19T12:25:37.000Z</time>
      </trkpt>
      <trkpt lat="45.81627" lon="5.78188">
        <ele>248</ele>
        <time>2023-05-19T12:25:44.000Z</time>
      </trkpt>
      <trkpt lat="45.81625" lon="5.78207">
        <ele>248.19999694824</ele>
        <time>2023-05-19T12:25:50.000Z</time>
      </trkpt>
      <trkpt lat="45.81631" lon="5.78209">
        <ele>248</ele>
        <time>2023-05-19T12:25:53.000Z</time>
      </trkpt>
      <trkpt lat="45.81635" lon="5.78209">
        <ele>248</ele>
        <time>2023-05-19T12:25:55.000Z</time>
      </trkpt>
      <trkpt lat="45.81636" lon="5.78206">
        <ele>248</ele>
        <time>2023-05-19T12:25:57.000Z</time>
      </trkpt>
      <trkpt lat="45.81638" lon="5.78202">
        <ele>247.80000305176</ele>
        <time>2023-05-19T12:25:59.000Z</time>
      </trkpt>
      <trkpt lat="45.8164" lon="5.78201">
        <ele>247.80000305176</ele>
        <time>2023-05-19T12:26:02.000Z</time>
      </trkpt>
      <trkpt lat="45.8164" lon="5.78201">
        <ele>247.80000305176</ele>
        <time>2023-05-19T12:26:03.000Z</time>
      </trkpt>
    </trkseg>
  </trk>
</gpx>